<?xml version="1.0" encoding="UTF-8" standalone="no" ?>
<gpx xmlns="http://www.topografix.com/GPX/1/1" xmlns:xsi="http://www.w3.org/2001/XMLSchema-instance" xsi:schemaLocation="http://www.topografix.com/GPX/1/1 http://www.topografix.com/GPX/1/1/gpx.xsd" version="1.1" creator="VisuGPX - https://www.visugpx.com">
  <metadata>
    <name>BTTAlt800-ActivitéTerminée-J02</name>
  </metadata>
  <trk>
    <name><![CDATA[BTTAlt800-ActivitéTerminée-J02_1]]></name>
    <trkseg>
      <trkpt lat="46.05381" lon="4.49383">
        <ele>381.4</ele>
        <time>2025-09-06T07:33:26Z</time>
      </trkpt>
      <trkpt lat="46.05385" lon="4.49381">
        <ele>381.4</ele>
        <time>2025-09-06T07:33:27Z</time>
      </trkpt>
      <trkpt lat="46.05388" lon="4.4938">
        <ele>381.4</ele>
        <time>2025-09-06T07:33:28Z</time>
      </trkpt>
      <trkpt lat="46.0539" lon="4.49379">
        <ele>381.8</ele>
        <time>2025-09-06T07:33:29Z</time>
      </trkpt>
      <trkpt lat="46.05393" lon="4.49379">
        <ele>381.4</ele>
        <time>2025-09-06T07:33:30Z</time>
      </trkpt>
      <trkpt lat="46.05396" lon="4.49378">
        <ele>381.2</ele>
        <time>2025-09-06T07:33:31Z</time>
      </trkpt>
      <trkpt lat="46.05399" lon="4.49378">
        <ele>381.2</ele>
        <time>2025-09-06T07:33:32Z</time>
      </trkpt>
      <trkpt lat="46.05402" lon="4.49377">
        <ele>381</ele>
        <time>2025-09-06T07:33:33Z</time>
      </trkpt>
      <trkpt lat="46.05405" lon="4.49375">
        <ele>381</ele>
        <time>2025-09-06T07:33:34Z</time>
      </trkpt>
      <trkpt lat="46.05408" lon="4.49374">
        <ele>381</ele>
        <time>2025-09-06T07:33:35Z</time>
      </trkpt>
      <trkpt lat="46.05411" lon="4.49373">
        <ele>380.6</ele>
        <time>2025-09-06T07:33:36Z</time>
      </trkpt>
      <trkpt lat="46.05414" lon="4.49372">
        <ele>380.8</ele>
        <time>2025-09-06T07:33:37Z</time>
      </trkpt>
      <trkpt lat="46.05417" lon="4.49371">
        <ele>381.2</ele>
        <time>2025-09-06T07:33:38Z</time>
      </trkpt>
      <trkpt lat="46.05421" lon="4.4937">
        <ele>381.2</ele>
        <time>2025-09-06T07:33:39Z</time>
      </trkpt>
      <trkpt lat="46.05424" lon="4.49369">
        <ele>381.6</ele>
        <time>2025-09-06T07:33:40Z</time>
      </trkpt>
      <trkpt lat="46.05427" lon="4.49369">
        <ele>381.6</ele>
        <time>2025-09-06T07:33:41Z</time>
      </trkpt>
      <trkpt lat="46.05431" lon="4.49367">
        <ele>381.6</ele>
        <time>2025-09-06T07:33:42Z</time>
      </trkpt>
      <trkpt lat="46.05434" lon="4.49366">
        <ele>381.8</ele>
        <time>2025-09-06T07:33:43Z</time>
      </trkpt>
      <trkpt lat="46.05438" lon="4.49365">
        <ele>381.8</ele>
        <time>2025-09-06T07:33:44Z</time>
      </trkpt>
      <trkpt lat="46.05441" lon="4.49364">
        <ele>381.6</ele>
        <time>2025-09-06T07:33:45Z</time>
      </trkpt>
      <trkpt lat="46.05445" lon="4.49363">
        <ele>381.8</ele>
        <time>2025-09-06T07:33:46Z</time>
      </trkpt>
      <trkpt lat="46.05449" lon="4.49361">
        <ele>381.4</ele>
        <time>2025-09-06T07:33:47Z</time>
      </trkpt>
      <trkpt lat="46.05452" lon="4.4936">
        <ele>381.4</ele>
        <time>2025-09-06T07:33:48Z</time>
      </trkpt>
      <trkpt lat="46.05456" lon="4.49358">
        <ele>381.2</ele>
        <time>2025-09-06T07:33:49Z</time>
      </trkpt>
      <trkpt lat="46.05459" lon="4.49356">
        <ele>381.2</ele>
        <time>2025-09-06T07:33:50Z</time>
      </trkpt>
      <trkpt lat="46.05462" lon="4.49354">
        <ele>381.2</ele>
        <time>2025-09-06T07:33:51Z</time>
      </trkpt>
      <trkpt lat="46.05466" lon="4.49351">
        <ele>381.2</ele>
        <time>2025-09-06T07:33:52Z</time>
      </trkpt>
      <trkpt lat="46.05469" lon="4.49349">
        <ele>381.2</ele>
        <time>2025-09-06T07:33:53Z</time>
      </trkpt>
      <trkpt lat="46.05473" lon="4.49348">
        <ele>380.8</ele>
        <time>2025-09-06T07:33:54Z</time>
      </trkpt>
      <trkpt lat="46.05476" lon="4.49346">
        <ele>380.4</ele>
        <time>2025-09-06T07:33:55Z</time>
      </trkpt>
      <trkpt lat="46.05479" lon="4.49344">
        <ele>380.2</ele>
        <time>2025-09-06T07:33:56Z</time>
      </trkpt>
      <trkpt lat="46.05482" lon="4.49343">
        <ele>380.2</ele>
        <time>2025-09-06T07:33:57Z</time>
      </trkpt>
      <trkpt lat="46.05486" lon="4.49341">
        <ele>380</ele>
        <time>2025-09-06T07:33:58Z</time>
      </trkpt>
      <trkpt lat="46.05489" lon="4.49339">
        <ele>380</ele>
        <time>2025-09-06T07:33:59Z</time>
      </trkpt>
      <trkpt lat="46.05493" lon="4.49337">
        <ele>380</ele>
        <time>2025-09-06T07:34:00Z</time>
      </trkpt>
      <trkpt lat="46.05496" lon="4.49335">
        <ele>380</ele>
        <time>2025-09-06T07:34:01Z</time>
      </trkpt>
      <trkpt lat="46.05499" lon="4.49333">
        <ele>380</ele>
        <time>2025-09-06T07:34:02Z</time>
      </trkpt>
      <trkpt lat="46.05499" lon="4.49333">
        <ele>380</ele>
        <time>2025-09-06T07:34:03Z</time>
      </trkpt>
      <trkpt lat="46.05502" lon="4.4933">
        <ele>380.6</ele>
        <time>2025-09-06T07:34:04Z</time>
      </trkpt>
      <trkpt lat="46.05505" lon="4.49328">
        <ele>380.6</ele>
        <time>2025-09-06T07:34:05Z</time>
      </trkpt>
      <trkpt lat="46.05507" lon="4.49327">
        <ele>380.6</ele>
        <time>2025-09-06T07:34:06Z</time>
      </trkpt>
      <trkpt lat="46.05511" lon="4.49328">
        <ele>380.6</ele>
        <time>2025-09-06T07:34:07Z</time>
      </trkpt>
      <trkpt lat="46.05514" lon="4.4933">
        <ele>380</ele>
        <time>2025-09-06T07:34:08Z</time>
      </trkpt>
      <trkpt lat="46.05518" lon="4.49334">
        <ele>379.8</ele>
        <time>2025-09-06T07:34:09Z</time>
      </trkpt>
      <trkpt lat="46.05522" lon="4.49338">
        <ele>379.2</ele>
        <time>2025-09-06T07:34:10Z</time>
      </trkpt>
      <trkpt lat="46.05527" lon="4.49346">
        <ele>378.8</ele>
        <time>2025-09-06T07:34:11Z</time>
      </trkpt>
      <trkpt lat="46.05531" lon="4.4935">
        <ele>378.4</ele>
        <time>2025-09-06T07:34:12Z</time>
      </trkpt>
      <trkpt lat="46.05536" lon="4.49352">
        <ele>378</ele>
        <time>2025-09-06T07:34:13Z</time>
      </trkpt>
      <trkpt lat="46.0554" lon="4.49353">
        <ele>377.6</ele>
        <time>2025-09-06T07:34:14Z</time>
      </trkpt>
      <trkpt lat="46.05546" lon="4.49356">
        <ele>377</ele>
        <time>2025-09-06T07:34:15Z</time>
      </trkpt>
      <trkpt lat="46.05551" lon="4.4936">
        <ele>376.2</ele>
        <time>2025-09-06T07:34:16Z</time>
      </trkpt>
      <trkpt lat="46.05557" lon="4.49366">
        <ele>375</ele>
        <time>2025-09-06T07:34:17Z</time>
      </trkpt>
      <trkpt lat="46.05563" lon="4.49373">
        <ele>374.2</ele>
        <time>2025-09-06T07:34:18Z</time>
      </trkpt>
      <trkpt lat="46.05569" lon="4.49381">
        <ele>373.4</ele>
        <time>2025-09-06T07:34:19Z</time>
      </trkpt>
      <trkpt lat="46.05579" lon="4.494">
        <ele>373</ele>
        <time>2025-09-06T07:34:20Z</time>
      </trkpt>
      <trkpt lat="46.05583" lon="4.4941">
        <ele>372.4</ele>
        <time>2025-09-06T07:34:21Z</time>
      </trkpt>
      <trkpt lat="46.05588" lon="4.4942">
        <ele>371.8</ele>
        <time>2025-09-06T07:34:22Z</time>
      </trkpt>
      <trkpt lat="46.05593" lon="4.49429">
        <ele>371.4</ele>
        <time>2025-09-06T07:34:23Z</time>
      </trkpt>
      <trkpt lat="46.05597" lon="4.49439">
        <ele>371.4</ele>
        <time>2025-09-06T07:34:24Z</time>
      </trkpt>
      <trkpt lat="46.056" lon="4.49445">
        <ele>370.6</ele>
        <time>2025-09-06T07:34:25Z</time>
      </trkpt>
      <trkpt lat="46.05602" lon="4.4945">
        <ele>371</ele>
        <time>2025-09-06T07:34:26Z</time>
      </trkpt>
      <trkpt lat="46.05605" lon="4.49455">
        <ele>371.4</ele>
        <time>2025-09-06T07:34:27Z</time>
      </trkpt>
      <trkpt lat="46.05607" lon="4.4946">
        <ele>371.4</ele>
        <time>2025-09-06T07:34:28Z</time>
      </trkpt>
      <trkpt lat="46.05611" lon="4.49458">
        <ele>371.4</ele>
        <time>2025-09-06T07:34:29Z</time>
      </trkpt>
      <trkpt lat="46.05614" lon="4.49459">
        <ele>371</ele>
        <time>2025-09-06T07:34:30Z</time>
      </trkpt>
      <trkpt lat="46.05618" lon="4.49457">
        <ele>371</ele>
        <time>2025-09-06T07:34:31Z</time>
      </trkpt>
      <trkpt lat="46.05623" lon="4.49455">
        <ele>371.4</ele>
        <time>2025-09-06T07:34:32Z</time>
      </trkpt>
      <trkpt lat="46.05627" lon="4.49453">
        <ele>371.2</ele>
        <time>2025-09-06T07:34:33Z</time>
      </trkpt>
      <trkpt lat="46.05632" lon="4.4945">
        <ele>371.2</ele>
        <time>2025-09-06T07:34:34Z</time>
      </trkpt>
      <trkpt lat="46.05637" lon="4.49446">
        <ele>370.6</ele>
        <time>2025-09-06T07:34:35Z</time>
      </trkpt>
      <trkpt lat="46.05643" lon="4.49442">
        <ele>370.4</ele>
        <time>2025-09-06T07:34:36Z</time>
      </trkpt>
      <trkpt lat="46.05648" lon="4.49438">
        <ele>370.4</ele>
        <time>2025-09-06T07:34:37Z</time>
      </trkpt>
      <trkpt lat="46.05652" lon="4.49433">
        <ele>370.2</ele>
        <time>2025-09-06T07:34:38Z</time>
      </trkpt>
      <trkpt lat="46.05657" lon="4.49429">
        <ele>370.2</ele>
        <time>2025-09-06T07:34:39Z</time>
      </trkpt>
      <trkpt lat="46.05662" lon="4.49424">
        <ele>370.2</ele>
        <time>2025-09-06T07:34:40Z</time>
      </trkpt>
      <trkpt lat="46.05666" lon="4.49419">
        <ele>370.2</ele>
        <time>2025-09-06T07:34:41Z</time>
      </trkpt>
      <trkpt lat="46.05671" lon="4.49413">
        <ele>370.2</ele>
        <time>2025-09-06T07:34:42Z</time>
      </trkpt>
      <trkpt lat="46.05675" lon="4.49407">
        <ele>370.8</ele>
        <time>2025-09-06T07:34:43Z</time>
      </trkpt>
      <trkpt lat="46.05679" lon="4.49401">
        <ele>370.8</ele>
        <time>2025-09-06T07:34:44Z</time>
      </trkpt>
      <trkpt lat="46.05682" lon="4.49395">
        <ele>370.8</ele>
        <time>2025-09-06T07:34:45Z</time>
      </trkpt>
      <trkpt lat="46.05683" lon="4.4939">
        <ele>371.4</ele>
        <time>2025-09-06T07:34:46Z</time>
      </trkpt>
      <trkpt lat="46.05682" lon="4.49386">
        <ele>371.6</ele>
        <time>2025-09-06T07:34:47Z</time>
      </trkpt>
      <trkpt lat="46.05682" lon="4.49383">
        <ele>371.6</ele>
        <time>2025-09-06T07:34:48Z</time>
      </trkpt>
      <trkpt lat="46.05683" lon="4.4938">
        <ele>371.6</ele>
        <time>2025-09-06T07:34:49Z</time>
      </trkpt>
      <trkpt lat="46.05684" lon="4.4938">
        <ele>371.6</ele>
        <time>2025-09-06T07:34:50Z</time>
      </trkpt>
      <trkpt lat="46.05683" lon="4.49381">
        <ele>371.6</ele>
        <time>2025-09-06T07:34:51Z</time>
      </trkpt>
      <trkpt lat="46.05683" lon="4.4938">
        <ele>371.6</ele>
        <time>2025-09-06T07:34:52Z</time>
      </trkpt>
      <trkpt lat="46.05682" lon="4.49375">
        <ele>371.2</ele>
        <time>2025-09-06T07:35:32Z</time>
      </trkpt>
      <trkpt lat="46.05685" lon="4.49377">
        <ele>371.4</ele>
        <time>2025-09-06T07:35:33Z</time>
      </trkpt>
      <trkpt lat="46.05688" lon="4.49377">
        <ele>371.8</ele>
        <time>2025-09-06T07:35:34Z</time>
      </trkpt>
      <trkpt lat="46.05691" lon="4.49376">
        <ele>371.8</ele>
        <time>2025-09-06T07:35:35Z</time>
      </trkpt>
      <trkpt lat="46.05695" lon="4.49374">
        <ele>371.4</ele>
        <time>2025-09-06T07:35:36Z</time>
      </trkpt>
      <trkpt lat="46.05698" lon="4.49371">
        <ele>371.6</ele>
        <time>2025-09-06T07:35:37Z</time>
      </trkpt>
      <trkpt lat="46.05702" lon="4.49367">
        <ele>371.2</ele>
        <time>2025-09-06T07:35:38Z</time>
      </trkpt>
      <trkpt lat="46.05706" lon="4.49364">
        <ele>371.2</ele>
        <time>2025-09-06T07:35:39Z</time>
      </trkpt>
      <trkpt lat="46.0571" lon="4.4936">
        <ele>371.2</ele>
        <time>2025-09-06T07:35:40Z</time>
      </trkpt>
      <trkpt lat="46.05716" lon="4.49356">
        <ele>371.2</ele>
        <time>2025-09-06T07:35:41Z</time>
      </trkpt>
      <trkpt lat="46.05719" lon="4.49352">
        <ele>371.8</ele>
        <time>2025-09-06T07:35:42Z</time>
      </trkpt>
      <trkpt lat="46.05723" lon="4.49348">
        <ele>371.6</ele>
        <time>2025-09-06T07:35:43Z</time>
      </trkpt>
      <trkpt lat="46.05727" lon="4.49345">
        <ele>371.6</ele>
        <time>2025-09-06T07:35:44Z</time>
      </trkpt>
      <trkpt lat="46.05732" lon="4.49341">
        <ele>371.8</ele>
        <time>2025-09-06T07:35:45Z</time>
      </trkpt>
      <trkpt lat="46.05736" lon="4.49338">
        <ele>371.8</ele>
        <time>2025-09-06T07:35:46Z</time>
      </trkpt>
      <trkpt lat="46.0574" lon="4.49335">
        <ele>371.2</ele>
        <time>2025-09-06T07:35:47Z</time>
      </trkpt>
      <trkpt lat="46.05744" lon="4.49331">
        <ele>371.2</ele>
        <time>2025-09-06T07:35:48Z</time>
      </trkpt>
      <trkpt lat="46.05748" lon="4.49326">
        <ele>372</ele>
        <time>2025-09-06T07:35:49Z</time>
      </trkpt>
      <trkpt lat="46.05753" lon="4.49323">
        <ele>372</ele>
        <time>2025-09-06T07:35:50Z</time>
      </trkpt>
      <trkpt lat="46.05757" lon="4.4932">
        <ele>372</ele>
        <time>2025-09-06T07:35:51Z</time>
      </trkpt>
      <trkpt lat="46.05762" lon="4.49316">
        <ele>372</ele>
        <time>2025-09-06T07:35:52Z</time>
      </trkpt>
      <trkpt lat="46.05766" lon="4.49312">
        <ele>372</ele>
        <time>2025-09-06T07:35:53Z</time>
      </trkpt>
      <trkpt lat="46.05771" lon="4.49309">
        <ele>372</ele>
        <time>2025-09-06T07:35:54Z</time>
      </trkpt>
      <trkpt lat="46.05776" lon="4.49307">
        <ele>372</ele>
        <time>2025-09-06T07:35:55Z</time>
      </trkpt>
      <trkpt lat="46.0578" lon="4.49304">
        <ele>372</ele>
        <time>2025-09-06T07:35:56Z</time>
      </trkpt>
      <trkpt lat="46.05784" lon="4.49301">
        <ele>372</ele>
        <time>2025-09-06T07:35:57Z</time>
      </trkpt>
      <trkpt lat="46.05788" lon="4.49299">
        <ele>372</ele>
        <time>2025-09-06T07:35:58Z</time>
      </trkpt>
      <trkpt lat="46.05793" lon="4.49296">
        <ele>372</ele>
        <time>2025-09-06T07:35:59Z</time>
      </trkpt>
      <trkpt lat="46.05797" lon="4.49291">
        <ele>372</ele>
        <time>2025-09-06T07:36:00Z</time>
      </trkpt>
      <trkpt lat="46.05801" lon="4.49288">
        <ele>372</ele>
        <time>2025-09-06T07:36:01Z</time>
      </trkpt>
      <trkpt lat="46.05805" lon="4.49284">
        <ele>372</ele>
        <time>2025-09-06T07:36:02Z</time>
      </trkpt>
      <trkpt lat="46.05808" lon="4.4928">
        <ele>372</ele>
        <time>2025-09-06T07:36:03Z</time>
      </trkpt>
      <trkpt lat="46.05812" lon="4.49277">
        <ele>372.4</ele>
        <time>2025-09-06T07:36:04Z</time>
      </trkpt>
      <trkpt lat="46.05815" lon="4.49275">
        <ele>372.4</ele>
        <time>2025-09-06T07:36:05Z</time>
      </trkpt>
      <trkpt lat="46.05818" lon="4.49269">
        <ele>372.8</ele>
        <time>2025-09-06T07:36:06Z</time>
      </trkpt>
      <trkpt lat="46.05821" lon="4.49262">
        <ele>372.8</ele>
        <time>2025-09-06T07:36:07Z</time>
      </trkpt>
      <trkpt lat="46.05825" lon="4.49262">
        <ele>372.8</ele>
        <time>2025-09-06T07:36:08Z</time>
      </trkpt>
      <trkpt lat="46.05827" lon="4.49255">
        <ele>373.4</ele>
        <time>2025-09-06T07:36:09Z</time>
      </trkpt>
      <trkpt lat="46.0583" lon="4.4925">
        <ele>373</ele>
        <time>2025-09-06T07:36:10Z</time>
      </trkpt>
      <trkpt lat="46.05833" lon="4.49243">
        <ele>373</ele>
        <time>2025-09-06T07:36:11Z</time>
      </trkpt>
      <trkpt lat="46.05835" lon="4.49237">
        <ele>373</ele>
        <time>2025-09-06T07:36:12Z</time>
      </trkpt>
      <trkpt lat="46.05839" lon="4.49233">
        <ele>373</ele>
        <time>2025-09-06T07:36:13Z</time>
      </trkpt>
      <trkpt lat="46.05842" lon="4.49228">
        <ele>373.4</ele>
        <time>2025-09-06T07:36:14Z</time>
      </trkpt>
      <trkpt lat="46.05845" lon="4.49222">
        <ele>373.4</ele>
        <time>2025-09-06T07:36:15Z</time>
      </trkpt>
      <trkpt lat="46.05849" lon="4.49218">
        <ele>373.4</ele>
        <time>2025-09-06T07:36:16Z</time>
      </trkpt>
      <trkpt lat="46.05853" lon="4.4921">
        <ele>373.4</ele>
        <time>2025-09-06T07:36:17Z</time>
      </trkpt>
      <trkpt lat="46.05856" lon="4.49207">
        <ele>373.4</ele>
        <time>2025-09-06T07:36:18Z</time>
      </trkpt>
      <trkpt lat="46.05859" lon="4.49203">
        <ele>373.4</ele>
        <time>2025-09-06T07:36:19Z</time>
      </trkpt>
      <trkpt lat="46.05863" lon="4.49199">
        <ele>373.4</ele>
        <time>2025-09-06T07:36:20Z</time>
      </trkpt>
      <trkpt lat="46.05868" lon="4.49196">
        <ele>373.4</ele>
        <time>2025-09-06T07:36:21Z</time>
      </trkpt>
      <trkpt lat="46.05872" lon="4.49192">
        <ele>373.4</ele>
        <time>2025-09-06T07:36:22Z</time>
      </trkpt>
      <trkpt lat="46.05876" lon="4.49189">
        <ele>373.4</ele>
        <time>2025-09-06T07:36:23Z</time>
      </trkpt>
      <trkpt lat="46.0588" lon="4.49186">
        <ele>373.4</ele>
        <time>2025-09-06T07:36:24Z</time>
      </trkpt>
      <trkpt lat="46.05885" lon="4.49182">
        <ele>373.4</ele>
        <time>2025-09-06T07:36:25Z</time>
      </trkpt>
      <trkpt lat="46.05889" lon="4.49179">
        <ele>373.4</ele>
        <time>2025-09-06T07:36:26Z</time>
      </trkpt>
      <trkpt lat="46.05893" lon="4.49177">
        <ele>373.2</ele>
        <time>2025-09-06T07:36:27Z</time>
      </trkpt>
      <trkpt lat="46.05898" lon="4.49174">
        <ele>373.2</ele>
        <time>2025-09-06T07:36:28Z</time>
      </trkpt>
      <trkpt lat="46.05902" lon="4.49172">
        <ele>373.2</ele>
        <time>2025-09-06T07:36:29Z</time>
      </trkpt>
      <trkpt lat="46.05906" lon="4.49169">
        <ele>373.2</ele>
        <time>2025-09-06T07:36:30Z</time>
      </trkpt>
      <trkpt lat="46.05911" lon="4.49168">
        <ele>373.4</ele>
        <time>2025-09-06T07:36:31Z</time>
      </trkpt>
      <trkpt lat="46.05916" lon="4.49166">
        <ele>373.4</ele>
        <time>2025-09-06T07:36:32Z</time>
      </trkpt>
      <trkpt lat="46.05921" lon="4.49164">
        <ele>373.4</ele>
        <time>2025-09-06T07:36:33Z</time>
      </trkpt>
      <trkpt lat="46.05925" lon="4.49163">
        <ele>373.6</ele>
        <time>2025-09-06T07:36:34Z</time>
      </trkpt>
      <trkpt lat="46.05929" lon="4.49161">
        <ele>373.6</ele>
        <time>2025-09-06T07:36:35Z</time>
      </trkpt>
      <trkpt lat="46.05934" lon="4.49159">
        <ele>373.4</ele>
        <time>2025-09-06T07:36:36Z</time>
      </trkpt>
      <trkpt lat="46.05938" lon="4.49158">
        <ele>373.6</ele>
        <time>2025-09-06T07:36:37Z</time>
      </trkpt>
      <trkpt lat="46.05943" lon="4.49156">
        <ele>373.6</ele>
        <time>2025-09-06T07:36:38Z</time>
      </trkpt>
      <trkpt lat="46.05947" lon="4.49154">
        <ele>373.6</ele>
        <time>2025-09-06T07:36:39Z</time>
      </trkpt>
      <trkpt lat="46.05952" lon="4.49152">
        <ele>373.6</ele>
        <time>2025-09-06T07:36:40Z</time>
      </trkpt>
      <trkpt lat="46.05956" lon="4.4915">
        <ele>374.2</ele>
        <time>2025-09-06T07:36:41Z</time>
      </trkpt>
      <trkpt lat="46.05961" lon="4.49149">
        <ele>374.2</ele>
        <time>2025-09-06T07:36:42Z</time>
      </trkpt>
      <trkpt lat="46.05965" lon="4.49147">
        <ele>374.4</ele>
        <time>2025-09-06T07:36:43Z</time>
      </trkpt>
      <trkpt lat="46.0597" lon="4.49146">
        <ele>374.4</ele>
        <time>2025-09-06T07:36:44Z</time>
      </trkpt>
      <trkpt lat="46.05974" lon="4.49144">
        <ele>374.4</ele>
        <time>2025-09-06T07:36:45Z</time>
      </trkpt>
      <trkpt lat="46.0598" lon="4.49143">
        <ele>374.4</ele>
        <time>2025-09-06T07:36:46Z</time>
      </trkpt>
      <trkpt lat="46.05984" lon="4.49143">
        <ele>374.6</ele>
        <time>2025-09-06T07:36:47Z</time>
      </trkpt>
      <trkpt lat="46.05988" lon="4.49142">
        <ele>375</ele>
        <time>2025-09-06T07:36:48Z</time>
      </trkpt>
      <trkpt lat="46.05992" lon="4.49141">
        <ele>375</ele>
        <time>2025-09-06T07:36:49Z</time>
      </trkpt>
      <trkpt lat="46.05996" lon="4.49141">
        <ele>375.2</ele>
        <time>2025-09-06T07:36:50Z</time>
      </trkpt>
      <trkpt lat="46.05999" lon="4.49141">
        <ele>375.8</ele>
        <time>2025-09-06T07:36:51Z</time>
      </trkpt>
      <trkpt lat="46.06002" lon="4.49141">
        <ele>375.8</ele>
        <time>2025-09-06T07:36:52Z</time>
      </trkpt>
      <trkpt lat="46.06005" lon="4.49141">
        <ele>376</ele>
        <time>2025-09-06T07:36:53Z</time>
      </trkpt>
      <trkpt lat="46.06008" lon="4.4914">
        <ele>376</ele>
        <time>2025-09-06T07:36:54Z</time>
      </trkpt>
      <trkpt lat="46.06011" lon="4.4914">
        <ele>376.4</ele>
        <time>2025-09-06T07:36:55Z</time>
      </trkpt>
      <trkpt lat="46.06014" lon="4.4914">
        <ele>376.6</ele>
        <time>2025-09-06T07:36:56Z</time>
      </trkpt>
      <trkpt lat="46.06016" lon="4.49141">
        <ele>377</ele>
        <time>2025-09-06T07:36:57Z</time>
      </trkpt>
      <trkpt lat="46.06019" lon="4.49141">
        <ele>377</ele>
        <time>2025-09-06T07:36:58Z</time>
      </trkpt>
      <trkpt lat="46.06022" lon="4.49141">
        <ele>377.4</ele>
        <time>2025-09-06T07:36:59Z</time>
      </trkpt>
      <trkpt lat="46.06024" lon="4.49142">
        <ele>377.6</ele>
        <time>2025-09-06T07:37:00Z</time>
      </trkpt>
      <trkpt lat="46.06027" lon="4.49142">
        <ele>377.6</ele>
        <time>2025-09-06T07:37:01Z</time>
      </trkpt>
      <trkpt lat="46.06029" lon="4.49142">
        <ele>378</ele>
        <time>2025-09-06T07:37:02Z</time>
      </trkpt>
      <trkpt lat="46.06032" lon="4.49143">
        <ele>378.2</ele>
        <time>2025-09-06T07:37:03Z</time>
      </trkpt>
      <trkpt lat="46.06035" lon="4.49144">
        <ele>378.2</ele>
        <time>2025-09-06T07:37:04Z</time>
      </trkpt>
      <trkpt lat="46.06037" lon="4.49144">
        <ele>378.6</ele>
        <time>2025-09-06T07:37:05Z</time>
      </trkpt>
      <trkpt lat="46.0604" lon="4.49145">
        <ele>378.6</ele>
        <time>2025-09-06T07:37:06Z</time>
      </trkpt>
      <trkpt lat="46.0604" lon="4.49145">
        <ele>379</ele>
        <time>2025-09-06T07:37:07Z</time>
      </trkpt>
      <trkpt lat="46.06043" lon="4.49146">
        <ele>379</ele>
        <time>2025-09-06T07:37:08Z</time>
      </trkpt>
      <trkpt lat="46.06046" lon="4.49147">
        <ele>379.2</ele>
        <time>2025-09-06T07:37:09Z</time>
      </trkpt>
      <trkpt lat="46.06048" lon="4.49148">
        <ele>379.2</ele>
        <time>2025-09-06T07:37:10Z</time>
      </trkpt>
      <trkpt lat="46.06051" lon="4.49149">
        <ele>379.6</ele>
        <time>2025-09-06T07:37:11Z</time>
      </trkpt>
      <trkpt lat="46.06054" lon="4.4915">
        <ele>379.8</ele>
        <time>2025-09-06T07:37:12Z</time>
      </trkpt>
      <trkpt lat="46.06057" lon="4.4915">
        <ele>379.8</ele>
        <time>2025-09-06T07:37:13Z</time>
      </trkpt>
      <trkpt lat="46.06059" lon="4.49151">
        <ele>379.8</ele>
        <time>2025-09-06T07:37:14Z</time>
      </trkpt>
      <trkpt lat="46.06062" lon="4.49152">
        <ele>379.8</ele>
        <time>2025-09-06T07:37:15Z</time>
      </trkpt>
      <trkpt lat="46.06064" lon="4.49153">
        <ele>380</ele>
        <time>2025-09-06T07:37:16Z</time>
      </trkpt>
      <trkpt lat="46.06067" lon="4.49154">
        <ele>380</ele>
        <time>2025-09-06T07:37:17Z</time>
      </trkpt>
      <trkpt lat="46.06069" lon="4.49154">
        <ele>380</ele>
        <time>2025-09-06T07:37:18Z</time>
      </trkpt>
      <trkpt lat="46.06072" lon="4.49155">
        <ele>380</ele>
        <time>2025-09-06T07:37:19Z</time>
      </trkpt>
      <trkpt lat="46.06074" lon="4.49156">
        <ele>380.4</ele>
        <time>2025-09-06T07:37:20Z</time>
      </trkpt>
      <trkpt lat="46.06076" lon="4.49156">
        <ele>380.4</ele>
        <time>2025-09-06T07:37:21Z</time>
      </trkpt>
      <trkpt lat="46.06079" lon="4.49157">
        <ele>380.4</ele>
        <time>2025-09-06T07:37:22Z</time>
      </trkpt>
      <trkpt lat="46.0608" lon="4.49158">
        <ele>380.8</ele>
        <time>2025-09-06T07:37:23Z</time>
      </trkpt>
      <trkpt lat="46.06083" lon="4.49159">
        <ele>380.8</ele>
        <time>2025-09-06T07:37:24Z</time>
      </trkpt>
      <trkpt lat="46.06085" lon="4.49159">
        <ele>381</ele>
        <time>2025-09-06T07:37:25Z</time>
      </trkpt>
      <trkpt lat="46.06087" lon="4.49159">
        <ele>381.2</ele>
        <time>2025-09-06T07:37:26Z</time>
      </trkpt>
      <trkpt lat="46.06089" lon="4.4916">
        <ele>381.2</ele>
        <time>2025-09-06T07:37:27Z</time>
      </trkpt>
      <trkpt lat="46.06094" lon="4.49162">
        <ele>381.4</ele>
        <time>2025-09-06T07:37:28Z</time>
      </trkpt>
      <trkpt lat="46.06096" lon="4.49163">
        <ele>381.6</ele>
        <time>2025-09-06T07:37:29Z</time>
      </trkpt>
      <trkpt lat="46.06099" lon="4.49163">
        <ele>381.6</ele>
        <time>2025-09-06T07:37:30Z</time>
      </trkpt>
      <trkpt lat="46.06102" lon="4.49164">
        <ele>381.6</ele>
        <time>2025-09-06T07:37:31Z</time>
      </trkpt>
      <trkpt lat="46.06104" lon="4.49164">
        <ele>382</ele>
        <time>2025-09-06T07:37:32Z</time>
      </trkpt>
      <trkpt lat="46.06106" lon="4.49165">
        <ele>382</ele>
        <time>2025-09-06T07:37:33Z</time>
      </trkpt>
      <trkpt lat="46.06109" lon="4.49165">
        <ele>382.2</ele>
        <time>2025-09-06T07:37:34Z</time>
      </trkpt>
      <trkpt lat="46.06111" lon="4.49165">
        <ele>382.2</ele>
        <time>2025-09-06T07:37:35Z</time>
      </trkpt>
      <trkpt lat="46.06113" lon="4.49166">
        <ele>382.6</ele>
        <time>2025-09-06T07:37:36Z</time>
      </trkpt>
      <trkpt lat="46.06116" lon="4.49167">
        <ele>383</ele>
        <time>2025-09-06T07:37:37Z</time>
      </trkpt>
      <trkpt lat="46.06119" lon="4.49168">
        <ele>383</ele>
        <time>2025-09-06T07:37:38Z</time>
      </trkpt>
      <trkpt lat="46.06122" lon="4.49168">
        <ele>383</ele>
        <time>2025-09-06T07:37:39Z</time>
      </trkpt>
      <trkpt lat="46.06124" lon="4.49169">
        <ele>383.2</ele>
        <time>2025-09-06T07:37:40Z</time>
      </trkpt>
      <trkpt lat="46.06127" lon="4.4917">
        <ele>383.4</ele>
        <time>2025-09-06T07:37:41Z</time>
      </trkpt>
      <trkpt lat="46.06129" lon="4.49171">
        <ele>383.4</ele>
        <time>2025-09-06T07:37:42Z</time>
      </trkpt>
      <trkpt lat="46.06132" lon="4.49172">
        <ele>383.8</ele>
        <time>2025-09-06T07:37:43Z</time>
      </trkpt>
      <trkpt lat="46.06134" lon="4.49174">
        <ele>383.8</ele>
        <time>2025-09-06T07:37:44Z</time>
      </trkpt>
      <trkpt lat="46.06136" lon="4.49176">
        <ele>384</ele>
        <time>2025-09-06T07:37:45Z</time>
      </trkpt>
      <trkpt lat="46.06138" lon="4.49179">
        <ele>384</ele>
        <time>2025-09-06T07:37:46Z</time>
      </trkpt>
      <trkpt lat="46.06139" lon="4.49181">
        <ele>384.4</ele>
        <time>2025-09-06T07:37:47Z</time>
      </trkpt>
      <trkpt lat="46.0614" lon="4.49184">
        <ele>384.4</ele>
        <time>2025-09-06T07:37:48Z</time>
      </trkpt>
      <trkpt lat="46.06141" lon="4.49187">
        <ele>384.8</ele>
        <time>2025-09-06T07:37:49Z</time>
      </trkpt>
      <trkpt lat="46.06141" lon="4.4919">
        <ele>384.8</ele>
        <time>2025-09-06T07:37:50Z</time>
      </trkpt>
      <trkpt lat="46.06142" lon="4.49192">
        <ele>385.2</ele>
        <time>2025-09-06T07:37:51Z</time>
      </trkpt>
      <trkpt lat="46.06143" lon="4.49195">
        <ele>385.2</ele>
        <time>2025-09-06T07:37:52Z</time>
      </trkpt>
      <trkpt lat="46.06144" lon="4.49197">
        <ele>385.4</ele>
        <time>2025-09-06T07:37:53Z</time>
      </trkpt>
      <trkpt lat="46.06146" lon="4.492">
        <ele>385.4</ele>
        <time>2025-09-06T07:37:54Z</time>
      </trkpt>
      <trkpt lat="46.06147" lon="4.49203">
        <ele>385.4</ele>
        <time>2025-09-06T07:37:55Z</time>
      </trkpt>
      <trkpt lat="46.06148" lon="4.49206">
        <ele>385.6</ele>
        <time>2025-09-06T07:37:56Z</time>
      </trkpt>
      <trkpt lat="46.0615" lon="4.49208">
        <ele>386</ele>
        <time>2025-09-06T07:37:57Z</time>
      </trkpt>
      <trkpt lat="46.06152" lon="4.49211">
        <ele>386.2</ele>
        <time>2025-09-06T07:37:58Z</time>
      </trkpt>
      <trkpt lat="46.06154" lon="4.49213">
        <ele>386.2</ele>
        <time>2025-09-06T07:37:59Z</time>
      </trkpt>
      <trkpt lat="46.06156" lon="4.49214">
        <ele>386.2</ele>
        <time>2025-09-06T07:38:00Z</time>
      </trkpt>
      <trkpt lat="46.06159" lon="4.49216">
        <ele>386.4</ele>
        <time>2025-09-06T07:38:01Z</time>
      </trkpt>
      <trkpt lat="46.06161" lon="4.49218">
        <ele>386.4</ele>
        <time>2025-09-06T07:38:02Z</time>
      </trkpt>
      <trkpt lat="46.06164" lon="4.4922">
        <ele>386.8</ele>
        <time>2025-09-06T07:38:03Z</time>
      </trkpt>
      <trkpt lat="46.06167" lon="4.49222">
        <ele>386.8</ele>
        <time>2025-09-06T07:38:04Z</time>
      </trkpt>
      <trkpt lat="46.0617" lon="4.49223">
        <ele>386.8</ele>
        <time>2025-09-06T07:38:05Z</time>
      </trkpt>
      <trkpt lat="46.06173" lon="4.49225">
        <ele>386.8</ele>
        <time>2025-09-06T07:38:06Z</time>
      </trkpt>
      <trkpt lat="46.06175" lon="4.49227">
        <ele>387</ele>
        <time>2025-09-06T07:38:07Z</time>
      </trkpt>
      <trkpt lat="46.06178" lon="4.49229">
        <ele>387</ele>
        <time>2025-09-06T07:38:08Z</time>
      </trkpt>
      <trkpt lat="46.0618" lon="4.49231">
        <ele>387.4</ele>
        <time>2025-09-06T07:38:09Z</time>
      </trkpt>
      <trkpt lat="46.06182" lon="4.49233">
        <ele>387.4</ele>
        <time>2025-09-06T07:38:10Z</time>
      </trkpt>
      <trkpt lat="46.06185" lon="4.49235">
        <ele>387.4</ele>
        <time>2025-09-06T07:38:11Z</time>
      </trkpt>
      <trkpt lat="46.06188" lon="4.49236">
        <ele>387.6</ele>
        <time>2025-09-06T07:38:12Z</time>
      </trkpt>
      <trkpt lat="46.06191" lon="4.49237">
        <ele>387.6</ele>
        <time>2025-09-06T07:38:13Z</time>
      </trkpt>
      <trkpt lat="46.06194" lon="4.49238">
        <ele>387.8</ele>
        <time>2025-09-06T07:38:14Z</time>
      </trkpt>
      <trkpt lat="46.06197" lon="4.49239">
        <ele>387.8</ele>
        <time>2025-09-06T07:38:15Z</time>
      </trkpt>
      <trkpt lat="46.062" lon="4.49239">
        <ele>387.8</ele>
        <time>2025-09-06T07:38:16Z</time>
      </trkpt>
      <trkpt lat="46.06203" lon="4.49239">
        <ele>388</ele>
        <time>2025-09-06T07:38:17Z</time>
      </trkpt>
      <trkpt lat="46.06206" lon="4.49237">
        <ele>388</ele>
        <time>2025-09-06T07:38:18Z</time>
      </trkpt>
      <trkpt lat="46.06209" lon="4.49235">
        <ele>387.8</ele>
        <time>2025-09-06T07:38:19Z</time>
      </trkpt>
      <trkpt lat="46.06213" lon="4.49233">
        <ele>387.8</ele>
        <time>2025-09-06T07:38:20Z</time>
      </trkpt>
      <trkpt lat="46.06217" lon="4.49231">
        <ele>386.8</ele>
        <time>2025-09-06T07:38:21Z</time>
      </trkpt>
      <trkpt lat="46.06223" lon="4.49228">
        <ele>385.8</ele>
        <time>2025-09-06T07:38:22Z</time>
      </trkpt>
      <trkpt lat="46.06229" lon="4.49226">
        <ele>385</ele>
        <time>2025-09-06T07:38:23Z</time>
      </trkpt>
      <trkpt lat="46.06237" lon="4.49223">
        <ele>384.2</ele>
        <time>2025-09-06T07:38:24Z</time>
      </trkpt>
      <trkpt lat="46.06245" lon="4.49222">
        <ele>383.4</ele>
        <time>2025-09-06T07:38:25Z</time>
      </trkpt>
      <trkpt lat="46.06252" lon="4.4922">
        <ele>382.6</ele>
        <time>2025-09-06T07:38:26Z</time>
      </trkpt>
      <trkpt lat="46.06256" lon="4.49219">
        <ele>382</ele>
        <time>2025-09-06T07:38:27Z</time>
      </trkpt>
      <trkpt lat="46.06261" lon="4.49217">
        <ele>381.4</ele>
        <time>2025-09-06T07:38:28Z</time>
      </trkpt>
      <trkpt lat="46.06265" lon="4.49216">
        <ele>380.8</ele>
        <time>2025-09-06T07:38:29Z</time>
      </trkpt>
      <trkpt lat="46.0627" lon="4.49214">
        <ele>380.8</ele>
        <time>2025-09-06T07:38:30Z</time>
      </trkpt>
      <trkpt lat="46.06276" lon="4.49213">
        <ele>380.4</ele>
        <time>2025-09-06T07:38:31Z</time>
      </trkpt>
      <trkpt lat="46.0628" lon="4.49209">
        <ele>380</ele>
        <time>2025-09-06T07:38:32Z</time>
      </trkpt>
      <trkpt lat="46.06281" lon="4.49201">
        <ele>380</ele>
        <time>2025-09-06T07:38:33Z</time>
      </trkpt>
      <trkpt lat="46.06284" lon="4.49195">
        <ele>379.6</ele>
        <time>2025-09-06T07:38:34Z</time>
      </trkpt>
      <trkpt lat="46.06284" lon="4.49187">
        <ele>379.6</ele>
        <time>2025-09-06T07:38:35Z</time>
      </trkpt>
      <trkpt lat="46.06286" lon="4.49182">
        <ele>379.8</ele>
        <time>2025-09-06T07:38:36Z</time>
      </trkpt>
      <trkpt lat="46.06292" lon="4.4918">
        <ele>379.6</ele>
        <time>2025-09-06T07:38:37Z</time>
      </trkpt>
      <trkpt lat="46.06296" lon="4.49178">
        <ele>379.2</ele>
        <time>2025-09-06T07:38:38Z</time>
      </trkpt>
      <trkpt lat="46.063" lon="4.49176">
        <ele>379.2</ele>
        <time>2025-09-06T07:38:39Z</time>
      </trkpt>
      <trkpt lat="46.06303" lon="4.49173">
        <ele>379.2</ele>
        <time>2025-09-06T07:38:40Z</time>
      </trkpt>
      <trkpt lat="46.06306" lon="4.49171">
        <ele>379.2</ele>
        <time>2025-09-06T07:38:41Z</time>
      </trkpt>
      <trkpt lat="46.06311" lon="4.4917">
        <ele>379.6</ele>
        <time>2025-09-06T07:38:42Z</time>
      </trkpt>
      <trkpt lat="46.06315" lon="4.49168">
        <ele>379.6</ele>
        <time>2025-09-06T07:38:43Z</time>
      </trkpt>
      <trkpt lat="46.06315" lon="4.49167">
        <ele>379.6</ele>
        <time>2025-09-06T07:38:44Z</time>
      </trkpt>
      <trkpt lat="46.06317" lon="4.49166">
        <ele>379.8</ele>
        <time>2025-09-06T07:38:45Z</time>
      </trkpt>
      <trkpt lat="46.06319" lon="4.49168">
        <ele>380</ele>
        <time>2025-09-06T07:38:46Z</time>
      </trkpt>
      <trkpt lat="46.0632" lon="4.49171">
        <ele>380.4</ele>
        <time>2025-09-06T07:38:47Z</time>
      </trkpt>
      <trkpt lat="46.06322" lon="4.49173">
        <ele>380.4</ele>
        <time>2025-09-06T07:38:48Z</time>
      </trkpt>
      <trkpt lat="46.06323" lon="4.49177">
        <ele>380.6</ele>
        <time>2025-09-06T07:38:49Z</time>
      </trkpt>
      <trkpt lat="46.06324" lon="4.49181">
        <ele>380.6</ele>
        <time>2025-09-06T07:38:50Z</time>
      </trkpt>
      <trkpt lat="46.06325" lon="4.49185">
        <ele>380.4</ele>
        <time>2025-09-06T07:38:51Z</time>
      </trkpt>
      <trkpt lat="46.06327" lon="4.49189">
        <ele>380.4</ele>
        <time>2025-09-06T07:38:52Z</time>
      </trkpt>
      <trkpt lat="46.06329" lon="4.49193">
        <ele>380.6</ele>
        <time>2025-09-06T07:38:53Z</time>
      </trkpt>
      <trkpt lat="46.06332" lon="4.49195">
        <ele>380.6</ele>
        <time>2025-09-06T07:38:54Z</time>
      </trkpt>
      <trkpt lat="46.06334" lon="4.49197">
        <ele>380.8</ele>
        <time>2025-09-06T07:38:55Z</time>
      </trkpt>
      <trkpt lat="46.06337" lon="4.492">
        <ele>380.8</ele>
        <time>2025-09-06T07:38:56Z</time>
      </trkpt>
      <trkpt lat="46.0634" lon="4.49202">
        <ele>380.8</ele>
        <time>2025-09-06T07:38:57Z</time>
      </trkpt>
      <trkpt lat="46.06342" lon="4.49204">
        <ele>381.2</ele>
        <time>2025-09-06T07:38:58Z</time>
      </trkpt>
      <trkpt lat="46.06345" lon="4.49205">
        <ele>381.2</ele>
        <time>2025-09-06T07:38:59Z</time>
      </trkpt>
      <trkpt lat="46.06347" lon="4.49207">
        <ele>381.4</ele>
        <time>2025-09-06T07:39:00Z</time>
      </trkpt>
      <trkpt lat="46.06349" lon="4.49208">
        <ele>381.6</ele>
        <time>2025-09-06T07:39:01Z</time>
      </trkpt>
      <trkpt lat="46.06351" lon="4.49209">
        <ele>381.6</ele>
        <time>2025-09-06T07:39:02Z</time>
      </trkpt>
      <trkpt lat="46.06353" lon="4.49209">
        <ele>381.8</ele>
        <time>2025-09-06T07:39:03Z</time>
      </trkpt>
      <trkpt lat="46.06353" lon="4.49208">
        <ele>381.8</ele>
        <time>2025-09-06T07:39:04Z</time>
      </trkpt>
      <trkpt lat="46.06353" lon="4.49207">
        <ele>381.8</ele>
        <time>2025-09-06T07:39:05Z</time>
      </trkpt>
      <trkpt lat="46.06353" lon="4.49207">
        <ele>381.8</ele>
        <time>2025-09-06T07:39:06Z</time>
      </trkpt>
      <trkpt lat="46.06354" lon="4.49209">
        <ele>381.8</ele>
        <time>2025-09-06T07:39:10Z</time>
      </trkpt>
      <trkpt lat="46.06354" lon="4.49209">
        <ele>381.8</ele>
        <time>2025-09-06T07:39:11Z</time>
      </trkpt>
      <trkpt lat="46.06353" lon="4.49209">
        <ele>381.8</ele>
        <time>2025-09-06T07:39:12Z</time>
      </trkpt>
      <trkpt lat="46.06353" lon="4.49207">
        <ele>381.8</ele>
        <time>2025-09-06T07:39:13Z</time>
      </trkpt>
      <trkpt lat="46.06352" lon="4.49207">
        <ele>381.8</ele>
        <time>2025-09-06T07:39:14Z</time>
      </trkpt>
      <trkpt lat="46.06321" lon="4.4917">
        <ele>381.6</ele>
        <time>2025-09-06T07:56:15Z</time>
      </trkpt>
      <trkpt lat="46.0632" lon="4.49167">
        <ele>381.6</ele>
        <time>2025-09-06T07:56:16Z</time>
      </trkpt>
      <trkpt lat="46.06318" lon="4.49164">
        <ele>381.2</ele>
        <time>2025-09-06T07:56:17Z</time>
      </trkpt>
      <trkpt lat="46.06317" lon="4.49161">
        <ele>381.2</ele>
        <time>2025-09-06T07:56:18Z</time>
      </trkpt>
      <trkpt lat="46.06316" lon="4.49158">
        <ele>381.2</ele>
        <time>2025-09-06T07:56:19Z</time>
      </trkpt>
      <trkpt lat="46.06314" lon="4.49156">
        <ele>381.2</ele>
        <time>2025-09-06T07:56:20Z</time>
      </trkpt>
      <trkpt lat="46.06311" lon="4.49155">
        <ele>381.2</ele>
        <time>2025-09-06T07:56:21Z</time>
      </trkpt>
      <trkpt lat="46.06308" lon="4.49156">
        <ele>381.2</ele>
        <time>2025-09-06T07:56:22Z</time>
      </trkpt>
      <trkpt lat="46.06305" lon="4.49157">
        <ele>381.2</ele>
        <time>2025-09-06T07:56:23Z</time>
      </trkpt>
      <trkpt lat="46.06302" lon="4.49159">
        <ele>381.2</ele>
        <time>2025-09-06T07:56:24Z</time>
      </trkpt>
      <trkpt lat="46.06298" lon="4.49161">
        <ele>381.2</ele>
        <time>2025-09-06T07:56:25Z</time>
      </trkpt>
      <trkpt lat="46.06295" lon="4.49163">
        <ele>381.2</ele>
        <time>2025-09-06T07:56:26Z</time>
      </trkpt>
      <trkpt lat="46.06292" lon="4.49165">
        <ele>381.2</ele>
        <time>2025-09-06T07:56:27Z</time>
      </trkpt>
      <trkpt lat="46.06288" lon="4.49166">
        <ele>380.8</ele>
        <time>2025-09-06T07:56:28Z</time>
      </trkpt>
      <trkpt lat="46.06285" lon="4.49168">
        <ele>380.8</ele>
        <time>2025-09-06T07:56:29Z</time>
      </trkpt>
      <trkpt lat="46.06282" lon="4.49169">
        <ele>380.4</ele>
        <time>2025-09-06T07:56:30Z</time>
      </trkpt>
      <trkpt lat="46.06279" lon="4.49172">
        <ele>380.2</ele>
        <time>2025-09-06T07:56:31Z</time>
      </trkpt>
      <trkpt lat="46.06276" lon="4.49176">
        <ele>380.2</ele>
        <time>2025-09-06T07:56:32Z</time>
      </trkpt>
      <trkpt lat="46.06275" lon="4.49181">
        <ele>380.6</ele>
        <time>2025-09-06T07:56:33Z</time>
      </trkpt>
      <trkpt lat="46.06274" lon="4.49186">
        <ele>380.6</ele>
        <time>2025-09-06T07:56:34Z</time>
      </trkpt>
      <trkpt lat="46.06273" lon="4.49192">
        <ele>380.2</ele>
        <time>2025-09-06T07:56:35Z</time>
      </trkpt>
      <trkpt lat="46.06272" lon="4.49197">
        <ele>380.2</ele>
        <time>2025-09-06T07:56:36Z</time>
      </trkpt>
      <trkpt lat="46.06271" lon="4.49202">
        <ele>380.2</ele>
        <time>2025-09-06T07:56:37Z</time>
      </trkpt>
      <trkpt lat="46.06269" lon="4.49206">
        <ele>380.2</ele>
        <time>2025-09-06T07:56:38Z</time>
      </trkpt>
      <trkpt lat="46.06267" lon="4.4921">
        <ele>380.2</ele>
        <time>2025-09-06T07:56:39Z</time>
      </trkpt>
      <trkpt lat="46.06264" lon="4.49212">
        <ele>380.2</ele>
        <time>2025-09-06T07:56:40Z</time>
      </trkpt>
      <trkpt lat="46.0626" lon="4.49213">
        <ele>380.6</ele>
        <time>2025-09-06T07:56:41Z</time>
      </trkpt>
      <trkpt lat="46.06257" lon="4.49214">
        <ele>380.6</ele>
        <time>2025-09-06T07:56:42Z</time>
      </trkpt>
      <trkpt lat="46.06254" lon="4.49215">
        <ele>381</ele>
        <time>2025-09-06T07:56:43Z</time>
      </trkpt>
      <trkpt lat="46.06252" lon="4.49216">
        <ele>381.6</ele>
        <time>2025-09-06T07:56:44Z</time>
      </trkpt>
      <trkpt lat="46.06249" lon="4.49217">
        <ele>381.8</ele>
        <time>2025-09-06T07:56:45Z</time>
      </trkpt>
      <trkpt lat="46.06247" lon="4.49217">
        <ele>381.8</ele>
        <time>2025-09-06T07:56:46Z</time>
      </trkpt>
      <trkpt lat="46.06245" lon="4.49218">
        <ele>382.4</ele>
        <time>2025-09-06T07:56:47Z</time>
      </trkpt>
      <trkpt lat="46.06243" lon="4.49218">
        <ele>382.4</ele>
        <time>2025-09-06T07:56:48Z</time>
      </trkpt>
      <trkpt lat="46.06241" lon="4.49219">
        <ele>382.8</ele>
        <time>2025-09-06T07:56:49Z</time>
      </trkpt>
      <trkpt lat="46.06239" lon="4.4922">
        <ele>382.8</ele>
        <time>2025-09-06T07:56:50Z</time>
      </trkpt>
      <trkpt lat="46.06238" lon="4.49221">
        <ele>383.2</ele>
        <time>2025-09-06T07:56:51Z</time>
      </trkpt>
      <trkpt lat="46.06236" lon="4.49222">
        <ele>383.6</ele>
        <time>2025-09-06T07:56:52Z</time>
      </trkpt>
      <trkpt lat="46.06235" lon="4.49222">
        <ele>383.6</ele>
        <time>2025-09-06T07:56:53Z</time>
      </trkpt>
      <trkpt lat="46.06233" lon="4.49223">
        <ele>384</ele>
        <time>2025-09-06T07:56:54Z</time>
      </trkpt>
      <trkpt lat="46.06231" lon="4.49224">
        <ele>384.2</ele>
        <time>2025-09-06T07:56:55Z</time>
      </trkpt>
      <trkpt lat="46.06229" lon="4.49224">
        <ele>384.6</ele>
        <time>2025-09-06T07:56:56Z</time>
      </trkpt>
      <trkpt lat="46.06228" lon="4.49225">
        <ele>384.8</ele>
        <time>2025-09-06T07:56:57Z</time>
      </trkpt>
      <trkpt lat="46.06226" lon="4.49225">
        <ele>385.2</ele>
        <time>2025-09-06T07:56:58Z</time>
      </trkpt>
      <trkpt lat="46.06224" lon="4.49226">
        <ele>385.4</ele>
        <time>2025-09-06T07:56:59Z</time>
      </trkpt>
      <trkpt lat="46.06222" lon="4.49226">
        <ele>385.4</ele>
        <time>2025-09-06T07:57:00Z</time>
      </trkpt>
      <trkpt lat="46.0622" lon="4.49226">
        <ele>386</ele>
        <time>2025-09-06T07:57:01Z</time>
      </trkpt>
      <trkpt lat="46.06218" lon="4.49226">
        <ele>386.2</ele>
        <time>2025-09-06T07:57:02Z</time>
      </trkpt>
      <trkpt lat="46.06217" lon="4.49226">
        <ele>386.4</ele>
        <time>2025-09-06T07:57:03Z</time>
      </trkpt>
      <trkpt lat="46.06215" lon="4.49226">
        <ele>386.6</ele>
        <time>2025-09-06T07:57:04Z</time>
      </trkpt>
      <trkpt lat="46.06214" lon="4.49226">
        <ele>386.8</ele>
        <time>2025-09-06T07:57:05Z</time>
      </trkpt>
      <trkpt lat="46.06212" lon="4.49226">
        <ele>387.2</ele>
        <time>2025-09-06T07:57:06Z</time>
      </trkpt>
      <trkpt lat="46.06211" lon="4.49227">
        <ele>387.4</ele>
        <time>2025-09-06T07:57:07Z</time>
      </trkpt>
      <trkpt lat="46.0621" lon="4.49228">
        <ele>387.6</ele>
        <time>2025-09-06T07:57:08Z</time>
      </trkpt>
      <trkpt lat="46.06209" lon="4.49229">
        <ele>387.6</ele>
        <time>2025-09-06T07:57:09Z</time>
      </trkpt>
      <trkpt lat="46.06208" lon="4.4923">
        <ele>388</ele>
        <time>2025-09-06T07:57:10Z</time>
      </trkpt>
      <trkpt lat="46.06207" lon="4.49232">
        <ele>388.2</ele>
        <time>2025-09-06T07:57:11Z</time>
      </trkpt>
      <trkpt lat="46.06205" lon="4.49232">
        <ele>388.2</ele>
        <time>2025-09-06T07:57:12Z</time>
      </trkpt>
      <trkpt lat="46.06204" lon="4.49232">
        <ele>388.2</ele>
        <time>2025-09-06T07:57:13Z</time>
      </trkpt>
      <trkpt lat="46.06203" lon="4.49232">
        <ele>388.4</ele>
        <time>2025-09-06T07:57:14Z</time>
      </trkpt>
      <trkpt lat="46.06202" lon="4.49234">
        <ele>388.4</ele>
        <time>2025-09-06T07:57:15Z</time>
      </trkpt>
      <trkpt lat="46.06201" lon="4.49235">
        <ele>388.4</ele>
        <time>2025-09-06T07:57:16Z</time>
      </trkpt>
      <trkpt lat="46.062" lon="4.49237">
        <ele>388.4</ele>
        <time>2025-09-06T07:57:17Z</time>
      </trkpt>
      <trkpt lat="46.062" lon="4.49238">
        <ele>388.4</ele>
        <time>2025-09-06T07:57:18Z</time>
      </trkpt>
      <trkpt lat="46.06199" lon="4.49239">
        <ele>388.4</ele>
        <time>2025-09-06T07:57:19Z</time>
      </trkpt>
      <trkpt lat="46.06198" lon="4.4924">
        <ele>388.4</ele>
        <time>2025-09-06T07:57:20Z</time>
      </trkpt>
      <trkpt lat="46.06198" lon="4.49242">
        <ele>388.4</ele>
        <time>2025-09-06T07:57:21Z</time>
      </trkpt>
      <trkpt lat="46.06199" lon="4.49246">
        <ele>388.2</ele>
        <time>2025-09-06T07:57:22Z</time>
      </trkpt>
      <trkpt lat="46.06201" lon="4.49248">
        <ele>388.2</ele>
        <time>2025-09-06T07:57:23Z</time>
      </trkpt>
      <trkpt lat="46.06204" lon="4.49249">
        <ele>388.2</ele>
        <time>2025-09-06T07:57:24Z</time>
      </trkpt>
      <trkpt lat="46.06208" lon="4.4925">
        <ele>388.2</ele>
        <time>2025-09-06T07:57:25Z</time>
      </trkpt>
      <trkpt lat="46.06212" lon="4.49252">
        <ele>388.2</ele>
        <time>2025-09-06T07:57:26Z</time>
      </trkpt>
      <trkpt lat="46.06216" lon="4.49254">
        <ele>388.2</ele>
        <time>2025-09-06T07:57:27Z</time>
      </trkpt>
      <trkpt lat="46.0622" lon="4.49256">
        <ele>388.2</ele>
        <time>2025-09-06T07:57:28Z</time>
      </trkpt>
      <trkpt lat="46.06225" lon="4.49257">
        <ele>388</ele>
        <time>2025-09-06T07:57:29Z</time>
      </trkpt>
      <trkpt lat="46.06229" lon="4.49259">
        <ele>388</ele>
        <time>2025-09-06T07:57:30Z</time>
      </trkpt>
      <trkpt lat="46.06234" lon="4.49261">
        <ele>387.4</ele>
        <time>2025-09-06T07:57:31Z</time>
      </trkpt>
      <trkpt lat="46.0624" lon="4.49262">
        <ele>387</ele>
        <time>2025-09-06T07:57:32Z</time>
      </trkpt>
      <trkpt lat="46.06244" lon="4.49263">
        <ele>387</ele>
        <time>2025-09-06T07:57:33Z</time>
      </trkpt>
      <trkpt lat="46.06247" lon="4.49265">
        <ele>386.2</ele>
        <time>2025-09-06T07:57:34Z</time>
      </trkpt>
      <trkpt lat="46.0625" lon="4.49266">
        <ele>386.6</ele>
        <time>2025-09-06T07:57:35Z</time>
      </trkpt>
      <trkpt lat="46.06253" lon="4.49268">
        <ele>387</ele>
        <time>2025-09-06T07:57:36Z</time>
      </trkpt>
      <trkpt lat="46.06257" lon="4.4927">
        <ele>387</ele>
        <time>2025-09-06T07:57:37Z</time>
      </trkpt>
      <trkpt lat="46.06259" lon="4.49273">
        <ele>387</ele>
        <time>2025-09-06T07:57:38Z</time>
      </trkpt>
      <trkpt lat="46.06261" lon="4.49277">
        <ele>387</ele>
        <time>2025-09-06T07:57:39Z</time>
      </trkpt>
      <trkpt lat="46.06262" lon="4.49281">
        <ele>387</ele>
        <time>2025-09-06T07:57:40Z</time>
      </trkpt>
      <trkpt lat="46.06262" lon="4.49286">
        <ele>387</ele>
        <time>2025-09-06T07:57:41Z</time>
      </trkpt>
      <trkpt lat="46.06263" lon="4.4929">
        <ele>387</ele>
        <time>2025-09-06T07:57:42Z</time>
      </trkpt>
      <trkpt lat="46.06262" lon="4.49294">
        <ele>387.4</ele>
        <time>2025-09-06T07:57:43Z</time>
      </trkpt>
      <trkpt lat="46.0626" lon="4.49298">
        <ele>387</ele>
        <time>2025-09-06T07:57:44Z</time>
      </trkpt>
      <trkpt lat="46.0626" lon="4.49302">
        <ele>387</ele>
        <time>2025-09-06T07:57:45Z</time>
      </trkpt>
      <trkpt lat="46.06259" lon="4.49307">
        <ele>387.2</ele>
        <time>2025-09-06T07:57:46Z</time>
      </trkpt>
      <trkpt lat="46.0626" lon="4.49312">
        <ele>387.4</ele>
        <time>2025-09-06T07:57:47Z</time>
      </trkpt>
      <trkpt lat="46.06262" lon="4.49316">
        <ele>387.8</ele>
        <time>2025-09-06T07:57:48Z</time>
      </trkpt>
      <trkpt lat="46.06265" lon="4.49319">
        <ele>387.8</ele>
        <time>2025-09-06T07:57:49Z</time>
      </trkpt>
      <trkpt lat="46.06266" lon="4.4932">
        <ele>388</ele>
        <time>2025-09-06T07:57:50Z</time>
      </trkpt>
      <trkpt lat="46.06268" lon="4.49321">
        <ele>388.4</ele>
        <time>2025-09-06T07:57:51Z</time>
      </trkpt>
      <trkpt lat="46.0627" lon="4.49322">
        <ele>388.8</ele>
        <time>2025-09-06T07:57:52Z</time>
      </trkpt>
      <trkpt lat="46.06271" lon="4.49323">
        <ele>388.8</ele>
        <time>2025-09-06T07:57:53Z</time>
      </trkpt>
      <trkpt lat="46.06273" lon="4.49325">
        <ele>389</ele>
        <time>2025-09-06T07:57:54Z</time>
      </trkpt>
      <trkpt lat="46.06274" lon="4.49326">
        <ele>389.4</ele>
        <time>2025-09-06T07:57:55Z</time>
      </trkpt>
      <trkpt lat="46.06275" lon="4.49327">
        <ele>389.8</ele>
        <time>2025-09-06T07:57:56Z</time>
      </trkpt>
      <trkpt lat="46.06277" lon="4.49328">
        <ele>390.2</ele>
        <time>2025-09-06T07:57:57Z</time>
      </trkpt>
      <trkpt lat="46.06279" lon="4.49329">
        <ele>390.2</ele>
        <time>2025-09-06T07:57:58Z</time>
      </trkpt>
      <trkpt lat="46.0628" lon="4.4933">
        <ele>390.6</ele>
        <time>2025-09-06T07:57:59Z</time>
      </trkpt>
      <trkpt lat="46.06281" lon="4.4933">
        <ele>391</ele>
        <time>2025-09-06T07:58:00Z</time>
      </trkpt>
      <trkpt lat="46.06281" lon="4.4933">
        <ele>391.4</ele>
        <time>2025-09-06T07:58:01Z</time>
      </trkpt>
      <trkpt lat="46.06282" lon="4.49331">
        <ele>391.6</ele>
        <time>2025-09-06T07:58:02Z</time>
      </trkpt>
      <trkpt lat="46.06283" lon="4.49332">
        <ele>391.6</ele>
        <time>2025-09-06T07:58:03Z</time>
      </trkpt>
      <trkpt lat="46.06284" lon="4.49332">
        <ele>392</ele>
        <time>2025-09-06T07:58:04Z</time>
      </trkpt>
      <trkpt lat="46.06285" lon="4.49332">
        <ele>392</ele>
        <time>2025-09-06T07:58:05Z</time>
      </trkpt>
      <trkpt lat="46.06286" lon="4.49332">
        <ele>392.4</ele>
        <time>2025-09-06T07:58:06Z</time>
      </trkpt>
      <trkpt lat="46.06288" lon="4.49332">
        <ele>392.6</ele>
        <time>2025-09-06T07:58:07Z</time>
      </trkpt>
      <trkpt lat="46.06289" lon="4.49333">
        <ele>392.6</ele>
        <time>2025-09-06T07:58:08Z</time>
      </trkpt>
      <trkpt lat="46.06291" lon="4.49335">
        <ele>393.4</ele>
        <time>2025-09-06T07:58:09Z</time>
      </trkpt>
      <trkpt lat="46.06292" lon="4.49336">
        <ele>393.8</ele>
        <time>2025-09-06T07:58:10Z</time>
      </trkpt>
      <trkpt lat="46.06293" lon="4.49337">
        <ele>394</ele>
        <time>2025-09-06T07:58:11Z</time>
      </trkpt>
      <trkpt lat="46.06294" lon="4.49337">
        <ele>394</ele>
        <time>2025-09-06T07:58:12Z</time>
      </trkpt>
      <trkpt lat="46.06295" lon="4.49337">
        <ele>394.4</ele>
        <time>2025-09-06T07:58:13Z</time>
      </trkpt>
      <trkpt lat="46.06296" lon="4.49337">
        <ele>394.4</ele>
        <time>2025-09-06T07:58:14Z</time>
      </trkpt>
      <trkpt lat="46.06297" lon="4.49337">
        <ele>395</ele>
        <time>2025-09-06T07:58:15Z</time>
      </trkpt>
      <trkpt lat="46.06298" lon="4.49337">
        <ele>395.2</ele>
        <time>2025-09-06T07:58:16Z</time>
      </trkpt>
      <trkpt lat="46.063" lon="4.49338">
        <ele>395.4</ele>
        <time>2025-09-06T07:58:17Z</time>
      </trkpt>
      <trkpt lat="46.06301" lon="4.49339">
        <ele>395.4</ele>
        <time>2025-09-06T07:58:18Z</time>
      </trkpt>
      <trkpt lat="46.06302" lon="4.49341">
        <ele>395.4</ele>
        <time>2025-09-06T07:58:19Z</time>
      </trkpt>
      <trkpt lat="46.06303" lon="4.49342">
        <ele>395.4</ele>
        <time>2025-09-06T07:58:20Z</time>
      </trkpt>
      <trkpt lat="46.06304" lon="4.49344">
        <ele>395.8</ele>
        <time>2025-09-06T07:58:21Z</time>
      </trkpt>
      <trkpt lat="46.06305" lon="4.49345">
        <ele>396.2</ele>
        <time>2025-09-06T07:58:22Z</time>
      </trkpt>
      <trkpt lat="46.06307" lon="4.49346">
        <ele>396.2</ele>
        <time>2025-09-06T07:58:23Z</time>
      </trkpt>
      <trkpt lat="46.06309" lon="4.49348">
        <ele>396.2</ele>
        <time>2025-09-06T07:58:24Z</time>
      </trkpt>
      <trkpt lat="46.06311" lon="4.49349">
        <ele>396.4</ele>
        <time>2025-09-06T07:58:25Z</time>
      </trkpt>
      <trkpt lat="46.06313" lon="4.4935">
        <ele>396.4</ele>
        <time>2025-09-06T07:58:26Z</time>
      </trkpt>
      <trkpt lat="46.06314" lon="4.49351">
        <ele>397</ele>
        <time>2025-09-06T07:58:27Z</time>
      </trkpt>
      <trkpt lat="46.06315" lon="4.49352">
        <ele>397</ele>
        <time>2025-09-06T07:58:28Z</time>
      </trkpt>
      <trkpt lat="46.06317" lon="4.49353">
        <ele>397.2</ele>
        <time>2025-09-06T07:58:29Z</time>
      </trkpt>
      <trkpt lat="46.06318" lon="4.49354">
        <ele>397.2</ele>
        <time>2025-09-06T07:58:30Z</time>
      </trkpt>
      <trkpt lat="46.06319" lon="4.49355">
        <ele>397.2</ele>
        <time>2025-09-06T07:58:31Z</time>
      </trkpt>
      <trkpt lat="46.06321" lon="4.49357">
        <ele>397.4</ele>
        <time>2025-09-06T07:58:32Z</time>
      </trkpt>
      <trkpt lat="46.06322" lon="4.49358">
        <ele>397.6</ele>
        <time>2025-09-06T07:58:33Z</time>
      </trkpt>
      <trkpt lat="46.06324" lon="4.4936">
        <ele>397.6</ele>
        <time>2025-09-06T07:58:34Z</time>
      </trkpt>
      <trkpt lat="46.06325" lon="4.49361">
        <ele>397.6</ele>
        <time>2025-09-06T07:58:35Z</time>
      </trkpt>
      <trkpt lat="46.06327" lon="4.49363">
        <ele>397.6</ele>
        <time>2025-09-06T07:58:36Z</time>
      </trkpt>
      <trkpt lat="46.06328" lon="4.49364">
        <ele>398</ele>
        <time>2025-09-06T07:58:37Z</time>
      </trkpt>
      <trkpt lat="46.0633" lon="4.49365">
        <ele>398</ele>
        <time>2025-09-06T07:58:38Z</time>
      </trkpt>
      <trkpt lat="46.06331" lon="4.49366">
        <ele>398.4</ele>
        <time>2025-09-06T07:58:39Z</time>
      </trkpt>
      <trkpt lat="46.06333" lon="4.49367">
        <ele>398.4</ele>
        <time>2025-09-06T07:58:40Z</time>
      </trkpt>
      <trkpt lat="46.06334" lon="4.49368">
        <ele>398.4</ele>
        <time>2025-09-06T07:58:41Z</time>
      </trkpt>
      <trkpt lat="46.06336" lon="4.4937">
        <ele>398.4</ele>
        <time>2025-09-06T07:58:42Z</time>
      </trkpt>
      <trkpt lat="46.06338" lon="4.49371">
        <ele>398.4</ele>
        <time>2025-09-06T07:58:43Z</time>
      </trkpt>
      <trkpt lat="46.06339" lon="4.49372">
        <ele>398.8</ele>
        <time>2025-09-06T07:58:44Z</time>
      </trkpt>
      <trkpt lat="46.0634" lon="4.49374">
        <ele>399</ele>
        <time>2025-09-06T07:58:45Z</time>
      </trkpt>
      <trkpt lat="46.06341" lon="4.49375">
        <ele>399</ele>
        <time>2025-09-06T07:58:46Z</time>
      </trkpt>
      <trkpt lat="46.06342" lon="4.49376">
        <ele>399.6</ele>
        <time>2025-09-06T07:58:47Z</time>
      </trkpt>
      <trkpt lat="46.06344" lon="4.49377">
        <ele>399.6</ele>
        <time>2025-09-06T07:58:48Z</time>
      </trkpt>
      <trkpt lat="46.06345" lon="4.49379">
        <ele>399.6</ele>
        <time>2025-09-06T07:58:49Z</time>
      </trkpt>
      <trkpt lat="46.06346" lon="4.4938">
        <ele>399.8</ele>
        <time>2025-09-06T07:58:50Z</time>
      </trkpt>
      <trkpt lat="46.06347" lon="4.49381">
        <ele>399.8</ele>
        <time>2025-09-06T07:58:51Z</time>
      </trkpt>
      <trkpt lat="46.06348" lon="4.49383">
        <ele>400.2</ele>
        <time>2025-09-06T07:58:52Z</time>
      </trkpt>
      <trkpt lat="46.0635" lon="4.49384">
        <ele>400.6</ele>
        <time>2025-09-06T07:58:53Z</time>
      </trkpt>
      <trkpt lat="46.06351" lon="4.49386">
        <ele>400.6</ele>
        <time>2025-09-06T07:58:54Z</time>
      </trkpt>
      <trkpt lat="46.06352" lon="4.49387">
        <ele>400.6</ele>
        <time>2025-09-06T07:58:55Z</time>
      </trkpt>
      <trkpt lat="46.06354" lon="4.49388">
        <ele>401</ele>
        <time>2025-09-06T07:58:56Z</time>
      </trkpt>
      <trkpt lat="46.06355" lon="4.49389">
        <ele>401.2</ele>
        <time>2025-09-06T07:58:57Z</time>
      </trkpt>
      <trkpt lat="46.06356" lon="4.4939">
        <ele>401.6</ele>
        <time>2025-09-06T07:58:58Z</time>
      </trkpt>
      <trkpt lat="46.06357" lon="4.49392">
        <ele>401.6</ele>
        <time>2025-09-06T07:58:59Z</time>
      </trkpt>
      <trkpt lat="46.06358" lon="4.49393">
        <ele>402</ele>
        <time>2025-09-06T07:59:00Z</time>
      </trkpt>
      <trkpt lat="46.0636" lon="4.49394">
        <ele>402.4</ele>
        <time>2025-09-06T07:59:01Z</time>
      </trkpt>
      <trkpt lat="46.06361" lon="4.49396">
        <ele>402.6</ele>
        <time>2025-09-06T07:59:02Z</time>
      </trkpt>
      <trkpt lat="46.06362" lon="4.49397">
        <ele>402.8</ele>
        <time>2025-09-06T07:59:03Z</time>
      </trkpt>
      <trkpt lat="46.06363" lon="4.49398">
        <ele>403</ele>
        <time>2025-09-06T07:59:04Z</time>
      </trkpt>
      <trkpt lat="46.06364" lon="4.49399">
        <ele>403.2</ele>
        <time>2025-09-06T07:59:05Z</time>
      </trkpt>
      <trkpt lat="46.06365" lon="4.494">
        <ele>403.6</ele>
        <time>2025-09-06T07:59:06Z</time>
      </trkpt>
      <trkpt lat="46.06366" lon="4.49401">
        <ele>403.6</ele>
        <time>2025-09-06T07:59:07Z</time>
      </trkpt>
      <trkpt lat="46.06366" lon="4.49402">
        <ele>404</ele>
        <time>2025-09-06T07:59:08Z</time>
      </trkpt>
      <trkpt lat="46.06365" lon="4.49403">
        <ele>404.2</ele>
        <time>2025-09-06T07:59:09Z</time>
      </trkpt>
      <trkpt lat="46.06363" lon="4.49405">
        <ele>404.2</ele>
        <time>2025-09-06T07:59:10Z</time>
      </trkpt>
      <trkpt lat="46.06362" lon="4.49407">
        <ele>404.4</ele>
        <time>2025-09-06T07:59:11Z</time>
      </trkpt>
      <trkpt lat="46.0636" lon="4.49406">
        <ele>404.4</ele>
        <time>2025-09-06T07:59:12Z</time>
      </trkpt>
      <trkpt lat="46.06358" lon="4.49405">
        <ele>404.4</ele>
        <time>2025-09-06T07:59:13Z</time>
      </trkpt>
      <trkpt lat="46.06356" lon="4.49403">
        <ele>404.4</ele>
        <time>2025-09-06T07:59:14Z</time>
      </trkpt>
      <trkpt lat="46.06354" lon="4.49401">
        <ele>404.4</ele>
        <time>2025-09-06T07:59:15Z</time>
      </trkpt>
      <trkpt lat="46.06352" lon="4.494">
        <ele>404.4</ele>
        <time>2025-09-06T07:59:16Z</time>
      </trkpt>
      <trkpt lat="46.0635" lon="4.49401">
        <ele>404.8</ele>
        <time>2025-09-06T07:59:17Z</time>
      </trkpt>
      <trkpt lat="46.06348" lon="4.49401">
        <ele>404.8</ele>
        <time>2025-09-06T07:59:18Z</time>
      </trkpt>
      <trkpt lat="46.06346" lon="4.49401">
        <ele>405.2</ele>
        <time>2025-09-06T07:59:19Z</time>
      </trkpt>
      <trkpt lat="46.06344" lon="4.49401">
        <ele>405.2</ele>
        <time>2025-09-06T07:59:20Z</time>
      </trkpt>
      <trkpt lat="46.06342" lon="4.49401">
        <ele>405.2</ele>
        <time>2025-09-06T07:59:21Z</time>
      </trkpt>
      <trkpt lat="46.0634" lon="4.49401">
        <ele>405.2</ele>
        <time>2025-09-06T07:59:22Z</time>
      </trkpt>
      <trkpt lat="46.06338" lon="4.49401">
        <ele>405.4</ele>
        <time>2025-09-06T07:59:23Z</time>
      </trkpt>
      <trkpt lat="46.06336" lon="4.49402">
        <ele>405.4</ele>
        <time>2025-09-06T07:59:24Z</time>
      </trkpt>
      <trkpt lat="46.06334" lon="4.49402">
        <ele>405.8</ele>
        <time>2025-09-06T07:59:25Z</time>
      </trkpt>
      <trkpt lat="46.06332" lon="4.49403">
        <ele>405.8</ele>
        <time>2025-09-06T07:59:26Z</time>
      </trkpt>
      <trkpt lat="46.0633" lon="4.49404">
        <ele>405.8</ele>
        <time>2025-09-06T07:59:27Z</time>
      </trkpt>
      <trkpt lat="46.06328" lon="4.49406">
        <ele>406</ele>
        <time>2025-09-06T07:59:28Z</time>
      </trkpt>
      <trkpt lat="46.06326" lon="4.49407">
        <ele>406</ele>
        <time>2025-09-06T07:59:29Z</time>
      </trkpt>
      <trkpt lat="46.06324" lon="4.49408">
        <ele>406.2</ele>
        <time>2025-09-06T07:59:30Z</time>
      </trkpt>
      <trkpt lat="46.06322" lon="4.49409">
        <ele>406.2</ele>
        <time>2025-09-06T07:59:31Z</time>
      </trkpt>
      <trkpt lat="46.06321" lon="4.49409">
        <ele>406.8</ele>
        <time>2025-09-06T07:59:32Z</time>
      </trkpt>
      <trkpt lat="46.06319" lon="4.49411">
        <ele>407</ele>
        <time>2025-09-06T07:59:33Z</time>
      </trkpt>
      <trkpt lat="46.06317" lon="4.49412">
        <ele>407.4</ele>
        <time>2025-09-06T07:59:34Z</time>
      </trkpt>
      <trkpt lat="46.06316" lon="4.49413">
        <ele>407.4</ele>
        <time>2025-09-06T07:59:35Z</time>
      </trkpt>
      <trkpt lat="46.06315" lon="4.49414">
        <ele>407.6</ele>
        <time>2025-09-06T07:59:36Z</time>
      </trkpt>
      <trkpt lat="46.06313" lon="4.49416">
        <ele>407.6</ele>
        <time>2025-09-06T07:59:37Z</time>
      </trkpt>
      <trkpt lat="46.06312" lon="4.49417">
        <ele>407.6</ele>
        <time>2025-09-06T07:59:38Z</time>
      </trkpt>
      <trkpt lat="46.06311" lon="4.49419">
        <ele>407.6</ele>
        <time>2025-09-06T07:59:39Z</time>
      </trkpt>
      <trkpt lat="46.0631" lon="4.49421">
        <ele>408</ele>
        <time>2025-09-06T07:59:40Z</time>
      </trkpt>
      <trkpt lat="46.06308" lon="4.49423">
        <ele>408</ele>
        <time>2025-09-06T07:59:41Z</time>
      </trkpt>
      <trkpt lat="46.06307" lon="4.49425">
        <ele>408.2</ele>
        <time>2025-09-06T07:59:42Z</time>
      </trkpt>
      <trkpt lat="46.06306" lon="4.49427">
        <ele>408.4</ele>
        <time>2025-09-06T07:59:43Z</time>
      </trkpt>
      <trkpt lat="46.06305" lon="4.49429">
        <ele>408.4</ele>
        <time>2025-09-06T07:59:44Z</time>
      </trkpt>
      <trkpt lat="46.06304" lon="4.49431">
        <ele>408.4</ele>
        <time>2025-09-06T07:59:45Z</time>
      </trkpt>
      <trkpt lat="46.06302" lon="4.49433">
        <ele>408.8</ele>
        <time>2025-09-06T07:59:46Z</time>
      </trkpt>
      <trkpt lat="46.06301" lon="4.49435">
        <ele>408.8</ele>
        <time>2025-09-06T07:59:47Z</time>
      </trkpt>
      <trkpt lat="46.06301" lon="4.49438">
        <ele>408.8</ele>
        <time>2025-09-06T07:59:48Z</time>
      </trkpt>
      <trkpt lat="46.063" lon="4.4944">
        <ele>409</ele>
        <time>2025-09-06T07:59:49Z</time>
      </trkpt>
      <trkpt lat="46.06299" lon="4.49442">
        <ele>409</ele>
        <time>2025-09-06T07:59:50Z</time>
      </trkpt>
      <trkpt lat="46.06298" lon="4.49445">
        <ele>409.2</ele>
        <time>2025-09-06T07:59:51Z</time>
      </trkpt>
      <trkpt lat="46.06298" lon="4.49448">
        <ele>409.2</ele>
        <time>2025-09-06T07:59:52Z</time>
      </trkpt>
      <trkpt lat="46.06297" lon="4.49451">
        <ele>409.4</ele>
        <time>2025-09-06T07:59:53Z</time>
      </trkpt>
      <trkpt lat="46.06297" lon="4.49453">
        <ele>409.4</ele>
        <time>2025-09-06T07:59:54Z</time>
      </trkpt>
      <trkpt lat="46.06296" lon="4.49455">
        <ele>409.4</ele>
        <time>2025-09-06T07:59:55Z</time>
      </trkpt>
      <trkpt lat="46.06295" lon="4.49457">
        <ele>409.6</ele>
        <time>2025-09-06T07:59:56Z</time>
      </trkpt>
      <trkpt lat="46.06294" lon="4.49459">
        <ele>409.6</ele>
        <time>2025-09-06T07:59:57Z</time>
      </trkpt>
      <trkpt lat="46.06292" lon="4.49462">
        <ele>409.6</ele>
        <time>2025-09-06T07:59:58Z</time>
      </trkpt>
      <trkpt lat="46.06292" lon="4.49464">
        <ele>409.6</ele>
        <time>2025-09-06T07:59:59Z</time>
      </trkpt>
      <trkpt lat="46.06291" lon="4.49467">
        <ele>410</ele>
        <time>2025-09-06T08:00:00Z</time>
      </trkpt>
      <trkpt lat="46.0629" lon="4.49469">
        <ele>410</ele>
        <time>2025-09-06T08:00:01Z</time>
      </trkpt>
      <trkpt lat="46.06289" lon="4.49472">
        <ele>410.2</ele>
        <time>2025-09-06T08:00:02Z</time>
      </trkpt>
      <trkpt lat="46.06289" lon="4.49473">
        <ele>410.4</ele>
        <time>2025-09-06T08:00:03Z</time>
      </trkpt>
      <trkpt lat="46.06288" lon="4.49475">
        <ele>410.4</ele>
        <time>2025-09-06T08:00:04Z</time>
      </trkpt>
      <trkpt lat="46.06287" lon="4.49478">
        <ele>410.4</ele>
        <time>2025-09-06T08:00:05Z</time>
      </trkpt>
      <trkpt lat="46.06287" lon="4.49481">
        <ele>410.8</ele>
        <time>2025-09-06T08:00:06Z</time>
      </trkpt>
      <trkpt lat="46.06286" lon="4.49483">
        <ele>411</ele>
        <time>2025-09-06T08:00:07Z</time>
      </trkpt>
      <trkpt lat="46.06285" lon="4.49486">
        <ele>411</ele>
        <time>2025-09-06T08:00:08Z</time>
      </trkpt>
      <trkpt lat="46.06285" lon="4.49488">
        <ele>411.4</ele>
        <time>2025-09-06T08:00:09Z</time>
      </trkpt>
      <trkpt lat="46.06284" lon="4.49491">
        <ele>411.6</ele>
        <time>2025-09-06T08:00:10Z</time>
      </trkpt>
      <trkpt lat="46.06283" lon="4.49494">
        <ele>411.6</ele>
        <time>2025-09-06T08:00:11Z</time>
      </trkpt>
      <trkpt lat="46.06282" lon="4.49497">
        <ele>411.6</ele>
        <time>2025-09-06T08:00:12Z</time>
      </trkpt>
      <trkpt lat="46.06281" lon="4.49499">
        <ele>411.8</ele>
        <time>2025-09-06T08:00:13Z</time>
      </trkpt>
      <trkpt lat="46.0628" lon="4.49502">
        <ele>411.8</ele>
        <time>2025-09-06T08:00:14Z</time>
      </trkpt>
      <trkpt lat="46.06279" lon="4.49504">
        <ele>412</ele>
        <time>2025-09-06T08:00:15Z</time>
      </trkpt>
      <trkpt lat="46.06278" lon="4.49507">
        <ele>412.4</ele>
        <time>2025-09-06T08:00:16Z</time>
      </trkpt>
      <trkpt lat="46.06278" lon="4.49509">
        <ele>412.6</ele>
        <time>2025-09-06T08:00:17Z</time>
      </trkpt>
      <trkpt lat="46.06277" lon="4.49512">
        <ele>412.6</ele>
        <time>2025-09-06T08:00:18Z</time>
      </trkpt>
      <trkpt lat="46.06276" lon="4.49514">
        <ele>413</ele>
        <time>2025-09-06T08:00:19Z</time>
      </trkpt>
      <trkpt lat="46.06276" lon="4.49517">
        <ele>413</ele>
        <time>2025-09-06T08:00:20Z</time>
      </trkpt>
      <trkpt lat="46.06275" lon="4.49519">
        <ele>413</ele>
        <time>2025-09-06T08:00:21Z</time>
      </trkpt>
      <trkpt lat="46.06275" lon="4.49521">
        <ele>413.2</ele>
        <time>2025-09-06T08:00:22Z</time>
      </trkpt>
      <trkpt lat="46.06274" lon="4.49524">
        <ele>413.2</ele>
        <time>2025-09-06T08:00:23Z</time>
      </trkpt>
      <trkpt lat="46.06274" lon="4.49526">
        <ele>413.2</ele>
        <time>2025-09-06T08:00:24Z</time>
      </trkpt>
      <trkpt lat="46.06273" lon="4.49529">
        <ele>413.6</ele>
        <time>2025-09-06T08:00:25Z</time>
      </trkpt>
      <trkpt lat="46.06273" lon="4.49531">
        <ele>413.6</ele>
        <time>2025-09-06T08:00:26Z</time>
      </trkpt>
      <trkpt lat="46.06273" lon="4.49534">
        <ele>413.8</ele>
        <time>2025-09-06T08:00:27Z</time>
      </trkpt>
      <trkpt lat="46.06272" lon="4.49537">
        <ele>413.8</ele>
        <time>2025-09-06T08:00:28Z</time>
      </trkpt>
      <trkpt lat="46.06272" lon="4.4954">
        <ele>413.8</ele>
        <time>2025-09-06T08:00:29Z</time>
      </trkpt>
      <trkpt lat="46.06272" lon="4.49542">
        <ele>413.8</ele>
        <time>2025-09-06T08:00:30Z</time>
      </trkpt>
      <trkpt lat="46.06271" lon="4.49545">
        <ele>414.2</ele>
        <time>2025-09-06T08:00:31Z</time>
      </trkpt>
      <trkpt lat="46.06271" lon="4.49547">
        <ele>414.2</ele>
        <time>2025-09-06T08:00:32Z</time>
      </trkpt>
      <trkpt lat="46.0627" lon="4.49549">
        <ele>414.4</ele>
        <time>2025-09-06T08:00:33Z</time>
      </trkpt>
      <trkpt lat="46.0627" lon="4.49552">
        <ele>414.4</ele>
        <time>2025-09-06T08:00:34Z</time>
      </trkpt>
      <trkpt lat="46.06269" lon="4.49554">
        <ele>414.4</ele>
        <time>2025-09-06T08:00:35Z</time>
      </trkpt>
      <trkpt lat="46.06269" lon="4.49557">
        <ele>414.8</ele>
        <time>2025-09-06T08:00:36Z</time>
      </trkpt>
      <trkpt lat="46.06269" lon="4.49559">
        <ele>414.8</ele>
        <time>2025-09-06T08:00:37Z</time>
      </trkpt>
      <trkpt lat="46.06268" lon="4.49562">
        <ele>415.2</ele>
        <time>2025-09-06T08:00:38Z</time>
      </trkpt>
      <trkpt lat="46.06268" lon="4.49565">
        <ele>415.2</ele>
        <time>2025-09-06T08:00:39Z</time>
      </trkpt>
      <trkpt lat="46.06268" lon="4.49567">
        <ele>415.2</ele>
        <time>2025-09-06T08:00:40Z</time>
      </trkpt>
      <trkpt lat="46.06267" lon="4.4957">
        <ele>415.2</ele>
        <time>2025-09-06T08:00:41Z</time>
      </trkpt>
      <trkpt lat="46.06267" lon="4.49573">
        <ele>415.4</ele>
        <time>2025-09-06T08:00:42Z</time>
      </trkpt>
      <trkpt lat="46.06266" lon="4.49575">
        <ele>415.6</ele>
        <time>2025-09-06T08:00:43Z</time>
      </trkpt>
      <trkpt lat="46.06266" lon="4.49577">
        <ele>415.6</ele>
        <time>2025-09-06T08:00:44Z</time>
      </trkpt>
      <trkpt lat="46.06265" lon="4.4958">
        <ele>416</ele>
        <time>2025-09-06T08:00:45Z</time>
      </trkpt>
      <trkpt lat="46.06265" lon="4.49582">
        <ele>416</ele>
        <time>2025-09-06T08:00:46Z</time>
      </trkpt>
      <trkpt lat="46.06265" lon="4.49585">
        <ele>416.2</ele>
        <time>2025-09-06T08:00:47Z</time>
      </trkpt>
      <trkpt lat="46.06264" lon="4.49587">
        <ele>416.2</ele>
        <time>2025-09-06T08:00:48Z</time>
      </trkpt>
      <trkpt lat="46.06264" lon="4.4959">
        <ele>416.2</ele>
        <time>2025-09-06T08:00:49Z</time>
      </trkpt>
      <trkpt lat="46.06264" lon="4.49593">
        <ele>416.4</ele>
        <time>2025-09-06T08:00:50Z</time>
      </trkpt>
      <trkpt lat="46.06264" lon="4.49595">
        <ele>416.4</ele>
        <time>2025-09-06T08:00:51Z</time>
      </trkpt>
      <trkpt lat="46.06264" lon="4.49598">
        <ele>416.4</ele>
        <time>2025-09-06T08:00:52Z</time>
      </trkpt>
      <trkpt lat="46.06264" lon="4.496">
        <ele>416.8</ele>
        <time>2025-09-06T08:00:53Z</time>
      </trkpt>
      <trkpt lat="46.06263" lon="4.49603">
        <ele>416.8</ele>
        <time>2025-09-06T08:00:54Z</time>
      </trkpt>
      <trkpt lat="46.06263" lon="4.49605">
        <ele>416.8</ele>
        <time>2025-09-06T08:00:55Z</time>
      </trkpt>
      <trkpt lat="46.06263" lon="4.49608">
        <ele>416.8</ele>
        <time>2025-09-06T08:00:56Z</time>
      </trkpt>
      <trkpt lat="46.06262" lon="4.4961">
        <ele>417.4</ele>
        <time>2025-09-06T08:00:57Z</time>
      </trkpt>
      <trkpt lat="46.06262" lon="4.49613">
        <ele>417.4</ele>
        <time>2025-09-06T08:00:58Z</time>
      </trkpt>
      <trkpt lat="46.06262" lon="4.49616">
        <ele>417.4</ele>
        <time>2025-09-06T08:00:59Z</time>
      </trkpt>
      <trkpt lat="46.06262" lon="4.49619">
        <ele>417.4</ele>
        <time>2025-09-06T08:01:00Z</time>
      </trkpt>
      <trkpt lat="46.06262" lon="4.49621">
        <ele>417.8</ele>
        <time>2025-09-06T08:01:01Z</time>
      </trkpt>
      <trkpt lat="46.06262" lon="4.49624">
        <ele>417.8</ele>
        <time>2025-09-06T08:01:02Z</time>
      </trkpt>
      <trkpt lat="46.06262" lon="4.49626">
        <ele>418.2</ele>
        <time>2025-09-06T08:01:03Z</time>
      </trkpt>
      <trkpt lat="46.06261" lon="4.49629">
        <ele>418.2</ele>
        <time>2025-09-06T08:01:04Z</time>
      </trkpt>
      <trkpt lat="46.06261" lon="4.49631">
        <ele>418.2</ele>
        <time>2025-09-06T08:01:05Z</time>
      </trkpt>
      <trkpt lat="46.0626" lon="4.49633">
        <ele>418.4</ele>
        <time>2025-09-06T08:01:06Z</time>
      </trkpt>
      <trkpt lat="46.0626" lon="4.49636">
        <ele>418.4</ele>
        <time>2025-09-06T08:01:07Z</time>
      </trkpt>
      <trkpt lat="46.0626" lon="4.49638">
        <ele>419</ele>
        <time>2025-09-06T08:01:08Z</time>
      </trkpt>
      <trkpt lat="46.0626" lon="4.4964">
        <ele>419</ele>
        <time>2025-09-06T08:01:09Z</time>
      </trkpt>
      <trkpt lat="46.06259" lon="4.49643">
        <ele>419.2</ele>
        <time>2025-09-06T08:01:10Z</time>
      </trkpt>
      <trkpt lat="46.06259" lon="4.49646">
        <ele>419.2</ele>
        <time>2025-09-06T08:01:11Z</time>
      </trkpt>
      <trkpt lat="46.06259" lon="4.49649">
        <ele>419.4</ele>
        <time>2025-09-06T08:01:12Z</time>
      </trkpt>
      <trkpt lat="46.06259" lon="4.49651">
        <ele>419.8</ele>
        <time>2025-09-06T08:01:13Z</time>
      </trkpt>
      <trkpt lat="46.06259" lon="4.49654">
        <ele>419.8</ele>
        <time>2025-09-06T08:01:14Z</time>
      </trkpt>
      <trkpt lat="46.06259" lon="4.49657">
        <ele>420</ele>
        <time>2025-09-06T08:01:15Z</time>
      </trkpt>
      <trkpt lat="46.06259" lon="4.49659">
        <ele>420.2</ele>
        <time>2025-09-06T08:01:16Z</time>
      </trkpt>
      <trkpt lat="46.06259" lon="4.49662">
        <ele>420.2</ele>
        <time>2025-09-06T08:01:17Z</time>
      </trkpt>
      <trkpt lat="46.06258" lon="4.49665">
        <ele>420.2</ele>
        <time>2025-09-06T08:01:18Z</time>
      </trkpt>
      <trkpt lat="46.06258" lon="4.49667">
        <ele>420.6</ele>
        <time>2025-09-06T08:01:19Z</time>
      </trkpt>
      <trkpt lat="46.06258" lon="4.4967">
        <ele>420.6</ele>
        <time>2025-09-06T08:01:20Z</time>
      </trkpt>
      <trkpt lat="46.06258" lon="4.49673">
        <ele>420.6</ele>
        <time>2025-09-06T08:01:21Z</time>
      </trkpt>
      <trkpt lat="46.06258" lon="4.49675">
        <ele>420.6</ele>
        <time>2025-09-06T08:01:22Z</time>
      </trkpt>
      <trkpt lat="46.06258" lon="4.49678">
        <ele>420.8</ele>
        <time>2025-09-06T08:01:23Z</time>
      </trkpt>
      <trkpt lat="46.06258" lon="4.4968">
        <ele>420.8</ele>
        <time>2025-09-06T08:01:24Z</time>
      </trkpt>
      <trkpt lat="46.06257" lon="4.49683">
        <ele>421.2</ele>
        <time>2025-09-06T08:01:25Z</time>
      </trkpt>
      <trkpt lat="46.06257" lon="4.49686">
        <ele>421.2</ele>
        <time>2025-09-06T08:01:26Z</time>
      </trkpt>
      <trkpt lat="46.06257" lon="4.49688">
        <ele>421.6</ele>
        <time>2025-09-06T08:01:27Z</time>
      </trkpt>
      <trkpt lat="46.06257" lon="4.49691">
        <ele>421.6</ele>
        <time>2025-09-06T08:01:28Z</time>
      </trkpt>
      <trkpt lat="46.06257" lon="4.49694">
        <ele>421.8</ele>
        <time>2025-09-06T08:01:29Z</time>
      </trkpt>
      <trkpt lat="46.06257" lon="4.49694">
        <ele>421.8</ele>
        <time>2025-09-06T08:01:30Z</time>
      </trkpt>
      <trkpt lat="46.06257" lon="4.49696">
        <ele>421.8</ele>
        <time>2025-09-06T08:01:31Z</time>
      </trkpt>
      <trkpt lat="46.06257" lon="4.49699">
        <ele>422</ele>
        <time>2025-09-06T08:01:32Z</time>
      </trkpt>
      <trkpt lat="46.06257" lon="4.49701">
        <ele>422</ele>
        <time>2025-09-06T08:01:33Z</time>
      </trkpt>
      <trkpt lat="46.06257" lon="4.49704">
        <ele>422.2</ele>
        <time>2025-09-06T08:01:34Z</time>
      </trkpt>
      <trkpt lat="46.06256" lon="4.49706">
        <ele>422.2</ele>
        <time>2025-09-06T08:01:35Z</time>
      </trkpt>
      <trkpt lat="46.06256" lon="4.49709">
        <ele>422.6</ele>
        <time>2025-09-06T08:01:36Z</time>
      </trkpt>
      <trkpt lat="46.06256" lon="4.49712">
        <ele>422.6</ele>
        <time>2025-09-06T08:01:37Z</time>
      </trkpt>
      <trkpt lat="46.06255" lon="4.49715">
        <ele>422.6</ele>
        <time>2025-09-06T08:01:38Z</time>
      </trkpt>
      <trkpt lat="46.06255" lon="4.49717">
        <ele>423.2</ele>
        <time>2025-09-06T08:01:39Z</time>
      </trkpt>
      <trkpt lat="46.06255" lon="4.4972">
        <ele>423.2</ele>
        <time>2025-09-06T08:01:40Z</time>
      </trkpt>
      <trkpt lat="46.06255" lon="4.49723">
        <ele>423.4</ele>
        <time>2025-09-06T08:01:41Z</time>
      </trkpt>
      <trkpt lat="46.06254" lon="4.49725">
        <ele>423.4</ele>
        <time>2025-09-06T08:01:42Z</time>
      </trkpt>
      <trkpt lat="46.06254" lon="4.49728">
        <ele>423.8</ele>
        <time>2025-09-06T08:01:43Z</time>
      </trkpt>
      <trkpt lat="46.06254" lon="4.4973">
        <ele>423.8</ele>
        <time>2025-09-06T08:01:44Z</time>
      </trkpt>
      <trkpt lat="46.06254" lon="4.49732">
        <ele>423.8</ele>
        <time>2025-09-06T08:01:45Z</time>
      </trkpt>
      <trkpt lat="46.06254" lon="4.49735">
        <ele>424</ele>
        <time>2025-09-06T08:01:46Z</time>
      </trkpt>
      <trkpt lat="46.06254" lon="4.49737">
        <ele>424</ele>
        <time>2025-09-06T08:01:47Z</time>
      </trkpt>
      <trkpt lat="46.06254" lon="4.49739">
        <ele>424</ele>
        <time>2025-09-06T08:01:48Z</time>
      </trkpt>
      <trkpt lat="46.06254" lon="4.49742">
        <ele>424</ele>
        <time>2025-09-06T08:01:49Z</time>
      </trkpt>
      <trkpt lat="46.06254" lon="4.49744">
        <ele>424.2</ele>
        <time>2025-09-06T08:01:50Z</time>
      </trkpt>
      <trkpt lat="46.06254" lon="4.49746">
        <ele>424.2</ele>
        <time>2025-09-06T08:01:51Z</time>
      </trkpt>
      <trkpt lat="46.06254" lon="4.49749">
        <ele>424.2</ele>
        <time>2025-09-06T08:01:52Z</time>
      </trkpt>
      <trkpt lat="46.06254" lon="4.49752">
        <ele>424.6</ele>
        <time>2025-09-06T08:01:53Z</time>
      </trkpt>
      <trkpt lat="46.06254" lon="4.49754">
        <ele>424.6</ele>
        <time>2025-09-06T08:01:54Z</time>
      </trkpt>
      <trkpt lat="46.06254" lon="4.49757">
        <ele>425</ele>
        <time>2025-09-06T08:01:55Z</time>
      </trkpt>
      <trkpt lat="46.06254" lon="4.49762">
        <ele>425</ele>
        <time>2025-09-06T08:01:56Z</time>
      </trkpt>
      <trkpt lat="46.06254" lon="4.49765">
        <ele>425.2</ele>
        <time>2025-09-06T08:01:57Z</time>
      </trkpt>
      <trkpt lat="46.06254" lon="4.49767">
        <ele>425.2</ele>
        <time>2025-09-06T08:01:58Z</time>
      </trkpt>
      <trkpt lat="46.06254" lon="4.4977">
        <ele>425.4</ele>
        <time>2025-09-06T08:01:59Z</time>
      </trkpt>
      <trkpt lat="46.06255" lon="4.49772">
        <ele>425.6</ele>
        <time>2025-09-06T08:02:00Z</time>
      </trkpt>
      <trkpt lat="46.06255" lon="4.49775">
        <ele>425.6</ele>
        <time>2025-09-06T08:02:01Z</time>
      </trkpt>
      <trkpt lat="46.06255" lon="4.49778">
        <ele>426</ele>
        <time>2025-09-06T08:02:02Z</time>
      </trkpt>
      <trkpt lat="46.06256" lon="4.49781">
        <ele>426</ele>
        <time>2025-09-06T08:02:03Z</time>
      </trkpt>
      <trkpt lat="46.06256" lon="4.49784">
        <ele>426.4</ele>
        <time>2025-09-06T08:02:04Z</time>
      </trkpt>
      <trkpt lat="46.06256" lon="4.49786">
        <ele>426.4</ele>
        <time>2025-09-06T08:02:05Z</time>
      </trkpt>
      <trkpt lat="46.06257" lon="4.49789">
        <ele>426.6</ele>
        <time>2025-09-06T08:02:06Z</time>
      </trkpt>
      <trkpt lat="46.06257" lon="4.49792">
        <ele>426.8</ele>
        <time>2025-09-06T08:02:07Z</time>
      </trkpt>
      <trkpt lat="46.06258" lon="4.49795">
        <ele>427</ele>
        <time>2025-09-06T08:02:08Z</time>
      </trkpt>
      <trkpt lat="46.06258" lon="4.49798">
        <ele>427</ele>
        <time>2025-09-06T08:02:09Z</time>
      </trkpt>
      <trkpt lat="46.06258" lon="4.498">
        <ele>427</ele>
        <time>2025-09-06T08:02:10Z</time>
      </trkpt>
      <trkpt lat="46.06258" lon="4.49803">
        <ele>427.4</ele>
        <time>2025-09-06T08:02:11Z</time>
      </trkpt>
      <trkpt lat="46.06258" lon="4.49806">
        <ele>427.4</ele>
        <time>2025-09-06T08:02:12Z</time>
      </trkpt>
      <trkpt lat="46.06258" lon="4.49809">
        <ele>427.4</ele>
        <time>2025-09-06T08:02:13Z</time>
      </trkpt>
      <trkpt lat="46.06258" lon="4.49812">
        <ele>427.6</ele>
        <time>2025-09-06T08:02:14Z</time>
      </trkpt>
      <trkpt lat="46.06258" lon="4.49814">
        <ele>427.6</ele>
        <time>2025-09-06T08:02:15Z</time>
      </trkpt>
      <trkpt lat="46.06258" lon="4.49817">
        <ele>427.8</ele>
        <time>2025-09-06T08:02:16Z</time>
      </trkpt>
      <trkpt lat="46.06258" lon="4.4982">
        <ele>427.8</ele>
        <time>2025-09-06T08:02:17Z</time>
      </trkpt>
      <trkpt lat="46.06258" lon="4.49823">
        <ele>427.8</ele>
        <time>2025-09-06T08:02:18Z</time>
      </trkpt>
      <trkpt lat="46.06258" lon="4.49826">
        <ele>428.2</ele>
        <time>2025-09-06T08:02:19Z</time>
      </trkpt>
      <trkpt lat="46.06258" lon="4.49828">
        <ele>428.2</ele>
        <time>2025-09-06T08:02:20Z</time>
      </trkpt>
      <trkpt lat="46.06259" lon="4.49831">
        <ele>428.6</ele>
        <time>2025-09-06T08:02:21Z</time>
      </trkpt>
      <trkpt lat="46.06259" lon="4.49834">
        <ele>428.6</ele>
        <time>2025-09-06T08:02:22Z</time>
      </trkpt>
      <trkpt lat="46.06259" lon="4.49837">
        <ele>428.8</ele>
        <time>2025-09-06T08:02:23Z</time>
      </trkpt>
      <trkpt lat="46.0626" lon="4.49839">
        <ele>428.8</ele>
        <time>2025-09-06T08:02:24Z</time>
      </trkpt>
      <trkpt lat="46.0626" lon="4.49842">
        <ele>429.2</ele>
        <time>2025-09-06T08:02:25Z</time>
      </trkpt>
      <trkpt lat="46.0626" lon="4.49845">
        <ele>429.2</ele>
        <time>2025-09-06T08:02:26Z</time>
      </trkpt>
      <trkpt lat="46.06261" lon="4.49847">
        <ele>429.2</ele>
        <time>2025-09-06T08:02:27Z</time>
      </trkpt>
      <trkpt lat="46.06261" lon="4.4985">
        <ele>429.2</ele>
        <time>2025-09-06T08:02:28Z</time>
      </trkpt>
      <trkpt lat="46.06262" lon="4.49853">
        <ele>429.4</ele>
        <time>2025-09-06T08:02:29Z</time>
      </trkpt>
      <trkpt lat="46.06263" lon="4.49855">
        <ele>429.4</ele>
        <time>2025-09-06T08:02:30Z</time>
      </trkpt>
      <trkpt lat="46.06263" lon="4.49858">
        <ele>429.8</ele>
        <time>2025-09-06T08:02:31Z</time>
      </trkpt>
      <trkpt lat="46.06264" lon="4.49861">
        <ele>429</ele>
        <time>2025-09-06T08:02:32Z</time>
      </trkpt>
      <trkpt lat="46.06265" lon="4.49863">
        <ele>429.4</ele>
        <time>2025-09-06T08:02:33Z</time>
      </trkpt>
      <trkpt lat="46.06266" lon="4.49864">
        <ele>429.8</ele>
        <time>2025-09-06T08:02:34Z</time>
      </trkpt>
      <trkpt lat="46.06266" lon="4.49866">
        <ele>430</ele>
        <time>2025-09-06T08:02:35Z</time>
      </trkpt>
      <trkpt lat="46.06267" lon="4.49869">
        <ele>430.4</ele>
        <time>2025-09-06T08:02:36Z</time>
      </trkpt>
      <trkpt lat="46.06268" lon="4.49871">
        <ele>430.8</ele>
        <time>2025-09-06T08:02:37Z</time>
      </trkpt>
      <trkpt lat="46.06268" lon="4.49873">
        <ele>430.4</ele>
        <time>2025-09-06T08:02:38Z</time>
      </trkpt>
      <trkpt lat="46.06269" lon="4.49875">
        <ele>430.8</ele>
        <time>2025-09-06T08:02:39Z</time>
      </trkpt>
      <trkpt lat="46.0627" lon="4.49877">
        <ele>430.8</ele>
        <time>2025-09-06T08:02:40Z</time>
      </trkpt>
      <trkpt lat="46.06271" lon="4.49879">
        <ele>431</ele>
        <time>2025-09-06T08:02:41Z</time>
      </trkpt>
      <trkpt lat="46.06272" lon="4.49881">
        <ele>431</ele>
        <time>2025-09-06T08:02:42Z</time>
      </trkpt>
      <trkpt lat="46.06273" lon="4.49883">
        <ele>431.4</ele>
        <time>2025-09-06T08:02:43Z</time>
      </trkpt>
      <trkpt lat="46.06275" lon="4.49885">
        <ele>431.4</ele>
        <time>2025-09-06T08:02:44Z</time>
      </trkpt>
      <trkpt lat="46.06276" lon="4.49888">
        <ele>431.4</ele>
        <time>2025-09-06T08:02:45Z</time>
      </trkpt>
      <trkpt lat="46.06277" lon="4.4989">
        <ele>431.6</ele>
        <time>2025-09-06T08:02:46Z</time>
      </trkpt>
      <trkpt lat="46.06278" lon="4.49893">
        <ele>431.6</ele>
        <time>2025-09-06T08:02:47Z</time>
      </trkpt>
      <trkpt lat="46.06278" lon="4.49895">
        <ele>431.6</ele>
        <time>2025-09-06T08:02:48Z</time>
      </trkpt>
      <trkpt lat="46.06279" lon="4.49898">
        <ele>431.6</ele>
        <time>2025-09-06T08:02:49Z</time>
      </trkpt>
      <trkpt lat="46.0628" lon="4.499">
        <ele>432</ele>
        <time>2025-09-06T08:02:50Z</time>
      </trkpt>
      <trkpt lat="46.06281" lon="4.49902">
        <ele>432.2</ele>
        <time>2025-09-06T08:02:51Z</time>
      </trkpt>
      <trkpt lat="46.06282" lon="4.49905">
        <ele>432.2</ele>
        <time>2025-09-06T08:02:52Z</time>
      </trkpt>
      <trkpt lat="46.06283" lon="4.49908">
        <ele>432.6</ele>
        <time>2025-09-06T08:02:53Z</time>
      </trkpt>
      <trkpt lat="46.06284" lon="4.49911">
        <ele>432.6</ele>
        <time>2025-09-06T08:02:54Z</time>
      </trkpt>
      <trkpt lat="46.06284" lon="4.49913">
        <ele>433</ele>
        <time>2025-09-06T08:02:55Z</time>
      </trkpt>
      <trkpt lat="46.06285" lon="4.49916">
        <ele>433</ele>
        <time>2025-09-06T08:02:56Z</time>
      </trkpt>
      <trkpt lat="46.06285" lon="4.49919">
        <ele>433.2</ele>
        <time>2025-09-06T08:02:57Z</time>
      </trkpt>
      <trkpt lat="46.06285" lon="4.49922">
        <ele>433.2</ele>
        <time>2025-09-06T08:02:58Z</time>
      </trkpt>
      <trkpt lat="46.06284" lon="4.49924">
        <ele>433.4</ele>
        <time>2025-09-06T08:02:59Z</time>
      </trkpt>
      <trkpt lat="46.06284" lon="4.49927">
        <ele>433.6</ele>
        <time>2025-09-06T08:03:00Z</time>
      </trkpt>
      <trkpt lat="46.06283" lon="4.49929">
        <ele>433.6</ele>
        <time>2025-09-06T08:03:01Z</time>
      </trkpt>
      <trkpt lat="46.06282" lon="4.49931">
        <ele>433.6</ele>
        <time>2025-09-06T08:03:02Z</time>
      </trkpt>
      <trkpt lat="46.06282" lon="4.49934">
        <ele>434</ele>
        <time>2025-09-06T08:03:03Z</time>
      </trkpt>
      <trkpt lat="46.06281" lon="4.49936">
        <ele>434.2</ele>
        <time>2025-09-06T08:03:04Z</time>
      </trkpt>
      <trkpt lat="46.0628" lon="4.49938">
        <ele>434.6</ele>
        <time>2025-09-06T08:03:05Z</time>
      </trkpt>
      <trkpt lat="46.06279" lon="4.49941">
        <ele>434.6</ele>
        <time>2025-09-06T08:03:06Z</time>
      </trkpt>
      <trkpt lat="46.06279" lon="4.49943">
        <ele>434.8</ele>
        <time>2025-09-06T08:03:07Z</time>
      </trkpt>
      <trkpt lat="46.06278" lon="4.49946">
        <ele>434.8</ele>
        <time>2025-09-06T08:03:08Z</time>
      </trkpt>
      <trkpt lat="46.06278" lon="4.49948">
        <ele>435.2</ele>
        <time>2025-09-06T08:03:09Z</time>
      </trkpt>
      <trkpt lat="46.06277" lon="4.49951">
        <ele>435.6</ele>
        <time>2025-09-06T08:03:10Z</time>
      </trkpt>
      <trkpt lat="46.06276" lon="4.49953">
        <ele>435.6</ele>
        <time>2025-09-06T08:03:11Z</time>
      </trkpt>
      <trkpt lat="46.06276" lon="4.49955">
        <ele>435.8</ele>
        <time>2025-09-06T08:03:12Z</time>
      </trkpt>
      <trkpt lat="46.06275" lon="4.49958">
        <ele>435.8</ele>
        <time>2025-09-06T08:03:13Z</time>
      </trkpt>
      <trkpt lat="46.06275" lon="4.4996">
        <ele>436.2</ele>
        <time>2025-09-06T08:03:14Z</time>
      </trkpt>
      <trkpt lat="46.06275" lon="4.49963">
        <ele>436.2</ele>
        <time>2025-09-06T08:03:15Z</time>
      </trkpt>
      <trkpt lat="46.06274" lon="4.49965">
        <ele>436.2</ele>
        <time>2025-09-06T08:03:16Z</time>
      </trkpt>
      <trkpt lat="46.06274" lon="4.49968">
        <ele>436.4</ele>
        <time>2025-09-06T08:03:17Z</time>
      </trkpt>
      <trkpt lat="46.06274" lon="4.4997">
        <ele>436.4</ele>
        <time>2025-09-06T08:03:18Z</time>
      </trkpt>
      <trkpt lat="46.06274" lon="4.4997">
        <ele>436.6</ele>
        <time>2025-09-06T08:03:19Z</time>
      </trkpt>
      <trkpt lat="46.06274" lon="4.4997">
        <ele>437</ele>
        <time>2025-09-06T08:03:20Z</time>
      </trkpt>
      <trkpt lat="46.06272" lon="4.49982">
        <ele>437</ele>
        <time>2025-09-06T08:03:22Z</time>
      </trkpt>
      <trkpt lat="46.06272" lon="4.49984">
        <ele>437.2</ele>
        <time>2025-09-06T08:03:23Z</time>
      </trkpt>
      <trkpt lat="46.06272" lon="4.49987">
        <ele>437.6</ele>
        <time>2025-09-06T08:03:24Z</time>
      </trkpt>
      <trkpt lat="46.06272" lon="4.4999">
        <ele>437.8</ele>
        <time>2025-09-06T08:03:25Z</time>
      </trkpt>
      <trkpt lat="46.06272" lon="4.49992">
        <ele>437.8</ele>
        <time>2025-09-06T08:03:26Z</time>
      </trkpt>
      <trkpt lat="46.06272" lon="4.49995">
        <ele>437.8</ele>
        <time>2025-09-06T08:03:27Z</time>
      </trkpt>
      <trkpt lat="46.06272" lon="4.49997">
        <ele>438</ele>
        <time>2025-09-06T08:03:28Z</time>
      </trkpt>
      <trkpt lat="46.06273" lon="4.5">
        <ele>438</ele>
        <time>2025-09-06T08:03:29Z</time>
      </trkpt>
      <trkpt lat="46.06273" lon="4.50003">
        <ele>438</ele>
        <time>2025-09-06T08:03:30Z</time>
      </trkpt>
      <trkpt lat="46.06274" lon="4.50005">
        <ele>438.4</ele>
        <time>2025-09-06T08:03:31Z</time>
      </trkpt>
      <trkpt lat="46.06274" lon="4.50008">
        <ele>438.4</ele>
        <time>2025-09-06T08:03:32Z</time>
      </trkpt>
      <trkpt lat="46.06275" lon="4.50011">
        <ele>438.4</ele>
        <time>2025-09-06T08:03:33Z</time>
      </trkpt>
      <trkpt lat="46.06275" lon="4.50013">
        <ele>438.6</ele>
        <time>2025-09-06T08:03:34Z</time>
      </trkpt>
      <trkpt lat="46.06276" lon="4.50016">
        <ele>439</ele>
        <time>2025-09-06T08:03:35Z</time>
      </trkpt>
      <trkpt lat="46.06277" lon="4.50018">
        <ele>439</ele>
        <time>2025-09-06T08:03:36Z</time>
      </trkpt>
      <trkpt lat="46.06277" lon="4.50021">
        <ele>439</ele>
        <time>2025-09-06T08:03:37Z</time>
      </trkpt>
      <trkpt lat="46.06278" lon="4.50023">
        <ele>439</ele>
        <time>2025-09-06T08:03:38Z</time>
      </trkpt>
      <trkpt lat="46.06279" lon="4.50026">
        <ele>439.2</ele>
        <time>2025-09-06T08:03:39Z</time>
      </trkpt>
      <trkpt lat="46.0628" lon="4.50028">
        <ele>439.4</ele>
        <time>2025-09-06T08:03:40Z</time>
      </trkpt>
      <trkpt lat="46.06281" lon="4.5003">
        <ele>439.4</ele>
        <time>2025-09-06T08:03:41Z</time>
      </trkpt>
      <trkpt lat="46.06282" lon="4.50032">
        <ele>439.6</ele>
        <time>2025-09-06T08:03:42Z</time>
      </trkpt>
      <trkpt lat="46.06283" lon="4.50034">
        <ele>439.8</ele>
        <time>2025-09-06T08:03:43Z</time>
      </trkpt>
      <trkpt lat="46.06284" lon="4.50036">
        <ele>440</ele>
        <time>2025-09-06T08:03:44Z</time>
      </trkpt>
      <trkpt lat="46.06285" lon="4.50038">
        <ele>440.4</ele>
        <time>2025-09-06T08:03:45Z</time>
      </trkpt>
      <trkpt lat="46.06287" lon="4.5004">
        <ele>440.4</ele>
        <time>2025-09-06T08:03:46Z</time>
      </trkpt>
      <trkpt lat="46.06288" lon="4.50042">
        <ele>440.4</ele>
        <time>2025-09-06T08:03:47Z</time>
      </trkpt>
      <trkpt lat="46.06289" lon="4.50043">
        <ele>440.6</ele>
        <time>2025-09-06T08:03:48Z</time>
      </trkpt>
      <trkpt lat="46.06291" lon="4.50045">
        <ele>440.6</ele>
        <time>2025-09-06T08:03:49Z</time>
      </trkpt>
      <trkpt lat="46.06292" lon="4.50047">
        <ele>441</ele>
        <time>2025-09-06T08:03:50Z</time>
      </trkpt>
      <trkpt lat="46.06294" lon="4.50048">
        <ele>441</ele>
        <time>2025-09-06T08:03:51Z</time>
      </trkpt>
      <trkpt lat="46.06295" lon="4.50049">
        <ele>441</ele>
        <time>2025-09-06T08:03:52Z</time>
      </trkpt>
      <trkpt lat="46.06297" lon="4.50051">
        <ele>441.2</ele>
        <time>2025-09-06T08:03:53Z</time>
      </trkpt>
      <trkpt lat="46.06299" lon="4.50052">
        <ele>441.2</ele>
        <time>2025-09-06T08:03:54Z</time>
      </trkpt>
      <trkpt lat="46.063" lon="4.50053">
        <ele>441.6</ele>
        <time>2025-09-06T08:03:55Z</time>
      </trkpt>
      <trkpt lat="46.06303" lon="4.50055">
        <ele>441.6</ele>
        <time>2025-09-06T08:03:56Z</time>
      </trkpt>
      <trkpt lat="46.06305" lon="4.50057">
        <ele>441.8</ele>
        <time>2025-09-06T08:03:57Z</time>
      </trkpt>
      <trkpt lat="46.06307" lon="4.50058">
        <ele>441.8</ele>
        <time>2025-09-06T08:03:58Z</time>
      </trkpt>
      <trkpt lat="46.06308" lon="4.5006">
        <ele>442.2</ele>
        <time>2025-09-06T08:03:59Z</time>
      </trkpt>
      <trkpt lat="46.0631" lon="4.50061">
        <ele>442.2</ele>
        <time>2025-09-06T08:04:00Z</time>
      </trkpt>
      <trkpt lat="46.06311" lon="4.50062">
        <ele>442.2</ele>
        <time>2025-09-06T08:04:01Z</time>
      </trkpt>
      <trkpt lat="46.06312" lon="4.50063">
        <ele>442.2</ele>
        <time>2025-09-06T08:04:02Z</time>
      </trkpt>
      <trkpt lat="46.06312" lon="4.50063">
        <ele>442.2</ele>
        <time>2025-09-06T08:04:03Z</time>
      </trkpt>
      <trkpt lat="46.06312" lon="4.50063">
        <ele>442.4</ele>
        <time>2025-09-06T08:04:04Z</time>
      </trkpt>
      <trkpt lat="46.06312" lon="4.50063">
        <ele>442.4</ele>
        <time>2025-09-06T08:04:05Z</time>
      </trkpt>
      <trkpt lat="46.06314" lon="4.50065">
        <ele>442.2</ele>
        <time>2025-09-06T08:04:10Z</time>
      </trkpt>
      <trkpt lat="46.06315" lon="4.50066">
        <ele>442.2</ele>
        <time>2025-09-06T08:04:11Z</time>
      </trkpt>
      <trkpt lat="46.06316" lon="4.50067">
        <ele>442.2</ele>
        <time>2025-09-06T08:04:12Z</time>
      </trkpt>
      <trkpt lat="46.06317" lon="4.50068">
        <ele>442.4</ele>
        <time>2025-09-06T08:04:13Z</time>
      </trkpt>
      <trkpt lat="46.06318" lon="4.5007">
        <ele>442.4</ele>
        <time>2025-09-06T08:04:14Z</time>
      </trkpt>
      <trkpt lat="46.06319" lon="4.50071">
        <ele>442.4</ele>
        <time>2025-09-06T08:04:15Z</time>
      </trkpt>
      <trkpt lat="46.06319" lon="4.50072">
        <ele>442.6</ele>
        <time>2025-09-06T08:04:16Z</time>
      </trkpt>
      <trkpt lat="46.0632" lon="4.50073">
        <ele>442.6</ele>
        <time>2025-09-06T08:04:17Z</time>
      </trkpt>
      <trkpt lat="46.06321" lon="4.50074">
        <ele>442.6</ele>
        <time>2025-09-06T08:04:18Z</time>
      </trkpt>
      <trkpt lat="46.06322" lon="4.50075">
        <ele>443</ele>
        <time>2025-09-06T08:04:19Z</time>
      </trkpt>
      <trkpt lat="46.06322" lon="4.50076">
        <ele>443</ele>
        <time>2025-09-06T08:04:20Z</time>
      </trkpt>
      <trkpt lat="46.06323" lon="4.50077">
        <ele>443.4</ele>
        <time>2025-09-06T08:04:21Z</time>
      </trkpt>
      <trkpt lat="46.06323" lon="4.50077">
        <ele>443.4</ele>
        <time>2025-09-06T08:04:22Z</time>
      </trkpt>
      <trkpt lat="46.06323" lon="4.50078">
        <ele>443.4</ele>
        <time>2025-09-06T08:04:23Z</time>
      </trkpt>
      <trkpt lat="46.06323" lon="4.50078">
        <ele>443.6</ele>
        <time>2025-09-06T08:04:24Z</time>
      </trkpt>
      <trkpt lat="46.06323" lon="4.50078">
        <ele>443.6</ele>
        <time>2025-09-06T08:04:25Z</time>
      </trkpt>
      <trkpt lat="46.06325" lon="4.50075">
        <ele>444.6</ele>
        <time>2025-09-06T08:10:14Z</time>
      </trkpt>
      <trkpt lat="46.06326" lon="4.50075">
        <ele>444.6</ele>
        <time>2025-09-06T08:10:15Z</time>
      </trkpt>
      <trkpt lat="46.06326" lon="4.50075">
        <ele>444.6</ele>
        <time>2025-09-06T08:10:16Z</time>
      </trkpt>
      <trkpt lat="46.06326" lon="4.50074">
        <ele>444.2</ele>
        <time>2025-09-06T08:10:17Z</time>
      </trkpt>
      <trkpt lat="46.06325" lon="4.50073">
        <ele>444.2</ele>
        <time>2025-09-06T08:10:18Z</time>
      </trkpt>
      <trkpt lat="46.06325" lon="4.50073">
        <ele>444.2</ele>
        <time>2025-09-06T08:10:19Z</time>
      </trkpt>
      <trkpt lat="46.06325" lon="4.50074">
        <ele>444.2</ele>
        <time>2025-09-06T08:10:20Z</time>
      </trkpt>
      <trkpt lat="46.06326" lon="4.50078">
        <ele>445.8</ele>
        <time>2025-09-06T08:12:27Z</time>
      </trkpt>
      <trkpt lat="46.06326" lon="4.50078">
        <ele>445.8</ele>
        <time>2025-09-06T08:12:28Z</time>
      </trkpt>
      <trkpt lat="46.06326" lon="4.50078">
        <ele>445.8</ele>
        <time>2025-09-06T08:12:29Z</time>
      </trkpt>
      <trkpt lat="46.06329" lon="4.5008">
        <ele>445.8</ele>
        <time>2025-09-06T08:12:36Z</time>
      </trkpt>
      <trkpt lat="46.0633" lon="4.50081">
        <ele>445.8</ele>
        <time>2025-09-06T08:12:37Z</time>
      </trkpt>
      <trkpt lat="46.06331" lon="4.50083">
        <ele>445.8</ele>
        <time>2025-09-06T08:12:38Z</time>
      </trkpt>
      <trkpt lat="46.06332" lon="4.50084">
        <ele>446</ele>
        <time>2025-09-06T08:12:39Z</time>
      </trkpt>
      <trkpt lat="46.06333" lon="4.50086">
        <ele>446</ele>
        <time>2025-09-06T08:12:40Z</time>
      </trkpt>
      <trkpt lat="46.06334" lon="4.50088">
        <ele>446</ele>
        <time>2025-09-06T08:12:41Z</time>
      </trkpt>
      <trkpt lat="46.06335" lon="4.5009">
        <ele>446</ele>
        <time>2025-09-06T08:12:42Z</time>
      </trkpt>
      <trkpt lat="46.06337" lon="4.50092">
        <ele>446</ele>
        <time>2025-09-06T08:12:43Z</time>
      </trkpt>
      <trkpt lat="46.06338" lon="4.50094">
        <ele>446.4</ele>
        <time>2025-09-06T08:12:44Z</time>
      </trkpt>
      <trkpt lat="46.06339" lon="4.50096">
        <ele>446.4</ele>
        <time>2025-09-06T08:12:45Z</time>
      </trkpt>
      <trkpt lat="46.0634" lon="4.50099">
        <ele>446.8</ele>
        <time>2025-09-06T08:12:46Z</time>
      </trkpt>
      <trkpt lat="46.06342" lon="4.50101">
        <ele>447.2</ele>
        <time>2025-09-06T08:12:47Z</time>
      </trkpt>
      <trkpt lat="46.06344" lon="4.50103">
        <ele>447.2</ele>
        <time>2025-09-06T08:12:48Z</time>
      </trkpt>
      <trkpt lat="46.06345" lon="4.50105">
        <ele>447.4</ele>
        <time>2025-09-06T08:12:49Z</time>
      </trkpt>
      <trkpt lat="46.06346" lon="4.50108">
        <ele>447.4</ele>
        <time>2025-09-06T08:12:50Z</time>
      </trkpt>
      <trkpt lat="46.06348" lon="4.5011">
        <ele>447.8</ele>
        <time>2025-09-06T08:12:51Z</time>
      </trkpt>
      <trkpt lat="46.06349" lon="4.50111">
        <ele>447.8</ele>
        <time>2025-09-06T08:12:52Z</time>
      </trkpt>
      <trkpt lat="46.0635" lon="4.50113">
        <ele>447.8</ele>
        <time>2025-09-06T08:12:53Z</time>
      </trkpt>
      <trkpt lat="46.06352" lon="4.50115">
        <ele>447.8</ele>
        <time>2025-09-06T08:12:54Z</time>
      </trkpt>
      <trkpt lat="46.06353" lon="4.50117">
        <ele>448.2</ele>
        <time>2025-09-06T08:12:55Z</time>
      </trkpt>
      <trkpt lat="46.06355" lon="4.50119">
        <ele>448.2</ele>
        <time>2025-09-06T08:12:56Z</time>
      </trkpt>
      <trkpt lat="46.06356" lon="4.50121">
        <ele>448.4</ele>
        <time>2025-09-06T08:12:57Z</time>
      </trkpt>
      <trkpt lat="46.06357" lon="4.50123">
        <ele>448.4</ele>
        <time>2025-09-06T08:12:58Z</time>
      </trkpt>
      <trkpt lat="46.06358" lon="4.50126">
        <ele>448.6</ele>
        <time>2025-09-06T08:12:59Z</time>
      </trkpt>
      <trkpt lat="46.06359" lon="4.50128">
        <ele>448.8</ele>
        <time>2025-09-06T08:13:00Z</time>
      </trkpt>
      <trkpt lat="46.0636" lon="4.5013">
        <ele>448.8</ele>
        <time>2025-09-06T08:13:01Z</time>
      </trkpt>
      <trkpt lat="46.06361" lon="4.50132">
        <ele>449.2</ele>
        <time>2025-09-06T08:13:02Z</time>
      </trkpt>
      <trkpt lat="46.06363" lon="4.50134">
        <ele>449.4</ele>
        <time>2025-09-06T08:13:03Z</time>
      </trkpt>
      <trkpt lat="46.06364" lon="4.50136">
        <ele>449.4</ele>
        <time>2025-09-06T08:13:04Z</time>
      </trkpt>
      <trkpt lat="46.06365" lon="4.50138">
        <ele>449.6</ele>
        <time>2025-09-06T08:13:05Z</time>
      </trkpt>
      <trkpt lat="46.06366" lon="4.5014">
        <ele>449.6</ele>
        <time>2025-09-06T08:13:06Z</time>
      </trkpt>
      <trkpt lat="46.06367" lon="4.50141">
        <ele>449.6</ele>
        <time>2025-09-06T08:13:07Z</time>
      </trkpt>
      <trkpt lat="46.06369" lon="4.50143">
        <ele>449.6</ele>
        <time>2025-09-06T08:13:08Z</time>
      </trkpt>
      <trkpt lat="46.0637" lon="4.50144">
        <ele>449.8</ele>
        <time>2025-09-06T08:13:09Z</time>
      </trkpt>
      <trkpt lat="46.06371" lon="4.50146">
        <ele>449.8</ele>
        <time>2025-09-06T08:13:10Z</time>
      </trkpt>
      <trkpt lat="46.06372" lon="4.50149">
        <ele>450.2</ele>
        <time>2025-09-06T08:13:11Z</time>
      </trkpt>
      <trkpt lat="46.06373" lon="4.5015">
        <ele>450.4</ele>
        <time>2025-09-06T08:13:12Z</time>
      </trkpt>
      <trkpt lat="46.06374" lon="4.50152">
        <ele>450.6</ele>
        <time>2025-09-06T08:13:13Z</time>
      </trkpt>
      <trkpt lat="46.06375" lon="4.50154">
        <ele>450.6</ele>
        <time>2025-09-06T08:13:14Z</time>
      </trkpt>
      <trkpt lat="46.06376" lon="4.50156">
        <ele>450.6</ele>
        <time>2025-09-06T08:13:15Z</time>
      </trkpt>
      <trkpt lat="46.06377" lon="4.50157">
        <ele>450.8</ele>
        <time>2025-09-06T08:13:16Z</time>
      </trkpt>
      <trkpt lat="46.06379" lon="4.50159">
        <ele>450.8</ele>
        <time>2025-09-06T08:13:17Z</time>
      </trkpt>
      <trkpt lat="46.0638" lon="4.50161">
        <ele>451</ele>
        <time>2025-09-06T08:13:18Z</time>
      </trkpt>
      <trkpt lat="46.06381" lon="4.50162">
        <ele>451</ele>
        <time>2025-09-06T08:13:19Z</time>
      </trkpt>
      <trkpt lat="46.06382" lon="4.50164">
        <ele>451.6</ele>
        <time>2025-09-06T08:13:20Z</time>
      </trkpt>
      <trkpt lat="46.06384" lon="4.50165">
        <ele>451.6</ele>
        <time>2025-09-06T08:13:21Z</time>
      </trkpt>
      <trkpt lat="46.06385" lon="4.50167">
        <ele>451.6</ele>
        <time>2025-09-06T08:13:22Z</time>
      </trkpt>
      <trkpt lat="46.06386" lon="4.50168">
        <ele>451.8</ele>
        <time>2025-09-06T08:13:23Z</time>
      </trkpt>
      <trkpt lat="46.06388" lon="4.50169">
        <ele>451.8</ele>
        <time>2025-09-06T08:13:24Z</time>
      </trkpt>
      <trkpt lat="46.06389" lon="4.50172">
        <ele>451.8</ele>
        <time>2025-09-06T08:13:25Z</time>
      </trkpt>
      <trkpt lat="46.06389" lon="4.50172">
        <ele>452</ele>
        <time>2025-09-06T08:13:26Z</time>
      </trkpt>
      <trkpt lat="46.0639" lon="4.50174">
        <ele>452.2</ele>
        <time>2025-09-06T08:13:27Z</time>
      </trkpt>
      <trkpt lat="46.06391" lon="4.50176">
        <ele>452.2</ele>
        <time>2025-09-06T08:13:28Z</time>
      </trkpt>
      <trkpt lat="46.06392" lon="4.50178">
        <ele>452.6</ele>
        <time>2025-09-06T08:13:29Z</time>
      </trkpt>
      <trkpt lat="46.06393" lon="4.50181">
        <ele>452.6</ele>
        <time>2025-09-06T08:13:30Z</time>
      </trkpt>
      <trkpt lat="46.06394" lon="4.50183">
        <ele>452.6</ele>
        <time>2025-09-06T08:13:31Z</time>
      </trkpt>
      <trkpt lat="46.06395" lon="4.50185">
        <ele>452.6</ele>
        <time>2025-09-06T08:13:32Z</time>
      </trkpt>
      <trkpt lat="46.06396" lon="4.50187">
        <ele>453</ele>
        <time>2025-09-06T08:13:33Z</time>
      </trkpt>
      <trkpt lat="46.06397" lon="4.50189">
        <ele>453</ele>
        <time>2025-09-06T08:13:34Z</time>
      </trkpt>
      <trkpt lat="46.06397" lon="4.50191">
        <ele>453.2</ele>
        <time>2025-09-06T08:13:35Z</time>
      </trkpt>
      <trkpt lat="46.06398" lon="4.50194">
        <ele>453.4</ele>
        <time>2025-09-06T08:13:36Z</time>
      </trkpt>
      <trkpt lat="46.06398" lon="4.50196">
        <ele>453.4</ele>
        <time>2025-09-06T08:13:37Z</time>
      </trkpt>
      <trkpt lat="46.06399" lon="4.50199">
        <ele>453.4</ele>
        <time>2025-09-06T08:13:38Z</time>
      </trkpt>
      <trkpt lat="46.06399" lon="4.50201">
        <ele>453.6</ele>
        <time>2025-09-06T08:13:39Z</time>
      </trkpt>
      <trkpt lat="46.06399" lon="4.50204">
        <ele>453.6</ele>
        <time>2025-09-06T08:13:40Z</time>
      </trkpt>
      <trkpt lat="46.06399" lon="4.50207">
        <ele>453.6</ele>
        <time>2025-09-06T08:13:41Z</time>
      </trkpt>
      <trkpt lat="46.06399" lon="4.50207">
        <ele>454</ele>
        <time>2025-09-06T08:13:42Z</time>
      </trkpt>
      <trkpt lat="46.06399" lon="4.50207">
        <ele>454</ele>
        <time>2025-09-06T08:13:43Z</time>
      </trkpt>
      <trkpt lat="46.06396" lon="4.50218">
        <ele>454.2</ele>
        <time>2025-09-06T08:13:44Z</time>
      </trkpt>
      <trkpt lat="46.06395" lon="4.50219">
        <ele>454.2</ele>
        <time>2025-09-06T08:13:45Z</time>
      </trkpt>
      <trkpt lat="46.06394" lon="4.50221">
        <ele>454.6</ele>
        <time>2025-09-06T08:13:46Z</time>
      </trkpt>
      <trkpt lat="46.06393" lon="4.50223">
        <ele>454.8</ele>
        <time>2025-09-06T08:13:47Z</time>
      </trkpt>
      <trkpt lat="46.06391" lon="4.50224">
        <ele>454.8</ele>
        <time>2025-09-06T08:13:48Z</time>
      </trkpt>
      <trkpt lat="46.06389" lon="4.50225">
        <ele>455</ele>
        <time>2025-09-06T08:13:49Z</time>
      </trkpt>
      <trkpt lat="46.06388" lon="4.50226">
        <ele>455</ele>
        <time>2025-09-06T08:13:50Z</time>
      </trkpt>
      <trkpt lat="46.06386" lon="4.50226">
        <ele>455.6</ele>
        <time>2025-09-06T08:13:51Z</time>
      </trkpt>
      <trkpt lat="46.06384" lon="4.50226">
        <ele>455.8</ele>
        <time>2025-09-06T08:13:52Z</time>
      </trkpt>
      <trkpt lat="46.06381" lon="4.50226">
        <ele>455.8</ele>
        <time>2025-09-06T08:13:53Z</time>
      </trkpt>
      <trkpt lat="46.0638" lon="4.50226">
        <ele>456</ele>
        <time>2025-09-06T08:13:54Z</time>
      </trkpt>
      <trkpt lat="46.06378" lon="4.50225">
        <ele>456</ele>
        <time>2025-09-06T08:13:55Z</time>
      </trkpt>
      <trkpt lat="46.06375" lon="4.50225">
        <ele>456.4</ele>
        <time>2025-09-06T08:13:56Z</time>
      </trkpt>
      <trkpt lat="46.06373" lon="4.50224">
        <ele>456.6</ele>
        <time>2025-09-06T08:13:57Z</time>
      </trkpt>
      <trkpt lat="46.06372" lon="4.50224">
        <ele>456.6</ele>
        <time>2025-09-06T08:13:58Z</time>
      </trkpt>
      <trkpt lat="46.0637" lon="4.50224">
        <ele>457</ele>
        <time>2025-09-06T08:13:59Z</time>
      </trkpt>
      <trkpt lat="46.06369" lon="4.50224">
        <ele>457</ele>
        <time>2025-09-06T08:14:00Z</time>
      </trkpt>
      <trkpt lat="46.06367" lon="4.50224">
        <ele>457.4</ele>
        <time>2025-09-06T08:14:01Z</time>
      </trkpt>
      <trkpt lat="46.06365" lon="4.50223">
        <ele>457.4</ele>
        <time>2025-09-06T08:14:02Z</time>
      </trkpt>
      <trkpt lat="46.06364" lon="4.50223">
        <ele>457.4</ele>
        <time>2025-09-06T08:14:03Z</time>
      </trkpt>
      <trkpt lat="46.06362" lon="4.50222">
        <ele>457.6</ele>
        <time>2025-09-06T08:14:04Z</time>
      </trkpt>
      <trkpt lat="46.06361" lon="4.50222">
        <ele>457.8</ele>
        <time>2025-09-06T08:14:05Z</time>
      </trkpt>
      <trkpt lat="46.06359" lon="4.50222">
        <ele>457.8</ele>
        <time>2025-09-06T08:14:06Z</time>
      </trkpt>
      <trkpt lat="46.06357" lon="4.50222">
        <ele>457.8</ele>
        <time>2025-09-06T08:14:07Z</time>
      </trkpt>
      <trkpt lat="46.06356" lon="4.50222">
        <ele>457.8</ele>
        <time>2025-09-06T08:14:08Z</time>
      </trkpt>
      <trkpt lat="46.06354" lon="4.50221">
        <ele>458</ele>
        <time>2025-09-06T08:14:09Z</time>
      </trkpt>
      <trkpt lat="46.06352" lon="4.5022">
        <ele>458</ele>
        <time>2025-09-06T08:14:10Z</time>
      </trkpt>
      <trkpt lat="46.06351" lon="4.50219">
        <ele>458</ele>
        <time>2025-09-06T08:14:11Z</time>
      </trkpt>
      <trkpt lat="46.06349" lon="4.50219">
        <ele>458.4</ele>
        <time>2025-09-06T08:14:12Z</time>
      </trkpt>
      <trkpt lat="46.06347" lon="4.50218">
        <ele>458.6</ele>
        <time>2025-09-06T08:14:13Z</time>
      </trkpt>
      <trkpt lat="46.06345" lon="4.50218">
        <ele>458.6</ele>
        <time>2025-09-06T08:14:14Z</time>
      </trkpt>
      <trkpt lat="46.06344" lon="4.50218">
        <ele>458.6</ele>
        <time>2025-09-06T08:14:15Z</time>
      </trkpt>
      <trkpt lat="46.06342" lon="4.50217">
        <ele>458.6</ele>
        <time>2025-09-06T08:14:16Z</time>
      </trkpt>
      <trkpt lat="46.0634" lon="4.50216">
        <ele>458.6</ele>
        <time>2025-09-06T08:14:17Z</time>
      </trkpt>
      <trkpt lat="46.06338" lon="4.50215">
        <ele>458.6</ele>
        <time>2025-09-06T08:14:18Z</time>
      </trkpt>
      <trkpt lat="46.06337" lon="4.50215">
        <ele>459</ele>
        <time>2025-09-06T08:14:19Z</time>
      </trkpt>
      <trkpt lat="46.06335" lon="4.50214">
        <ele>459</ele>
        <time>2025-09-06T08:14:20Z</time>
      </trkpt>
      <trkpt lat="46.06334" lon="4.50214">
        <ele>459.2</ele>
        <time>2025-09-06T08:14:21Z</time>
      </trkpt>
      <trkpt lat="46.06332" lon="4.50213">
        <ele>459.2</ele>
        <time>2025-09-06T08:14:22Z</time>
      </trkpt>
      <trkpt lat="46.06331" lon="4.50212">
        <ele>459.2</ele>
        <time>2025-09-06T08:14:23Z</time>
      </trkpt>
      <trkpt lat="46.06329" lon="4.50211">
        <ele>459.6</ele>
        <time>2025-09-06T08:14:24Z</time>
      </trkpt>
      <trkpt lat="46.06328" lon="4.5021">
        <ele>459.8</ele>
        <time>2025-09-06T08:14:25Z</time>
      </trkpt>
      <trkpt lat="46.06326" lon="4.50209">
        <ele>460.4</ele>
        <time>2025-09-06T08:14:26Z</time>
      </trkpt>
      <trkpt lat="46.06324" lon="4.50208">
        <ele>460.4</ele>
        <time>2025-09-06T08:14:27Z</time>
      </trkpt>
      <trkpt lat="46.06323" lon="4.50207">
        <ele>460.4</ele>
        <time>2025-09-06T08:14:28Z</time>
      </trkpt>
      <trkpt lat="46.06322" lon="4.50206">
        <ele>460.4</ele>
        <time>2025-09-06T08:14:29Z</time>
      </trkpt>
      <trkpt lat="46.0632" lon="4.50205">
        <ele>460.4</ele>
        <time>2025-09-06T08:14:30Z</time>
      </trkpt>
      <trkpt lat="46.06318" lon="4.50203">
        <ele>460.6</ele>
        <time>2025-09-06T08:14:31Z</time>
      </trkpt>
      <trkpt lat="46.06316" lon="4.50202">
        <ele>460.6</ele>
        <time>2025-09-06T08:14:32Z</time>
      </trkpt>
      <trkpt lat="46.06314" lon="4.50201">
        <ele>460.8</ele>
        <time>2025-09-06T08:14:33Z</time>
      </trkpt>
      <trkpt lat="46.06312" lon="4.502">
        <ele>460.8</ele>
        <time>2025-09-06T08:14:34Z</time>
      </trkpt>
      <trkpt lat="46.0631" lon="4.50199">
        <ele>460.8</ele>
        <time>2025-09-06T08:14:35Z</time>
      </trkpt>
      <trkpt lat="46.06309" lon="4.50198">
        <ele>461.2</ele>
        <time>2025-09-06T08:14:36Z</time>
      </trkpt>
      <trkpt lat="46.06307" lon="4.50197">
        <ele>461.4</ele>
        <time>2025-09-06T08:14:37Z</time>
      </trkpt>
      <trkpt lat="46.06305" lon="4.50196">
        <ele>461.4</ele>
        <time>2025-09-06T08:14:38Z</time>
      </trkpt>
      <trkpt lat="46.06303" lon="4.50196">
        <ele>461.4</ele>
        <time>2025-09-06T08:14:39Z</time>
      </trkpt>
      <trkpt lat="46.06302" lon="4.50195">
        <ele>461.8</ele>
        <time>2025-09-06T08:14:40Z</time>
      </trkpt>
      <trkpt lat="46.06301" lon="4.50195">
        <ele>461.8</ele>
        <time>2025-09-06T08:14:41Z</time>
      </trkpt>
      <trkpt lat="46.06299" lon="4.50194">
        <ele>462</ele>
        <time>2025-09-06T08:14:42Z</time>
      </trkpt>
      <trkpt lat="46.06297" lon="4.50193">
        <ele>462.4</ele>
        <time>2025-09-06T08:14:43Z</time>
      </trkpt>
      <trkpt lat="46.06296" lon="4.50193">
        <ele>462.4</ele>
        <time>2025-09-06T08:14:44Z</time>
      </trkpt>
      <trkpt lat="46.06294" lon="4.50193">
        <ele>462.6</ele>
        <time>2025-09-06T08:14:45Z</time>
      </trkpt>
      <trkpt lat="46.06292" lon="4.50193">
        <ele>462.6</ele>
        <time>2025-09-06T08:14:46Z</time>
      </trkpt>
      <trkpt lat="46.06291" lon="4.50192">
        <ele>462.8</ele>
        <time>2025-09-06T08:14:47Z</time>
      </trkpt>
      <trkpt lat="46.06289" lon="4.50193">
        <ele>462.8</ele>
        <time>2025-09-06T08:14:48Z</time>
      </trkpt>
      <trkpt lat="46.06288" lon="4.50195">
        <ele>462.8</ele>
        <time>2025-09-06T08:14:49Z</time>
      </trkpt>
      <trkpt lat="46.06286" lon="4.50196">
        <ele>463</ele>
        <time>2025-09-06T08:14:50Z</time>
      </trkpt>
      <trkpt lat="46.06284" lon="4.50197">
        <ele>463</ele>
        <time>2025-09-06T08:14:51Z</time>
      </trkpt>
      <trkpt lat="46.06283" lon="4.50198">
        <ele>463.2</ele>
        <time>2025-09-06T08:14:52Z</time>
      </trkpt>
      <trkpt lat="46.06281" lon="4.502">
        <ele>463.2</ele>
        <time>2025-09-06T08:14:53Z</time>
      </trkpt>
      <trkpt lat="46.0628" lon="4.50201">
        <ele>463.6</ele>
        <time>2025-09-06T08:14:54Z</time>
      </trkpt>
      <trkpt lat="46.06279" lon="4.50203">
        <ele>463.6</ele>
        <time>2025-09-06T08:14:55Z</time>
      </trkpt>
      <trkpt lat="46.06277" lon="4.50204">
        <ele>463.6</ele>
        <time>2025-09-06T08:14:56Z</time>
      </trkpt>
      <trkpt lat="46.06276" lon="4.50206">
        <ele>463.8</ele>
        <time>2025-09-06T08:14:57Z</time>
      </trkpt>
      <trkpt lat="46.06274" lon="4.50207">
        <ele>463.8</ele>
        <time>2025-09-06T08:14:58Z</time>
      </trkpt>
      <trkpt lat="46.06273" lon="4.50209">
        <ele>464.2</ele>
        <time>2025-09-06T08:14:59Z</time>
      </trkpt>
      <trkpt lat="46.06272" lon="4.5021">
        <ele>464.2</ele>
        <time>2025-09-06T08:15:00Z</time>
      </trkpt>
      <trkpt lat="46.0627" lon="4.50212">
        <ele>464.4</ele>
        <time>2025-09-06T08:15:01Z</time>
      </trkpt>
      <trkpt lat="46.06269" lon="4.50213">
        <ele>464.6</ele>
        <time>2025-09-06T08:15:02Z</time>
      </trkpt>
      <trkpt lat="46.06267" lon="4.50215">
        <ele>464.6</ele>
        <time>2025-09-06T08:15:03Z</time>
      </trkpt>
      <trkpt lat="46.06266" lon="4.50217">
        <ele>464.6</ele>
        <time>2025-09-06T08:15:04Z</time>
      </trkpt>
      <trkpt lat="46.06265" lon="4.50218">
        <ele>464.6</ele>
        <time>2025-09-06T08:15:05Z</time>
      </trkpt>
      <trkpt lat="46.06263" lon="4.5022">
        <ele>465</ele>
        <time>2025-09-06T08:15:06Z</time>
      </trkpt>
      <trkpt lat="46.06262" lon="4.50222">
        <ele>465</ele>
        <time>2025-09-06T08:15:07Z</time>
      </trkpt>
      <trkpt lat="46.06261" lon="4.50224">
        <ele>465.2</ele>
        <time>2025-09-06T08:15:08Z</time>
      </trkpt>
      <trkpt lat="46.0626" lon="4.50225">
        <ele>465.2</ele>
        <time>2025-09-06T08:15:09Z</time>
      </trkpt>
      <trkpt lat="46.06259" lon="4.50227">
        <ele>465.2</ele>
        <time>2025-09-06T08:15:10Z</time>
      </trkpt>
      <trkpt lat="46.06258" lon="4.50229">
        <ele>465.4</ele>
        <time>2025-09-06T08:15:11Z</time>
      </trkpt>
      <trkpt lat="46.06257" lon="4.50231">
        <ele>465.4</ele>
        <time>2025-09-06T08:15:12Z</time>
      </trkpt>
      <trkpt lat="46.06255" lon="4.50232">
        <ele>465.6</ele>
        <time>2025-09-06T08:15:13Z</time>
      </trkpt>
      <trkpt lat="46.06255" lon="4.50234">
        <ele>465.6</ele>
        <time>2025-09-06T08:15:14Z</time>
      </trkpt>
      <trkpt lat="46.06254" lon="4.50236">
        <ele>465.6</ele>
        <time>2025-09-06T08:15:15Z</time>
      </trkpt>
      <trkpt lat="46.06253" lon="4.50238">
        <ele>466</ele>
        <time>2025-09-06T08:15:16Z</time>
      </trkpt>
      <trkpt lat="46.06252" lon="4.5024">
        <ele>466</ele>
        <time>2025-09-06T08:15:17Z</time>
      </trkpt>
      <trkpt lat="46.06252" lon="4.50242">
        <ele>466.2</ele>
        <time>2025-09-06T08:15:18Z</time>
      </trkpt>
      <trkpt lat="46.06251" lon="4.50245">
        <ele>466.2</ele>
        <time>2025-09-06T08:15:19Z</time>
      </trkpt>
      <trkpt lat="46.0625" lon="4.50247">
        <ele>466.4</ele>
        <time>2025-09-06T08:15:20Z</time>
      </trkpt>
      <trkpt lat="46.06249" lon="4.50249">
        <ele>466.6</ele>
        <time>2025-09-06T08:15:21Z</time>
      </trkpt>
      <trkpt lat="46.06249" lon="4.50252">
        <ele>466.6</ele>
        <time>2025-09-06T08:15:22Z</time>
      </trkpt>
      <trkpt lat="46.06248" lon="4.50254">
        <ele>466.6</ele>
        <time>2025-09-06T08:15:23Z</time>
      </trkpt>
      <trkpt lat="46.06248" lon="4.50256">
        <ele>466.8</ele>
        <time>2025-09-06T08:15:24Z</time>
      </trkpt>
      <trkpt lat="46.06247" lon="4.50258">
        <ele>466.8</ele>
        <time>2025-09-06T08:15:25Z</time>
      </trkpt>
      <trkpt lat="46.06246" lon="4.50261">
        <ele>467.2</ele>
        <time>2025-09-06T08:15:26Z</time>
      </trkpt>
      <trkpt lat="46.06246" lon="4.50263">
        <ele>467.2</ele>
        <time>2025-09-06T08:15:27Z</time>
      </trkpt>
      <trkpt lat="46.06245" lon="4.50266">
        <ele>467.2</ele>
        <time>2025-09-06T08:15:28Z</time>
      </trkpt>
      <trkpt lat="46.06245" lon="4.5027">
        <ele>467.2</ele>
        <time>2025-09-06T08:15:29Z</time>
      </trkpt>
      <trkpt lat="46.06246" lon="4.50273">
        <ele>467.8</ele>
        <time>2025-09-06T08:15:30Z</time>
      </trkpt>
      <trkpt lat="46.06246" lon="4.50276">
        <ele>467.8</ele>
        <time>2025-09-06T08:15:31Z</time>
      </trkpt>
      <trkpt lat="46.06245" lon="4.50279">
        <ele>467.8</ele>
        <time>2025-09-06T08:15:32Z</time>
      </trkpt>
      <trkpt lat="46.06244" lon="4.50281">
        <ele>468</ele>
        <time>2025-09-06T08:15:33Z</time>
      </trkpt>
      <trkpt lat="46.06243" lon="4.50284">
        <ele>468</ele>
        <time>2025-09-06T08:15:34Z</time>
      </trkpt>
      <trkpt lat="46.06242" lon="4.50286">
        <ele>468</ele>
        <time>2025-09-06T08:15:35Z</time>
      </trkpt>
      <trkpt lat="46.06241" lon="4.50289">
        <ele>468</ele>
        <time>2025-09-06T08:15:36Z</time>
      </trkpt>
      <trkpt lat="46.06241" lon="4.50291">
        <ele>468.2</ele>
        <time>2025-09-06T08:15:37Z</time>
      </trkpt>
      <trkpt lat="46.0624" lon="4.50293">
        <ele>468.2</ele>
        <time>2025-09-06T08:15:38Z</time>
      </trkpt>
      <trkpt lat="46.06239" lon="4.50295">
        <ele>468.6</ele>
        <time>2025-09-06T08:15:39Z</time>
      </trkpt>
      <trkpt lat="46.06238" lon="4.50298">
        <ele>468.6</ele>
        <time>2025-09-06T08:15:40Z</time>
      </trkpt>
      <trkpt lat="46.06238" lon="4.503">
        <ele>468.8</ele>
        <time>2025-09-06T08:15:41Z</time>
      </trkpt>
      <trkpt lat="46.06237" lon="4.50303">
        <ele>468.8</ele>
        <time>2025-09-06T08:15:42Z</time>
      </trkpt>
      <trkpt lat="46.06236" lon="4.50305">
        <ele>469</ele>
        <time>2025-09-06T08:15:43Z</time>
      </trkpt>
      <trkpt lat="46.06236" lon="4.50307">
        <ele>469</ele>
        <time>2025-09-06T08:15:44Z</time>
      </trkpt>
      <trkpt lat="46.06236" lon="4.50309">
        <ele>469.2</ele>
        <time>2025-09-06T08:15:45Z</time>
      </trkpt>
      <trkpt lat="46.06235" lon="4.50312">
        <ele>469.2</ele>
        <time>2025-09-06T08:15:46Z</time>
      </trkpt>
      <trkpt lat="46.06235" lon="4.50315">
        <ele>469.6</ele>
        <time>2025-09-06T08:15:47Z</time>
      </trkpt>
      <trkpt lat="46.06234" lon="4.50317">
        <ele>469.6</ele>
        <time>2025-09-06T08:15:48Z</time>
      </trkpt>
      <trkpt lat="46.06234" lon="4.50319">
        <ele>469.6</ele>
        <time>2025-09-06T08:15:49Z</time>
      </trkpt>
      <trkpt lat="46.06233" lon="4.50321">
        <ele>469.6</ele>
        <time>2025-09-06T08:15:50Z</time>
      </trkpt>
      <trkpt lat="46.06233" lon="4.50321">
        <ele>469.8</ele>
        <time>2025-09-06T08:15:51Z</time>
      </trkpt>
      <trkpt lat="46.06232" lon="4.50323">
        <ele>470</ele>
        <time>2025-09-06T08:15:52Z</time>
      </trkpt>
      <trkpt lat="46.06231" lon="4.50326">
        <ele>470</ele>
        <time>2025-09-06T08:15:53Z</time>
      </trkpt>
      <trkpt lat="46.06231" lon="4.50328">
        <ele>470</ele>
        <time>2025-09-06T08:15:54Z</time>
      </trkpt>
      <trkpt lat="46.0623" lon="4.50331">
        <ele>470.4</ele>
        <time>2025-09-06T08:15:55Z</time>
      </trkpt>
      <trkpt lat="46.0623" lon="4.50333">
        <ele>470.4</ele>
        <time>2025-09-06T08:15:56Z</time>
      </trkpt>
      <trkpt lat="46.06229" lon="4.50335">
        <ele>470.4</ele>
        <time>2025-09-06T08:15:57Z</time>
      </trkpt>
      <trkpt lat="46.06229" lon="4.50337">
        <ele>470.6</ele>
        <time>2025-09-06T08:15:58Z</time>
      </trkpt>
      <trkpt lat="46.06229" lon="4.50339">
        <ele>470.6</ele>
        <time>2025-09-06T08:15:59Z</time>
      </trkpt>
      <trkpt lat="46.06228" lon="4.50342">
        <ele>471</ele>
        <time>2025-09-06T08:16:00Z</time>
      </trkpt>
      <trkpt lat="46.06228" lon="4.50344">
        <ele>471</ele>
        <time>2025-09-06T08:16:01Z</time>
      </trkpt>
      <trkpt lat="46.06227" lon="4.50346">
        <ele>471.2</ele>
        <time>2025-09-06T08:16:02Z</time>
      </trkpt>
      <trkpt lat="46.06227" lon="4.50347">
        <ele>471.2</ele>
        <time>2025-09-06T08:16:03Z</time>
      </trkpt>
      <trkpt lat="46.06228" lon="4.50346">
        <ele>471.2</ele>
        <time>2025-09-06T08:16:04Z</time>
      </trkpt>
      <trkpt lat="46.06224" lon="4.5035">
        <ele>471.2</ele>
        <time>2025-09-06T08:16:09Z</time>
      </trkpt>
      <trkpt lat="46.06224" lon="4.5035">
        <ele>471.2</ele>
        <time>2025-09-06T08:16:10Z</time>
      </trkpt>
      <trkpt lat="46.06224" lon="4.50351">
        <ele>471.2</ele>
        <time>2025-09-06T08:16:11Z</time>
      </trkpt>
      <trkpt lat="46.06224" lon="4.50352">
        <ele>471.2</ele>
        <time>2025-09-06T08:16:12Z</time>
      </trkpt>
      <trkpt lat="46.06223" lon="4.50353">
        <ele>471.6</ele>
        <time>2025-09-06T08:16:13Z</time>
      </trkpt>
      <trkpt lat="46.06223" lon="4.50354">
        <ele>471.6</ele>
        <time>2025-09-06T08:16:14Z</time>
      </trkpt>
      <trkpt lat="46.06223" lon="4.50354">
        <ele>471.6</ele>
        <time>2025-09-06T08:16:15Z</time>
      </trkpt>
      <trkpt lat="46.06223" lon="4.50353">
        <ele>471.6</ele>
        <time>2025-09-06T08:16:16Z</time>
      </trkpt>
      <trkpt lat="46.06222" lon="4.50356">
        <ele>471.6</ele>
        <time>2025-09-06T08:16:21Z</time>
      </trkpt>
      <trkpt lat="46.06221" lon="4.50359">
        <ele>471.6</ele>
        <time>2025-09-06T08:16:22Z</time>
      </trkpt>
      <trkpt lat="46.0622" lon="4.50362">
        <ele>471.6</ele>
        <time>2025-09-06T08:16:23Z</time>
      </trkpt>
      <trkpt lat="46.06219" lon="4.50365">
        <ele>471.6</ele>
        <time>2025-09-06T08:16:24Z</time>
      </trkpt>
      <trkpt lat="46.06218" lon="4.50368">
        <ele>471.8</ele>
        <time>2025-09-06T08:16:25Z</time>
      </trkpt>
      <trkpt lat="46.06218" lon="4.5037">
        <ele>472</ele>
        <time>2025-09-06T08:16:26Z</time>
      </trkpt>
      <trkpt lat="46.06218" lon="4.50373">
        <ele>472.2</ele>
        <time>2025-09-06T08:16:27Z</time>
      </trkpt>
      <trkpt lat="46.06217" lon="4.50376">
        <ele>472.2</ele>
        <time>2025-09-06T08:16:28Z</time>
      </trkpt>
      <trkpt lat="46.06217" lon="4.50379">
        <ele>472.2</ele>
        <time>2025-09-06T08:16:29Z</time>
      </trkpt>
      <trkpt lat="46.06217" lon="4.50381">
        <ele>472.2</ele>
        <time>2025-09-06T08:16:30Z</time>
      </trkpt>
      <trkpt lat="46.06216" lon="4.50385">
        <ele>472.2</ele>
        <time>2025-09-06T08:16:31Z</time>
      </trkpt>
      <trkpt lat="46.06216" lon="4.50387">
        <ele>472.6</ele>
        <time>2025-09-06T08:16:32Z</time>
      </trkpt>
      <trkpt lat="46.06216" lon="4.5039">
        <ele>472.8</ele>
        <time>2025-09-06T08:16:33Z</time>
      </trkpt>
      <trkpt lat="46.06216" lon="4.50393">
        <ele>473</ele>
        <time>2025-09-06T08:16:34Z</time>
      </trkpt>
      <trkpt lat="46.06215" lon="4.50396">
        <ele>473</ele>
        <time>2025-09-06T08:16:35Z</time>
      </trkpt>
      <trkpt lat="46.06215" lon="4.50398">
        <ele>473</ele>
        <time>2025-09-06T08:16:36Z</time>
      </trkpt>
      <trkpt lat="46.06214" lon="4.504">
        <ele>473</ele>
        <time>2025-09-06T08:16:37Z</time>
      </trkpt>
      <trkpt lat="46.06214" lon="4.50402">
        <ele>473.6</ele>
        <time>2025-09-06T08:16:38Z</time>
      </trkpt>
      <trkpt lat="46.06213" lon="4.50405">
        <ele>473.8</ele>
        <time>2025-09-06T08:16:39Z</time>
      </trkpt>
      <trkpt lat="46.06213" lon="4.50407">
        <ele>473.8</ele>
        <time>2025-09-06T08:16:40Z</time>
      </trkpt>
      <trkpt lat="46.06213" lon="4.50409">
        <ele>474.2</ele>
        <time>2025-09-06T08:16:41Z</time>
      </trkpt>
      <trkpt lat="46.06212" lon="4.50411">
        <ele>474.2</ele>
        <time>2025-09-06T08:16:42Z</time>
      </trkpt>
      <trkpt lat="46.06212" lon="4.50412">
        <ele>474.4</ele>
        <time>2025-09-06T08:16:43Z</time>
      </trkpt>
      <trkpt lat="46.06212" lon="4.50412">
        <ele>474.4</ele>
        <time>2025-09-06T08:16:44Z</time>
      </trkpt>
      <trkpt lat="46.06212" lon="4.50412">
        <ele>474.4</ele>
        <time>2025-09-06T08:16:45Z</time>
      </trkpt>
      <trkpt lat="46.06212" lon="4.50413">
        <ele>474.4</ele>
        <time>2025-09-06T08:16:46Z</time>
      </trkpt>
      <trkpt lat="46.06212" lon="4.50413">
        <ele>474.6</ele>
        <time>2025-09-06T08:16:47Z</time>
      </trkpt>
      <trkpt lat="46.06212" lon="4.50414">
        <ele>474.6</ele>
        <time>2025-09-06T08:16:48Z</time>
      </trkpt>
      <trkpt lat="46.06212" lon="4.50414">
        <ele>474.6</ele>
        <time>2025-09-06T08:16:49Z</time>
      </trkpt>
      <trkpt lat="46.06213" lon="4.50409">
        <ele>474.8</ele>
        <time>2025-09-06T08:18:15Z</time>
      </trkpt>
      <trkpt lat="46.06214" lon="4.50411">
        <ele>474.8</ele>
        <time>2025-09-06T08:18:16Z</time>
      </trkpt>
      <trkpt lat="46.06214" lon="4.50412">
        <ele>474.8</ele>
        <time>2025-09-06T08:18:17Z</time>
      </trkpt>
      <trkpt lat="46.06214" lon="4.50412">
        <ele>474.8</ele>
        <time>2025-09-06T08:18:18Z</time>
      </trkpt>
      <trkpt lat="46.06214" lon="4.50413">
        <ele>474.6</ele>
        <time>2025-09-06T08:18:19Z</time>
      </trkpt>
      <trkpt lat="46.06213" lon="4.50418">
        <ele>474.6</ele>
        <time>2025-09-06T08:18:23Z</time>
      </trkpt>
      <trkpt lat="46.06213" lon="4.5042">
        <ele>474.6</ele>
        <time>2025-09-06T08:18:24Z</time>
      </trkpt>
      <trkpt lat="46.06212" lon="4.50421">
        <ele>474.6</ele>
        <time>2025-09-06T08:18:25Z</time>
      </trkpt>
      <trkpt lat="46.06211" lon="4.50424">
        <ele>474.8</ele>
        <time>2025-09-06T08:18:26Z</time>
      </trkpt>
      <trkpt lat="46.06211" lon="4.50427">
        <ele>474.8</ele>
        <time>2025-09-06T08:18:27Z</time>
      </trkpt>
      <trkpt lat="46.0621" lon="4.5043">
        <ele>474.8</ele>
        <time>2025-09-06T08:18:28Z</time>
      </trkpt>
      <trkpt lat="46.0621" lon="4.50433">
        <ele>475</ele>
        <time>2025-09-06T08:18:29Z</time>
      </trkpt>
      <trkpt lat="46.0621" lon="4.50435">
        <ele>475</ele>
        <time>2025-09-06T08:18:30Z</time>
      </trkpt>
      <trkpt lat="46.0621" lon="4.50438">
        <ele>475.4</ele>
        <time>2025-09-06T08:18:31Z</time>
      </trkpt>
      <trkpt lat="46.06209" lon="4.50441">
        <ele>475.6</ele>
        <time>2025-09-06T08:18:32Z</time>
      </trkpt>
      <trkpt lat="46.06209" lon="4.50444">
        <ele>475.8</ele>
        <time>2025-09-06T08:18:33Z</time>
      </trkpt>
      <trkpt lat="46.06209" lon="4.50447">
        <ele>476</ele>
        <time>2025-09-06T08:18:34Z</time>
      </trkpt>
      <trkpt lat="46.06209" lon="4.5045">
        <ele>476</ele>
        <time>2025-09-06T08:18:35Z</time>
      </trkpt>
      <trkpt lat="46.06208" lon="4.50452">
        <ele>476</ele>
        <time>2025-09-06T08:18:36Z</time>
      </trkpt>
      <trkpt lat="46.06208" lon="4.50455">
        <ele>476.4</ele>
        <time>2025-09-06T08:18:37Z</time>
      </trkpt>
      <trkpt lat="46.06208" lon="4.50457">
        <ele>476.4</ele>
        <time>2025-09-06T08:18:38Z</time>
      </trkpt>
      <trkpt lat="46.06207" lon="4.5046">
        <ele>476.4</ele>
        <time>2025-09-06T08:18:39Z</time>
      </trkpt>
      <trkpt lat="46.06207" lon="4.50462">
        <ele>476.6</ele>
        <time>2025-09-06T08:18:40Z</time>
      </trkpt>
      <trkpt lat="46.06207" lon="4.50465">
        <ele>476.6</ele>
        <time>2025-09-06T08:18:41Z</time>
      </trkpt>
      <trkpt lat="46.06207" lon="4.50468">
        <ele>477</ele>
        <time>2025-09-06T08:18:42Z</time>
      </trkpt>
      <trkpt lat="46.06207" lon="4.50471">
        <ele>477</ele>
        <time>2025-09-06T08:18:43Z</time>
      </trkpt>
      <trkpt lat="46.06206" lon="4.50474">
        <ele>477.2</ele>
        <time>2025-09-06T08:18:44Z</time>
      </trkpt>
      <trkpt lat="46.06206" lon="4.50476">
        <ele>477.2</ele>
        <time>2025-09-06T08:18:45Z</time>
      </trkpt>
      <trkpt lat="46.06205" lon="4.50478">
        <ele>477.2</ele>
        <time>2025-09-06T08:18:46Z</time>
      </trkpt>
      <trkpt lat="46.06205" lon="4.5048">
        <ele>477.6</ele>
        <time>2025-09-06T08:18:47Z</time>
      </trkpt>
      <trkpt lat="46.06204" lon="4.50483">
        <ele>477.8</ele>
        <time>2025-09-06T08:18:48Z</time>
      </trkpt>
      <trkpt lat="46.06204" lon="4.50486">
        <ele>477.8</ele>
        <time>2025-09-06T08:18:49Z</time>
      </trkpt>
      <trkpt lat="46.06203" lon="4.50489">
        <ele>478.2</ele>
        <time>2025-09-06T08:18:50Z</time>
      </trkpt>
      <trkpt lat="46.06203" lon="4.50492">
        <ele>478.4</ele>
        <time>2025-09-06T08:18:51Z</time>
      </trkpt>
      <trkpt lat="46.06203" lon="4.50495">
        <ele>478.8</ele>
        <time>2025-09-06T08:18:52Z</time>
      </trkpt>
      <trkpt lat="46.06203" lon="4.50498">
        <ele>478.8</ele>
        <time>2025-09-06T08:18:53Z</time>
      </trkpt>
      <trkpt lat="46.06203" lon="4.505">
        <ele>479</ele>
        <time>2025-09-06T08:18:54Z</time>
      </trkpt>
      <trkpt lat="46.06203" lon="4.50503">
        <ele>479</ele>
        <time>2025-09-06T08:18:55Z</time>
      </trkpt>
      <trkpt lat="46.06203" lon="4.50506">
        <ele>479</ele>
        <time>2025-09-06T08:18:56Z</time>
      </trkpt>
      <trkpt lat="46.06202" lon="4.50508">
        <ele>479.4</ele>
        <time>2025-09-06T08:18:57Z</time>
      </trkpt>
      <trkpt lat="46.06202" lon="4.50511">
        <ele>479.4</ele>
        <time>2025-09-06T08:18:58Z</time>
      </trkpt>
      <trkpt lat="46.06202" lon="4.50514">
        <ele>479.4</ele>
        <time>2025-09-06T08:18:59Z</time>
      </trkpt>
      <trkpt lat="46.06201" lon="4.50516">
        <ele>479.8</ele>
        <time>2025-09-06T08:19:00Z</time>
      </trkpt>
      <trkpt lat="46.06201" lon="4.50519">
        <ele>480</ele>
        <time>2025-09-06T08:19:01Z</time>
      </trkpt>
      <trkpt lat="46.06201" lon="4.50521">
        <ele>480</ele>
        <time>2025-09-06T08:19:02Z</time>
      </trkpt>
      <trkpt lat="46.06201" lon="4.50524">
        <ele>480</ele>
        <time>2025-09-06T08:19:03Z</time>
      </trkpt>
      <trkpt lat="46.06201" lon="4.50527">
        <ele>480</ele>
        <time>2025-09-06T08:19:04Z</time>
      </trkpt>
      <trkpt lat="46.06201" lon="4.5053">
        <ele>480.4</ele>
        <time>2025-09-06T08:19:05Z</time>
      </trkpt>
      <trkpt lat="46.06202" lon="4.50533">
        <ele>480.4</ele>
        <time>2025-09-06T08:19:06Z</time>
      </trkpt>
      <trkpt lat="46.06202" lon="4.50535">
        <ele>480.4</ele>
        <time>2025-09-06T08:19:07Z</time>
      </trkpt>
      <trkpt lat="46.06202" lon="4.50538">
        <ele>480.8</ele>
        <time>2025-09-06T08:19:08Z</time>
      </trkpt>
      <trkpt lat="46.06202" lon="4.5054">
        <ele>480.8</ele>
        <time>2025-09-06T08:19:09Z</time>
      </trkpt>
      <trkpt lat="46.06202" lon="4.50543">
        <ele>481</ele>
        <time>2025-09-06T08:19:10Z</time>
      </trkpt>
      <trkpt lat="46.06202" lon="4.50545">
        <ele>481</ele>
        <time>2025-09-06T08:19:11Z</time>
      </trkpt>
      <trkpt lat="46.06202" lon="4.50548">
        <ele>481</ele>
        <time>2025-09-06T08:19:12Z</time>
      </trkpt>
      <trkpt lat="46.06202" lon="4.50551">
        <ele>481.4</ele>
        <time>2025-09-06T08:19:13Z</time>
      </trkpt>
      <trkpt lat="46.06202" lon="4.50554">
        <ele>481.8</ele>
        <time>2025-09-06T08:19:14Z</time>
      </trkpt>
      <trkpt lat="46.06202" lon="4.50556">
        <ele>482</ele>
        <time>2025-09-06T08:19:15Z</time>
      </trkpt>
      <trkpt lat="46.06202" lon="4.50558">
        <ele>482</ele>
        <time>2025-09-06T08:19:16Z</time>
      </trkpt>
      <trkpt lat="46.06202" lon="4.5056">
        <ele>482.6</ele>
        <time>2025-09-06T08:19:17Z</time>
      </trkpt>
      <trkpt lat="46.06202" lon="4.50563">
        <ele>482.2</ele>
        <time>2025-09-06T08:19:18Z</time>
      </trkpt>
      <trkpt lat="46.06202" lon="4.50566">
        <ele>482.2</ele>
        <time>2025-09-06T08:19:19Z</time>
      </trkpt>
      <trkpt lat="46.06202" lon="4.50568">
        <ele>482.2</ele>
        <time>2025-09-06T08:19:20Z</time>
      </trkpt>
      <trkpt lat="46.06202" lon="4.5057">
        <ele>482.2</ele>
        <time>2025-09-06T08:19:21Z</time>
      </trkpt>
      <trkpt lat="46.06202" lon="4.50572">
        <ele>482.6</ele>
        <time>2025-09-06T08:19:22Z</time>
      </trkpt>
      <trkpt lat="46.06203" lon="4.50575">
        <ele>483</ele>
        <time>2025-09-06T08:19:23Z</time>
      </trkpt>
      <trkpt lat="46.06203" lon="4.50577">
        <ele>483</ele>
        <time>2025-09-06T08:19:24Z</time>
      </trkpt>
      <trkpt lat="46.06202" lon="4.5058">
        <ele>483.2</ele>
        <time>2025-09-06T08:19:25Z</time>
      </trkpt>
      <trkpt lat="46.06202" lon="4.50582">
        <ele>483.2</ele>
        <time>2025-09-06T08:19:26Z</time>
      </trkpt>
      <trkpt lat="46.06202" lon="4.50583">
        <ele>483.2</ele>
        <time>2025-09-06T08:19:27Z</time>
      </trkpt>
      <trkpt lat="46.06203" lon="4.50586">
        <ele>483.2</ele>
        <time>2025-09-06T08:19:28Z</time>
      </trkpt>
      <trkpt lat="46.06203" lon="4.50588">
        <ele>483.6</ele>
        <time>2025-09-06T08:19:29Z</time>
      </trkpt>
      <trkpt lat="46.06203" lon="4.5059">
        <ele>484</ele>
        <time>2025-09-06T08:19:30Z</time>
      </trkpt>
      <trkpt lat="46.06203" lon="4.50592">
        <ele>484</ele>
        <time>2025-09-06T08:19:31Z</time>
      </trkpt>
      <trkpt lat="46.06202" lon="4.50594">
        <ele>484</ele>
        <time>2025-09-06T08:19:32Z</time>
      </trkpt>
      <trkpt lat="46.06202" lon="4.50597">
        <ele>484.2</ele>
        <time>2025-09-06T08:19:33Z</time>
      </trkpt>
      <trkpt lat="46.06201" lon="4.50599">
        <ele>484.6</ele>
        <time>2025-09-06T08:19:34Z</time>
      </trkpt>
      <trkpt lat="46.06201" lon="4.506">
        <ele>484.6</ele>
        <time>2025-09-06T08:19:35Z</time>
      </trkpt>
      <trkpt lat="46.062" lon="4.50603">
        <ele>484.6</ele>
        <time>2025-09-06T08:19:36Z</time>
      </trkpt>
      <trkpt lat="46.062" lon="4.50604">
        <ele>485</ele>
        <time>2025-09-06T08:19:37Z</time>
      </trkpt>
      <trkpt lat="46.06199" lon="4.50606">
        <ele>485</ele>
        <time>2025-09-06T08:19:38Z</time>
      </trkpt>
      <trkpt lat="46.06199" lon="4.5061">
        <ele>485.4</ele>
        <time>2025-09-06T08:19:39Z</time>
      </trkpt>
      <trkpt lat="46.06198" lon="4.50613">
        <ele>485.4</ele>
        <time>2025-09-06T08:19:40Z</time>
      </trkpt>
      <trkpt lat="46.06197" lon="4.50615">
        <ele>485.6</ele>
        <time>2025-09-06T08:19:41Z</time>
      </trkpt>
      <trkpt lat="46.06197" lon="4.50618">
        <ele>485.6</ele>
        <time>2025-09-06T08:19:42Z</time>
      </trkpt>
      <trkpt lat="46.06196" lon="4.50621">
        <ele>485.6</ele>
        <time>2025-09-06T08:19:43Z</time>
      </trkpt>
      <trkpt lat="46.06195" lon="4.50624">
        <ele>485.8</ele>
        <time>2025-09-06T08:19:44Z</time>
      </trkpt>
      <trkpt lat="46.06194" lon="4.50627">
        <ele>485.8</ele>
        <time>2025-09-06T08:19:45Z</time>
      </trkpt>
      <trkpt lat="46.06194" lon="4.50629">
        <ele>485.8</ele>
        <time>2025-09-06T08:19:46Z</time>
      </trkpt>
      <trkpt lat="46.06194" lon="4.50632">
        <ele>486.2</ele>
        <time>2025-09-06T08:19:47Z</time>
      </trkpt>
      <trkpt lat="46.06193" lon="4.50634">
        <ele>486.2</ele>
        <time>2025-09-06T08:19:48Z</time>
      </trkpt>
      <trkpt lat="46.06193" lon="4.50637">
        <ele>486.2</ele>
        <time>2025-09-06T08:19:49Z</time>
      </trkpt>
      <trkpt lat="46.06192" lon="4.50639">
        <ele>486.4</ele>
        <time>2025-09-06T08:19:50Z</time>
      </trkpt>
      <trkpt lat="46.06192" lon="4.50642">
        <ele>486.6</ele>
        <time>2025-09-06T08:19:51Z</time>
      </trkpt>
      <trkpt lat="46.06191" lon="4.50644">
        <ele>486.8</ele>
        <time>2025-09-06T08:19:52Z</time>
      </trkpt>
      <trkpt lat="46.06191" lon="4.50646">
        <ele>486.8</ele>
        <time>2025-09-06T08:19:53Z</time>
      </trkpt>
      <trkpt lat="46.06191" lon="4.50648">
        <ele>487.2</ele>
        <time>2025-09-06T08:19:54Z</time>
      </trkpt>
      <trkpt lat="46.06191" lon="4.5065">
        <ele>487.2</ele>
        <time>2025-09-06T08:19:55Z</time>
      </trkpt>
      <trkpt lat="46.06191" lon="4.50653">
        <ele>487.2</ele>
        <time>2025-09-06T08:19:56Z</time>
      </trkpt>
      <trkpt lat="46.06191" lon="4.50655">
        <ele>487.4</ele>
        <time>2025-09-06T08:19:57Z</time>
      </trkpt>
      <trkpt lat="46.0619" lon="4.50658">
        <ele>487.4</ele>
        <time>2025-09-06T08:19:58Z</time>
      </trkpt>
      <trkpt lat="46.0619" lon="4.50661">
        <ele>487.4</ele>
        <time>2025-09-06T08:19:59Z</time>
      </trkpt>
      <trkpt lat="46.0619" lon="4.50663">
        <ele>487.8</ele>
        <time>2025-09-06T08:20:00Z</time>
      </trkpt>
      <trkpt lat="46.0619" lon="4.50666">
        <ele>487.8</ele>
        <time>2025-09-06T08:20:01Z</time>
      </trkpt>
      <trkpt lat="46.06189" lon="4.50669">
        <ele>487.8</ele>
        <time>2025-09-06T08:20:02Z</time>
      </trkpt>
      <trkpt lat="46.06189" lon="4.50672">
        <ele>487.8</ele>
        <time>2025-09-06T08:20:03Z</time>
      </trkpt>
      <trkpt lat="46.06189" lon="4.50674">
        <ele>487.8</ele>
        <time>2025-09-06T08:20:04Z</time>
      </trkpt>
      <trkpt lat="46.06188" lon="4.50676">
        <ele>488.2</ele>
        <time>2025-09-06T08:20:05Z</time>
      </trkpt>
      <trkpt lat="46.06188" lon="4.50678">
        <ele>488.2</ele>
        <time>2025-09-06T08:20:06Z</time>
      </trkpt>
      <trkpt lat="46.06188" lon="4.50681">
        <ele>488.2</ele>
        <time>2025-09-06T08:20:07Z</time>
      </trkpt>
      <trkpt lat="46.06188" lon="4.50683">
        <ele>488.2</ele>
        <time>2025-09-06T08:20:08Z</time>
      </trkpt>
      <trkpt lat="46.06188" lon="4.50686">
        <ele>488.4</ele>
        <time>2025-09-06T08:20:09Z</time>
      </trkpt>
      <trkpt lat="46.06188" lon="4.50688">
        <ele>488.4</ele>
        <time>2025-09-06T08:20:10Z</time>
      </trkpt>
      <trkpt lat="46.06188" lon="4.50691">
        <ele>488.8</ele>
        <time>2025-09-06T08:20:11Z</time>
      </trkpt>
      <trkpt lat="46.06189" lon="4.50693">
        <ele>488.8</ele>
        <time>2025-09-06T08:20:12Z</time>
      </trkpt>
      <trkpt lat="46.06189" lon="4.50695">
        <ele>489</ele>
        <time>2025-09-06T08:20:13Z</time>
      </trkpt>
      <trkpt lat="46.06189" lon="4.50698">
        <ele>489</ele>
        <time>2025-09-06T08:20:14Z</time>
      </trkpt>
      <trkpt lat="46.06189" lon="4.50701">
        <ele>489.2</ele>
        <time>2025-09-06T08:20:15Z</time>
      </trkpt>
      <trkpt lat="46.06189" lon="4.50704">
        <ele>489.2</ele>
        <time>2025-09-06T08:20:16Z</time>
      </trkpt>
      <trkpt lat="46.06189" lon="4.50706">
        <ele>489.6</ele>
        <time>2025-09-06T08:20:17Z</time>
      </trkpt>
      <trkpt lat="46.06189" lon="4.50708">
        <ele>489.6</ele>
        <time>2025-09-06T08:20:18Z</time>
      </trkpt>
      <trkpt lat="46.06189" lon="4.5071">
        <ele>489.6</ele>
        <time>2025-09-06T08:20:19Z</time>
      </trkpt>
      <trkpt lat="46.06189" lon="4.50712">
        <ele>489.8</ele>
        <time>2025-09-06T08:20:20Z</time>
      </trkpt>
      <trkpt lat="46.0619" lon="4.50715">
        <ele>489.8</ele>
        <time>2025-09-06T08:20:21Z</time>
      </trkpt>
      <trkpt lat="46.0619" lon="4.50717">
        <ele>489.8</ele>
        <time>2025-09-06T08:20:22Z</time>
      </trkpt>
      <trkpt lat="46.0619" lon="4.50719">
        <ele>490.2</ele>
        <time>2025-09-06T08:20:23Z</time>
      </trkpt>
      <trkpt lat="46.0619" lon="4.50722">
        <ele>490.2</ele>
        <time>2025-09-06T08:20:24Z</time>
      </trkpt>
      <trkpt lat="46.0619" lon="4.50724">
        <ele>490.2</ele>
        <time>2025-09-06T08:20:25Z</time>
      </trkpt>
      <trkpt lat="46.06191" lon="4.50727">
        <ele>490.2</ele>
        <time>2025-09-06T08:20:26Z</time>
      </trkpt>
      <trkpt lat="46.06191" lon="4.50729">
        <ele>490.6</ele>
        <time>2025-09-06T08:20:27Z</time>
      </trkpt>
      <trkpt lat="46.06191" lon="4.50731">
        <ele>490.6</ele>
        <time>2025-09-06T08:20:28Z</time>
      </trkpt>
      <trkpt lat="46.06191" lon="4.50733">
        <ele>490.8</ele>
        <time>2025-09-06T08:20:29Z</time>
      </trkpt>
      <trkpt lat="46.06192" lon="4.50735">
        <ele>491</ele>
        <time>2025-09-06T08:20:30Z</time>
      </trkpt>
      <trkpt lat="46.06192" lon="4.50738">
        <ele>491</ele>
        <time>2025-09-06T08:20:31Z</time>
      </trkpt>
      <trkpt lat="46.06192" lon="4.5074">
        <ele>491</ele>
        <time>2025-09-06T08:20:32Z</time>
      </trkpt>
      <trkpt lat="46.06193" lon="4.50742">
        <ele>491</ele>
        <time>2025-09-06T08:20:33Z</time>
      </trkpt>
      <trkpt lat="46.06193" lon="4.50744">
        <ele>491.4</ele>
        <time>2025-09-06T08:20:34Z</time>
      </trkpt>
      <trkpt lat="46.06194" lon="4.50747">
        <ele>491.4</ele>
        <time>2025-09-06T08:20:35Z</time>
      </trkpt>
      <trkpt lat="46.06194" lon="4.50749">
        <ele>491.4</ele>
        <time>2025-09-06T08:20:36Z</time>
      </trkpt>
      <trkpt lat="46.06194" lon="4.50752">
        <ele>491.4</ele>
        <time>2025-09-06T08:20:37Z</time>
      </trkpt>
      <trkpt lat="46.06194" lon="4.50754">
        <ele>491.6</ele>
        <time>2025-09-06T08:20:38Z</time>
      </trkpt>
      <trkpt lat="46.06194" lon="4.50758">
        <ele>491.6</ele>
        <time>2025-09-06T08:20:39Z</time>
      </trkpt>
      <trkpt lat="46.06194" lon="4.5076">
        <ele>491.6</ele>
        <time>2025-09-06T08:20:40Z</time>
      </trkpt>
      <trkpt lat="46.06193" lon="4.50763">
        <ele>491.6</ele>
        <time>2025-09-06T08:20:41Z</time>
      </trkpt>
      <trkpt lat="46.06193" lon="4.50765">
        <ele>492</ele>
        <time>2025-09-06T08:20:42Z</time>
      </trkpt>
      <trkpt lat="46.06192" lon="4.50767">
        <ele>492.2</ele>
        <time>2025-09-06T08:20:43Z</time>
      </trkpt>
      <trkpt lat="46.06191" lon="4.50769">
        <ele>492.2</ele>
        <time>2025-09-06T08:20:44Z</time>
      </trkpt>
      <trkpt lat="46.06191" lon="4.50772">
        <ele>492.2</ele>
        <time>2025-09-06T08:20:45Z</time>
      </trkpt>
      <trkpt lat="46.06192" lon="4.50776">
        <ele>492.2</ele>
        <time>2025-09-06T08:20:46Z</time>
      </trkpt>
      <trkpt lat="46.06192" lon="4.50779">
        <ele>492.6</ele>
        <time>2025-09-06T08:20:47Z</time>
      </trkpt>
      <trkpt lat="46.06192" lon="4.50781">
        <ele>492.6</ele>
        <time>2025-09-06T08:20:48Z</time>
      </trkpt>
      <trkpt lat="46.06191" lon="4.50784">
        <ele>492.8</ele>
        <time>2025-09-06T08:20:49Z</time>
      </trkpt>
      <trkpt lat="46.06191" lon="4.50786">
        <ele>493.2</ele>
        <time>2025-09-06T08:20:50Z</time>
      </trkpt>
      <trkpt lat="46.0619" lon="4.50788">
        <ele>493.4</ele>
        <time>2025-09-06T08:20:51Z</time>
      </trkpt>
      <trkpt lat="46.06189" lon="4.50791">
        <ele>493.4</ele>
        <time>2025-09-06T08:20:52Z</time>
      </trkpt>
      <trkpt lat="46.06189" lon="4.50793">
        <ele>493.8</ele>
        <time>2025-09-06T08:20:53Z</time>
      </trkpt>
      <trkpt lat="46.06189" lon="4.50796">
        <ele>493.8</ele>
        <time>2025-09-06T08:20:54Z</time>
      </trkpt>
      <trkpt lat="46.06188" lon="4.50798">
        <ele>493.8</ele>
        <time>2025-09-06T08:20:55Z</time>
      </trkpt>
      <trkpt lat="46.06187" lon="4.50801">
        <ele>494</ele>
        <time>2025-09-06T08:20:56Z</time>
      </trkpt>
      <trkpt lat="46.06187" lon="4.50803">
        <ele>494</ele>
        <time>2025-09-06T08:20:57Z</time>
      </trkpt>
      <trkpt lat="46.06186" lon="4.50806">
        <ele>494</ele>
        <time>2025-09-06T08:20:58Z</time>
      </trkpt>
      <trkpt lat="46.06186" lon="4.50808">
        <ele>494.2</ele>
        <time>2025-09-06T08:20:59Z</time>
      </trkpt>
      <trkpt lat="46.06185" lon="4.50811">
        <ele>494.2</ele>
        <time>2025-09-06T08:21:00Z</time>
      </trkpt>
      <trkpt lat="46.06185" lon="4.50813">
        <ele>494.6</ele>
        <time>2025-09-06T08:21:01Z</time>
      </trkpt>
      <trkpt lat="46.06185" lon="4.50815">
        <ele>494.6</ele>
        <time>2025-09-06T08:21:02Z</time>
      </trkpt>
      <trkpt lat="46.06185" lon="4.50818">
        <ele>494.8</ele>
        <time>2025-09-06T08:21:03Z</time>
      </trkpt>
      <trkpt lat="46.06184" lon="4.5082">
        <ele>495.2</ele>
        <time>2025-09-06T08:21:04Z</time>
      </trkpt>
      <trkpt lat="46.06183" lon="4.50823">
        <ele>495.2</ele>
        <time>2025-09-06T08:21:05Z</time>
      </trkpt>
      <trkpt lat="46.06183" lon="4.50825">
        <ele>495.4</ele>
        <time>2025-09-06T08:21:06Z</time>
      </trkpt>
      <trkpt lat="46.06182" lon="4.50827">
        <ele>495.4</ele>
        <time>2025-09-06T08:21:07Z</time>
      </trkpt>
      <trkpt lat="46.06182" lon="4.5083">
        <ele>495.8</ele>
        <time>2025-09-06T08:21:08Z</time>
      </trkpt>
      <trkpt lat="46.06181" lon="4.50832">
        <ele>496</ele>
        <time>2025-09-06T08:21:09Z</time>
      </trkpt>
      <trkpt lat="46.06181" lon="4.50834">
        <ele>496</ele>
        <time>2025-09-06T08:21:10Z</time>
      </trkpt>
      <trkpt lat="46.06181" lon="4.50838">
        <ele>496</ele>
        <time>2025-09-06T08:21:11Z</time>
      </trkpt>
      <trkpt lat="46.06181" lon="4.50838">
        <ele>496.2</ele>
        <time>2025-09-06T08:21:12Z</time>
      </trkpt>
      <trkpt lat="46.06181" lon="4.5084">
        <ele>496.2</ele>
        <time>2025-09-06T08:21:13Z</time>
      </trkpt>
      <trkpt lat="46.0618" lon="4.50843">
        <ele>496.2</ele>
        <time>2025-09-06T08:21:14Z</time>
      </trkpt>
      <trkpt lat="46.0618" lon="4.50846">
        <ele>496.4</ele>
        <time>2025-09-06T08:21:15Z</time>
      </trkpt>
      <trkpt lat="46.06179" lon="4.50848">
        <ele>496.4</ele>
        <time>2025-09-06T08:21:16Z</time>
      </trkpt>
      <trkpt lat="46.06179" lon="4.5085">
        <ele>496.8</ele>
        <time>2025-09-06T08:21:17Z</time>
      </trkpt>
      <trkpt lat="46.06179" lon="4.50853">
        <ele>496.8</ele>
        <time>2025-09-06T08:21:18Z</time>
      </trkpt>
      <trkpt lat="46.06178" lon="4.50856">
        <ele>496.8</ele>
        <time>2025-09-06T08:21:19Z</time>
      </trkpt>
      <trkpt lat="46.06177" lon="4.50859">
        <ele>497</ele>
        <time>2025-09-06T08:21:20Z</time>
      </trkpt>
      <trkpt lat="46.06177" lon="4.50861">
        <ele>497</ele>
        <time>2025-09-06T08:21:21Z</time>
      </trkpt>
      <trkpt lat="46.06176" lon="4.50864">
        <ele>497</ele>
        <time>2025-09-06T08:21:22Z</time>
      </trkpt>
      <trkpt lat="46.06176" lon="4.50866">
        <ele>497.2</ele>
        <time>2025-09-06T08:21:23Z</time>
      </trkpt>
      <trkpt lat="46.06176" lon="4.50868">
        <ele>497.2</ele>
        <time>2025-09-06T08:21:24Z</time>
      </trkpt>
      <trkpt lat="46.06175" lon="4.50871">
        <ele>497.6</ele>
        <time>2025-09-06T08:21:25Z</time>
      </trkpt>
      <trkpt lat="46.06175" lon="4.50874">
        <ele>497.6</ele>
        <time>2025-09-06T08:21:26Z</time>
      </trkpt>
      <trkpt lat="46.06174" lon="4.50876">
        <ele>497.6</ele>
        <time>2025-09-06T08:21:27Z</time>
      </trkpt>
      <trkpt lat="46.06174" lon="4.50878">
        <ele>497.6</ele>
        <time>2025-09-06T08:21:28Z</time>
      </trkpt>
      <trkpt lat="46.06174" lon="4.50881">
        <ele>498</ele>
        <time>2025-09-06T08:21:29Z</time>
      </trkpt>
      <trkpt lat="46.06174" lon="4.50884">
        <ele>498</ele>
        <time>2025-09-06T08:21:30Z</time>
      </trkpt>
      <trkpt lat="46.06174" lon="4.50887">
        <ele>498</ele>
        <time>2025-09-06T08:21:31Z</time>
      </trkpt>
      <trkpt lat="46.06174" lon="4.50889">
        <ele>498.6</ele>
        <time>2025-09-06T08:21:32Z</time>
      </trkpt>
      <trkpt lat="46.06173" lon="4.50892">
        <ele>498.6</ele>
        <time>2025-09-06T08:21:33Z</time>
      </trkpt>
      <trkpt lat="46.06173" lon="4.50894">
        <ele>498.6</ele>
        <time>2025-09-06T08:21:34Z</time>
      </trkpt>
      <trkpt lat="46.06173" lon="4.50896">
        <ele>498.8</ele>
        <time>2025-09-06T08:21:35Z</time>
      </trkpt>
      <trkpt lat="46.06173" lon="4.50901">
        <ele>498.8</ele>
        <time>2025-09-06T08:21:36Z</time>
      </trkpt>
      <trkpt lat="46.06173" lon="4.50903">
        <ele>499</ele>
        <time>2025-09-06T08:21:37Z</time>
      </trkpt>
      <trkpt lat="46.06172" lon="4.50905">
        <ele>499</ele>
        <time>2025-09-06T08:21:38Z</time>
      </trkpt>
      <trkpt lat="46.06172" lon="4.50908">
        <ele>499.4</ele>
        <time>2025-09-06T08:21:39Z</time>
      </trkpt>
      <trkpt lat="46.06172" lon="4.5091">
        <ele>499.6</ele>
        <time>2025-09-06T08:21:40Z</time>
      </trkpt>
      <trkpt lat="46.06172" lon="4.50913">
        <ele>499.8</ele>
        <time>2025-09-06T08:21:41Z</time>
      </trkpt>
      <trkpt lat="46.06172" lon="4.50915">
        <ele>499.8</ele>
        <time>2025-09-06T08:21:42Z</time>
      </trkpt>
      <trkpt lat="46.06172" lon="4.50918">
        <ele>499.8</ele>
        <time>2025-09-06T08:21:43Z</time>
      </trkpt>
      <trkpt lat="46.06172" lon="4.5092">
        <ele>500</ele>
        <time>2025-09-06T08:21:44Z</time>
      </trkpt>
      <trkpt lat="46.06171" lon="4.50923">
        <ele>500.2</ele>
        <time>2025-09-06T08:21:45Z</time>
      </trkpt>
      <trkpt lat="46.06171" lon="4.50925">
        <ele>500.2</ele>
        <time>2025-09-06T08:21:46Z</time>
      </trkpt>
      <trkpt lat="46.0617" lon="4.50927">
        <ele>500.6</ele>
        <time>2025-09-06T08:21:47Z</time>
      </trkpt>
      <trkpt lat="46.0617" lon="4.50929">
        <ele>500.8</ele>
        <time>2025-09-06T08:21:48Z</time>
      </trkpt>
      <trkpt lat="46.0617" lon="4.50931">
        <ele>501.2</ele>
        <time>2025-09-06T08:21:49Z</time>
      </trkpt>
      <trkpt lat="46.06169" lon="4.50933">
        <ele>501.2</ele>
        <time>2025-09-06T08:21:50Z</time>
      </trkpt>
      <trkpt lat="46.06169" lon="4.50936">
        <ele>501.2</ele>
        <time>2025-09-06T08:21:51Z</time>
      </trkpt>
      <trkpt lat="46.06169" lon="4.50938">
        <ele>501.2</ele>
        <time>2025-09-06T08:21:52Z</time>
      </trkpt>
      <trkpt lat="46.06169" lon="4.50941">
        <ele>501.4</ele>
        <time>2025-09-06T08:21:53Z</time>
      </trkpt>
      <trkpt lat="46.06168" lon="4.50944">
        <ele>501.4</ele>
        <time>2025-09-06T08:21:54Z</time>
      </trkpt>
      <trkpt lat="46.06168" lon="4.50946">
        <ele>501.4</ele>
        <time>2025-09-06T08:21:55Z</time>
      </trkpt>
      <trkpt lat="46.06168" lon="4.50948">
        <ele>501.4</ele>
        <time>2025-09-06T08:21:56Z</time>
      </trkpt>
      <trkpt lat="46.06168" lon="4.5095">
        <ele>501.8</ele>
        <time>2025-09-06T08:21:57Z</time>
      </trkpt>
      <trkpt lat="46.06168" lon="4.50952">
        <ele>502</ele>
        <time>2025-09-06T08:21:58Z</time>
      </trkpt>
      <trkpt lat="46.06168" lon="4.50955">
        <ele>502</ele>
        <time>2025-09-06T08:21:59Z</time>
      </trkpt>
      <trkpt lat="46.06168" lon="4.50957">
        <ele>502.2</ele>
        <time>2025-09-06T08:22:00Z</time>
      </trkpt>
      <trkpt lat="46.06168" lon="4.5096">
        <ele>502.2</ele>
        <time>2025-09-06T08:22:01Z</time>
      </trkpt>
      <trkpt lat="46.06167" lon="4.50962">
        <ele>502.2</ele>
        <time>2025-09-06T08:22:02Z</time>
      </trkpt>
      <trkpt lat="46.06167" lon="4.50965">
        <ele>502.6</ele>
        <time>2025-09-06T08:22:03Z</time>
      </trkpt>
      <trkpt lat="46.06166" lon="4.50967">
        <ele>502.6</ele>
        <time>2025-09-06T08:22:04Z</time>
      </trkpt>
      <trkpt lat="46.06166" lon="4.5097">
        <ele>502.6</ele>
        <time>2025-09-06T08:22:05Z</time>
      </trkpt>
      <trkpt lat="46.06166" lon="4.50972">
        <ele>502.6</ele>
        <time>2025-09-06T08:22:06Z</time>
      </trkpt>
      <trkpt lat="46.06166" lon="4.50975">
        <ele>502.8</ele>
        <time>2025-09-06T08:22:07Z</time>
      </trkpt>
      <trkpt lat="46.06166" lon="4.50978">
        <ele>502.8</ele>
        <time>2025-09-06T08:22:08Z</time>
      </trkpt>
      <trkpt lat="46.06165" lon="4.5098">
        <ele>502.8</ele>
        <time>2025-09-06T08:22:09Z</time>
      </trkpt>
      <trkpt lat="46.06165" lon="4.50983">
        <ele>502.8</ele>
        <time>2025-09-06T08:22:10Z</time>
      </trkpt>
      <trkpt lat="46.06165" lon="4.50986">
        <ele>503.4</ele>
        <time>2025-09-06T08:22:11Z</time>
      </trkpt>
      <trkpt lat="46.06165" lon="4.50988">
        <ele>503.4</ele>
        <time>2025-09-06T08:22:12Z</time>
      </trkpt>
      <trkpt lat="46.06165" lon="4.50991">
        <ele>503.6</ele>
        <time>2025-09-06T08:22:13Z</time>
      </trkpt>
      <trkpt lat="46.06165" lon="4.50994">
        <ele>503.6</ele>
        <time>2025-09-06T08:22:14Z</time>
      </trkpt>
      <trkpt lat="46.06164" lon="4.50996">
        <ele>504</ele>
        <time>2025-09-06T08:22:15Z</time>
      </trkpt>
      <trkpt lat="46.06164" lon="4.50998">
        <ele>504</ele>
        <time>2025-09-06T08:22:16Z</time>
      </trkpt>
      <trkpt lat="46.06163" lon="4.51001">
        <ele>504</ele>
        <time>2025-09-06T08:22:17Z</time>
      </trkpt>
      <trkpt lat="46.06163" lon="4.51003">
        <ele>504.2</ele>
        <time>2025-09-06T08:22:18Z</time>
      </trkpt>
      <trkpt lat="46.06163" lon="4.51006">
        <ele>504.2</ele>
        <time>2025-09-06T08:22:19Z</time>
      </trkpt>
      <trkpt lat="46.06164" lon="4.51008">
        <ele>504.4</ele>
        <time>2025-09-06T08:22:20Z</time>
      </trkpt>
      <trkpt lat="46.06164" lon="4.51011">
        <ele>504.4</ele>
        <time>2025-09-06T08:22:21Z</time>
      </trkpt>
      <trkpt lat="46.06164" lon="4.51013">
        <ele>504.8</ele>
        <time>2025-09-06T08:22:22Z</time>
      </trkpt>
      <trkpt lat="46.06163" lon="4.51015">
        <ele>504.8</ele>
        <time>2025-09-06T08:22:23Z</time>
      </trkpt>
      <trkpt lat="46.06163" lon="4.51018">
        <ele>505</ele>
        <time>2025-09-06T08:22:24Z</time>
      </trkpt>
      <trkpt lat="46.06163" lon="4.5102">
        <ele>505</ele>
        <time>2025-09-06T08:22:25Z</time>
      </trkpt>
      <trkpt lat="46.06163" lon="4.51023">
        <ele>505</ele>
        <time>2025-09-06T08:22:26Z</time>
      </trkpt>
      <trkpt lat="46.06163" lon="4.51025">
        <ele>505.4</ele>
        <time>2025-09-06T08:22:27Z</time>
      </trkpt>
      <trkpt lat="46.06163" lon="4.51028">
        <ele>505.4</ele>
        <time>2025-09-06T08:22:28Z</time>
      </trkpt>
      <trkpt lat="46.06163" lon="4.5103">
        <ele>505.4</ele>
        <time>2025-09-06T08:22:29Z</time>
      </trkpt>
      <trkpt lat="46.06163" lon="4.51032">
        <ele>506</ele>
        <time>2025-09-06T08:22:30Z</time>
      </trkpt>
      <trkpt lat="46.06164" lon="4.51034">
        <ele>506</ele>
        <time>2025-09-06T08:22:31Z</time>
      </trkpt>
      <trkpt lat="46.06164" lon="4.51037">
        <ele>506</ele>
        <time>2025-09-06T08:22:32Z</time>
      </trkpt>
      <trkpt lat="46.06164" lon="4.51039">
        <ele>506</ele>
        <time>2025-09-06T08:22:33Z</time>
      </trkpt>
      <trkpt lat="46.06164" lon="4.51042">
        <ele>506</ele>
        <time>2025-09-06T08:22:34Z</time>
      </trkpt>
      <trkpt lat="46.06163" lon="4.51044">
        <ele>506.2</ele>
        <time>2025-09-06T08:22:35Z</time>
      </trkpt>
      <trkpt lat="46.06163" lon="4.51046">
        <ele>506.2</ele>
        <time>2025-09-06T08:22:36Z</time>
      </trkpt>
      <trkpt lat="46.06163" lon="4.51049">
        <ele>506.2</ele>
        <time>2025-09-06T08:22:37Z</time>
      </trkpt>
      <trkpt lat="46.06163" lon="4.51052">
        <ele>506.2</ele>
        <time>2025-09-06T08:22:38Z</time>
      </trkpt>
      <trkpt lat="46.06163" lon="4.51054">
        <ele>506.6</ele>
        <time>2025-09-06T08:22:39Z</time>
      </trkpt>
      <trkpt lat="46.06162" lon="4.51057">
        <ele>506.6</ele>
        <time>2025-09-06T08:22:40Z</time>
      </trkpt>
      <trkpt lat="46.06162" lon="4.51059">
        <ele>506.8</ele>
        <time>2025-09-06T08:22:41Z</time>
      </trkpt>
      <trkpt lat="46.06162" lon="4.51061">
        <ele>507</ele>
        <time>2025-09-06T08:22:42Z</time>
      </trkpt>
      <trkpt lat="46.06162" lon="4.51064">
        <ele>507</ele>
        <time>2025-09-06T08:22:43Z</time>
      </trkpt>
      <trkpt lat="46.06162" lon="4.51066">
        <ele>507.4</ele>
        <time>2025-09-06T08:22:44Z</time>
      </trkpt>
      <trkpt lat="46.06162" lon="4.51069">
        <ele>507.4</ele>
        <time>2025-09-06T08:22:45Z</time>
      </trkpt>
      <trkpt lat="46.06162" lon="4.51071">
        <ele>507.4</ele>
        <time>2025-09-06T08:22:46Z</time>
      </trkpt>
      <trkpt lat="46.06162" lon="4.51074">
        <ele>507.8</ele>
        <time>2025-09-06T08:22:47Z</time>
      </trkpt>
      <trkpt lat="46.06162" lon="4.51077">
        <ele>507.8</ele>
        <time>2025-09-06T08:22:48Z</time>
      </trkpt>
      <trkpt lat="46.06161" lon="4.51079">
        <ele>508</ele>
        <time>2025-09-06T08:22:49Z</time>
      </trkpt>
      <trkpt lat="46.06161" lon="4.51082">
        <ele>508</ele>
        <time>2025-09-06T08:22:50Z</time>
      </trkpt>
      <trkpt lat="46.06161" lon="4.51084">
        <ele>508.2</ele>
        <time>2025-09-06T08:22:51Z</time>
      </trkpt>
      <trkpt lat="46.0616" lon="4.51087">
        <ele>508.2</ele>
        <time>2025-09-06T08:22:52Z</time>
      </trkpt>
      <trkpt lat="46.0616" lon="4.51089">
        <ele>508.4</ele>
        <time>2025-09-06T08:22:53Z</time>
      </trkpt>
      <trkpt lat="46.0616" lon="4.51091">
        <ele>508.4</ele>
        <time>2025-09-06T08:22:54Z</time>
      </trkpt>
      <trkpt lat="46.06159" lon="4.51093">
        <ele>508.4</ele>
        <time>2025-09-06T08:22:55Z</time>
      </trkpt>
      <trkpt lat="46.06159" lon="4.51095">
        <ele>508.8</ele>
        <time>2025-09-06T08:22:56Z</time>
      </trkpt>
      <trkpt lat="46.06159" lon="4.51098">
        <ele>508.8</ele>
        <time>2025-09-06T08:22:57Z</time>
      </trkpt>
      <trkpt lat="46.06159" lon="4.51101">
        <ele>509</ele>
        <time>2025-09-06T08:22:58Z</time>
      </trkpt>
      <trkpt lat="46.06159" lon="4.51103">
        <ele>509.4</ele>
        <time>2025-09-06T08:22:59Z</time>
      </trkpt>
      <trkpt lat="46.06158" lon="4.51105">
        <ele>509.6</ele>
        <time>2025-09-06T08:23:00Z</time>
      </trkpt>
      <trkpt lat="46.06158" lon="4.51108">
        <ele>509.6</ele>
        <time>2025-09-06T08:23:01Z</time>
      </trkpt>
      <trkpt lat="46.06158" lon="4.51111">
        <ele>509.6</ele>
        <time>2025-09-06T08:23:02Z</time>
      </trkpt>
      <trkpt lat="46.06158" lon="4.51113">
        <ele>509.6</ele>
        <time>2025-09-06T08:23:03Z</time>
      </trkpt>
      <trkpt lat="46.06158" lon="4.51116">
        <ele>509.8</ele>
        <time>2025-09-06T08:23:04Z</time>
      </trkpt>
      <trkpt lat="46.06158" lon="4.51118">
        <ele>509.8</ele>
        <time>2025-09-06T08:23:05Z</time>
      </trkpt>
      <trkpt lat="46.06158" lon="4.51121">
        <ele>509.8</ele>
        <time>2025-09-06T08:23:06Z</time>
      </trkpt>
      <trkpt lat="46.06158" lon="4.51123">
        <ele>510.2</ele>
        <time>2025-09-06T08:23:07Z</time>
      </trkpt>
      <trkpt lat="46.06158" lon="4.51126">
        <ele>510.2</ele>
        <time>2025-09-06T08:23:08Z</time>
      </trkpt>
      <trkpt lat="46.06157" lon="4.51128">
        <ele>511</ele>
        <time>2025-09-06T08:23:09Z</time>
      </trkpt>
      <trkpt lat="46.06157" lon="4.51131">
        <ele>511</ele>
        <time>2025-09-06T08:23:10Z</time>
      </trkpt>
      <trkpt lat="46.06157" lon="4.51134">
        <ele>511</ele>
        <time>2025-09-06T08:23:11Z</time>
      </trkpt>
      <trkpt lat="46.06157" lon="4.51136">
        <ele>511</ele>
        <time>2025-09-06T08:23:12Z</time>
      </trkpt>
      <trkpt lat="46.06157" lon="4.51139">
        <ele>511</ele>
        <time>2025-09-06T08:23:13Z</time>
      </trkpt>
      <trkpt lat="46.06157" lon="4.51141">
        <ele>511</ele>
        <time>2025-09-06T08:23:14Z</time>
      </trkpt>
      <trkpt lat="46.06157" lon="4.51144">
        <ele>511.2</ele>
        <time>2025-09-06T08:23:15Z</time>
      </trkpt>
      <trkpt lat="46.06157" lon="4.51146">
        <ele>511.2</ele>
        <time>2025-09-06T08:23:16Z</time>
      </trkpt>
      <trkpt lat="46.06157" lon="4.51149">
        <ele>511.4</ele>
        <time>2025-09-06T08:23:17Z</time>
      </trkpt>
      <trkpt lat="46.06157" lon="4.51151">
        <ele>511.8</ele>
        <time>2025-09-06T08:23:18Z</time>
      </trkpt>
      <trkpt lat="46.06157" lon="4.51154">
        <ele>512</ele>
        <time>2025-09-06T08:23:19Z</time>
      </trkpt>
      <trkpt lat="46.06157" lon="4.51156">
        <ele>511.8</ele>
        <time>2025-09-06T08:23:20Z</time>
      </trkpt>
      <trkpt lat="46.06158" lon="4.51159">
        <ele>512.2</ele>
        <time>2025-09-06T08:23:21Z</time>
      </trkpt>
      <trkpt lat="46.06158" lon="4.51161">
        <ele>512.4</ele>
        <time>2025-09-06T08:23:22Z</time>
      </trkpt>
      <trkpt lat="46.06158" lon="4.51164">
        <ele>512.4</ele>
        <time>2025-09-06T08:23:23Z</time>
      </trkpt>
      <trkpt lat="46.06159" lon="4.51166">
        <ele>512.8</ele>
        <time>2025-09-06T08:23:24Z</time>
      </trkpt>
      <trkpt lat="46.06159" lon="4.51168">
        <ele>512.8</ele>
        <time>2025-09-06T08:23:25Z</time>
      </trkpt>
      <trkpt lat="46.0616" lon="4.51171">
        <ele>512.8</ele>
        <time>2025-09-06T08:23:26Z</time>
      </trkpt>
      <trkpt lat="46.0616" lon="4.51173">
        <ele>512.8</ele>
        <time>2025-09-06T08:23:27Z</time>
      </trkpt>
      <trkpt lat="46.06161" lon="4.51175">
        <ele>513</ele>
        <time>2025-09-06T08:23:28Z</time>
      </trkpt>
      <trkpt lat="46.06161" lon="4.51178">
        <ele>513</ele>
        <time>2025-09-06T08:23:29Z</time>
      </trkpt>
      <trkpt lat="46.06162" lon="4.5118">
        <ele>513.2</ele>
        <time>2025-09-06T08:23:30Z</time>
      </trkpt>
      <trkpt lat="46.06163" lon="4.51182">
        <ele>513.2</ele>
        <time>2025-09-06T08:23:31Z</time>
      </trkpt>
      <trkpt lat="46.06164" lon="4.51184">
        <ele>513.6</ele>
        <time>2025-09-06T08:23:32Z</time>
      </trkpt>
      <trkpt lat="46.06165" lon="4.51186">
        <ele>513.6</ele>
        <time>2025-09-06T08:23:33Z</time>
      </trkpt>
      <trkpt lat="46.06166" lon="4.51188">
        <ele>513.6</ele>
        <time>2025-09-06T08:23:34Z</time>
      </trkpt>
      <trkpt lat="46.06167" lon="4.5119">
        <ele>514</ele>
        <time>2025-09-06T08:23:35Z</time>
      </trkpt>
      <trkpt lat="46.06168" lon="4.51192">
        <ele>514</ele>
        <time>2025-09-06T08:23:36Z</time>
      </trkpt>
      <trkpt lat="46.06169" lon="4.51193">
        <ele>514</ele>
        <time>2025-09-06T08:23:37Z</time>
      </trkpt>
      <trkpt lat="46.0617" lon="4.51195">
        <ele>514.2</ele>
        <time>2025-09-06T08:23:38Z</time>
      </trkpt>
      <trkpt lat="46.06171" lon="4.51196">
        <ele>514.2</ele>
        <time>2025-09-06T08:23:39Z</time>
      </trkpt>
      <trkpt lat="46.06172" lon="4.51197">
        <ele>514.4</ele>
        <time>2025-09-06T08:23:40Z</time>
      </trkpt>
      <trkpt lat="46.06173" lon="4.51199">
        <ele>514.4</ele>
        <time>2025-09-06T08:23:41Z</time>
      </trkpt>
      <trkpt lat="46.06175" lon="4.51201">
        <ele>514.4</ele>
        <time>2025-09-06T08:23:42Z</time>
      </trkpt>
      <trkpt lat="46.06176" lon="4.51203">
        <ele>514.4</ele>
        <time>2025-09-06T08:23:43Z</time>
      </trkpt>
      <trkpt lat="46.06177" lon="4.51205">
        <ele>514.8</ele>
        <time>2025-09-06T08:23:44Z</time>
      </trkpt>
      <trkpt lat="46.06178" lon="4.51206">
        <ele>514.8</ele>
        <time>2025-09-06T08:23:45Z</time>
      </trkpt>
      <trkpt lat="46.0618" lon="4.51208">
        <ele>515.2</ele>
        <time>2025-09-06T08:23:46Z</time>
      </trkpt>
      <trkpt lat="46.06182" lon="4.51209">
        <ele>515.4</ele>
        <time>2025-09-06T08:23:47Z</time>
      </trkpt>
      <trkpt lat="46.06183" lon="4.5121">
        <ele>515.6</ele>
        <time>2025-09-06T08:23:48Z</time>
      </trkpt>
      <trkpt lat="46.06185" lon="4.51212">
        <ele>515.6</ele>
        <time>2025-09-06T08:23:49Z</time>
      </trkpt>
      <trkpt lat="46.06186" lon="4.51213">
        <ele>515.6</ele>
        <time>2025-09-06T08:23:50Z</time>
      </trkpt>
      <trkpt lat="46.06187" lon="4.51215">
        <ele>515.6</ele>
        <time>2025-09-06T08:23:51Z</time>
      </trkpt>
      <trkpt lat="46.06189" lon="4.51216">
        <ele>515.6</ele>
        <time>2025-09-06T08:23:52Z</time>
      </trkpt>
      <trkpt lat="46.0619" lon="4.51217">
        <ele>515.8</ele>
        <time>2025-09-06T08:23:53Z</time>
      </trkpt>
      <trkpt lat="46.06192" lon="4.51219">
        <ele>515.8</ele>
        <time>2025-09-06T08:23:54Z</time>
      </trkpt>
      <trkpt lat="46.06194" lon="4.5122">
        <ele>515.8</ele>
        <time>2025-09-06T08:23:55Z</time>
      </trkpt>
      <trkpt lat="46.06195" lon="4.51221">
        <ele>516.2</ele>
        <time>2025-09-06T08:23:56Z</time>
      </trkpt>
      <trkpt lat="46.06197" lon="4.51223">
        <ele>516.2</ele>
        <time>2025-09-06T08:23:57Z</time>
      </trkpt>
      <trkpt lat="46.06198" lon="4.51224">
        <ele>516.4</ele>
        <time>2025-09-06T08:23:58Z</time>
      </trkpt>
      <trkpt lat="46.062" lon="4.51226">
        <ele>516.4</ele>
        <time>2025-09-06T08:23:59Z</time>
      </trkpt>
      <trkpt lat="46.06202" lon="4.51227">
        <ele>516.4</ele>
        <time>2025-09-06T08:24:00Z</time>
      </trkpt>
      <trkpt lat="46.06203" lon="4.51229">
        <ele>516.8</ele>
        <time>2025-09-06T08:24:01Z</time>
      </trkpt>
      <trkpt lat="46.06205" lon="4.5123">
        <ele>517.2</ele>
        <time>2025-09-06T08:24:02Z</time>
      </trkpt>
      <trkpt lat="46.06206" lon="4.51231">
        <ele>517.2</ele>
        <time>2025-09-06T08:24:03Z</time>
      </trkpt>
      <trkpt lat="46.06208" lon="4.51233">
        <ele>517.2</ele>
        <time>2025-09-06T08:24:04Z</time>
      </trkpt>
      <trkpt lat="46.0621" lon="4.51234">
        <ele>517.2</ele>
        <time>2025-09-06T08:24:05Z</time>
      </trkpt>
      <trkpt lat="46.06211" lon="4.51235">
        <ele>517.2</ele>
        <time>2025-09-06T08:24:06Z</time>
      </trkpt>
      <trkpt lat="46.06213" lon="4.51237">
        <ele>517.2</ele>
        <time>2025-09-06T08:24:07Z</time>
      </trkpt>
      <trkpt lat="46.06214" lon="4.51238">
        <ele>517.2</ele>
        <time>2025-09-06T08:24:08Z</time>
      </trkpt>
      <trkpt lat="46.06215" lon="4.5124">
        <ele>517.4</ele>
        <time>2025-09-06T08:24:09Z</time>
      </trkpt>
      <trkpt lat="46.06217" lon="4.51241">
        <ele>517.6</ele>
        <time>2025-09-06T08:24:10Z</time>
      </trkpt>
      <trkpt lat="46.06218" lon="4.51243">
        <ele>517.6</ele>
        <time>2025-09-06T08:24:11Z</time>
      </trkpt>
      <trkpt lat="46.06219" lon="4.51244">
        <ele>517.8</ele>
        <time>2025-09-06T08:24:12Z</time>
      </trkpt>
      <trkpt lat="46.06221" lon="4.51245">
        <ele>518.2</ele>
        <time>2025-09-06T08:24:13Z</time>
      </trkpt>
      <trkpt lat="46.06222" lon="4.51247">
        <ele>518.4</ele>
        <time>2025-09-06T08:24:14Z</time>
      </trkpt>
      <trkpt lat="46.06224" lon="4.51248">
        <ele>518.6</ele>
        <time>2025-09-06T08:24:15Z</time>
      </trkpt>
      <trkpt lat="46.06225" lon="4.51249">
        <ele>518.6</ele>
        <time>2025-09-06T08:24:16Z</time>
      </trkpt>
      <trkpt lat="46.06226" lon="4.51251">
        <ele>518.6</ele>
        <time>2025-09-06T08:24:17Z</time>
      </trkpt>
      <trkpt lat="46.06227" lon="4.51252">
        <ele>518.8</ele>
        <time>2025-09-06T08:24:18Z</time>
      </trkpt>
      <trkpt lat="46.06229" lon="4.51254">
        <ele>518.8</ele>
        <time>2025-09-06T08:24:19Z</time>
      </trkpt>
      <trkpt lat="46.0623" lon="4.51255">
        <ele>519.2</ele>
        <time>2025-09-06T08:24:20Z</time>
      </trkpt>
      <trkpt lat="46.06231" lon="4.51256">
        <ele>519.4</ele>
        <time>2025-09-06T08:24:21Z</time>
      </trkpt>
      <trkpt lat="46.06232" lon="4.51258">
        <ele>519.4</ele>
        <time>2025-09-06T08:24:22Z</time>
      </trkpt>
      <trkpt lat="46.06233" lon="4.51259">
        <ele>519.4</ele>
        <time>2025-09-06T08:24:23Z</time>
      </trkpt>
      <trkpt lat="46.06234" lon="4.51261">
        <ele>519.8</ele>
        <time>2025-09-06T08:24:24Z</time>
      </trkpt>
      <trkpt lat="46.06235" lon="4.51262">
        <ele>519.8</ele>
        <time>2025-09-06T08:24:25Z</time>
      </trkpt>
      <trkpt lat="46.06237" lon="4.51263">
        <ele>520</ele>
        <time>2025-09-06T08:24:26Z</time>
      </trkpt>
      <trkpt lat="46.06237" lon="4.51263">
        <ele>520</ele>
        <time>2025-09-06T08:24:27Z</time>
      </trkpt>
      <trkpt lat="46.06238" lon="4.51265">
        <ele>520</ele>
        <time>2025-09-06T08:24:28Z</time>
      </trkpt>
      <trkpt lat="46.06239" lon="4.51266">
        <ele>520</ele>
        <time>2025-09-06T08:24:29Z</time>
      </trkpt>
      <trkpt lat="46.0624" lon="4.51267">
        <ele>520</ele>
        <time>2025-09-06T08:24:30Z</time>
      </trkpt>
      <trkpt lat="46.06242" lon="4.51269">
        <ele>520</ele>
        <time>2025-09-06T08:24:31Z</time>
      </trkpt>
      <trkpt lat="46.06243" lon="4.5127">
        <ele>520.4</ele>
        <time>2025-09-06T08:24:32Z</time>
      </trkpt>
      <trkpt lat="46.06245" lon="4.51272">
        <ele>520.4</ele>
        <time>2025-09-06T08:24:33Z</time>
      </trkpt>
      <trkpt lat="46.06247" lon="4.51273">
        <ele>520.4</ele>
        <time>2025-09-06T08:24:34Z</time>
      </trkpt>
      <trkpt lat="46.06248" lon="4.51274">
        <ele>520.4</ele>
        <time>2025-09-06T08:24:35Z</time>
      </trkpt>
      <trkpt lat="46.0625" lon="4.51276">
        <ele>520.6</ele>
        <time>2025-09-06T08:24:36Z</time>
      </trkpt>
      <trkpt lat="46.06251" lon="4.51277">
        <ele>520.6</ele>
        <time>2025-09-06T08:24:37Z</time>
      </trkpt>
      <trkpt lat="46.06253" lon="4.51279">
        <ele>520.6</ele>
        <time>2025-09-06T08:24:38Z</time>
      </trkpt>
      <trkpt lat="46.06254" lon="4.5128">
        <ele>521</ele>
        <time>2025-09-06T08:24:39Z</time>
      </trkpt>
      <trkpt lat="46.06256" lon="4.51281">
        <ele>521</ele>
        <time>2025-09-06T08:24:40Z</time>
      </trkpt>
      <trkpt lat="46.06257" lon="4.51283">
        <ele>521</ele>
        <time>2025-09-06T08:24:41Z</time>
      </trkpt>
      <trkpt lat="46.06259" lon="4.51284">
        <ele>521.4</ele>
        <time>2025-09-06T08:24:42Z</time>
      </trkpt>
      <trkpt lat="46.0626" lon="4.51285">
        <ele>521.4</ele>
        <time>2025-09-06T08:24:43Z</time>
      </trkpt>
      <trkpt lat="46.06261" lon="4.51286">
        <ele>521.6</ele>
        <time>2025-09-06T08:24:44Z</time>
      </trkpt>
      <trkpt lat="46.06263" lon="4.51288">
        <ele>521.6</ele>
        <time>2025-09-06T08:24:45Z</time>
      </trkpt>
      <trkpt lat="46.06265" lon="4.51289">
        <ele>521.6</ele>
        <time>2025-09-06T08:24:46Z</time>
      </trkpt>
      <trkpt lat="46.06267" lon="4.5129">
        <ele>521.8</ele>
        <time>2025-09-06T08:24:47Z</time>
      </trkpt>
      <trkpt lat="46.06268" lon="4.51292">
        <ele>521.8</ele>
        <time>2025-09-06T08:24:48Z</time>
      </trkpt>
      <trkpt lat="46.06269" lon="4.51293">
        <ele>522.2</ele>
        <time>2025-09-06T08:24:49Z</time>
      </trkpt>
      <trkpt lat="46.0627" lon="4.51295">
        <ele>522.4</ele>
        <time>2025-09-06T08:24:50Z</time>
      </trkpt>
      <trkpt lat="46.06272" lon="4.51297">
        <ele>522.4</ele>
        <time>2025-09-06T08:24:51Z</time>
      </trkpt>
      <trkpt lat="46.06274" lon="4.51298">
        <ele>522.4</ele>
        <time>2025-09-06T08:24:52Z</time>
      </trkpt>
      <trkpt lat="46.06274" lon="4.513">
        <ele>522.8</ele>
        <time>2025-09-06T08:24:53Z</time>
      </trkpt>
      <trkpt lat="46.06275" lon="4.51301">
        <ele>522.8</ele>
        <time>2025-09-06T08:24:54Z</time>
      </trkpt>
      <trkpt lat="46.06277" lon="4.51302">
        <ele>522.8</ele>
        <time>2025-09-06T08:24:55Z</time>
      </trkpt>
      <trkpt lat="46.06278" lon="4.51304">
        <ele>523.2</ele>
        <time>2025-09-06T08:24:56Z</time>
      </trkpt>
      <trkpt lat="46.06279" lon="4.51305">
        <ele>523.4</ele>
        <time>2025-09-06T08:24:57Z</time>
      </trkpt>
      <trkpt lat="46.0628" lon="4.51306">
        <ele>523.4</ele>
        <time>2025-09-06T08:24:58Z</time>
      </trkpt>
      <trkpt lat="46.06281" lon="4.51308">
        <ele>523.6</ele>
        <time>2025-09-06T08:24:59Z</time>
      </trkpt>
      <trkpt lat="46.06282" lon="4.51309">
        <ele>523.8</ele>
        <time>2025-09-06T08:25:00Z</time>
      </trkpt>
      <trkpt lat="46.06284" lon="4.51311">
        <ele>523.8</ele>
        <time>2025-09-06T08:25:01Z</time>
      </trkpt>
      <trkpt lat="46.06285" lon="4.51312">
        <ele>524.2</ele>
        <time>2025-09-06T08:25:02Z</time>
      </trkpt>
      <trkpt lat="46.06286" lon="4.51314">
        <ele>524.2</ele>
        <time>2025-09-06T08:25:03Z</time>
      </trkpt>
      <trkpt lat="46.06288" lon="4.51316">
        <ele>524.2</ele>
        <time>2025-09-06T08:25:04Z</time>
      </trkpt>
      <trkpt lat="46.06289" lon="4.51317">
        <ele>524.4</ele>
        <time>2025-09-06T08:25:05Z</time>
      </trkpt>
      <trkpt lat="46.0629" lon="4.51319">
        <ele>524.4</ele>
        <time>2025-09-06T08:25:06Z</time>
      </trkpt>
      <trkpt lat="46.06292" lon="4.51321">
        <ele>524.8</ele>
        <time>2025-09-06T08:25:07Z</time>
      </trkpt>
      <trkpt lat="46.06293" lon="4.51322">
        <ele>524.8</ele>
        <time>2025-09-06T08:25:08Z</time>
      </trkpt>
      <trkpt lat="46.06294" lon="4.51324">
        <ele>524.8</ele>
        <time>2025-09-06T08:25:09Z</time>
      </trkpt>
      <trkpt lat="46.06295" lon="4.51326">
        <ele>525.2</ele>
        <time>2025-09-06T08:25:10Z</time>
      </trkpt>
      <trkpt lat="46.06296" lon="4.51328">
        <ele>525.2</ele>
        <time>2025-09-06T08:25:11Z</time>
      </trkpt>
      <trkpt lat="46.06298" lon="4.5133">
        <ele>525.4</ele>
        <time>2025-09-06T08:25:12Z</time>
      </trkpt>
      <trkpt lat="46.06299" lon="4.51331">
        <ele>525.4</ele>
        <time>2025-09-06T08:25:13Z</time>
      </trkpt>
      <trkpt lat="46.063" lon="4.51333">
        <ele>525.6</ele>
        <time>2025-09-06T08:25:14Z</time>
      </trkpt>
      <trkpt lat="46.06301" lon="4.51335">
        <ele>525.6</ele>
        <time>2025-09-06T08:25:15Z</time>
      </trkpt>
      <trkpt lat="46.06302" lon="4.51336">
        <ele>525.6</ele>
        <time>2025-09-06T08:25:16Z</time>
      </trkpt>
      <trkpt lat="46.06303" lon="4.51337">
        <ele>526</ele>
        <time>2025-09-06T08:25:17Z</time>
      </trkpt>
      <trkpt lat="46.06304" lon="4.51339">
        <ele>526</ele>
        <time>2025-09-06T08:25:18Z</time>
      </trkpt>
      <trkpt lat="46.06305" lon="4.51341">
        <ele>526</ele>
        <time>2025-09-06T08:25:19Z</time>
      </trkpt>
      <trkpt lat="46.06306" lon="4.51343">
        <ele>526.2</ele>
        <time>2025-09-06T08:25:20Z</time>
      </trkpt>
      <trkpt lat="46.06307" lon="4.51345">
        <ele>526.2</ele>
        <time>2025-09-06T08:25:21Z</time>
      </trkpt>
      <trkpt lat="46.06308" lon="4.51348">
        <ele>526.4</ele>
        <time>2025-09-06T08:25:22Z</time>
      </trkpt>
      <trkpt lat="46.06308" lon="4.5135">
        <ele>526.4</ele>
        <time>2025-09-06T08:25:23Z</time>
      </trkpt>
      <trkpt lat="46.06308" lon="4.51354">
        <ele>526.4</ele>
        <time>2025-09-06T08:25:24Z</time>
      </trkpt>
      <trkpt lat="46.06308" lon="4.51357">
        <ele>526.8</ele>
        <time>2025-09-06T08:25:25Z</time>
      </trkpt>
      <trkpt lat="46.06309" lon="4.5136">
        <ele>527</ele>
        <time>2025-09-06T08:25:26Z</time>
      </trkpt>
      <trkpt lat="46.06309" lon="4.51363">
        <ele>527</ele>
        <time>2025-09-06T08:25:27Z</time>
      </trkpt>
      <trkpt lat="46.06308" lon="4.51366">
        <ele>527.2</ele>
        <time>2025-09-06T08:25:28Z</time>
      </trkpt>
      <trkpt lat="46.06308" lon="4.5137">
        <ele>527.6</ele>
        <time>2025-09-06T08:25:29Z</time>
      </trkpt>
      <trkpt lat="46.06308" lon="4.51373">
        <ele>527.6</ele>
        <time>2025-09-06T08:25:30Z</time>
      </trkpt>
      <trkpt lat="46.06307" lon="4.51376">
        <ele>527.8</ele>
        <time>2025-09-06T08:25:31Z</time>
      </trkpt>
      <trkpt lat="46.06307" lon="4.51378">
        <ele>527.8</ele>
        <time>2025-09-06T08:25:32Z</time>
      </trkpt>
      <trkpt lat="46.06306" lon="4.51381">
        <ele>527.8</ele>
        <time>2025-09-06T08:25:33Z</time>
      </trkpt>
      <trkpt lat="46.06305" lon="4.51383">
        <ele>528.2</ele>
        <time>2025-09-06T08:25:34Z</time>
      </trkpt>
      <trkpt lat="46.06304" lon="4.51385">
        <ele>528.2</ele>
        <time>2025-09-06T08:25:35Z</time>
      </trkpt>
      <trkpt lat="46.06303" lon="4.51386">
        <ele>528.4</ele>
        <time>2025-09-06T08:25:36Z</time>
      </trkpt>
      <trkpt lat="46.06301" lon="4.51387">
        <ele>528.4</ele>
        <time>2025-09-06T08:25:37Z</time>
      </trkpt>
      <trkpt lat="46.06299" lon="4.51387">
        <ele>528.8</ele>
        <time>2025-09-06T08:25:38Z</time>
      </trkpt>
      <trkpt lat="46.06297" lon="4.51388">
        <ele>528.4</ele>
        <time>2025-09-06T08:25:39Z</time>
      </trkpt>
      <trkpt lat="46.06295" lon="4.51388">
        <ele>528.4</ele>
        <time>2025-09-06T08:25:40Z</time>
      </trkpt>
      <trkpt lat="46.06294" lon="4.51389">
        <ele>528.8</ele>
        <time>2025-09-06T08:25:41Z</time>
      </trkpt>
      <trkpt lat="46.06292" lon="4.51389">
        <ele>529</ele>
        <time>2025-09-06T08:25:42Z</time>
      </trkpt>
      <trkpt lat="46.0629" lon="4.51389">
        <ele>529</ele>
        <time>2025-09-06T08:25:43Z</time>
      </trkpt>
      <trkpt lat="46.06289" lon="4.51389">
        <ele>529.4</ele>
        <time>2025-09-06T08:25:44Z</time>
      </trkpt>
      <trkpt lat="46.06287" lon="4.51389">
        <ele>529.4</ele>
        <time>2025-09-06T08:25:45Z</time>
      </trkpt>
      <trkpt lat="46.06285" lon="4.51388">
        <ele>529.6</ele>
        <time>2025-09-06T08:25:46Z</time>
      </trkpt>
      <trkpt lat="46.06283" lon="4.51388">
        <ele>529.8</ele>
        <time>2025-09-06T08:25:47Z</time>
      </trkpt>
      <trkpt lat="46.06281" lon="4.51388">
        <ele>529.8</ele>
        <time>2025-09-06T08:25:48Z</time>
      </trkpt>
      <trkpt lat="46.06279" lon="4.51388">
        <ele>529.8</ele>
        <time>2025-09-06T08:25:49Z</time>
      </trkpt>
      <trkpt lat="46.06277" lon="4.51388">
        <ele>530.2</ele>
        <time>2025-09-06T08:25:50Z</time>
      </trkpt>
      <trkpt lat="46.06275" lon="4.51388">
        <ele>530.2</ele>
        <time>2025-09-06T08:25:51Z</time>
      </trkpt>
      <trkpt lat="46.06274" lon="4.51387">
        <ele>530.2</ele>
        <time>2025-09-06T08:25:52Z</time>
      </trkpt>
      <trkpt lat="46.06272" lon="4.51387">
        <ele>530.4</ele>
        <time>2025-09-06T08:25:53Z</time>
      </trkpt>
      <trkpt lat="46.06271" lon="4.51386">
        <ele>530.4</ele>
        <time>2025-09-06T08:25:54Z</time>
      </trkpt>
      <trkpt lat="46.06269" lon="4.51386">
        <ele>530.6</ele>
        <time>2025-09-06T08:25:55Z</time>
      </trkpt>
      <trkpt lat="46.06267" lon="4.51386">
        <ele>530.6</ele>
        <time>2025-09-06T08:25:56Z</time>
      </trkpt>
      <trkpt lat="46.06266" lon="4.51386">
        <ele>530.8</ele>
        <time>2025-09-06T08:25:57Z</time>
      </trkpt>
      <trkpt lat="46.06264" lon="4.51386">
        <ele>530.8</ele>
        <time>2025-09-06T08:25:58Z</time>
      </trkpt>
      <trkpt lat="46.06262" lon="4.51386">
        <ele>531.2</ele>
        <time>2025-09-06T08:25:59Z</time>
      </trkpt>
      <trkpt lat="46.0626" lon="4.51386">
        <ele>531.2</ele>
        <time>2025-09-06T08:26:00Z</time>
      </trkpt>
      <trkpt lat="46.06258" lon="4.51386">
        <ele>531.2</ele>
        <time>2025-09-06T08:26:01Z</time>
      </trkpt>
      <trkpt lat="46.06257" lon="4.51386">
        <ele>531.2</ele>
        <time>2025-09-06T08:26:02Z</time>
      </trkpt>
      <trkpt lat="46.06255" lon="4.51386">
        <ele>531.6</ele>
        <time>2025-09-06T08:26:03Z</time>
      </trkpt>
      <trkpt lat="46.06253" lon="4.51385">
        <ele>531.6</ele>
        <time>2025-09-06T08:26:04Z</time>
      </trkpt>
      <trkpt lat="46.06252" lon="4.51385">
        <ele>531.6</ele>
        <time>2025-09-06T08:26:05Z</time>
      </trkpt>
      <trkpt lat="46.0625" lon="4.51384">
        <ele>532</ele>
        <time>2025-09-06T08:26:06Z</time>
      </trkpt>
      <trkpt lat="46.06248" lon="4.51383">
        <ele>532.2</ele>
        <time>2025-09-06T08:26:07Z</time>
      </trkpt>
      <trkpt lat="46.06246" lon="4.51383">
        <ele>532.4</ele>
        <time>2025-09-06T08:26:08Z</time>
      </trkpt>
      <trkpt lat="46.06245" lon="4.51383">
        <ele>532.4</ele>
        <time>2025-09-06T08:26:09Z</time>
      </trkpt>
      <trkpt lat="46.06243" lon="4.51384">
        <ele>532.6</ele>
        <time>2025-09-06T08:26:10Z</time>
      </trkpt>
      <trkpt lat="46.06242" lon="4.51384">
        <ele>532.6</ele>
        <time>2025-09-06T08:26:11Z</time>
      </trkpt>
      <trkpt lat="46.0624" lon="4.51384">
        <ele>532.6</ele>
        <time>2025-09-06T08:26:12Z</time>
      </trkpt>
      <trkpt lat="46.06238" lon="4.51385">
        <ele>533</ele>
        <time>2025-09-06T08:26:13Z</time>
      </trkpt>
      <trkpt lat="46.06236" lon="4.51385">
        <ele>533.2</ele>
        <time>2025-09-06T08:26:14Z</time>
      </trkpt>
      <trkpt lat="46.06234" lon="4.51385">
        <ele>533.2</ele>
        <time>2025-09-06T08:26:15Z</time>
      </trkpt>
      <trkpt lat="46.06232" lon="4.51385">
        <ele>533.2</ele>
        <time>2025-09-06T08:26:16Z</time>
      </trkpt>
      <trkpt lat="46.0623" lon="4.51385">
        <ele>533.4</ele>
        <time>2025-09-06T08:26:17Z</time>
      </trkpt>
      <trkpt lat="46.06229" lon="4.51386">
        <ele>533.4</ele>
        <time>2025-09-06T08:26:18Z</time>
      </trkpt>
      <trkpt lat="46.06227" lon="4.51386">
        <ele>533.4</ele>
        <time>2025-09-06T08:26:19Z</time>
      </trkpt>
      <trkpt lat="46.06225" lon="4.51386">
        <ele>533.8</ele>
        <time>2025-09-06T08:26:20Z</time>
      </trkpt>
      <trkpt lat="46.06223" lon="4.51387">
        <ele>533.8</ele>
        <time>2025-09-06T08:26:21Z</time>
      </trkpt>
      <trkpt lat="46.06221" lon="4.51387">
        <ele>533.8</ele>
        <time>2025-09-06T08:26:22Z</time>
      </trkpt>
      <trkpt lat="46.06219" lon="4.51387">
        <ele>534</ele>
        <time>2025-09-06T08:26:23Z</time>
      </trkpt>
      <trkpt lat="46.06217" lon="4.51387">
        <ele>534</ele>
        <time>2025-09-06T08:26:24Z</time>
      </trkpt>
      <trkpt lat="46.06216" lon="4.51388">
        <ele>534.2</ele>
        <time>2025-09-06T08:26:25Z</time>
      </trkpt>
      <trkpt lat="46.06214" lon="4.51388">
        <ele>534.2</ele>
        <time>2025-09-06T08:26:26Z</time>
      </trkpt>
      <trkpt lat="46.06212" lon="4.51389">
        <ele>534.2</ele>
        <time>2025-09-06T08:26:27Z</time>
      </trkpt>
      <trkpt lat="46.06211" lon="4.51389">
        <ele>534.4</ele>
        <time>2025-09-06T08:26:28Z</time>
      </trkpt>
      <trkpt lat="46.06209" lon="4.51391">
        <ele>534.4</ele>
        <time>2025-09-06T08:26:29Z</time>
      </trkpt>
      <trkpt lat="46.06208" lon="4.51392">
        <ele>534.8</ele>
        <time>2025-09-06T08:26:30Z</time>
      </trkpt>
      <trkpt lat="46.06206" lon="4.51393">
        <ele>534.8</ele>
        <time>2025-09-06T08:26:31Z</time>
      </trkpt>
      <trkpt lat="46.06205" lon="4.51395">
        <ele>535.2</ele>
        <time>2025-09-06T08:26:32Z</time>
      </trkpt>
      <trkpt lat="46.06203" lon="4.51396">
        <ele>535.2</ele>
        <time>2025-09-06T08:26:33Z</time>
      </trkpt>
      <trkpt lat="46.06201" lon="4.51397">
        <ele>535.2</ele>
        <time>2025-09-06T08:26:34Z</time>
      </trkpt>
      <trkpt lat="46.06199" lon="4.51398">
        <ele>535.4</ele>
        <time>2025-09-06T08:26:35Z</time>
      </trkpt>
      <trkpt lat="46.06197" lon="4.51399">
        <ele>535.4</ele>
        <time>2025-09-06T08:26:36Z</time>
      </trkpt>
      <trkpt lat="46.06196" lon="4.514">
        <ele>535.4</ele>
        <time>2025-09-06T08:26:37Z</time>
      </trkpt>
      <trkpt lat="46.06194" lon="4.51401">
        <ele>535.8</ele>
        <time>2025-09-06T08:26:38Z</time>
      </trkpt>
      <trkpt lat="46.06192" lon="4.51402">
        <ele>535.8</ele>
        <time>2025-09-06T08:26:39Z</time>
      </trkpt>
      <trkpt lat="46.06191" lon="4.51404">
        <ele>536.2</ele>
        <time>2025-09-06T08:26:40Z</time>
      </trkpt>
      <trkpt lat="46.06189" lon="4.51405">
        <ele>536.4</ele>
        <time>2025-09-06T08:26:41Z</time>
      </trkpt>
      <trkpt lat="46.06187" lon="4.51406">
        <ele>536.4</ele>
        <time>2025-09-06T08:26:42Z</time>
      </trkpt>
      <trkpt lat="46.06186" lon="4.51407">
        <ele>536.4</ele>
        <time>2025-09-06T08:26:43Z</time>
      </trkpt>
      <trkpt lat="46.06184" lon="4.51409">
        <ele>536.4</ele>
        <time>2025-09-06T08:26:44Z</time>
      </trkpt>
      <trkpt lat="46.06183" lon="4.5141">
        <ele>536.8</ele>
        <time>2025-09-06T08:26:45Z</time>
      </trkpt>
      <trkpt lat="46.06182" lon="4.51411">
        <ele>536.8</ele>
        <time>2025-09-06T08:26:46Z</time>
      </trkpt>
      <trkpt lat="46.06181" lon="4.51413">
        <ele>537.2</ele>
        <time>2025-09-06T08:26:47Z</time>
      </trkpt>
      <trkpt lat="46.06179" lon="4.51414">
        <ele>537.4</ele>
        <time>2025-09-06T08:26:48Z</time>
      </trkpt>
      <trkpt lat="46.06178" lon="4.51416">
        <ele>537.4</ele>
        <time>2025-09-06T08:26:49Z</time>
      </trkpt>
      <trkpt lat="46.06177" lon="4.51418">
        <ele>537.4</ele>
        <time>2025-09-06T08:26:50Z</time>
      </trkpt>
      <trkpt lat="46.06176" lon="4.5142">
        <ele>537.8</ele>
        <time>2025-09-06T08:26:51Z</time>
      </trkpt>
      <trkpt lat="46.06175" lon="4.51422">
        <ele>537.8</ele>
        <time>2025-09-06T08:26:52Z</time>
      </trkpt>
      <trkpt lat="46.06174" lon="4.51423">
        <ele>537.8</ele>
        <time>2025-09-06T08:26:53Z</time>
      </trkpt>
      <trkpt lat="46.06173" lon="4.51425">
        <ele>537.8</ele>
        <time>2025-09-06T08:26:54Z</time>
      </trkpt>
      <trkpt lat="46.06172" lon="4.51427">
        <ele>538.2</ele>
        <time>2025-09-06T08:26:55Z</time>
      </trkpt>
      <trkpt lat="46.0617" lon="4.51429">
        <ele>538.2</ele>
        <time>2025-09-06T08:26:56Z</time>
      </trkpt>
      <trkpt lat="46.06169" lon="4.51431">
        <ele>538.2</ele>
        <time>2025-09-06T08:26:57Z</time>
      </trkpt>
      <trkpt lat="46.06168" lon="4.51433">
        <ele>538.4</ele>
        <time>2025-09-06T08:26:58Z</time>
      </trkpt>
      <trkpt lat="46.06167" lon="4.51435">
        <ele>538.6</ele>
        <time>2025-09-06T08:26:59Z</time>
      </trkpt>
      <trkpt lat="46.06166" lon="4.51437">
        <ele>538.6</ele>
        <time>2025-09-06T08:27:00Z</time>
      </trkpt>
      <trkpt lat="46.06165" lon="4.51439">
        <ele>538.6</ele>
        <time>2025-09-06T08:27:01Z</time>
      </trkpt>
      <trkpt lat="46.06164" lon="4.51441">
        <ele>538.6</ele>
        <time>2025-09-06T08:27:02Z</time>
      </trkpt>
      <trkpt lat="46.06163" lon="4.51443">
        <ele>538.6</ele>
        <time>2025-09-06T08:27:03Z</time>
      </trkpt>
      <trkpt lat="46.06162" lon="4.51445">
        <ele>538.6</ele>
        <time>2025-09-06T08:27:04Z</time>
      </trkpt>
      <trkpt lat="46.06161" lon="4.51447">
        <ele>539</ele>
        <time>2025-09-06T08:27:05Z</time>
      </trkpt>
      <trkpt lat="46.0616" lon="4.51448">
        <ele>539</ele>
        <time>2025-09-06T08:27:06Z</time>
      </trkpt>
      <trkpt lat="46.06159" lon="4.51449">
        <ele>539</ele>
        <time>2025-09-06T08:27:07Z</time>
      </trkpt>
      <trkpt lat="46.06158" lon="4.51451">
        <ele>539</ele>
        <time>2025-09-06T08:27:08Z</time>
      </trkpt>
      <trkpt lat="46.06157" lon="4.51453">
        <ele>539.2</ele>
        <time>2025-09-06T08:27:09Z</time>
      </trkpt>
      <trkpt lat="46.06156" lon="4.51455">
        <ele>539.2</ele>
        <time>2025-09-06T08:27:10Z</time>
      </trkpt>
      <trkpt lat="46.06155" lon="4.51457">
        <ele>539.2</ele>
        <time>2025-09-06T08:27:11Z</time>
      </trkpt>
      <trkpt lat="46.06154" lon="4.5146">
        <ele>539.6</ele>
        <time>2025-09-06T08:27:12Z</time>
      </trkpt>
      <trkpt lat="46.06153" lon="4.51462">
        <ele>539.8</ele>
        <time>2025-09-06T08:27:13Z</time>
      </trkpt>
      <trkpt lat="46.06152" lon="4.51464">
        <ele>539.8</ele>
        <time>2025-09-06T08:27:14Z</time>
      </trkpt>
      <trkpt lat="46.06151" lon="4.51466">
        <ele>540</ele>
        <time>2025-09-06T08:27:15Z</time>
      </trkpt>
      <trkpt lat="46.0615" lon="4.51468">
        <ele>540</ele>
        <time>2025-09-06T08:27:16Z</time>
      </trkpt>
      <trkpt lat="46.06149" lon="4.5147">
        <ele>540</ele>
        <time>2025-09-06T08:27:17Z</time>
      </trkpt>
      <trkpt lat="46.06148" lon="4.51472">
        <ele>540.2</ele>
        <time>2025-09-06T08:27:18Z</time>
      </trkpt>
      <trkpt lat="46.06147" lon="4.51475">
        <ele>540.2</ele>
        <time>2025-09-06T08:27:19Z</time>
      </trkpt>
      <trkpt lat="46.06146" lon="4.51477">
        <ele>540.4</ele>
        <time>2025-09-06T08:27:20Z</time>
      </trkpt>
      <trkpt lat="46.06145" lon="4.51478">
        <ele>540.4</ele>
        <time>2025-09-06T08:27:21Z</time>
      </trkpt>
      <trkpt lat="46.06145" lon="4.5148">
        <ele>540.4</ele>
        <time>2025-09-06T08:27:22Z</time>
      </trkpt>
      <trkpt lat="46.06144" lon="4.51482">
        <ele>540.4</ele>
        <time>2025-09-06T08:27:23Z</time>
      </trkpt>
      <trkpt lat="46.06143" lon="4.51484">
        <ele>540.8</ele>
        <time>2025-09-06T08:27:24Z</time>
      </trkpt>
      <trkpt lat="46.06142" lon="4.51486">
        <ele>540.8</ele>
        <time>2025-09-06T08:27:25Z</time>
      </trkpt>
      <trkpt lat="46.06141" lon="4.51487">
        <ele>540.8</ele>
        <time>2025-09-06T08:27:26Z</time>
      </trkpt>
      <trkpt lat="46.0614" lon="4.51489">
        <ele>541</ele>
        <time>2025-09-06T08:27:27Z</time>
      </trkpt>
      <trkpt lat="46.0614" lon="4.51491">
        <ele>541</ele>
        <time>2025-09-06T08:27:28Z</time>
      </trkpt>
      <trkpt lat="46.06139" lon="4.51492">
        <ele>541</ele>
        <time>2025-09-06T08:27:29Z</time>
      </trkpt>
      <trkpt lat="46.06138" lon="4.51494">
        <ele>541.2</ele>
        <time>2025-09-06T08:27:30Z</time>
      </trkpt>
      <trkpt lat="46.06137" lon="4.51496">
        <ele>541.2</ele>
        <time>2025-09-06T08:27:31Z</time>
      </trkpt>
      <trkpt lat="46.06136" lon="4.51497">
        <ele>541.6</ele>
        <time>2025-09-06T08:27:32Z</time>
      </trkpt>
      <trkpt lat="46.06135" lon="4.515">
        <ele>541.6</ele>
        <time>2025-09-06T08:27:33Z</time>
      </trkpt>
      <trkpt lat="46.06134" lon="4.51502">
        <ele>541.8</ele>
        <time>2025-09-06T08:27:34Z</time>
      </trkpt>
      <trkpt lat="46.06133" lon="4.51504">
        <ele>541.8</ele>
        <time>2025-09-06T08:27:35Z</time>
      </trkpt>
      <trkpt lat="46.06132" lon="4.51506">
        <ele>541.8</ele>
        <time>2025-09-06T08:27:36Z</time>
      </trkpt>
      <trkpt lat="46.06131" lon="4.51508">
        <ele>542.2</ele>
        <time>2025-09-06T08:27:37Z</time>
      </trkpt>
      <trkpt lat="46.06131" lon="4.5151">
        <ele>542.4</ele>
        <time>2025-09-06T08:27:38Z</time>
      </trkpt>
      <trkpt lat="46.0613" lon="4.51512">
        <ele>542.6</ele>
        <time>2025-09-06T08:27:39Z</time>
      </trkpt>
      <trkpt lat="46.06129" lon="4.51514">
        <ele>542.6</ele>
        <time>2025-09-06T08:27:40Z</time>
      </trkpt>
      <trkpt lat="46.06128" lon="4.51517">
        <ele>542.6</ele>
        <time>2025-09-06T08:27:41Z</time>
      </trkpt>
      <trkpt lat="46.06127" lon="4.51519">
        <ele>542.6</ele>
        <time>2025-09-06T08:27:42Z</time>
      </trkpt>
      <trkpt lat="46.06126" lon="4.5152">
        <ele>542.8</ele>
        <time>2025-09-06T08:27:43Z</time>
      </trkpt>
      <trkpt lat="46.06125" lon="4.51522">
        <ele>542.8</ele>
        <time>2025-09-06T08:27:44Z</time>
      </trkpt>
      <trkpt lat="46.06124" lon="4.51524">
        <ele>542.8</ele>
        <time>2025-09-06T08:27:45Z</time>
      </trkpt>
      <trkpt lat="46.06124" lon="4.51524">
        <ele>543.4</ele>
        <time>2025-09-06T08:27:46Z</time>
      </trkpt>
      <trkpt lat="46.06123" lon="4.51525">
        <ele>543.6</ele>
        <time>2025-09-06T08:27:47Z</time>
      </trkpt>
      <trkpt lat="46.06123" lon="4.51527">
        <ele>543.6</ele>
        <time>2025-09-06T08:27:48Z</time>
      </trkpt>
      <trkpt lat="46.06122" lon="4.51529">
        <ele>543.6</ele>
        <time>2025-09-06T08:27:49Z</time>
      </trkpt>
      <trkpt lat="46.06122" lon="4.51531">
        <ele>543.6</ele>
        <time>2025-09-06T08:27:50Z</time>
      </trkpt>
      <trkpt lat="46.06121" lon="4.51533">
        <ele>543.8</ele>
        <time>2025-09-06T08:27:51Z</time>
      </trkpt>
      <trkpt lat="46.06119" lon="4.51535">
        <ele>544.2</ele>
        <time>2025-09-06T08:27:52Z</time>
      </trkpt>
      <trkpt lat="46.06118" lon="4.51537">
        <ele>544.2</ele>
        <time>2025-09-06T08:27:53Z</time>
      </trkpt>
      <trkpt lat="46.06117" lon="4.51538">
        <ele>544.4</ele>
        <time>2025-09-06T08:27:54Z</time>
      </trkpt>
      <trkpt lat="46.06117" lon="4.5154">
        <ele>544.4</ele>
        <time>2025-09-06T08:27:55Z</time>
      </trkpt>
      <trkpt lat="46.06116" lon="4.51542">
        <ele>544.6</ele>
        <time>2025-09-06T08:27:56Z</time>
      </trkpt>
      <trkpt lat="46.06115" lon="4.51543">
        <ele>544.6</ele>
        <time>2025-09-06T08:27:57Z</time>
      </trkpt>
      <trkpt lat="46.06114" lon="4.51545">
        <ele>544.6</ele>
        <time>2025-09-06T08:27:58Z</time>
      </trkpt>
      <trkpt lat="46.06113" lon="4.51547">
        <ele>544.6</ele>
        <time>2025-09-06T08:27:59Z</time>
      </trkpt>
      <trkpt lat="46.06112" lon="4.51549">
        <ele>544.6</ele>
        <time>2025-09-06T08:28:00Z</time>
      </trkpt>
      <trkpt lat="46.06111" lon="4.51551">
        <ele>544.6</ele>
        <time>2025-09-06T08:28:01Z</time>
      </trkpt>
      <trkpt lat="46.0611" lon="4.51553">
        <ele>545</ele>
        <time>2025-09-06T08:28:02Z</time>
      </trkpt>
      <trkpt lat="46.06109" lon="4.51555">
        <ele>545.2</ele>
        <time>2025-09-06T08:28:03Z</time>
      </trkpt>
      <trkpt lat="46.06108" lon="4.51558">
        <ele>545.2</ele>
        <time>2025-09-06T08:28:04Z</time>
      </trkpt>
      <trkpt lat="46.06107" lon="4.5156">
        <ele>545.6</ele>
        <time>2025-09-06T08:28:05Z</time>
      </trkpt>
      <trkpt lat="46.06106" lon="4.51563">
        <ele>545.6</ele>
        <time>2025-09-06T08:28:06Z</time>
      </trkpt>
      <trkpt lat="46.06105" lon="4.51565">
        <ele>545.6</ele>
        <time>2025-09-06T08:28:07Z</time>
      </trkpt>
      <trkpt lat="46.06104" lon="4.51567">
        <ele>545.6</ele>
        <time>2025-09-06T08:28:08Z</time>
      </trkpt>
      <trkpt lat="46.06103" lon="4.5157">
        <ele>545.8</ele>
        <time>2025-09-06T08:28:09Z</time>
      </trkpt>
      <trkpt lat="46.06103" lon="4.51571">
        <ele>545.8</ele>
        <time>2025-09-06T08:28:10Z</time>
      </trkpt>
      <trkpt lat="46.06102" lon="4.51572">
        <ele>546.2</ele>
        <time>2025-09-06T08:28:11Z</time>
      </trkpt>
      <trkpt lat="46.06102" lon="4.51574">
        <ele>546.2</ele>
        <time>2025-09-06T08:28:12Z</time>
      </trkpt>
      <trkpt lat="46.06099" lon="4.51579">
        <ele>546.6</ele>
        <time>2025-09-06T08:28:13Z</time>
      </trkpt>
      <trkpt lat="46.06099" lon="4.51581">
        <ele>546.8</ele>
        <time>2025-09-06T08:28:14Z</time>
      </trkpt>
      <trkpt lat="46.06098" lon="4.51583">
        <ele>546.8</ele>
        <time>2025-09-06T08:28:15Z</time>
      </trkpt>
      <trkpt lat="46.06097" lon="4.51586">
        <ele>546.8</ele>
        <time>2025-09-06T08:28:16Z</time>
      </trkpt>
      <trkpt lat="46.06096" lon="4.51589">
        <ele>547</ele>
        <time>2025-09-06T08:28:17Z</time>
      </trkpt>
      <trkpt lat="46.06096" lon="4.51592">
        <ele>547</ele>
        <time>2025-09-06T08:28:18Z</time>
      </trkpt>
      <trkpt lat="46.06095" lon="4.51594">
        <ele>547</ele>
        <time>2025-09-06T08:28:19Z</time>
      </trkpt>
      <trkpt lat="46.06095" lon="4.51597">
        <ele>547</ele>
        <time>2025-09-06T08:28:20Z</time>
      </trkpt>
      <trkpt lat="46.06094" lon="4.516">
        <ele>547.4</ele>
        <time>2025-09-06T08:28:21Z</time>
      </trkpt>
      <trkpt lat="46.06094" lon="4.51603">
        <ele>547.6</ele>
        <time>2025-09-06T08:28:22Z</time>
      </trkpt>
      <trkpt lat="46.06093" lon="4.51606">
        <ele>547.8</ele>
        <time>2025-09-06T08:28:23Z</time>
      </trkpt>
      <trkpt lat="46.06093" lon="4.51608">
        <ele>548.2</ele>
        <time>2025-09-06T08:28:24Z</time>
      </trkpt>
      <trkpt lat="46.06092" lon="4.51611">
        <ele>548.2</ele>
        <time>2025-09-06T08:28:25Z</time>
      </trkpt>
      <trkpt lat="46.06092" lon="4.51613">
        <ele>548.2</ele>
        <time>2025-09-06T08:28:26Z</time>
      </trkpt>
      <trkpt lat="46.06092" lon="4.51616">
        <ele>548.2</ele>
        <time>2025-09-06T08:28:27Z</time>
      </trkpt>
      <trkpt lat="46.06092" lon="4.51619">
        <ele>548.6</ele>
        <time>2025-09-06T08:28:28Z</time>
      </trkpt>
      <trkpt lat="46.06092" lon="4.51623">
        <ele>548.8</ele>
        <time>2025-09-06T08:28:29Z</time>
      </trkpt>
      <trkpt lat="46.06092" lon="4.51626">
        <ele>548.8</ele>
        <time>2025-09-06T08:28:30Z</time>
      </trkpt>
      <trkpt lat="46.06091" lon="4.51629">
        <ele>548.8</ele>
        <time>2025-09-06T08:28:31Z</time>
      </trkpt>
      <trkpt lat="46.06091" lon="4.51631">
        <ele>549</ele>
        <time>2025-09-06T08:28:32Z</time>
      </trkpt>
      <trkpt lat="46.0609" lon="4.51633">
        <ele>549</ele>
        <time>2025-09-06T08:28:33Z</time>
      </trkpt>
      <trkpt lat="46.06089" lon="4.51636">
        <ele>549</ele>
        <time>2025-09-06T08:28:34Z</time>
      </trkpt>
      <trkpt lat="46.06088" lon="4.51638">
        <ele>549.4</ele>
        <time>2025-09-06T08:28:35Z</time>
      </trkpt>
      <trkpt lat="46.06087" lon="4.51641">
        <ele>549.4</ele>
        <time>2025-09-06T08:28:36Z</time>
      </trkpt>
      <trkpt lat="46.06086" lon="4.51645">
        <ele>549.4</ele>
        <time>2025-09-06T08:28:37Z</time>
      </trkpt>
      <trkpt lat="46.06086" lon="4.51649">
        <ele>549.6</ele>
        <time>2025-09-06T08:28:38Z</time>
      </trkpt>
      <trkpt lat="46.06085" lon="4.51652">
        <ele>549.6</ele>
        <time>2025-09-06T08:28:39Z</time>
      </trkpt>
      <trkpt lat="46.06085" lon="4.51654">
        <ele>550</ele>
        <time>2025-09-06T08:28:40Z</time>
      </trkpt>
      <trkpt lat="46.06084" lon="4.51656">
        <ele>550</ele>
        <time>2025-09-06T08:28:41Z</time>
      </trkpt>
      <trkpt lat="46.06083" lon="4.51658">
        <ele>550</ele>
        <time>2025-09-06T08:28:42Z</time>
      </trkpt>
      <trkpt lat="46.06083" lon="4.5166">
        <ele>550.2</ele>
        <time>2025-09-06T08:28:43Z</time>
      </trkpt>
      <trkpt lat="46.06082" lon="4.51662">
        <ele>550.2</ele>
        <time>2025-09-06T08:28:44Z</time>
      </trkpt>
      <trkpt lat="46.06082" lon="4.51664">
        <ele>550.4</ele>
        <time>2025-09-06T08:28:45Z</time>
      </trkpt>
      <trkpt lat="46.06082" lon="4.51666">
        <ele>550.4</ele>
        <time>2025-09-06T08:28:46Z</time>
      </trkpt>
      <trkpt lat="46.06082" lon="4.51668">
        <ele>550.6</ele>
        <time>2025-09-06T08:28:47Z</time>
      </trkpt>
      <trkpt lat="46.06082" lon="4.51671">
        <ele>550.6</ele>
        <time>2025-09-06T08:28:48Z</time>
      </trkpt>
      <trkpt lat="46.06082" lon="4.51673">
        <ele>550.6</ele>
        <time>2025-09-06T08:28:49Z</time>
      </trkpt>
      <trkpt lat="46.06082" lon="4.51675">
        <ele>551</ele>
        <time>2025-09-06T08:28:50Z</time>
      </trkpt>
      <trkpt lat="46.06082" lon="4.51678">
        <ele>551</ele>
        <time>2025-09-06T08:28:51Z</time>
      </trkpt>
      <trkpt lat="46.06082" lon="4.5168">
        <ele>551.2</ele>
        <time>2025-09-06T08:28:52Z</time>
      </trkpt>
      <trkpt lat="46.06082" lon="4.51683">
        <ele>551.2</ele>
        <time>2025-09-06T08:28:53Z</time>
      </trkpt>
      <trkpt lat="46.06082" lon="4.51685">
        <ele>551.2</ele>
        <time>2025-09-06T08:28:54Z</time>
      </trkpt>
      <trkpt lat="46.06082" lon="4.51688">
        <ele>551.6</ele>
        <time>2025-09-06T08:28:55Z</time>
      </trkpt>
      <trkpt lat="46.06082" lon="4.51691">
        <ele>551.6</ele>
        <time>2025-09-06T08:28:56Z</time>
      </trkpt>
      <trkpt lat="46.06083" lon="4.51693">
        <ele>552</ele>
        <time>2025-09-06T08:28:57Z</time>
      </trkpt>
      <trkpt lat="46.06083" lon="4.51696">
        <ele>552</ele>
        <time>2025-09-06T08:28:58Z</time>
      </trkpt>
      <trkpt lat="46.06083" lon="4.51699">
        <ele>552</ele>
        <time>2025-09-06T08:28:59Z</time>
      </trkpt>
      <trkpt lat="46.06083" lon="4.51702">
        <ele>552</ele>
        <time>2025-09-06T08:29:00Z</time>
      </trkpt>
      <trkpt lat="46.06084" lon="4.51704">
        <ele>552</ele>
        <time>2025-09-06T08:29:01Z</time>
      </trkpt>
      <trkpt lat="46.06084" lon="4.51706">
        <ele>552.2</ele>
        <time>2025-09-06T08:29:02Z</time>
      </trkpt>
      <trkpt lat="46.06085" lon="4.51709">
        <ele>552.2</ele>
        <time>2025-09-06T08:29:03Z</time>
      </trkpt>
      <trkpt lat="46.06086" lon="4.51711">
        <ele>552.6</ele>
        <time>2025-09-06T08:29:04Z</time>
      </trkpt>
      <trkpt lat="46.06086" lon="4.51713">
        <ele>552.8</ele>
        <time>2025-09-06T08:29:05Z</time>
      </trkpt>
      <trkpt lat="46.06087" lon="4.51716">
        <ele>552.8</ele>
        <time>2025-09-06T08:29:06Z</time>
      </trkpt>
      <trkpt lat="46.06087" lon="4.51718">
        <ele>552.8</ele>
        <time>2025-09-06T08:29:07Z</time>
      </trkpt>
      <trkpt lat="46.06088" lon="4.5172">
        <ele>553.2</ele>
        <time>2025-09-06T08:29:08Z</time>
      </trkpt>
      <trkpt lat="46.06088" lon="4.51722">
        <ele>553.4</ele>
        <time>2025-09-06T08:29:09Z</time>
      </trkpt>
      <trkpt lat="46.06089" lon="4.51724">
        <ele>553.4</ele>
        <time>2025-09-06T08:29:10Z</time>
      </trkpt>
      <trkpt lat="46.06089" lon="4.51727">
        <ele>553.8</ele>
        <time>2025-09-06T08:29:11Z</time>
      </trkpt>
      <trkpt lat="46.0609" lon="4.51729">
        <ele>554.2</ele>
        <time>2025-09-06T08:29:12Z</time>
      </trkpt>
      <trkpt lat="46.0609" lon="4.51732">
        <ele>554.2</ele>
        <time>2025-09-06T08:29:13Z</time>
      </trkpt>
      <trkpt lat="46.06091" lon="4.51734">
        <ele>554.2</ele>
        <time>2025-09-06T08:29:14Z</time>
      </trkpt>
      <trkpt lat="46.06091" lon="4.51736">
        <ele>554.2</ele>
        <time>2025-09-06T08:29:15Z</time>
      </trkpt>
      <trkpt lat="46.06092" lon="4.51739">
        <ele>554.4</ele>
        <time>2025-09-06T08:29:16Z</time>
      </trkpt>
      <trkpt lat="46.06092" lon="4.51741">
        <ele>554.6</ele>
        <time>2025-09-06T08:29:17Z</time>
      </trkpt>
      <trkpt lat="46.06093" lon="4.51743">
        <ele>554.8</ele>
        <time>2025-09-06T08:29:18Z</time>
      </trkpt>
      <trkpt lat="46.06093" lon="4.51745">
        <ele>554.8</ele>
        <time>2025-09-06T08:29:19Z</time>
      </trkpt>
      <trkpt lat="46.06094" lon="4.51748">
        <ele>555</ele>
        <time>2025-09-06T08:29:20Z</time>
      </trkpt>
      <trkpt lat="46.06094" lon="4.5175">
        <ele>555</ele>
        <time>2025-09-06T08:29:21Z</time>
      </trkpt>
      <trkpt lat="46.06095" lon="4.51752">
        <ele>555.2</ele>
        <time>2025-09-06T08:29:22Z</time>
      </trkpt>
      <trkpt lat="46.06095" lon="4.51755">
        <ele>555.2</ele>
        <time>2025-09-06T08:29:23Z</time>
      </trkpt>
      <trkpt lat="46.06095" lon="4.51758">
        <ele>555.6</ele>
        <time>2025-09-06T08:29:24Z</time>
      </trkpt>
      <trkpt lat="46.06096" lon="4.5176">
        <ele>555.6</ele>
        <time>2025-09-06T08:29:25Z</time>
      </trkpt>
      <trkpt lat="46.06096" lon="4.51763">
        <ele>555.6</ele>
        <time>2025-09-06T08:29:26Z</time>
      </trkpt>
      <trkpt lat="46.06097" lon="4.51766">
        <ele>555.8</ele>
        <time>2025-09-06T08:29:27Z</time>
      </trkpt>
      <trkpt lat="46.06097" lon="4.51769">
        <ele>555.8</ele>
        <time>2025-09-06T08:29:28Z</time>
      </trkpt>
      <trkpt lat="46.06098" lon="4.51772">
        <ele>555.8</ele>
        <time>2025-09-06T08:29:29Z</time>
      </trkpt>
      <trkpt lat="46.06098" lon="4.51774">
        <ele>556</ele>
        <time>2025-09-06T08:29:30Z</time>
      </trkpt>
      <trkpt lat="46.06098" lon="4.51776">
        <ele>556.4</ele>
        <time>2025-09-06T08:29:31Z</time>
      </trkpt>
      <trkpt lat="46.06099" lon="4.51779">
        <ele>556.4</ele>
        <time>2025-09-06T08:29:32Z</time>
      </trkpt>
      <trkpt lat="46.06099" lon="4.51781">
        <ele>556.4</ele>
        <time>2025-09-06T08:29:33Z</time>
      </trkpt>
      <trkpt lat="46.061" lon="4.51784">
        <ele>556.4</ele>
        <time>2025-09-06T08:29:34Z</time>
      </trkpt>
      <trkpt lat="46.061" lon="4.51787">
        <ele>556.4</ele>
        <time>2025-09-06T08:29:35Z</time>
      </trkpt>
      <trkpt lat="46.06101" lon="4.51789">
        <ele>556.6</ele>
        <time>2025-09-06T08:29:36Z</time>
      </trkpt>
      <trkpt lat="46.06102" lon="4.51791">
        <ele>556.8</ele>
        <time>2025-09-06T08:29:37Z</time>
      </trkpt>
      <trkpt lat="46.06103" lon="4.51794">
        <ele>557</ele>
        <time>2025-09-06T08:29:38Z</time>
      </trkpt>
      <trkpt lat="46.06103" lon="4.51796">
        <ele>557</ele>
        <time>2025-09-06T08:29:39Z</time>
      </trkpt>
      <trkpt lat="46.06104" lon="4.51798">
        <ele>557.4</ele>
        <time>2025-09-06T08:29:40Z</time>
      </trkpt>
      <trkpt lat="46.06104" lon="4.51801">
        <ele>557.4</ele>
        <time>2025-09-06T08:29:41Z</time>
      </trkpt>
      <trkpt lat="46.06105" lon="4.51803">
        <ele>557.4</ele>
        <time>2025-09-06T08:29:42Z</time>
      </trkpt>
      <trkpt lat="46.06105" lon="4.51805">
        <ele>557.6</ele>
        <time>2025-09-06T08:29:43Z</time>
      </trkpt>
      <trkpt lat="46.06106" lon="4.51808">
        <ele>557.6</ele>
        <time>2025-09-06T08:29:44Z</time>
      </trkpt>
      <trkpt lat="46.06107" lon="4.5181">
        <ele>557.6</ele>
        <time>2025-09-06T08:29:45Z</time>
      </trkpt>
      <trkpt lat="46.06107" lon="4.51812">
        <ele>557.6</ele>
        <time>2025-09-06T08:29:46Z</time>
      </trkpt>
      <trkpt lat="46.06108" lon="4.51814">
        <ele>557.8</ele>
        <time>2025-09-06T08:29:47Z</time>
      </trkpt>
      <trkpt lat="46.06109" lon="4.51816">
        <ele>558.2</ele>
        <time>2025-09-06T08:29:48Z</time>
      </trkpt>
      <trkpt lat="46.06109" lon="4.51819">
        <ele>558.4</ele>
        <time>2025-09-06T08:29:49Z</time>
      </trkpt>
      <trkpt lat="46.0611" lon="4.51821">
        <ele>558.6</ele>
        <time>2025-09-06T08:29:50Z</time>
      </trkpt>
      <trkpt lat="46.0611" lon="4.51823">
        <ele>558.6</ele>
        <time>2025-09-06T08:29:51Z</time>
      </trkpt>
      <trkpt lat="46.06111" lon="4.51825">
        <ele>558.6</ele>
        <time>2025-09-06T08:29:52Z</time>
      </trkpt>
      <trkpt lat="46.06111" lon="4.51827">
        <ele>559.2</ele>
        <time>2025-09-06T08:29:53Z</time>
      </trkpt>
      <trkpt lat="46.06111" lon="4.51829">
        <ele>559.2</ele>
        <time>2025-09-06T08:29:54Z</time>
      </trkpt>
      <trkpt lat="46.06112" lon="4.51831">
        <ele>559.2</ele>
        <time>2025-09-06T08:29:55Z</time>
      </trkpt>
      <trkpt lat="46.06113" lon="4.51833">
        <ele>559.4</ele>
        <time>2025-09-06T08:29:56Z</time>
      </trkpt>
      <trkpt lat="46.06113" lon="4.51835">
        <ele>559.4</ele>
        <time>2025-09-06T08:29:57Z</time>
      </trkpt>
      <trkpt lat="46.06114" lon="4.51838">
        <ele>559.4</ele>
        <time>2025-09-06T08:29:58Z</time>
      </trkpt>
      <trkpt lat="46.06114" lon="4.5184">
        <ele>559.6</ele>
        <time>2025-09-06T08:29:59Z</time>
      </trkpt>
      <trkpt lat="46.06115" lon="4.51842">
        <ele>559.8</ele>
        <time>2025-09-06T08:30:00Z</time>
      </trkpt>
      <trkpt lat="46.06116" lon="4.51844">
        <ele>559.8</ele>
        <time>2025-09-06T08:30:01Z</time>
      </trkpt>
      <trkpt lat="46.06117" lon="4.51846">
        <ele>560.2</ele>
        <time>2025-09-06T08:30:02Z</time>
      </trkpt>
      <trkpt lat="46.06118" lon="4.51848">
        <ele>560.2</ele>
        <time>2025-09-06T08:30:03Z</time>
      </trkpt>
      <trkpt lat="46.06118" lon="4.5185">
        <ele>560.4</ele>
        <time>2025-09-06T08:30:04Z</time>
      </trkpt>
      <trkpt lat="46.06119" lon="4.51853">
        <ele>560.4</ele>
        <time>2025-09-06T08:30:05Z</time>
      </trkpt>
      <trkpt lat="46.0612" lon="4.51855">
        <ele>560.4</ele>
        <time>2025-09-06T08:30:06Z</time>
      </trkpt>
      <trkpt lat="46.06121" lon="4.51857">
        <ele>560.4</ele>
        <time>2025-09-06T08:30:07Z</time>
      </trkpt>
      <trkpt lat="46.06122" lon="4.51859">
        <ele>560.8</ele>
        <time>2025-09-06T08:30:08Z</time>
      </trkpt>
      <trkpt lat="46.06122" lon="4.51861">
        <ele>560.8</ele>
        <time>2025-09-06T08:30:09Z</time>
      </trkpt>
      <trkpt lat="46.06123" lon="4.51863">
        <ele>560.8</ele>
        <time>2025-09-06T08:30:10Z</time>
      </trkpt>
      <trkpt lat="46.06124" lon="4.51865">
        <ele>560.8</ele>
        <time>2025-09-06T08:30:11Z</time>
      </trkpt>
      <trkpt lat="46.06125" lon="4.51867">
        <ele>561</ele>
        <time>2025-09-06T08:30:12Z</time>
      </trkpt>
      <trkpt lat="46.06126" lon="4.51869">
        <ele>561.2</ele>
        <time>2025-09-06T08:30:13Z</time>
      </trkpt>
      <trkpt lat="46.06127" lon="4.51871">
        <ele>561.2</ele>
        <time>2025-09-06T08:30:14Z</time>
      </trkpt>
      <trkpt lat="46.06128" lon="4.51873">
        <ele>561.6</ele>
        <time>2025-09-06T08:30:15Z</time>
      </trkpt>
      <trkpt lat="46.06129" lon="4.51875">
        <ele>561.6</ele>
        <time>2025-09-06T08:30:16Z</time>
      </trkpt>
      <trkpt lat="46.0613" lon="4.51877">
        <ele>561.6</ele>
        <time>2025-09-06T08:30:17Z</time>
      </trkpt>
      <trkpt lat="46.06131" lon="4.51879">
        <ele>561.8</ele>
        <time>2025-09-06T08:30:18Z</time>
      </trkpt>
      <trkpt lat="46.06132" lon="4.5188">
        <ele>561.8</ele>
        <time>2025-09-06T08:30:19Z</time>
      </trkpt>
      <trkpt lat="46.06133" lon="4.51882">
        <ele>561.8</ele>
        <time>2025-09-06T08:30:20Z</time>
      </trkpt>
      <trkpt lat="46.06134" lon="4.51884">
        <ele>561.8</ele>
        <time>2025-09-06T08:30:21Z</time>
      </trkpt>
      <trkpt lat="46.06135" lon="4.51886">
        <ele>562</ele>
        <time>2025-09-06T08:30:22Z</time>
      </trkpt>
      <trkpt lat="46.06136" lon="4.51888">
        <ele>562</ele>
        <time>2025-09-06T08:30:23Z</time>
      </trkpt>
      <trkpt lat="46.06137" lon="4.5189">
        <ele>562</ele>
        <time>2025-09-06T08:30:24Z</time>
      </trkpt>
      <trkpt lat="46.06138" lon="4.51892">
        <ele>562.2</ele>
        <time>2025-09-06T08:30:25Z</time>
      </trkpt>
      <trkpt lat="46.06139" lon="4.51894">
        <ele>562.2</ele>
        <time>2025-09-06T08:30:26Z</time>
      </trkpt>
      <trkpt lat="46.0614" lon="4.51896">
        <ele>562.2</ele>
        <time>2025-09-06T08:30:27Z</time>
      </trkpt>
      <trkpt lat="46.06141" lon="4.51898">
        <ele>562.4</ele>
        <time>2025-09-06T08:30:28Z</time>
      </trkpt>
      <trkpt lat="46.06142" lon="4.519">
        <ele>562.4</ele>
        <time>2025-09-06T08:30:29Z</time>
      </trkpt>
      <trkpt lat="46.06143" lon="4.51903">
        <ele>562.4</ele>
        <time>2025-09-06T08:30:30Z</time>
      </trkpt>
      <trkpt lat="46.06143" lon="4.51905">
        <ele>562.8</ele>
        <time>2025-09-06T08:30:31Z</time>
      </trkpt>
      <trkpt lat="46.06144" lon="4.51908">
        <ele>562.8</ele>
        <time>2025-09-06T08:30:32Z</time>
      </trkpt>
      <trkpt lat="46.06145" lon="4.51911">
        <ele>563.2</ele>
        <time>2025-09-06T08:30:33Z</time>
      </trkpt>
      <trkpt lat="46.06145" lon="4.51913">
        <ele>563.2</ele>
        <time>2025-09-06T08:30:34Z</time>
      </trkpt>
      <trkpt lat="46.06146" lon="4.51916">
        <ele>563.2</ele>
        <time>2025-09-06T08:30:35Z</time>
      </trkpt>
      <trkpt lat="46.06146" lon="4.51918">
        <ele>563.6</ele>
        <time>2025-09-06T08:30:36Z</time>
      </trkpt>
      <trkpt lat="46.06147" lon="4.51921">
        <ele>563.6</ele>
        <time>2025-09-06T08:30:37Z</time>
      </trkpt>
      <trkpt lat="46.06147" lon="4.51924">
        <ele>563.8</ele>
        <time>2025-09-06T08:30:38Z</time>
      </trkpt>
      <trkpt lat="46.06147" lon="4.51926">
        <ele>564.2</ele>
        <time>2025-09-06T08:30:39Z</time>
      </trkpt>
      <trkpt lat="46.06148" lon="4.51928">
        <ele>564.4</ele>
        <time>2025-09-06T08:30:40Z</time>
      </trkpt>
      <trkpt lat="46.06148" lon="4.51931">
        <ele>564.4</ele>
        <time>2025-09-06T08:30:41Z</time>
      </trkpt>
      <trkpt lat="46.06148" lon="4.51933">
        <ele>564.4</ele>
        <time>2025-09-06T08:30:42Z</time>
      </trkpt>
      <trkpt lat="46.06148" lon="4.51936">
        <ele>564.8</ele>
        <time>2025-09-06T08:30:43Z</time>
      </trkpt>
      <trkpt lat="46.06149" lon="4.51938">
        <ele>564.8</ele>
        <time>2025-09-06T08:30:44Z</time>
      </trkpt>
      <trkpt lat="46.06149" lon="4.51941">
        <ele>565</ele>
        <time>2025-09-06T08:30:45Z</time>
      </trkpt>
      <trkpt lat="46.06149" lon="4.51944">
        <ele>565</ele>
        <time>2025-09-06T08:30:46Z</time>
      </trkpt>
      <trkpt lat="46.06149" lon="4.51946">
        <ele>565.4</ele>
        <time>2025-09-06T08:30:47Z</time>
      </trkpt>
      <trkpt lat="46.0615" lon="4.51949">
        <ele>565.4</ele>
        <time>2025-09-06T08:30:48Z</time>
      </trkpt>
      <trkpt lat="46.0615" lon="4.51951">
        <ele>565.4</ele>
        <time>2025-09-06T08:30:49Z</time>
      </trkpt>
      <trkpt lat="46.06151" lon="4.51953">
        <ele>565.4</ele>
        <time>2025-09-06T08:30:50Z</time>
      </trkpt>
      <trkpt lat="46.06151" lon="4.51956">
        <ele>565.8</ele>
        <time>2025-09-06T08:30:51Z</time>
      </trkpt>
      <trkpt lat="46.06152" lon="4.51958">
        <ele>565.8</ele>
        <time>2025-09-06T08:30:52Z</time>
      </trkpt>
      <trkpt lat="46.06152" lon="4.5196">
        <ele>565.8</ele>
        <time>2025-09-06T08:30:53Z</time>
      </trkpt>
      <trkpt lat="46.06152" lon="4.51962">
        <ele>566.2</ele>
        <time>2025-09-06T08:30:54Z</time>
      </trkpt>
      <trkpt lat="46.06153" lon="4.51965">
        <ele>566.4</ele>
        <time>2025-09-06T08:30:55Z</time>
      </trkpt>
      <trkpt lat="46.06153" lon="4.51967">
        <ele>566.4</ele>
        <time>2025-09-06T08:30:56Z</time>
      </trkpt>
      <trkpt lat="46.06154" lon="4.51969">
        <ele>566.4</ele>
        <time>2025-09-06T08:30:57Z</time>
      </trkpt>
      <trkpt lat="46.06155" lon="4.51971">
        <ele>566.8</ele>
        <time>2025-09-06T08:30:58Z</time>
      </trkpt>
      <trkpt lat="46.06155" lon="4.51973">
        <ele>567</ele>
        <time>2025-09-06T08:30:59Z</time>
      </trkpt>
      <trkpt lat="46.06156" lon="4.51976">
        <ele>567</ele>
        <time>2025-09-06T08:31:00Z</time>
      </trkpt>
      <trkpt lat="46.06156" lon="4.51978">
        <ele>567</ele>
        <time>2025-09-06T08:31:01Z</time>
      </trkpt>
      <trkpt lat="46.06157" lon="4.5198">
        <ele>567</ele>
        <time>2025-09-06T08:31:02Z</time>
      </trkpt>
      <trkpt lat="46.06157" lon="4.51982">
        <ele>567</ele>
        <time>2025-09-06T08:31:03Z</time>
      </trkpt>
      <trkpt lat="46.06158" lon="4.51984">
        <ele>567</ele>
        <time>2025-09-06T08:31:04Z</time>
      </trkpt>
      <trkpt lat="46.06159" lon="4.51986">
        <ele>567.2</ele>
        <time>2025-09-06T08:31:05Z</time>
      </trkpt>
      <trkpt lat="46.06159" lon="4.51986">
        <ele>567.2</ele>
        <time>2025-09-06T08:31:06Z</time>
      </trkpt>
      <trkpt lat="46.0616" lon="4.51988">
        <ele>567.2</ele>
        <time>2025-09-06T08:31:07Z</time>
      </trkpt>
      <trkpt lat="46.06161" lon="4.5199">
        <ele>567.2</ele>
        <time>2025-09-06T08:31:08Z</time>
      </trkpt>
      <trkpt lat="46.06162" lon="4.51992">
        <ele>567.8</ele>
        <time>2025-09-06T08:31:09Z</time>
      </trkpt>
      <trkpt lat="46.06162" lon="4.51993">
        <ele>567.8</ele>
        <time>2025-09-06T08:31:10Z</time>
      </trkpt>
      <trkpt lat="46.06163" lon="4.51995">
        <ele>567.8</ele>
        <time>2025-09-06T08:31:11Z</time>
      </trkpt>
      <trkpt lat="46.06164" lon="4.51997">
        <ele>567.8</ele>
        <time>2025-09-06T08:31:12Z</time>
      </trkpt>
      <trkpt lat="46.06164" lon="4.51999">
        <ele>568.2</ele>
        <time>2025-09-06T08:31:13Z</time>
      </trkpt>
      <trkpt lat="46.06165" lon="4.52001">
        <ele>568.2</ele>
        <time>2025-09-06T08:31:14Z</time>
      </trkpt>
      <trkpt lat="46.06166" lon="4.52003">
        <ele>568.2</ele>
        <time>2025-09-06T08:31:15Z</time>
      </trkpt>
      <trkpt lat="46.06167" lon="4.52005">
        <ele>568.6</ele>
        <time>2025-09-06T08:31:16Z</time>
      </trkpt>
      <trkpt lat="46.06167" lon="4.52006">
        <ele>568.8</ele>
        <time>2025-09-06T08:31:17Z</time>
      </trkpt>
      <trkpt lat="46.06169" lon="4.52008">
        <ele>569.2</ele>
        <time>2025-09-06T08:31:18Z</time>
      </trkpt>
      <trkpt lat="46.0617" lon="4.5201">
        <ele>569.2</ele>
        <time>2025-09-06T08:31:19Z</time>
      </trkpt>
      <trkpt lat="46.06171" lon="4.52011">
        <ele>569.2</ele>
        <time>2025-09-06T08:31:20Z</time>
      </trkpt>
      <trkpt lat="46.06173" lon="4.52012">
        <ele>569.2</ele>
        <time>2025-09-06T08:31:21Z</time>
      </trkpt>
      <trkpt lat="46.06174" lon="4.52014">
        <ele>569.4</ele>
        <time>2025-09-06T08:31:22Z</time>
      </trkpt>
      <trkpt lat="46.06175" lon="4.52016">
        <ele>569.6</ele>
        <time>2025-09-06T08:31:23Z</time>
      </trkpt>
      <trkpt lat="46.06176" lon="4.52017">
        <ele>569.6</ele>
        <time>2025-09-06T08:31:24Z</time>
      </trkpt>
      <trkpt lat="46.06178" lon="4.52019">
        <ele>569.8</ele>
        <time>2025-09-06T08:31:25Z</time>
      </trkpt>
      <trkpt lat="46.06179" lon="4.5202">
        <ele>569.8</ele>
        <time>2025-09-06T08:31:26Z</time>
      </trkpt>
      <trkpt lat="46.0618" lon="4.52021">
        <ele>569.8</ele>
        <time>2025-09-06T08:31:27Z</time>
      </trkpt>
      <trkpt lat="46.06182" lon="4.52022">
        <ele>570.2</ele>
        <time>2025-09-06T08:31:28Z</time>
      </trkpt>
      <trkpt lat="46.06183" lon="4.52023">
        <ele>570.2</ele>
        <time>2025-09-06T08:31:29Z</time>
      </trkpt>
      <trkpt lat="46.06184" lon="4.52025">
        <ele>570.2</ele>
        <time>2025-09-06T08:31:30Z</time>
      </trkpt>
      <trkpt lat="46.06185" lon="4.52026">
        <ele>570.2</ele>
        <time>2025-09-06T08:31:31Z</time>
      </trkpt>
      <trkpt lat="46.06188" lon="4.52031">
        <ele>570.2</ele>
        <time>2025-09-06T08:31:32Z</time>
      </trkpt>
      <trkpt lat="46.06188" lon="4.52033">
        <ele>570.4</ele>
        <time>2025-09-06T08:31:33Z</time>
      </trkpt>
      <trkpt lat="46.06189" lon="4.52036">
        <ele>570.4</ele>
        <time>2025-09-06T08:31:34Z</time>
      </trkpt>
      <trkpt lat="46.06189" lon="4.52038">
        <ele>570.4</ele>
        <time>2025-09-06T08:31:35Z</time>
      </trkpt>
      <trkpt lat="46.06189" lon="4.5204">
        <ele>570.6</ele>
        <time>2025-09-06T08:31:36Z</time>
      </trkpt>
      <trkpt lat="46.0619" lon="4.52043">
        <ele>570.6</ele>
        <time>2025-09-06T08:31:37Z</time>
      </trkpt>
      <trkpt lat="46.0619" lon="4.52044">
        <ele>570.6</ele>
        <time>2025-09-06T08:31:38Z</time>
      </trkpt>
      <trkpt lat="46.06191" lon="4.52045">
        <ele>571</ele>
        <time>2025-09-06T08:31:39Z</time>
      </trkpt>
      <trkpt lat="46.06193" lon="4.52046">
        <ele>571</ele>
        <time>2025-09-06T08:31:40Z</time>
      </trkpt>
      <trkpt lat="46.06193" lon="4.52048">
        <ele>571.2</ele>
        <time>2025-09-06T08:31:41Z</time>
      </trkpt>
      <trkpt lat="46.06193" lon="4.52051">
        <ele>571.2</ele>
        <time>2025-09-06T08:31:42Z</time>
      </trkpt>
      <trkpt lat="46.06192" lon="4.52053">
        <ele>571.6</ele>
        <time>2025-09-06T08:31:43Z</time>
      </trkpt>
      <trkpt lat="46.06191" lon="4.52056">
        <ele>571.6</ele>
        <time>2025-09-06T08:31:44Z</time>
      </trkpt>
      <trkpt lat="46.06191" lon="4.52058">
        <ele>571.8</ele>
        <time>2025-09-06T08:31:45Z</time>
      </trkpt>
      <trkpt lat="46.0619" lon="4.5206">
        <ele>571.8</ele>
        <time>2025-09-06T08:31:46Z</time>
      </trkpt>
      <trkpt lat="46.06189" lon="4.52063">
        <ele>572.2</ele>
        <time>2025-09-06T08:31:47Z</time>
      </trkpt>
      <trkpt lat="46.06188" lon="4.52065">
        <ele>572.2</ele>
        <time>2025-09-06T08:31:48Z</time>
      </trkpt>
      <trkpt lat="46.06187" lon="4.52067">
        <ele>572.2</ele>
        <time>2025-09-06T08:31:49Z</time>
      </trkpt>
      <trkpt lat="46.06186" lon="4.52069">
        <ele>572.2</ele>
        <time>2025-09-06T08:31:50Z</time>
      </trkpt>
      <trkpt lat="46.06185" lon="4.52071">
        <ele>572.2</ele>
        <time>2025-09-06T08:31:51Z</time>
      </trkpt>
      <trkpt lat="46.06184" lon="4.52073">
        <ele>572.4</ele>
        <time>2025-09-06T08:31:52Z</time>
      </trkpt>
      <trkpt lat="46.06183" lon="4.52076">
        <ele>572.4</ele>
        <time>2025-09-06T08:31:53Z</time>
      </trkpt>
      <trkpt lat="46.06182" lon="4.52078">
        <ele>572.8</ele>
        <time>2025-09-06T08:31:54Z</time>
      </trkpt>
      <trkpt lat="46.06181" lon="4.52081">
        <ele>572.8</ele>
        <time>2025-09-06T08:31:55Z</time>
      </trkpt>
      <trkpt lat="46.0618" lon="4.52083">
        <ele>572.8</ele>
        <time>2025-09-06T08:31:56Z</time>
      </trkpt>
      <trkpt lat="46.0618" lon="4.52085">
        <ele>573</ele>
        <time>2025-09-06T08:31:57Z</time>
      </trkpt>
      <trkpt lat="46.06179" lon="4.52088">
        <ele>573</ele>
        <time>2025-09-06T08:31:58Z</time>
      </trkpt>
      <trkpt lat="46.06178" lon="4.52091">
        <ele>573.2</ele>
        <time>2025-09-06T08:31:59Z</time>
      </trkpt>
      <trkpt lat="46.06178" lon="4.52093">
        <ele>573.4</ele>
        <time>2025-09-06T08:32:00Z</time>
      </trkpt>
      <trkpt lat="46.06177" lon="4.52095">
        <ele>573.4</ele>
        <time>2025-09-06T08:32:01Z</time>
      </trkpt>
      <trkpt lat="46.06176" lon="4.52098">
        <ele>573.4</ele>
        <time>2025-09-06T08:32:02Z</time>
      </trkpt>
      <trkpt lat="46.06176" lon="4.521">
        <ele>573.8</ele>
        <time>2025-09-06T08:32:03Z</time>
      </trkpt>
      <trkpt lat="46.06175" lon="4.52102">
        <ele>573.8</ele>
        <time>2025-09-06T08:32:04Z</time>
      </trkpt>
      <trkpt lat="46.06174" lon="4.52105">
        <ele>573.8</ele>
        <time>2025-09-06T08:32:05Z</time>
      </trkpt>
      <trkpt lat="46.06173" lon="4.52107">
        <ele>574.2</ele>
        <time>2025-09-06T08:32:06Z</time>
      </trkpt>
      <trkpt lat="46.06172" lon="4.5211">
        <ele>574.2</ele>
        <time>2025-09-06T08:32:07Z</time>
      </trkpt>
      <trkpt lat="46.06172" lon="4.52112">
        <ele>574.4</ele>
        <time>2025-09-06T08:32:08Z</time>
      </trkpt>
      <trkpt lat="46.06171" lon="4.52114">
        <ele>574.4</ele>
        <time>2025-09-06T08:32:09Z</time>
      </trkpt>
      <trkpt lat="46.06171" lon="4.52116">
        <ele>574.6</ele>
        <time>2025-09-06T08:32:10Z</time>
      </trkpt>
      <trkpt lat="46.0617" lon="4.52119">
        <ele>574.6</ele>
        <time>2025-09-06T08:32:11Z</time>
      </trkpt>
      <trkpt lat="46.0617" lon="4.52121">
        <ele>574.8</ele>
        <time>2025-09-06T08:32:12Z</time>
      </trkpt>
      <trkpt lat="46.06169" lon="4.52123">
        <ele>574.8</ele>
        <time>2025-09-06T08:32:13Z</time>
      </trkpt>
      <trkpt lat="46.06168" lon="4.52125">
        <ele>574.8</ele>
        <time>2025-09-06T08:32:14Z</time>
      </trkpt>
      <trkpt lat="46.06168" lon="4.52127">
        <ele>575.2</ele>
        <time>2025-09-06T08:32:15Z</time>
      </trkpt>
      <trkpt lat="46.06167" lon="4.5213">
        <ele>575.4</ele>
        <time>2025-09-06T08:32:16Z</time>
      </trkpt>
      <trkpt lat="46.06166" lon="4.52132">
        <ele>575.4</ele>
        <time>2025-09-06T08:32:17Z</time>
      </trkpt>
      <trkpt lat="46.06166" lon="4.52135">
        <ele>575.4</ele>
        <time>2025-09-06T08:32:18Z</time>
      </trkpt>
      <trkpt lat="46.06166" lon="4.52138">
        <ele>575.8</ele>
        <time>2025-09-06T08:32:19Z</time>
      </trkpt>
      <trkpt lat="46.06165" lon="4.5214">
        <ele>576</ele>
        <time>2025-09-06T08:32:20Z</time>
      </trkpt>
      <trkpt lat="46.06165" lon="4.52143">
        <ele>576</ele>
        <time>2025-09-06T08:32:21Z</time>
      </trkpt>
      <trkpt lat="46.06164" lon="4.52144">
        <ele>576</ele>
        <time>2025-09-06T08:32:22Z</time>
      </trkpt>
      <trkpt lat="46.06164" lon="4.52147">
        <ele>576</ele>
        <time>2025-09-06T08:32:23Z</time>
      </trkpt>
      <trkpt lat="46.06164" lon="4.52149">
        <ele>576.4</ele>
        <time>2025-09-06T08:32:24Z</time>
      </trkpt>
      <trkpt lat="46.06163" lon="4.52152">
        <ele>576.4</ele>
        <time>2025-09-06T08:32:25Z</time>
      </trkpt>
      <trkpt lat="46.06163" lon="4.52154">
        <ele>576.4</ele>
        <time>2025-09-06T08:32:26Z</time>
      </trkpt>
      <trkpt lat="46.06163" lon="4.52156">
        <ele>576.8</ele>
        <time>2025-09-06T08:32:27Z</time>
      </trkpt>
      <trkpt lat="46.06164" lon="4.52158">
        <ele>576.8</ele>
        <time>2025-09-06T08:32:28Z</time>
      </trkpt>
      <trkpt lat="46.06165" lon="4.5216">
        <ele>576.8</ele>
        <time>2025-09-06T08:32:29Z</time>
      </trkpt>
      <trkpt lat="46.06166" lon="4.52163">
        <ele>576.8</ele>
        <time>2025-09-06T08:32:30Z</time>
      </trkpt>
      <trkpt lat="46.06167" lon="4.52165">
        <ele>576.8</ele>
        <time>2025-09-06T08:32:31Z</time>
      </trkpt>
      <trkpt lat="46.06167" lon="4.52168">
        <ele>577</ele>
        <time>2025-09-06T08:32:32Z</time>
      </trkpt>
      <trkpt lat="46.06168" lon="4.5217">
        <ele>577.2</ele>
        <time>2025-09-06T08:32:33Z</time>
      </trkpt>
      <trkpt lat="46.06168" lon="4.52173">
        <ele>577.2</ele>
        <time>2025-09-06T08:32:34Z</time>
      </trkpt>
      <trkpt lat="46.06169" lon="4.52175">
        <ele>577.4</ele>
        <time>2025-09-06T08:32:35Z</time>
      </trkpt>
      <trkpt lat="46.0617" lon="4.52177">
        <ele>577.4</ele>
        <time>2025-09-06T08:32:36Z</time>
      </trkpt>
      <trkpt lat="46.06171" lon="4.52179">
        <ele>577.8</ele>
        <time>2025-09-06T08:32:37Z</time>
      </trkpt>
      <trkpt lat="46.06173" lon="4.52181">
        <ele>577.8</ele>
        <time>2025-09-06T08:32:38Z</time>
      </trkpt>
      <trkpt lat="46.06174" lon="4.52182">
        <ele>578</ele>
        <time>2025-09-06T08:32:39Z</time>
      </trkpt>
      <trkpt lat="46.06175" lon="4.52184">
        <ele>578</ele>
        <time>2025-09-06T08:32:40Z</time>
      </trkpt>
      <trkpt lat="46.06176" lon="4.52186">
        <ele>578.4</ele>
        <time>2025-09-06T08:32:41Z</time>
      </trkpt>
      <trkpt lat="46.06177" lon="4.52187">
        <ele>578.4</ele>
        <time>2025-09-06T08:32:42Z</time>
      </trkpt>
      <trkpt lat="46.06179" lon="4.52189">
        <ele>578.6</ele>
        <time>2025-09-06T08:32:43Z</time>
      </trkpt>
      <trkpt lat="46.0618" lon="4.5219">
        <ele>578.6</ele>
        <time>2025-09-06T08:32:44Z</time>
      </trkpt>
      <trkpt lat="46.06181" lon="4.52191">
        <ele>578.8</ele>
        <time>2025-09-06T08:32:45Z</time>
      </trkpt>
      <trkpt lat="46.06183" lon="4.52193">
        <ele>578.8</ele>
        <time>2025-09-06T08:32:46Z</time>
      </trkpt>
      <trkpt lat="46.06184" lon="4.52194">
        <ele>579.2</ele>
        <time>2025-09-06T08:32:47Z</time>
      </trkpt>
      <trkpt lat="46.06185" lon="4.52195">
        <ele>579.2</ele>
        <time>2025-09-06T08:32:48Z</time>
      </trkpt>
      <trkpt lat="46.06187" lon="4.52196">
        <ele>579.6</ele>
        <time>2025-09-06T08:32:49Z</time>
      </trkpt>
      <trkpt lat="46.06188" lon="4.52196">
        <ele>579.6</ele>
        <time>2025-09-06T08:32:50Z</time>
      </trkpt>
      <trkpt lat="46.0619" lon="4.52197">
        <ele>579.8</ele>
        <time>2025-09-06T08:32:51Z</time>
      </trkpt>
      <trkpt lat="46.06191" lon="4.52197">
        <ele>579.8</ele>
        <time>2025-09-06T08:32:52Z</time>
      </trkpt>
      <trkpt lat="46.06193" lon="4.52197">
        <ele>579.8</ele>
        <time>2025-09-06T08:32:53Z</time>
      </trkpt>
      <trkpt lat="46.06195" lon="4.52198">
        <ele>579.8</ele>
        <time>2025-09-06T08:32:54Z</time>
      </trkpt>
      <trkpt lat="46.06197" lon="4.52198">
        <ele>579.8</ele>
        <time>2025-09-06T08:32:55Z</time>
      </trkpt>
      <trkpt lat="46.06198" lon="4.52199">
        <ele>579.8</ele>
        <time>2025-09-06T08:32:56Z</time>
      </trkpt>
      <trkpt lat="46.062" lon="4.52199">
        <ele>580</ele>
        <time>2025-09-06T08:32:57Z</time>
      </trkpt>
      <trkpt lat="46.06202" lon="4.52199">
        <ele>580</ele>
        <time>2025-09-06T08:32:58Z</time>
      </trkpt>
      <trkpt lat="46.06204" lon="4.52199">
        <ele>580.4</ele>
        <time>2025-09-06T08:32:59Z</time>
      </trkpt>
      <trkpt lat="46.06205" lon="4.522">
        <ele>580.4</ele>
        <time>2025-09-06T08:33:00Z</time>
      </trkpt>
      <trkpt lat="46.06207" lon="4.522">
        <ele>580.8</ele>
        <time>2025-09-06T08:33:01Z</time>
      </trkpt>
      <trkpt lat="46.06208" lon="4.522">
        <ele>580.8</ele>
        <time>2025-09-06T08:33:02Z</time>
      </trkpt>
      <trkpt lat="46.0621" lon="4.522">
        <ele>581</ele>
        <time>2025-09-06T08:33:03Z</time>
      </trkpt>
      <trkpt lat="46.06212" lon="4.522">
        <ele>581</ele>
        <time>2025-09-06T08:33:04Z</time>
      </trkpt>
      <trkpt lat="46.06213" lon="4.522">
        <ele>581</ele>
        <time>2025-09-06T08:33:05Z</time>
      </trkpt>
      <trkpt lat="46.06215" lon="4.522">
        <ele>581</ele>
        <time>2025-09-06T08:33:06Z</time>
      </trkpt>
      <trkpt lat="46.06217" lon="4.522">
        <ele>581.4</ele>
        <time>2025-09-06T08:33:07Z</time>
      </trkpt>
      <trkpt lat="46.06218" lon="4.522">
        <ele>581.6</ele>
        <time>2025-09-06T08:33:08Z</time>
      </trkpt>
      <trkpt lat="46.0622" lon="4.52201">
        <ele>581.6</ele>
        <time>2025-09-06T08:33:09Z</time>
      </trkpt>
      <trkpt lat="46.06221" lon="4.52202">
        <ele>581.6</ele>
        <time>2025-09-06T08:33:10Z</time>
      </trkpt>
      <trkpt lat="46.06223" lon="4.52202">
        <ele>581.8</ele>
        <time>2025-09-06T08:33:11Z</time>
      </trkpt>
      <trkpt lat="46.06224" lon="4.52203">
        <ele>581.8</ele>
        <time>2025-09-06T08:33:12Z</time>
      </trkpt>
      <trkpt lat="46.06226" lon="4.52204">
        <ele>582</ele>
        <time>2025-09-06T08:33:13Z</time>
      </trkpt>
      <trkpt lat="46.06228" lon="4.52205">
        <ele>582</ele>
        <time>2025-09-06T08:33:14Z</time>
      </trkpt>
      <trkpt lat="46.06229" lon="4.52206">
        <ele>582.4</ele>
        <time>2025-09-06T08:33:15Z</time>
      </trkpt>
      <trkpt lat="46.06231" lon="4.52207">
        <ele>582.4</ele>
        <time>2025-09-06T08:33:16Z</time>
      </trkpt>
      <trkpt lat="46.06232" lon="4.52208">
        <ele>582.6</ele>
        <time>2025-09-06T08:33:17Z</time>
      </trkpt>
      <trkpt lat="46.06234" lon="4.5221">
        <ele>582.6</ele>
        <time>2025-09-06T08:33:18Z</time>
      </trkpt>
      <trkpt lat="46.06235" lon="4.52212">
        <ele>582.6</ele>
        <time>2025-09-06T08:33:19Z</time>
      </trkpt>
      <trkpt lat="46.06235" lon="4.52214">
        <ele>582.6</ele>
        <time>2025-09-06T08:33:20Z</time>
      </trkpt>
      <trkpt lat="46.06236" lon="4.52216">
        <ele>582.6</ele>
        <time>2025-09-06T08:33:21Z</time>
      </trkpt>
      <trkpt lat="46.06237" lon="4.52218">
        <ele>582.6</ele>
        <time>2025-09-06T08:33:22Z</time>
      </trkpt>
      <trkpt lat="46.06238" lon="4.5222">
        <ele>582.8</ele>
        <time>2025-09-06T08:33:23Z</time>
      </trkpt>
      <trkpt lat="46.06239" lon="4.52222">
        <ele>582.8</ele>
        <time>2025-09-06T08:33:24Z</time>
      </trkpt>
      <trkpt lat="46.0624" lon="4.52224">
        <ele>583.2</ele>
        <time>2025-09-06T08:33:25Z</time>
      </trkpt>
      <trkpt lat="46.0624" lon="4.52226">
        <ele>583.4</ele>
        <time>2025-09-06T08:33:26Z</time>
      </trkpt>
      <trkpt lat="46.0624" lon="4.52229">
        <ele>583.4</ele>
        <time>2025-09-06T08:33:27Z</time>
      </trkpt>
      <trkpt lat="46.0624" lon="4.52231">
        <ele>583.6</ele>
        <time>2025-09-06T08:33:28Z</time>
      </trkpt>
      <trkpt lat="46.0624" lon="4.52233">
        <ele>583.6</ele>
        <time>2025-09-06T08:33:29Z</time>
      </trkpt>
      <trkpt lat="46.0624" lon="4.52235">
        <ele>583.8</ele>
        <time>2025-09-06T08:33:30Z</time>
      </trkpt>
      <trkpt lat="46.0624" lon="4.52238">
        <ele>583.8</ele>
        <time>2025-09-06T08:33:31Z</time>
      </trkpt>
      <trkpt lat="46.06239" lon="4.5224">
        <ele>584</ele>
        <time>2025-09-06T08:33:32Z</time>
      </trkpt>
      <trkpt lat="46.06239" lon="4.52243">
        <ele>584</ele>
        <time>2025-09-06T08:33:33Z</time>
      </trkpt>
      <trkpt lat="46.06239" lon="4.52243">
        <ele>584.4</ele>
        <time>2025-09-06T08:33:34Z</time>
      </trkpt>
      <trkpt lat="46.06239" lon="4.52243">
        <ele>584.6</ele>
        <time>2025-09-06T08:33:35Z</time>
      </trkpt>
      <trkpt lat="46.06237" lon="4.52251">
        <ele>584.6</ele>
        <time>2025-09-06T08:33:37Z</time>
      </trkpt>
      <trkpt lat="46.06236" lon="4.52253">
        <ele>584.6</ele>
        <time>2025-09-06T08:33:38Z</time>
      </trkpt>
      <trkpt lat="46.06235" lon="4.52256">
        <ele>584.6</ele>
        <time>2025-09-06T08:33:39Z</time>
      </trkpt>
      <trkpt lat="46.06235" lon="4.52258">
        <ele>584.4</ele>
        <time>2025-09-06T08:33:40Z</time>
      </trkpt>
      <trkpt lat="46.06234" lon="4.52259">
        <ele>584.4</ele>
        <time>2025-09-06T08:33:41Z</time>
      </trkpt>
      <trkpt lat="46.06234" lon="4.52261">
        <ele>584.8</ele>
        <time>2025-09-06T08:33:42Z</time>
      </trkpt>
      <trkpt lat="46.06233" lon="4.52262">
        <ele>584.8</ele>
        <time>2025-09-06T08:33:43Z</time>
      </trkpt>
      <trkpt lat="46.06233" lon="4.52263">
        <ele>585</ele>
        <time>2025-09-06T08:33:44Z</time>
      </trkpt>
      <trkpt lat="46.06232" lon="4.52266">
        <ele>585</ele>
        <time>2025-09-06T08:33:45Z</time>
      </trkpt>
      <trkpt lat="46.06232" lon="4.52269">
        <ele>585.4</ele>
        <time>2025-09-06T08:33:46Z</time>
      </trkpt>
      <trkpt lat="46.06231" lon="4.52271">
        <ele>585.4</ele>
        <time>2025-09-06T08:33:47Z</time>
      </trkpt>
      <trkpt lat="46.0623" lon="4.52273">
        <ele>585.4</ele>
        <time>2025-09-06T08:33:48Z</time>
      </trkpt>
      <trkpt lat="46.06229" lon="4.52276">
        <ele>585.6</ele>
        <time>2025-09-06T08:33:49Z</time>
      </trkpt>
      <trkpt lat="46.06228" lon="4.52278">
        <ele>585.8</ele>
        <time>2025-09-06T08:33:50Z</time>
      </trkpt>
      <trkpt lat="46.06227" lon="4.52281">
        <ele>585.8</ele>
        <time>2025-09-06T08:33:51Z</time>
      </trkpt>
      <trkpt lat="46.06227" lon="4.52283">
        <ele>585.8</ele>
        <time>2025-09-06T08:33:52Z</time>
      </trkpt>
      <trkpt lat="46.06226" lon="4.52285">
        <ele>586.2</ele>
        <time>2025-09-06T08:33:53Z</time>
      </trkpt>
      <trkpt lat="46.06225" lon="4.52287">
        <ele>586.2</ele>
        <time>2025-09-06T08:33:54Z</time>
      </trkpt>
      <trkpt lat="46.06225" lon="4.5229">
        <ele>586.4</ele>
        <time>2025-09-06T08:33:55Z</time>
      </trkpt>
      <trkpt lat="46.06225" lon="4.52292">
        <ele>586.4</ele>
        <time>2025-09-06T08:33:56Z</time>
      </trkpt>
      <trkpt lat="46.06224" lon="4.52294">
        <ele>586.8</ele>
        <time>2025-09-06T08:33:57Z</time>
      </trkpt>
      <trkpt lat="46.06224" lon="4.52296">
        <ele>586.8</ele>
        <time>2025-09-06T08:33:58Z</time>
      </trkpt>
      <trkpt lat="46.06223" lon="4.52298">
        <ele>587.2</ele>
        <time>2025-09-06T08:33:59Z</time>
      </trkpt>
      <trkpt lat="46.06223" lon="4.52298">
        <ele>587.4</ele>
        <time>2025-09-06T08:34:00Z</time>
      </trkpt>
      <trkpt lat="46.06221" lon="4.52303">
        <ele>587.6</ele>
        <time>2025-09-06T08:34:01Z</time>
      </trkpt>
      <trkpt lat="46.06221" lon="4.52305">
        <ele>587.6</ele>
        <time>2025-09-06T08:34:02Z</time>
      </trkpt>
      <trkpt lat="46.0622" lon="4.52307">
        <ele>587.6</ele>
        <time>2025-09-06T08:34:03Z</time>
      </trkpt>
      <trkpt lat="46.0622" lon="4.52309">
        <ele>587.6</ele>
        <time>2025-09-06T08:34:04Z</time>
      </trkpt>
      <trkpt lat="46.06219" lon="4.52312">
        <ele>587.8</ele>
        <time>2025-09-06T08:34:05Z</time>
      </trkpt>
      <trkpt lat="46.06218" lon="4.52314">
        <ele>588</ele>
        <time>2025-09-06T08:34:06Z</time>
      </trkpt>
      <trkpt lat="46.06217" lon="4.52316">
        <ele>588</ele>
        <time>2025-09-06T08:34:07Z</time>
      </trkpt>
      <trkpt lat="46.06217" lon="4.52319">
        <ele>588.4</ele>
        <time>2025-09-06T08:34:08Z</time>
      </trkpt>
      <trkpt lat="46.06216" lon="4.52321">
        <ele>588.4</ele>
        <time>2025-09-06T08:34:09Z</time>
      </trkpt>
      <trkpt lat="46.06215" lon="4.52324">
        <ele>588.4</ele>
        <time>2025-09-06T08:34:10Z</time>
      </trkpt>
      <trkpt lat="46.06214" lon="4.52326">
        <ele>588.4</ele>
        <time>2025-09-06T08:34:11Z</time>
      </trkpt>
      <trkpt lat="46.06213" lon="4.52328">
        <ele>588.6</ele>
        <time>2025-09-06T08:34:12Z</time>
      </trkpt>
      <trkpt lat="46.06212" lon="4.5233">
        <ele>588.6</ele>
        <time>2025-09-06T08:34:13Z</time>
      </trkpt>
      <trkpt lat="46.06211" lon="4.52333">
        <ele>588.8</ele>
        <time>2025-09-06T08:34:14Z</time>
      </trkpt>
      <trkpt lat="46.06211" lon="4.52336">
        <ele>588.8</ele>
        <time>2025-09-06T08:34:15Z</time>
      </trkpt>
      <trkpt lat="46.0621" lon="4.52338">
        <ele>588.8</ele>
        <time>2025-09-06T08:34:16Z</time>
      </trkpt>
      <trkpt lat="46.0621" lon="4.52341">
        <ele>588.8</ele>
        <time>2025-09-06T08:34:17Z</time>
      </trkpt>
      <trkpt lat="46.06209" lon="4.52343">
        <ele>588.8</ele>
        <time>2025-09-06T08:34:18Z</time>
      </trkpt>
      <trkpt lat="46.06208" lon="4.52345">
        <ele>588.8</ele>
        <time>2025-09-06T08:34:19Z</time>
      </trkpt>
      <trkpt lat="46.06208" lon="4.52347">
        <ele>589.4</ele>
        <time>2025-09-06T08:34:20Z</time>
      </trkpt>
      <trkpt lat="46.06207" lon="4.52349">
        <ele>589.4</ele>
        <time>2025-09-06T08:34:21Z</time>
      </trkpt>
      <trkpt lat="46.06207" lon="4.52351">
        <ele>589.4</ele>
        <time>2025-09-06T08:34:22Z</time>
      </trkpt>
      <trkpt lat="46.06206" lon="4.52353">
        <ele>589.6</ele>
        <time>2025-09-06T08:34:23Z</time>
      </trkpt>
      <trkpt lat="46.06206" lon="4.52355">
        <ele>590</ele>
        <time>2025-09-06T08:34:24Z</time>
      </trkpt>
      <trkpt lat="46.06205" lon="4.52358">
        <ele>590</ele>
        <time>2025-09-06T08:34:25Z</time>
      </trkpt>
      <trkpt lat="46.06204" lon="4.52361">
        <ele>590</ele>
        <time>2025-09-06T08:34:26Z</time>
      </trkpt>
      <trkpt lat="46.06204" lon="4.52363">
        <ele>590.2</ele>
        <time>2025-09-06T08:34:27Z</time>
      </trkpt>
      <trkpt lat="46.06204" lon="4.52365">
        <ele>590.6</ele>
        <time>2025-09-06T08:34:28Z</time>
      </trkpt>
      <trkpt lat="46.06204" lon="4.52368">
        <ele>590.6</ele>
        <time>2025-09-06T08:34:29Z</time>
      </trkpt>
      <trkpt lat="46.06203" lon="4.5237">
        <ele>590.6</ele>
        <time>2025-09-06T08:34:30Z</time>
      </trkpt>
      <trkpt lat="46.06203" lon="4.52373">
        <ele>590.6</ele>
        <time>2025-09-06T08:34:31Z</time>
      </trkpt>
      <trkpt lat="46.06202" lon="4.52375">
        <ele>590.8</ele>
        <time>2025-09-06T08:34:32Z</time>
      </trkpt>
      <trkpt lat="46.06202" lon="4.52377">
        <ele>590.8</ele>
        <time>2025-09-06T08:34:33Z</time>
      </trkpt>
      <trkpt lat="46.06202" lon="4.5238">
        <ele>590.8</ele>
        <time>2025-09-06T08:34:34Z</time>
      </trkpt>
      <trkpt lat="46.06201" lon="4.52382">
        <ele>591.2</ele>
        <time>2025-09-06T08:34:35Z</time>
      </trkpt>
      <trkpt lat="46.06201" lon="4.52384">
        <ele>591.4</ele>
        <time>2025-09-06T08:34:36Z</time>
      </trkpt>
      <trkpt lat="46.06201" lon="4.52386">
        <ele>591.4</ele>
        <time>2025-09-06T08:34:37Z</time>
      </trkpt>
      <trkpt lat="46.06201" lon="4.52388">
        <ele>592</ele>
        <time>2025-09-06T08:34:38Z</time>
      </trkpt>
      <trkpt lat="46.06201" lon="4.5239">
        <ele>592</ele>
        <time>2025-09-06T08:34:39Z</time>
      </trkpt>
      <trkpt lat="46.062" lon="4.52393">
        <ele>592.2</ele>
        <time>2025-09-06T08:34:40Z</time>
      </trkpt>
      <trkpt lat="46.062" lon="4.52395">
        <ele>592.4</ele>
        <time>2025-09-06T08:34:41Z</time>
      </trkpt>
      <trkpt lat="46.062" lon="4.52398">
        <ele>592.4</ele>
        <time>2025-09-06T08:34:42Z</time>
      </trkpt>
      <trkpt lat="46.062" lon="4.524">
        <ele>592.4</ele>
        <time>2025-09-06T08:34:43Z</time>
      </trkpt>
      <trkpt lat="46.062" lon="4.52403">
        <ele>592.4</ele>
        <time>2025-09-06T08:34:44Z</time>
      </trkpt>
      <trkpt lat="46.06201" lon="4.52406">
        <ele>592.4</ele>
        <time>2025-09-06T08:34:45Z</time>
      </trkpt>
      <trkpt lat="46.06201" lon="4.52408">
        <ele>592.8</ele>
        <time>2025-09-06T08:34:46Z</time>
      </trkpt>
      <trkpt lat="46.06201" lon="4.52411">
        <ele>592.8</ele>
        <time>2025-09-06T08:34:47Z</time>
      </trkpt>
      <trkpt lat="46.06201" lon="4.52413">
        <ele>593</ele>
        <time>2025-09-06T08:34:48Z</time>
      </trkpt>
      <trkpt lat="46.06201" lon="4.52416">
        <ele>593</ele>
        <time>2025-09-06T08:34:49Z</time>
      </trkpt>
      <trkpt lat="46.06202" lon="4.52419">
        <ele>593</ele>
        <time>2025-09-06T08:34:50Z</time>
      </trkpt>
      <trkpt lat="46.06202" lon="4.52422">
        <ele>593.4</ele>
        <time>2025-09-06T08:34:51Z</time>
      </trkpt>
      <trkpt lat="46.06203" lon="4.52424">
        <ele>593.4</ele>
        <time>2025-09-06T08:34:52Z</time>
      </trkpt>
      <trkpt lat="46.06203" lon="4.52427">
        <ele>593.4</ele>
        <time>2025-09-06T08:34:53Z</time>
      </trkpt>
      <trkpt lat="46.06203" lon="4.5243">
        <ele>593.6</ele>
        <time>2025-09-06T08:34:54Z</time>
      </trkpt>
      <trkpt lat="46.06202" lon="4.52433">
        <ele>593.6</ele>
        <time>2025-09-06T08:34:55Z</time>
      </trkpt>
      <trkpt lat="46.06202" lon="4.52436">
        <ele>593.6</ele>
        <time>2025-09-06T08:34:56Z</time>
      </trkpt>
      <trkpt lat="46.06202" lon="4.52438">
        <ele>593.8</ele>
        <time>2025-09-06T08:34:57Z</time>
      </trkpt>
      <trkpt lat="46.06201" lon="4.52441">
        <ele>594.2</ele>
        <time>2025-09-06T08:34:58Z</time>
      </trkpt>
      <trkpt lat="46.06201" lon="4.52444">
        <ele>594.2</ele>
        <time>2025-09-06T08:34:59Z</time>
      </trkpt>
      <trkpt lat="46.062" lon="4.52447">
        <ele>594.2</ele>
        <time>2025-09-06T08:35:00Z</time>
      </trkpt>
      <trkpt lat="46.062" lon="4.52449">
        <ele>594.2</ele>
        <time>2025-09-06T08:35:01Z</time>
      </trkpt>
      <trkpt lat="46.06199" lon="4.52451">
        <ele>594.4</ele>
        <time>2025-09-06T08:35:02Z</time>
      </trkpt>
      <trkpt lat="46.06198" lon="4.52454">
        <ele>594.6</ele>
        <time>2025-09-06T08:35:03Z</time>
      </trkpt>
      <trkpt lat="46.06198" lon="4.52456">
        <ele>594.6</ele>
        <time>2025-09-06T08:35:04Z</time>
      </trkpt>
      <trkpt lat="46.06197" lon="4.52458">
        <ele>594.6</ele>
        <time>2025-09-06T08:35:05Z</time>
      </trkpt>
      <trkpt lat="46.06196" lon="4.5246">
        <ele>595</ele>
        <time>2025-09-06T08:35:06Z</time>
      </trkpt>
      <trkpt lat="46.06195" lon="4.52462">
        <ele>595</ele>
        <time>2025-09-06T08:35:07Z</time>
      </trkpt>
      <trkpt lat="46.06194" lon="4.52464">
        <ele>595</ele>
        <time>2025-09-06T08:35:08Z</time>
      </trkpt>
      <trkpt lat="46.06193" lon="4.52466">
        <ele>595</ele>
        <time>2025-09-06T08:35:09Z</time>
      </trkpt>
      <trkpt lat="46.06192" lon="4.52468">
        <ele>595.4</ele>
        <time>2025-09-06T08:35:10Z</time>
      </trkpt>
      <trkpt lat="46.06191" lon="4.5247">
        <ele>595.4</ele>
        <time>2025-09-06T08:35:11Z</time>
      </trkpt>
      <trkpt lat="46.06191" lon="4.52472">
        <ele>595.6</ele>
        <time>2025-09-06T08:35:12Z</time>
      </trkpt>
      <trkpt lat="46.06189" lon="4.52474">
        <ele>595.8</ele>
        <time>2025-09-06T08:35:13Z</time>
      </trkpt>
      <trkpt lat="46.06188" lon="4.52475">
        <ele>595.8</ele>
        <time>2025-09-06T08:35:14Z</time>
      </trkpt>
      <trkpt lat="46.06187" lon="4.52477">
        <ele>596.2</ele>
        <time>2025-09-06T08:35:15Z</time>
      </trkpt>
      <trkpt lat="46.06186" lon="4.52479">
        <ele>596.2</ele>
        <time>2025-09-06T08:35:16Z</time>
      </trkpt>
      <trkpt lat="46.06185" lon="4.52481">
        <ele>596.6</ele>
        <time>2025-09-06T08:35:17Z</time>
      </trkpt>
      <trkpt lat="46.06185" lon="4.52483">
        <ele>596.6</ele>
        <time>2025-09-06T08:35:18Z</time>
      </trkpt>
      <trkpt lat="46.06184" lon="4.52485">
        <ele>596.6</ele>
        <time>2025-09-06T08:35:19Z</time>
      </trkpt>
      <trkpt lat="46.06183" lon="4.52487">
        <ele>596.8</ele>
        <time>2025-09-06T08:35:20Z</time>
      </trkpt>
      <trkpt lat="46.06182" lon="4.52488">
        <ele>596.8</ele>
        <time>2025-09-06T08:35:21Z</time>
      </trkpt>
      <trkpt lat="46.06181" lon="4.52489">
        <ele>597.2</ele>
        <time>2025-09-06T08:35:22Z</time>
      </trkpt>
      <trkpt lat="46.0618" lon="4.52491">
        <ele>597.4</ele>
        <time>2025-09-06T08:35:23Z</time>
      </trkpt>
      <trkpt lat="46.06179" lon="4.52493">
        <ele>597.4</ele>
        <time>2025-09-06T08:35:24Z</time>
      </trkpt>
      <trkpt lat="46.06178" lon="4.52495">
        <ele>597.4</ele>
        <time>2025-09-06T08:35:25Z</time>
      </trkpt>
      <trkpt lat="46.06177" lon="4.52496">
        <ele>597.6</ele>
        <time>2025-09-06T08:35:26Z</time>
      </trkpt>
      <trkpt lat="46.06176" lon="4.52498">
        <ele>597.6</ele>
        <time>2025-09-06T08:35:27Z</time>
      </trkpt>
      <trkpt lat="46.06175" lon="4.525">
        <ele>597.8</ele>
        <time>2025-09-06T08:35:28Z</time>
      </trkpt>
      <trkpt lat="46.06174" lon="4.52502">
        <ele>597.8</ele>
        <time>2025-09-06T08:35:29Z</time>
      </trkpt>
      <trkpt lat="46.06173" lon="4.52504">
        <ele>598.2</ele>
        <time>2025-09-06T08:35:30Z</time>
      </trkpt>
      <trkpt lat="46.06173" lon="4.52505">
        <ele>598.2</ele>
        <time>2025-09-06T08:35:31Z</time>
      </trkpt>
      <trkpt lat="46.06172" lon="4.52507">
        <ele>598.4</ele>
        <time>2025-09-06T08:35:32Z</time>
      </trkpt>
      <trkpt lat="46.06171" lon="4.52509">
        <ele>598.4</ele>
        <time>2025-09-06T08:35:33Z</time>
      </trkpt>
      <trkpt lat="46.0617" lon="4.52511">
        <ele>598.4</ele>
        <time>2025-09-06T08:35:34Z</time>
      </trkpt>
      <trkpt lat="46.06169" lon="4.52513">
        <ele>598.8</ele>
        <time>2025-09-06T08:35:35Z</time>
      </trkpt>
      <trkpt lat="46.06169" lon="4.52514">
        <ele>598.8</ele>
        <time>2025-09-06T08:35:36Z</time>
      </trkpt>
      <trkpt lat="46.06168" lon="4.52516">
        <ele>599</ele>
        <time>2025-09-06T08:35:37Z</time>
      </trkpt>
      <trkpt lat="46.06168" lon="4.52518">
        <ele>599</ele>
        <time>2025-09-06T08:35:38Z</time>
      </trkpt>
      <trkpt lat="46.06167" lon="4.52521">
        <ele>599.2</ele>
        <time>2025-09-06T08:35:39Z</time>
      </trkpt>
      <trkpt lat="46.06167" lon="4.52522">
        <ele>599.2</ele>
        <time>2025-09-06T08:35:40Z</time>
      </trkpt>
      <trkpt lat="46.06166" lon="4.52525">
        <ele>599.6</ele>
        <time>2025-09-06T08:35:41Z</time>
      </trkpt>
      <trkpt lat="46.06165" lon="4.52528">
        <ele>599.6</ele>
        <time>2025-09-06T08:35:42Z</time>
      </trkpt>
      <trkpt lat="46.06165" lon="4.52529">
        <ele>599.8</ele>
        <time>2025-09-06T08:35:43Z</time>
      </trkpt>
      <trkpt lat="46.06165" lon="4.52531">
        <ele>600</ele>
        <time>2025-09-06T08:35:44Z</time>
      </trkpt>
      <trkpt lat="46.06165" lon="4.52533">
        <ele>600</ele>
        <time>2025-09-06T08:35:45Z</time>
      </trkpt>
      <trkpt lat="46.06165" lon="4.52535">
        <ele>600.2</ele>
        <time>2025-09-06T08:35:46Z</time>
      </trkpt>
      <trkpt lat="46.06164" lon="4.52538">
        <ele>600.2</ele>
        <time>2025-09-06T08:35:47Z</time>
      </trkpt>
      <trkpt lat="46.06163" lon="4.5254">
        <ele>600.2</ele>
        <time>2025-09-06T08:35:48Z</time>
      </trkpt>
      <trkpt lat="46.06163" lon="4.52542">
        <ele>600.6</ele>
        <time>2025-09-06T08:35:49Z</time>
      </trkpt>
      <trkpt lat="46.06163" lon="4.52544">
        <ele>600.8</ele>
        <time>2025-09-06T08:35:50Z</time>
      </trkpt>
      <trkpt lat="46.06163" lon="4.52547">
        <ele>600.8</ele>
        <time>2025-09-06T08:35:51Z</time>
      </trkpt>
      <trkpt lat="46.06162" lon="4.5255">
        <ele>600.8</ele>
        <time>2025-09-06T08:35:52Z</time>
      </trkpt>
      <trkpt lat="46.06162" lon="4.52552">
        <ele>601</ele>
        <time>2025-09-06T08:35:53Z</time>
      </trkpt>
      <trkpt lat="46.06161" lon="4.52554">
        <ele>601.2</ele>
        <time>2025-09-06T08:35:54Z</time>
      </trkpt>
      <trkpt lat="46.06161" lon="4.52556">
        <ele>601.2</ele>
        <time>2025-09-06T08:35:55Z</time>
      </trkpt>
      <trkpt lat="46.0616" lon="4.52559">
        <ele>601.2</ele>
        <time>2025-09-06T08:35:56Z</time>
      </trkpt>
      <trkpt lat="46.06161" lon="4.52562">
        <ele>601.2</ele>
        <time>2025-09-06T08:35:57Z</time>
      </trkpt>
      <trkpt lat="46.06161" lon="4.52565">
        <ele>601.4</ele>
        <time>2025-09-06T08:35:58Z</time>
      </trkpt>
      <trkpt lat="46.0616" lon="4.52567">
        <ele>601.4</ele>
        <time>2025-09-06T08:35:59Z</time>
      </trkpt>
      <trkpt lat="46.0616" lon="4.5257">
        <ele>601.4</ele>
        <time>2025-09-06T08:36:00Z</time>
      </trkpt>
      <trkpt lat="46.0616" lon="4.52573">
        <ele>601.6</ele>
        <time>2025-09-06T08:36:01Z</time>
      </trkpt>
      <trkpt lat="46.0616" lon="4.52575">
        <ele>601.6</ele>
        <time>2025-09-06T08:36:02Z</time>
      </trkpt>
      <trkpt lat="46.0616" lon="4.52578">
        <ele>601.8</ele>
        <time>2025-09-06T08:36:03Z</time>
      </trkpt>
      <trkpt lat="46.0616" lon="4.5258">
        <ele>601.8</ele>
        <time>2025-09-06T08:36:04Z</time>
      </trkpt>
      <trkpt lat="46.06159" lon="4.52582">
        <ele>602.2</ele>
        <time>2025-09-06T08:36:05Z</time>
      </trkpt>
      <trkpt lat="46.0616" lon="4.52585">
        <ele>602.2</ele>
        <time>2025-09-06T08:36:06Z</time>
      </trkpt>
      <trkpt lat="46.0616" lon="4.52587">
        <ele>602.2</ele>
        <time>2025-09-06T08:36:07Z</time>
      </trkpt>
      <trkpt lat="46.0616" lon="4.52589">
        <ele>602.2</ele>
        <time>2025-09-06T08:36:08Z</time>
      </trkpt>
      <trkpt lat="46.0616" lon="4.52592">
        <ele>602.2</ele>
        <time>2025-09-06T08:36:09Z</time>
      </trkpt>
      <trkpt lat="46.0616" lon="4.52594">
        <ele>602.6</ele>
        <time>2025-09-06T08:36:10Z</time>
      </trkpt>
      <trkpt lat="46.0616" lon="4.52597">
        <ele>602.6</ele>
        <time>2025-09-06T08:36:11Z</time>
      </trkpt>
      <trkpt lat="46.06161" lon="4.526">
        <ele>602.8</ele>
        <time>2025-09-06T08:36:12Z</time>
      </trkpt>
      <trkpt lat="46.06161" lon="4.52602">
        <ele>602.8</ele>
        <time>2025-09-06T08:36:13Z</time>
      </trkpt>
      <trkpt lat="46.0616" lon="4.52605">
        <ele>603</ele>
        <time>2025-09-06T08:36:14Z</time>
      </trkpt>
      <trkpt lat="46.0616" lon="4.52607">
        <ele>603</ele>
        <time>2025-09-06T08:36:15Z</time>
      </trkpt>
      <trkpt lat="46.06159" lon="4.52609">
        <ele>603.4</ele>
        <time>2025-09-06T08:36:16Z</time>
      </trkpt>
      <trkpt lat="46.06159" lon="4.52611">
        <ele>603.4</ele>
        <time>2025-09-06T08:36:17Z</time>
      </trkpt>
      <trkpt lat="46.0616" lon="4.52614">
        <ele>603.6</ele>
        <time>2025-09-06T08:36:18Z</time>
      </trkpt>
      <trkpt lat="46.0616" lon="4.52616">
        <ele>603.6</ele>
        <time>2025-09-06T08:36:19Z</time>
      </trkpt>
      <trkpt lat="46.0616" lon="4.52618">
        <ele>603.6</ele>
        <time>2025-09-06T08:36:20Z</time>
      </trkpt>
      <trkpt lat="46.0616" lon="4.5262">
        <ele>604</ele>
        <time>2025-09-06T08:36:21Z</time>
      </trkpt>
      <trkpt lat="46.0616" lon="4.52623">
        <ele>604</ele>
        <time>2025-09-06T08:36:22Z</time>
      </trkpt>
      <trkpt lat="46.0616" lon="4.52623">
        <ele>604</ele>
        <time>2025-09-06T08:36:23Z</time>
      </trkpt>
      <trkpt lat="46.0616" lon="4.52625">
        <ele>604</ele>
        <time>2025-09-06T08:36:24Z</time>
      </trkpt>
      <trkpt lat="46.0616" lon="4.52627">
        <ele>604.2</ele>
        <time>2025-09-06T08:36:25Z</time>
      </trkpt>
      <trkpt lat="46.0616" lon="4.52629">
        <ele>604.2</ele>
        <time>2025-09-06T08:36:26Z</time>
      </trkpt>
      <trkpt lat="46.06159" lon="4.52632">
        <ele>604.4</ele>
        <time>2025-09-06T08:36:27Z</time>
      </trkpt>
      <trkpt lat="46.06159" lon="4.52634">
        <ele>604.4</ele>
        <time>2025-09-06T08:36:28Z</time>
      </trkpt>
      <trkpt lat="46.06159" lon="4.52636">
        <ele>604.6</ele>
        <time>2025-09-06T08:36:29Z</time>
      </trkpt>
      <trkpt lat="46.0616" lon="4.52639">
        <ele>604.6</ele>
        <time>2025-09-06T08:36:30Z</time>
      </trkpt>
      <trkpt lat="46.0616" lon="4.52641">
        <ele>604.6</ele>
        <time>2025-09-06T08:36:31Z</time>
      </trkpt>
      <trkpt lat="46.0616" lon="4.52643">
        <ele>604.6</ele>
        <time>2025-09-06T08:36:32Z</time>
      </trkpt>
      <trkpt lat="46.0616" lon="4.52646">
        <ele>604.6</ele>
        <time>2025-09-06T08:36:33Z</time>
      </trkpt>
      <trkpt lat="46.0616" lon="4.52648">
        <ele>604.8</ele>
        <time>2025-09-06T08:36:34Z</time>
      </trkpt>
      <trkpt lat="46.0616" lon="4.5265">
        <ele>605</ele>
        <time>2025-09-06T08:36:35Z</time>
      </trkpt>
      <trkpt lat="46.0616" lon="4.52653">
        <ele>605</ele>
        <time>2025-09-06T08:36:36Z</time>
      </trkpt>
      <trkpt lat="46.0616" lon="4.52655">
        <ele>605</ele>
        <time>2025-09-06T08:36:37Z</time>
      </trkpt>
      <trkpt lat="46.0616" lon="4.52657">
        <ele>605.2</ele>
        <time>2025-09-06T08:36:38Z</time>
      </trkpt>
      <trkpt lat="46.0616" lon="4.5266">
        <ele>605.2</ele>
        <time>2025-09-06T08:36:39Z</time>
      </trkpt>
      <trkpt lat="46.06161" lon="4.52662">
        <ele>605.6</ele>
        <time>2025-09-06T08:36:40Z</time>
      </trkpt>
      <trkpt lat="46.06161" lon="4.52664">
        <ele>606</ele>
        <time>2025-09-06T08:36:41Z</time>
      </trkpt>
      <trkpt lat="46.06161" lon="4.52667">
        <ele>606.2</ele>
        <time>2025-09-06T08:36:42Z</time>
      </trkpt>
      <trkpt lat="46.06161" lon="4.52668">
        <ele>606.2</ele>
        <time>2025-09-06T08:36:43Z</time>
      </trkpt>
      <trkpt lat="46.06161" lon="4.52671">
        <ele>606.2</ele>
        <time>2025-09-06T08:36:44Z</time>
      </trkpt>
      <trkpt lat="46.06161" lon="4.52673">
        <ele>606.6</ele>
        <time>2025-09-06T08:36:45Z</time>
      </trkpt>
      <trkpt lat="46.06161" lon="4.52675">
        <ele>606.6</ele>
        <time>2025-09-06T08:36:46Z</time>
      </trkpt>
      <trkpt lat="46.06161" lon="4.52677">
        <ele>606.6</ele>
        <time>2025-09-06T08:36:47Z</time>
      </trkpt>
      <trkpt lat="46.06162" lon="4.52681">
        <ele>606.8</ele>
        <time>2025-09-06T08:36:48Z</time>
      </trkpt>
      <trkpt lat="46.06162" lon="4.52683">
        <ele>606.8</ele>
        <time>2025-09-06T08:36:49Z</time>
      </trkpt>
      <trkpt lat="46.06162" lon="4.52685">
        <ele>606.8</ele>
        <time>2025-09-06T08:36:50Z</time>
      </trkpt>
      <trkpt lat="46.06162" lon="4.52687">
        <ele>607.2</ele>
        <time>2025-09-06T08:36:51Z</time>
      </trkpt>
      <trkpt lat="46.06162" lon="4.52689">
        <ele>607.2</ele>
        <time>2025-09-06T08:36:52Z</time>
      </trkpt>
      <trkpt lat="46.06162" lon="4.52692">
        <ele>607.2</ele>
        <time>2025-09-06T08:36:53Z</time>
      </trkpt>
      <trkpt lat="46.06162" lon="4.52694">
        <ele>607.4</ele>
        <time>2025-09-06T08:36:54Z</time>
      </trkpt>
      <trkpt lat="46.06162" lon="4.52696">
        <ele>607.8</ele>
        <time>2025-09-06T08:36:55Z</time>
      </trkpt>
      <trkpt lat="46.06162" lon="4.52699">
        <ele>608</ele>
        <time>2025-09-06T08:36:56Z</time>
      </trkpt>
      <trkpt lat="46.06162" lon="4.52701">
        <ele>608</ele>
        <time>2025-09-06T08:36:57Z</time>
      </trkpt>
      <trkpt lat="46.06162" lon="4.52704">
        <ele>608</ele>
        <time>2025-09-06T08:36:58Z</time>
      </trkpt>
      <trkpt lat="46.06162" lon="4.52706">
        <ele>608</ele>
        <time>2025-09-06T08:36:59Z</time>
      </trkpt>
      <trkpt lat="46.06163" lon="4.52709">
        <ele>608.4</ele>
        <time>2025-09-06T08:37:00Z</time>
      </trkpt>
      <trkpt lat="46.06163" lon="4.52711">
        <ele>608.4</ele>
        <time>2025-09-06T08:37:01Z</time>
      </trkpt>
      <trkpt lat="46.06164" lon="4.52714">
        <ele>608.4</ele>
        <time>2025-09-06T08:37:02Z</time>
      </trkpt>
      <trkpt lat="46.06165" lon="4.52717">
        <ele>608.4</ele>
        <time>2025-09-06T08:37:03Z</time>
      </trkpt>
      <trkpt lat="46.06165" lon="4.52719">
        <ele>608.6</ele>
        <time>2025-09-06T08:37:04Z</time>
      </trkpt>
      <trkpt lat="46.06166" lon="4.52721">
        <ele>608.8</ele>
        <time>2025-09-06T08:37:05Z</time>
      </trkpt>
      <trkpt lat="46.06166" lon="4.52724">
        <ele>608.8</ele>
        <time>2025-09-06T08:37:06Z</time>
      </trkpt>
      <trkpt lat="46.06167" lon="4.52726">
        <ele>608.8</ele>
        <time>2025-09-06T08:37:07Z</time>
      </trkpt>
      <trkpt lat="46.06167" lon="4.52728">
        <ele>609.2</ele>
        <time>2025-09-06T08:37:08Z</time>
      </trkpt>
      <trkpt lat="46.06168" lon="4.52731">
        <ele>609.4</ele>
        <time>2025-09-06T08:37:09Z</time>
      </trkpt>
      <trkpt lat="46.06168" lon="4.52733">
        <ele>609.4</ele>
        <time>2025-09-06T08:37:10Z</time>
      </trkpt>
      <trkpt lat="46.06169" lon="4.52735">
        <ele>609.4</ele>
        <time>2025-09-06T08:37:11Z</time>
      </trkpt>
      <trkpt lat="46.0617" lon="4.52737">
        <ele>609.6</ele>
        <time>2025-09-06T08:37:12Z</time>
      </trkpt>
      <trkpt lat="46.06171" lon="4.5274">
        <ele>609.6</ele>
        <time>2025-09-06T08:37:13Z</time>
      </trkpt>
      <trkpt lat="46.06171" lon="4.52742">
        <ele>609.6</ele>
        <time>2025-09-06T08:37:14Z</time>
      </trkpt>
      <trkpt lat="46.06172" lon="4.52744">
        <ele>610</ele>
        <time>2025-09-06T08:37:15Z</time>
      </trkpt>
      <trkpt lat="46.06172" lon="4.52746">
        <ele>610</ele>
        <time>2025-09-06T08:37:16Z</time>
      </trkpt>
      <trkpt lat="46.06173" lon="4.52748">
        <ele>610.2</ele>
        <time>2025-09-06T08:37:17Z</time>
      </trkpt>
      <trkpt lat="46.06174" lon="4.5275">
        <ele>610.2</ele>
        <time>2025-09-06T08:37:18Z</time>
      </trkpt>
      <trkpt lat="46.06174" lon="4.52751">
        <ele>610.4</ele>
        <time>2025-09-06T08:37:19Z</time>
      </trkpt>
      <trkpt lat="46.06175" lon="4.52753">
        <ele>610.4</ele>
        <time>2025-09-06T08:37:20Z</time>
      </trkpt>
      <trkpt lat="46.06175" lon="4.52755">
        <ele>610.4</ele>
        <time>2025-09-06T08:37:21Z</time>
      </trkpt>
      <trkpt lat="46.06176" lon="4.52756">
        <ele>610.8</ele>
        <time>2025-09-06T08:37:22Z</time>
      </trkpt>
      <trkpt lat="46.06176" lon="4.52758">
        <ele>610.8</ele>
        <time>2025-09-06T08:37:23Z</time>
      </trkpt>
      <trkpt lat="46.06177" lon="4.5276">
        <ele>610.8</ele>
        <time>2025-09-06T08:37:24Z</time>
      </trkpt>
      <trkpt lat="46.06178" lon="4.52761">
        <ele>611.2</ele>
        <time>2025-09-06T08:37:25Z</time>
      </trkpt>
      <trkpt lat="46.0618" lon="4.52763">
        <ele>611.2</ele>
        <time>2025-09-06T08:37:26Z</time>
      </trkpt>
      <trkpt lat="46.06181" lon="4.52764">
        <ele>611.2</ele>
        <time>2025-09-06T08:37:27Z</time>
      </trkpt>
      <trkpt lat="46.06182" lon="4.52766">
        <ele>611.2</ele>
        <time>2025-09-06T08:37:28Z</time>
      </trkpt>
      <trkpt lat="46.06184" lon="4.52768">
        <ele>611.4</ele>
        <time>2025-09-06T08:37:29Z</time>
      </trkpt>
      <trkpt lat="46.06185" lon="4.5277">
        <ele>611.2</ele>
        <time>2025-09-06T08:37:30Z</time>
      </trkpt>
      <trkpt lat="46.06186" lon="4.52771">
        <ele>611.4</ele>
        <time>2025-09-06T08:37:31Z</time>
      </trkpt>
      <trkpt lat="46.06187" lon="4.52773">
        <ele>611.4</ele>
        <time>2025-09-06T08:37:32Z</time>
      </trkpt>
      <trkpt lat="46.06188" lon="4.52775">
        <ele>611.6</ele>
        <time>2025-09-06T08:37:33Z</time>
      </trkpt>
      <trkpt lat="46.06189" lon="4.52777">
        <ele>611.6</ele>
        <time>2025-09-06T08:37:34Z</time>
      </trkpt>
      <trkpt lat="46.06189" lon="4.52779">
        <ele>611.6</ele>
        <time>2025-09-06T08:37:35Z</time>
      </trkpt>
      <trkpt lat="46.0619" lon="4.52782">
        <ele>612</ele>
        <time>2025-09-06T08:37:36Z</time>
      </trkpt>
      <trkpt lat="46.0619" lon="4.52784">
        <ele>612</ele>
        <time>2025-09-06T08:37:37Z</time>
      </trkpt>
      <trkpt lat="46.0619" lon="4.52786">
        <ele>612.2</ele>
        <time>2025-09-06T08:37:38Z</time>
      </trkpt>
      <trkpt lat="46.0619" lon="4.52789">
        <ele>612.2</ele>
        <time>2025-09-06T08:37:39Z</time>
      </trkpt>
      <trkpt lat="46.0619" lon="4.52791">
        <ele>612.2</ele>
        <time>2025-09-06T08:37:40Z</time>
      </trkpt>
      <trkpt lat="46.0619" lon="4.52793">
        <ele>612.2</ele>
        <time>2025-09-06T08:37:41Z</time>
      </trkpt>
      <trkpt lat="46.0619" lon="4.52796">
        <ele>612.4</ele>
        <time>2025-09-06T08:37:42Z</time>
      </trkpt>
      <trkpt lat="46.06189" lon="4.52798">
        <ele>612.6</ele>
        <time>2025-09-06T08:37:43Z</time>
      </trkpt>
      <trkpt lat="46.06189" lon="4.528">
        <ele>612.6</ele>
        <time>2025-09-06T08:37:44Z</time>
      </trkpt>
      <trkpt lat="46.06189" lon="4.52802">
        <ele>612.8</ele>
        <time>2025-09-06T08:37:45Z</time>
      </trkpt>
      <trkpt lat="46.06188" lon="4.52805">
        <ele>613.2</ele>
        <time>2025-09-06T08:37:46Z</time>
      </trkpt>
      <trkpt lat="46.06187" lon="4.52807">
        <ele>613.2</ele>
        <time>2025-09-06T08:37:47Z</time>
      </trkpt>
      <trkpt lat="46.06187" lon="4.52809">
        <ele>613.4</ele>
        <time>2025-09-06T08:37:48Z</time>
      </trkpt>
      <trkpt lat="46.06186" lon="4.52811">
        <ele>613.4</ele>
        <time>2025-09-06T08:37:49Z</time>
      </trkpt>
      <trkpt lat="46.06186" lon="4.52813">
        <ele>613.6</ele>
        <time>2025-09-06T08:37:50Z</time>
      </trkpt>
      <trkpt lat="46.06185" lon="4.52815">
        <ele>613.8</ele>
        <time>2025-09-06T08:37:51Z</time>
      </trkpt>
      <trkpt lat="46.06184" lon="4.52817">
        <ele>613.8</ele>
        <time>2025-09-06T08:37:52Z</time>
      </trkpt>
      <trkpt lat="46.06183" lon="4.5282">
        <ele>614.2</ele>
        <time>2025-09-06T08:37:53Z</time>
      </trkpt>
      <trkpt lat="46.06182" lon="4.52822">
        <ele>614.2</ele>
        <time>2025-09-06T08:37:54Z</time>
      </trkpt>
      <trkpt lat="46.06181" lon="4.52824">
        <ele>614.2</ele>
        <time>2025-09-06T08:37:55Z</time>
      </trkpt>
      <trkpt lat="46.06181" lon="4.52825">
        <ele>614.4</ele>
        <time>2025-09-06T08:37:56Z</time>
      </trkpt>
      <trkpt lat="46.0618" lon="4.52827">
        <ele>614.4</ele>
        <time>2025-09-06T08:37:57Z</time>
      </trkpt>
      <trkpt lat="46.06179" lon="4.52829">
        <ele>614.4</ele>
        <time>2025-09-06T08:37:58Z</time>
      </trkpt>
      <trkpt lat="46.06178" lon="4.52831">
        <ele>614.8</ele>
        <time>2025-09-06T08:37:59Z</time>
      </trkpt>
      <trkpt lat="46.06177" lon="4.52833">
        <ele>614.8</ele>
        <time>2025-09-06T08:38:00Z</time>
      </trkpt>
      <trkpt lat="46.06177" lon="4.52835">
        <ele>614.8</ele>
        <time>2025-09-06T08:38:01Z</time>
      </trkpt>
      <trkpt lat="46.06176" lon="4.52838">
        <ele>615</ele>
        <time>2025-09-06T08:38:02Z</time>
      </trkpt>
      <trkpt lat="46.06175" lon="4.5284">
        <ele>615</ele>
        <time>2025-09-06T08:38:03Z</time>
      </trkpt>
      <trkpt lat="46.06175" lon="4.52842">
        <ele>615.4</ele>
        <time>2025-09-06T08:38:04Z</time>
      </trkpt>
      <trkpt lat="46.06174" lon="4.52844">
        <ele>615.6</ele>
        <time>2025-09-06T08:38:05Z</time>
      </trkpt>
      <trkpt lat="46.06174" lon="4.52846">
        <ele>615.6</ele>
        <time>2025-09-06T08:38:06Z</time>
      </trkpt>
      <trkpt lat="46.06174" lon="4.52848">
        <ele>615.6</ele>
        <time>2025-09-06T08:38:07Z</time>
      </trkpt>
      <trkpt lat="46.06173" lon="4.5285">
        <ele>615.8</ele>
        <time>2025-09-06T08:38:08Z</time>
      </trkpt>
      <trkpt lat="46.06173" lon="4.52852">
        <ele>615.8</ele>
        <time>2025-09-06T08:38:09Z</time>
      </trkpt>
      <trkpt lat="46.06173" lon="4.52854">
        <ele>616.2</ele>
        <time>2025-09-06T08:38:10Z</time>
      </trkpt>
      <trkpt lat="46.06173" lon="4.52856">
        <ele>616.2</ele>
        <time>2025-09-06T08:38:11Z</time>
      </trkpt>
      <trkpt lat="46.06173" lon="4.52858">
        <ele>616.2</ele>
        <time>2025-09-06T08:38:12Z</time>
      </trkpt>
      <trkpt lat="46.06173" lon="4.52861">
        <ele>616.2</ele>
        <time>2025-09-06T08:38:13Z</time>
      </trkpt>
      <trkpt lat="46.06174" lon="4.52863">
        <ele>616.2</ele>
        <time>2025-09-06T08:38:14Z</time>
      </trkpt>
      <trkpt lat="46.06174" lon="4.52865">
        <ele>616.6</ele>
        <time>2025-09-06T08:38:15Z</time>
      </trkpt>
      <trkpt lat="46.06174" lon="4.52867">
        <ele>616.6</ele>
        <time>2025-09-06T08:38:16Z</time>
      </trkpt>
      <trkpt lat="46.06175" lon="4.52869">
        <ele>617</ele>
        <time>2025-09-06T08:38:17Z</time>
      </trkpt>
      <trkpt lat="46.06175" lon="4.52871">
        <ele>617</ele>
        <time>2025-09-06T08:38:18Z</time>
      </trkpt>
      <trkpt lat="46.06176" lon="4.52873">
        <ele>617</ele>
        <time>2025-09-06T08:38:19Z</time>
      </trkpt>
      <trkpt lat="46.06177" lon="4.52875">
        <ele>617</ele>
        <time>2025-09-06T08:38:20Z</time>
      </trkpt>
      <trkpt lat="46.06177" lon="4.52877">
        <ele>617.2</ele>
        <time>2025-09-06T08:38:21Z</time>
      </trkpt>
      <trkpt lat="46.06178" lon="4.52879">
        <ele>617.2</ele>
        <time>2025-09-06T08:38:22Z</time>
      </trkpt>
      <trkpt lat="46.06179" lon="4.52882">
        <ele>617.2</ele>
        <time>2025-09-06T08:38:23Z</time>
      </trkpt>
      <trkpt lat="46.06179" lon="4.52884">
        <ele>617.2</ele>
        <time>2025-09-06T08:38:24Z</time>
      </trkpt>
      <trkpt lat="46.0618" lon="4.52885">
        <ele>617.2</ele>
        <time>2025-09-06T08:38:25Z</time>
      </trkpt>
      <trkpt lat="46.06181" lon="4.52888">
        <ele>617.6</ele>
        <time>2025-09-06T08:38:26Z</time>
      </trkpt>
      <trkpt lat="46.06181" lon="4.5289">
        <ele>617.6</ele>
        <time>2025-09-06T08:38:27Z</time>
      </trkpt>
      <trkpt lat="46.06182" lon="4.52892">
        <ele>618</ele>
        <time>2025-09-06T08:38:28Z</time>
      </trkpt>
      <trkpt lat="46.06182" lon="4.52893">
        <ele>618</ele>
        <time>2025-09-06T08:38:29Z</time>
      </trkpt>
      <trkpt lat="46.06183" lon="4.52895">
        <ele>618.2</ele>
        <time>2025-09-06T08:38:30Z</time>
      </trkpt>
      <trkpt lat="46.06184" lon="4.52897">
        <ele>618.2</ele>
        <time>2025-09-06T08:38:31Z</time>
      </trkpt>
      <trkpt lat="46.06185" lon="4.52898">
        <ele>618.2</ele>
        <time>2025-09-06T08:38:32Z</time>
      </trkpt>
      <trkpt lat="46.06186" lon="4.529">
        <ele>618.2</ele>
        <time>2025-09-06T08:38:33Z</time>
      </trkpt>
      <trkpt lat="46.06187" lon="4.52901">
        <ele>618.6</ele>
        <time>2025-09-06T08:38:34Z</time>
      </trkpt>
      <trkpt lat="46.06187" lon="4.52903">
        <ele>618.8</ele>
        <time>2025-09-06T08:38:35Z</time>
      </trkpt>
      <trkpt lat="46.06188" lon="4.52905">
        <ele>618.8</ele>
        <time>2025-09-06T08:38:36Z</time>
      </trkpt>
      <trkpt lat="46.06188" lon="4.52907">
        <ele>618.8</ele>
        <time>2025-09-06T08:38:37Z</time>
      </trkpt>
      <trkpt lat="46.06189" lon="4.5291">
        <ele>618.8</ele>
        <time>2025-09-06T08:38:38Z</time>
      </trkpt>
      <trkpt lat="46.0619" lon="4.52912">
        <ele>619.2</ele>
        <time>2025-09-06T08:38:39Z</time>
      </trkpt>
      <trkpt lat="46.06191" lon="4.52913">
        <ele>619.2</ele>
        <time>2025-09-06T08:38:40Z</time>
      </trkpt>
      <trkpt lat="46.06191" lon="4.52915">
        <ele>619.2</ele>
        <time>2025-09-06T08:38:41Z</time>
      </trkpt>
      <trkpt lat="46.06192" lon="4.52917">
        <ele>619.4</ele>
        <time>2025-09-06T08:38:42Z</time>
      </trkpt>
      <trkpt lat="46.06192" lon="4.5292">
        <ele>619.4</ele>
        <time>2025-09-06T08:38:43Z</time>
      </trkpt>
      <trkpt lat="46.06193" lon="4.52922">
        <ele>619.4</ele>
        <time>2025-09-06T08:38:44Z</time>
      </trkpt>
      <trkpt lat="46.06194" lon="4.52924">
        <ele>619.6</ele>
        <time>2025-09-06T08:38:45Z</time>
      </trkpt>
      <trkpt lat="46.06195" lon="4.52926">
        <ele>619.6</ele>
        <time>2025-09-06T08:38:46Z</time>
      </trkpt>
      <trkpt lat="46.06196" lon="4.52927">
        <ele>619.6</ele>
        <time>2025-09-06T08:38:47Z</time>
      </trkpt>
      <trkpt lat="46.06197" lon="4.5293">
        <ele>619.6</ele>
        <time>2025-09-06T08:38:48Z</time>
      </trkpt>
      <trkpt lat="46.06197" lon="4.52932">
        <ele>619.6</ele>
        <time>2025-09-06T08:38:49Z</time>
      </trkpt>
      <trkpt lat="46.06198" lon="4.52934">
        <ele>620</ele>
        <time>2025-09-06T08:38:50Z</time>
      </trkpt>
      <trkpt lat="46.06198" lon="4.52936">
        <ele>620</ele>
        <time>2025-09-06T08:38:51Z</time>
      </trkpt>
      <trkpt lat="46.06199" lon="4.52938">
        <ele>620.2</ele>
        <time>2025-09-06T08:38:52Z</time>
      </trkpt>
      <trkpt lat="46.062" lon="4.52939">
        <ele>620.2</ele>
        <time>2025-09-06T08:38:53Z</time>
      </trkpt>
      <trkpt lat="46.062" lon="4.52941">
        <ele>620.2</ele>
        <time>2025-09-06T08:38:54Z</time>
      </trkpt>
      <trkpt lat="46.06201" lon="4.52943">
        <ele>620.2</ele>
        <time>2025-09-06T08:38:55Z</time>
      </trkpt>
      <trkpt lat="46.06202" lon="4.52945">
        <ele>620.2</ele>
        <time>2025-09-06T08:38:56Z</time>
      </trkpt>
      <trkpt lat="46.06202" lon="4.52948">
        <ele>620.6</ele>
        <time>2025-09-06T08:38:57Z</time>
      </trkpt>
      <trkpt lat="46.06203" lon="4.5295">
        <ele>620.8</ele>
        <time>2025-09-06T08:38:58Z</time>
      </trkpt>
      <trkpt lat="46.06204" lon="4.52952">
        <ele>620.8</ele>
        <time>2025-09-06T08:38:59Z</time>
      </trkpt>
      <trkpt lat="46.06204" lon="4.52954">
        <ele>620.8</ele>
        <time>2025-09-06T08:39:00Z</time>
      </trkpt>
      <trkpt lat="46.06205" lon="4.52955">
        <ele>620.8</ele>
        <time>2025-09-06T08:39:01Z</time>
      </trkpt>
      <trkpt lat="46.06206" lon="4.52957">
        <ele>620.8</ele>
        <time>2025-09-06T08:39:02Z</time>
      </trkpt>
      <trkpt lat="46.06207" lon="4.52959">
        <ele>620.8</ele>
        <time>2025-09-06T08:39:03Z</time>
      </trkpt>
      <trkpt lat="46.06207" lon="4.52961">
        <ele>621</ele>
        <time>2025-09-06T08:39:04Z</time>
      </trkpt>
      <trkpt lat="46.06208" lon="4.52963">
        <ele>621</ele>
        <time>2025-09-06T08:39:05Z</time>
      </trkpt>
      <trkpt lat="46.06208" lon="4.52965">
        <ele>621</ele>
        <time>2025-09-06T08:39:06Z</time>
      </trkpt>
      <trkpt lat="46.06209" lon="4.52968">
        <ele>621.4</ele>
        <time>2025-09-06T08:39:07Z</time>
      </trkpt>
      <trkpt lat="46.0621" lon="4.5297">
        <ele>621.6</ele>
        <time>2025-09-06T08:39:08Z</time>
      </trkpt>
      <trkpt lat="46.0621" lon="4.52973">
        <ele>621.6</ele>
        <time>2025-09-06T08:39:09Z</time>
      </trkpt>
      <trkpt lat="46.06211" lon="4.52975">
        <ele>621.8</ele>
        <time>2025-09-06T08:39:10Z</time>
      </trkpt>
      <trkpt lat="46.06211" lon="4.52977">
        <ele>622.2</ele>
        <time>2025-09-06T08:39:11Z</time>
      </trkpt>
      <trkpt lat="46.06212" lon="4.52979">
        <ele>622.2</ele>
        <time>2025-09-06T08:39:12Z</time>
      </trkpt>
      <trkpt lat="46.06212" lon="4.52981">
        <ele>622.4</ele>
        <time>2025-09-06T08:39:13Z</time>
      </trkpt>
      <trkpt lat="46.06213" lon="4.52983">
        <ele>622.4</ele>
        <time>2025-09-06T08:39:14Z</time>
      </trkpt>
      <trkpt lat="46.06214" lon="4.52985">
        <ele>622.4</ele>
        <time>2025-09-06T08:39:15Z</time>
      </trkpt>
      <trkpt lat="46.06214" lon="4.52987">
        <ele>622.4</ele>
        <time>2025-09-06T08:39:16Z</time>
      </trkpt>
      <trkpt lat="46.06215" lon="4.52989">
        <ele>622.6</ele>
        <time>2025-09-06T08:39:17Z</time>
      </trkpt>
      <trkpt lat="46.06215" lon="4.52991">
        <ele>622.6</ele>
        <time>2025-09-06T08:39:18Z</time>
      </trkpt>
      <trkpt lat="46.06216" lon="4.52993">
        <ele>623</ele>
        <time>2025-09-06T08:39:19Z</time>
      </trkpt>
      <trkpt lat="46.06216" lon="4.52995">
        <ele>623.2</ele>
        <time>2025-09-06T08:39:20Z</time>
      </trkpt>
      <trkpt lat="46.06217" lon="4.52997">
        <ele>623.4</ele>
        <time>2025-09-06T08:39:21Z</time>
      </trkpt>
      <trkpt lat="46.06218" lon="4.52998">
        <ele>623.4</ele>
        <time>2025-09-06T08:39:22Z</time>
      </trkpt>
      <trkpt lat="46.06219" lon="4.53">
        <ele>623.6</ele>
        <time>2025-09-06T08:39:23Z</time>
      </trkpt>
      <trkpt lat="46.0622" lon="4.53002">
        <ele>623.6</ele>
        <time>2025-09-06T08:39:24Z</time>
      </trkpt>
      <trkpt lat="46.06221" lon="4.53004">
        <ele>624</ele>
        <time>2025-09-06T08:39:25Z</time>
      </trkpt>
      <trkpt lat="46.06221" lon="4.53006">
        <ele>624</ele>
        <time>2025-09-06T08:39:26Z</time>
      </trkpt>
      <trkpt lat="46.06222" lon="4.53008">
        <ele>624</ele>
        <time>2025-09-06T08:39:27Z</time>
      </trkpt>
      <trkpt lat="46.06223" lon="4.5301">
        <ele>624</ele>
        <time>2025-09-06T08:39:28Z</time>
      </trkpt>
      <trkpt lat="46.06223" lon="4.53012">
        <ele>624.2</ele>
        <time>2025-09-06T08:39:29Z</time>
      </trkpt>
      <trkpt lat="46.06224" lon="4.53014">
        <ele>624.2</ele>
        <time>2025-09-06T08:39:30Z</time>
      </trkpt>
      <trkpt lat="46.06224" lon="4.53017">
        <ele>624.6</ele>
        <time>2025-09-06T08:39:31Z</time>
      </trkpt>
      <trkpt lat="46.06224" lon="4.53019">
        <ele>624.6</ele>
        <time>2025-09-06T08:39:32Z</time>
      </trkpt>
      <trkpt lat="46.06225" lon="4.53022">
        <ele>624.6</ele>
        <time>2025-09-06T08:39:33Z</time>
      </trkpt>
      <trkpt lat="46.06225" lon="4.53025">
        <ele>625</ele>
        <time>2025-09-06T08:39:34Z</time>
      </trkpt>
      <trkpt lat="46.06225" lon="4.53027">
        <ele>625.4</ele>
        <time>2025-09-06T08:39:35Z</time>
      </trkpt>
      <trkpt lat="46.06226" lon="4.5303">
        <ele>625.4</ele>
        <time>2025-09-06T08:39:36Z</time>
      </trkpt>
      <trkpt lat="46.06226" lon="4.53033">
        <ele>625.4</ele>
        <time>2025-09-06T08:39:37Z</time>
      </trkpt>
      <trkpt lat="46.06226" lon="4.53036">
        <ele>625.4</ele>
        <time>2025-09-06T08:39:38Z</time>
      </trkpt>
      <trkpt lat="46.06226" lon="4.53038">
        <ele>625.4</ele>
        <time>2025-09-06T08:39:39Z</time>
      </trkpt>
      <trkpt lat="46.06225" lon="4.53041">
        <ele>625.6</ele>
        <time>2025-09-06T08:39:40Z</time>
      </trkpt>
      <trkpt lat="46.06224" lon="4.53043">
        <ele>625.6</ele>
        <time>2025-09-06T08:39:41Z</time>
      </trkpt>
      <trkpt lat="46.06224" lon="4.53046">
        <ele>625.8</ele>
        <time>2025-09-06T08:39:42Z</time>
      </trkpt>
      <trkpt lat="46.06222" lon="4.53048">
        <ele>625.8</ele>
        <time>2025-09-06T08:39:43Z</time>
      </trkpt>
      <trkpt lat="46.06221" lon="4.5305">
        <ele>625.8</ele>
        <time>2025-09-06T08:39:44Z</time>
      </trkpt>
      <trkpt lat="46.06219" lon="4.53052">
        <ele>625.8</ele>
        <time>2025-09-06T08:39:45Z</time>
      </trkpt>
      <trkpt lat="46.06219" lon="4.53052">
        <ele>625.8</ele>
        <time>2025-09-06T08:39:46Z</time>
      </trkpt>
      <trkpt lat="46.06218" lon="4.53053">
        <ele>626</ele>
        <time>2025-09-06T08:39:47Z</time>
      </trkpt>
      <trkpt lat="46.06216" lon="4.53054">
        <ele>626</ele>
        <time>2025-09-06T08:39:48Z</time>
      </trkpt>
      <trkpt lat="46.06215" lon="4.53055">
        <ele>626</ele>
        <time>2025-09-06T08:39:49Z</time>
      </trkpt>
      <trkpt lat="46.06214" lon="4.53056">
        <ele>626.2</ele>
        <time>2025-09-06T08:39:50Z</time>
      </trkpt>
      <trkpt lat="46.06212" lon="4.53057">
        <ele>626.2</ele>
        <time>2025-09-06T08:39:51Z</time>
      </trkpt>
      <trkpt lat="46.0621" lon="4.53057">
        <ele>626.6</ele>
        <time>2025-09-06T08:39:52Z</time>
      </trkpt>
      <trkpt lat="46.06208" lon="4.53056">
        <ele>626.6</ele>
        <time>2025-09-06T08:39:53Z</time>
      </trkpt>
      <trkpt lat="46.06206" lon="4.53056">
        <ele>626.6</ele>
        <time>2025-09-06T08:39:54Z</time>
      </trkpt>
      <trkpt lat="46.06204" lon="4.53055">
        <ele>626.8</ele>
        <time>2025-09-06T08:39:55Z</time>
      </trkpt>
      <trkpt lat="46.06203" lon="4.53055">
        <ele>627.2</ele>
        <time>2025-09-06T08:39:56Z</time>
      </trkpt>
      <trkpt lat="46.06202" lon="4.53054">
        <ele>627.2</ele>
        <time>2025-09-06T08:39:57Z</time>
      </trkpt>
      <trkpt lat="46.062" lon="4.53053">
        <ele>627.4</ele>
        <time>2025-09-06T08:39:58Z</time>
      </trkpt>
      <trkpt lat="46.06199" lon="4.53052">
        <ele>627.4</ele>
        <time>2025-09-06T08:39:59Z</time>
      </trkpt>
      <trkpt lat="46.06198" lon="4.53051">
        <ele>627.4</ele>
        <time>2025-09-06T08:40:00Z</time>
      </trkpt>
      <trkpt lat="46.06198" lon="4.53049">
        <ele>627.4</ele>
        <time>2025-09-06T08:40:01Z</time>
      </trkpt>
      <trkpt lat="46.06197" lon="4.53046">
        <ele>627.6</ele>
        <time>2025-09-06T08:40:02Z</time>
      </trkpt>
      <trkpt lat="46.06195" lon="4.53045">
        <ele>627.6</ele>
        <time>2025-09-06T08:40:03Z</time>
      </trkpt>
      <trkpt lat="46.06194" lon="4.53045">
        <ele>627.6</ele>
        <time>2025-09-06T08:40:04Z</time>
      </trkpt>
      <trkpt lat="46.06192" lon="4.53044">
        <ele>628</ele>
        <time>2025-09-06T08:40:05Z</time>
      </trkpt>
      <trkpt lat="46.0619" lon="4.53043">
        <ele>628</ele>
        <time>2025-09-06T08:40:06Z</time>
      </trkpt>
      <trkpt lat="46.06188" lon="4.53042">
        <ele>628.2</ele>
        <time>2025-09-06T08:40:07Z</time>
      </trkpt>
      <trkpt lat="46.06186" lon="4.53041">
        <ele>628.2</ele>
        <time>2025-09-06T08:40:08Z</time>
      </trkpt>
      <trkpt lat="46.06184" lon="4.5304">
        <ele>628.4</ele>
        <time>2025-09-06T08:40:09Z</time>
      </trkpt>
      <trkpt lat="46.06182" lon="4.53039">
        <ele>628.4</ele>
        <time>2025-09-06T08:40:10Z</time>
      </trkpt>
      <trkpt lat="46.06179" lon="4.53038">
        <ele>628.8</ele>
        <time>2025-09-06T08:40:11Z</time>
      </trkpt>
      <trkpt lat="46.06177" lon="4.53037">
        <ele>628.8</ele>
        <time>2025-09-06T08:40:12Z</time>
      </trkpt>
      <trkpt lat="46.06174" lon="4.53038">
        <ele>628.8</ele>
        <time>2025-09-06T08:40:13Z</time>
      </trkpt>
      <trkpt lat="46.06172" lon="4.53038">
        <ele>629</ele>
        <time>2025-09-06T08:40:14Z</time>
      </trkpt>
      <trkpt lat="46.06171" lon="4.53038">
        <ele>629</ele>
        <time>2025-09-06T08:40:15Z</time>
      </trkpt>
      <trkpt lat="46.06169" lon="4.53037">
        <ele>629</ele>
        <time>2025-09-06T08:40:16Z</time>
      </trkpt>
      <trkpt lat="46.06167" lon="4.53036">
        <ele>629</ele>
        <time>2025-09-06T08:40:17Z</time>
      </trkpt>
      <trkpt lat="46.06165" lon="4.53035">
        <ele>629.2</ele>
        <time>2025-09-06T08:40:18Z</time>
      </trkpt>
      <trkpt lat="46.06163" lon="4.53035">
        <ele>629.2</ele>
        <time>2025-09-06T08:40:19Z</time>
      </trkpt>
      <trkpt lat="46.06161" lon="4.53034">
        <ele>629.2</ele>
        <time>2025-09-06T08:40:20Z</time>
      </trkpt>
      <trkpt lat="46.0616" lon="4.53032">
        <ele>629.4</ele>
        <time>2025-09-06T08:40:21Z</time>
      </trkpt>
      <trkpt lat="46.06159" lon="4.53031">
        <ele>629.4</ele>
        <time>2025-09-06T08:40:22Z</time>
      </trkpt>
      <trkpt lat="46.06157" lon="4.53029">
        <ele>629.4</ele>
        <time>2025-09-06T08:40:23Z</time>
      </trkpt>
      <trkpt lat="46.06156" lon="4.53028">
        <ele>629.4</ele>
        <time>2025-09-06T08:40:24Z</time>
      </trkpt>
      <trkpt lat="46.06154" lon="4.53027">
        <ele>629.8</ele>
        <time>2025-09-06T08:40:25Z</time>
      </trkpt>
      <trkpt lat="46.06153" lon="4.53026">
        <ele>629.8</ele>
        <time>2025-09-06T08:40:26Z</time>
      </trkpt>
      <trkpt lat="46.06152" lon="4.53025">
        <ele>630.2</ele>
        <time>2025-09-06T08:40:27Z</time>
      </trkpt>
      <trkpt lat="46.0615" lon="4.53024">
        <ele>630.2</ele>
        <time>2025-09-06T08:40:28Z</time>
      </trkpt>
      <trkpt lat="46.06149" lon="4.53023">
        <ele>630.2</ele>
        <time>2025-09-06T08:40:29Z</time>
      </trkpt>
      <trkpt lat="46.06148" lon="4.53023">
        <ele>630.2</ele>
        <time>2025-09-06T08:40:30Z</time>
      </trkpt>
      <trkpt lat="46.06146" lon="4.53022">
        <ele>630.6</ele>
        <time>2025-09-06T08:40:31Z</time>
      </trkpt>
      <trkpt lat="46.06145" lon="4.53022">
        <ele>630.6</ele>
        <time>2025-09-06T08:40:32Z</time>
      </trkpt>
      <trkpt lat="46.06143" lon="4.53021">
        <ele>630.6</ele>
        <time>2025-09-06T08:40:33Z</time>
      </trkpt>
      <trkpt lat="46.06141" lon="4.53021">
        <ele>631</ele>
        <time>2025-09-06T08:40:34Z</time>
      </trkpt>
      <trkpt lat="46.0614" lon="4.5302">
        <ele>631</ele>
        <time>2025-09-06T08:40:35Z</time>
      </trkpt>
      <trkpt lat="46.06138" lon="4.5302">
        <ele>631</ele>
        <time>2025-09-06T08:40:36Z</time>
      </trkpt>
      <trkpt lat="46.06136" lon="4.53021">
        <ele>631</ele>
        <time>2025-09-06T08:40:37Z</time>
      </trkpt>
      <trkpt lat="46.06135" lon="4.53021">
        <ele>631.4</ele>
        <time>2025-09-06T08:40:38Z</time>
      </trkpt>
      <trkpt lat="46.06133" lon="4.5302">
        <ele>631.4</ele>
        <time>2025-09-06T08:40:39Z</time>
      </trkpt>
      <trkpt lat="46.06132" lon="4.53021">
        <ele>631.4</ele>
        <time>2025-09-06T08:40:40Z</time>
      </trkpt>
      <trkpt lat="46.0613" lon="4.53021">
        <ele>631.4</ele>
        <time>2025-09-06T08:40:41Z</time>
      </trkpt>
      <trkpt lat="46.06128" lon="4.53022">
        <ele>631.6</ele>
        <time>2025-09-06T08:40:42Z</time>
      </trkpt>
      <trkpt lat="46.06126" lon="4.53022">
        <ele>631.6</ele>
        <time>2025-09-06T08:40:43Z</time>
      </trkpt>
      <trkpt lat="46.06125" lon="4.53023">
        <ele>631.8</ele>
        <time>2025-09-06T08:40:44Z</time>
      </trkpt>
      <trkpt lat="46.06123" lon="4.53023">
        <ele>631.8</ele>
        <time>2025-09-06T08:40:45Z</time>
      </trkpt>
      <trkpt lat="46.06121" lon="4.53023">
        <ele>632</ele>
        <time>2025-09-06T08:40:46Z</time>
      </trkpt>
      <trkpt lat="46.0612" lon="4.53024">
        <ele>632</ele>
        <time>2025-09-06T08:40:47Z</time>
      </trkpt>
      <trkpt lat="46.06118" lon="4.53024">
        <ele>632</ele>
        <time>2025-09-06T08:40:48Z</time>
      </trkpt>
      <trkpt lat="46.06117" lon="4.53025">
        <ele>632.4</ele>
        <time>2025-09-06T08:40:49Z</time>
      </trkpt>
      <trkpt lat="46.06115" lon="4.53026">
        <ele>632.4</ele>
        <time>2025-09-06T08:40:50Z</time>
      </trkpt>
      <trkpt lat="46.06113" lon="4.53028">
        <ele>632.6</ele>
        <time>2025-09-06T08:40:51Z</time>
      </trkpt>
      <trkpt lat="46.06112" lon="4.53029">
        <ele>632.6</ele>
        <time>2025-09-06T08:40:52Z</time>
      </trkpt>
      <trkpt lat="46.0611" lon="4.5303">
        <ele>633</ele>
        <time>2025-09-06T08:40:53Z</time>
      </trkpt>
      <trkpt lat="46.06108" lon="4.53031">
        <ele>633</ele>
        <time>2025-09-06T08:40:54Z</time>
      </trkpt>
      <trkpt lat="46.06107" lon="4.53031">
        <ele>633</ele>
        <time>2025-09-06T08:40:55Z</time>
      </trkpt>
      <trkpt lat="46.06106" lon="4.53032">
        <ele>633.2</ele>
        <time>2025-09-06T08:40:56Z</time>
      </trkpt>
      <trkpt lat="46.06105" lon="4.53033">
        <ele>633.2</ele>
        <time>2025-09-06T08:40:57Z</time>
      </trkpt>
      <trkpt lat="46.06103" lon="4.53035">
        <ele>633.2</ele>
        <time>2025-09-06T08:40:58Z</time>
      </trkpt>
      <trkpt lat="46.06102" lon="4.53036">
        <ele>633.2</ele>
        <time>2025-09-06T08:40:59Z</time>
      </trkpt>
      <trkpt lat="46.061" lon="4.53037">
        <ele>633.6</ele>
        <time>2025-09-06T08:41:00Z</time>
      </trkpt>
      <trkpt lat="46.06099" lon="4.53039">
        <ele>633.6</ele>
        <time>2025-09-06T08:41:01Z</time>
      </trkpt>
      <trkpt lat="46.06097" lon="4.5304">
        <ele>634</ele>
        <time>2025-09-06T08:41:02Z</time>
      </trkpt>
      <trkpt lat="46.06096" lon="4.53041">
        <ele>634</ele>
        <time>2025-09-06T08:41:03Z</time>
      </trkpt>
      <trkpt lat="46.06095" lon="4.53041">
        <ele>634</ele>
        <time>2025-09-06T08:41:04Z</time>
      </trkpt>
      <trkpt lat="46.06093" lon="4.53042">
        <ele>634</ele>
        <time>2025-09-06T08:41:05Z</time>
      </trkpt>
      <trkpt lat="46.06092" lon="4.53043">
        <ele>634</ele>
        <time>2025-09-06T08:41:06Z</time>
      </trkpt>
      <trkpt lat="46.0609" lon="4.53044">
        <ele>634.4</ele>
        <time>2025-09-06T08:41:07Z</time>
      </trkpt>
      <trkpt lat="46.06089" lon="4.53045">
        <ele>634.4</ele>
        <time>2025-09-06T08:41:08Z</time>
      </trkpt>
      <trkpt lat="46.06088" lon="4.53046">
        <ele>634.4</ele>
        <time>2025-09-06T08:41:09Z</time>
      </trkpt>
      <trkpt lat="46.06086" lon="4.53048">
        <ele>634.4</ele>
        <time>2025-09-06T08:41:10Z</time>
      </trkpt>
      <trkpt lat="46.06085" lon="4.53051">
        <ele>634.6</ele>
        <time>2025-09-06T08:41:11Z</time>
      </trkpt>
      <trkpt lat="46.06083" lon="4.53052">
        <ele>634.6</ele>
        <time>2025-09-06T08:41:12Z</time>
      </trkpt>
      <trkpt lat="46.06082" lon="4.53053">
        <ele>634.8</ele>
        <time>2025-09-06T08:41:13Z</time>
      </trkpt>
      <trkpt lat="46.0608" lon="4.53054">
        <ele>634.8</ele>
        <time>2025-09-06T08:41:14Z</time>
      </trkpt>
      <trkpt lat="46.06079" lon="4.53055">
        <ele>634.8</ele>
        <time>2025-09-06T08:41:15Z</time>
      </trkpt>
      <trkpt lat="46.06078" lon="4.53055">
        <ele>634.8</ele>
        <time>2025-09-06T08:41:16Z</time>
      </trkpt>
      <trkpt lat="46.06077" lon="4.53056">
        <ele>635.2</ele>
        <time>2025-09-06T08:41:17Z</time>
      </trkpt>
      <trkpt lat="46.06076" lon="4.53057">
        <ele>635.2</ele>
        <time>2025-09-06T08:41:18Z</time>
      </trkpt>
      <trkpt lat="46.06074" lon="4.53058">
        <ele>635.6</ele>
        <time>2025-09-06T08:41:19Z</time>
      </trkpt>
      <trkpt lat="46.06073" lon="4.53059">
        <ele>635.6</ele>
        <time>2025-09-06T08:41:20Z</time>
      </trkpt>
      <trkpt lat="46.06072" lon="4.53059">
        <ele>635.8</ele>
        <time>2025-09-06T08:41:21Z</time>
      </trkpt>
      <trkpt lat="46.06071" lon="4.53061">
        <ele>635.8</ele>
        <time>2025-09-06T08:41:22Z</time>
      </trkpt>
      <trkpt lat="46.0607" lon="4.53062">
        <ele>635.8</ele>
        <time>2025-09-06T08:41:23Z</time>
      </trkpt>
      <trkpt lat="46.06069" lon="4.53063">
        <ele>635.8</ele>
        <time>2025-09-06T08:41:24Z</time>
      </trkpt>
      <trkpt lat="46.06068" lon="4.53064">
        <ele>636</ele>
        <time>2025-09-06T08:41:25Z</time>
      </trkpt>
      <trkpt lat="46.06066" lon="4.53065">
        <ele>636</ele>
        <time>2025-09-06T08:41:26Z</time>
      </trkpt>
      <trkpt lat="46.06065" lon="4.53066">
        <ele>636</ele>
        <time>2025-09-06T08:41:27Z</time>
      </trkpt>
      <trkpt lat="46.06064" lon="4.53068">
        <ele>636.4</ele>
        <time>2025-09-06T08:41:28Z</time>
      </trkpt>
      <trkpt lat="46.06062" lon="4.53069">
        <ele>636.4</ele>
        <time>2025-09-06T08:41:29Z</time>
      </trkpt>
      <trkpt lat="46.06061" lon="4.5307">
        <ele>636.4</ele>
        <time>2025-09-06T08:41:30Z</time>
      </trkpt>
      <trkpt lat="46.06059" lon="4.53071">
        <ele>636.6</ele>
        <time>2025-09-06T08:41:31Z</time>
      </trkpt>
      <trkpt lat="46.06058" lon="4.53073">
        <ele>636.6</ele>
        <time>2025-09-06T08:41:32Z</time>
      </trkpt>
      <trkpt lat="46.06056" lon="4.53074">
        <ele>637</ele>
        <time>2025-09-06T08:41:33Z</time>
      </trkpt>
      <trkpt lat="46.06055" lon="4.53075">
        <ele>637</ele>
        <time>2025-09-06T08:41:34Z</time>
      </trkpt>
      <trkpt lat="46.06054" lon="4.53077">
        <ele>637</ele>
        <time>2025-09-06T08:41:35Z</time>
      </trkpt>
      <trkpt lat="46.06053" lon="4.53078">
        <ele>637.4</ele>
        <time>2025-09-06T08:41:36Z</time>
      </trkpt>
      <trkpt lat="46.06051" lon="4.53078">
        <ele>637.4</ele>
        <time>2025-09-06T08:41:37Z</time>
      </trkpt>
      <trkpt lat="46.0605" lon="4.53078">
        <ele>637.4</ele>
        <time>2025-09-06T08:41:38Z</time>
      </trkpt>
      <trkpt lat="46.06048" lon="4.53079">
        <ele>637.4</ele>
        <time>2025-09-06T08:41:39Z</time>
      </trkpt>
      <trkpt lat="46.06047" lon="4.53081">
        <ele>637.4</ele>
        <time>2025-09-06T08:41:40Z</time>
      </trkpt>
      <trkpt lat="46.06045" lon="4.53083">
        <ele>637.4</ele>
        <time>2025-09-06T08:41:41Z</time>
      </trkpt>
      <trkpt lat="46.06044" lon="4.53084">
        <ele>637.6</ele>
        <time>2025-09-06T08:41:42Z</time>
      </trkpt>
      <trkpt lat="46.06043" lon="4.53086">
        <ele>637.6</ele>
        <time>2025-09-06T08:41:43Z</time>
      </trkpt>
      <trkpt lat="46.06042" lon="4.53087">
        <ele>638</ele>
        <time>2025-09-06T08:41:44Z</time>
      </trkpt>
      <trkpt lat="46.0604" lon="4.53088">
        <ele>638</ele>
        <time>2025-09-06T08:41:45Z</time>
      </trkpt>
      <trkpt lat="46.06039" lon="4.53089">
        <ele>638</ele>
        <time>2025-09-06T08:41:46Z</time>
      </trkpt>
      <trkpt lat="46.06038" lon="4.5309">
        <ele>638.4</ele>
        <time>2025-09-06T08:41:47Z</time>
      </trkpt>
      <trkpt lat="46.06037" lon="4.53091">
        <ele>638.4</ele>
        <time>2025-09-06T08:41:48Z</time>
      </trkpt>
      <trkpt lat="46.06035" lon="4.53093">
        <ele>638.6</ele>
        <time>2025-09-06T08:41:49Z</time>
      </trkpt>
      <trkpt lat="46.06034" lon="4.53093">
        <ele>638.6</ele>
        <time>2025-09-06T08:41:50Z</time>
      </trkpt>
      <trkpt lat="46.06033" lon="4.53094">
        <ele>638.6</ele>
        <time>2025-09-06T08:41:51Z</time>
      </trkpt>
      <trkpt lat="46.06032" lon="4.53095">
        <ele>638.6</ele>
        <time>2025-09-06T08:41:52Z</time>
      </trkpt>
      <trkpt lat="46.0603" lon="4.53095">
        <ele>639</ele>
        <time>2025-09-06T08:41:53Z</time>
      </trkpt>
      <trkpt lat="46.06029" lon="4.53096">
        <ele>639</ele>
        <time>2025-09-06T08:41:54Z</time>
      </trkpt>
      <trkpt lat="46.06028" lon="4.53097">
        <ele>639</ele>
        <time>2025-09-06T08:41:55Z</time>
      </trkpt>
      <trkpt lat="46.06026" lon="4.53098">
        <ele>639</ele>
        <time>2025-09-06T08:41:56Z</time>
      </trkpt>
      <trkpt lat="46.06025" lon="4.53099">
        <ele>639.2</ele>
        <time>2025-09-06T08:41:57Z</time>
      </trkpt>
      <trkpt lat="46.06023" lon="4.531">
        <ele>639.6</ele>
        <time>2025-09-06T08:41:58Z</time>
      </trkpt>
      <trkpt lat="46.06022" lon="4.53101">
        <ele>639.6</ele>
        <time>2025-09-06T08:41:59Z</time>
      </trkpt>
      <trkpt lat="46.06021" lon="4.53102">
        <ele>639.8</ele>
        <time>2025-09-06T08:42:00Z</time>
      </trkpt>
      <trkpt lat="46.0602" lon="4.53103">
        <ele>639.8</ele>
        <time>2025-09-06T08:42:01Z</time>
      </trkpt>
      <trkpt lat="46.06018" lon="4.53104">
        <ele>640</ele>
        <time>2025-09-06T08:42:02Z</time>
      </trkpt>
      <trkpt lat="46.06017" lon="4.53106">
        <ele>640</ele>
        <time>2025-09-06T08:42:03Z</time>
      </trkpt>
      <trkpt lat="46.06015" lon="4.53107">
        <ele>640.4</ele>
        <time>2025-09-06T08:42:04Z</time>
      </trkpt>
      <trkpt lat="46.06014" lon="4.53108">
        <ele>640.4</ele>
        <time>2025-09-06T08:42:05Z</time>
      </trkpt>
      <trkpt lat="46.06013" lon="4.53109">
        <ele>640.4</ele>
        <time>2025-09-06T08:42:06Z</time>
      </trkpt>
      <trkpt lat="46.06011" lon="4.5311">
        <ele>640.6</ele>
        <time>2025-09-06T08:42:07Z</time>
      </trkpt>
      <trkpt lat="46.0601" lon="4.53111">
        <ele>640.6</ele>
        <time>2025-09-06T08:42:08Z</time>
      </trkpt>
      <trkpt lat="46.06008" lon="4.53112">
        <ele>640.8</ele>
        <time>2025-09-06T08:42:09Z</time>
      </trkpt>
      <trkpt lat="46.06007" lon="4.53114">
        <ele>640.8</ele>
        <time>2025-09-06T08:42:10Z</time>
      </trkpt>
      <trkpt lat="46.06005" lon="4.53115">
        <ele>640.8</ele>
        <time>2025-09-06T08:42:11Z</time>
      </trkpt>
      <trkpt lat="46.06004" lon="4.53117">
        <ele>641</ele>
        <time>2025-09-06T08:42:12Z</time>
      </trkpt>
      <trkpt lat="46.06003" lon="4.53118">
        <ele>641</ele>
        <time>2025-09-06T08:42:13Z</time>
      </trkpt>
      <trkpt lat="46.06002" lon="4.53119">
        <ele>641</ele>
        <time>2025-09-06T08:42:14Z</time>
      </trkpt>
      <trkpt lat="46.06" lon="4.53121">
        <ele>641</ele>
        <time>2025-09-06T08:42:15Z</time>
      </trkpt>
      <trkpt lat="46.05999" lon="4.53122">
        <ele>641.4</ele>
        <time>2025-09-06T08:42:16Z</time>
      </trkpt>
      <trkpt lat="46.05998" lon="4.53123">
        <ele>641.6</ele>
        <time>2025-09-06T08:42:17Z</time>
      </trkpt>
      <trkpt lat="46.05997" lon="4.53124">
        <ele>641.6</ele>
        <time>2025-09-06T08:42:18Z</time>
      </trkpt>
      <trkpt lat="46.05996" lon="4.53125">
        <ele>641.8</ele>
        <time>2025-09-06T08:42:19Z</time>
      </trkpt>
      <trkpt lat="46.05995" lon="4.53127">
        <ele>641.8</ele>
        <time>2025-09-06T08:42:20Z</time>
      </trkpt>
      <trkpt lat="46.05994" lon="4.53128">
        <ele>642.2</ele>
        <time>2025-09-06T08:42:21Z</time>
      </trkpt>
      <trkpt lat="46.05993" lon="4.5313">
        <ele>642.2</ele>
        <time>2025-09-06T08:42:22Z</time>
      </trkpt>
      <trkpt lat="46.05992" lon="4.53132">
        <ele>642.4</ele>
        <time>2025-09-06T08:42:23Z</time>
      </trkpt>
      <trkpt lat="46.0599" lon="4.53134">
        <ele>642.4</ele>
        <time>2025-09-06T08:42:24Z</time>
      </trkpt>
      <trkpt lat="46.05989" lon="4.53135">
        <ele>642.4</ele>
        <time>2025-09-06T08:42:25Z</time>
      </trkpt>
      <trkpt lat="46.05988" lon="4.53137">
        <ele>642.8</ele>
        <time>2025-09-06T08:42:26Z</time>
      </trkpt>
      <trkpt lat="46.05987" lon="4.53138">
        <ele>642.8</ele>
        <time>2025-09-06T08:42:27Z</time>
      </trkpt>
      <trkpt lat="46.05986" lon="4.53139">
        <ele>642.8</ele>
        <time>2025-09-06T08:42:28Z</time>
      </trkpt>
      <trkpt lat="46.05985" lon="4.53141">
        <ele>642.8</ele>
        <time>2025-09-06T08:42:29Z</time>
      </trkpt>
      <trkpt lat="46.05984" lon="4.53143">
        <ele>642.8</ele>
        <time>2025-09-06T08:42:30Z</time>
      </trkpt>
      <trkpt lat="46.05984" lon="4.53145">
        <ele>643</ele>
        <time>2025-09-06T08:42:31Z</time>
      </trkpt>
      <trkpt lat="46.05983" lon="4.53146">
        <ele>643.4</ele>
        <time>2025-09-06T08:42:32Z</time>
      </trkpt>
      <trkpt lat="46.05982" lon="4.53148">
        <ele>643.6</ele>
        <time>2025-09-06T08:42:33Z</time>
      </trkpt>
      <trkpt lat="46.05981" lon="4.5315">
        <ele>643.6</ele>
        <time>2025-09-06T08:42:34Z</time>
      </trkpt>
      <trkpt lat="46.05981" lon="4.53151">
        <ele>643.6</ele>
        <time>2025-09-06T08:42:35Z</time>
      </trkpt>
      <trkpt lat="46.0598" lon="4.53152">
        <ele>643.6</ele>
        <time>2025-09-06T08:42:36Z</time>
      </trkpt>
      <trkpt lat="46.0598" lon="4.53153">
        <ele>643.6</ele>
        <time>2025-09-06T08:42:37Z</time>
      </trkpt>
      <trkpt lat="46.0598" lon="4.53154">
        <ele>643.6</ele>
        <time>2025-09-06T08:42:38Z</time>
      </trkpt>
      <trkpt lat="46.0598" lon="4.53155">
        <ele>643.8</ele>
        <time>2025-09-06T08:42:39Z</time>
      </trkpt>
      <trkpt lat="46.0598" lon="4.53156">
        <ele>643.8</ele>
        <time>2025-09-06T08:42:40Z</time>
      </trkpt>
      <trkpt lat="46.05979" lon="4.53158">
        <ele>644</ele>
        <time>2025-09-06T08:42:41Z</time>
      </trkpt>
      <trkpt lat="46.05977" lon="4.53161">
        <ele>644</ele>
        <time>2025-09-06T08:42:42Z</time>
      </trkpt>
      <trkpt lat="46.05976" lon="4.53163">
        <ele>644</ele>
        <time>2025-09-06T08:42:43Z</time>
      </trkpt>
      <trkpt lat="46.05976" lon="4.53165">
        <ele>644</ele>
        <time>2025-09-06T08:42:44Z</time>
      </trkpt>
      <trkpt lat="46.05975" lon="4.53168">
        <ele>644</ele>
        <time>2025-09-06T08:42:45Z</time>
      </trkpt>
      <trkpt lat="46.05974" lon="4.53171">
        <ele>644</ele>
        <time>2025-09-06T08:42:46Z</time>
      </trkpt>
      <trkpt lat="46.05973" lon="4.53173">
        <ele>644.4</ele>
        <time>2025-09-06T08:42:47Z</time>
      </trkpt>
      <trkpt lat="46.05973" lon="4.53175">
        <ele>644.8</ele>
        <time>2025-09-06T08:42:48Z</time>
      </trkpt>
      <trkpt lat="46.05972" lon="4.53177">
        <ele>644.8</ele>
        <time>2025-09-06T08:42:49Z</time>
      </trkpt>
      <trkpt lat="46.05971" lon="4.53179">
        <ele>644.8</ele>
        <time>2025-09-06T08:42:50Z</time>
      </trkpt>
      <trkpt lat="46.0597" lon="4.53181">
        <ele>645</ele>
        <time>2025-09-06T08:42:51Z</time>
      </trkpt>
      <trkpt lat="46.05969" lon="4.53183">
        <ele>645</ele>
        <time>2025-09-06T08:42:52Z</time>
      </trkpt>
      <trkpt lat="46.05968" lon="4.53185">
        <ele>645</ele>
        <time>2025-09-06T08:42:53Z</time>
      </trkpt>
      <trkpt lat="46.05967" lon="4.53187">
        <ele>645</ele>
        <time>2025-09-06T08:42:54Z</time>
      </trkpt>
      <trkpt lat="46.05966" lon="4.53189">
        <ele>645</ele>
        <time>2025-09-06T08:42:55Z</time>
      </trkpt>
      <trkpt lat="46.05965" lon="4.53191">
        <ele>645.4</ele>
        <time>2025-09-06T08:42:56Z</time>
      </trkpt>
      <trkpt lat="46.05964" lon="4.53193">
        <ele>645.4</ele>
        <time>2025-09-06T08:42:57Z</time>
      </trkpt>
      <trkpt lat="46.05963" lon="4.53195">
        <ele>645.6</ele>
        <time>2025-09-06T08:42:58Z</time>
      </trkpt>
      <trkpt lat="46.05962" lon="4.53196">
        <ele>645.6</ele>
        <time>2025-09-06T08:42:59Z</time>
      </trkpt>
      <trkpt lat="46.05961" lon="4.53198">
        <ele>645.8</ele>
        <time>2025-09-06T08:43:00Z</time>
      </trkpt>
      <trkpt lat="46.0596" lon="4.532">
        <ele>645.8</ele>
        <time>2025-09-06T08:43:01Z</time>
      </trkpt>
      <trkpt lat="46.0596" lon="4.53201">
        <ele>645.8</ele>
        <time>2025-09-06T08:43:02Z</time>
      </trkpt>
      <trkpt lat="46.0596" lon="4.53203">
        <ele>645.8</ele>
        <time>2025-09-06T08:43:03Z</time>
      </trkpt>
      <trkpt lat="46.0596" lon="4.53205">
        <ele>646.2</ele>
        <time>2025-09-06T08:43:04Z</time>
      </trkpt>
      <trkpt lat="46.0596" lon="4.53206">
        <ele>646.6</ele>
        <time>2025-09-06T08:43:05Z</time>
      </trkpt>
      <trkpt lat="46.05959" lon="4.53208">
        <ele>646.6</ele>
        <time>2025-09-06T08:43:06Z</time>
      </trkpt>
      <trkpt lat="46.05959" lon="4.5321">
        <ele>646.6</ele>
        <time>2025-09-06T08:43:07Z</time>
      </trkpt>
      <trkpt lat="46.05958" lon="4.53212">
        <ele>647</ele>
        <time>2025-09-06T08:43:08Z</time>
      </trkpt>
      <trkpt lat="46.05958" lon="4.53214">
        <ele>647</ele>
        <time>2025-09-06T08:43:09Z</time>
      </trkpt>
      <trkpt lat="46.05957" lon="4.53216">
        <ele>647</ele>
        <time>2025-09-06T08:43:10Z</time>
      </trkpt>
      <trkpt lat="46.05956" lon="4.53218">
        <ele>647</ele>
        <time>2025-09-06T08:43:11Z</time>
      </trkpt>
      <trkpt lat="46.05955" lon="4.5322">
        <ele>647</ele>
        <time>2025-09-06T08:43:12Z</time>
      </trkpt>
      <trkpt lat="46.05955" lon="4.53223">
        <ele>647.4</ele>
        <time>2025-09-06T08:43:13Z</time>
      </trkpt>
      <trkpt lat="46.05954" lon="4.53225">
        <ele>647.4</ele>
        <time>2025-09-06T08:43:14Z</time>
      </trkpt>
      <trkpt lat="46.05953" lon="4.53227">
        <ele>647.4</ele>
        <time>2025-09-06T08:43:15Z</time>
      </trkpt>
      <trkpt lat="46.05953" lon="4.53229">
        <ele>647.6</ele>
        <time>2025-09-06T08:43:16Z</time>
      </trkpt>
      <trkpt lat="46.05952" lon="4.53231">
        <ele>647.8</ele>
        <time>2025-09-06T08:43:17Z</time>
      </trkpt>
      <trkpt lat="46.05952" lon="4.53231">
        <ele>647.8</ele>
        <time>2025-09-06T08:43:18Z</time>
      </trkpt>
      <trkpt lat="46.05951" lon="4.53233">
        <ele>648.2</ele>
        <time>2025-09-06T08:43:19Z</time>
      </trkpt>
      <trkpt lat="46.0595" lon="4.53235">
        <ele>648.6</ele>
        <time>2025-09-06T08:43:20Z</time>
      </trkpt>
      <trkpt lat="46.05949" lon="4.53237">
        <ele>648.6</ele>
        <time>2025-09-06T08:43:21Z</time>
      </trkpt>
      <trkpt lat="46.05948" lon="4.53238">
        <ele>648.8</ele>
        <time>2025-09-06T08:43:22Z</time>
      </trkpt>
      <trkpt lat="46.05947" lon="4.5324">
        <ele>648.8</ele>
        <time>2025-09-06T08:43:23Z</time>
      </trkpt>
      <trkpt lat="46.05946" lon="4.53242">
        <ele>648.8</ele>
        <time>2025-09-06T08:43:24Z</time>
      </trkpt>
      <trkpt lat="46.05945" lon="4.53245">
        <ele>649.2</ele>
        <time>2025-09-06T08:43:25Z</time>
      </trkpt>
      <trkpt lat="46.05944" lon="4.53246">
        <ele>649.2</ele>
        <time>2025-09-06T08:43:26Z</time>
      </trkpt>
      <trkpt lat="46.05943" lon="4.53247">
        <ele>649.2</ele>
        <time>2025-09-06T08:43:27Z</time>
      </trkpt>
      <trkpt lat="46.05941" lon="4.53248">
        <ele>649.4</ele>
        <time>2025-09-06T08:43:28Z</time>
      </trkpt>
      <trkpt lat="46.05939" lon="4.53248">
        <ele>649.4</ele>
        <time>2025-09-06T08:43:29Z</time>
      </trkpt>
      <trkpt lat="46.05938" lon="4.53249">
        <ele>649.4</ele>
        <time>2025-09-06T08:43:30Z</time>
      </trkpt>
      <trkpt lat="46.05936" lon="4.53249">
        <ele>649.4</ele>
        <time>2025-09-06T08:43:31Z</time>
      </trkpt>
      <trkpt lat="46.05935" lon="4.53249">
        <ele>649.8</ele>
        <time>2025-09-06T08:43:32Z</time>
      </trkpt>
      <trkpt lat="46.05934" lon="4.5325">
        <ele>649.8</ele>
        <time>2025-09-06T08:43:33Z</time>
      </trkpt>
      <trkpt lat="46.05932" lon="4.5325">
        <ele>649.8</ele>
        <time>2025-09-06T08:43:34Z</time>
      </trkpt>
      <trkpt lat="46.0593" lon="4.5325">
        <ele>649.8</ele>
        <time>2025-09-06T08:43:35Z</time>
      </trkpt>
      <trkpt lat="46.05929" lon="4.5325">
        <ele>650</ele>
        <time>2025-09-06T08:43:36Z</time>
      </trkpt>
      <trkpt lat="46.05927" lon="4.5325">
        <ele>650</ele>
        <time>2025-09-06T08:43:37Z</time>
      </trkpt>
      <trkpt lat="46.05925" lon="4.5325">
        <ele>650</ele>
        <time>2025-09-06T08:43:38Z</time>
      </trkpt>
      <trkpt lat="46.05923" lon="4.5325">
        <ele>650</ele>
        <time>2025-09-06T08:43:39Z</time>
      </trkpt>
      <trkpt lat="46.05922" lon="4.53251">
        <ele>650.4</ele>
        <time>2025-09-06T08:43:40Z</time>
      </trkpt>
      <trkpt lat="46.0592" lon="4.53251">
        <ele>650.4</ele>
        <time>2025-09-06T08:43:41Z</time>
      </trkpt>
      <trkpt lat="46.05919" lon="4.53252">
        <ele>650.6</ele>
        <time>2025-09-06T08:43:42Z</time>
      </trkpt>
      <trkpt lat="46.05917" lon="4.53252">
        <ele>650.6</ele>
        <time>2025-09-06T08:43:43Z</time>
      </trkpt>
      <trkpt lat="46.05914" lon="4.53254">
        <ele>650.6</ele>
        <time>2025-09-06T08:43:44Z</time>
      </trkpt>
      <trkpt lat="46.05913" lon="4.53255">
        <ele>651</ele>
        <time>2025-09-06T08:43:45Z</time>
      </trkpt>
      <trkpt lat="46.05911" lon="4.53256">
        <ele>651</ele>
        <time>2025-09-06T08:43:46Z</time>
      </trkpt>
      <trkpt lat="46.0591" lon="4.53258">
        <ele>651</ele>
        <time>2025-09-06T08:43:47Z</time>
      </trkpt>
      <trkpt lat="46.05909" lon="4.53259">
        <ele>651.2</ele>
        <time>2025-09-06T08:43:48Z</time>
      </trkpt>
      <trkpt lat="46.05908" lon="4.5326">
        <ele>651.2</ele>
        <time>2025-09-06T08:43:49Z</time>
      </trkpt>
      <trkpt lat="46.05907" lon="4.53261">
        <ele>651.4</ele>
        <time>2025-09-06T08:43:50Z</time>
      </trkpt>
      <trkpt lat="46.05907" lon="4.53262">
        <ele>651.4</ele>
        <time>2025-09-06T08:43:51Z</time>
      </trkpt>
      <trkpt lat="46.05907" lon="4.53263">
        <ele>651.8</ele>
        <time>2025-09-06T08:43:52Z</time>
      </trkpt>
      <trkpt lat="46.05906" lon="4.53265">
        <ele>651.8</ele>
        <time>2025-09-06T08:43:53Z</time>
      </trkpt>
      <trkpt lat="46.05906" lon="4.53267">
        <ele>652.2</ele>
        <time>2025-09-06T08:43:54Z</time>
      </trkpt>
      <trkpt lat="46.05906" lon="4.5327">
        <ele>652.4</ele>
        <time>2025-09-06T08:43:55Z</time>
      </trkpt>
      <trkpt lat="46.05906" lon="4.53272">
        <ele>652.4</ele>
        <time>2025-09-06T08:43:56Z</time>
      </trkpt>
      <trkpt lat="46.05906" lon="4.53274">
        <ele>652.4</ele>
        <time>2025-09-06T08:43:57Z</time>
      </trkpt>
      <trkpt lat="46.05906" lon="4.53277">
        <ele>652.6</ele>
        <time>2025-09-06T08:43:58Z</time>
      </trkpt>
      <trkpt lat="46.05907" lon="4.53279">
        <ele>652.6</ele>
        <time>2025-09-06T08:43:59Z</time>
      </trkpt>
      <trkpt lat="46.05907" lon="4.53282">
        <ele>652.8</ele>
        <time>2025-09-06T08:44:00Z</time>
      </trkpt>
      <trkpt lat="46.05907" lon="4.53284">
        <ele>653.2</ele>
        <time>2025-09-06T08:44:01Z</time>
      </trkpt>
      <trkpt lat="46.05908" lon="4.53287">
        <ele>653.2</ele>
        <time>2025-09-06T08:44:02Z</time>
      </trkpt>
      <trkpt lat="46.05908" lon="4.53289">
        <ele>653.2</ele>
        <time>2025-09-06T08:44:03Z</time>
      </trkpt>
      <trkpt lat="46.05908" lon="4.53291">
        <ele>653.4</ele>
        <time>2025-09-06T08:44:04Z</time>
      </trkpt>
      <trkpt lat="46.05908" lon="4.53293">
        <ele>653.4</ele>
        <time>2025-09-06T08:44:05Z</time>
      </trkpt>
      <trkpt lat="46.05908" lon="4.53295">
        <ele>653.4</ele>
        <time>2025-09-06T08:44:06Z</time>
      </trkpt>
      <trkpt lat="46.05909" lon="4.53297">
        <ele>653.4</ele>
        <time>2025-09-06T08:44:07Z</time>
      </trkpt>
      <trkpt lat="46.0591" lon="4.53299">
        <ele>653.8</ele>
        <time>2025-09-06T08:44:08Z</time>
      </trkpt>
      <trkpt lat="46.05911" lon="4.53301">
        <ele>653.8</ele>
        <time>2025-09-06T08:44:09Z</time>
      </trkpt>
      <trkpt lat="46.05912" lon="4.53303">
        <ele>653.8</ele>
        <time>2025-09-06T08:44:10Z</time>
      </trkpt>
      <trkpt lat="46.05913" lon="4.53304">
        <ele>654</ele>
        <time>2025-09-06T08:44:11Z</time>
      </trkpt>
      <trkpt lat="46.05914" lon="4.53306">
        <ele>654</ele>
        <time>2025-09-06T08:44:12Z</time>
      </trkpt>
      <trkpt lat="46.05915" lon="4.53307">
        <ele>654</ele>
        <time>2025-09-06T08:44:13Z</time>
      </trkpt>
      <trkpt lat="46.05916" lon="4.53307">
        <ele>654</ele>
        <time>2025-09-06T08:44:14Z</time>
      </trkpt>
      <trkpt lat="46.05917" lon="4.53308">
        <ele>654.4</ele>
        <time>2025-09-06T08:44:15Z</time>
      </trkpt>
      <trkpt lat="46.05917" lon="4.53308">
        <ele>654.4</ele>
        <time>2025-09-06T08:44:16Z</time>
      </trkpt>
      <trkpt lat="46.05919" lon="4.53308">
        <ele>654.4</ele>
        <time>2025-09-06T08:44:17Z</time>
      </trkpt>
      <trkpt lat="46.0592" lon="4.53309">
        <ele>654.4</ele>
        <time>2025-09-06T08:44:18Z</time>
      </trkpt>
      <trkpt lat="46.05921" lon="4.53309">
        <ele>654.4</ele>
        <time>2025-09-06T08:44:19Z</time>
      </trkpt>
      <trkpt lat="46.05922" lon="4.53308">
        <ele>654.6</ele>
        <time>2025-09-06T08:44:20Z</time>
      </trkpt>
      <trkpt lat="46.05924" lon="4.53308">
        <ele>654.6</ele>
        <time>2025-09-06T08:44:21Z</time>
      </trkpt>
      <trkpt lat="46.05925" lon="4.53306">
        <ele>654.8</ele>
        <time>2025-09-06T08:44:22Z</time>
      </trkpt>
      <trkpt lat="46.05927" lon="4.53305">
        <ele>654.8</ele>
        <time>2025-09-06T08:44:23Z</time>
      </trkpt>
      <trkpt lat="46.05929" lon="4.53304">
        <ele>655</ele>
        <time>2025-09-06T08:44:24Z</time>
      </trkpt>
      <trkpt lat="46.0593" lon="4.53302">
        <ele>655</ele>
        <time>2025-09-06T08:44:25Z</time>
      </trkpt>
      <trkpt lat="46.05932" lon="4.533">
        <ele>655</ele>
        <time>2025-09-06T08:44:26Z</time>
      </trkpt>
      <trkpt lat="46.05933" lon="4.53298">
        <ele>655</ele>
        <time>2025-09-06T08:44:27Z</time>
      </trkpt>
      <trkpt lat="46.05934" lon="4.53296">
        <ele>655.4</ele>
        <time>2025-09-06T08:44:28Z</time>
      </trkpt>
      <trkpt lat="46.05935" lon="4.53295">
        <ele>655.6</ele>
        <time>2025-09-06T08:44:29Z</time>
      </trkpt>
      <trkpt lat="46.05936" lon="4.53293">
        <ele>655.6</ele>
        <time>2025-09-06T08:44:30Z</time>
      </trkpt>
      <trkpt lat="46.05937" lon="4.53291">
        <ele>655.6</ele>
        <time>2025-09-06T08:44:31Z</time>
      </trkpt>
      <trkpt lat="46.05938" lon="4.53289">
        <ele>656</ele>
        <time>2025-09-06T08:44:32Z</time>
      </trkpt>
      <trkpt lat="46.0594" lon="4.53287">
        <ele>656</ele>
        <time>2025-09-06T08:44:33Z</time>
      </trkpt>
      <trkpt lat="46.05941" lon="4.53285">
        <ele>656</ele>
        <time>2025-09-06T08:44:34Z</time>
      </trkpt>
      <trkpt lat="46.05943" lon="4.53283">
        <ele>656.2</ele>
        <time>2025-09-06T08:44:35Z</time>
      </trkpt>
      <trkpt lat="46.05944" lon="4.53281">
        <ele>656.2</ele>
        <time>2025-09-06T08:44:36Z</time>
      </trkpt>
      <trkpt lat="46.05945" lon="4.5328">
        <ele>656.2</ele>
        <time>2025-09-06T08:44:37Z</time>
      </trkpt>
      <trkpt lat="46.05947" lon="4.53278">
        <ele>656.2</ele>
        <time>2025-09-06T08:44:38Z</time>
      </trkpt>
      <trkpt lat="46.05948" lon="4.53276">
        <ele>656.4</ele>
        <time>2025-09-06T08:44:39Z</time>
      </trkpt>
      <trkpt lat="46.05949" lon="4.53275">
        <ele>656.4</ele>
        <time>2025-09-06T08:44:40Z</time>
      </trkpt>
      <trkpt lat="46.0595" lon="4.53273">
        <ele>656.4</ele>
        <time>2025-09-06T08:44:41Z</time>
      </trkpt>
      <trkpt lat="46.05952" lon="4.53271">
        <ele>656.4</ele>
        <time>2025-09-06T08:44:42Z</time>
      </trkpt>
      <trkpt lat="46.05953" lon="4.5327">
        <ele>656.8</ele>
        <time>2025-09-06T08:44:43Z</time>
      </trkpt>
      <trkpt lat="46.05954" lon="4.53268">
        <ele>656.8</ele>
        <time>2025-09-06T08:44:44Z</time>
      </trkpt>
      <trkpt lat="46.05955" lon="4.53266">
        <ele>656.8</ele>
        <time>2025-09-06T08:44:45Z</time>
      </trkpt>
      <trkpt lat="46.05956" lon="4.53264">
        <ele>657.2</ele>
        <time>2025-09-06T08:44:46Z</time>
      </trkpt>
      <trkpt lat="46.05957" lon="4.53263">
        <ele>657.4</ele>
        <time>2025-09-06T08:44:47Z</time>
      </trkpt>
      <trkpt lat="46.05958" lon="4.53262">
        <ele>657.6</ele>
        <time>2025-09-06T08:44:48Z</time>
      </trkpt>
      <trkpt lat="46.0596" lon="4.5326">
        <ele>658</ele>
        <time>2025-09-06T08:44:49Z</time>
      </trkpt>
      <trkpt lat="46.05961" lon="4.53259">
        <ele>658</ele>
        <time>2025-09-06T08:44:50Z</time>
      </trkpt>
      <trkpt lat="46.05962" lon="4.53257">
        <ele>658</ele>
        <time>2025-09-06T08:44:51Z</time>
      </trkpt>
      <trkpt lat="46.05963" lon="4.53255">
        <ele>658.2</ele>
        <time>2025-09-06T08:44:52Z</time>
      </trkpt>
      <trkpt lat="46.05964" lon="4.53253">
        <ele>658.2</ele>
        <time>2025-09-06T08:44:53Z</time>
      </trkpt>
      <trkpt lat="46.05965" lon="4.53252">
        <ele>658.2</ele>
        <time>2025-09-06T08:44:54Z</time>
      </trkpt>
      <trkpt lat="46.05966" lon="4.5325">
        <ele>658.2</ele>
        <time>2025-09-06T08:44:55Z</time>
      </trkpt>
      <trkpt lat="46.05967" lon="4.53249">
        <ele>658.4</ele>
        <time>2025-09-06T08:44:56Z</time>
      </trkpt>
      <trkpt lat="46.05969" lon="4.53248">
        <ele>658.4</ele>
        <time>2025-09-06T08:44:57Z</time>
      </trkpt>
      <trkpt lat="46.0597" lon="4.53246">
        <ele>658.4</ele>
        <time>2025-09-06T08:44:58Z</time>
      </trkpt>
      <trkpt lat="46.05971" lon="4.53244">
        <ele>658.4</ele>
        <time>2025-09-06T08:44:59Z</time>
      </trkpt>
      <trkpt lat="46.05972" lon="4.53243">
        <ele>658.4</ele>
        <time>2025-09-06T08:45:00Z</time>
      </trkpt>
      <trkpt lat="46.05974" lon="4.53241">
        <ele>658.6</ele>
        <time>2025-09-06T08:45:01Z</time>
      </trkpt>
      <trkpt lat="46.05975" lon="4.5324">
        <ele>658.6</ele>
        <time>2025-09-06T08:45:02Z</time>
      </trkpt>
      <trkpt lat="46.05976" lon="4.53238">
        <ele>659</ele>
        <time>2025-09-06T08:45:03Z</time>
      </trkpt>
      <trkpt lat="46.05977" lon="4.53237">
        <ele>659</ele>
        <time>2025-09-06T08:45:04Z</time>
      </trkpt>
      <trkpt lat="46.05979" lon="4.53235">
        <ele>659.2</ele>
        <time>2025-09-06T08:45:05Z</time>
      </trkpt>
      <trkpt lat="46.0598" lon="4.53234">
        <ele>659.2</ele>
        <time>2025-09-06T08:45:06Z</time>
      </trkpt>
      <trkpt lat="46.05981" lon="4.53233">
        <ele>659.4</ele>
        <time>2025-09-06T08:45:07Z</time>
      </trkpt>
      <trkpt lat="46.05982" lon="4.53231">
        <ele>659.4</ele>
        <time>2025-09-06T08:45:08Z</time>
      </trkpt>
      <trkpt lat="46.05983" lon="4.5323">
        <ele>659.4</ele>
        <time>2025-09-06T08:45:09Z</time>
      </trkpt>
      <trkpt lat="46.05984" lon="4.53228">
        <ele>659.4</ele>
        <time>2025-09-06T08:45:10Z</time>
      </trkpt>
      <trkpt lat="46.05985" lon="4.53226">
        <ele>659.4</ele>
        <time>2025-09-06T08:45:11Z</time>
      </trkpt>
      <trkpt lat="46.05986" lon="4.53225">
        <ele>659.4</ele>
        <time>2025-09-06T08:45:12Z</time>
      </trkpt>
      <trkpt lat="46.05987" lon="4.53223">
        <ele>659.8</ele>
        <time>2025-09-06T08:45:13Z</time>
      </trkpt>
      <trkpt lat="46.05989" lon="4.53222">
        <ele>659.8</ele>
        <time>2025-09-06T08:45:14Z</time>
      </trkpt>
      <trkpt lat="46.0599" lon="4.5322">
        <ele>660</ele>
        <time>2025-09-06T08:45:15Z</time>
      </trkpt>
      <trkpt lat="46.05991" lon="4.53218">
        <ele>660</ele>
        <time>2025-09-06T08:45:16Z</time>
      </trkpt>
      <trkpt lat="46.05993" lon="4.53217">
        <ele>660.4</ele>
        <time>2025-09-06T08:45:17Z</time>
      </trkpt>
      <trkpt lat="46.05994" lon="4.53215">
        <ele>660.6</ele>
        <time>2025-09-06T08:45:18Z</time>
      </trkpt>
      <trkpt lat="46.05995" lon="4.53213">
        <ele>660.8</ele>
        <time>2025-09-06T08:45:19Z</time>
      </trkpt>
      <trkpt lat="46.05996" lon="4.53212">
        <ele>660.8</ele>
        <time>2025-09-06T08:45:20Z</time>
      </trkpt>
      <trkpt lat="46.05997" lon="4.5321">
        <ele>660.8</ele>
        <time>2025-09-06T08:45:21Z</time>
      </trkpt>
      <trkpt lat="46.05999" lon="4.53208">
        <ele>661</ele>
        <time>2025-09-06T08:45:22Z</time>
      </trkpt>
      <trkpt lat="46.06" lon="4.53206">
        <ele>661</ele>
        <time>2025-09-06T08:45:23Z</time>
      </trkpt>
      <trkpt lat="46.06001" lon="4.53205">
        <ele>661</ele>
        <time>2025-09-06T08:45:24Z</time>
      </trkpt>
      <trkpt lat="46.06002" lon="4.53203">
        <ele>661.4</ele>
        <time>2025-09-06T08:45:25Z</time>
      </trkpt>
      <trkpt lat="46.06003" lon="4.53202">
        <ele>661.4</ele>
        <time>2025-09-06T08:45:26Z</time>
      </trkpt>
      <trkpt lat="46.06004" lon="4.532">
        <ele>661.4</ele>
        <time>2025-09-06T08:45:27Z</time>
      </trkpt>
      <trkpt lat="46.06005" lon="4.53198">
        <ele>661.4</ele>
        <time>2025-09-06T08:45:28Z</time>
      </trkpt>
      <trkpt lat="46.06007" lon="4.53197">
        <ele>661.6</ele>
        <time>2025-09-06T08:45:29Z</time>
      </trkpt>
      <trkpt lat="46.06008" lon="4.53196">
        <ele>661.6</ele>
        <time>2025-09-06T08:45:30Z</time>
      </trkpt>
      <trkpt lat="46.0601" lon="4.53195">
        <ele>661.8</ele>
        <time>2025-09-06T08:45:31Z</time>
      </trkpt>
      <trkpt lat="46.06011" lon="4.53194">
        <ele>661.8</ele>
        <time>2025-09-06T08:45:32Z</time>
      </trkpt>
      <trkpt lat="46.06012" lon="4.53193">
        <ele>662</ele>
        <time>2025-09-06T08:45:33Z</time>
      </trkpt>
      <trkpt lat="46.06014" lon="4.53192">
        <ele>662</ele>
        <time>2025-09-06T08:45:34Z</time>
      </trkpt>
      <trkpt lat="46.06015" lon="4.5319">
        <ele>662</ele>
        <time>2025-09-06T08:45:35Z</time>
      </trkpt>
      <trkpt lat="46.06016" lon="4.53189">
        <ele>662</ele>
        <time>2025-09-06T08:45:36Z</time>
      </trkpt>
      <trkpt lat="46.06017" lon="4.53188">
        <ele>662.4</ele>
        <time>2025-09-06T08:45:37Z</time>
      </trkpt>
      <trkpt lat="46.06019" lon="4.53187">
        <ele>662.6</ele>
        <time>2025-09-06T08:45:38Z</time>
      </trkpt>
      <trkpt lat="46.0602" lon="4.53186">
        <ele>662.6</ele>
        <time>2025-09-06T08:45:39Z</time>
      </trkpt>
      <trkpt lat="46.06021" lon="4.53184">
        <ele>662.8</ele>
        <time>2025-09-06T08:45:40Z</time>
      </trkpt>
      <trkpt lat="46.06023" lon="4.53183">
        <ele>663</ele>
        <time>2025-09-06T08:45:41Z</time>
      </trkpt>
      <trkpt lat="46.06024" lon="4.53182">
        <ele>663</ele>
        <time>2025-09-06T08:45:42Z</time>
      </trkpt>
      <trkpt lat="46.06026" lon="4.53181">
        <ele>663</ele>
        <time>2025-09-06T08:45:43Z</time>
      </trkpt>
      <trkpt lat="46.06027" lon="4.5318">
        <ele>663.4</ele>
        <time>2025-09-06T08:45:44Z</time>
      </trkpt>
      <trkpt lat="46.06029" lon="4.5318">
        <ele>663.4</ele>
        <time>2025-09-06T08:45:45Z</time>
      </trkpt>
      <trkpt lat="46.0603" lon="4.53179">
        <ele>663.4</ele>
        <time>2025-09-06T08:45:46Z</time>
      </trkpt>
      <trkpt lat="46.06032" lon="4.53178">
        <ele>663.6</ele>
        <time>2025-09-06T08:45:47Z</time>
      </trkpt>
      <trkpt lat="46.06034" lon="4.53177">
        <ele>663.6</ele>
        <time>2025-09-06T08:45:48Z</time>
      </trkpt>
      <trkpt lat="46.06035" lon="4.53176">
        <ele>663.8</ele>
        <time>2025-09-06T08:45:49Z</time>
      </trkpt>
      <trkpt lat="46.06036" lon="4.53175">
        <ele>663.8</ele>
        <time>2025-09-06T08:45:50Z</time>
      </trkpt>
      <trkpt lat="46.06037" lon="4.53175">
        <ele>663.8</ele>
        <time>2025-09-06T08:45:51Z</time>
      </trkpt>
      <trkpt lat="46.06039" lon="4.53174">
        <ele>663.8</ele>
        <time>2025-09-06T08:45:52Z</time>
      </trkpt>
      <trkpt lat="46.0604" lon="4.53173">
        <ele>663.8</ele>
        <time>2025-09-06T08:45:53Z</time>
      </trkpt>
      <trkpt lat="46.06042" lon="4.53172">
        <ele>664.2</ele>
        <time>2025-09-06T08:45:54Z</time>
      </trkpt>
      <trkpt lat="46.06043" lon="4.53171">
        <ele>664.2</ele>
        <time>2025-09-06T08:45:55Z</time>
      </trkpt>
      <trkpt lat="46.06044" lon="4.5317">
        <ele>664.4</ele>
        <time>2025-09-06T08:45:56Z</time>
      </trkpt>
      <trkpt lat="46.06045" lon="4.53169">
        <ele>664.4</ele>
        <time>2025-09-06T08:45:57Z</time>
      </trkpt>
      <trkpt lat="46.06046" lon="4.53168">
        <ele>664.6</ele>
        <time>2025-09-06T08:45:58Z</time>
      </trkpt>
      <trkpt lat="46.06047" lon="4.53167">
        <ele>664.6</ele>
        <time>2025-09-06T08:45:59Z</time>
      </trkpt>
      <trkpt lat="46.06049" lon="4.53167">
        <ele>665</ele>
        <time>2025-09-06T08:46:00Z</time>
      </trkpt>
      <trkpt lat="46.06051" lon="4.53166">
        <ele>665.2</ele>
        <time>2025-09-06T08:46:01Z</time>
      </trkpt>
      <trkpt lat="46.06052" lon="4.53165">
        <ele>665.2</ele>
        <time>2025-09-06T08:46:02Z</time>
      </trkpt>
      <trkpt lat="46.06054" lon="4.53165">
        <ele>665.2</ele>
        <time>2025-09-06T08:46:03Z</time>
      </trkpt>
      <trkpt lat="46.06055" lon="4.53164">
        <ele>665.2</ele>
        <time>2025-09-06T08:46:04Z</time>
      </trkpt>
      <trkpt lat="46.06057" lon="4.53163">
        <ele>665.2</ele>
        <time>2025-09-06T08:46:05Z</time>
      </trkpt>
      <trkpt lat="46.06058" lon="4.53163">
        <ele>665.2</ele>
        <time>2025-09-06T08:46:06Z</time>
      </trkpt>
      <trkpt lat="46.06059" lon="4.53162">
        <ele>665.6</ele>
        <time>2025-09-06T08:46:07Z</time>
      </trkpt>
      <trkpt lat="46.06061" lon="4.53161">
        <ele>665.6</ele>
        <time>2025-09-06T08:46:08Z</time>
      </trkpt>
      <trkpt lat="46.06063" lon="4.5316">
        <ele>665.6</ele>
        <time>2025-09-06T08:46:09Z</time>
      </trkpt>
      <trkpt lat="46.06064" lon="4.53159">
        <ele>666</ele>
        <time>2025-09-06T08:46:10Z</time>
      </trkpt>
      <trkpt lat="46.06066" lon="4.53158">
        <ele>666</ele>
        <time>2025-09-06T08:46:11Z</time>
      </trkpt>
      <trkpt lat="46.06067" lon="4.53158">
        <ele>666.2</ele>
        <time>2025-09-06T08:46:12Z</time>
      </trkpt>
      <trkpt lat="46.06069" lon="4.53157">
        <ele>666.6</ele>
        <time>2025-09-06T08:46:13Z</time>
      </trkpt>
      <trkpt lat="46.0607" lon="4.53157">
        <ele>666.6</ele>
        <time>2025-09-06T08:46:14Z</time>
      </trkpt>
      <trkpt lat="46.06072" lon="4.53156">
        <ele>666.8</ele>
        <time>2025-09-06T08:46:15Z</time>
      </trkpt>
      <trkpt lat="46.06073" lon="4.53156">
        <ele>666.8</ele>
        <time>2025-09-06T08:46:16Z</time>
      </trkpt>
      <trkpt lat="46.06074" lon="4.53156">
        <ele>666.8</ele>
        <time>2025-09-06T08:46:17Z</time>
      </trkpt>
      <trkpt lat="46.06076" lon="4.53155">
        <ele>667</ele>
        <time>2025-09-06T08:46:18Z</time>
      </trkpt>
      <trkpt lat="46.06077" lon="4.53154">
        <ele>667</ele>
        <time>2025-09-06T08:46:19Z</time>
      </trkpt>
      <trkpt lat="46.06078" lon="4.53154">
        <ele>667</ele>
        <time>2025-09-06T08:46:20Z</time>
      </trkpt>
      <trkpt lat="46.0608" lon="4.53154">
        <ele>667</ele>
        <time>2025-09-06T08:46:21Z</time>
      </trkpt>
      <trkpt lat="46.06081" lon="4.53153">
        <ele>667.4</ele>
        <time>2025-09-06T08:46:22Z</time>
      </trkpt>
      <trkpt lat="46.06082" lon="4.53153">
        <ele>667.4</ele>
        <time>2025-09-06T08:46:23Z</time>
      </trkpt>
      <trkpt lat="46.06084" lon="4.53152">
        <ele>667.4</ele>
        <time>2025-09-06T08:46:24Z</time>
      </trkpt>
      <trkpt lat="46.06085" lon="4.53151">
        <ele>667.6</ele>
        <time>2025-09-06T08:46:25Z</time>
      </trkpt>
      <trkpt lat="46.06085" lon="4.53151">
        <ele>667.6</ele>
        <time>2025-09-06T08:46:26Z</time>
      </trkpt>
      <trkpt lat="46.06086" lon="4.53151">
        <ele>667.6</ele>
        <time>2025-09-06T08:46:27Z</time>
      </trkpt>
      <trkpt lat="46.06087" lon="4.5315">
        <ele>667.8</ele>
        <time>2025-09-06T08:46:28Z</time>
      </trkpt>
      <trkpt lat="46.06089" lon="4.5315">
        <ele>667.8</ele>
        <time>2025-09-06T08:46:29Z</time>
      </trkpt>
      <trkpt lat="46.0609" lon="4.5315">
        <ele>668</ele>
        <time>2025-09-06T08:46:30Z</time>
      </trkpt>
      <trkpt lat="46.06091" lon="4.5315">
        <ele>668</ele>
        <time>2025-09-06T08:46:31Z</time>
      </trkpt>
      <trkpt lat="46.06093" lon="4.53149">
        <ele>668</ele>
        <time>2025-09-06T08:46:32Z</time>
      </trkpt>
      <trkpt lat="46.06094" lon="4.53149">
        <ele>668</ele>
        <time>2025-09-06T08:46:33Z</time>
      </trkpt>
      <trkpt lat="46.06096" lon="4.53148">
        <ele>668</ele>
        <time>2025-09-06T08:46:34Z</time>
      </trkpt>
      <trkpt lat="46.06097" lon="4.53148">
        <ele>668.2</ele>
        <time>2025-09-06T08:46:35Z</time>
      </trkpt>
      <trkpt lat="46.06099" lon="4.53148">
        <ele>668.2</ele>
        <time>2025-09-06T08:46:36Z</time>
      </trkpt>
      <trkpt lat="46.061" lon="4.53148">
        <ele>668.6</ele>
        <time>2025-09-06T08:46:37Z</time>
      </trkpt>
      <trkpt lat="46.06102" lon="4.53148">
        <ele>668.6</ele>
        <time>2025-09-06T08:46:38Z</time>
      </trkpt>
      <trkpt lat="46.06104" lon="4.53148">
        <ele>668.8</ele>
        <time>2025-09-06T08:46:39Z</time>
      </trkpt>
      <trkpt lat="46.06105" lon="4.53147">
        <ele>668.8</ele>
        <time>2025-09-06T08:46:40Z</time>
      </trkpt>
      <trkpt lat="46.06107" lon="4.53147">
        <ele>668.8</ele>
        <time>2025-09-06T08:46:41Z</time>
      </trkpt>
      <trkpt lat="46.06108" lon="4.53146">
        <ele>669</ele>
        <time>2025-09-06T08:46:42Z</time>
      </trkpt>
      <trkpt lat="46.06109" lon="4.53146">
        <ele>669</ele>
        <time>2025-09-06T08:46:43Z</time>
      </trkpt>
      <trkpt lat="46.06111" lon="4.53145">
        <ele>669</ele>
        <time>2025-09-06T08:46:44Z</time>
      </trkpt>
      <trkpt lat="46.06114" lon="4.53144">
        <ele>669.2</ele>
        <time>2025-09-06T08:46:45Z</time>
      </trkpt>
      <trkpt lat="46.06116" lon="4.53144">
        <ele>669.2</ele>
        <time>2025-09-06T08:46:46Z</time>
      </trkpt>
      <trkpt lat="46.06117" lon="4.53143">
        <ele>669.4</ele>
        <time>2025-09-06T08:46:47Z</time>
      </trkpt>
      <trkpt lat="46.06119" lon="4.53143">
        <ele>669.6</ele>
        <time>2025-09-06T08:46:48Z</time>
      </trkpt>
      <trkpt lat="46.0612" lon="4.53143">
        <ele>669.6</ele>
        <time>2025-09-06T08:46:49Z</time>
      </trkpt>
      <trkpt lat="46.06122" lon="4.53143">
        <ele>669.6</ele>
        <time>2025-09-06T08:46:50Z</time>
      </trkpt>
      <trkpt lat="46.06124" lon="4.53143">
        <ele>670</ele>
        <time>2025-09-06T08:46:51Z</time>
      </trkpt>
      <trkpt lat="46.06126" lon="4.53143">
        <ele>670</ele>
        <time>2025-09-06T08:46:52Z</time>
      </trkpt>
      <trkpt lat="46.06127" lon="4.53144">
        <ele>670</ele>
        <time>2025-09-06T08:46:53Z</time>
      </trkpt>
      <trkpt lat="46.06128" lon="4.53144">
        <ele>670.4</ele>
        <time>2025-09-06T08:46:54Z</time>
      </trkpt>
      <trkpt lat="46.0613" lon="4.53145">
        <ele>670.4</ele>
        <time>2025-09-06T08:46:55Z</time>
      </trkpt>
      <trkpt lat="46.06132" lon="4.53146">
        <ele>670.4</ele>
        <time>2025-09-06T08:46:56Z</time>
      </trkpt>
      <trkpt lat="46.06133" lon="4.53146">
        <ele>670.8</ele>
        <time>2025-09-06T08:46:57Z</time>
      </trkpt>
      <trkpt lat="46.06135" lon="4.53146">
        <ele>670.8</ele>
        <time>2025-09-06T08:46:58Z</time>
      </trkpt>
      <trkpt lat="46.06136" lon="4.53146">
        <ele>671.2</ele>
        <time>2025-09-06T08:46:59Z</time>
      </trkpt>
      <trkpt lat="46.06138" lon="4.53147">
        <ele>671.2</ele>
        <time>2025-09-06T08:47:00Z</time>
      </trkpt>
      <trkpt lat="46.0614" lon="4.53147">
        <ele>671.4</ele>
        <time>2025-09-06T08:47:01Z</time>
      </trkpt>
      <trkpt lat="46.06141" lon="4.53148">
        <ele>671.4</ele>
        <time>2025-09-06T08:47:02Z</time>
      </trkpt>
      <trkpt lat="46.06143" lon="4.53149">
        <ele>671.4</ele>
        <time>2025-09-06T08:47:03Z</time>
      </trkpt>
      <trkpt lat="46.06144" lon="4.5315">
        <ele>671.6</ele>
        <time>2025-09-06T08:47:04Z</time>
      </trkpt>
      <trkpt lat="46.06146" lon="4.53151">
        <ele>671.6</ele>
        <time>2025-09-06T08:47:05Z</time>
      </trkpt>
      <trkpt lat="46.06147" lon="4.53152">
        <ele>671.8</ele>
        <time>2025-09-06T08:47:06Z</time>
      </trkpt>
      <trkpt lat="46.06149" lon="4.53153">
        <ele>671.8</ele>
        <time>2025-09-06T08:47:07Z</time>
      </trkpt>
      <trkpt lat="46.0615" lon="4.53153">
        <ele>672</ele>
        <time>2025-09-06T08:47:08Z</time>
      </trkpt>
      <trkpt lat="46.06152" lon="4.53154">
        <ele>672</ele>
        <time>2025-09-06T08:47:09Z</time>
      </trkpt>
      <trkpt lat="46.06153" lon="4.53155">
        <ele>672</ele>
        <time>2025-09-06T08:47:10Z</time>
      </trkpt>
      <trkpt lat="46.06155" lon="4.53155">
        <ele>672.4</ele>
        <time>2025-09-06T08:47:11Z</time>
      </trkpt>
      <trkpt lat="46.06156" lon="4.53156">
        <ele>672.4</ele>
        <time>2025-09-06T08:47:12Z</time>
      </trkpt>
      <trkpt lat="46.06157" lon="4.53156">
        <ele>672.4</ele>
        <time>2025-09-06T08:47:13Z</time>
      </trkpt>
      <trkpt lat="46.06158" lon="4.53157">
        <ele>672.6</ele>
        <time>2025-09-06T08:47:14Z</time>
      </trkpt>
      <trkpt lat="46.0616" lon="4.53158">
        <ele>672.6</ele>
        <time>2025-09-06T08:47:15Z</time>
      </trkpt>
      <trkpt lat="46.06161" lon="4.5316">
        <ele>672.6</ele>
        <time>2025-09-06T08:47:16Z</time>
      </trkpt>
      <trkpt lat="46.06162" lon="4.53161">
        <ele>672.6</ele>
        <time>2025-09-06T08:47:17Z</time>
      </trkpt>
      <trkpt lat="46.06163" lon="4.53163">
        <ele>672.8</ele>
        <time>2025-09-06T08:47:18Z</time>
      </trkpt>
      <trkpt lat="46.06164" lon="4.53164">
        <ele>672.8</ele>
        <time>2025-09-06T08:47:19Z</time>
      </trkpt>
      <trkpt lat="46.06165" lon="4.53164">
        <ele>673</ele>
        <time>2025-09-06T08:47:20Z</time>
      </trkpt>
      <trkpt lat="46.06166" lon="4.53164">
        <ele>673</ele>
        <time>2025-09-06T08:47:21Z</time>
      </trkpt>
      <trkpt lat="46.06167" lon="4.53165">
        <ele>673.4</ele>
        <time>2025-09-06T08:47:22Z</time>
      </trkpt>
      <trkpt lat="46.06169" lon="4.53166">
        <ele>673.4</ele>
        <time>2025-09-06T08:47:23Z</time>
      </trkpt>
      <trkpt lat="46.0617" lon="4.53168">
        <ele>673.6</ele>
        <time>2025-09-06T08:47:24Z</time>
      </trkpt>
      <trkpt lat="46.06171" lon="4.53169">
        <ele>673.6</ele>
        <time>2025-09-06T08:47:25Z</time>
      </trkpt>
      <trkpt lat="46.06171" lon="4.53169">
        <ele>673.8</ele>
        <time>2025-09-06T08:47:26Z</time>
      </trkpt>
      <trkpt lat="46.06171" lon="4.5317">
        <ele>673.8</ele>
        <time>2025-09-06T08:47:27Z</time>
      </trkpt>
      <trkpt lat="46.06172" lon="4.53172">
        <ele>673.8</ele>
        <time>2025-09-06T08:47:28Z</time>
      </trkpt>
      <trkpt lat="46.06173" lon="4.53173">
        <ele>673.8</ele>
        <time>2025-09-06T08:47:29Z</time>
      </trkpt>
      <trkpt lat="46.06175" lon="4.53175">
        <ele>674.2</ele>
        <time>2025-09-06T08:47:30Z</time>
      </trkpt>
      <trkpt lat="46.06177" lon="4.53176">
        <ele>674.2</ele>
        <time>2025-09-06T08:47:31Z</time>
      </trkpt>
      <trkpt lat="46.06178" lon="4.53177">
        <ele>674.2</ele>
        <time>2025-09-06T08:47:32Z</time>
      </trkpt>
      <trkpt lat="46.06179" lon="4.53178">
        <ele>674.2</ele>
        <time>2025-09-06T08:47:33Z</time>
      </trkpt>
      <trkpt lat="46.06179" lon="4.5318">
        <ele>674.2</ele>
        <time>2025-09-06T08:47:34Z</time>
      </trkpt>
      <trkpt lat="46.06179" lon="4.53181">
        <ele>674.4</ele>
        <time>2025-09-06T08:47:35Z</time>
      </trkpt>
      <trkpt lat="46.0618" lon="4.53183">
        <ele>674.4</ele>
        <time>2025-09-06T08:47:36Z</time>
      </trkpt>
      <trkpt lat="46.06181" lon="4.53184">
        <ele>674.6</ele>
        <time>2025-09-06T08:47:37Z</time>
      </trkpt>
      <trkpt lat="46.06183" lon="4.53186">
        <ele>674.6</ele>
        <time>2025-09-06T08:47:38Z</time>
      </trkpt>
      <trkpt lat="46.06185" lon="4.53187">
        <ele>674.8</ele>
        <time>2025-09-06T08:47:39Z</time>
      </trkpt>
      <trkpt lat="46.06186" lon="4.53188">
        <ele>674.8</ele>
        <time>2025-09-06T08:47:40Z</time>
      </trkpt>
      <trkpt lat="46.06188" lon="4.53189">
        <ele>674.8</ele>
        <time>2025-09-06T08:47:41Z</time>
      </trkpt>
      <trkpt lat="46.06189" lon="4.53189">
        <ele>674.8</ele>
        <time>2025-09-06T08:47:42Z</time>
      </trkpt>
      <trkpt lat="46.06191" lon="4.53189">
        <ele>674.8</ele>
        <time>2025-09-06T08:47:43Z</time>
      </trkpt>
      <trkpt lat="46.06194" lon="4.5319">
        <ele>675.2</ele>
        <time>2025-09-06T08:47:44Z</time>
      </trkpt>
      <trkpt lat="46.06196" lon="4.53191">
        <ele>675.2</ele>
        <time>2025-09-06T08:47:45Z</time>
      </trkpt>
      <trkpt lat="46.06197" lon="4.53192">
        <ele>675.4</ele>
        <time>2025-09-06T08:47:46Z</time>
      </trkpt>
      <trkpt lat="46.06198" lon="4.53193">
        <ele>675.4</ele>
        <time>2025-09-06T08:47:47Z</time>
      </trkpt>
      <trkpt lat="46.062" lon="4.53194">
        <ele>675.8</ele>
        <time>2025-09-06T08:47:48Z</time>
      </trkpt>
      <trkpt lat="46.06201" lon="4.53196">
        <ele>676</ele>
        <time>2025-09-06T08:47:49Z</time>
      </trkpt>
      <trkpt lat="46.06203" lon="4.53197">
        <ele>676</ele>
        <time>2025-09-06T08:47:50Z</time>
      </trkpt>
      <trkpt lat="46.06204" lon="4.53198">
        <ele>676.2</ele>
        <time>2025-09-06T08:47:51Z</time>
      </trkpt>
      <trkpt lat="46.06206" lon="4.53199">
        <ele>676.2</ele>
        <time>2025-09-06T08:47:52Z</time>
      </trkpt>
      <trkpt lat="46.06207" lon="4.53201">
        <ele>676.2</ele>
        <time>2025-09-06T08:47:53Z</time>
      </trkpt>
      <trkpt lat="46.06207" lon="4.53202">
        <ele>676.2</ele>
        <time>2025-09-06T08:47:54Z</time>
      </trkpt>
      <trkpt lat="46.06208" lon="4.53204">
        <ele>676.6</ele>
        <time>2025-09-06T08:47:55Z</time>
      </trkpt>
      <trkpt lat="46.06209" lon="4.53205">
        <ele>676.6</ele>
        <time>2025-09-06T08:47:56Z</time>
      </trkpt>
      <trkpt lat="46.06209" lon="4.53206">
        <ele>676.8</ele>
        <time>2025-09-06T08:47:57Z</time>
      </trkpt>
      <trkpt lat="46.0621" lon="4.53207">
        <ele>676.8</ele>
        <time>2025-09-06T08:47:58Z</time>
      </trkpt>
      <trkpt lat="46.06212" lon="4.53208">
        <ele>677</ele>
        <time>2025-09-06T08:47:59Z</time>
      </trkpt>
      <trkpt lat="46.06213" lon="4.53209">
        <ele>677.2</ele>
        <time>2025-09-06T08:48:00Z</time>
      </trkpt>
      <trkpt lat="46.06214" lon="4.5321">
        <ele>677.2</ele>
        <time>2025-09-06T08:48:01Z</time>
      </trkpt>
      <trkpt lat="46.06215" lon="4.53211">
        <ele>677.2</ele>
        <time>2025-09-06T08:48:02Z</time>
      </trkpt>
      <trkpt lat="46.06217" lon="4.53212">
        <ele>677.4</ele>
        <time>2025-09-06T08:48:03Z</time>
      </trkpt>
      <trkpt lat="46.06218" lon="4.53212">
        <ele>677.4</ele>
        <time>2025-09-06T08:48:04Z</time>
      </trkpt>
      <trkpt lat="46.06219" lon="4.53213">
        <ele>677.4</ele>
        <time>2025-09-06T08:48:05Z</time>
      </trkpt>
      <trkpt lat="46.0622" lon="4.53214">
        <ele>677.8</ele>
        <time>2025-09-06T08:48:06Z</time>
      </trkpt>
      <trkpt lat="46.06221" lon="4.53215">
        <ele>677.8</ele>
        <time>2025-09-06T08:48:07Z</time>
      </trkpt>
      <trkpt lat="46.06222" lon="4.53215">
        <ele>678</ele>
        <time>2025-09-06T08:48:08Z</time>
      </trkpt>
      <trkpt lat="46.06224" lon="4.53216">
        <ele>678</ele>
        <time>2025-09-06T08:48:09Z</time>
      </trkpt>
      <trkpt lat="46.06225" lon="4.53217">
        <ele>678</ele>
        <time>2025-09-06T08:48:10Z</time>
      </trkpt>
      <trkpt lat="46.06226" lon="4.53217">
        <ele>678</ele>
        <time>2025-09-06T08:48:11Z</time>
      </trkpt>
      <trkpt lat="46.06227" lon="4.53218">
        <ele>678</ele>
        <time>2025-09-06T08:48:12Z</time>
      </trkpt>
      <trkpt lat="46.06228" lon="4.53218">
        <ele>678</ele>
        <time>2025-09-06T08:48:13Z</time>
      </trkpt>
      <trkpt lat="46.0623" lon="4.53218">
        <ele>678.2</ele>
        <time>2025-09-06T08:48:14Z</time>
      </trkpt>
      <trkpt lat="46.06231" lon="4.53218">
        <ele>678.2</ele>
        <time>2025-09-06T08:48:15Z</time>
      </trkpt>
      <trkpt lat="46.06233" lon="4.53218">
        <ele>678.6</ele>
        <time>2025-09-06T08:48:16Z</time>
      </trkpt>
      <trkpt lat="46.06234" lon="4.53219">
        <ele>678.6</ele>
        <time>2025-09-06T08:48:17Z</time>
      </trkpt>
      <trkpt lat="46.06236" lon="4.5322">
        <ele>679</ele>
        <time>2025-09-06T08:48:18Z</time>
      </trkpt>
      <trkpt lat="46.06237" lon="4.53221">
        <ele>679.2</ele>
        <time>2025-09-06T08:48:19Z</time>
      </trkpt>
      <trkpt lat="46.06238" lon="4.53221">
        <ele>679.2</ele>
        <time>2025-09-06T08:48:20Z</time>
      </trkpt>
      <trkpt lat="46.0624" lon="4.53222">
        <ele>679.6</ele>
        <time>2025-09-06T08:48:21Z</time>
      </trkpt>
      <trkpt lat="46.06241" lon="4.53223">
        <ele>679.6</ele>
        <time>2025-09-06T08:48:22Z</time>
      </trkpt>
      <trkpt lat="46.06243" lon="4.53224">
        <ele>679.6</ele>
        <time>2025-09-06T08:48:23Z</time>
      </trkpt>
      <trkpt lat="46.06244" lon="4.53225">
        <ele>679.6</ele>
        <time>2025-09-06T08:48:24Z</time>
      </trkpt>
      <trkpt lat="46.06245" lon="4.53226">
        <ele>679.6</ele>
        <time>2025-09-06T08:48:25Z</time>
      </trkpt>
      <trkpt lat="46.06246" lon="4.53226">
        <ele>679.8</ele>
        <time>2025-09-06T08:48:26Z</time>
      </trkpt>
      <trkpt lat="46.06248" lon="4.53227">
        <ele>679.8</ele>
        <time>2025-09-06T08:48:27Z</time>
      </trkpt>
      <trkpt lat="46.0625" lon="4.53228">
        <ele>679.8</ele>
        <time>2025-09-06T08:48:28Z</time>
      </trkpt>
      <trkpt lat="46.06251" lon="4.53229">
        <ele>680</ele>
        <time>2025-09-06T08:48:29Z</time>
      </trkpt>
      <trkpt lat="46.06253" lon="4.5323">
        <ele>680.4</ele>
        <time>2025-09-06T08:48:30Z</time>
      </trkpt>
      <trkpt lat="46.06254" lon="4.53231">
        <ele>680.4</ele>
        <time>2025-09-06T08:48:31Z</time>
      </trkpt>
      <trkpt lat="46.06256" lon="4.53231">
        <ele>680.4</ele>
        <time>2025-09-06T08:48:32Z</time>
      </trkpt>
      <trkpt lat="46.06258" lon="4.53232">
        <ele>680.4</ele>
        <time>2025-09-06T08:48:33Z</time>
      </trkpt>
      <trkpt lat="46.0626" lon="4.53232">
        <ele>680.4</ele>
        <time>2025-09-06T08:48:34Z</time>
      </trkpt>
      <trkpt lat="46.06261" lon="4.53232">
        <ele>680.4</ele>
        <time>2025-09-06T08:48:35Z</time>
      </trkpt>
      <trkpt lat="46.06263" lon="4.53233">
        <ele>680.6</ele>
        <time>2025-09-06T08:48:36Z</time>
      </trkpt>
      <trkpt lat="46.06265" lon="4.53234">
        <ele>680.6</ele>
        <time>2025-09-06T08:48:37Z</time>
      </trkpt>
      <trkpt lat="46.06267" lon="4.53235">
        <ele>680.6</ele>
        <time>2025-09-06T08:48:38Z</time>
      </trkpt>
      <trkpt lat="46.06268" lon="4.53236">
        <ele>681</ele>
        <time>2025-09-06T08:48:39Z</time>
      </trkpt>
      <trkpt lat="46.0627" lon="4.53237">
        <ele>681.2</ele>
        <time>2025-09-06T08:48:40Z</time>
      </trkpt>
      <trkpt lat="46.06271" lon="4.53237">
        <ele>681.2</ele>
        <time>2025-09-06T08:48:41Z</time>
      </trkpt>
      <trkpt lat="46.06272" lon="4.53239">
        <ele>681.4</ele>
        <time>2025-09-06T08:48:42Z</time>
      </trkpt>
      <trkpt lat="46.06273" lon="4.5324">
        <ele>681.4</ele>
        <time>2025-09-06T08:48:43Z</time>
      </trkpt>
      <trkpt lat="46.06274" lon="4.53241">
        <ele>681.4</ele>
        <time>2025-09-06T08:48:44Z</time>
      </trkpt>
      <trkpt lat="46.06275" lon="4.53242">
        <ele>681.4</ele>
        <time>2025-09-06T08:48:45Z</time>
      </trkpt>
      <trkpt lat="46.06277" lon="4.53243">
        <ele>682</ele>
        <time>2025-09-06T08:48:46Z</time>
      </trkpt>
      <trkpt lat="46.06278" lon="4.53244">
        <ele>682</ele>
        <time>2025-09-06T08:48:47Z</time>
      </trkpt>
      <trkpt lat="46.06279" lon="4.53245">
        <ele>682.2</ele>
        <time>2025-09-06T08:48:48Z</time>
      </trkpt>
      <trkpt lat="46.06281" lon="4.53245">
        <ele>682.2</ele>
        <time>2025-09-06T08:48:49Z</time>
      </trkpt>
      <trkpt lat="46.06282" lon="4.53245">
        <ele>682.2</ele>
        <time>2025-09-06T08:48:50Z</time>
      </trkpt>
      <trkpt lat="46.06283" lon="4.53246">
        <ele>682.2</ele>
        <time>2025-09-06T08:48:51Z</time>
      </trkpt>
      <trkpt lat="46.06285" lon="4.53246">
        <ele>682.2</ele>
        <time>2025-09-06T08:48:52Z</time>
      </trkpt>
      <trkpt lat="46.06286" lon="4.53247">
        <ele>682.4</ele>
        <time>2025-09-06T08:48:53Z</time>
      </trkpt>
      <trkpt lat="46.06287" lon="4.53248">
        <ele>682.4</ele>
        <time>2025-09-06T08:48:54Z</time>
      </trkpt>
      <trkpt lat="46.06289" lon="4.53249">
        <ele>682.8</ele>
        <time>2025-09-06T08:48:55Z</time>
      </trkpt>
      <trkpt lat="46.0629" lon="4.5325">
        <ele>682.8</ele>
        <time>2025-09-06T08:48:56Z</time>
      </trkpt>
      <trkpt lat="46.06291" lon="4.53251">
        <ele>683</ele>
        <time>2025-09-06T08:48:57Z</time>
      </trkpt>
      <trkpt lat="46.06293" lon="4.53251">
        <ele>683</ele>
        <time>2025-09-06T08:48:58Z</time>
      </trkpt>
      <trkpt lat="46.06295" lon="4.53252">
        <ele>683</ele>
        <time>2025-09-06T08:48:59Z</time>
      </trkpt>
      <trkpt lat="46.06296" lon="4.53253">
        <ele>683</ele>
        <time>2025-09-06T08:49:00Z</time>
      </trkpt>
      <trkpt lat="46.06298" lon="4.53253">
        <ele>683</ele>
        <time>2025-09-06T08:49:01Z</time>
      </trkpt>
      <trkpt lat="46.06299" lon="4.53254">
        <ele>683.4</ele>
        <time>2025-09-06T08:49:02Z</time>
      </trkpt>
      <trkpt lat="46.06301" lon="4.53254">
        <ele>683.4</ele>
        <time>2025-09-06T08:49:03Z</time>
      </trkpt>
      <trkpt lat="46.06302" lon="4.53255">
        <ele>683.6</ele>
        <time>2025-09-06T08:49:04Z</time>
      </trkpt>
      <trkpt lat="46.06304" lon="4.53255">
        <ele>683.6</ele>
        <time>2025-09-06T08:49:05Z</time>
      </trkpt>
      <trkpt lat="46.06305" lon="4.53256">
        <ele>683.6</ele>
        <time>2025-09-06T08:49:06Z</time>
      </trkpt>
      <trkpt lat="46.06306" lon="4.53257">
        <ele>683.6</ele>
        <time>2025-09-06T08:49:07Z</time>
      </trkpt>
      <trkpt lat="46.06308" lon="4.53257">
        <ele>683.8</ele>
        <time>2025-09-06T08:49:08Z</time>
      </trkpt>
      <trkpt lat="46.06309" lon="4.53258">
        <ele>683.8</ele>
        <time>2025-09-06T08:49:09Z</time>
      </trkpt>
      <trkpt lat="46.06311" lon="4.53259">
        <ele>684.2</ele>
        <time>2025-09-06T08:49:10Z</time>
      </trkpt>
      <trkpt lat="46.06312" lon="4.5326">
        <ele>684.2</ele>
        <time>2025-09-06T08:49:11Z</time>
      </trkpt>
      <trkpt lat="46.06314" lon="4.5326">
        <ele>684.4</ele>
        <time>2025-09-06T08:49:12Z</time>
      </trkpt>
      <trkpt lat="46.06315" lon="4.53261">
        <ele>684.4</ele>
        <time>2025-09-06T08:49:13Z</time>
      </trkpt>
      <trkpt lat="46.06317" lon="4.53261">
        <ele>684.4</ele>
        <time>2025-09-06T08:49:14Z</time>
      </trkpt>
      <trkpt lat="46.06318" lon="4.53261">
        <ele>684.6</ele>
        <time>2025-09-06T08:49:15Z</time>
      </trkpt>
      <trkpt lat="46.0632" lon="4.53262">
        <ele>684.8</ele>
        <time>2025-09-06T08:49:16Z</time>
      </trkpt>
      <trkpt lat="46.06321" lon="4.53262">
        <ele>684.8</ele>
        <time>2025-09-06T08:49:17Z</time>
      </trkpt>
      <trkpt lat="46.06323" lon="4.53262">
        <ele>684.8</ele>
        <time>2025-09-06T08:49:18Z</time>
      </trkpt>
      <trkpt lat="46.06325" lon="4.53263">
        <ele>684.8</ele>
        <time>2025-09-06T08:49:19Z</time>
      </trkpt>
      <trkpt lat="46.06326" lon="4.53264">
        <ele>685.2</ele>
        <time>2025-09-06T08:49:20Z</time>
      </trkpt>
      <trkpt lat="46.06328" lon="4.53265">
        <ele>685.2</ele>
        <time>2025-09-06T08:49:21Z</time>
      </trkpt>
      <trkpt lat="46.06329" lon="4.53266">
        <ele>685.2</ele>
        <time>2025-09-06T08:49:22Z</time>
      </trkpt>
      <trkpt lat="46.06331" lon="4.53267">
        <ele>685.2</ele>
        <time>2025-09-06T08:49:23Z</time>
      </trkpt>
      <trkpt lat="46.06332" lon="4.53268">
        <ele>685.2</ele>
        <time>2025-09-06T08:49:24Z</time>
      </trkpt>
      <trkpt lat="46.06334" lon="4.53269">
        <ele>685.2</ele>
        <time>2025-09-06T08:49:25Z</time>
      </trkpt>
      <trkpt lat="46.06335" lon="4.5327">
        <ele>685.2</ele>
        <time>2025-09-06T08:49:26Z</time>
      </trkpt>
      <trkpt lat="46.06337" lon="4.5327">
        <ele>685.2</ele>
        <time>2025-09-06T08:49:27Z</time>
      </trkpt>
      <trkpt lat="46.06338" lon="4.53271">
        <ele>685.4</ele>
        <time>2025-09-06T08:49:28Z</time>
      </trkpt>
      <trkpt lat="46.0634" lon="4.53272">
        <ele>685.4</ele>
        <time>2025-09-06T08:49:29Z</time>
      </trkpt>
      <trkpt lat="46.06341" lon="4.53272">
        <ele>685.8</ele>
        <time>2025-09-06T08:49:30Z</time>
      </trkpt>
      <trkpt lat="46.06343" lon="4.53273">
        <ele>685.8</ele>
        <time>2025-09-06T08:49:31Z</time>
      </trkpt>
      <trkpt lat="46.06344" lon="4.53274">
        <ele>686</ele>
        <time>2025-09-06T08:49:32Z</time>
      </trkpt>
      <trkpt lat="46.06346" lon="4.53274">
        <ele>686</ele>
        <time>2025-09-06T08:49:33Z</time>
      </trkpt>
      <trkpt lat="46.06347" lon="4.53275">
        <ele>686.4</ele>
        <time>2025-09-06T08:49:34Z</time>
      </trkpt>
      <trkpt lat="46.06349" lon="4.53275">
        <ele>686.4</ele>
        <time>2025-09-06T08:49:35Z</time>
      </trkpt>
      <trkpt lat="46.0635" lon="4.53275">
        <ele>686.4</ele>
        <time>2025-09-06T08:49:36Z</time>
      </trkpt>
      <trkpt lat="46.06352" lon="4.53276">
        <ele>686.6</ele>
        <time>2025-09-06T08:49:37Z</time>
      </trkpt>
      <trkpt lat="46.06354" lon="4.53276">
        <ele>686.8</ele>
        <time>2025-09-06T08:49:38Z</time>
      </trkpt>
      <trkpt lat="46.06354" lon="4.53276">
        <ele>686.8</ele>
        <time>2025-09-06T08:49:39Z</time>
      </trkpt>
      <trkpt lat="46.06355" lon="4.53277">
        <ele>686.8</ele>
        <time>2025-09-06T08:49:40Z</time>
      </trkpt>
      <trkpt lat="46.06357" lon="4.53277">
        <ele>686.8</ele>
        <time>2025-09-06T08:49:41Z</time>
      </trkpt>
      <trkpt lat="46.06358" lon="4.53277">
        <ele>686.8</ele>
        <time>2025-09-06T08:49:42Z</time>
      </trkpt>
      <trkpt lat="46.06359" lon="4.53277">
        <ele>686.8</ele>
        <time>2025-09-06T08:49:43Z</time>
      </trkpt>
      <trkpt lat="46.06361" lon="4.53276">
        <ele>687.2</ele>
        <time>2025-09-06T08:49:44Z</time>
      </trkpt>
      <trkpt lat="46.06362" lon="4.53276">
        <ele>687.2</ele>
        <time>2025-09-06T08:49:45Z</time>
      </trkpt>
      <trkpt lat="46.06364" lon="4.53276">
        <ele>687.2</ele>
        <time>2025-09-06T08:49:46Z</time>
      </trkpt>
      <trkpt lat="46.06365" lon="4.53275">
        <ele>687.6</ele>
        <time>2025-09-06T08:49:47Z</time>
      </trkpt>
      <trkpt lat="46.06366" lon="4.53275">
        <ele>687.6</ele>
        <time>2025-09-06T08:49:48Z</time>
      </trkpt>
      <trkpt lat="46.06368" lon="4.53275">
        <ele>687.6</ele>
        <time>2025-09-06T08:49:49Z</time>
      </trkpt>
      <trkpt lat="46.0637" lon="4.53274">
        <ele>687.8</ele>
        <time>2025-09-06T08:49:50Z</time>
      </trkpt>
      <trkpt lat="46.06371" lon="4.53274">
        <ele>687.8</ele>
        <time>2025-09-06T08:49:51Z</time>
      </trkpt>
      <trkpt lat="46.06373" lon="4.53274">
        <ele>688</ele>
        <time>2025-09-06T08:49:52Z</time>
      </trkpt>
      <trkpt lat="46.06374" lon="4.53275">
        <ele>688</ele>
        <time>2025-09-06T08:49:53Z</time>
      </trkpt>
      <trkpt lat="46.06376" lon="4.53276">
        <ele>688</ele>
        <time>2025-09-06T08:49:54Z</time>
      </trkpt>
      <trkpt lat="46.06378" lon="4.53277">
        <ele>688.4</ele>
        <time>2025-09-06T08:49:55Z</time>
      </trkpt>
      <trkpt lat="46.06379" lon="4.53278">
        <ele>688.4</ele>
        <time>2025-09-06T08:49:56Z</time>
      </trkpt>
      <trkpt lat="46.06381" lon="4.5328">
        <ele>688.6</ele>
        <time>2025-09-06T08:49:57Z</time>
      </trkpt>
      <trkpt lat="46.06382" lon="4.53281">
        <ele>688.6</ele>
        <time>2025-09-06T08:49:58Z</time>
      </trkpt>
      <trkpt lat="46.06383" lon="4.53283">
        <ele>688.8</ele>
        <time>2025-09-06T08:49:59Z</time>
      </trkpt>
      <trkpt lat="46.06384" lon="4.53284">
        <ele>688.8</ele>
        <time>2025-09-06T08:50:00Z</time>
      </trkpt>
      <trkpt lat="46.06385" lon="4.53286">
        <ele>689.2</ele>
        <time>2025-09-06T08:50:01Z</time>
      </trkpt>
      <trkpt lat="46.06386" lon="4.53288">
        <ele>689.2</ele>
        <time>2025-09-06T08:50:02Z</time>
      </trkpt>
      <trkpt lat="46.06386" lon="4.53291">
        <ele>689.4</ele>
        <time>2025-09-06T08:50:03Z</time>
      </trkpt>
      <trkpt lat="46.06386" lon="4.53293">
        <ele>689.4</ele>
        <time>2025-09-06T08:50:04Z</time>
      </trkpt>
      <trkpt lat="46.06387" lon="4.53295">
        <ele>689.6</ele>
        <time>2025-09-06T08:50:05Z</time>
      </trkpt>
      <trkpt lat="46.06387" lon="4.53297">
        <ele>689.6</ele>
        <time>2025-09-06T08:50:06Z</time>
      </trkpt>
      <trkpt lat="46.06388" lon="4.533">
        <ele>689.8</ele>
        <time>2025-09-06T08:50:07Z</time>
      </trkpt>
      <trkpt lat="46.06387" lon="4.53303">
        <ele>689.8</ele>
        <time>2025-09-06T08:50:08Z</time>
      </trkpt>
      <trkpt lat="46.06387" lon="4.53305">
        <ele>689.8</ele>
        <time>2025-09-06T08:50:09Z</time>
      </trkpt>
      <trkpt lat="46.06386" lon="4.53306">
        <ele>689.8</ele>
        <time>2025-09-06T08:50:10Z</time>
      </trkpt>
      <trkpt lat="46.06385" lon="4.53308">
        <ele>690.2</ele>
        <time>2025-09-06T08:50:11Z</time>
      </trkpt>
      <trkpt lat="46.06382" lon="4.53311">
        <ele>690.2</ele>
        <time>2025-09-06T08:50:12Z</time>
      </trkpt>
      <trkpt lat="46.06381" lon="4.53312">
        <ele>690.2</ele>
        <time>2025-09-06T08:50:13Z</time>
      </trkpt>
      <trkpt lat="46.06379" lon="4.53313">
        <ele>690.4</ele>
        <time>2025-09-06T08:50:14Z</time>
      </trkpt>
      <trkpt lat="46.06377" lon="4.53314">
        <ele>690.4</ele>
        <time>2025-09-06T08:50:15Z</time>
      </trkpt>
      <trkpt lat="46.06376" lon="4.53314">
        <ele>690.8</ele>
        <time>2025-09-06T08:50:16Z</time>
      </trkpt>
      <trkpt lat="46.06374" lon="4.53315">
        <ele>691.2</ele>
        <time>2025-09-06T08:50:17Z</time>
      </trkpt>
      <trkpt lat="46.06372" lon="4.53315">
        <ele>691.2</ele>
        <time>2025-09-06T08:50:18Z</time>
      </trkpt>
      <trkpt lat="46.0637" lon="4.53314">
        <ele>691.4</ele>
        <time>2025-09-06T08:50:19Z</time>
      </trkpt>
      <trkpt lat="46.06368" lon="4.53313">
        <ele>691.4</ele>
        <time>2025-09-06T08:50:20Z</time>
      </trkpt>
      <trkpt lat="46.06366" lon="4.53312">
        <ele>691.4</ele>
        <time>2025-09-06T08:50:21Z</time>
      </trkpt>
      <trkpt lat="46.06364" lon="4.53312">
        <ele>691.4</ele>
        <time>2025-09-06T08:50:22Z</time>
      </trkpt>
      <trkpt lat="46.06362" lon="4.53311">
        <ele>691.6</ele>
        <time>2025-09-06T08:50:23Z</time>
      </trkpt>
      <trkpt lat="46.06361" lon="4.5331">
        <ele>691.6</ele>
        <time>2025-09-06T08:50:24Z</time>
      </trkpt>
      <trkpt lat="46.06359" lon="4.5331">
        <ele>691.6</ele>
        <time>2025-09-06T08:50:25Z</time>
      </trkpt>
      <trkpt lat="46.06358" lon="4.53309">
        <ele>691.8</ele>
        <time>2025-09-06T08:50:26Z</time>
      </trkpt>
      <trkpt lat="46.06356" lon="4.53308">
        <ele>691.8</ele>
        <time>2025-09-06T08:50:27Z</time>
      </trkpt>
      <trkpt lat="46.06355" lon="4.53308">
        <ele>692.2</ele>
        <time>2025-09-06T08:50:28Z</time>
      </trkpt>
      <trkpt lat="46.06353" lon="4.53307">
        <ele>692.2</ele>
        <time>2025-09-06T08:50:29Z</time>
      </trkpt>
      <trkpt lat="46.06351" lon="4.53306">
        <ele>692.2</ele>
        <time>2025-09-06T08:50:30Z</time>
      </trkpt>
      <trkpt lat="46.0635" lon="4.53305">
        <ele>692.6</ele>
        <time>2025-09-06T08:50:31Z</time>
      </trkpt>
      <trkpt lat="46.06348" lon="4.53304">
        <ele>692.6</ele>
        <time>2025-09-06T08:50:32Z</time>
      </trkpt>
      <trkpt lat="46.06346" lon="4.53304">
        <ele>692.8</ele>
        <time>2025-09-06T08:50:33Z</time>
      </trkpt>
      <trkpt lat="46.06344" lon="4.53304">
        <ele>692.8</ele>
        <time>2025-09-06T08:50:34Z</time>
      </trkpt>
      <trkpt lat="46.06342" lon="4.53305">
        <ele>693</ele>
        <time>2025-09-06T08:50:35Z</time>
      </trkpt>
      <trkpt lat="46.06341" lon="4.53305">
        <ele>693</ele>
        <time>2025-09-06T08:50:36Z</time>
      </trkpt>
      <trkpt lat="46.06339" lon="4.53305">
        <ele>693.4</ele>
        <time>2025-09-06T08:50:37Z</time>
      </trkpt>
      <trkpt lat="46.06338" lon="4.53304">
        <ele>693.4</ele>
        <time>2025-09-06T08:50:38Z</time>
      </trkpt>
      <trkpt lat="46.06337" lon="4.53304">
        <ele>693.6</ele>
        <time>2025-09-06T08:50:39Z</time>
      </trkpt>
      <trkpt lat="46.06335" lon="4.53303">
        <ele>693.6</ele>
        <time>2025-09-06T08:50:40Z</time>
      </trkpt>
      <trkpt lat="46.06334" lon="4.53302">
        <ele>693.6</ele>
        <time>2025-09-06T08:50:41Z</time>
      </trkpt>
      <trkpt lat="46.06333" lon="4.53301">
        <ele>693.8</ele>
        <time>2025-09-06T08:50:42Z</time>
      </trkpt>
      <trkpt lat="46.06332" lon="4.53301">
        <ele>693.8</ele>
        <time>2025-09-06T08:50:43Z</time>
      </trkpt>
      <trkpt lat="46.06331" lon="4.533">
        <ele>693.8</ele>
        <time>2025-09-06T08:50:44Z</time>
      </trkpt>
      <trkpt lat="46.0633" lon="4.533">
        <ele>693.8</ele>
        <time>2025-09-06T08:50:45Z</time>
      </trkpt>
      <trkpt lat="46.06328" lon="4.533">
        <ele>694</ele>
        <time>2025-09-06T08:50:46Z</time>
      </trkpt>
      <trkpt lat="46.06327" lon="4.533">
        <ele>694</ele>
        <time>2025-09-06T08:50:47Z</time>
      </trkpt>
      <trkpt lat="46.06325" lon="4.533">
        <ele>694</ele>
        <time>2025-09-06T08:50:48Z</time>
      </trkpt>
      <trkpt lat="46.06324" lon="4.533">
        <ele>694</ele>
        <time>2025-09-06T08:50:49Z</time>
      </trkpt>
      <trkpt lat="46.06323" lon="4.53299">
        <ele>694</ele>
        <time>2025-09-06T08:50:50Z</time>
      </trkpt>
      <trkpt lat="46.06322" lon="4.53299">
        <ele>694.4</ele>
        <time>2025-09-06T08:50:51Z</time>
      </trkpt>
      <trkpt lat="46.0632" lon="4.53299">
        <ele>694.6</ele>
        <time>2025-09-06T08:50:52Z</time>
      </trkpt>
      <trkpt lat="46.06319" lon="4.53299">
        <ele>694.6</ele>
        <time>2025-09-06T08:50:53Z</time>
      </trkpt>
      <trkpt lat="46.06317" lon="4.533">
        <ele>694.6</ele>
        <time>2025-09-06T08:50:54Z</time>
      </trkpt>
      <trkpt lat="46.06316" lon="4.533">
        <ele>694.6</ele>
        <time>2025-09-06T08:50:55Z</time>
      </trkpt>
      <trkpt lat="46.06315" lon="4.53299">
        <ele>695</ele>
        <time>2025-09-06T08:50:56Z</time>
      </trkpt>
      <trkpt lat="46.06314" lon="4.53299">
        <ele>695</ele>
        <time>2025-09-06T08:50:57Z</time>
      </trkpt>
      <trkpt lat="46.06313" lon="4.53298">
        <ele>695.2</ele>
        <time>2025-09-06T08:50:58Z</time>
      </trkpt>
      <trkpt lat="46.06312" lon="4.53298">
        <ele>695.2</ele>
        <time>2025-09-06T08:50:59Z</time>
      </trkpt>
      <trkpt lat="46.06311" lon="4.53298">
        <ele>695.6</ele>
        <time>2025-09-06T08:51:00Z</time>
      </trkpt>
      <trkpt lat="46.0631" lon="4.53297">
        <ele>695.6</ele>
        <time>2025-09-06T08:51:01Z</time>
      </trkpt>
      <trkpt lat="46.06309" lon="4.53297">
        <ele>695.8</ele>
        <time>2025-09-06T08:51:02Z</time>
      </trkpt>
      <trkpt lat="46.06307" lon="4.53297">
        <ele>695.8</ele>
        <time>2025-09-06T08:51:03Z</time>
      </trkpt>
      <trkpt lat="46.06305" lon="4.53297">
        <ele>695.8</ele>
        <time>2025-09-06T08:51:04Z</time>
      </trkpt>
      <trkpt lat="46.06304" lon="4.53297">
        <ele>696</ele>
        <time>2025-09-06T08:51:05Z</time>
      </trkpt>
      <trkpt lat="46.06303" lon="4.53297">
        <ele>696</ele>
        <time>2025-09-06T08:51:06Z</time>
      </trkpt>
      <trkpt lat="46.06301" lon="4.53297">
        <ele>696</ele>
        <time>2025-09-06T08:51:07Z</time>
      </trkpt>
      <trkpt lat="46.063" lon="4.53297">
        <ele>696.4</ele>
        <time>2025-09-06T08:51:08Z</time>
      </trkpt>
      <trkpt lat="46.06298" lon="4.53297">
        <ele>696.4</ele>
        <time>2025-09-06T08:51:09Z</time>
      </trkpt>
      <trkpt lat="46.06297" lon="4.53297">
        <ele>696.4</ele>
        <time>2025-09-06T08:51:10Z</time>
      </trkpt>
      <trkpt lat="46.06296" lon="4.53296">
        <ele>696.4</ele>
        <time>2025-09-06T08:51:11Z</time>
      </trkpt>
      <trkpt lat="46.06294" lon="4.53296">
        <ele>696.6</ele>
        <time>2025-09-06T08:51:12Z</time>
      </trkpt>
      <trkpt lat="46.06293" lon="4.53296">
        <ele>696.6</ele>
        <time>2025-09-06T08:51:13Z</time>
      </trkpt>
      <trkpt lat="46.06291" lon="4.53295">
        <ele>696.6</ele>
        <time>2025-09-06T08:51:14Z</time>
      </trkpt>
      <trkpt lat="46.0629" lon="4.53295">
        <ele>696.8</ele>
        <time>2025-09-06T08:51:15Z</time>
      </trkpt>
      <trkpt lat="46.06288" lon="4.53295">
        <ele>696.8</ele>
        <time>2025-09-06T08:51:16Z</time>
      </trkpt>
      <trkpt lat="46.06287" lon="4.53295">
        <ele>696.8</ele>
        <time>2025-09-06T08:51:17Z</time>
      </trkpt>
      <trkpt lat="46.06286" lon="4.53295">
        <ele>697.2</ele>
        <time>2025-09-06T08:51:18Z</time>
      </trkpt>
      <trkpt lat="46.06284" lon="4.53295">
        <ele>697.2</ele>
        <time>2025-09-06T08:51:19Z</time>
      </trkpt>
      <trkpt lat="46.06282" lon="4.53295">
        <ele>697.2</ele>
        <time>2025-09-06T08:51:20Z</time>
      </trkpt>
      <trkpt lat="46.0628" lon="4.53295">
        <ele>697.4</ele>
        <time>2025-09-06T08:51:21Z</time>
      </trkpt>
      <trkpt lat="46.06278" lon="4.53295">
        <ele>697.4</ele>
        <time>2025-09-06T08:51:22Z</time>
      </trkpt>
      <trkpt lat="46.06276" lon="4.53295">
        <ele>697.4</ele>
        <time>2025-09-06T08:51:23Z</time>
      </trkpt>
      <trkpt lat="46.06274" lon="4.53295">
        <ele>697.4</ele>
        <time>2025-09-06T08:51:24Z</time>
      </trkpt>
      <trkpt lat="46.06272" lon="4.53295">
        <ele>697.4</ele>
        <time>2025-09-06T08:51:25Z</time>
      </trkpt>
      <trkpt lat="46.06271" lon="4.53295">
        <ele>697.8</ele>
        <time>2025-09-06T08:51:26Z</time>
      </trkpt>
      <trkpt lat="46.06269" lon="4.53295">
        <ele>697.8</ele>
        <time>2025-09-06T08:51:27Z</time>
      </trkpt>
      <trkpt lat="46.06268" lon="4.53295">
        <ele>697.8</ele>
        <time>2025-09-06T08:51:28Z</time>
      </trkpt>
      <trkpt lat="46.06266" lon="4.53295">
        <ele>698</ele>
        <time>2025-09-06T08:51:29Z</time>
      </trkpt>
      <trkpt lat="46.06264" lon="4.53295">
        <ele>698</ele>
        <time>2025-09-06T08:51:30Z</time>
      </trkpt>
      <trkpt lat="46.06262" lon="4.53296">
        <ele>698.2</ele>
        <time>2025-09-06T08:51:31Z</time>
      </trkpt>
      <trkpt lat="46.06261" lon="4.53295">
        <ele>698.2</ele>
        <time>2025-09-06T08:51:32Z</time>
      </trkpt>
      <trkpt lat="46.06259" lon="4.53295">
        <ele>698.4</ele>
        <time>2025-09-06T08:51:33Z</time>
      </trkpt>
      <trkpt lat="46.06259" lon="4.53295">
        <ele>698.4</ele>
        <time>2025-09-06T08:51:34Z</time>
      </trkpt>
      <trkpt lat="46.06259" lon="4.53295">
        <ele>698.6</ele>
        <time>2025-09-06T08:51:35Z</time>
      </trkpt>
      <trkpt lat="46.06254" lon="4.53295">
        <ele>698.6</ele>
        <time>2025-09-06T08:51:36Z</time>
      </trkpt>
      <trkpt lat="46.06252" lon="4.53295">
        <ele>698.6</ele>
        <time>2025-09-06T08:51:37Z</time>
      </trkpt>
      <trkpt lat="46.06251" lon="4.53295">
        <ele>698.6</ele>
        <time>2025-09-06T08:51:38Z</time>
      </trkpt>
      <trkpt lat="46.06249" lon="4.53295">
        <ele>699</ele>
        <time>2025-09-06T08:51:39Z</time>
      </trkpt>
      <trkpt lat="46.06248" lon="4.53295">
        <ele>699</ele>
        <time>2025-09-06T08:51:40Z</time>
      </trkpt>
      <trkpt lat="46.06246" lon="4.53295">
        <ele>699.2</ele>
        <time>2025-09-06T08:51:41Z</time>
      </trkpt>
      <trkpt lat="46.06244" lon="4.53294">
        <ele>699.2</ele>
        <time>2025-09-06T08:51:42Z</time>
      </trkpt>
      <trkpt lat="46.06242" lon="4.53294">
        <ele>699.2</ele>
        <time>2025-09-06T08:51:43Z</time>
      </trkpt>
      <trkpt lat="46.06241" lon="4.53294">
        <ele>699.4</ele>
        <time>2025-09-06T08:51:44Z</time>
      </trkpt>
      <trkpt lat="46.06239" lon="4.53293">
        <ele>699.4</ele>
        <time>2025-09-06T08:51:45Z</time>
      </trkpt>
      <trkpt lat="46.06238" lon="4.53293">
        <ele>699.4</ele>
        <time>2025-09-06T08:51:46Z</time>
      </trkpt>
      <trkpt lat="46.06236" lon="4.53293">
        <ele>699.8</ele>
        <time>2025-09-06T08:51:47Z</time>
      </trkpt>
      <trkpt lat="46.06235" lon="4.53293">
        <ele>699.8</ele>
        <time>2025-09-06T08:51:48Z</time>
      </trkpt>
      <trkpt lat="46.06233" lon="4.53293">
        <ele>700</ele>
        <time>2025-09-06T08:51:49Z</time>
      </trkpt>
      <trkpt lat="46.06232" lon="4.53293">
        <ele>700</ele>
        <time>2025-09-06T08:51:50Z</time>
      </trkpt>
      <trkpt lat="46.0623" lon="4.53293">
        <ele>700</ele>
        <time>2025-09-06T08:51:51Z</time>
      </trkpt>
      <trkpt lat="46.06229" lon="4.53293">
        <ele>700</ele>
        <time>2025-09-06T08:51:52Z</time>
      </trkpt>
      <trkpt lat="46.06227" lon="4.53293">
        <ele>700</ele>
        <time>2025-09-06T08:51:53Z</time>
      </trkpt>
      <trkpt lat="46.06226" lon="4.53293">
        <ele>700</ele>
        <time>2025-09-06T08:51:54Z</time>
      </trkpt>
      <trkpt lat="46.06224" lon="4.53293">
        <ele>700.2</ele>
        <time>2025-09-06T08:51:55Z</time>
      </trkpt>
      <trkpt lat="46.06222" lon="4.53294">
        <ele>700.2</ele>
        <time>2025-09-06T08:51:56Z</time>
      </trkpt>
      <trkpt lat="46.0622" lon="4.53294">
        <ele>700.2</ele>
        <time>2025-09-06T08:51:57Z</time>
      </trkpt>
      <trkpt lat="46.06218" lon="4.53293">
        <ele>700.6</ele>
        <time>2025-09-06T08:51:58Z</time>
      </trkpt>
      <trkpt lat="46.06217" lon="4.53293">
        <ele>700.6</ele>
        <time>2025-09-06T08:51:59Z</time>
      </trkpt>
      <trkpt lat="46.06217" lon="4.53293">
        <ele>701</ele>
        <time>2025-09-06T08:52:00Z</time>
      </trkpt>
      <trkpt lat="46.06213" lon="4.53293">
        <ele>701.4</ele>
        <time>2025-09-06T08:52:01Z</time>
      </trkpt>
      <trkpt lat="46.06212" lon="4.53293">
        <ele>701.4</ele>
        <time>2025-09-06T08:52:02Z</time>
      </trkpt>
      <trkpt lat="46.06211" lon="4.53293">
        <ele>701.4</ele>
        <time>2025-09-06T08:52:03Z</time>
      </trkpt>
      <trkpt lat="46.06209" lon="4.53293">
        <ele>701.4</ele>
        <time>2025-09-06T08:52:04Z</time>
      </trkpt>
      <trkpt lat="46.06208" lon="4.53293">
        <ele>701.4</ele>
        <time>2025-09-06T08:52:05Z</time>
      </trkpt>
      <trkpt lat="46.06206" lon="4.53292">
        <ele>701.6</ele>
        <time>2025-09-06T08:52:06Z</time>
      </trkpt>
      <trkpt lat="46.06205" lon="4.53292">
        <ele>701.6</ele>
        <time>2025-09-06T08:52:07Z</time>
      </trkpt>
      <trkpt lat="46.06203" lon="4.53292">
        <ele>701.8</ele>
        <time>2025-09-06T08:52:08Z</time>
      </trkpt>
      <trkpt lat="46.06202" lon="4.53292">
        <ele>701.8</ele>
        <time>2025-09-06T08:52:09Z</time>
      </trkpt>
      <trkpt lat="46.06201" lon="4.53291">
        <ele>702</ele>
        <time>2025-09-06T08:52:10Z</time>
      </trkpt>
      <trkpt lat="46.06199" lon="4.53291">
        <ele>702.2</ele>
        <time>2025-09-06T08:52:11Z</time>
      </trkpt>
      <trkpt lat="46.06197" lon="4.53291">
        <ele>702.2</ele>
        <time>2025-09-06T08:52:12Z</time>
      </trkpt>
      <trkpt lat="46.06196" lon="4.53291">
        <ele>702.6</ele>
        <time>2025-09-06T08:52:13Z</time>
      </trkpt>
      <trkpt lat="46.06195" lon="4.53291">
        <ele>702.6</ele>
        <time>2025-09-06T08:52:14Z</time>
      </trkpt>
      <trkpt lat="46.06194" lon="4.53291">
        <ele>702.6</ele>
        <time>2025-09-06T08:52:15Z</time>
      </trkpt>
      <trkpt lat="46.06192" lon="4.53291">
        <ele>702.6</ele>
        <time>2025-09-06T08:52:16Z</time>
      </trkpt>
      <trkpt lat="46.06192" lon="4.53291">
        <ele>703</ele>
        <time>2025-09-06T08:52:17Z</time>
      </trkpt>
      <trkpt lat="46.0619" lon="4.53291">
        <ele>703</ele>
        <time>2025-09-06T08:52:18Z</time>
      </trkpt>
      <trkpt lat="46.06189" lon="4.53291">
        <ele>703.2</ele>
        <time>2025-09-06T08:52:19Z</time>
      </trkpt>
      <trkpt lat="46.06187" lon="4.5329">
        <ele>703.2</ele>
        <time>2025-09-06T08:52:20Z</time>
      </trkpt>
      <trkpt lat="46.06186" lon="4.53289">
        <ele>703.2</ele>
        <time>2025-09-06T08:52:21Z</time>
      </trkpt>
      <trkpt lat="46.06185" lon="4.53289">
        <ele>703.4</ele>
        <time>2025-09-06T08:52:22Z</time>
      </trkpt>
      <trkpt lat="46.06183" lon="4.53289">
        <ele>703.4</ele>
        <time>2025-09-06T08:52:23Z</time>
      </trkpt>
      <trkpt lat="46.06182" lon="4.53289">
        <ele>704</ele>
        <time>2025-09-06T08:52:24Z</time>
      </trkpt>
      <trkpt lat="46.0618" lon="4.53289">
        <ele>704.2</ele>
        <time>2025-09-06T08:52:25Z</time>
      </trkpt>
      <trkpt lat="46.06179" lon="4.53289">
        <ele>704.4</ele>
        <time>2025-09-06T08:52:26Z</time>
      </trkpt>
      <trkpt lat="46.06178" lon="4.53288">
        <ele>704.4</ele>
        <time>2025-09-06T08:52:27Z</time>
      </trkpt>
      <trkpt lat="46.06176" lon="4.53288">
        <ele>704.4</ele>
        <time>2025-09-06T08:52:28Z</time>
      </trkpt>
      <trkpt lat="46.06174" lon="4.53288">
        <ele>704.6</ele>
        <time>2025-09-06T08:52:29Z</time>
      </trkpt>
      <trkpt lat="46.06173" lon="4.53287">
        <ele>704.6</ele>
        <time>2025-09-06T08:52:30Z</time>
      </trkpt>
      <trkpt lat="46.06171" lon="4.53286">
        <ele>704.8</ele>
        <time>2025-09-06T08:52:31Z</time>
      </trkpt>
      <trkpt lat="46.0617" lon="4.53286">
        <ele>704.8</ele>
        <time>2025-09-06T08:52:32Z</time>
      </trkpt>
      <trkpt lat="46.06169" lon="4.53286">
        <ele>705.2</ele>
        <time>2025-09-06T08:52:33Z</time>
      </trkpt>
      <trkpt lat="46.06167" lon="4.53286">
        <ele>705.2</ele>
        <time>2025-09-06T08:52:34Z</time>
      </trkpt>
      <trkpt lat="46.06166" lon="4.53286">
        <ele>705.4</ele>
        <time>2025-09-06T08:52:35Z</time>
      </trkpt>
      <trkpt lat="46.06164" lon="4.53286">
        <ele>705.4</ele>
        <time>2025-09-06T08:52:36Z</time>
      </trkpt>
      <trkpt lat="46.06163" lon="4.53286">
        <ele>705.4</ele>
        <time>2025-09-06T08:52:37Z</time>
      </trkpt>
      <trkpt lat="46.06161" lon="4.53286">
        <ele>705.8</ele>
        <time>2025-09-06T08:52:38Z</time>
      </trkpt>
      <trkpt lat="46.0616" lon="4.53286">
        <ele>706</ele>
        <time>2025-09-06T08:52:39Z</time>
      </trkpt>
      <trkpt lat="46.06159" lon="4.53287">
        <ele>706</ele>
        <time>2025-09-06T08:52:40Z</time>
      </trkpt>
      <trkpt lat="46.06157" lon="4.53287">
        <ele>706</ele>
        <time>2025-09-06T08:52:41Z</time>
      </trkpt>
      <trkpt lat="46.06154" lon="4.53289">
        <ele>706</ele>
        <time>2025-09-06T08:52:42Z</time>
      </trkpt>
      <trkpt lat="46.06153" lon="4.53289">
        <ele>706.2</ele>
        <time>2025-09-06T08:52:43Z</time>
      </trkpt>
      <trkpt lat="46.06152" lon="4.53289">
        <ele>706.2</ele>
        <time>2025-09-06T08:52:44Z</time>
      </trkpt>
      <trkpt lat="46.0615" lon="4.53289">
        <ele>706.2</ele>
        <time>2025-09-06T08:52:45Z</time>
      </trkpt>
      <trkpt lat="46.06149" lon="4.53289">
        <ele>706.6</ele>
        <time>2025-09-06T08:52:46Z</time>
      </trkpt>
      <trkpt lat="46.06147" lon="4.53289">
        <ele>706.6</ele>
        <time>2025-09-06T08:52:47Z</time>
      </trkpt>
      <trkpt lat="46.06146" lon="4.5329">
        <ele>706.6</ele>
        <time>2025-09-06T08:52:48Z</time>
      </trkpt>
      <trkpt lat="46.06144" lon="4.5329">
        <ele>706.6</ele>
        <time>2025-09-06T08:52:49Z</time>
      </trkpt>
      <trkpt lat="46.06143" lon="4.5329">
        <ele>706.8</ele>
        <time>2025-09-06T08:52:50Z</time>
      </trkpt>
      <trkpt lat="46.06141" lon="4.53291">
        <ele>706.8</ele>
        <time>2025-09-06T08:52:51Z</time>
      </trkpt>
      <trkpt lat="46.0614" lon="4.53291">
        <ele>706.8</ele>
        <time>2025-09-06T08:52:52Z</time>
      </trkpt>
      <trkpt lat="46.06138" lon="4.53292">
        <ele>706.8</ele>
        <time>2025-09-06T08:52:53Z</time>
      </trkpt>
      <trkpt lat="46.06137" lon="4.53293">
        <ele>707</ele>
        <time>2025-09-06T08:52:54Z</time>
      </trkpt>
      <trkpt lat="46.06136" lon="4.53294">
        <ele>707</ele>
        <time>2025-09-06T08:52:55Z</time>
      </trkpt>
      <trkpt lat="46.06135" lon="4.53295">
        <ele>707.2</ele>
        <time>2025-09-06T08:52:56Z</time>
      </trkpt>
      <trkpt lat="46.06133" lon="4.53296">
        <ele>707.6</ele>
        <time>2025-09-06T08:52:57Z</time>
      </trkpt>
      <trkpt lat="46.06131" lon="4.53297">
        <ele>707.6</ele>
        <time>2025-09-06T08:52:58Z</time>
      </trkpt>
      <trkpt lat="46.0613" lon="4.53297">
        <ele>707.8</ele>
        <time>2025-09-06T08:52:59Z</time>
      </trkpt>
      <trkpt lat="46.06129" lon="4.53298">
        <ele>707.8</ele>
        <time>2025-09-06T08:53:00Z</time>
      </trkpt>
      <trkpt lat="46.06127" lon="4.53299">
        <ele>708.2</ele>
        <time>2025-09-06T08:53:01Z</time>
      </trkpt>
      <trkpt lat="46.06126" lon="4.533">
        <ele>708.2</ele>
        <time>2025-09-06T08:53:02Z</time>
      </trkpt>
      <trkpt lat="46.06125" lon="4.53301">
        <ele>708.4</ele>
        <time>2025-09-06T08:53:03Z</time>
      </trkpt>
      <trkpt lat="46.06123" lon="4.53302">
        <ele>708.4</ele>
        <time>2025-09-06T08:53:04Z</time>
      </trkpt>
      <trkpt lat="46.06122" lon="4.53303">
        <ele>708.4</ele>
        <time>2025-09-06T08:53:05Z</time>
      </trkpt>
      <trkpt lat="46.06121" lon="4.53303">
        <ele>708.4</ele>
        <time>2025-09-06T08:53:06Z</time>
      </trkpt>
      <trkpt lat="46.06119" lon="4.53304">
        <ele>708.4</ele>
        <time>2025-09-06T08:53:07Z</time>
      </trkpt>
      <trkpt lat="46.06118" lon="4.53305">
        <ele>708.8</ele>
        <time>2025-09-06T08:53:08Z</time>
      </trkpt>
      <trkpt lat="46.06117" lon="4.53307">
        <ele>709</ele>
        <time>2025-09-06T08:53:09Z</time>
      </trkpt>
      <trkpt lat="46.06116" lon="4.53308">
        <ele>709.2</ele>
        <time>2025-09-06T08:53:10Z</time>
      </trkpt>
      <trkpt lat="46.06115" lon="4.5331">
        <ele>709.4</ele>
        <time>2025-09-06T08:53:11Z</time>
      </trkpt>
      <trkpt lat="46.06114" lon="4.53311">
        <ele>709.4</ele>
        <time>2025-09-06T08:53:12Z</time>
      </trkpt>
      <trkpt lat="46.06113" lon="4.53312">
        <ele>709.4</ele>
        <time>2025-09-06T08:53:13Z</time>
      </trkpt>
      <trkpt lat="46.06112" lon="4.53314">
        <ele>709.4</ele>
        <time>2025-09-06T08:53:14Z</time>
      </trkpt>
      <trkpt lat="46.06111" lon="4.53315">
        <ele>709.4</ele>
        <time>2025-09-06T08:53:15Z</time>
      </trkpt>
      <trkpt lat="46.0611" lon="4.53317">
        <ele>709.6</ele>
        <time>2025-09-06T08:53:16Z</time>
      </trkpt>
      <trkpt lat="46.0611" lon="4.53318">
        <ele>709.6</ele>
        <time>2025-09-06T08:53:17Z</time>
      </trkpt>
      <trkpt lat="46.06109" lon="4.5332">
        <ele>710</ele>
        <time>2025-09-06T08:53:18Z</time>
      </trkpt>
      <trkpt lat="46.06108" lon="4.53322">
        <ele>710</ele>
        <time>2025-09-06T08:53:19Z</time>
      </trkpt>
      <trkpt lat="46.06107" lon="4.53324">
        <ele>710</ele>
        <time>2025-09-06T08:53:20Z</time>
      </trkpt>
      <trkpt lat="46.06106" lon="4.53326">
        <ele>710</ele>
        <time>2025-09-06T08:53:21Z</time>
      </trkpt>
      <trkpt lat="46.06105" lon="4.53327">
        <ele>710.2</ele>
        <time>2025-09-06T08:53:22Z</time>
      </trkpt>
      <trkpt lat="46.06104" lon="4.53329">
        <ele>710.2</ele>
        <time>2025-09-06T08:53:23Z</time>
      </trkpt>
      <trkpt lat="46.06103" lon="4.5333">
        <ele>710.2</ele>
        <time>2025-09-06T08:53:24Z</time>
      </trkpt>
      <trkpt lat="46.06102" lon="4.53332">
        <ele>710.2</ele>
        <time>2025-09-06T08:53:25Z</time>
      </trkpt>
      <trkpt lat="46.06101" lon="4.53334">
        <ele>710.2</ele>
        <time>2025-09-06T08:53:26Z</time>
      </trkpt>
      <trkpt lat="46.061" lon="4.53335">
        <ele>710.2</ele>
        <time>2025-09-06T08:53:27Z</time>
      </trkpt>
      <trkpt lat="46.06098" lon="4.53337">
        <ele>710.6</ele>
        <time>2025-09-06T08:53:28Z</time>
      </trkpt>
      <trkpt lat="46.06098" lon="4.53338">
        <ele>710.6</ele>
        <time>2025-09-06T08:53:29Z</time>
      </trkpt>
      <trkpt lat="46.06097" lon="4.53339">
        <ele>710.6</ele>
        <time>2025-09-06T08:53:30Z</time>
      </trkpt>
      <trkpt lat="46.06097" lon="4.5334">
        <ele>710.8</ele>
        <time>2025-09-06T08:53:31Z</time>
      </trkpt>
      <trkpt lat="46.06096" lon="4.53342">
        <ele>710.8</ele>
        <time>2025-09-06T08:53:32Z</time>
      </trkpt>
      <trkpt lat="46.06096" lon="4.53345">
        <ele>710.8</ele>
        <time>2025-09-06T08:53:33Z</time>
      </trkpt>
      <trkpt lat="46.06095" lon="4.53347">
        <ele>711</ele>
        <time>2025-09-06T08:53:34Z</time>
      </trkpt>
      <trkpt lat="46.06094" lon="4.53348">
        <ele>711</ele>
        <time>2025-09-06T08:53:35Z</time>
      </trkpt>
      <trkpt lat="46.06092" lon="4.53349">
        <ele>711.4</ele>
        <time>2025-09-06T08:53:36Z</time>
      </trkpt>
      <trkpt lat="46.06091" lon="4.53351">
        <ele>711.4</ele>
        <time>2025-09-06T08:53:37Z</time>
      </trkpt>
      <trkpt lat="46.0609" lon="4.53352">
        <ele>711.4</ele>
        <time>2025-09-06T08:53:38Z</time>
      </trkpt>
      <trkpt lat="46.06089" lon="4.53353">
        <ele>711.4</ele>
        <time>2025-09-06T08:53:39Z</time>
      </trkpt>
      <trkpt lat="46.06088" lon="4.53355">
        <ele>711.4</ele>
        <time>2025-09-06T08:53:40Z</time>
      </trkpt>
      <trkpt lat="46.06087" lon="4.53357">
        <ele>711.6</ele>
        <time>2025-09-06T08:53:41Z</time>
      </trkpt>
      <trkpt lat="46.06086" lon="4.53358">
        <ele>712</ele>
        <time>2025-09-06T08:53:42Z</time>
      </trkpt>
      <trkpt lat="46.06085" lon="4.5336">
        <ele>712</ele>
        <time>2025-09-06T08:53:43Z</time>
      </trkpt>
      <trkpt lat="46.06085" lon="4.53362">
        <ele>712</ele>
        <time>2025-09-06T08:53:44Z</time>
      </trkpt>
      <trkpt lat="46.06084" lon="4.53364">
        <ele>712</ele>
        <time>2025-09-06T08:53:45Z</time>
      </trkpt>
      <trkpt lat="46.06083" lon="4.53366">
        <ele>712</ele>
        <time>2025-09-06T08:53:46Z</time>
      </trkpt>
      <trkpt lat="46.06082" lon="4.53368">
        <ele>712</ele>
        <time>2025-09-06T08:53:47Z</time>
      </trkpt>
      <trkpt lat="46.06081" lon="4.53369">
        <ele>712</ele>
        <time>2025-09-06T08:53:48Z</time>
      </trkpt>
      <trkpt lat="46.0608" lon="4.53371">
        <ele>712.2</ele>
        <time>2025-09-06T08:53:49Z</time>
      </trkpt>
      <trkpt lat="46.0608" lon="4.53372">
        <ele>712.2</ele>
        <time>2025-09-06T08:53:50Z</time>
      </trkpt>
      <trkpt lat="46.06079" lon="4.53374">
        <ele>712.4</ele>
        <time>2025-09-06T08:53:51Z</time>
      </trkpt>
      <trkpt lat="46.06078" lon="4.53376">
        <ele>712.4</ele>
        <time>2025-09-06T08:53:52Z</time>
      </trkpt>
      <trkpt lat="46.06077" lon="4.53378">
        <ele>712.4</ele>
        <time>2025-09-06T08:53:53Z</time>
      </trkpt>
      <trkpt lat="46.06077" lon="4.53379">
        <ele>712.4</ele>
        <time>2025-09-06T08:53:54Z</time>
      </trkpt>
      <trkpt lat="46.06076" lon="4.53381">
        <ele>712.6</ele>
        <time>2025-09-06T08:53:55Z</time>
      </trkpt>
      <trkpt lat="46.06075" lon="4.53383">
        <ele>712.6</ele>
        <time>2025-09-06T08:53:56Z</time>
      </trkpt>
      <trkpt lat="46.06075" lon="4.53385">
        <ele>712.6</ele>
        <time>2025-09-06T08:53:57Z</time>
      </trkpt>
      <trkpt lat="46.06074" lon="4.53386">
        <ele>712.6</ele>
        <time>2025-09-06T08:53:58Z</time>
      </trkpt>
      <trkpt lat="46.06073" lon="4.53388">
        <ele>712.6</ele>
        <time>2025-09-06T08:53:59Z</time>
      </trkpt>
      <trkpt lat="46.06073" lon="4.5339">
        <ele>712.6</ele>
        <time>2025-09-06T08:54:00Z</time>
      </trkpt>
      <trkpt lat="46.06072" lon="4.53392">
        <ele>713</ele>
        <time>2025-09-06T08:54:01Z</time>
      </trkpt>
      <trkpt lat="46.06072" lon="4.53394">
        <ele>713.2</ele>
        <time>2025-09-06T08:54:02Z</time>
      </trkpt>
      <trkpt lat="46.06071" lon="4.53396">
        <ele>713.4</ele>
        <time>2025-09-06T08:54:03Z</time>
      </trkpt>
      <trkpt lat="46.0607" lon="4.53398">
        <ele>713.4</ele>
        <time>2025-09-06T08:54:04Z</time>
      </trkpt>
      <trkpt lat="46.0607" lon="4.534">
        <ele>713.4</ele>
        <time>2025-09-06T08:54:05Z</time>
      </trkpt>
      <trkpt lat="46.06069" lon="4.53401">
        <ele>713.8</ele>
        <time>2025-09-06T08:54:06Z</time>
      </trkpt>
      <trkpt lat="46.06068" lon="4.53403">
        <ele>713.8</ele>
        <time>2025-09-06T08:54:07Z</time>
      </trkpt>
      <trkpt lat="46.06067" lon="4.53405">
        <ele>714</ele>
        <time>2025-09-06T08:54:08Z</time>
      </trkpt>
      <trkpt lat="46.06066" lon="4.53406">
        <ele>714</ele>
        <time>2025-09-06T08:54:09Z</time>
      </trkpt>
      <trkpt lat="46.06066" lon="4.53408">
        <ele>714.4</ele>
        <time>2025-09-06T08:54:10Z</time>
      </trkpt>
      <trkpt lat="46.06065" lon="4.53409">
        <ele>714.4</ele>
        <time>2025-09-06T08:54:11Z</time>
      </trkpt>
      <trkpt lat="46.06064" lon="4.5341">
        <ele>714.4</ele>
        <time>2025-09-06T08:54:12Z</time>
      </trkpt>
      <trkpt lat="46.06064" lon="4.53412">
        <ele>714.6</ele>
        <time>2025-09-06T08:54:13Z</time>
      </trkpt>
      <trkpt lat="46.06063" lon="4.53413">
        <ele>714.6</ele>
        <time>2025-09-06T08:54:14Z</time>
      </trkpt>
      <trkpt lat="46.06063" lon="4.53415">
        <ele>714.6</ele>
        <time>2025-09-06T08:54:15Z</time>
      </trkpt>
      <trkpt lat="46.06063" lon="4.53417">
        <ele>714.6</ele>
        <time>2025-09-06T08:54:16Z</time>
      </trkpt>
      <trkpt lat="46.06062" lon="4.53419">
        <ele>715</ele>
        <time>2025-09-06T08:54:17Z</time>
      </trkpt>
      <trkpt lat="46.06061" lon="4.53421">
        <ele>715</ele>
        <time>2025-09-06T08:54:18Z</time>
      </trkpt>
      <trkpt lat="46.06061" lon="4.53423">
        <ele>715</ele>
        <time>2025-09-06T08:54:19Z</time>
      </trkpt>
      <trkpt lat="46.0606" lon="4.53424">
        <ele>715.2</ele>
        <time>2025-09-06T08:54:20Z</time>
      </trkpt>
      <trkpt lat="46.0606" lon="4.53426">
        <ele>715.2</ele>
        <time>2025-09-06T08:54:21Z</time>
      </trkpt>
      <trkpt lat="46.06059" lon="4.53427">
        <ele>715.4</ele>
        <time>2025-09-06T08:54:22Z</time>
      </trkpt>
      <trkpt lat="46.06058" lon="4.53428">
        <ele>715.4</ele>
        <time>2025-09-06T08:54:23Z</time>
      </trkpt>
      <trkpt lat="46.06058" lon="4.5343">
        <ele>715.4</ele>
        <time>2025-09-06T08:54:24Z</time>
      </trkpt>
      <trkpt lat="46.06057" lon="4.53432">
        <ele>715.4</ele>
        <time>2025-09-06T08:54:25Z</time>
      </trkpt>
      <trkpt lat="46.06056" lon="4.53433">
        <ele>715.6</ele>
        <time>2025-09-06T08:54:26Z</time>
      </trkpt>
      <trkpt lat="46.06056" lon="4.53434">
        <ele>715.6</ele>
        <time>2025-09-06T08:54:27Z</time>
      </trkpt>
      <trkpt lat="46.06056" lon="4.53436">
        <ele>715.8</ele>
        <time>2025-09-06T08:54:28Z</time>
      </trkpt>
      <trkpt lat="46.06055" lon="4.53437">
        <ele>715.8</ele>
        <time>2025-09-06T08:54:29Z</time>
      </trkpt>
      <trkpt lat="46.06055" lon="4.5344">
        <ele>715.8</ele>
        <time>2025-09-06T08:54:30Z</time>
      </trkpt>
      <trkpt lat="46.06054" lon="4.53442">
        <ele>716</ele>
        <time>2025-09-06T08:54:31Z</time>
      </trkpt>
      <trkpt lat="46.06053" lon="4.53444">
        <ele>716</ele>
        <time>2025-09-06T08:54:32Z</time>
      </trkpt>
      <trkpt lat="46.06052" lon="4.53446">
        <ele>716</ele>
        <time>2025-09-06T08:54:33Z</time>
      </trkpt>
      <trkpt lat="46.06052" lon="4.53448">
        <ele>716.2</ele>
        <time>2025-09-06T08:54:34Z</time>
      </trkpt>
      <trkpt lat="46.06051" lon="4.53449">
        <ele>716.2</ele>
        <time>2025-09-06T08:54:35Z</time>
      </trkpt>
      <trkpt lat="46.0605" lon="4.53451">
        <ele>716.2</ele>
        <time>2025-09-06T08:54:36Z</time>
      </trkpt>
      <trkpt lat="46.0605" lon="4.53453">
        <ele>716.2</ele>
        <time>2025-09-06T08:54:37Z</time>
      </trkpt>
      <trkpt lat="46.06049" lon="4.53456">
        <ele>716.6</ele>
        <time>2025-09-06T08:54:38Z</time>
      </trkpt>
      <trkpt lat="46.06048" lon="4.53457">
        <ele>716.6</ele>
        <time>2025-09-06T08:54:39Z</time>
      </trkpt>
      <trkpt lat="46.06048" lon="4.53459">
        <ele>716.6</ele>
        <time>2025-09-06T08:54:40Z</time>
      </trkpt>
      <trkpt lat="46.06047" lon="4.53461">
        <ele>716.6</ele>
        <time>2025-09-06T08:54:41Z</time>
      </trkpt>
      <trkpt lat="46.06046" lon="4.53463">
        <ele>717</ele>
        <time>2025-09-06T08:54:42Z</time>
      </trkpt>
      <trkpt lat="46.06046" lon="4.53465">
        <ele>717</ele>
        <time>2025-09-06T08:54:43Z</time>
      </trkpt>
      <trkpt lat="46.06045" lon="4.53467">
        <ele>717</ele>
        <time>2025-09-06T08:54:44Z</time>
      </trkpt>
      <trkpt lat="46.06044" lon="4.53469">
        <ele>717</ele>
        <time>2025-09-06T08:54:45Z</time>
      </trkpt>
      <trkpt lat="46.06044" lon="4.53471">
        <ele>717</ele>
        <time>2025-09-06T08:54:46Z</time>
      </trkpt>
      <trkpt lat="46.06043" lon="4.53473">
        <ele>717</ele>
        <time>2025-09-06T08:54:47Z</time>
      </trkpt>
      <trkpt lat="46.06043" lon="4.53475">
        <ele>717.2</ele>
        <time>2025-09-06T08:54:48Z</time>
      </trkpt>
      <trkpt lat="46.06042" lon="4.53477">
        <ele>717.6</ele>
        <time>2025-09-06T08:54:49Z</time>
      </trkpt>
      <trkpt lat="46.06041" lon="4.53478">
        <ele>717.6</ele>
        <time>2025-09-06T08:54:50Z</time>
      </trkpt>
      <trkpt lat="46.06041" lon="4.5348">
        <ele>717.6</ele>
        <time>2025-09-06T08:54:51Z</time>
      </trkpt>
      <trkpt lat="46.0604" lon="4.53482">
        <ele>717.8</ele>
        <time>2025-09-06T08:54:52Z</time>
      </trkpt>
      <trkpt lat="46.0604" lon="4.53484">
        <ele>717.8</ele>
        <time>2025-09-06T08:54:53Z</time>
      </trkpt>
      <trkpt lat="46.06039" lon="4.53485">
        <ele>717.8</ele>
        <time>2025-09-06T08:54:54Z</time>
      </trkpt>
      <trkpt lat="46.06039" lon="4.53487">
        <ele>718</ele>
        <time>2025-09-06T08:54:55Z</time>
      </trkpt>
      <trkpt lat="46.06039" lon="4.5349">
        <ele>718</ele>
        <time>2025-09-06T08:54:56Z</time>
      </trkpt>
      <trkpt lat="46.06038" lon="4.53492">
        <ele>718</ele>
        <time>2025-09-06T08:54:57Z</time>
      </trkpt>
      <trkpt lat="46.06038" lon="4.53494">
        <ele>718.2</ele>
        <time>2025-09-06T08:54:58Z</time>
      </trkpt>
      <trkpt lat="46.06038" lon="4.53496">
        <ele>718.2</ele>
        <time>2025-09-06T08:54:59Z</time>
      </trkpt>
      <trkpt lat="46.06037" lon="4.53498">
        <ele>718.6</ele>
        <time>2025-09-06T08:55:00Z</time>
      </trkpt>
      <trkpt lat="46.06037" lon="4.535">
        <ele>718.6</ele>
        <time>2025-09-06T08:55:01Z</time>
      </trkpt>
      <trkpt lat="46.06036" lon="4.53502">
        <ele>718.6</ele>
        <time>2025-09-06T08:55:02Z</time>
      </trkpt>
      <trkpt lat="46.06036" lon="4.53504">
        <ele>718.8</ele>
        <time>2025-09-06T08:55:03Z</time>
      </trkpt>
      <trkpt lat="46.06035" lon="4.53506">
        <ele>718.8</ele>
        <time>2025-09-06T08:55:04Z</time>
      </trkpt>
      <trkpt lat="46.06035" lon="4.53508">
        <ele>718.8</ele>
        <time>2025-09-06T08:55:05Z</time>
      </trkpt>
      <trkpt lat="46.06034" lon="4.5351">
        <ele>718.8</ele>
        <time>2025-09-06T08:55:06Z</time>
      </trkpt>
      <trkpt lat="46.06034" lon="4.53512">
        <ele>718.8</ele>
        <time>2025-09-06T08:55:07Z</time>
      </trkpt>
      <trkpt lat="46.06033" lon="4.53514">
        <ele>719</ele>
        <time>2025-09-06T08:55:08Z</time>
      </trkpt>
      <trkpt lat="46.06033" lon="4.53516">
        <ele>719</ele>
        <time>2025-09-06T08:55:09Z</time>
      </trkpt>
      <trkpt lat="46.06033" lon="4.53518">
        <ele>719</ele>
        <time>2025-09-06T08:55:10Z</time>
      </trkpt>
      <trkpt lat="46.06033" lon="4.5352">
        <ele>719.4</ele>
        <time>2025-09-06T08:55:11Z</time>
      </trkpt>
      <trkpt lat="46.06032" lon="4.53522">
        <ele>719.4</ele>
        <time>2025-09-06T08:55:12Z</time>
      </trkpt>
      <trkpt lat="46.06032" lon="4.53524">
        <ele>719.4</ele>
        <time>2025-09-06T08:55:13Z</time>
      </trkpt>
      <trkpt lat="46.06031" lon="4.53526">
        <ele>719.6</ele>
        <time>2025-09-06T08:55:14Z</time>
      </trkpt>
      <trkpt lat="46.06031" lon="4.53528">
        <ele>719.6</ele>
        <time>2025-09-06T08:55:15Z</time>
      </trkpt>
      <trkpt lat="46.0603" lon="4.5353">
        <ele>719.6</ele>
        <time>2025-09-06T08:55:16Z</time>
      </trkpt>
      <trkpt lat="46.0603" lon="4.53532">
        <ele>720</ele>
        <time>2025-09-06T08:55:17Z</time>
      </trkpt>
      <trkpt lat="46.06029" lon="4.53534">
        <ele>720</ele>
        <time>2025-09-06T08:55:18Z</time>
      </trkpt>
      <trkpt lat="46.06029" lon="4.53537">
        <ele>720.2</ele>
        <time>2025-09-06T08:55:19Z</time>
      </trkpt>
      <trkpt lat="46.06028" lon="4.53538">
        <ele>720.2</ele>
        <time>2025-09-06T08:55:20Z</time>
      </trkpt>
      <trkpt lat="46.06028" lon="4.53538">
        <ele>720.4</ele>
        <time>2025-09-06T08:55:21Z</time>
      </trkpt>
      <trkpt lat="46.06028" lon="4.53541">
        <ele>720.6</ele>
        <time>2025-09-06T08:55:22Z</time>
      </trkpt>
      <trkpt lat="46.06028" lon="4.53543">
        <ele>720.6</ele>
        <time>2025-09-06T08:55:23Z</time>
      </trkpt>
      <trkpt lat="46.06027" lon="4.53545">
        <ele>721</ele>
        <time>2025-09-06T08:55:24Z</time>
      </trkpt>
      <trkpt lat="46.06027" lon="4.53547">
        <ele>721</ele>
        <time>2025-09-06T08:55:25Z</time>
      </trkpt>
      <trkpt lat="46.06027" lon="4.5355">
        <ele>721.2</ele>
        <time>2025-09-06T08:55:26Z</time>
      </trkpt>
      <trkpt lat="46.06027" lon="4.53552">
        <ele>721.2</ele>
        <time>2025-09-06T08:55:27Z</time>
      </trkpt>
      <trkpt lat="46.06026" lon="4.53554">
        <ele>721.4</ele>
        <time>2025-09-06T08:55:28Z</time>
      </trkpt>
      <trkpt lat="46.06026" lon="4.53556">
        <ele>721.4</ele>
        <time>2025-09-06T08:55:29Z</time>
      </trkpt>
      <trkpt lat="46.06026" lon="4.53558">
        <ele>721.4</ele>
        <time>2025-09-06T08:55:30Z</time>
      </trkpt>
      <trkpt lat="46.06025" lon="4.53559">
        <ele>721.6</ele>
        <time>2025-09-06T08:55:31Z</time>
      </trkpt>
      <trkpt lat="46.06024" lon="4.53561">
        <ele>721.6</ele>
        <time>2025-09-06T08:55:32Z</time>
      </trkpt>
      <trkpt lat="46.06024" lon="4.53563">
        <ele>721.6</ele>
        <time>2025-09-06T08:55:33Z</time>
      </trkpt>
      <trkpt lat="46.06023" lon="4.53565">
        <ele>721.8</ele>
        <time>2025-09-06T08:55:34Z</time>
      </trkpt>
      <trkpt lat="46.06022" lon="4.53566">
        <ele>721.8</ele>
        <time>2025-09-06T08:55:35Z</time>
      </trkpt>
      <trkpt lat="46.06022" lon="4.53568">
        <ele>721.8</ele>
        <time>2025-09-06T08:55:36Z</time>
      </trkpt>
      <trkpt lat="46.06021" lon="4.5357">
        <ele>721.8</ele>
        <time>2025-09-06T08:55:37Z</time>
      </trkpt>
      <trkpt lat="46.06021" lon="4.53572">
        <ele>721.8</ele>
        <time>2025-09-06T08:55:38Z</time>
      </trkpt>
      <trkpt lat="46.06021" lon="4.53574">
        <ele>722.2</ele>
        <time>2025-09-06T08:55:39Z</time>
      </trkpt>
      <trkpt lat="46.06021" lon="4.53577">
        <ele>722.2</ele>
        <time>2025-09-06T08:55:40Z</time>
      </trkpt>
      <trkpt lat="46.0602" lon="4.53579">
        <ele>722.2</ele>
        <time>2025-09-06T08:55:41Z</time>
      </trkpt>
      <trkpt lat="46.0602" lon="4.53581">
        <ele>722.2</ele>
        <time>2025-09-06T08:55:42Z</time>
      </trkpt>
      <trkpt lat="46.0602" lon="4.53584">
        <ele>722.2</ele>
        <time>2025-09-06T08:55:43Z</time>
      </trkpt>
      <trkpt lat="46.06019" lon="4.53586">
        <ele>722.4</ele>
        <time>2025-09-06T08:55:44Z</time>
      </trkpt>
      <trkpt lat="46.06018" lon="4.5359">
        <ele>722.4</ele>
        <time>2025-09-06T08:55:45Z</time>
      </trkpt>
      <trkpt lat="46.06018" lon="4.53592">
        <ele>722.8</ele>
        <time>2025-09-06T08:55:46Z</time>
      </trkpt>
      <trkpt lat="46.06017" lon="4.53594">
        <ele>723</ele>
        <time>2025-09-06T08:55:47Z</time>
      </trkpt>
      <trkpt lat="46.06016" lon="4.53596">
        <ele>723</ele>
        <time>2025-09-06T08:55:48Z</time>
      </trkpt>
      <trkpt lat="46.06016" lon="4.53598">
        <ele>723</ele>
        <time>2025-09-06T08:55:49Z</time>
      </trkpt>
      <trkpt lat="46.06015" lon="4.536">
        <ele>723</ele>
        <time>2025-09-06T08:55:50Z</time>
      </trkpt>
      <trkpt lat="46.06014" lon="4.53602">
        <ele>723</ele>
        <time>2025-09-06T08:55:51Z</time>
      </trkpt>
      <trkpt lat="46.06013" lon="4.53604">
        <ele>723</ele>
        <time>2025-09-06T08:55:52Z</time>
      </trkpt>
      <trkpt lat="46.06013" lon="4.53606">
        <ele>723</ele>
        <time>2025-09-06T08:55:53Z</time>
      </trkpt>
      <trkpt lat="46.06012" lon="4.53608">
        <ele>723.4</ele>
        <time>2025-09-06T08:55:54Z</time>
      </trkpt>
      <trkpt lat="46.06011" lon="4.5361">
        <ele>723.4</ele>
        <time>2025-09-06T08:55:55Z</time>
      </trkpt>
      <trkpt lat="46.0601" lon="4.53612">
        <ele>723.6</ele>
        <time>2025-09-06T08:55:56Z</time>
      </trkpt>
      <trkpt lat="46.06009" lon="4.53613">
        <ele>723.6</ele>
        <time>2025-09-06T08:55:57Z</time>
      </trkpt>
      <trkpt lat="46.06008" lon="4.53615">
        <ele>723.6</ele>
        <time>2025-09-06T08:55:58Z</time>
      </trkpt>
      <trkpt lat="46.06008" lon="4.53616">
        <ele>724</ele>
        <time>2025-09-06T08:55:59Z</time>
      </trkpt>
      <trkpt lat="46.06006" lon="4.53618">
        <ele>724</ele>
        <time>2025-09-06T08:56:00Z</time>
      </trkpt>
      <trkpt lat="46.06005" lon="4.53619">
        <ele>724.2</ele>
        <time>2025-09-06T08:56:01Z</time>
      </trkpt>
      <trkpt lat="46.06004" lon="4.53621">
        <ele>724.2</ele>
        <time>2025-09-06T08:56:02Z</time>
      </trkpt>
      <trkpt lat="46.06003" lon="4.53623">
        <ele>724.6</ele>
        <time>2025-09-06T08:56:03Z</time>
      </trkpt>
      <trkpt lat="46.06002" lon="4.53624">
        <ele>724.6</ele>
        <time>2025-09-06T08:56:04Z</time>
      </trkpt>
      <trkpt lat="46.06001" lon="4.53626">
        <ele>724.6</ele>
        <time>2025-09-06T08:56:05Z</time>
      </trkpt>
      <trkpt lat="46.06" lon="4.53627">
        <ele>724.6</ele>
        <time>2025-09-06T08:56:06Z</time>
      </trkpt>
      <trkpt lat="46.05999" lon="4.53629">
        <ele>724.6</ele>
        <time>2025-09-06T08:56:07Z</time>
      </trkpt>
      <trkpt lat="46.05998" lon="4.5363">
        <ele>724.6</ele>
        <time>2025-09-06T08:56:08Z</time>
      </trkpt>
      <trkpt lat="46.05997" lon="4.53631">
        <ele>724.8</ele>
        <time>2025-09-06T08:56:09Z</time>
      </trkpt>
      <trkpt lat="46.05996" lon="4.53633">
        <ele>724.8</ele>
        <time>2025-09-06T08:56:10Z</time>
      </trkpt>
      <trkpt lat="46.05995" lon="4.53635">
        <ele>724.8</ele>
        <time>2025-09-06T08:56:11Z</time>
      </trkpt>
      <trkpt lat="46.05994" lon="4.53637">
        <ele>724.8</ele>
        <time>2025-09-06T08:56:12Z</time>
      </trkpt>
      <trkpt lat="46.05993" lon="4.53639">
        <ele>725</ele>
        <time>2025-09-06T08:56:13Z</time>
      </trkpt>
      <trkpt lat="46.05991" lon="4.5364">
        <ele>725</ele>
        <time>2025-09-06T08:56:14Z</time>
      </trkpt>
      <trkpt lat="46.0599" lon="4.53641">
        <ele>725.4</ele>
        <time>2025-09-06T08:56:15Z</time>
      </trkpt>
      <trkpt lat="46.05988" lon="4.53642">
        <ele>725.4</ele>
        <time>2025-09-06T08:56:16Z</time>
      </trkpt>
      <trkpt lat="46.05987" lon="4.53643">
        <ele>725.6</ele>
        <time>2025-09-06T08:56:17Z</time>
      </trkpt>
      <trkpt lat="46.05986" lon="4.53644">
        <ele>725.6</ele>
        <time>2025-09-06T08:56:18Z</time>
      </trkpt>
      <trkpt lat="46.05985" lon="4.53645">
        <ele>725.6</ele>
        <time>2025-09-06T08:56:19Z</time>
      </trkpt>
      <trkpt lat="46.05983" lon="4.53646">
        <ele>725.6</ele>
        <time>2025-09-06T08:56:20Z</time>
      </trkpt>
      <trkpt lat="46.05982" lon="4.53647">
        <ele>725.6</ele>
        <time>2025-09-06T08:56:21Z</time>
      </trkpt>
      <trkpt lat="46.05981" lon="4.53649">
        <ele>726.2</ele>
        <time>2025-09-06T08:56:22Z</time>
      </trkpt>
      <trkpt lat="46.0598" lon="4.53649">
        <ele>726.4</ele>
        <time>2025-09-06T08:56:23Z</time>
      </trkpt>
      <trkpt lat="46.05978" lon="4.5365">
        <ele>726.6</ele>
        <time>2025-09-06T08:56:24Z</time>
      </trkpt>
      <trkpt lat="46.05977" lon="4.53651">
        <ele>726.6</ele>
        <time>2025-09-06T08:56:25Z</time>
      </trkpt>
      <trkpt lat="46.05976" lon="4.53653">
        <ele>727</ele>
        <time>2025-09-06T08:56:26Z</time>
      </trkpt>
      <trkpt lat="46.05975" lon="4.53653">
        <ele>727</ele>
        <time>2025-09-06T08:56:27Z</time>
      </trkpt>
      <trkpt lat="46.05973" lon="4.53654">
        <ele>727.2</ele>
        <time>2025-09-06T08:56:28Z</time>
      </trkpt>
      <trkpt lat="46.05972" lon="4.53655">
        <ele>727.2</ele>
        <time>2025-09-06T08:56:29Z</time>
      </trkpt>
      <trkpt lat="46.05971" lon="4.53656">
        <ele>727.2</ele>
        <time>2025-09-06T08:56:30Z</time>
      </trkpt>
      <trkpt lat="46.05969" lon="4.53657">
        <ele>727.2</ele>
        <time>2025-09-06T08:56:31Z</time>
      </trkpt>
      <trkpt lat="46.05968" lon="4.53658">
        <ele>727.6</ele>
        <time>2025-09-06T08:56:32Z</time>
      </trkpt>
      <trkpt lat="46.05967" lon="4.53659">
        <ele>727.6</ele>
        <time>2025-09-06T08:56:33Z</time>
      </trkpt>
      <trkpt lat="46.05966" lon="4.5366">
        <ele>727.6</ele>
        <time>2025-09-06T08:56:34Z</time>
      </trkpt>
      <trkpt lat="46.05965" lon="4.53661">
        <ele>727.6</ele>
        <time>2025-09-06T08:56:35Z</time>
      </trkpt>
      <trkpt lat="46.05964" lon="4.53663">
        <ele>727.6</ele>
        <time>2025-09-06T08:56:36Z</time>
      </trkpt>
      <trkpt lat="46.05963" lon="4.53664">
        <ele>727.8</ele>
        <time>2025-09-06T08:56:37Z</time>
      </trkpt>
      <trkpt lat="46.05962" lon="4.53665">
        <ele>728.2</ele>
        <time>2025-09-06T08:56:38Z</time>
      </trkpt>
      <trkpt lat="46.05961" lon="4.53667">
        <ele>728.2</ele>
        <time>2025-09-06T08:56:39Z</time>
      </trkpt>
      <trkpt lat="46.0596" lon="4.53669">
        <ele>728.4</ele>
        <time>2025-09-06T08:56:40Z</time>
      </trkpt>
      <trkpt lat="46.05959" lon="4.5367">
        <ele>728.4</ele>
        <time>2025-09-06T08:56:41Z</time>
      </trkpt>
      <trkpt lat="46.05958" lon="4.53671">
        <ele>728.8</ele>
        <time>2025-09-06T08:56:42Z</time>
      </trkpt>
      <trkpt lat="46.05956" lon="4.53672">
        <ele>728.8</ele>
        <time>2025-09-06T08:56:43Z</time>
      </trkpt>
      <trkpt lat="46.05955" lon="4.53672">
        <ele>729</ele>
        <time>2025-09-06T08:56:44Z</time>
      </trkpt>
      <trkpt lat="46.05954" lon="4.53673">
        <ele>729</ele>
        <time>2025-09-06T08:56:45Z</time>
      </trkpt>
      <trkpt lat="46.05952" lon="4.53674">
        <ele>729.2</ele>
        <time>2025-09-06T08:56:46Z</time>
      </trkpt>
      <trkpt lat="46.05951" lon="4.53676">
        <ele>729.2</ele>
        <time>2025-09-06T08:56:47Z</time>
      </trkpt>
      <trkpt lat="46.0595" lon="4.53677">
        <ele>729.2</ele>
        <time>2025-09-06T08:56:48Z</time>
      </trkpt>
      <trkpt lat="46.05949" lon="4.53678">
        <ele>729.6</ele>
        <time>2025-09-06T08:56:49Z</time>
      </trkpt>
      <trkpt lat="46.05947" lon="4.5368">
        <ele>729.6</ele>
        <time>2025-09-06T08:56:50Z</time>
      </trkpt>
      <trkpt lat="46.05946" lon="4.53681">
        <ele>730</ele>
        <time>2025-09-06T08:56:51Z</time>
      </trkpt>
      <trkpt lat="46.05945" lon="4.53682">
        <ele>730</ele>
        <time>2025-09-06T08:56:52Z</time>
      </trkpt>
      <trkpt lat="46.05944" lon="4.53683">
        <ele>730.2</ele>
        <time>2025-09-06T08:56:53Z</time>
      </trkpt>
      <trkpt lat="46.05942" lon="4.53684">
        <ele>730.4</ele>
        <time>2025-09-06T08:56:54Z</time>
      </trkpt>
      <trkpt lat="46.0594" lon="4.53685">
        <ele>730.4</ele>
        <time>2025-09-06T08:56:55Z</time>
      </trkpt>
      <trkpt lat="46.05939" lon="4.53687">
        <ele>730.8</ele>
        <time>2025-09-06T08:56:56Z</time>
      </trkpt>
      <trkpt lat="46.05937" lon="4.53688">
        <ele>730.8</ele>
        <time>2025-09-06T08:56:57Z</time>
      </trkpt>
      <trkpt lat="46.05936" lon="4.53689">
        <ele>730.8</ele>
        <time>2025-09-06T08:56:58Z</time>
      </trkpt>
      <trkpt lat="46.05934" lon="4.5369">
        <ele>730.8</ele>
        <time>2025-09-06T08:56:59Z</time>
      </trkpt>
      <trkpt lat="46.05933" lon="4.53691">
        <ele>731</ele>
        <time>2025-09-06T08:57:00Z</time>
      </trkpt>
      <trkpt lat="46.05932" lon="4.53692">
        <ele>731.2</ele>
        <time>2025-09-06T08:57:01Z</time>
      </trkpt>
      <trkpt lat="46.0593" lon="4.53693">
        <ele>731.2</ele>
        <time>2025-09-06T08:57:02Z</time>
      </trkpt>
      <trkpt lat="46.05929" lon="4.53694">
        <ele>731.2</ele>
        <time>2025-09-06T08:57:03Z</time>
      </trkpt>
      <trkpt lat="46.05927" lon="4.53694">
        <ele>731.6</ele>
        <time>2025-09-06T08:57:04Z</time>
      </trkpt>
      <trkpt lat="46.05926" lon="4.53696">
        <ele>731.6</ele>
        <time>2025-09-06T08:57:05Z</time>
      </trkpt>
      <trkpt lat="46.05925" lon="4.53697">
        <ele>731.6</ele>
        <time>2025-09-06T08:57:06Z</time>
      </trkpt>
      <trkpt lat="46.05924" lon="4.53699">
        <ele>731.6</ele>
        <time>2025-09-06T08:57:07Z</time>
      </trkpt>
      <trkpt lat="46.05923" lon="4.537">
        <ele>731.8</ele>
        <time>2025-09-06T08:57:08Z</time>
      </trkpt>
      <trkpt lat="46.05922" lon="4.53702">
        <ele>731.8</ele>
        <time>2025-09-06T08:57:09Z</time>
      </trkpt>
      <trkpt lat="46.05921" lon="4.53705">
        <ele>731.8</ele>
        <time>2025-09-06T08:57:10Z</time>
      </trkpt>
      <trkpt lat="46.0592" lon="4.53706">
        <ele>732.2</ele>
        <time>2025-09-06T08:57:11Z</time>
      </trkpt>
      <trkpt lat="46.05919" lon="4.53708">
        <ele>732.2</ele>
        <time>2025-09-06T08:57:12Z</time>
      </trkpt>
      <trkpt lat="46.05919" lon="4.53709">
        <ele>732.4</ele>
        <time>2025-09-06T08:57:13Z</time>
      </trkpt>
      <trkpt lat="46.05918" lon="4.53711">
        <ele>732.4</ele>
        <time>2025-09-06T08:57:14Z</time>
      </trkpt>
      <trkpt lat="46.05917" lon="4.53714">
        <ele>732.8</ele>
        <time>2025-09-06T08:57:15Z</time>
      </trkpt>
      <trkpt lat="46.05917" lon="4.53716">
        <ele>733</ele>
        <time>2025-09-06T08:57:16Z</time>
      </trkpt>
      <trkpt lat="46.05917" lon="4.53718">
        <ele>733</ele>
        <time>2025-09-06T08:57:17Z</time>
      </trkpt>
      <trkpt lat="46.05917" lon="4.53721">
        <ele>733</ele>
        <time>2025-09-06T08:57:18Z</time>
      </trkpt>
      <trkpt lat="46.05917" lon="4.53723">
        <ele>733.4</ele>
        <time>2025-09-06T08:57:19Z</time>
      </trkpt>
      <trkpt lat="46.05918" lon="4.53726">
        <ele>733.4</ele>
        <time>2025-09-06T08:57:20Z</time>
      </trkpt>
      <trkpt lat="46.05918" lon="4.53728">
        <ele>733.4</ele>
        <time>2025-09-06T08:57:21Z</time>
      </trkpt>
      <trkpt lat="46.05918" lon="4.5373">
        <ele>733.4</ele>
        <time>2025-09-06T08:57:22Z</time>
      </trkpt>
      <trkpt lat="46.05917" lon="4.53732">
        <ele>733.4</ele>
        <time>2025-09-06T08:57:23Z</time>
      </trkpt>
      <trkpt lat="46.05917" lon="4.53735">
        <ele>733.6</ele>
        <time>2025-09-06T08:57:24Z</time>
      </trkpt>
      <trkpt lat="46.05918" lon="4.53737">
        <ele>733.6</ele>
        <time>2025-09-06T08:57:25Z</time>
      </trkpt>
      <trkpt lat="46.05918" lon="4.5374">
        <ele>733.6</ele>
        <time>2025-09-06T08:57:26Z</time>
      </trkpt>
      <trkpt lat="46.05917" lon="4.53743">
        <ele>733.8</ele>
        <time>2025-09-06T08:57:27Z</time>
      </trkpt>
      <trkpt lat="46.05917" lon="4.53745">
        <ele>733.8</ele>
        <time>2025-09-06T08:57:28Z</time>
      </trkpt>
      <trkpt lat="46.05917" lon="4.53747">
        <ele>733.8</ele>
        <time>2025-09-06T08:57:29Z</time>
      </trkpt>
      <trkpt lat="46.05917" lon="4.5375">
        <ele>734.2</ele>
        <time>2025-09-06T08:57:30Z</time>
      </trkpt>
      <trkpt lat="46.05917" lon="4.53753">
        <ele>734.2</ele>
        <time>2025-09-06T08:57:31Z</time>
      </trkpt>
      <trkpt lat="46.05917" lon="4.53756">
        <ele>734.4</ele>
        <time>2025-09-06T08:57:32Z</time>
      </trkpt>
      <trkpt lat="46.05917" lon="4.53758">
        <ele>734.4</ele>
        <time>2025-09-06T08:57:33Z</time>
      </trkpt>
      <trkpt lat="46.05918" lon="4.5376">
        <ele>734.8</ele>
        <time>2025-09-06T08:57:34Z</time>
      </trkpt>
      <trkpt lat="46.05918" lon="4.53762">
        <ele>734.8</ele>
        <time>2025-09-06T08:57:35Z</time>
      </trkpt>
      <trkpt lat="46.05918" lon="4.53764">
        <ele>734.8</ele>
        <time>2025-09-06T08:57:36Z</time>
      </trkpt>
      <trkpt lat="46.05919" lon="4.53766">
        <ele>734.8</ele>
        <time>2025-09-06T08:57:37Z</time>
      </trkpt>
      <trkpt lat="46.05919" lon="4.53767">
        <ele>734.8</ele>
        <time>2025-09-06T08:57:38Z</time>
      </trkpt>
      <trkpt lat="46.05919" lon="4.53767">
        <ele>735</ele>
        <time>2025-09-06T08:57:39Z</time>
      </trkpt>
      <trkpt lat="46.05919" lon="4.53766">
        <ele>735</ele>
        <time>2025-09-06T08:57:40Z</time>
      </trkpt>
      <trkpt lat="46.05919" lon="4.53766">
        <ele>735</ele>
        <time>2025-09-06T08:57:41Z</time>
      </trkpt>
      <trkpt lat="46.05919" lon="4.53766">
        <ele>734.2</ele>
        <time>2025-09-06T08:57:53Z</time>
      </trkpt>
      <trkpt lat="46.05919" lon="4.53766">
        <ele>734.4</ele>
        <time>2025-09-06T08:57:54Z</time>
      </trkpt>
      <trkpt lat="46.05919" lon="4.53766">
        <ele>734.6</ele>
        <time>2025-09-06T08:57:55Z</time>
      </trkpt>
      <trkpt lat="46.05919" lon="4.53765">
        <ele>734.6</ele>
        <time>2025-09-06T08:57:56Z</time>
      </trkpt>
      <trkpt lat="46.05919" lon="4.53765">
        <ele>735</ele>
        <time>2025-09-06T08:57:57Z</time>
      </trkpt>
      <trkpt lat="46.05919" lon="4.53765">
        <ele>735</ele>
        <time>2025-09-06T08:57:58Z</time>
      </trkpt>
      <trkpt lat="46.05913" lon="4.53768">
        <ele>736</ele>
        <time>2025-09-06T09:05:16Z</time>
      </trkpt>
      <trkpt lat="46.05915" lon="4.53767">
        <ele>735.8</ele>
        <time>2025-09-06T09:05:17Z</time>
      </trkpt>
      <trkpt lat="46.05915" lon="4.53767">
        <ele>735.8</ele>
        <time>2025-09-06T09:05:18Z</time>
      </trkpt>
      <trkpt lat="46.05915" lon="4.53767">
        <ele>735.2</ele>
        <time>2025-09-06T09:05:19Z</time>
      </trkpt>
      <trkpt lat="46.0592" lon="4.53763">
        <ele>735.2</ele>
        <time>2025-09-06T09:05:20Z</time>
      </trkpt>
      <trkpt lat="46.05921" lon="4.53762">
        <ele>735.2</ele>
        <time>2025-09-06T09:05:21Z</time>
      </trkpt>
      <trkpt lat="46.05922" lon="4.53762">
        <ele>735.2</ele>
        <time>2025-09-06T09:05:22Z</time>
      </trkpt>
      <trkpt lat="46.05923" lon="4.53762">
        <ele>735.2</ele>
        <time>2025-09-06T09:05:23Z</time>
      </trkpt>
      <trkpt lat="46.05923" lon="4.53761">
        <ele>735.2</ele>
        <time>2025-09-06T09:05:24Z</time>
      </trkpt>
      <trkpt lat="46.05923" lon="4.53762">
        <ele>735.2</ele>
        <time>2025-09-06T09:05:25Z</time>
      </trkpt>
      <trkpt lat="46.05924" lon="4.53761">
        <ele>735.2</ele>
        <time>2025-09-06T09:05:26Z</time>
      </trkpt>
      <trkpt lat="46.05925" lon="4.53761">
        <ele>735.2</ele>
        <time>2025-09-06T09:05:27Z</time>
      </trkpt>
      <trkpt lat="46.05925" lon="4.53761">
        <ele>735.2</ele>
        <time>2025-09-06T09:05:28Z</time>
      </trkpt>
      <trkpt lat="46.05925" lon="4.53761">
        <ele>735.2</ele>
        <time>2025-09-06T09:05:29Z</time>
      </trkpt>
      <trkpt lat="46.05929" lon="4.53759">
        <ele>735.8</ele>
        <time>2025-09-06T09:05:44Z</time>
      </trkpt>
      <trkpt lat="46.05931" lon="4.5376">
        <ele>735.8</ele>
        <time>2025-09-06T09:05:45Z</time>
      </trkpt>
      <trkpt lat="46.05933" lon="4.53759">
        <ele>735.8</ele>
        <time>2025-09-06T09:05:46Z</time>
      </trkpt>
      <trkpt lat="46.05935" lon="4.53759">
        <ele>735.8</ele>
        <time>2025-09-06T09:05:47Z</time>
      </trkpt>
      <trkpt lat="46.05938" lon="4.5376">
        <ele>735.8</ele>
        <time>2025-09-06T09:05:48Z</time>
      </trkpt>
      <trkpt lat="46.0594" lon="4.53761">
        <ele>736.2</ele>
        <time>2025-09-06T09:05:49Z</time>
      </trkpt>
      <trkpt lat="46.05942" lon="4.53761">
        <ele>736.2</ele>
        <time>2025-09-06T09:05:50Z</time>
      </trkpt>
      <trkpt lat="46.05944" lon="4.53762">
        <ele>736.2</ele>
        <time>2025-09-06T09:05:51Z</time>
      </trkpt>
      <trkpt lat="46.05946" lon="4.53762">
        <ele>736.2</ele>
        <time>2025-09-06T09:05:52Z</time>
      </trkpt>
      <trkpt lat="46.05948" lon="4.53763">
        <ele>736.2</ele>
        <time>2025-09-06T09:05:53Z</time>
      </trkpt>
      <trkpt lat="46.05951" lon="4.53764">
        <ele>736.2</ele>
        <time>2025-09-06T09:05:54Z</time>
      </trkpt>
      <trkpt lat="46.05953" lon="4.53765">
        <ele>736.2</ele>
        <time>2025-09-06T09:05:55Z</time>
      </trkpt>
      <trkpt lat="46.05955" lon="4.53766">
        <ele>736.6</ele>
        <time>2025-09-06T09:05:56Z</time>
      </trkpt>
      <trkpt lat="46.05957" lon="4.53767">
        <ele>736.6</ele>
        <time>2025-09-06T09:05:57Z</time>
      </trkpt>
      <trkpt lat="46.05958" lon="4.53769">
        <ele>736.4</ele>
        <time>2025-09-06T09:05:58Z</time>
      </trkpt>
      <trkpt lat="46.05959" lon="4.5377">
        <ele>737</ele>
        <time>2025-09-06T09:05:59Z</time>
      </trkpt>
      <trkpt lat="46.05959" lon="4.5377">
        <ele>737.4</ele>
        <time>2025-09-06T09:06:00Z</time>
      </trkpt>
      <trkpt lat="46.05959" lon="4.5377">
        <ele>737.8</ele>
        <time>2025-09-06T09:06:01Z</time>
      </trkpt>
      <trkpt lat="46.05963" lon="4.53772">
        <ele>738</ele>
        <time>2025-09-06T09:06:02Z</time>
      </trkpt>
      <trkpt lat="46.05964" lon="4.53772">
        <ele>738</ele>
        <time>2025-09-06T09:06:03Z</time>
      </trkpt>
      <trkpt lat="46.05966" lon="4.53773">
        <ele>738</ele>
        <time>2025-09-06T09:06:04Z</time>
      </trkpt>
      <trkpt lat="46.05967" lon="4.53773">
        <ele>738</ele>
        <time>2025-09-06T09:06:05Z</time>
      </trkpt>
      <trkpt lat="46.05968" lon="4.53773">
        <ele>738</ele>
        <time>2025-09-06T09:06:06Z</time>
      </trkpt>
      <trkpt lat="46.05969" lon="4.53774">
        <ele>738.2</ele>
        <time>2025-09-06T09:06:07Z</time>
      </trkpt>
      <trkpt lat="46.05971" lon="4.53775">
        <ele>738.2</ele>
        <time>2025-09-06T09:06:08Z</time>
      </trkpt>
      <trkpt lat="46.05971" lon="4.53775">
        <ele>738.6</ele>
        <time>2025-09-06T09:06:09Z</time>
      </trkpt>
      <trkpt lat="46.05973" lon="4.53777">
        <ele>738.6</ele>
        <time>2025-09-06T09:06:10Z</time>
      </trkpt>
      <trkpt lat="46.05975" lon="4.53779">
        <ele>738.6</ele>
        <time>2025-09-06T09:06:11Z</time>
      </trkpt>
      <trkpt lat="46.05977" lon="4.53779">
        <ele>739</ele>
        <time>2025-09-06T09:06:12Z</time>
      </trkpt>
      <trkpt lat="46.05979" lon="4.5378">
        <ele>739.4</ele>
        <time>2025-09-06T09:06:13Z</time>
      </trkpt>
      <trkpt lat="46.05981" lon="4.5378">
        <ele>739.8</ele>
        <time>2025-09-06T09:06:14Z</time>
      </trkpt>
      <trkpt lat="46.05983" lon="4.53781">
        <ele>740</ele>
        <time>2025-09-06T09:06:15Z</time>
      </trkpt>
      <trkpt lat="46.05985" lon="4.53782">
        <ele>740</ele>
        <time>2025-09-06T09:06:16Z</time>
      </trkpt>
      <trkpt lat="46.05988" lon="4.53782">
        <ele>740.2</ele>
        <time>2025-09-06T09:06:17Z</time>
      </trkpt>
      <trkpt lat="46.0599" lon="4.53783">
        <ele>740.2</ele>
        <time>2025-09-06T09:06:18Z</time>
      </trkpt>
      <trkpt lat="46.05991" lon="4.53784">
        <ele>740.6</ele>
        <time>2025-09-06T09:06:19Z</time>
      </trkpt>
      <trkpt lat="46.05994" lon="4.53784">
        <ele>740.6</ele>
        <time>2025-09-06T09:06:20Z</time>
      </trkpt>
      <trkpt lat="46.05997" lon="4.53783">
        <ele>740.4</ele>
        <time>2025-09-06T09:06:21Z</time>
      </trkpt>
      <trkpt lat="46.05999" lon="4.53783">
        <ele>740.6</ele>
        <time>2025-09-06T09:06:22Z</time>
      </trkpt>
      <trkpt lat="46.06001" lon="4.53783">
        <ele>740.6</ele>
        <time>2025-09-06T09:06:23Z</time>
      </trkpt>
      <trkpt lat="46.06002" lon="4.53783">
        <ele>741</ele>
        <time>2025-09-06T09:06:24Z</time>
      </trkpt>
      <trkpt lat="46.06004" lon="4.53783">
        <ele>741</ele>
        <time>2025-09-06T09:06:25Z</time>
      </trkpt>
      <trkpt lat="46.06005" lon="4.53784">
        <ele>741.2</ele>
        <time>2025-09-06T09:06:26Z</time>
      </trkpt>
      <trkpt lat="46.06006" lon="4.53784">
        <ele>741.2</ele>
        <time>2025-09-06T09:06:27Z</time>
      </trkpt>
      <trkpt lat="46.06008" lon="4.53785">
        <ele>741.8</ele>
        <time>2025-09-06T09:06:28Z</time>
      </trkpt>
      <trkpt lat="46.0601" lon="4.53785">
        <ele>742.4</ele>
        <time>2025-09-06T09:06:29Z</time>
      </trkpt>
      <trkpt lat="46.06011" lon="4.53786">
        <ele>742.4</ele>
        <time>2025-09-06T09:06:30Z</time>
      </trkpt>
      <trkpt lat="46.06013" lon="4.53787">
        <ele>742.4</ele>
        <time>2025-09-06T09:06:31Z</time>
      </trkpt>
      <trkpt lat="46.06014" lon="4.53787">
        <ele>743</ele>
        <time>2025-09-06T09:06:32Z</time>
      </trkpt>
      <trkpt lat="46.06015" lon="4.53788">
        <ele>743.6</ele>
        <time>2025-09-06T09:06:33Z</time>
      </trkpt>
      <trkpt lat="46.06016" lon="4.53788">
        <ele>743.8</ele>
        <time>2025-09-06T09:06:34Z</time>
      </trkpt>
      <trkpt lat="46.06016" lon="4.53789">
        <ele>744.2</ele>
        <time>2025-09-06T09:06:35Z</time>
      </trkpt>
      <trkpt lat="46.06018" lon="4.53789">
        <ele>744.2</ele>
        <time>2025-09-06T09:06:36Z</time>
      </trkpt>
      <trkpt lat="46.06019" lon="4.5379">
        <ele>744.2</ele>
        <time>2025-09-06T09:06:37Z</time>
      </trkpt>
      <trkpt lat="46.06019" lon="4.53791">
        <ele>744.2</ele>
        <time>2025-09-06T09:06:38Z</time>
      </trkpt>
      <trkpt lat="46.0602" lon="4.53792">
        <ele>744.2</ele>
        <time>2025-09-06T09:06:39Z</time>
      </trkpt>
      <trkpt lat="46.06021" lon="4.53793">
        <ele>744.2</ele>
        <time>2025-09-06T09:06:40Z</time>
      </trkpt>
      <trkpt lat="46.06021" lon="4.53795">
        <ele>744.2</ele>
        <time>2025-09-06T09:06:41Z</time>
      </trkpt>
      <trkpt lat="46.06022" lon="4.53796">
        <ele>744.2</ele>
        <time>2025-09-06T09:06:42Z</time>
      </trkpt>
      <trkpt lat="46.06024" lon="4.53798">
        <ele>745</ele>
        <time>2025-09-06T09:06:43Z</time>
      </trkpt>
      <trkpt lat="46.06025" lon="4.53799">
        <ele>745</ele>
        <time>2025-09-06T09:06:44Z</time>
      </trkpt>
      <trkpt lat="46.06027" lon="4.53801">
        <ele>745</ele>
        <time>2025-09-06T09:06:45Z</time>
      </trkpt>
      <trkpt lat="46.06028" lon="4.53802">
        <ele>745</ele>
        <time>2025-09-06T09:06:46Z</time>
      </trkpt>
      <trkpt lat="46.06029" lon="4.53803">
        <ele>745.4</ele>
        <time>2025-09-06T09:06:47Z</time>
      </trkpt>
      <trkpt lat="46.06031" lon="4.53803">
        <ele>745.6</ele>
        <time>2025-09-06T09:06:48Z</time>
      </trkpt>
      <trkpt lat="46.06033" lon="4.53804">
        <ele>746.2</ele>
        <time>2025-09-06T09:06:49Z</time>
      </trkpt>
      <trkpt lat="46.06034" lon="4.53804">
        <ele>746.4</ele>
        <time>2025-09-06T09:06:50Z</time>
      </trkpt>
      <trkpt lat="46.06034" lon="4.53804">
        <ele>746.4</ele>
        <time>2025-09-06T09:06:51Z</time>
      </trkpt>
      <trkpt lat="46.06035" lon="4.53805">
        <ele>746.6</ele>
        <time>2025-09-06T09:06:52Z</time>
      </trkpt>
      <trkpt lat="46.06037" lon="4.53807">
        <ele>746.8</ele>
        <time>2025-09-06T09:06:53Z</time>
      </trkpt>
      <trkpt lat="46.06038" lon="4.53808">
        <ele>746.8</ele>
        <time>2025-09-06T09:06:54Z</time>
      </trkpt>
      <trkpt lat="46.06039" lon="4.53809">
        <ele>746.6</ele>
        <time>2025-09-06T09:06:55Z</time>
      </trkpt>
      <trkpt lat="46.06041" lon="4.5381">
        <ele>746.8</ele>
        <time>2025-09-06T09:06:56Z</time>
      </trkpt>
      <trkpt lat="46.06042" lon="4.53812">
        <ele>747</ele>
        <time>2025-09-06T09:06:57Z</time>
      </trkpt>
      <trkpt lat="46.06042" lon="4.53812">
        <ele>747</ele>
        <time>2025-09-06T09:06:58Z</time>
      </trkpt>
      <trkpt lat="46.06043" lon="4.53813">
        <ele>747</ele>
        <time>2025-09-06T09:06:59Z</time>
      </trkpt>
      <trkpt lat="46.06044" lon="4.53813">
        <ele>747</ele>
        <time>2025-09-06T09:07:00Z</time>
      </trkpt>
      <trkpt lat="46.06045" lon="4.53814">
        <ele>747.6</ele>
        <time>2025-09-06T09:07:01Z</time>
      </trkpt>
      <trkpt lat="46.06045" lon="4.53814">
        <ele>747.8</ele>
        <time>2025-09-06T09:07:02Z</time>
      </trkpt>
      <trkpt lat="46.06046" lon="4.53815">
        <ele>747.8</ele>
        <time>2025-09-06T09:07:03Z</time>
      </trkpt>
      <trkpt lat="46.06046" lon="4.53815">
        <ele>747.8</ele>
        <time>2025-09-06T09:07:04Z</time>
      </trkpt>
      <trkpt lat="46.06047" lon="4.53816">
        <ele>747.8</ele>
        <time>2025-09-06T09:07:05Z</time>
      </trkpt>
      <trkpt lat="46.06049" lon="4.53816">
        <ele>747.8</ele>
        <time>2025-09-06T09:07:06Z</time>
      </trkpt>
      <trkpt lat="46.0605" lon="4.53816">
        <ele>747.8</ele>
        <time>2025-09-06T09:07:07Z</time>
      </trkpt>
      <trkpt lat="46.06052" lon="4.53816">
        <ele>747.8</ele>
        <time>2025-09-06T09:07:08Z</time>
      </trkpt>
      <trkpt lat="46.06053" lon="4.53817">
        <ele>748.2</ele>
        <time>2025-09-06T09:07:09Z</time>
      </trkpt>
      <trkpt lat="46.06055" lon="4.53817">
        <ele>748.6</ele>
        <time>2025-09-06T09:07:10Z</time>
      </trkpt>
      <trkpt lat="46.06055" lon="4.53818">
        <ele>748.8</ele>
        <time>2025-09-06T09:07:11Z</time>
      </trkpt>
      <trkpt lat="46.06056" lon="4.53819">
        <ele>749</ele>
        <time>2025-09-06T09:07:12Z</time>
      </trkpt>
      <trkpt lat="46.06058" lon="4.53821">
        <ele>749</ele>
        <time>2025-09-06T09:07:13Z</time>
      </trkpt>
      <trkpt lat="46.06059" lon="4.53822">
        <ele>749.4</ele>
        <time>2025-09-06T09:07:14Z</time>
      </trkpt>
      <trkpt lat="46.06059" lon="4.53822">
        <ele>749.4</ele>
        <time>2025-09-06T09:07:15Z</time>
      </trkpt>
      <trkpt lat="46.06061" lon="4.53824">
        <ele>749.6</ele>
        <time>2025-09-06T09:07:16Z</time>
      </trkpt>
      <trkpt lat="46.06063" lon="4.53825">
        <ele>749.6</ele>
        <time>2025-09-06T09:07:17Z</time>
      </trkpt>
      <trkpt lat="46.06066" lon="4.53826">
        <ele>750</ele>
        <time>2025-09-06T09:07:18Z</time>
      </trkpt>
      <trkpt lat="46.06067" lon="4.53826">
        <ele>750.2</ele>
        <time>2025-09-06T09:07:19Z</time>
      </trkpt>
      <trkpt lat="46.06068" lon="4.53826">
        <ele>750.2</ele>
        <time>2025-09-06T09:07:20Z</time>
      </trkpt>
      <trkpt lat="46.06069" lon="4.53826">
        <ele>750.4</ele>
        <time>2025-09-06T09:07:21Z</time>
      </trkpt>
      <trkpt lat="46.06071" lon="4.53827">
        <ele>750.4</ele>
        <time>2025-09-06T09:07:22Z</time>
      </trkpt>
      <trkpt lat="46.06072" lon="4.53828">
        <ele>750.4</ele>
        <time>2025-09-06T09:07:23Z</time>
      </trkpt>
      <trkpt lat="46.06073" lon="4.53828">
        <ele>750.8</ele>
        <time>2025-09-06T09:07:24Z</time>
      </trkpt>
      <trkpt lat="46.06074" lon="4.53829">
        <ele>751</ele>
        <time>2025-09-06T09:07:25Z</time>
      </trkpt>
      <trkpt lat="46.06074" lon="4.5383">
        <ele>751.2</ele>
        <time>2025-09-06T09:07:26Z</time>
      </trkpt>
      <trkpt lat="46.06075" lon="4.5383">
        <ele>751.2</ele>
        <time>2025-09-06T09:07:27Z</time>
      </trkpt>
      <trkpt lat="46.06076" lon="4.5383">
        <ele>751.2</ele>
        <time>2025-09-06T09:07:28Z</time>
      </trkpt>
      <trkpt lat="46.06077" lon="4.53831">
        <ele>751.2</ele>
        <time>2025-09-06T09:07:29Z</time>
      </trkpt>
      <trkpt lat="46.06077" lon="4.53831">
        <ele>751.2</ele>
        <time>2025-09-06T09:07:30Z</time>
      </trkpt>
      <trkpt lat="46.06077" lon="4.53832">
        <ele>751.2</ele>
        <time>2025-09-06T09:07:31Z</time>
      </trkpt>
      <trkpt lat="46.06077" lon="4.53832">
        <ele>751.6</ele>
        <time>2025-09-06T09:07:32Z</time>
      </trkpt>
      <trkpt lat="46.06078" lon="4.53833">
        <ele>752</ele>
        <time>2025-09-06T09:07:40Z</time>
      </trkpt>
      <trkpt lat="46.06079" lon="4.53833">
        <ele>751.6</ele>
        <time>2025-09-06T09:07:41Z</time>
      </trkpt>
      <trkpt lat="46.0608" lon="4.53835">
        <ele>751.6</ele>
        <time>2025-09-06T09:07:42Z</time>
      </trkpt>
      <trkpt lat="46.06081" lon="4.53835">
        <ele>751.6</ele>
        <time>2025-09-06T09:07:43Z</time>
      </trkpt>
      <trkpt lat="46.06082" lon="4.53836">
        <ele>752</ele>
        <time>2025-09-06T09:07:44Z</time>
      </trkpt>
      <trkpt lat="46.06082" lon="4.53836">
        <ele>752.4</ele>
        <time>2025-09-06T09:07:45Z</time>
      </trkpt>
      <trkpt lat="46.06083" lon="4.53836">
        <ele>752.4</ele>
        <time>2025-09-06T09:07:46Z</time>
      </trkpt>
      <trkpt lat="46.06085" lon="4.53836">
        <ele>752.4</ele>
        <time>2025-09-06T09:07:47Z</time>
      </trkpt>
      <trkpt lat="46.06086" lon="4.53837">
        <ele>753</ele>
        <time>2025-09-06T09:07:48Z</time>
      </trkpt>
      <trkpt lat="46.06087" lon="4.53838">
        <ele>753.2</ele>
        <time>2025-09-06T09:07:49Z</time>
      </trkpt>
      <trkpt lat="46.06089" lon="4.53839">
        <ele>753.2</ele>
        <time>2025-09-06T09:07:50Z</time>
      </trkpt>
      <trkpt lat="46.0609" lon="4.53839">
        <ele>753.2</ele>
        <time>2025-09-06T09:07:51Z</time>
      </trkpt>
      <trkpt lat="46.06091" lon="4.5384">
        <ele>753.4</ele>
        <time>2025-09-06T09:07:52Z</time>
      </trkpt>
      <trkpt lat="46.06092" lon="4.5384">
        <ele>753.4</ele>
        <time>2025-09-06T09:07:53Z</time>
      </trkpt>
      <trkpt lat="46.06093" lon="4.53841">
        <ele>753.4</ele>
        <time>2025-09-06T09:07:54Z</time>
      </trkpt>
      <trkpt lat="46.06094" lon="4.53842">
        <ele>753.4</ele>
        <time>2025-09-06T09:07:55Z</time>
      </trkpt>
      <trkpt lat="46.06094" lon="4.53842">
        <ele>753.4</ele>
        <time>2025-09-06T09:07:56Z</time>
      </trkpt>
      <trkpt lat="46.06094" lon="4.53841">
        <ele>754</ele>
        <time>2025-09-06T09:07:57Z</time>
      </trkpt>
      <trkpt lat="46.06095" lon="4.53841">
        <ele>754</ele>
        <time>2025-09-06T09:07:58Z</time>
      </trkpt>
      <trkpt lat="46.06096" lon="4.53842">
        <ele>754.4</ele>
        <time>2025-09-06T09:07:59Z</time>
      </trkpt>
      <trkpt lat="46.06096" lon="4.53842">
        <ele>754.4</ele>
        <time>2025-09-06T09:08:00Z</time>
      </trkpt>
      <trkpt lat="46.06097" lon="4.53844">
        <ele>754.4</ele>
        <time>2025-09-06T09:08:01Z</time>
      </trkpt>
      <trkpt lat="46.06098" lon="4.53845">
        <ele>755</ele>
        <time>2025-09-06T09:08:02Z</time>
      </trkpt>
      <trkpt lat="46.06099" lon="4.53846">
        <ele>755</ele>
        <time>2025-09-06T09:08:03Z</time>
      </trkpt>
      <trkpt lat="46.06099" lon="4.53845">
        <ele>755</ele>
        <time>2025-09-06T09:08:04Z</time>
      </trkpt>
      <trkpt lat="46.06101" lon="4.53845">
        <ele>755.2</ele>
        <time>2025-09-06T09:08:05Z</time>
      </trkpt>
      <trkpt lat="46.06102" lon="4.53845">
        <ele>755.2</ele>
        <time>2025-09-06T09:08:06Z</time>
      </trkpt>
      <trkpt lat="46.06102" lon="4.53845">
        <ele>755.2</ele>
        <time>2025-09-06T09:08:07Z</time>
      </trkpt>
      <trkpt lat="46.06103" lon="4.53845">
        <ele>755.2</ele>
        <time>2025-09-06T09:08:08Z</time>
      </trkpt>
      <trkpt lat="46.06104" lon="4.53846">
        <ele>755.2</ele>
        <time>2025-09-06T09:08:09Z</time>
      </trkpt>
      <trkpt lat="46.06106" lon="4.53847">
        <ele>755.4</ele>
        <time>2025-09-06T09:08:10Z</time>
      </trkpt>
      <trkpt lat="46.06105" lon="4.53848">
        <ele>755.8</ele>
        <time>2025-09-06T09:08:11Z</time>
      </trkpt>
      <trkpt lat="46.06105" lon="4.53848">
        <ele>756</ele>
        <time>2025-09-06T09:08:12Z</time>
      </trkpt>
      <trkpt lat="46.06105" lon="4.53848">
        <ele>756.4</ele>
        <time>2025-09-06T09:08:13Z</time>
      </trkpt>
      <trkpt lat="46.06106" lon="4.53849">
        <ele>756.4</ele>
        <time>2025-09-06T09:08:14Z</time>
      </trkpt>
      <trkpt lat="46.06107" lon="4.5385">
        <ele>756.8</ele>
        <time>2025-09-06T09:08:15Z</time>
      </trkpt>
      <trkpt lat="46.06107" lon="4.5385">
        <ele>757.2</ele>
        <time>2025-09-06T09:08:16Z</time>
      </trkpt>
      <trkpt lat="46.06108" lon="4.53851">
        <ele>757.6</ele>
        <time>2025-09-06T09:08:17Z</time>
      </trkpt>
      <trkpt lat="46.06108" lon="4.53852">
        <ele>758</ele>
        <time>2025-09-06T09:08:18Z</time>
      </trkpt>
      <trkpt lat="46.06109" lon="4.53853">
        <ele>758</ele>
        <time>2025-09-06T09:08:19Z</time>
      </trkpt>
      <trkpt lat="46.06111" lon="4.53854">
        <ele>758</ele>
        <time>2025-09-06T09:08:20Z</time>
      </trkpt>
      <trkpt lat="46.06112" lon="4.53855">
        <ele>758.4</ele>
        <time>2025-09-06T09:08:21Z</time>
      </trkpt>
      <trkpt lat="46.06113" lon="4.53856">
        <ele>758.6</ele>
        <time>2025-09-06T09:08:22Z</time>
      </trkpt>
      <trkpt lat="46.06114" lon="4.53856">
        <ele>758.6</ele>
        <time>2025-09-06T09:08:23Z</time>
      </trkpt>
      <trkpt lat="46.06114" lon="4.53856">
        <ele>758.6</ele>
        <time>2025-09-06T09:08:24Z</time>
      </trkpt>
      <trkpt lat="46.06115" lon="4.53856">
        <ele>758.6</ele>
        <time>2025-09-06T09:08:25Z</time>
      </trkpt>
      <trkpt lat="46.06116" lon="4.53856">
        <ele>759</ele>
        <time>2025-09-06T09:08:26Z</time>
      </trkpt>
      <trkpt lat="46.06117" lon="4.53857">
        <ele>759.4</ele>
        <time>2025-09-06T09:08:27Z</time>
      </trkpt>
      <trkpt lat="46.06118" lon="4.53858">
        <ele>759.4</ele>
        <time>2025-09-06T09:08:28Z</time>
      </trkpt>
      <trkpt lat="46.06119" lon="4.53859">
        <ele>759.4</ele>
        <time>2025-09-06T09:08:29Z</time>
      </trkpt>
      <trkpt lat="46.0612" lon="4.5386">
        <ele>759.4</ele>
        <time>2025-09-06T09:08:30Z</time>
      </trkpt>
      <trkpt lat="46.06121" lon="4.53861">
        <ele>759.8</ele>
        <time>2025-09-06T09:08:31Z</time>
      </trkpt>
      <trkpt lat="46.06122" lon="4.53861">
        <ele>759.8</ele>
        <time>2025-09-06T09:08:32Z</time>
      </trkpt>
      <trkpt lat="46.06123" lon="4.53862">
        <ele>759.8</ele>
        <time>2025-09-06T09:08:33Z</time>
      </trkpt>
      <trkpt lat="46.06124" lon="4.53862">
        <ele>759.8</ele>
        <time>2025-09-06T09:08:34Z</time>
      </trkpt>
      <trkpt lat="46.06125" lon="4.53863">
        <ele>759.8</ele>
        <time>2025-09-06T09:08:35Z</time>
      </trkpt>
      <trkpt lat="46.06126" lon="4.53863">
        <ele>760</ele>
        <time>2025-09-06T09:08:36Z</time>
      </trkpt>
      <trkpt lat="46.06126" lon="4.53864">
        <ele>760</ele>
        <time>2025-09-06T09:08:37Z</time>
      </trkpt>
      <trkpt lat="46.06127" lon="4.53864">
        <ele>760.4</ele>
        <time>2025-09-06T09:08:38Z</time>
      </trkpt>
      <trkpt lat="46.06127" lon="4.53864">
        <ele>760.8</ele>
        <time>2025-09-06T09:08:39Z</time>
      </trkpt>
      <trkpt lat="46.06129" lon="4.53864">
        <ele>760.8</ele>
        <time>2025-09-06T09:08:40Z</time>
      </trkpt>
      <trkpt lat="46.0613" lon="4.53863">
        <ele>761</ele>
        <time>2025-09-06T09:08:41Z</time>
      </trkpt>
      <trkpt lat="46.06131" lon="4.53863">
        <ele>761</ele>
        <time>2025-09-06T09:08:42Z</time>
      </trkpt>
      <trkpt lat="46.06132" lon="4.53863">
        <ele>761.4</ele>
        <time>2025-09-06T09:08:43Z</time>
      </trkpt>
      <trkpt lat="46.06133" lon="4.53863">
        <ele>761.4</ele>
        <time>2025-09-06T09:08:44Z</time>
      </trkpt>
      <trkpt lat="46.06133" lon="4.53864">
        <ele>761.4</ele>
        <time>2025-09-06T09:08:45Z</time>
      </trkpt>
      <trkpt lat="46.06134" lon="4.53865">
        <ele>761.6</ele>
        <time>2025-09-06T09:08:46Z</time>
      </trkpt>
      <trkpt lat="46.06135" lon="4.53866">
        <ele>761.8</ele>
        <time>2025-09-06T09:08:47Z</time>
      </trkpt>
      <trkpt lat="46.06136" lon="4.53867">
        <ele>762.4</ele>
        <time>2025-09-06T09:08:48Z</time>
      </trkpt>
      <trkpt lat="46.06137" lon="4.53868">
        <ele>762.4</ele>
        <time>2025-09-06T09:08:49Z</time>
      </trkpt>
      <trkpt lat="46.06138" lon="4.53868">
        <ele>762.4</ele>
        <time>2025-09-06T09:08:50Z</time>
      </trkpt>
      <trkpt lat="46.06138" lon="4.53869">
        <ele>762.4</ele>
        <time>2025-09-06T09:08:51Z</time>
      </trkpt>
      <trkpt lat="46.06139" lon="4.53869">
        <ele>762.4</ele>
        <time>2025-09-06T09:08:52Z</time>
      </trkpt>
      <trkpt lat="46.06139" lon="4.5387">
        <ele>762.4</ele>
        <time>2025-09-06T09:08:53Z</time>
      </trkpt>
      <trkpt lat="46.06139" lon="4.5387">
        <ele>762.6</ele>
        <time>2025-09-06T09:08:54Z</time>
      </trkpt>
      <trkpt lat="46.06142" lon="4.53871">
        <ele>762.6</ele>
        <time>2025-09-06T09:08:58Z</time>
      </trkpt>
      <trkpt lat="46.06143" lon="4.53871">
        <ele>762.6</ele>
        <time>2025-09-06T09:08:59Z</time>
      </trkpt>
      <trkpt lat="46.06144" lon="4.53871">
        <ele>762.6</ele>
        <time>2025-09-06T09:09:00Z</time>
      </trkpt>
      <trkpt lat="46.06145" lon="4.53872">
        <ele>762.6</ele>
        <time>2025-09-06T09:09:01Z</time>
      </trkpt>
      <trkpt lat="46.06146" lon="4.53872">
        <ele>762.6</ele>
        <time>2025-09-06T09:09:02Z</time>
      </trkpt>
      <trkpt lat="46.06148" lon="4.53873">
        <ele>762.6</ele>
        <time>2025-09-06T09:09:03Z</time>
      </trkpt>
      <trkpt lat="46.06149" lon="4.53873">
        <ele>763.2</ele>
        <time>2025-09-06T09:09:04Z</time>
      </trkpt>
      <trkpt lat="46.0615" lon="4.53873">
        <ele>763.4</ele>
        <time>2025-09-06T09:09:05Z</time>
      </trkpt>
      <trkpt lat="46.06151" lon="4.53873">
        <ele>763.6</ele>
        <time>2025-09-06T09:09:06Z</time>
      </trkpt>
      <trkpt lat="46.06152" lon="4.53874">
        <ele>763.6</ele>
        <time>2025-09-06T09:09:07Z</time>
      </trkpt>
      <trkpt lat="46.06153" lon="4.53876">
        <ele>763.6</ele>
        <time>2025-09-06T09:09:08Z</time>
      </trkpt>
      <trkpt lat="46.06154" lon="4.53877">
        <ele>763.6</ele>
        <time>2025-09-06T09:09:09Z</time>
      </trkpt>
      <trkpt lat="46.06154" lon="4.53877">
        <ele>764</ele>
        <time>2025-09-06T09:09:10Z</time>
      </trkpt>
      <trkpt lat="46.06155" lon="4.53877">
        <ele>764</ele>
        <time>2025-09-06T09:09:11Z</time>
      </trkpt>
      <trkpt lat="46.06156" lon="4.53877">
        <ele>764.4</ele>
        <time>2025-09-06T09:09:12Z</time>
      </trkpt>
      <trkpt lat="46.06157" lon="4.53877">
        <ele>764.4</ele>
        <time>2025-09-06T09:09:13Z</time>
      </trkpt>
      <trkpt lat="46.06158" lon="4.53876">
        <ele>764.4</ele>
        <time>2025-09-06T09:09:14Z</time>
      </trkpt>
      <trkpt lat="46.0616" lon="4.53876">
        <ele>764.6</ele>
        <time>2025-09-06T09:09:15Z</time>
      </trkpt>
      <trkpt lat="46.06161" lon="4.53876">
        <ele>765</ele>
        <time>2025-09-06T09:09:16Z</time>
      </trkpt>
      <trkpt lat="46.06161" lon="4.53877">
        <ele>765</ele>
        <time>2025-09-06T09:09:17Z</time>
      </trkpt>
      <trkpt lat="46.06162" lon="4.53877">
        <ele>765</ele>
        <time>2025-09-06T09:09:18Z</time>
      </trkpt>
      <trkpt lat="46.06163" lon="4.53878">
        <ele>765.6</ele>
        <time>2025-09-06T09:09:19Z</time>
      </trkpt>
      <trkpt lat="46.06164" lon="4.53878">
        <ele>765.6</ele>
        <time>2025-09-06T09:09:20Z</time>
      </trkpt>
      <trkpt lat="46.06164" lon="4.53878">
        <ele>765.6</ele>
        <time>2025-09-06T09:09:21Z</time>
      </trkpt>
      <trkpt lat="46.06165" lon="4.53879">
        <ele>765.6</ele>
        <time>2025-09-06T09:09:22Z</time>
      </trkpt>
      <trkpt lat="46.06165" lon="4.53879">
        <ele>765.6</ele>
        <time>2025-09-06T09:09:23Z</time>
      </trkpt>
      <trkpt lat="46.06166" lon="4.53879">
        <ele>765.8</ele>
        <time>2025-09-06T09:09:24Z</time>
      </trkpt>
      <trkpt lat="46.06167" lon="4.5388">
        <ele>766</ele>
        <time>2025-09-06T09:09:25Z</time>
      </trkpt>
      <trkpt lat="46.06167" lon="4.5388">
        <ele>766</ele>
        <time>2025-09-06T09:09:26Z</time>
      </trkpt>
      <trkpt lat="46.06168" lon="4.53881">
        <ele>766</ele>
        <time>2025-09-06T09:09:27Z</time>
      </trkpt>
      <trkpt lat="46.06169" lon="4.53881">
        <ele>766.2</ele>
        <time>2025-09-06T09:09:28Z</time>
      </trkpt>
      <trkpt lat="46.0617" lon="4.53881">
        <ele>766.2</ele>
        <time>2025-09-06T09:09:29Z</time>
      </trkpt>
      <trkpt lat="46.06171" lon="4.53881">
        <ele>766.6</ele>
        <time>2025-09-06T09:09:30Z</time>
      </trkpt>
      <trkpt lat="46.06172" lon="4.53881">
        <ele>766.6</ele>
        <time>2025-09-06T09:09:31Z</time>
      </trkpt>
      <trkpt lat="46.06173" lon="4.53882">
        <ele>766.6</ele>
        <time>2025-09-06T09:09:32Z</time>
      </trkpt>
      <trkpt lat="46.06174" lon="4.53882">
        <ele>766.4</ele>
        <time>2025-09-06T09:09:33Z</time>
      </trkpt>
      <trkpt lat="46.06175" lon="4.53882">
        <ele>766.6</ele>
        <time>2025-09-06T09:09:34Z</time>
      </trkpt>
      <trkpt lat="46.06176" lon="4.53882">
        <ele>766.8</ele>
        <time>2025-09-06T09:09:35Z</time>
      </trkpt>
      <trkpt lat="46.06177" lon="4.53882">
        <ele>766.8</ele>
        <time>2025-09-06T09:09:36Z</time>
      </trkpt>
      <trkpt lat="46.06178" lon="4.53882">
        <ele>767.4</ele>
        <time>2025-09-06T09:09:37Z</time>
      </trkpt>
      <trkpt lat="46.06179" lon="4.53883">
        <ele>767.8</ele>
        <time>2025-09-06T09:09:38Z</time>
      </trkpt>
      <trkpt lat="46.0618" lon="4.53883">
        <ele>768.2</ele>
        <time>2025-09-06T09:09:39Z</time>
      </trkpt>
      <trkpt lat="46.06181" lon="4.53884">
        <ele>768.2</ele>
        <time>2025-09-06T09:09:40Z</time>
      </trkpt>
      <trkpt lat="46.06182" lon="4.53885">
        <ele>768.4</ele>
        <time>2025-09-06T09:09:41Z</time>
      </trkpt>
      <trkpt lat="46.06183" lon="4.53886">
        <ele>768.4</ele>
        <time>2025-09-06T09:09:42Z</time>
      </trkpt>
      <trkpt lat="46.06183" lon="4.53887">
        <ele>768.4</ele>
        <time>2025-09-06T09:09:43Z</time>
      </trkpt>
      <trkpt lat="46.06184" lon="4.53888">
        <ele>768.4</ele>
        <time>2025-09-06T09:09:44Z</time>
      </trkpt>
      <trkpt lat="46.06186" lon="4.53889">
        <ele>768.8</ele>
        <time>2025-09-06T09:09:45Z</time>
      </trkpt>
      <trkpt lat="46.06187" lon="4.5389">
        <ele>769.2</ele>
        <time>2025-09-06T09:09:46Z</time>
      </trkpt>
      <trkpt lat="46.06188" lon="4.5389">
        <ele>769.4</ele>
        <time>2025-09-06T09:09:47Z</time>
      </trkpt>
      <trkpt lat="46.06189" lon="4.5389">
        <ele>769.8</ele>
        <time>2025-09-06T09:09:48Z</time>
      </trkpt>
      <trkpt lat="46.0619" lon="4.5389">
        <ele>769.8</ele>
        <time>2025-09-06T09:09:49Z</time>
      </trkpt>
      <trkpt lat="46.06191" lon="4.5389">
        <ele>769.6</ele>
        <time>2025-09-06T09:09:50Z</time>
      </trkpt>
      <trkpt lat="46.06192" lon="4.5389">
        <ele>769.6</ele>
        <time>2025-09-06T09:09:51Z</time>
      </trkpt>
      <trkpt lat="46.06193" lon="4.5389">
        <ele>769.6</ele>
        <time>2025-09-06T09:09:52Z</time>
      </trkpt>
      <trkpt lat="46.06193" lon="4.5389">
        <ele>769.6</ele>
        <time>2025-09-06T09:09:53Z</time>
      </trkpt>
      <trkpt lat="46.06194" lon="4.53891">
        <ele>769.6</ele>
        <time>2025-09-06T09:09:54Z</time>
      </trkpt>
      <trkpt lat="46.06194" lon="4.53891">
        <ele>769.6</ele>
        <time>2025-09-06T09:09:55Z</time>
      </trkpt>
      <trkpt lat="46.06194" lon="4.53891">
        <ele>769.6</ele>
        <time>2025-09-06T09:09:56Z</time>
      </trkpt>
      <trkpt lat="46.06197" lon="4.53893">
        <ele>769.4</ele>
        <time>2025-09-06T09:10:00Z</time>
      </trkpt>
      <trkpt lat="46.06199" lon="4.53894">
        <ele>769.4</ele>
        <time>2025-09-06T09:10:01Z</time>
      </trkpt>
      <trkpt lat="46.06201" lon="4.53895">
        <ele>769.4</ele>
        <time>2025-09-06T09:10:02Z</time>
      </trkpt>
      <trkpt lat="46.06202" lon="4.53895">
        <ele>769.8</ele>
        <time>2025-09-06T09:10:03Z</time>
      </trkpt>
      <trkpt lat="46.06203" lon="4.53895">
        <ele>770.2</ele>
        <time>2025-09-06T09:10:04Z</time>
      </trkpt>
      <trkpt lat="46.06205" lon="4.53896">
        <ele>770.2</ele>
        <time>2025-09-06T09:10:05Z</time>
      </trkpt>
      <trkpt lat="46.06207" lon="4.53895">
        <ele>770.2</ele>
        <time>2025-09-06T09:10:06Z</time>
      </trkpt>
      <trkpt lat="46.06208" lon="4.53895">
        <ele>770.2</ele>
        <time>2025-09-06T09:10:07Z</time>
      </trkpt>
      <trkpt lat="46.0621" lon="4.53894">
        <ele>770.6</ele>
        <time>2025-09-06T09:10:08Z</time>
      </trkpt>
      <trkpt lat="46.06212" lon="4.53894">
        <ele>771</ele>
        <time>2025-09-06T09:10:09Z</time>
      </trkpt>
      <trkpt lat="46.06214" lon="4.53894">
        <ele>771</ele>
        <time>2025-09-06T09:10:10Z</time>
      </trkpt>
      <trkpt lat="46.06216" lon="4.53894">
        <ele>771</ele>
        <time>2025-09-06T09:10:11Z</time>
      </trkpt>
      <trkpt lat="46.06217" lon="4.53895">
        <ele>771.2</ele>
        <time>2025-09-06T09:10:12Z</time>
      </trkpt>
      <trkpt lat="46.06219" lon="4.53894">
        <ele>771.2</ele>
        <time>2025-09-06T09:10:13Z</time>
      </trkpt>
      <trkpt lat="46.06219" lon="4.53894">
        <ele>771.6</ele>
        <time>2025-09-06T09:10:14Z</time>
      </trkpt>
      <trkpt lat="46.06221" lon="4.53894">
        <ele>771.6</ele>
        <time>2025-09-06T09:10:15Z</time>
      </trkpt>
      <trkpt lat="46.06222" lon="4.53893">
        <ele>771.8</ele>
        <time>2025-09-06T09:10:16Z</time>
      </trkpt>
      <trkpt lat="46.06224" lon="4.53892">
        <ele>771.8</ele>
        <time>2025-09-06T09:10:17Z</time>
      </trkpt>
      <trkpt lat="46.06226" lon="4.53892">
        <ele>771.8</ele>
        <time>2025-09-06T09:10:18Z</time>
      </trkpt>
      <trkpt lat="46.06228" lon="4.53892">
        <ele>771.8</ele>
        <time>2025-09-06T09:10:19Z</time>
      </trkpt>
      <trkpt lat="46.0623" lon="4.53893">
        <ele>771.8</ele>
        <time>2025-09-06T09:10:20Z</time>
      </trkpt>
      <trkpt lat="46.06232" lon="4.53893">
        <ele>771.8</ele>
        <time>2025-09-06T09:10:21Z</time>
      </trkpt>
      <trkpt lat="46.06233" lon="4.53893">
        <ele>771.8</ele>
        <time>2025-09-06T09:10:22Z</time>
      </trkpt>
      <trkpt lat="46.06235" lon="4.53892">
        <ele>771.8</ele>
        <time>2025-09-06T09:10:23Z</time>
      </trkpt>
      <trkpt lat="46.06234" lon="4.53891">
        <ele>771.8</ele>
        <time>2025-09-06T09:10:24Z</time>
      </trkpt>
      <trkpt lat="46.06234" lon="4.53891">
        <ele>771.8</ele>
        <time>2025-09-06T09:10:25Z</time>
      </trkpt>
      <trkpt lat="46.06237" lon="4.53892">
        <ele>772.6</ele>
        <time>2025-09-06T09:11:15Z</time>
      </trkpt>
      <trkpt lat="46.0624" lon="4.53893">
        <ele>772.6</ele>
        <time>2025-09-06T09:11:16Z</time>
      </trkpt>
      <trkpt lat="46.06243" lon="4.53893">
        <ele>772.6</ele>
        <time>2025-09-06T09:11:17Z</time>
      </trkpt>
      <trkpt lat="46.06246" lon="4.53893">
        <ele>772.6</ele>
        <time>2025-09-06T09:11:18Z</time>
      </trkpt>
      <trkpt lat="46.06249" lon="4.53894">
        <ele>772.4</ele>
        <time>2025-09-06T09:11:19Z</time>
      </trkpt>
      <trkpt lat="46.06252" lon="4.53894">
        <ele>772.4</ele>
        <time>2025-09-06T09:11:20Z</time>
      </trkpt>
      <trkpt lat="46.06255" lon="4.53894">
        <ele>772.4</ele>
        <time>2025-09-06T09:11:21Z</time>
      </trkpt>
      <trkpt lat="46.06258" lon="4.53895">
        <ele>772</ele>
        <time>2025-09-06T09:11:22Z</time>
      </trkpt>
      <trkpt lat="46.06261" lon="4.53895">
        <ele>771.6</ele>
        <time>2025-09-06T09:11:23Z</time>
      </trkpt>
      <trkpt lat="46.06264" lon="4.53895">
        <ele>771.2</ele>
        <time>2025-09-06T09:11:24Z</time>
      </trkpt>
      <trkpt lat="46.06266" lon="4.53895">
        <ele>771.2</ele>
        <time>2025-09-06T09:11:25Z</time>
      </trkpt>
      <trkpt lat="46.06269" lon="4.53895">
        <ele>771</ele>
        <time>2025-09-06T09:11:26Z</time>
      </trkpt>
      <trkpt lat="46.06272" lon="4.53895">
        <ele>771</ele>
        <time>2025-09-06T09:11:27Z</time>
      </trkpt>
      <trkpt lat="46.06275" lon="4.53896">
        <ele>771.4</ele>
        <time>2025-09-06T09:11:28Z</time>
      </trkpt>
      <trkpt lat="46.06279" lon="4.53896">
        <ele>771.4</ele>
        <time>2025-09-06T09:11:29Z</time>
      </trkpt>
      <trkpt lat="46.06282" lon="4.53897">
        <ele>771.4</ele>
        <time>2025-09-06T09:11:30Z</time>
      </trkpt>
      <trkpt lat="46.06285" lon="4.53897">
        <ele>771.4</ele>
        <time>2025-09-06T09:11:31Z</time>
      </trkpt>
      <trkpt lat="46.06288" lon="4.53897">
        <ele>771.4</ele>
        <time>2025-09-06T09:11:32Z</time>
      </trkpt>
      <trkpt lat="46.06291" lon="4.53898">
        <ele>771.6</ele>
        <time>2025-09-06T09:11:33Z</time>
      </trkpt>
      <trkpt lat="46.06294" lon="4.53899">
        <ele>772</ele>
        <time>2025-09-06T09:11:34Z</time>
      </trkpt>
      <trkpt lat="46.06296" lon="4.539">
        <ele>772</ele>
        <time>2025-09-06T09:11:35Z</time>
      </trkpt>
      <trkpt lat="46.06298" lon="4.53902">
        <ele>772</ele>
        <time>2025-09-06T09:11:36Z</time>
      </trkpt>
      <trkpt lat="46.06301" lon="4.53903">
        <ele>772</ele>
        <time>2025-09-06T09:11:37Z</time>
      </trkpt>
      <trkpt lat="46.06304" lon="4.53904">
        <ele>772.6</ele>
        <time>2025-09-06T09:11:38Z</time>
      </trkpt>
      <trkpt lat="46.06307" lon="4.53904">
        <ele>772.6</ele>
        <time>2025-09-06T09:11:39Z</time>
      </trkpt>
      <trkpt lat="46.06311" lon="4.53905">
        <ele>773.2</ele>
        <time>2025-09-06T09:11:40Z</time>
      </trkpt>
      <trkpt lat="46.06315" lon="4.53907">
        <ele>772.8</ele>
        <time>2025-09-06T09:11:41Z</time>
      </trkpt>
      <trkpt lat="46.06319" lon="4.53908">
        <ele>772.8</ele>
        <time>2025-09-06T09:11:42Z</time>
      </trkpt>
      <trkpt lat="46.06322" lon="4.5391">
        <ele>772.8</ele>
        <time>2025-09-06T09:11:43Z</time>
      </trkpt>
      <trkpt lat="46.06325" lon="4.53911">
        <ele>772.8</ele>
        <time>2025-09-06T09:11:44Z</time>
      </trkpt>
      <trkpt lat="46.06328" lon="4.53911">
        <ele>772.4</ele>
        <time>2025-09-06T09:11:45Z</time>
      </trkpt>
      <trkpt lat="46.0633" lon="4.53911">
        <ele>772</ele>
        <time>2025-09-06T09:11:46Z</time>
      </trkpt>
      <trkpt lat="46.06332" lon="4.53912">
        <ele>772</ele>
        <time>2025-09-06T09:11:47Z</time>
      </trkpt>
      <trkpt lat="46.06335" lon="4.53913">
        <ele>772</ele>
        <time>2025-09-06T09:11:48Z</time>
      </trkpt>
      <trkpt lat="46.06337" lon="4.53913">
        <ele>771.2</ele>
        <time>2025-09-06T09:11:49Z</time>
      </trkpt>
      <trkpt lat="46.0634" lon="4.53914">
        <ele>771.2</ele>
        <time>2025-09-06T09:11:50Z</time>
      </trkpt>
      <trkpt lat="46.06343" lon="4.53916">
        <ele>771</ele>
        <time>2025-09-06T09:11:51Z</time>
      </trkpt>
      <trkpt lat="46.06346" lon="4.53916">
        <ele>770.6</ele>
        <time>2025-09-06T09:11:52Z</time>
      </trkpt>
      <trkpt lat="46.06349" lon="4.53917">
        <ele>770.8</ele>
        <time>2025-09-06T09:11:53Z</time>
      </trkpt>
      <trkpt lat="46.06351" lon="4.53918">
        <ele>771.4</ele>
        <time>2025-09-06T09:11:54Z</time>
      </trkpt>
      <trkpt lat="46.06352" lon="4.53918">
        <ele>771.4</ele>
        <time>2025-09-06T09:11:55Z</time>
      </trkpt>
      <trkpt lat="46.06354" lon="4.5392">
        <ele>770.4</ele>
        <time>2025-09-06T09:11:56Z</time>
      </trkpt>
      <trkpt lat="46.06357" lon="4.53922">
        <ele>770.4</ele>
        <time>2025-09-06T09:11:57Z</time>
      </trkpt>
      <trkpt lat="46.0636" lon="4.53923">
        <ele>770</ele>
        <time>2025-09-06T09:11:58Z</time>
      </trkpt>
      <trkpt lat="46.06363" lon="4.53924">
        <ele>770</ele>
        <time>2025-09-06T09:11:59Z</time>
      </trkpt>
      <trkpt lat="46.06366" lon="4.53925">
        <ele>769.8</ele>
        <time>2025-09-06T09:12:00Z</time>
      </trkpt>
      <trkpt lat="46.06368" lon="4.53926">
        <ele>769.4</ele>
        <time>2025-09-06T09:12:01Z</time>
      </trkpt>
      <trkpt lat="46.06369" lon="4.53926">
        <ele>769.2</ele>
        <time>2025-09-06T09:12:02Z</time>
      </trkpt>
      <trkpt lat="46.06371" lon="4.53927">
        <ele>769</ele>
        <time>2025-09-06T09:12:03Z</time>
      </trkpt>
      <trkpt lat="46.06372" lon="4.53927">
        <ele>769</ele>
        <time>2025-09-06T09:12:04Z</time>
      </trkpt>
      <trkpt lat="46.06374" lon="4.53928">
        <ele>768.8</ele>
        <time>2025-09-06T09:12:05Z</time>
      </trkpt>
      <trkpt lat="46.06375" lon="4.53928">
        <ele>768.8</ele>
        <time>2025-09-06T09:12:06Z</time>
      </trkpt>
      <trkpt lat="46.06376" lon="4.53928">
        <ele>768.8</ele>
        <time>2025-09-06T09:12:07Z</time>
      </trkpt>
      <trkpt lat="46.06377" lon="4.53928">
        <ele>768.6</ele>
        <time>2025-09-06T09:12:08Z</time>
      </trkpt>
      <trkpt lat="46.06377" lon="4.53928">
        <ele>768.6</ele>
        <time>2025-09-06T09:12:09Z</time>
      </trkpt>
      <trkpt lat="46.0638" lon="4.5393">
        <ele>770.4</ele>
        <time>2025-09-06T09:22:13Z</time>
      </trkpt>
      <trkpt lat="46.06379" lon="4.53931">
        <ele>770.4</ele>
        <time>2025-09-06T09:22:14Z</time>
      </trkpt>
      <trkpt lat="46.06379" lon="4.53931">
        <ele>770.4</ele>
        <time>2025-09-06T09:22:15Z</time>
      </trkpt>
      <trkpt lat="46.06379" lon="4.53929">
        <ele>770.4</ele>
        <time>2025-09-06T09:22:17Z</time>
      </trkpt>
      <trkpt lat="46.06382" lon="4.53932">
        <ele>770.6</ele>
        <time>2025-09-06T09:26:18Z</time>
      </trkpt>
      <trkpt lat="46.06382" lon="4.53932">
        <ele>770.6</ele>
        <time>2025-09-06T09:26:19Z</time>
      </trkpt>
      <trkpt lat="46.06382" lon="4.53934">
        <ele>770.4</ele>
        <time>2025-09-06T09:26:20Z</time>
      </trkpt>
      <trkpt lat="46.06383" lon="4.53937">
        <ele>770.2</ele>
        <time>2025-09-06T09:26:21Z</time>
      </trkpt>
      <trkpt lat="46.06384" lon="4.53937">
        <ele>770.2</ele>
        <time>2025-09-06T09:26:22Z</time>
      </trkpt>
      <trkpt lat="46.06384" lon="4.53937">
        <ele>770.2</ele>
        <time>2025-09-06T09:26:23Z</time>
      </trkpt>
      <trkpt lat="46.06384" lon="4.53937">
        <ele>770</ele>
        <time>2025-09-06T09:26:24Z</time>
      </trkpt>
      <trkpt lat="46.06384" lon="4.53939">
        <ele>769.8</ele>
        <time>2025-09-06T09:26:30Z</time>
      </trkpt>
      <trkpt lat="46.06385" lon="4.5394">
        <ele>769.6</ele>
        <time>2025-09-06T09:26:31Z</time>
      </trkpt>
      <trkpt lat="46.06384" lon="4.5394">
        <ele>769.6</ele>
        <time>2025-09-06T09:26:32Z</time>
      </trkpt>
      <trkpt lat="46.06384" lon="4.5394">
        <ele>769.4</ele>
        <time>2025-09-06T09:26:33Z</time>
      </trkpt>
      <trkpt lat="46.06386" lon="4.53939">
        <ele>769.2</ele>
        <time>2025-09-06T09:26:39Z</time>
      </trkpt>
      <trkpt lat="46.06387" lon="4.53939">
        <ele>769.2</ele>
        <time>2025-09-06T09:26:40Z</time>
      </trkpt>
      <trkpt lat="46.06387" lon="4.53938">
        <ele>769.2</ele>
        <time>2025-09-06T09:26:41Z</time>
      </trkpt>
      <trkpt lat="46.06387" lon="4.53938">
        <ele>769.2</ele>
        <time>2025-09-06T09:26:42Z</time>
      </trkpt>
      <trkpt lat="46.06387" lon="4.53938">
        <ele>769</ele>
        <time>2025-09-06T09:26:45Z</time>
      </trkpt>
      <trkpt lat="46.06387" lon="4.53938">
        <ele>769</ele>
        <time>2025-09-06T09:26:46Z</time>
      </trkpt>
      <trkpt lat="46.06388" lon="4.53938">
        <ele>769</ele>
        <time>2025-09-06T09:26:47Z</time>
      </trkpt>
      <trkpt lat="46.06389" lon="4.53937">
        <ele>769</ele>
        <time>2025-09-06T09:26:48Z</time>
      </trkpt>
      <trkpt lat="46.0639" lon="4.53936">
        <ele>769</ele>
        <time>2025-09-06T09:26:49Z</time>
      </trkpt>
      <trkpt lat="46.06391" lon="4.53934">
        <ele>768.6</ele>
        <time>2025-09-06T09:26:50Z</time>
      </trkpt>
      <trkpt lat="46.06392" lon="4.53933">
        <ele>768.6</ele>
        <time>2025-09-06T09:26:51Z</time>
      </trkpt>
      <trkpt lat="46.06393" lon="4.53932">
        <ele>768.4</ele>
        <time>2025-09-06T09:26:52Z</time>
      </trkpt>
      <trkpt lat="46.06394" lon="4.53932">
        <ele>767.2</ele>
        <time>2025-09-06T09:26:53Z</time>
      </trkpt>
      <trkpt lat="46.06396" lon="4.53933">
        <ele>767.6</ele>
        <time>2025-09-06T09:26:54Z</time>
      </trkpt>
      <trkpt lat="46.06398" lon="4.53934">
        <ele>767.8</ele>
        <time>2025-09-06T09:26:55Z</time>
      </trkpt>
      <trkpt lat="46.06399" lon="4.53934">
        <ele>768.2</ele>
        <time>2025-09-06T09:26:56Z</time>
      </trkpt>
      <trkpt lat="46.06401" lon="4.53934">
        <ele>768.2</ele>
        <time>2025-09-06T09:26:57Z</time>
      </trkpt>
      <trkpt lat="46.06403" lon="4.53935">
        <ele>768.2</ele>
        <time>2025-09-06T09:26:58Z</time>
      </trkpt>
      <trkpt lat="46.06405" lon="4.53935">
        <ele>768.2</ele>
        <time>2025-09-06T09:26:59Z</time>
      </trkpt>
      <trkpt lat="46.06407" lon="4.53936">
        <ele>768.2</ele>
        <time>2025-09-06T09:27:00Z</time>
      </trkpt>
      <trkpt lat="46.06409" lon="4.53936">
        <ele>768.2</ele>
        <time>2025-09-06T09:27:01Z</time>
      </trkpt>
      <trkpt lat="46.06411" lon="4.53936">
        <ele>768.2</ele>
        <time>2025-09-06T09:27:02Z</time>
      </trkpt>
      <trkpt lat="46.06413" lon="4.53936">
        <ele>767.8</ele>
        <time>2025-09-06T09:27:03Z</time>
      </trkpt>
      <trkpt lat="46.06415" lon="4.53936">
        <ele>767.8</ele>
        <time>2025-09-06T09:27:04Z</time>
      </trkpt>
      <trkpt lat="46.06417" lon="4.53936">
        <ele>767.6</ele>
        <time>2025-09-06T09:27:05Z</time>
      </trkpt>
      <trkpt lat="46.0642" lon="4.53936">
        <ele>767.6</ele>
        <time>2025-09-06T09:27:06Z</time>
      </trkpt>
      <trkpt lat="46.06422" lon="4.53937">
        <ele>767.6</ele>
        <time>2025-09-06T09:27:07Z</time>
      </trkpt>
      <trkpt lat="46.06423" lon="4.53937">
        <ele>767.2</ele>
        <time>2025-09-06T09:27:08Z</time>
      </trkpt>
      <trkpt lat="46.06425" lon="4.53937">
        <ele>767.2</ele>
        <time>2025-09-06T09:27:09Z</time>
      </trkpt>
      <trkpt lat="46.06426" lon="4.53937">
        <ele>767.2</ele>
        <time>2025-09-06T09:27:10Z</time>
      </trkpt>
      <trkpt lat="46.06427" lon="4.53937">
        <ele>767</ele>
        <time>2025-09-06T09:27:11Z</time>
      </trkpt>
      <trkpt lat="46.06429" lon="4.53936">
        <ele>767.2</ele>
        <time>2025-09-06T09:27:12Z</time>
      </trkpt>
      <trkpt lat="46.06431" lon="4.53936">
        <ele>766.8</ele>
        <time>2025-09-06T09:27:13Z</time>
      </trkpt>
      <trkpt lat="46.06433" lon="4.53936">
        <ele>766.8</ele>
        <time>2025-09-06T09:27:14Z</time>
      </trkpt>
      <trkpt lat="46.06435" lon="4.53937">
        <ele>766.8</ele>
        <time>2025-09-06T09:27:15Z</time>
      </trkpt>
      <trkpt lat="46.06436" lon="4.53937">
        <ele>766.8</ele>
        <time>2025-09-06T09:27:16Z</time>
      </trkpt>
      <trkpt lat="46.06437" lon="4.53937">
        <ele>766.8</ele>
        <time>2025-09-06T09:27:17Z</time>
      </trkpt>
      <trkpt lat="46.06437" lon="4.53938">
        <ele>766.8</ele>
        <time>2025-09-06T09:27:18Z</time>
      </trkpt>
      <trkpt lat="46.06438" lon="4.53937">
        <ele>766.6</ele>
        <time>2025-09-06T09:27:19Z</time>
      </trkpt>
      <trkpt lat="46.06437" lon="4.53937">
        <ele>766.6</ele>
        <time>2025-09-06T09:27:20Z</time>
      </trkpt>
      <trkpt lat="46.0644" lon="4.53939">
        <ele>766.6</ele>
        <time>2025-09-06T09:27:38Z</time>
      </trkpt>
      <trkpt lat="46.0644" lon="4.53939">
        <ele>766.2</ele>
        <time>2025-09-06T09:27:39Z</time>
      </trkpt>
      <trkpt lat="46.06442" lon="4.53939">
        <ele>766</ele>
        <time>2025-09-06T09:27:40Z</time>
      </trkpt>
      <trkpt lat="46.06445" lon="4.5394">
        <ele>765.8</ele>
        <time>2025-09-06T09:27:41Z</time>
      </trkpt>
      <trkpt lat="46.06447" lon="4.53941">
        <ele>765.2</ele>
        <time>2025-09-06T09:27:42Z</time>
      </trkpt>
      <trkpt lat="46.06451" lon="4.53941">
        <ele>764.8</ele>
        <time>2025-09-06T09:27:43Z</time>
      </trkpt>
      <trkpt lat="46.06454" lon="4.53942">
        <ele>765.4</ele>
        <time>2025-09-06T09:27:44Z</time>
      </trkpt>
      <trkpt lat="46.06458" lon="4.53944">
        <ele>765</ele>
        <time>2025-09-06T09:27:45Z</time>
      </trkpt>
      <trkpt lat="46.06462" lon="4.53946">
        <ele>764.4</ele>
        <time>2025-09-06T09:27:46Z</time>
      </trkpt>
      <trkpt lat="46.06466" lon="4.53949">
        <ele>763.4</ele>
        <time>2025-09-06T09:27:47Z</time>
      </trkpt>
      <trkpt lat="46.0647" lon="4.5395">
        <ele>763</ele>
        <time>2025-09-06T09:27:48Z</time>
      </trkpt>
      <trkpt lat="46.06474" lon="4.53951">
        <ele>762.8</ele>
        <time>2025-09-06T09:27:49Z</time>
      </trkpt>
      <trkpt lat="46.06477" lon="4.53952">
        <ele>762.8</ele>
        <time>2025-09-06T09:27:50Z</time>
      </trkpt>
      <trkpt lat="46.06481" lon="4.53954">
        <ele>762</ele>
        <time>2025-09-06T09:27:51Z</time>
      </trkpt>
      <trkpt lat="46.06484" lon="4.53956">
        <ele>762</ele>
        <time>2025-09-06T09:27:52Z</time>
      </trkpt>
      <trkpt lat="46.06487" lon="4.53957">
        <ele>762</ele>
        <time>2025-09-06T09:27:53Z</time>
      </trkpt>
      <trkpt lat="46.06491" lon="4.53959">
        <ele>761.4</ele>
        <time>2025-09-06T09:27:54Z</time>
      </trkpt>
      <trkpt lat="46.06494" lon="4.53961">
        <ele>760.8</ele>
        <time>2025-09-06T09:27:55Z</time>
      </trkpt>
      <trkpt lat="46.06498" lon="4.53963">
        <ele>759.8</ele>
        <time>2025-09-06T09:27:56Z</time>
      </trkpt>
      <trkpt lat="46.06501" lon="4.53966">
        <ele>759.2</ele>
        <time>2025-09-06T09:27:57Z</time>
      </trkpt>
      <trkpt lat="46.06505" lon="4.53968">
        <ele>759</ele>
        <time>2025-09-06T09:27:58Z</time>
      </trkpt>
      <trkpt lat="46.06508" lon="4.53971">
        <ele>759</ele>
        <time>2025-09-06T09:27:59Z</time>
      </trkpt>
      <trkpt lat="46.06512" lon="4.53973">
        <ele>758.4</ele>
        <time>2025-09-06T09:28:00Z</time>
      </trkpt>
      <trkpt lat="46.06515" lon="4.53975">
        <ele>758.8</ele>
        <time>2025-09-06T09:28:01Z</time>
      </trkpt>
      <trkpt lat="46.06519" lon="4.53977">
        <ele>758.2</ele>
        <time>2025-09-06T09:28:02Z</time>
      </trkpt>
      <trkpt lat="46.06522" lon="4.53979">
        <ele>757.2</ele>
        <time>2025-09-06T09:28:03Z</time>
      </trkpt>
      <trkpt lat="46.06526" lon="4.53981">
        <ele>757</ele>
        <time>2025-09-06T09:28:04Z</time>
      </trkpt>
      <trkpt lat="46.06529" lon="4.53983">
        <ele>756.2</ele>
        <time>2025-09-06T09:28:05Z</time>
      </trkpt>
      <trkpt lat="46.06533" lon="4.53984">
        <ele>755.4</ele>
        <time>2025-09-06T09:28:06Z</time>
      </trkpt>
      <trkpt lat="46.06537" lon="4.53986">
        <ele>754.2</ele>
        <time>2025-09-06T09:28:07Z</time>
      </trkpt>
      <trkpt lat="46.06541" lon="4.53988">
        <ele>753.8</ele>
        <time>2025-09-06T09:28:08Z</time>
      </trkpt>
      <trkpt lat="46.06544" lon="4.53991">
        <ele>753</ele>
        <time>2025-09-06T09:28:09Z</time>
      </trkpt>
      <trkpt lat="46.06547" lon="4.53993">
        <ele>753</ele>
        <time>2025-09-06T09:28:10Z</time>
      </trkpt>
      <trkpt lat="46.06549" lon="4.53994">
        <ele>752.6</ele>
        <time>2025-09-06T09:28:11Z</time>
      </trkpt>
      <trkpt lat="46.06553" lon="4.53996">
        <ele>752</ele>
        <time>2025-09-06T09:28:12Z</time>
      </trkpt>
      <trkpt lat="46.06556" lon="4.53998">
        <ele>752.6</ele>
        <time>2025-09-06T09:28:13Z</time>
      </trkpt>
      <trkpt lat="46.06559" lon="4.54">
        <ele>752.4</ele>
        <time>2025-09-06T09:28:14Z</time>
      </trkpt>
      <trkpt lat="46.06563" lon="4.54002">
        <ele>752.4</ele>
        <time>2025-09-06T09:28:15Z</time>
      </trkpt>
      <trkpt lat="46.06567" lon="4.54003">
        <ele>752</ele>
        <time>2025-09-06T09:28:16Z</time>
      </trkpt>
      <trkpt lat="46.0657" lon="4.54005">
        <ele>751.2</ele>
        <time>2025-09-06T09:28:17Z</time>
      </trkpt>
      <trkpt lat="46.06574" lon="4.54007">
        <ele>751</ele>
        <time>2025-09-06T09:28:18Z</time>
      </trkpt>
      <trkpt lat="46.06577" lon="4.5401">
        <ele>750.6</ele>
        <time>2025-09-06T09:28:19Z</time>
      </trkpt>
      <trkpt lat="46.06582" lon="4.54012">
        <ele>750.4</ele>
        <time>2025-09-06T09:28:20Z</time>
      </trkpt>
      <trkpt lat="46.06586" lon="4.54015">
        <ele>750.4</ele>
        <time>2025-09-06T09:28:21Z</time>
      </trkpt>
      <trkpt lat="46.06591" lon="4.54017">
        <ele>749.6</ele>
        <time>2025-09-06T09:28:22Z</time>
      </trkpt>
      <trkpt lat="46.06595" lon="4.5402">
        <ele>749.6</ele>
        <time>2025-09-06T09:28:23Z</time>
      </trkpt>
      <trkpt lat="46.066" lon="4.54022">
        <ele>749</ele>
        <time>2025-09-06T09:28:24Z</time>
      </trkpt>
      <trkpt lat="46.06605" lon="4.54026">
        <ele>749</ele>
        <time>2025-09-06T09:28:25Z</time>
      </trkpt>
      <trkpt lat="46.06609" lon="4.54029">
        <ele>749</ele>
        <time>2025-09-06T09:28:26Z</time>
      </trkpt>
      <trkpt lat="46.06614" lon="4.54032">
        <ele>748.2</ele>
        <time>2025-09-06T09:28:27Z</time>
      </trkpt>
      <trkpt lat="46.06618" lon="4.54036">
        <ele>747.8</ele>
        <time>2025-09-06T09:28:28Z</time>
      </trkpt>
      <trkpt lat="46.06622" lon="4.54039">
        <ele>747.6</ele>
        <time>2025-09-06T09:28:29Z</time>
      </trkpt>
      <trkpt lat="46.06626" lon="4.54043">
        <ele>747</ele>
        <time>2025-09-06T09:28:30Z</time>
      </trkpt>
      <trkpt lat="46.06629" lon="4.54047">
        <ele>747</ele>
        <time>2025-09-06T09:28:31Z</time>
      </trkpt>
      <trkpt lat="46.06634" lon="4.5405">
        <ele>747</ele>
        <time>2025-09-06T09:28:32Z</time>
      </trkpt>
      <trkpt lat="46.06637" lon="4.54053">
        <ele>747</ele>
        <time>2025-09-06T09:28:33Z</time>
      </trkpt>
      <trkpt lat="46.06641" lon="4.54055">
        <ele>747</ele>
        <time>2025-09-06T09:28:34Z</time>
      </trkpt>
      <trkpt lat="46.06644" lon="4.54058">
        <ele>747.6</ele>
        <time>2025-09-06T09:28:35Z</time>
      </trkpt>
      <trkpt lat="46.06647" lon="4.54062">
        <ele>747.6</ele>
        <time>2025-09-06T09:28:36Z</time>
      </trkpt>
      <trkpt lat="46.0665" lon="4.54066">
        <ele>747</ele>
        <time>2025-09-06T09:28:37Z</time>
      </trkpt>
      <trkpt lat="46.06652" lon="4.54071">
        <ele>747</ele>
        <time>2025-09-06T09:28:38Z</time>
      </trkpt>
      <trkpt lat="46.06656" lon="4.54073">
        <ele>747</ele>
        <time>2025-09-06T09:28:39Z</time>
      </trkpt>
      <trkpt lat="46.0666" lon="4.54075">
        <ele>747</ele>
        <time>2025-09-06T09:28:40Z</time>
      </trkpt>
      <trkpt lat="46.06664" lon="4.54076">
        <ele>747</ele>
        <time>2025-09-06T09:28:41Z</time>
      </trkpt>
      <trkpt lat="46.06667" lon="4.54078">
        <ele>747</ele>
        <time>2025-09-06T09:28:42Z</time>
      </trkpt>
      <trkpt lat="46.06671" lon="4.54078">
        <ele>746.4</ele>
        <time>2025-09-06T09:28:43Z</time>
      </trkpt>
      <trkpt lat="46.06674" lon="4.5408">
        <ele>745.8</ele>
        <time>2025-09-06T09:28:44Z</time>
      </trkpt>
      <trkpt lat="46.06678" lon="4.54082">
        <ele>745.2</ele>
        <time>2025-09-06T09:28:45Z</time>
      </trkpt>
      <trkpt lat="46.06683" lon="4.54088">
        <ele>744.8</ele>
        <time>2025-09-06T09:28:46Z</time>
      </trkpt>
      <trkpt lat="46.06688" lon="4.54092">
        <ele>745</ele>
        <time>2025-09-06T09:28:47Z</time>
      </trkpt>
      <trkpt lat="46.06693" lon="4.54096">
        <ele>744.6</ele>
        <time>2025-09-06T09:28:48Z</time>
      </trkpt>
      <trkpt lat="46.067" lon="4.54099">
        <ele>744.6</ele>
        <time>2025-09-06T09:28:49Z</time>
      </trkpt>
      <trkpt lat="46.06704" lon="4.54105">
        <ele>744</ele>
        <time>2025-09-06T09:28:50Z</time>
      </trkpt>
      <trkpt lat="46.0671" lon="4.54109">
        <ele>744</ele>
        <time>2025-09-06T09:28:51Z</time>
      </trkpt>
      <trkpt lat="46.06717" lon="4.54113">
        <ele>744</ele>
        <time>2025-09-06T09:28:52Z</time>
      </trkpt>
      <trkpt lat="46.06723" lon="4.54117">
        <ele>743.6</ele>
        <time>2025-09-06T09:28:53Z</time>
      </trkpt>
      <trkpt lat="46.06728" lon="4.5412">
        <ele>743.4</ele>
        <time>2025-09-06T09:28:54Z</time>
      </trkpt>
      <trkpt lat="46.06732" lon="4.54124">
        <ele>742.8</ele>
        <time>2025-09-06T09:28:55Z</time>
      </trkpt>
      <trkpt lat="46.06737" lon="4.54126">
        <ele>742.2</ele>
        <time>2025-09-06T09:28:56Z</time>
      </trkpt>
      <trkpt lat="46.06741" lon="4.54128">
        <ele>742.2</ele>
        <time>2025-09-06T09:28:57Z</time>
      </trkpt>
      <trkpt lat="46.06744" lon="4.54133">
        <ele>742.2</ele>
        <time>2025-09-06T09:28:58Z</time>
      </trkpt>
      <trkpt lat="46.06747" lon="4.54136">
        <ele>742</ele>
        <time>2025-09-06T09:28:59Z</time>
      </trkpt>
      <trkpt lat="46.06749" lon="4.54139">
        <ele>741.8</ele>
        <time>2025-09-06T09:29:00Z</time>
      </trkpt>
      <trkpt lat="46.06751" lon="4.54143">
        <ele>741.8</ele>
        <time>2025-09-06T09:29:01Z</time>
      </trkpt>
      <trkpt lat="46.06752" lon="4.54144">
        <ele>741.8</ele>
        <time>2025-09-06T09:29:02Z</time>
      </trkpt>
      <trkpt lat="46.06754" lon="4.54144">
        <ele>741.8</ele>
        <time>2025-09-06T09:29:03Z</time>
      </trkpt>
      <trkpt lat="46.06756" lon="4.54146">
        <ele>741.8</ele>
        <time>2025-09-06T09:29:04Z</time>
      </trkpt>
      <trkpt lat="46.06756" lon="4.54148">
        <ele>741.8</ele>
        <time>2025-09-06T09:29:05Z</time>
      </trkpt>
      <trkpt lat="46.06757" lon="4.5415">
        <ele>741.8</ele>
        <time>2025-09-06T09:29:06Z</time>
      </trkpt>
      <trkpt lat="46.06758" lon="4.54152">
        <ele>741.8</ele>
        <time>2025-09-06T09:29:07Z</time>
      </trkpt>
      <trkpt lat="46.06759" lon="4.54155">
        <ele>741.8</ele>
        <time>2025-09-06T09:29:08Z</time>
      </trkpt>
      <trkpt lat="46.06761" lon="4.54157">
        <ele>742.6</ele>
        <time>2025-09-06T09:29:09Z</time>
      </trkpt>
      <trkpt lat="46.06761" lon="4.54157">
        <ele>741.8</ele>
        <time>2025-09-06T09:29:10Z</time>
      </trkpt>
      <trkpt lat="46.06762" lon="4.5416">
        <ele>741.8</ele>
        <time>2025-09-06T09:29:11Z</time>
      </trkpt>
      <trkpt lat="46.06763" lon="4.54163">
        <ele>741.4</ele>
        <time>2025-09-06T09:29:12Z</time>
      </trkpt>
      <trkpt lat="46.06763" lon="4.54165">
        <ele>741.4</ele>
        <time>2025-09-06T09:29:13Z</time>
      </trkpt>
      <trkpt lat="46.06763" lon="4.54164">
        <ele>741.4</ele>
        <time>2025-09-06T09:29:14Z</time>
      </trkpt>
      <trkpt lat="46.06762" lon="4.54164">
        <ele>741.4</ele>
        <time>2025-09-06T09:29:15Z</time>
      </trkpt>
      <trkpt lat="46.06762" lon="4.54164">
        <ele>741.4</ele>
        <time>2025-09-06T09:29:16Z</time>
      </trkpt>
      <trkpt lat="46.06761" lon="4.54165">
        <ele>741.2</ele>
        <time>2025-09-06T09:29:17Z</time>
      </trkpt>
      <trkpt lat="46.06761" lon="4.54164">
        <ele>741.2</ele>
        <time>2025-09-06T09:29:18Z</time>
      </trkpt>
      <trkpt lat="46.0676" lon="4.54165">
        <ele>741.2</ele>
        <time>2025-09-06T09:29:23Z</time>
      </trkpt>
      <trkpt lat="46.06762" lon="4.54167">
        <ele>741.2</ele>
        <time>2025-09-06T09:29:24Z</time>
      </trkpt>
      <trkpt lat="46.06763" lon="4.54168">
        <ele>741.6</ele>
        <time>2025-09-06T09:29:25Z</time>
      </trkpt>
      <trkpt lat="46.06766" lon="4.5417">
        <ele>741.6</ele>
        <time>2025-09-06T09:29:26Z</time>
      </trkpt>
      <trkpt lat="46.06768" lon="4.54171">
        <ele>741.2</ele>
        <time>2025-09-06T09:29:27Z</time>
      </trkpt>
      <trkpt lat="46.0677" lon="4.54173">
        <ele>741</ele>
        <time>2025-09-06T09:29:28Z</time>
      </trkpt>
      <trkpt lat="46.06772" lon="4.54175">
        <ele>741</ele>
        <time>2025-09-06T09:29:29Z</time>
      </trkpt>
      <trkpt lat="46.06774" lon="4.54177">
        <ele>741</ele>
        <time>2025-09-06T09:29:30Z</time>
      </trkpt>
      <trkpt lat="46.06776" lon="4.54179">
        <ele>740.8</ele>
        <time>2025-09-06T09:29:31Z</time>
      </trkpt>
      <trkpt lat="46.06778" lon="4.54181">
        <ele>741</ele>
        <time>2025-09-06T09:29:32Z</time>
      </trkpt>
      <trkpt lat="46.06781" lon="4.54183">
        <ele>740.8</ele>
        <time>2025-09-06T09:29:33Z</time>
      </trkpt>
      <trkpt lat="46.06782" lon="4.54186">
        <ele>740.8</ele>
        <time>2025-09-06T09:29:34Z</time>
      </trkpt>
      <trkpt lat="46.06784" lon="4.54195">
        <ele>740.8</ele>
        <time>2025-09-06T09:29:35Z</time>
      </trkpt>
      <trkpt lat="46.06784" lon="4.542">
        <ele>740.8</ele>
        <time>2025-09-06T09:29:36Z</time>
      </trkpt>
      <trkpt lat="46.06784" lon="4.54205">
        <ele>741</ele>
        <time>2025-09-06T09:29:37Z</time>
      </trkpt>
      <trkpt lat="46.06785" lon="4.5421">
        <ele>741.2</ele>
        <time>2025-09-06T09:29:38Z</time>
      </trkpt>
      <trkpt lat="46.06785" lon="4.54214">
        <ele>741.2</ele>
        <time>2025-09-06T09:29:39Z</time>
      </trkpt>
      <trkpt lat="46.06787" lon="4.54218">
        <ele>741</ele>
        <time>2025-09-06T09:29:40Z</time>
      </trkpt>
      <trkpt lat="46.0679" lon="4.54221">
        <ele>741</ele>
        <time>2025-09-06T09:29:41Z</time>
      </trkpt>
      <trkpt lat="46.06792" lon="4.54225">
        <ele>741</ele>
        <time>2025-09-06T09:29:42Z</time>
      </trkpt>
      <trkpt lat="46.06794" lon="4.54229">
        <ele>741</ele>
        <time>2025-09-06T09:29:43Z</time>
      </trkpt>
      <trkpt lat="46.06796" lon="4.54232">
        <ele>741.2</ele>
        <time>2025-09-06T09:29:44Z</time>
      </trkpt>
      <trkpt lat="46.06798" lon="4.54236">
        <ele>741.2</ele>
        <time>2025-09-06T09:29:45Z</time>
      </trkpt>
      <trkpt lat="46.068" lon="4.54239">
        <ele>741.2</ele>
        <time>2025-09-06T09:29:46Z</time>
      </trkpt>
      <trkpt lat="46.06802" lon="4.54242">
        <ele>741.2</ele>
        <time>2025-09-06T09:29:47Z</time>
      </trkpt>
      <trkpt lat="46.06805" lon="4.54245">
        <ele>741.6</ele>
        <time>2025-09-06T09:29:48Z</time>
      </trkpt>
      <trkpt lat="46.06808" lon="4.54247">
        <ele>742</ele>
        <time>2025-09-06T09:29:49Z</time>
      </trkpt>
      <trkpt lat="46.0681" lon="4.54249">
        <ele>742</ele>
        <time>2025-09-06T09:29:50Z</time>
      </trkpt>
      <trkpt lat="46.06813" lon="4.54251">
        <ele>742</ele>
        <time>2025-09-06T09:29:51Z</time>
      </trkpt>
      <trkpt lat="46.06815" lon="4.54254">
        <ele>742</ele>
        <time>2025-09-06T09:29:52Z</time>
      </trkpt>
      <trkpt lat="46.06818" lon="4.54256">
        <ele>741.8</ele>
        <time>2025-09-06T09:29:53Z</time>
      </trkpt>
      <trkpt lat="46.06821" lon="4.54259">
        <ele>741.8</ele>
        <time>2025-09-06T09:29:54Z</time>
      </trkpt>
      <trkpt lat="46.06824" lon="4.54261">
        <ele>741.8</ele>
        <time>2025-09-06T09:29:55Z</time>
      </trkpt>
      <trkpt lat="46.06827" lon="4.54264">
        <ele>741.8</ele>
        <time>2025-09-06T09:29:56Z</time>
      </trkpt>
      <trkpt lat="46.0683" lon="4.54266">
        <ele>742</ele>
        <time>2025-09-06T09:29:57Z</time>
      </trkpt>
      <trkpt lat="46.06833" lon="4.54269">
        <ele>742</ele>
        <time>2025-09-06T09:29:58Z</time>
      </trkpt>
      <trkpt lat="46.06836" lon="4.54271">
        <ele>742.2</ele>
        <time>2025-09-06T09:29:59Z</time>
      </trkpt>
      <trkpt lat="46.06839" lon="4.54274">
        <ele>742.6</ele>
        <time>2025-09-06T09:30:00Z</time>
      </trkpt>
      <trkpt lat="46.06842" lon="4.54277">
        <ele>742.6</ele>
        <time>2025-09-06T09:30:01Z</time>
      </trkpt>
      <trkpt lat="46.06846" lon="4.54279">
        <ele>742.6</ele>
        <time>2025-09-06T09:30:02Z</time>
      </trkpt>
      <trkpt lat="46.06848" lon="4.54281">
        <ele>742.6</ele>
        <time>2025-09-06T09:30:03Z</time>
      </trkpt>
      <trkpt lat="46.06851" lon="4.54283">
        <ele>743</ele>
        <time>2025-09-06T09:30:04Z</time>
      </trkpt>
      <trkpt lat="46.06854" lon="4.54285">
        <ele>743</ele>
        <time>2025-09-06T09:30:05Z</time>
      </trkpt>
      <trkpt lat="46.06857" lon="4.54288">
        <ele>743.2</ele>
        <time>2025-09-06T09:30:06Z</time>
      </trkpt>
      <trkpt lat="46.0686" lon="4.5429">
        <ele>743.2</ele>
        <time>2025-09-06T09:30:07Z</time>
      </trkpt>
      <trkpt lat="46.06862" lon="4.54291">
        <ele>743.6</ele>
        <time>2025-09-06T09:30:08Z</time>
      </trkpt>
      <trkpt lat="46.06865" lon="4.54293">
        <ele>743.8</ele>
        <time>2025-09-06T09:30:09Z</time>
      </trkpt>
      <trkpt lat="46.06867" lon="4.54294">
        <ele>743.8</ele>
        <time>2025-09-06T09:30:10Z</time>
      </trkpt>
      <trkpt lat="46.06869" lon="4.54296">
        <ele>744</ele>
        <time>2025-09-06T09:30:11Z</time>
      </trkpt>
      <trkpt lat="46.06871" lon="4.54297">
        <ele>744</ele>
        <time>2025-09-06T09:30:12Z</time>
      </trkpt>
      <trkpt lat="46.06874" lon="4.54299">
        <ele>744</ele>
        <time>2025-09-06T09:30:13Z</time>
      </trkpt>
      <trkpt lat="46.06877" lon="4.543">
        <ele>744</ele>
        <time>2025-09-06T09:30:14Z</time>
      </trkpt>
      <trkpt lat="46.06879" lon="4.54301">
        <ele>744</ele>
        <time>2025-09-06T09:30:15Z</time>
      </trkpt>
      <trkpt lat="46.06881" lon="4.54302">
        <ele>744.2</ele>
        <time>2025-09-06T09:30:16Z</time>
      </trkpt>
      <trkpt lat="46.06883" lon="4.54304">
        <ele>744.2</ele>
        <time>2025-09-06T09:30:17Z</time>
      </trkpt>
      <trkpt lat="46.06885" lon="4.54305">
        <ele>744.6</ele>
        <time>2025-09-06T09:30:18Z</time>
      </trkpt>
      <trkpt lat="46.06887" lon="4.54306">
        <ele>744.6</ele>
        <time>2025-09-06T09:30:19Z</time>
      </trkpt>
      <trkpt lat="46.06889" lon="4.54307">
        <ele>744.6</ele>
        <time>2025-09-06T09:30:20Z</time>
      </trkpt>
      <trkpt lat="46.06891" lon="4.54308">
        <ele>744.8</ele>
        <time>2025-09-06T09:30:21Z</time>
      </trkpt>
      <trkpt lat="46.06893" lon="4.54309">
        <ele>744.8</ele>
        <time>2025-09-06T09:30:22Z</time>
      </trkpt>
      <trkpt lat="46.06895" lon="4.5431">
        <ele>744.8</ele>
        <time>2025-09-06T09:30:23Z</time>
      </trkpt>
      <trkpt lat="46.06897" lon="4.54312">
        <ele>745</ele>
        <time>2025-09-06T09:30:24Z</time>
      </trkpt>
      <trkpt lat="46.06899" lon="4.54313">
        <ele>745</ele>
        <time>2025-09-06T09:30:25Z</time>
      </trkpt>
      <trkpt lat="46.06901" lon="4.54314">
        <ele>745.4</ele>
        <time>2025-09-06T09:30:26Z</time>
      </trkpt>
      <trkpt lat="46.06902" lon="4.54315">
        <ele>746</ele>
        <time>2025-09-06T09:30:27Z</time>
      </trkpt>
      <trkpt lat="46.06904" lon="4.54317">
        <ele>746</ele>
        <time>2025-09-06T09:30:28Z</time>
      </trkpt>
      <trkpt lat="46.06905" lon="4.54318">
        <ele>746.4</ele>
        <time>2025-09-06T09:30:29Z</time>
      </trkpt>
      <trkpt lat="46.06907" lon="4.5432">
        <ele>746.4</ele>
        <time>2025-09-06T09:30:30Z</time>
      </trkpt>
      <trkpt lat="46.06909" lon="4.54321">
        <ele>746.4</ele>
        <time>2025-09-06T09:30:31Z</time>
      </trkpt>
      <trkpt lat="46.06911" lon="4.54322">
        <ele>746.4</ele>
        <time>2025-09-06T09:30:32Z</time>
      </trkpt>
      <trkpt lat="46.06913" lon="4.54323">
        <ele>746.4</ele>
        <time>2025-09-06T09:30:33Z</time>
      </trkpt>
      <trkpt lat="46.06915" lon="4.54324">
        <ele>746.8</ele>
        <time>2025-09-06T09:30:34Z</time>
      </trkpt>
      <trkpt lat="46.06916" lon="4.54325">
        <ele>746.8</ele>
        <time>2025-09-06T09:30:35Z</time>
      </trkpt>
      <trkpt lat="46.06919" lon="4.54326">
        <ele>746.6</ele>
        <time>2025-09-06T09:30:36Z</time>
      </trkpt>
      <trkpt lat="46.06921" lon="4.54327">
        <ele>746.6</ele>
        <time>2025-09-06T09:30:37Z</time>
      </trkpt>
      <trkpt lat="46.06923" lon="4.54329">
        <ele>746.6</ele>
        <time>2025-09-06T09:30:38Z</time>
      </trkpt>
      <trkpt lat="46.06925" lon="4.54331">
        <ele>746.6</ele>
        <time>2025-09-06T09:30:39Z</time>
      </trkpt>
      <trkpt lat="46.06928" lon="4.54333">
        <ele>746.2</ele>
        <time>2025-09-06T09:30:40Z</time>
      </trkpt>
      <trkpt lat="46.06931" lon="4.54334">
        <ele>746.2</ele>
        <time>2025-09-06T09:30:41Z</time>
      </trkpt>
      <trkpt lat="46.06934" lon="4.54336">
        <ele>746.2</ele>
        <time>2025-09-06T09:30:42Z</time>
      </trkpt>
      <trkpt lat="46.06938" lon="4.54339">
        <ele>746</ele>
        <time>2025-09-06T09:30:43Z</time>
      </trkpt>
      <trkpt lat="46.06942" lon="4.54342">
        <ele>745.8</ele>
        <time>2025-09-06T09:30:44Z</time>
      </trkpt>
      <trkpt lat="46.06946" lon="4.54345">
        <ele>745.6</ele>
        <time>2025-09-06T09:30:45Z</time>
      </trkpt>
      <trkpt lat="46.0695" lon="4.54348">
        <ele>745.4</ele>
        <time>2025-09-06T09:30:46Z</time>
      </trkpt>
      <trkpt lat="46.06954" lon="4.54352">
        <ele>745</ele>
        <time>2025-09-06T09:30:47Z</time>
      </trkpt>
      <trkpt lat="46.06958" lon="4.54355">
        <ele>745</ele>
        <time>2025-09-06T09:30:48Z</time>
      </trkpt>
      <trkpt lat="46.06962" lon="4.54359">
        <ele>744.8</ele>
        <time>2025-09-06T09:30:49Z</time>
      </trkpt>
      <trkpt lat="46.06966" lon="4.54363">
        <ele>745.2</ele>
        <time>2025-09-06T09:30:50Z</time>
      </trkpt>
      <trkpt lat="46.0697" lon="4.54368">
        <ele>745</ele>
        <time>2025-09-06T09:30:51Z</time>
      </trkpt>
      <trkpt lat="46.06974" lon="4.54372">
        <ele>745</ele>
        <time>2025-09-06T09:30:52Z</time>
      </trkpt>
      <trkpt lat="46.06979" lon="4.54376">
        <ele>744.6</ele>
        <time>2025-09-06T09:30:53Z</time>
      </trkpt>
      <trkpt lat="46.06983" lon="4.54381">
        <ele>744.6</ele>
        <time>2025-09-06T09:30:54Z</time>
      </trkpt>
      <trkpt lat="46.06987" lon="4.54386">
        <ele>744</ele>
        <time>2025-09-06T09:30:55Z</time>
      </trkpt>
      <trkpt lat="46.06991" lon="4.54391">
        <ele>743.8</ele>
        <time>2025-09-06T09:30:56Z</time>
      </trkpt>
      <trkpt lat="46.06994" lon="4.54394">
        <ele>743.4</ele>
        <time>2025-09-06T09:30:57Z</time>
      </trkpt>
      <trkpt lat="46.06998" lon="4.54398">
        <ele>743</ele>
        <time>2025-09-06T09:30:58Z</time>
      </trkpt>
      <trkpt lat="46.07001" lon="4.544">
        <ele>743.2</ele>
        <time>2025-09-06T09:30:59Z</time>
      </trkpt>
      <trkpt lat="46.07007" lon="4.54404">
        <ele>743.4</ele>
        <time>2025-09-06T09:31:00Z</time>
      </trkpt>
      <trkpt lat="46.0701" lon="4.54407">
        <ele>743.4</ele>
        <time>2025-09-06T09:31:01Z</time>
      </trkpt>
      <trkpt lat="46.07013" lon="4.54411">
        <ele>742.8</ele>
        <time>2025-09-06T09:31:02Z</time>
      </trkpt>
      <trkpt lat="46.07016" lon="4.54415">
        <ele>743</ele>
        <time>2025-09-06T09:31:03Z</time>
      </trkpt>
      <trkpt lat="46.0702" lon="4.54417">
        <ele>743.4</ele>
        <time>2025-09-06T09:31:04Z</time>
      </trkpt>
      <trkpt lat="46.07022" lon="4.54421">
        <ele>743.8</ele>
        <time>2025-09-06T09:31:05Z</time>
      </trkpt>
      <trkpt lat="46.07025" lon="4.54424">
        <ele>743.8</ele>
        <time>2025-09-06T09:31:06Z</time>
      </trkpt>
      <trkpt lat="46.07028" lon="4.54425">
        <ele>743.8</ele>
        <time>2025-09-06T09:31:07Z</time>
      </trkpt>
      <trkpt lat="46.07031" lon="4.54428">
        <ele>743.4</ele>
        <time>2025-09-06T09:31:08Z</time>
      </trkpt>
      <trkpt lat="46.07033" lon="4.5443">
        <ele>744</ele>
        <time>2025-09-06T09:31:09Z</time>
      </trkpt>
      <trkpt lat="46.07035" lon="4.54432">
        <ele>743.6</ele>
        <time>2025-09-06T09:31:10Z</time>
      </trkpt>
      <trkpt lat="46.07037" lon="4.54433">
        <ele>744</ele>
        <time>2025-09-06T09:31:11Z</time>
      </trkpt>
      <trkpt lat="46.07039" lon="4.54433">
        <ele>744.4</ele>
        <time>2025-09-06T09:31:12Z</time>
      </trkpt>
      <trkpt lat="46.07041" lon="4.54434">
        <ele>744.4</ele>
        <time>2025-09-06T09:31:13Z</time>
      </trkpt>
      <trkpt lat="46.07043" lon="4.54435">
        <ele>744.6</ele>
        <time>2025-09-06T09:31:14Z</time>
      </trkpt>
      <trkpt lat="46.07046" lon="4.54436">
        <ele>744.6</ele>
        <time>2025-09-06T09:31:15Z</time>
      </trkpt>
      <trkpt lat="46.07048" lon="4.54438">
        <ele>745</ele>
        <time>2025-09-06T09:31:16Z</time>
      </trkpt>
      <trkpt lat="46.07051" lon="4.5444">
        <ele>745</ele>
        <time>2025-09-06T09:31:17Z</time>
      </trkpt>
      <trkpt lat="46.07054" lon="4.54441">
        <ele>745</ele>
        <time>2025-09-06T09:31:18Z</time>
      </trkpt>
      <trkpt lat="46.07057" lon="4.54442">
        <ele>744.6</ele>
        <time>2025-09-06T09:31:19Z</time>
      </trkpt>
      <trkpt lat="46.07059" lon="4.54443">
        <ele>745.2</ele>
        <time>2025-09-06T09:31:20Z</time>
      </trkpt>
      <trkpt lat="46.07061" lon="4.54444">
        <ele>745.2</ele>
        <time>2025-09-06T09:31:21Z</time>
      </trkpt>
      <trkpt lat="46.07063" lon="4.54444">
        <ele>745.6</ele>
        <time>2025-09-06T09:31:22Z</time>
      </trkpt>
      <trkpt lat="46.07064" lon="4.54445">
        <ele>745.6</ele>
        <time>2025-09-06T09:31:23Z</time>
      </trkpt>
      <trkpt lat="46.07065" lon="4.54445">
        <ele>745.8</ele>
        <time>2025-09-06T09:31:24Z</time>
      </trkpt>
      <trkpt lat="46.07066" lon="4.54445">
        <ele>745.8</ele>
        <time>2025-09-06T09:31:25Z</time>
      </trkpt>
      <trkpt lat="46.07066" lon="4.54445">
        <ele>745.8</ele>
        <time>2025-09-06T09:31:26Z</time>
      </trkpt>
      <trkpt lat="46.07067" lon="4.54447">
        <ele>746.2</ele>
        <time>2025-09-06T09:33:45Z</time>
      </trkpt>
      <trkpt lat="46.07067" lon="4.54447">
        <ele>745.8</ele>
        <time>2025-09-06T09:33:46Z</time>
      </trkpt>
      <trkpt lat="46.07067" lon="4.54447">
        <ele>745.6</ele>
        <time>2025-09-06T09:33:47Z</time>
      </trkpt>
      <trkpt lat="46.07077" lon="4.54451">
        <ele>745.2</ele>
        <time>2025-09-06T09:33:49Z</time>
      </trkpt>
      <trkpt lat="46.0708" lon="4.54452">
        <ele>745.2</ele>
        <time>2025-09-06T09:33:50Z</time>
      </trkpt>
      <trkpt lat="46.07083" lon="4.54453">
        <ele>745.6</ele>
        <time>2025-09-06T09:33:51Z</time>
      </trkpt>
      <trkpt lat="46.07086" lon="4.54455">
        <ele>746</ele>
        <time>2025-09-06T09:33:52Z</time>
      </trkpt>
      <trkpt lat="46.0709" lon="4.54455">
        <ele>745.8</ele>
        <time>2025-09-06T09:33:53Z</time>
      </trkpt>
      <trkpt lat="46.07094" lon="4.54456">
        <ele>745.8</ele>
        <time>2025-09-06T09:33:54Z</time>
      </trkpt>
      <trkpt lat="46.07097" lon="4.54456">
        <ele>745.8</ele>
        <time>2025-09-06T09:33:55Z</time>
      </trkpt>
      <trkpt lat="46.07101" lon="4.54456">
        <ele>745.8</ele>
        <time>2025-09-06T09:33:56Z</time>
      </trkpt>
      <trkpt lat="46.07106" lon="4.54454">
        <ele>745.6</ele>
        <time>2025-09-06T09:33:57Z</time>
      </trkpt>
      <trkpt lat="46.07111" lon="4.54453">
        <ele>745.6</ele>
        <time>2025-09-06T09:33:58Z</time>
      </trkpt>
      <trkpt lat="46.07115" lon="4.54453">
        <ele>745.2</ele>
        <time>2025-09-06T09:33:59Z</time>
      </trkpt>
      <trkpt lat="46.0712" lon="4.54453">
        <ele>745</ele>
        <time>2025-09-06T09:34:00Z</time>
      </trkpt>
      <trkpt lat="46.07125" lon="4.54453">
        <ele>744.6</ele>
        <time>2025-09-06T09:34:01Z</time>
      </trkpt>
      <trkpt lat="46.07129" lon="4.54452">
        <ele>744.2</ele>
        <time>2025-09-06T09:34:02Z</time>
      </trkpt>
      <trkpt lat="46.07134" lon="4.54453">
        <ele>744.2</ele>
        <time>2025-09-06T09:34:03Z</time>
      </trkpt>
      <trkpt lat="46.0714" lon="4.54454">
        <ele>743.8</ele>
        <time>2025-09-06T09:34:04Z</time>
      </trkpt>
      <trkpt lat="46.07145" lon="4.54454">
        <ele>743.8</ele>
        <time>2025-09-06T09:34:05Z</time>
      </trkpt>
      <trkpt lat="46.0715" lon="4.54455">
        <ele>743.8</ele>
        <time>2025-09-06T09:34:06Z</time>
      </trkpt>
      <trkpt lat="46.07155" lon="4.54455">
        <ele>743.8</ele>
        <time>2025-09-06T09:34:07Z</time>
      </trkpt>
      <trkpt lat="46.0716" lon="4.54456">
        <ele>743.8</ele>
        <time>2025-09-06T09:34:08Z</time>
      </trkpt>
      <trkpt lat="46.07163" lon="4.54456">
        <ele>743.8</ele>
        <time>2025-09-06T09:34:09Z</time>
      </trkpt>
      <trkpt lat="46.07167" lon="4.54456">
        <ele>743.8</ele>
        <time>2025-09-06T09:34:10Z</time>
      </trkpt>
      <trkpt lat="46.07168" lon="4.54456">
        <ele>743.8</ele>
        <time>2025-09-06T09:34:11Z</time>
      </trkpt>
      <trkpt lat="46.0717" lon="4.54455">
        <ele>743.8</ele>
        <time>2025-09-06T09:34:12Z</time>
      </trkpt>
      <trkpt lat="46.07172" lon="4.54454">
        <ele>743.6</ele>
        <time>2025-09-06T09:34:13Z</time>
      </trkpt>
      <trkpt lat="46.07173" lon="4.54455">
        <ele>743.6</ele>
        <time>2025-09-06T09:34:14Z</time>
      </trkpt>
      <trkpt lat="46.07175" lon="4.54455">
        <ele>743.8</ele>
        <time>2025-09-06T09:34:15Z</time>
      </trkpt>
      <trkpt lat="46.07177" lon="4.54455">
        <ele>743.8</ele>
        <time>2025-09-06T09:34:16Z</time>
      </trkpt>
      <trkpt lat="46.07179" lon="4.54455">
        <ele>743.8</ele>
        <time>2025-09-06T09:34:17Z</time>
      </trkpt>
      <trkpt lat="46.07182" lon="4.54456">
        <ele>743.8</ele>
        <time>2025-09-06T09:34:18Z</time>
      </trkpt>
      <trkpt lat="46.07185" lon="4.54456">
        <ele>743.8</ele>
        <time>2025-09-06T09:34:19Z</time>
      </trkpt>
      <trkpt lat="46.07187" lon="4.54456">
        <ele>743.8</ele>
        <time>2025-09-06T09:34:20Z</time>
      </trkpt>
      <trkpt lat="46.0719" lon="4.54456">
        <ele>744</ele>
        <time>2025-09-06T09:34:21Z</time>
      </trkpt>
      <trkpt lat="46.07193" lon="4.54456">
        <ele>744</ele>
        <time>2025-09-06T09:34:22Z</time>
      </trkpt>
      <trkpt lat="46.07196" lon="4.54456">
        <ele>744</ele>
        <time>2025-09-06T09:34:23Z</time>
      </trkpt>
      <trkpt lat="46.07199" lon="4.54456">
        <ele>744</ele>
        <time>2025-09-06T09:34:24Z</time>
      </trkpt>
      <trkpt lat="46.07202" lon="4.54456">
        <ele>744.6</ele>
        <time>2025-09-06T09:34:25Z</time>
      </trkpt>
      <trkpt lat="46.07205" lon="4.54455">
        <ele>744.6</ele>
        <time>2025-09-06T09:34:26Z</time>
      </trkpt>
      <trkpt lat="46.07207" lon="4.54453">
        <ele>744.6</ele>
        <time>2025-09-06T09:34:27Z</time>
      </trkpt>
      <trkpt lat="46.0721" lon="4.54451">
        <ele>744.6</ele>
        <time>2025-09-06T09:34:28Z</time>
      </trkpt>
      <trkpt lat="46.07212" lon="4.54449">
        <ele>744.6</ele>
        <time>2025-09-06T09:34:29Z</time>
      </trkpt>
      <trkpt lat="46.07214" lon="4.54447">
        <ele>745.2</ele>
        <time>2025-09-06T09:34:30Z</time>
      </trkpt>
      <trkpt lat="46.07217" lon="4.54446">
        <ele>745.2</ele>
        <time>2025-09-06T09:34:31Z</time>
      </trkpt>
      <trkpt lat="46.0722" lon="4.54444">
        <ele>745.2</ele>
        <time>2025-09-06T09:34:32Z</time>
      </trkpt>
      <trkpt lat="46.07222" lon="4.54444">
        <ele>745.4</ele>
        <time>2025-09-06T09:34:33Z</time>
      </trkpt>
      <trkpt lat="46.07225" lon="4.54443">
        <ele>745.4</ele>
        <time>2025-09-06T09:34:34Z</time>
      </trkpt>
      <trkpt lat="46.07228" lon="4.54442">
        <ele>745.6</ele>
        <time>2025-09-06T09:34:35Z</time>
      </trkpt>
      <trkpt lat="46.0723" lon="4.54441">
        <ele>746</ele>
        <time>2025-09-06T09:34:36Z</time>
      </trkpt>
      <trkpt lat="46.07232" lon="4.54439">
        <ele>746</ele>
        <time>2025-09-06T09:34:37Z</time>
      </trkpt>
      <trkpt lat="46.07234" lon="4.54437">
        <ele>746</ele>
        <time>2025-09-06T09:34:38Z</time>
      </trkpt>
      <trkpt lat="46.07237" lon="4.54436">
        <ele>746</ele>
        <time>2025-09-06T09:34:39Z</time>
      </trkpt>
      <trkpt lat="46.07239" lon="4.54436">
        <ele>746.2</ele>
        <time>2025-09-06T09:34:40Z</time>
      </trkpt>
      <trkpt lat="46.07241" lon="4.54435">
        <ele>746.2</ele>
        <time>2025-09-06T09:34:41Z</time>
      </trkpt>
      <trkpt lat="46.07241" lon="4.54435">
        <ele>746.6</ele>
        <time>2025-09-06T09:34:42Z</time>
      </trkpt>
      <trkpt lat="46.07245" lon="4.54433">
        <ele>746.6</ele>
        <time>2025-09-06T09:34:43Z</time>
      </trkpt>
      <trkpt lat="46.07247" lon="4.54431">
        <ele>746.6</ele>
        <time>2025-09-06T09:34:44Z</time>
      </trkpt>
      <trkpt lat="46.07249" lon="4.54428">
        <ele>747.2</ele>
        <time>2025-09-06T09:34:45Z</time>
      </trkpt>
      <trkpt lat="46.07251" lon="4.54426">
        <ele>747.6</ele>
        <time>2025-09-06T09:34:46Z</time>
      </trkpt>
      <trkpt lat="46.07252" lon="4.54423">
        <ele>747.6</ele>
        <time>2025-09-06T09:34:47Z</time>
      </trkpt>
      <trkpt lat="46.07253" lon="4.54421">
        <ele>748</ele>
        <time>2025-09-06T09:34:48Z</time>
      </trkpt>
      <trkpt lat="46.07255" lon="4.54419">
        <ele>748</ele>
        <time>2025-09-06T09:34:49Z</time>
      </trkpt>
      <trkpt lat="46.07256" lon="4.54416">
        <ele>747.8</ele>
        <time>2025-09-06T09:34:50Z</time>
      </trkpt>
      <trkpt lat="46.07258" lon="4.54413">
        <ele>747.8</ele>
        <time>2025-09-06T09:34:51Z</time>
      </trkpt>
      <trkpt lat="46.07259" lon="4.5441">
        <ele>748.2</ele>
        <time>2025-09-06T09:34:52Z</time>
      </trkpt>
      <trkpt lat="46.07259" lon="4.54407">
        <ele>748.4</ele>
        <time>2025-09-06T09:34:53Z</time>
      </trkpt>
      <trkpt lat="46.0726" lon="4.54404">
        <ele>748.2</ele>
        <time>2025-09-06T09:34:54Z</time>
      </trkpt>
      <trkpt lat="46.0726" lon="4.544">
        <ele>748.2</ele>
        <time>2025-09-06T09:34:55Z</time>
      </trkpt>
      <trkpt lat="46.07261" lon="4.54397">
        <ele>748.2</ele>
        <time>2025-09-06T09:34:56Z</time>
      </trkpt>
      <trkpt lat="46.07261" lon="4.54395">
        <ele>748.2</ele>
        <time>2025-09-06T09:34:57Z</time>
      </trkpt>
      <trkpt lat="46.07262" lon="4.54394">
        <ele>748.4</ele>
        <time>2025-09-06T09:34:58Z</time>
      </trkpt>
      <trkpt lat="46.07262" lon="4.54393">
        <ele>747.6</ele>
        <time>2025-09-06T09:34:59Z</time>
      </trkpt>
      <trkpt lat="46.07262" lon="4.54393">
        <ele>748</ele>
        <time>2025-09-06T09:35:00Z</time>
      </trkpt>
      <trkpt lat="46.07263" lon="4.54393">
        <ele>748</ele>
        <time>2025-09-06T09:35:01Z</time>
      </trkpt>
      <trkpt lat="46.07265" lon="4.54393">
        <ele>748</ele>
        <time>2025-09-06T09:35:02Z</time>
      </trkpt>
      <trkpt lat="46.07268" lon="4.54393">
        <ele>748</ele>
        <time>2025-09-06T09:35:03Z</time>
      </trkpt>
      <trkpt lat="46.07271" lon="4.54392">
        <ele>747.6</ele>
        <time>2025-09-06T09:35:04Z</time>
      </trkpt>
      <trkpt lat="46.07274" lon="4.54393">
        <ele>747.4</ele>
        <time>2025-09-06T09:35:05Z</time>
      </trkpt>
      <trkpt lat="46.07278" lon="4.54395">
        <ele>747.6</ele>
        <time>2025-09-06T09:35:06Z</time>
      </trkpt>
      <trkpt lat="46.07281" lon="4.54397">
        <ele>747.2</ele>
        <time>2025-09-06T09:35:07Z</time>
      </trkpt>
      <trkpt lat="46.07284" lon="4.54398">
        <ele>747.8</ele>
        <time>2025-09-06T09:35:08Z</time>
      </trkpt>
      <trkpt lat="46.07289" lon="4.54399">
        <ele>747.4</ele>
        <time>2025-09-06T09:35:09Z</time>
      </trkpt>
      <trkpt lat="46.07293" lon="4.54401">
        <ele>747.2</ele>
        <time>2025-09-06T09:35:10Z</time>
      </trkpt>
      <trkpt lat="46.07296" lon="4.54401">
        <ele>747</ele>
        <time>2025-09-06T09:35:11Z</time>
      </trkpt>
      <trkpt lat="46.07298" lon="4.54402">
        <ele>747</ele>
        <time>2025-09-06T09:35:12Z</time>
      </trkpt>
      <trkpt lat="46.07301" lon="4.54405">
        <ele>747</ele>
        <time>2025-09-06T09:35:13Z</time>
      </trkpt>
      <trkpt lat="46.07304" lon="4.54406">
        <ele>746.6</ele>
        <time>2025-09-06T09:35:14Z</time>
      </trkpt>
      <trkpt lat="46.07306" lon="4.54407">
        <ele>746.6</ele>
        <time>2025-09-06T09:35:15Z</time>
      </trkpt>
      <trkpt lat="46.07309" lon="4.54408">
        <ele>746.2</ele>
        <time>2025-09-06T09:35:16Z</time>
      </trkpt>
      <trkpt lat="46.07313" lon="4.54408">
        <ele>745.6</ele>
        <time>2025-09-06T09:35:17Z</time>
      </trkpt>
      <trkpt lat="46.07317" lon="4.54409">
        <ele>745.6</ele>
        <time>2025-09-06T09:35:18Z</time>
      </trkpt>
      <trkpt lat="46.07322" lon="4.5441">
        <ele>745</ele>
        <time>2025-09-06T09:35:19Z</time>
      </trkpt>
      <trkpt lat="46.07326" lon="4.5441">
        <ele>744.6</ele>
        <time>2025-09-06T09:35:20Z</time>
      </trkpt>
      <trkpt lat="46.0733" lon="4.54412">
        <ele>744.6</ele>
        <time>2025-09-06T09:35:21Z</time>
      </trkpt>
      <trkpt lat="46.07334" lon="4.54414">
        <ele>744.4</ele>
        <time>2025-09-06T09:35:22Z</time>
      </trkpt>
      <trkpt lat="46.07338" lon="4.54416">
        <ele>744.4</ele>
        <time>2025-09-06T09:35:23Z</time>
      </trkpt>
      <trkpt lat="46.07342" lon="4.54417">
        <ele>744.8</ele>
        <time>2025-09-06T09:35:24Z</time>
      </trkpt>
      <trkpt lat="46.07345" lon="4.54418">
        <ele>744.4</ele>
        <time>2025-09-06T09:35:25Z</time>
      </trkpt>
      <trkpt lat="46.07349" lon="4.5442">
        <ele>744.6</ele>
        <time>2025-09-06T09:35:26Z</time>
      </trkpt>
      <trkpt lat="46.07352" lon="4.54421">
        <ele>744.6</ele>
        <time>2025-09-06T09:35:27Z</time>
      </trkpt>
      <trkpt lat="46.07356" lon="4.54423">
        <ele>744.2</ele>
        <time>2025-09-06T09:35:28Z</time>
      </trkpt>
      <trkpt lat="46.0736" lon="4.54426">
        <ele>744.2</ele>
        <time>2025-09-06T09:35:29Z</time>
      </trkpt>
      <trkpt lat="46.07363" lon="4.54429">
        <ele>744.2</ele>
        <time>2025-09-06T09:35:30Z</time>
      </trkpt>
      <trkpt lat="46.07366" lon="4.54432">
        <ele>744.8</ele>
        <time>2025-09-06T09:35:31Z</time>
      </trkpt>
      <trkpt lat="46.07369" lon="4.54435">
        <ele>745.4</ele>
        <time>2025-09-06T09:35:32Z</time>
      </trkpt>
      <trkpt lat="46.07371" lon="4.54437">
        <ele>745.4</ele>
        <time>2025-09-06T09:35:33Z</time>
      </trkpt>
      <trkpt lat="46.07374" lon="4.54439">
        <ele>745.8</ele>
        <time>2025-09-06T09:35:34Z</time>
      </trkpt>
      <trkpt lat="46.07377" lon="4.54441">
        <ele>745.8</ele>
        <time>2025-09-06T09:35:35Z</time>
      </trkpt>
      <trkpt lat="46.0738" lon="4.54443">
        <ele>745.8</ele>
        <time>2025-09-06T09:35:36Z</time>
      </trkpt>
      <trkpt lat="46.07382" lon="4.54444">
        <ele>745.8</ele>
        <time>2025-09-06T09:35:37Z</time>
      </trkpt>
      <trkpt lat="46.07384" lon="4.54446">
        <ele>745.8</ele>
        <time>2025-09-06T09:35:38Z</time>
      </trkpt>
      <trkpt lat="46.07386" lon="4.54448">
        <ele>745.8</ele>
        <time>2025-09-06T09:35:39Z</time>
      </trkpt>
      <trkpt lat="46.07388" lon="4.54449">
        <ele>746.2</ele>
        <time>2025-09-06T09:35:40Z</time>
      </trkpt>
      <trkpt lat="46.0739" lon="4.54451">
        <ele>746.4</ele>
        <time>2025-09-06T09:35:41Z</time>
      </trkpt>
      <trkpt lat="46.07391" lon="4.54453">
        <ele>746.4</ele>
        <time>2025-09-06T09:35:42Z</time>
      </trkpt>
      <trkpt lat="46.07393" lon="4.54455">
        <ele>746.6</ele>
        <time>2025-09-06T09:35:43Z</time>
      </trkpt>
      <trkpt lat="46.07394" lon="4.54456">
        <ele>746.6</ele>
        <time>2025-09-06T09:35:44Z</time>
      </trkpt>
      <trkpt lat="46.07395" lon="4.54456">
        <ele>747</ele>
        <time>2025-09-06T09:35:45Z</time>
      </trkpt>
      <trkpt lat="46.07396" lon="4.54456">
        <ele>747</ele>
        <time>2025-09-06T09:35:46Z</time>
      </trkpt>
      <trkpt lat="46.07397" lon="4.54456">
        <ele>747.2</ele>
        <time>2025-09-06T09:35:47Z</time>
      </trkpt>
      <trkpt lat="46.07398" lon="4.54457">
        <ele>747.2</ele>
        <time>2025-09-06T09:35:48Z</time>
      </trkpt>
      <trkpt lat="46.074" lon="4.54457">
        <ele>746.8</ele>
        <time>2025-09-06T09:35:49Z</time>
      </trkpt>
      <trkpt lat="46.07402" lon="4.54457">
        <ele>747.2</ele>
        <time>2025-09-06T09:35:50Z</time>
      </trkpt>
      <trkpt lat="46.07402" lon="4.54457">
        <ele>747.2</ele>
        <time>2025-09-06T09:35:51Z</time>
      </trkpt>
      <trkpt lat="46.07403" lon="4.54457">
        <ele>747.2</ele>
        <time>2025-09-06T09:35:52Z</time>
      </trkpt>
      <trkpt lat="46.07404" lon="4.54457">
        <ele>747.2</ele>
        <time>2025-09-06T09:35:53Z</time>
      </trkpt>
      <trkpt lat="46.07405" lon="4.54458">
        <ele>747.2</ele>
        <time>2025-09-06T09:35:54Z</time>
      </trkpt>
      <trkpt lat="46.07405" lon="4.54457">
        <ele>747.2</ele>
        <time>2025-09-06T09:35:55Z</time>
      </trkpt>
      <trkpt lat="46.07405" lon="4.54457">
        <ele>747.2</ele>
        <time>2025-09-06T09:35:56Z</time>
      </trkpt>
      <trkpt lat="46.07402" lon="4.54459">
        <ele>747.2</ele>
        <time>2025-09-06T09:36:29Z</time>
      </trkpt>
      <trkpt lat="46.07403" lon="4.5446">
        <ele>747.2</ele>
        <time>2025-09-06T09:36:30Z</time>
      </trkpt>
      <trkpt lat="46.07405" lon="4.54461">
        <ele>747.4</ele>
        <time>2025-09-06T09:36:31Z</time>
      </trkpt>
      <trkpt lat="46.07407" lon="4.54462">
        <ele>747.4</ele>
        <time>2025-09-06T09:36:32Z</time>
      </trkpt>
      <trkpt lat="46.07409" lon="4.54463">
        <ele>747.2</ele>
        <time>2025-09-06T09:36:33Z</time>
      </trkpt>
      <trkpt lat="46.07412" lon="4.54466">
        <ele>747</ele>
        <time>2025-09-06T09:36:34Z</time>
      </trkpt>
      <trkpt lat="46.07414" lon="4.54468">
        <ele>746.6</ele>
        <time>2025-09-06T09:36:35Z</time>
      </trkpt>
      <trkpt lat="46.07416" lon="4.5447">
        <ele>746.6</ele>
        <time>2025-09-06T09:36:36Z</time>
      </trkpt>
      <trkpt lat="46.07419" lon="4.54471">
        <ele>746.6</ele>
        <time>2025-09-06T09:36:37Z</time>
      </trkpt>
      <trkpt lat="46.07421" lon="4.54472">
        <ele>746.6</ele>
        <time>2025-09-06T09:36:38Z</time>
      </trkpt>
      <trkpt lat="46.07421" lon="4.54473">
        <ele>746.4</ele>
        <time>2025-09-06T09:36:39Z</time>
      </trkpt>
      <trkpt lat="46.07422" lon="4.54473">
        <ele>746.4</ele>
        <time>2025-09-06T09:36:40Z</time>
      </trkpt>
      <trkpt lat="46.07422" lon="4.54472">
        <ele>746.2</ele>
        <time>2025-09-06T09:36:41Z</time>
      </trkpt>
      <trkpt lat="46.07425" lon="4.54475">
        <ele>746</ele>
        <time>2025-09-06T09:36:47Z</time>
      </trkpt>
      <trkpt lat="46.07427" lon="4.54478">
        <ele>745.4</ele>
        <time>2025-09-06T09:36:48Z</time>
      </trkpt>
      <trkpt lat="46.07429" lon="4.5448">
        <ele>745.2</ele>
        <time>2025-09-06T09:36:49Z</time>
      </trkpt>
      <trkpt lat="46.07432" lon="4.54482">
        <ele>744.8</ele>
        <time>2025-09-06T09:36:50Z</time>
      </trkpt>
      <trkpt lat="46.07434" lon="4.54484">
        <ele>744.8</ele>
        <time>2025-09-06T09:36:51Z</time>
      </trkpt>
      <trkpt lat="46.07436" lon="4.54487">
        <ele>744.8</ele>
        <time>2025-09-06T09:36:52Z</time>
      </trkpt>
      <trkpt lat="46.07437" lon="4.54491">
        <ele>744.6</ele>
        <time>2025-09-06T09:36:53Z</time>
      </trkpt>
      <trkpt lat="46.07439" lon="4.54494">
        <ele>744.6</ele>
        <time>2025-09-06T09:36:54Z</time>
      </trkpt>
      <trkpt lat="46.07442" lon="4.54498">
        <ele>744.6</ele>
        <time>2025-09-06T09:36:55Z</time>
      </trkpt>
      <trkpt lat="46.07446" lon="4.54501">
        <ele>744.6</ele>
        <time>2025-09-06T09:36:56Z</time>
      </trkpt>
      <trkpt lat="46.07448" lon="4.54505">
        <ele>744.2</ele>
        <time>2025-09-06T09:36:57Z</time>
      </trkpt>
      <trkpt lat="46.07451" lon="4.54509">
        <ele>744.2</ele>
        <time>2025-09-06T09:36:58Z</time>
      </trkpt>
      <trkpt lat="46.07455" lon="4.54514">
        <ele>743.8</ele>
        <time>2025-09-06T09:36:59Z</time>
      </trkpt>
      <trkpt lat="46.07458" lon="4.54518">
        <ele>743.2</ele>
        <time>2025-09-06T09:37:00Z</time>
      </trkpt>
      <trkpt lat="46.07463" lon="4.54522">
        <ele>743.2</ele>
        <time>2025-09-06T09:37:01Z</time>
      </trkpt>
      <trkpt lat="46.07467" lon="4.54527">
        <ele>743.2</ele>
        <time>2025-09-06T09:37:02Z</time>
      </trkpt>
      <trkpt lat="46.0747" lon="4.54532">
        <ele>743.2</ele>
        <time>2025-09-06T09:37:03Z</time>
      </trkpt>
      <trkpt lat="46.07476" lon="4.54537">
        <ele>742.8</ele>
        <time>2025-09-06T09:37:04Z</time>
      </trkpt>
      <trkpt lat="46.07478" lon="4.54542">
        <ele>742.8</ele>
        <time>2025-09-06T09:37:05Z</time>
      </trkpt>
      <trkpt lat="46.07482" lon="4.54545">
        <ele>742.8</ele>
        <time>2025-09-06T09:37:06Z</time>
      </trkpt>
      <trkpt lat="46.07486" lon="4.5455">
        <ele>742.8</ele>
        <time>2025-09-06T09:37:07Z</time>
      </trkpt>
      <trkpt lat="46.0749" lon="4.54555">
        <ele>742.8</ele>
        <time>2025-09-06T09:37:08Z</time>
      </trkpt>
      <trkpt lat="46.07492" lon="4.5456">
        <ele>742.4</ele>
        <time>2025-09-06T09:37:09Z</time>
      </trkpt>
      <trkpt lat="46.07496" lon="4.54563">
        <ele>742.8</ele>
        <time>2025-09-06T09:37:10Z</time>
      </trkpt>
      <trkpt lat="46.075" lon="4.54567">
        <ele>742.6</ele>
        <time>2025-09-06T09:37:11Z</time>
      </trkpt>
      <trkpt lat="46.07503" lon="4.54571">
        <ele>742.6</ele>
        <time>2025-09-06T09:37:12Z</time>
      </trkpt>
      <trkpt lat="46.07508" lon="4.54574">
        <ele>742.2</ele>
        <time>2025-09-06T09:37:13Z</time>
      </trkpt>
      <trkpt lat="46.07512" lon="4.54577">
        <ele>742.6</ele>
        <time>2025-09-06T09:37:14Z</time>
      </trkpt>
      <trkpt lat="46.07515" lon="4.54582">
        <ele>742.6</ele>
        <time>2025-09-06T09:37:15Z</time>
      </trkpt>
      <trkpt lat="46.07519" lon="4.54585">
        <ele>742.6</ele>
        <time>2025-09-06T09:37:16Z</time>
      </trkpt>
      <trkpt lat="46.07522" lon="4.54588">
        <ele>742.2</ele>
        <time>2025-09-06T09:37:17Z</time>
      </trkpt>
      <trkpt lat="46.07526" lon="4.54591">
        <ele>742.6</ele>
        <time>2025-09-06T09:37:18Z</time>
      </trkpt>
      <trkpt lat="46.07529" lon="4.54595">
        <ele>742.6</ele>
        <time>2025-09-06T09:37:19Z</time>
      </trkpt>
      <trkpt lat="46.07533" lon="4.54598">
        <ele>742.2</ele>
        <time>2025-09-06T09:37:20Z</time>
      </trkpt>
      <trkpt lat="46.07537" lon="4.54601">
        <ele>742.2</ele>
        <time>2025-09-06T09:37:21Z</time>
      </trkpt>
      <trkpt lat="46.07541" lon="4.54605">
        <ele>742.2</ele>
        <time>2025-09-06T09:37:22Z</time>
      </trkpt>
      <trkpt lat="46.07545" lon="4.54608">
        <ele>742.2</ele>
        <time>2025-09-06T09:37:23Z</time>
      </trkpt>
      <trkpt lat="46.07548" lon="4.54611">
        <ele>742.2</ele>
        <time>2025-09-06T09:37:24Z</time>
      </trkpt>
      <trkpt lat="46.07551" lon="4.54614">
        <ele>742.4</ele>
        <time>2025-09-06T09:37:25Z</time>
      </trkpt>
      <trkpt lat="46.07554" lon="4.54617">
        <ele>743.2</ele>
        <time>2025-09-06T09:37:26Z</time>
      </trkpt>
      <trkpt lat="46.07557" lon="4.54619">
        <ele>743.2</ele>
        <time>2025-09-06T09:37:27Z</time>
      </trkpt>
      <trkpt lat="46.0756" lon="4.54621">
        <ele>743.6</ele>
        <time>2025-09-06T09:37:28Z</time>
      </trkpt>
      <trkpt lat="46.07562" lon="4.54624">
        <ele>744.4</ele>
        <time>2025-09-06T09:37:29Z</time>
      </trkpt>
      <trkpt lat="46.07565" lon="4.54626">
        <ele>744.4</ele>
        <time>2025-09-06T09:37:30Z</time>
      </trkpt>
      <trkpt lat="46.07568" lon="4.54628">
        <ele>744.4</ele>
        <time>2025-09-06T09:37:31Z</time>
      </trkpt>
      <trkpt lat="46.0757" lon="4.5463">
        <ele>745.2</ele>
        <time>2025-09-06T09:37:32Z</time>
      </trkpt>
      <trkpt lat="46.07572" lon="4.54633">
        <ele>745.2</ele>
        <time>2025-09-06T09:37:33Z</time>
      </trkpt>
      <trkpt lat="46.07575" lon="4.54635">
        <ele>745.2</ele>
        <time>2025-09-06T09:37:34Z</time>
      </trkpt>
      <trkpt lat="46.07577" lon="4.54637">
        <ele>745.2</ele>
        <time>2025-09-06T09:37:35Z</time>
      </trkpt>
      <trkpt lat="46.07578" lon="4.54639">
        <ele>744.8</ele>
        <time>2025-09-06T09:37:36Z</time>
      </trkpt>
      <trkpt lat="46.0758" lon="4.54641">
        <ele>744.6</ele>
        <time>2025-09-06T09:37:37Z</time>
      </trkpt>
      <trkpt lat="46.07582" lon="4.54643">
        <ele>744.6</ele>
        <time>2025-09-06T09:37:38Z</time>
      </trkpt>
      <trkpt lat="46.07584" lon="4.54645">
        <ele>744.8</ele>
        <time>2025-09-06T09:37:39Z</time>
      </trkpt>
      <trkpt lat="46.07585" lon="4.54648">
        <ele>744.8</ele>
        <time>2025-09-06T09:37:40Z</time>
      </trkpt>
      <trkpt lat="46.07587" lon="4.5465">
        <ele>744.8</ele>
        <time>2025-09-06T09:37:41Z</time>
      </trkpt>
      <trkpt lat="46.07587" lon="4.54653">
        <ele>745.6</ele>
        <time>2025-09-06T09:37:42Z</time>
      </trkpt>
      <trkpt lat="46.07588" lon="4.54656">
        <ele>745.6</ele>
        <time>2025-09-06T09:37:43Z</time>
      </trkpt>
      <trkpt lat="46.07588" lon="4.54659">
        <ele>745.8</ele>
        <time>2025-09-06T09:37:44Z</time>
      </trkpt>
      <trkpt lat="46.07588" lon="4.54662">
        <ele>745.8</ele>
        <time>2025-09-06T09:37:45Z</time>
      </trkpt>
      <trkpt lat="46.07588" lon="4.54665">
        <ele>745.8</ele>
        <time>2025-09-06T09:37:46Z</time>
      </trkpt>
      <trkpt lat="46.07589" lon="4.54667">
        <ele>745.8</ele>
        <time>2025-09-06T09:37:47Z</time>
      </trkpt>
      <trkpt lat="46.07591" lon="4.5467">
        <ele>746</ele>
        <time>2025-09-06T09:37:48Z</time>
      </trkpt>
      <trkpt lat="46.07592" lon="4.54672">
        <ele>746</ele>
        <time>2025-09-06T09:37:49Z</time>
      </trkpt>
      <trkpt lat="46.07594" lon="4.54674">
        <ele>746.4</ele>
        <time>2025-09-06T09:37:50Z</time>
      </trkpt>
      <trkpt lat="46.07596" lon="4.54677">
        <ele>746.4</ele>
        <time>2025-09-06T09:37:51Z</time>
      </trkpt>
      <trkpt lat="46.07597" lon="4.54679">
        <ele>746.4</ele>
        <time>2025-09-06T09:37:52Z</time>
      </trkpt>
      <trkpt lat="46.07598" lon="4.54681">
        <ele>746.6</ele>
        <time>2025-09-06T09:37:53Z</time>
      </trkpt>
      <trkpt lat="46.07599" lon="4.54683">
        <ele>746.6</ele>
        <time>2025-09-06T09:37:54Z</time>
      </trkpt>
      <trkpt lat="46.076" lon="4.54685">
        <ele>746.6</ele>
        <time>2025-09-06T09:37:55Z</time>
      </trkpt>
      <trkpt lat="46.07602" lon="4.54686">
        <ele>746.6</ele>
        <time>2025-09-06T09:37:56Z</time>
      </trkpt>
      <trkpt lat="46.07603" lon="4.54688">
        <ele>746.6</ele>
        <time>2025-09-06T09:37:57Z</time>
      </trkpt>
      <trkpt lat="46.07604" lon="4.54688">
        <ele>746.6</ele>
        <time>2025-09-06T09:37:58Z</time>
      </trkpt>
      <trkpt lat="46.07605" lon="4.54689">
        <ele>746.6</ele>
        <time>2025-09-06T09:37:59Z</time>
      </trkpt>
      <trkpt lat="46.07606" lon="4.54691">
        <ele>746.6</ele>
        <time>2025-09-06T09:38:00Z</time>
      </trkpt>
      <trkpt lat="46.07606" lon="4.54693">
        <ele>746.6</ele>
        <time>2025-09-06T09:38:01Z</time>
      </trkpt>
      <trkpt lat="46.07607" lon="4.54695">
        <ele>746.6</ele>
        <time>2025-09-06T09:38:02Z</time>
      </trkpt>
      <trkpt lat="46.07609" lon="4.54698">
        <ele>746.4</ele>
        <time>2025-09-06T09:38:03Z</time>
      </trkpt>
      <trkpt lat="46.0761" lon="4.54699">
        <ele>746.4</ele>
        <time>2025-09-06T09:38:04Z</time>
      </trkpt>
      <trkpt lat="46.07612" lon="4.54701">
        <ele>746.4</ele>
        <time>2025-09-06T09:38:05Z</time>
      </trkpt>
      <trkpt lat="46.07613" lon="4.54703">
        <ele>746.4</ele>
        <time>2025-09-06T09:38:06Z</time>
      </trkpt>
      <trkpt lat="46.07615" lon="4.54705">
        <ele>746.4</ele>
        <time>2025-09-06T09:38:07Z</time>
      </trkpt>
      <trkpt lat="46.07617" lon="4.54707">
        <ele>746</ele>
        <time>2025-09-06T09:38:08Z</time>
      </trkpt>
      <trkpt lat="46.07619" lon="4.5471">
        <ele>746</ele>
        <time>2025-09-06T09:38:09Z</time>
      </trkpt>
      <trkpt lat="46.07621" lon="4.54712">
        <ele>746</ele>
        <time>2025-09-06T09:38:10Z</time>
      </trkpt>
      <trkpt lat="46.07624" lon="4.54715">
        <ele>746.4</ele>
        <time>2025-09-06T09:38:11Z</time>
      </trkpt>
      <trkpt lat="46.07626" lon="4.54717">
        <ele>746.4</ele>
        <time>2025-09-06T09:38:12Z</time>
      </trkpt>
      <trkpt lat="46.07628" lon="4.5472">
        <ele>746.8</ele>
        <time>2025-09-06T09:38:13Z</time>
      </trkpt>
      <trkpt lat="46.07631" lon="4.54723">
        <ele>746.8</ele>
        <time>2025-09-06T09:38:14Z</time>
      </trkpt>
      <trkpt lat="46.07633" lon="4.54725">
        <ele>746.8</ele>
        <time>2025-09-06T09:38:15Z</time>
      </trkpt>
      <trkpt lat="46.07635" lon="4.54726">
        <ele>747.4</ele>
        <time>2025-09-06T09:38:16Z</time>
      </trkpt>
      <trkpt lat="46.07638" lon="4.54728">
        <ele>747.4</ele>
        <time>2025-09-06T09:38:17Z</time>
      </trkpt>
      <trkpt lat="46.07641" lon="4.54731">
        <ele>747.4</ele>
        <time>2025-09-06T09:38:18Z</time>
      </trkpt>
      <trkpt lat="46.07643" lon="4.54734">
        <ele>747</ele>
        <time>2025-09-06T09:38:19Z</time>
      </trkpt>
      <trkpt lat="46.07646" lon="4.54737">
        <ele>747</ele>
        <time>2025-09-06T09:38:20Z</time>
      </trkpt>
      <trkpt lat="46.07649" lon="4.54739">
        <ele>747</ele>
        <time>2025-09-06T09:38:21Z</time>
      </trkpt>
      <trkpt lat="46.07651" lon="4.54742">
        <ele>747</ele>
        <time>2025-09-06T09:38:22Z</time>
      </trkpt>
      <trkpt lat="46.07653" lon="4.54744">
        <ele>746.8</ele>
        <time>2025-09-06T09:38:23Z</time>
      </trkpt>
      <trkpt lat="46.07655" lon="4.54747">
        <ele>746.8</ele>
        <time>2025-09-06T09:38:24Z</time>
      </trkpt>
      <trkpt lat="46.07657" lon="4.54749">
        <ele>746.8</ele>
        <time>2025-09-06T09:38:25Z</time>
      </trkpt>
      <trkpt lat="46.0766" lon="4.54752">
        <ele>746.8</ele>
        <time>2025-09-06T09:38:26Z</time>
      </trkpt>
      <trkpt lat="46.07662" lon="4.54755">
        <ele>746.8</ele>
        <time>2025-09-06T09:38:27Z</time>
      </trkpt>
      <trkpt lat="46.07667" lon="4.54758">
        <ele>746.8</ele>
        <time>2025-09-06T09:38:28Z</time>
      </trkpt>
      <trkpt lat="46.07671" lon="4.5476">
        <ele>746.4</ele>
        <time>2025-09-06T09:38:29Z</time>
      </trkpt>
      <trkpt lat="46.07675" lon="4.54763">
        <ele>746.4</ele>
        <time>2025-09-06T09:38:30Z</time>
      </trkpt>
      <trkpt lat="46.07678" lon="4.54765">
        <ele>746.2</ele>
        <time>2025-09-06T09:38:31Z</time>
      </trkpt>
      <trkpt lat="46.07682" lon="4.54767">
        <ele>745.8</ele>
        <time>2025-09-06T09:38:32Z</time>
      </trkpt>
      <trkpt lat="46.07686" lon="4.54769">
        <ele>745.6</ele>
        <time>2025-09-06T09:38:33Z</time>
      </trkpt>
      <trkpt lat="46.07689" lon="4.54771">
        <ele>745.6</ele>
        <time>2025-09-06T09:38:34Z</time>
      </trkpt>
      <trkpt lat="46.07693" lon="4.54773">
        <ele>745.4</ele>
        <time>2025-09-06T09:38:35Z</time>
      </trkpt>
      <trkpt lat="46.07697" lon="4.54775">
        <ele>745.4</ele>
        <time>2025-09-06T09:38:36Z</time>
      </trkpt>
      <trkpt lat="46.077" lon="4.54776">
        <ele>745</ele>
        <time>2025-09-06T09:38:37Z</time>
      </trkpt>
      <trkpt lat="46.07703" lon="4.54778">
        <ele>745.4</ele>
        <time>2025-09-06T09:38:38Z</time>
      </trkpt>
      <trkpt lat="46.07705" lon="4.54779">
        <ele>745</ele>
        <time>2025-09-06T09:38:39Z</time>
      </trkpt>
      <trkpt lat="46.07707" lon="4.54781">
        <ele>745</ele>
        <time>2025-09-06T09:38:40Z</time>
      </trkpt>
      <trkpt lat="46.0771" lon="4.54782">
        <ele>744.8</ele>
        <time>2025-09-06T09:38:41Z</time>
      </trkpt>
      <trkpt lat="46.07713" lon="4.54784">
        <ele>744.4</ele>
        <time>2025-09-06T09:38:42Z</time>
      </trkpt>
      <trkpt lat="46.07715" lon="4.54785">
        <ele>744.2</ele>
        <time>2025-09-06T09:38:43Z</time>
      </trkpt>
      <trkpt lat="46.07716" lon="4.54785">
        <ele>744.2</ele>
        <time>2025-09-06T09:38:44Z</time>
      </trkpt>
      <trkpt lat="46.07716" lon="4.54785">
        <ele>744.2</ele>
        <time>2025-09-06T09:38:45Z</time>
      </trkpt>
      <trkpt lat="46.07716" lon="4.54785">
        <ele>743.8</ele>
        <time>2025-09-06T09:38:46Z</time>
      </trkpt>
      <trkpt lat="46.07718" lon="4.54787">
        <ele>743.2</ele>
        <time>2025-09-06T09:39:16Z</time>
      </trkpt>
      <trkpt lat="46.07721" lon="4.54788">
        <ele>743.2</ele>
        <time>2025-09-06T09:39:17Z</time>
      </trkpt>
      <trkpt lat="46.07724" lon="4.5479">
        <ele>743.2</ele>
        <time>2025-09-06T09:39:18Z</time>
      </trkpt>
      <trkpt lat="46.07727" lon="4.54792">
        <ele>743.2</ele>
        <time>2025-09-06T09:39:19Z</time>
      </trkpt>
      <trkpt lat="46.07731" lon="4.54793">
        <ele>743</ele>
        <time>2025-09-06T09:39:20Z</time>
      </trkpt>
      <trkpt lat="46.07734" lon="4.54795">
        <ele>743</ele>
        <time>2025-09-06T09:39:21Z</time>
      </trkpt>
      <trkpt lat="46.07738" lon="4.54796">
        <ele>743</ele>
        <time>2025-09-06T09:39:22Z</time>
      </trkpt>
      <trkpt lat="46.07741" lon="4.54798">
        <ele>742.8</ele>
        <time>2025-09-06T09:39:23Z</time>
      </trkpt>
      <trkpt lat="46.07745" lon="4.54799">
        <ele>742.8</ele>
        <time>2025-09-06T09:39:24Z</time>
      </trkpt>
      <trkpt lat="46.07749" lon="4.548">
        <ele>742.8</ele>
        <time>2025-09-06T09:39:25Z</time>
      </trkpt>
      <trkpt lat="46.07753" lon="4.54801">
        <ele>742.8</ele>
        <time>2025-09-06T09:39:26Z</time>
      </trkpt>
      <trkpt lat="46.07757" lon="4.54802">
        <ele>742.2</ele>
        <time>2025-09-06T09:39:27Z</time>
      </trkpt>
      <trkpt lat="46.07757" lon="4.54802">
        <ele>741.8</ele>
        <time>2025-09-06T09:39:28Z</time>
      </trkpt>
      <trkpt lat="46.07761" lon="4.54805">
        <ele>741.8</ele>
        <time>2025-09-06T09:39:29Z</time>
      </trkpt>
      <trkpt lat="46.07765" lon="4.54808">
        <ele>741.6</ele>
        <time>2025-09-06T09:39:30Z</time>
      </trkpt>
      <trkpt lat="46.07769" lon="4.54811">
        <ele>741.6</ele>
        <time>2025-09-06T09:39:31Z</time>
      </trkpt>
      <trkpt lat="46.07774" lon="4.54812">
        <ele>741.6</ele>
        <time>2025-09-06T09:39:32Z</time>
      </trkpt>
      <trkpt lat="46.07778" lon="4.54815">
        <ele>741</ele>
        <time>2025-09-06T09:39:33Z</time>
      </trkpt>
      <trkpt lat="46.07782" lon="4.54817">
        <ele>740.6</ele>
        <time>2025-09-06T09:39:34Z</time>
      </trkpt>
      <trkpt lat="46.07785" lon="4.54819">
        <ele>740.2</ele>
        <time>2025-09-06T09:39:35Z</time>
      </trkpt>
      <trkpt lat="46.0779" lon="4.54821">
        <ele>739.6</ele>
        <time>2025-09-06T09:39:36Z</time>
      </trkpt>
      <trkpt lat="46.07793" lon="4.54824">
        <ele>739</ele>
        <time>2025-09-06T09:39:37Z</time>
      </trkpt>
      <trkpt lat="46.07796" lon="4.54826">
        <ele>738.8</ele>
        <time>2025-09-06T09:39:38Z</time>
      </trkpt>
      <trkpt lat="46.078" lon="4.54827">
        <ele>738.8</ele>
        <time>2025-09-06T09:39:39Z</time>
      </trkpt>
      <trkpt lat="46.07802" lon="4.54829">
        <ele>737.8</ele>
        <time>2025-09-06T09:39:40Z</time>
      </trkpt>
      <trkpt lat="46.07805" lon="4.54831">
        <ele>737.8</ele>
        <time>2025-09-06T09:39:41Z</time>
      </trkpt>
      <trkpt lat="46.07809" lon="4.54834">
        <ele>737.8</ele>
        <time>2025-09-06T09:39:42Z</time>
      </trkpt>
      <trkpt lat="46.07812" lon="4.54836">
        <ele>737</ele>
        <time>2025-09-06T09:39:43Z</time>
      </trkpt>
      <trkpt lat="46.07816" lon="4.54837">
        <ele>736.4</ele>
        <time>2025-09-06T09:39:44Z</time>
      </trkpt>
      <trkpt lat="46.07821" lon="4.54838">
        <ele>736.2</ele>
        <time>2025-09-06T09:39:45Z</time>
      </trkpt>
      <trkpt lat="46.07826" lon="4.54839">
        <ele>735.8</ele>
        <time>2025-09-06T09:39:46Z</time>
      </trkpt>
      <trkpt lat="46.0783" lon="4.54841">
        <ele>735.8</ele>
        <time>2025-09-06T09:39:47Z</time>
      </trkpt>
      <trkpt lat="46.07834" lon="4.54841">
        <ele>735.8</ele>
        <time>2025-09-06T09:39:48Z</time>
      </trkpt>
      <trkpt lat="46.07838" lon="4.54842">
        <ele>735.6</ele>
        <time>2025-09-06T09:39:49Z</time>
      </trkpt>
      <trkpt lat="46.07842" lon="4.54842">
        <ele>735.6</ele>
        <time>2025-09-06T09:39:50Z</time>
      </trkpt>
      <trkpt lat="46.07846" lon="4.54842">
        <ele>735.4</ele>
        <time>2025-09-06T09:39:51Z</time>
      </trkpt>
      <trkpt lat="46.07851" lon="4.54843">
        <ele>735</ele>
        <time>2025-09-06T09:39:52Z</time>
      </trkpt>
      <trkpt lat="46.07859" lon="4.54844">
        <ele>735</ele>
        <time>2025-09-06T09:39:53Z</time>
      </trkpt>
      <trkpt lat="46.07865" lon="4.54844">
        <ele>734.6</ele>
        <time>2025-09-06T09:39:54Z</time>
      </trkpt>
      <trkpt lat="46.07868" lon="4.54848">
        <ele>734.6</ele>
        <time>2025-09-06T09:39:55Z</time>
      </trkpt>
      <trkpt lat="46.07872" lon="4.54851">
        <ele>733.8</ele>
        <time>2025-09-06T09:39:56Z</time>
      </trkpt>
      <trkpt lat="46.07875" lon="4.54853">
        <ele>733.8</ele>
        <time>2025-09-06T09:39:57Z</time>
      </trkpt>
      <trkpt lat="46.07877" lon="4.54855">
        <ele>733.8</ele>
        <time>2025-09-06T09:39:58Z</time>
      </trkpt>
      <trkpt lat="46.07879" lon="4.54856">
        <ele>733.4</ele>
        <time>2025-09-06T09:39:59Z</time>
      </trkpt>
      <trkpt lat="46.07883" lon="4.54858">
        <ele>733.4</ele>
        <time>2025-09-06T09:40:00Z</time>
      </trkpt>
      <trkpt lat="46.07885" lon="4.54857">
        <ele>732.6</ele>
        <time>2025-09-06T09:40:01Z</time>
      </trkpt>
      <trkpt lat="46.0789" lon="4.54861">
        <ele>732.4</ele>
        <time>2025-09-06T09:40:02Z</time>
      </trkpt>
      <trkpt lat="46.07896" lon="4.54862">
        <ele>732</ele>
        <time>2025-09-06T09:40:03Z</time>
      </trkpt>
      <trkpt lat="46.079" lon="4.54863">
        <ele>731.8</ele>
        <time>2025-09-06T09:40:04Z</time>
      </trkpt>
      <trkpt lat="46.07905" lon="4.54864">
        <ele>731.2</ele>
        <time>2025-09-06T09:40:05Z</time>
      </trkpt>
      <trkpt lat="46.0791" lon="4.54865">
        <ele>731.2</ele>
        <time>2025-09-06T09:40:06Z</time>
      </trkpt>
      <trkpt lat="46.07915" lon="4.54866">
        <ele>730.4</ele>
        <time>2025-09-06T09:40:07Z</time>
      </trkpt>
      <trkpt lat="46.07918" lon="4.54867">
        <ele>730.4</ele>
        <time>2025-09-06T09:40:08Z</time>
      </trkpt>
      <trkpt lat="46.07921" lon="4.54869">
        <ele>729.8</ele>
        <time>2025-09-06T09:40:09Z</time>
      </trkpt>
      <trkpt lat="46.07923" lon="4.54871">
        <ele>729.8</ele>
        <time>2025-09-06T09:40:10Z</time>
      </trkpt>
      <trkpt lat="46.07926" lon="4.54871">
        <ele>729.4</ele>
        <time>2025-09-06T09:40:11Z</time>
      </trkpt>
      <trkpt lat="46.07927" lon="4.5487">
        <ele>729.4</ele>
        <time>2025-09-06T09:40:12Z</time>
      </trkpt>
      <trkpt lat="46.07931" lon="4.54872">
        <ele>729</ele>
        <time>2025-09-06T09:40:13Z</time>
      </trkpt>
      <trkpt lat="46.07934" lon="4.54873">
        <ele>729</ele>
        <time>2025-09-06T09:40:14Z</time>
      </trkpt>
      <trkpt lat="46.07936" lon="4.54873">
        <ele>728.2</ele>
        <time>2025-09-06T09:40:15Z</time>
      </trkpt>
      <trkpt lat="46.07938" lon="4.54873">
        <ele>728</ele>
        <time>2025-09-06T09:40:16Z</time>
      </trkpt>
      <trkpt lat="46.07941" lon="4.54872">
        <ele>727.6</ele>
        <time>2025-09-06T09:40:17Z</time>
      </trkpt>
      <trkpt lat="46.07945" lon="4.54872">
        <ele>727</ele>
        <time>2025-09-06T09:40:18Z</time>
      </trkpt>
      <trkpt lat="46.07948" lon="4.54872">
        <ele>727</ele>
        <time>2025-09-06T09:40:19Z</time>
      </trkpt>
      <trkpt lat="46.07952" lon="4.54872">
        <ele>727</ele>
        <time>2025-09-06T09:40:20Z</time>
      </trkpt>
      <trkpt lat="46.07955" lon="4.54873">
        <ele>726.4</ele>
        <time>2025-09-06T09:40:21Z</time>
      </trkpt>
      <trkpt lat="46.07959" lon="4.54873">
        <ele>726.4</ele>
        <time>2025-09-06T09:40:22Z</time>
      </trkpt>
      <trkpt lat="46.07964" lon="4.54872">
        <ele>726</ele>
        <time>2025-09-06T09:40:23Z</time>
      </trkpt>
      <trkpt lat="46.07968" lon="4.54871">
        <ele>725.6</ele>
        <time>2025-09-06T09:40:24Z</time>
      </trkpt>
      <trkpt lat="46.07973" lon="4.54871">
        <ele>725.4</ele>
        <time>2025-09-06T09:40:25Z</time>
      </trkpt>
      <trkpt lat="46.07977" lon="4.5487">
        <ele>725.4</ele>
        <time>2025-09-06T09:40:26Z</time>
      </trkpt>
      <trkpt lat="46.07984" lon="4.54871">
        <ele>725.4</ele>
        <time>2025-09-06T09:40:27Z</time>
      </trkpt>
      <trkpt lat="46.07986" lon="4.54874">
        <ele>725.4</ele>
        <time>2025-09-06T09:40:28Z</time>
      </trkpt>
      <trkpt lat="46.07989" lon="4.54877">
        <ele>725</ele>
        <time>2025-09-06T09:40:29Z</time>
      </trkpt>
      <trkpt lat="46.07993" lon="4.54878">
        <ele>724.6</ele>
        <time>2025-09-06T09:40:30Z</time>
      </trkpt>
      <trkpt lat="46.07996" lon="4.54879">
        <ele>724.6</ele>
        <time>2025-09-06T09:40:31Z</time>
      </trkpt>
      <trkpt lat="46.07999" lon="4.5488">
        <ele>724.2</ele>
        <time>2025-09-06T09:40:32Z</time>
      </trkpt>
      <trkpt lat="46.08001" lon="4.54881">
        <ele>724.2</ele>
        <time>2025-09-06T09:40:33Z</time>
      </trkpt>
      <trkpt lat="46.08004" lon="4.54881">
        <ele>724.2</ele>
        <time>2025-09-06T09:40:34Z</time>
      </trkpt>
      <trkpt lat="46.08007" lon="4.54881">
        <ele>724.2</ele>
        <time>2025-09-06T09:40:35Z</time>
      </trkpt>
      <trkpt lat="46.08009" lon="4.54881">
        <ele>723.8</ele>
        <time>2025-09-06T09:40:36Z</time>
      </trkpt>
      <trkpt lat="46.08011" lon="4.5488">
        <ele>723.8</ele>
        <time>2025-09-06T09:40:37Z</time>
      </trkpt>
      <trkpt lat="46.08014" lon="4.54878">
        <ele>723.8</ele>
        <time>2025-09-06T09:40:38Z</time>
      </trkpt>
      <trkpt lat="46.08017" lon="4.54877">
        <ele>723.8</ele>
        <time>2025-09-06T09:40:39Z</time>
      </trkpt>
      <trkpt lat="46.08019" lon="4.54875">
        <ele>724</ele>
        <time>2025-09-06T09:40:40Z</time>
      </trkpt>
      <trkpt lat="46.08022" lon="4.54873">
        <ele>724.4</ele>
        <time>2025-09-06T09:40:41Z</time>
      </trkpt>
      <trkpt lat="46.08025" lon="4.54871">
        <ele>724.6</ele>
        <time>2025-09-06T09:40:42Z</time>
      </trkpt>
      <trkpt lat="46.08027" lon="4.54869">
        <ele>724.8</ele>
        <time>2025-09-06T09:40:43Z</time>
      </trkpt>
      <trkpt lat="46.08029" lon="4.54867">
        <ele>725</ele>
        <time>2025-09-06T09:40:44Z</time>
      </trkpt>
      <trkpt lat="46.08032" lon="4.54865">
        <ele>725.4</ele>
        <time>2025-09-06T09:40:45Z</time>
      </trkpt>
      <trkpt lat="46.08035" lon="4.54863">
        <ele>725.4</ele>
        <time>2025-09-06T09:40:46Z</time>
      </trkpt>
      <trkpt lat="46.08037" lon="4.54861">
        <ele>725.6</ele>
        <time>2025-09-06T09:40:47Z</time>
      </trkpt>
      <trkpt lat="46.0804" lon="4.54859">
        <ele>725.6</ele>
        <time>2025-09-06T09:40:48Z</time>
      </trkpt>
      <trkpt lat="46.08043" lon="4.54857">
        <ele>725.6</ele>
        <time>2025-09-06T09:40:49Z</time>
      </trkpt>
      <trkpt lat="46.08046" lon="4.54854">
        <ele>725.6</ele>
        <time>2025-09-06T09:40:50Z</time>
      </trkpt>
      <trkpt lat="46.08049" lon="4.54851">
        <ele>725.6</ele>
        <time>2025-09-06T09:40:51Z</time>
      </trkpt>
      <trkpt lat="46.08052" lon="4.54848">
        <ele>725.6</ele>
        <time>2025-09-06T09:40:52Z</time>
      </trkpt>
      <trkpt lat="46.08055" lon="4.54845">
        <ele>725.6</ele>
        <time>2025-09-06T09:40:53Z</time>
      </trkpt>
      <trkpt lat="46.08058" lon="4.54843">
        <ele>726</ele>
        <time>2025-09-06T09:40:54Z</time>
      </trkpt>
      <trkpt lat="46.08062" lon="4.5484">
        <ele>726</ele>
        <time>2025-09-06T09:40:55Z</time>
      </trkpt>
      <trkpt lat="46.08065" lon="4.54838">
        <ele>726</ele>
        <time>2025-09-06T09:40:56Z</time>
      </trkpt>
      <trkpt lat="46.08069" lon="4.54835">
        <ele>726.4</ele>
        <time>2025-09-06T09:40:57Z</time>
      </trkpt>
      <trkpt lat="46.08072" lon="4.54833">
        <ele>726.4</ele>
        <time>2025-09-06T09:40:58Z</time>
      </trkpt>
      <trkpt lat="46.08076" lon="4.54831">
        <ele>726.4</ele>
        <time>2025-09-06T09:40:59Z</time>
      </trkpt>
      <trkpt lat="46.08079" lon="4.5483">
        <ele>726.4</ele>
        <time>2025-09-06T09:41:00Z</time>
      </trkpt>
      <trkpt lat="46.08083" lon="4.54828">
        <ele>726.4</ele>
        <time>2025-09-06T09:41:01Z</time>
      </trkpt>
      <trkpt lat="46.08087" lon="4.54826">
        <ele>726.6</ele>
        <time>2025-09-06T09:41:02Z</time>
      </trkpt>
      <trkpt lat="46.08091" lon="4.54824">
        <ele>726.6</ele>
        <time>2025-09-06T09:41:03Z</time>
      </trkpt>
      <trkpt lat="46.08095" lon="4.54823">
        <ele>726.6</ele>
        <time>2025-09-06T09:41:04Z</time>
      </trkpt>
      <trkpt lat="46.08098" lon="4.54823">
        <ele>726.6</ele>
        <time>2025-09-06T09:41:05Z</time>
      </trkpt>
      <trkpt lat="46.08102" lon="4.54822">
        <ele>726.6</ele>
        <time>2025-09-06T09:41:06Z</time>
      </trkpt>
      <trkpt lat="46.08106" lon="4.54821">
        <ele>726.6</ele>
        <time>2025-09-06T09:41:07Z</time>
      </trkpt>
      <trkpt lat="46.0811" lon="4.5482">
        <ele>726.6</ele>
        <time>2025-09-06T09:41:08Z</time>
      </trkpt>
      <trkpt lat="46.08113" lon="4.54819">
        <ele>726.6</ele>
        <time>2025-09-06T09:41:09Z</time>
      </trkpt>
      <trkpt lat="46.08118" lon="4.54819">
        <ele>727</ele>
        <time>2025-09-06T09:41:10Z</time>
      </trkpt>
      <trkpt lat="46.08122" lon="4.54818">
        <ele>727</ele>
        <time>2025-09-06T09:41:11Z</time>
      </trkpt>
      <trkpt lat="46.08126" lon="4.54817">
        <ele>727</ele>
        <time>2025-09-06T09:41:12Z</time>
      </trkpt>
      <trkpt lat="46.08131" lon="4.54817">
        <ele>727</ele>
        <time>2025-09-06T09:41:13Z</time>
      </trkpt>
      <trkpt lat="46.08136" lon="4.54817">
        <ele>727</ele>
        <time>2025-09-06T09:41:14Z</time>
      </trkpt>
      <trkpt lat="46.08141" lon="4.54816">
        <ele>727</ele>
        <time>2025-09-06T09:41:15Z</time>
      </trkpt>
      <trkpt lat="46.08146" lon="4.54815">
        <ele>727</ele>
        <time>2025-09-06T09:41:16Z</time>
      </trkpt>
      <trkpt lat="46.08151" lon="4.54815">
        <ele>727.2</ele>
        <time>2025-09-06T09:41:17Z</time>
      </trkpt>
      <trkpt lat="46.08156" lon="4.54814">
        <ele>727.2</ele>
        <time>2025-09-06T09:41:18Z</time>
      </trkpt>
      <trkpt lat="46.08161" lon="4.54813">
        <ele>727.2</ele>
        <time>2025-09-06T09:41:19Z</time>
      </trkpt>
      <trkpt lat="46.08166" lon="4.54812">
        <ele>727.2</ele>
        <time>2025-09-06T09:41:20Z</time>
      </trkpt>
      <trkpt lat="46.08171" lon="4.54811">
        <ele>727.2</ele>
        <time>2025-09-06T09:41:21Z</time>
      </trkpt>
      <trkpt lat="46.08176" lon="4.5481">
        <ele>727.2</ele>
        <time>2025-09-06T09:41:22Z</time>
      </trkpt>
      <trkpt lat="46.0818" lon="4.54809">
        <ele>727.6</ele>
        <time>2025-09-06T09:41:23Z</time>
      </trkpt>
      <trkpt lat="46.08185" lon="4.54807">
        <ele>727.6</ele>
        <time>2025-09-06T09:41:24Z</time>
      </trkpt>
      <trkpt lat="46.0819" lon="4.54805">
        <ele>727.6</ele>
        <time>2025-09-06T09:41:25Z</time>
      </trkpt>
      <trkpt lat="46.08194" lon="4.54804">
        <ele>727.6</ele>
        <time>2025-09-06T09:41:26Z</time>
      </trkpt>
      <trkpt lat="46.08198" lon="4.54802">
        <ele>728</ele>
        <time>2025-09-06T09:41:27Z</time>
      </trkpt>
      <trkpt lat="46.08202" lon="4.54801">
        <ele>728</ele>
        <time>2025-09-06T09:41:28Z</time>
      </trkpt>
      <trkpt lat="46.08206" lon="4.54799">
        <ele>728</ele>
        <time>2025-09-06T09:41:29Z</time>
      </trkpt>
      <trkpt lat="46.08209" lon="4.54798">
        <ele>728</ele>
        <time>2025-09-06T09:41:30Z</time>
      </trkpt>
      <trkpt lat="46.08213" lon="4.54797">
        <ele>728.2</ele>
        <time>2025-09-06T09:41:31Z</time>
      </trkpt>
      <trkpt lat="46.08216" lon="4.54795">
        <ele>728.6</ele>
        <time>2025-09-06T09:41:32Z</time>
      </trkpt>
      <trkpt lat="46.08219" lon="4.54794">
        <ele>728.8</ele>
        <time>2025-09-06T09:41:33Z</time>
      </trkpt>
      <trkpt lat="46.08223" lon="4.54793">
        <ele>728.8</ele>
        <time>2025-09-06T09:41:34Z</time>
      </trkpt>
      <trkpt lat="46.08226" lon="4.54792">
        <ele>729</ele>
        <time>2025-09-06T09:41:35Z</time>
      </trkpt>
      <trkpt lat="46.08229" lon="4.54791">
        <ele>729.2</ele>
        <time>2025-09-06T09:41:36Z</time>
      </trkpt>
      <trkpt lat="46.08232" lon="4.5479">
        <ele>729.2</ele>
        <time>2025-09-06T09:41:37Z</time>
      </trkpt>
      <trkpt lat="46.08235" lon="4.54789">
        <ele>729.6</ele>
        <time>2025-09-06T09:41:38Z</time>
      </trkpt>
      <trkpt lat="46.08237" lon="4.54788">
        <ele>729.8</ele>
        <time>2025-09-06T09:41:39Z</time>
      </trkpt>
      <trkpt lat="46.0824" lon="4.54787">
        <ele>729.8</ele>
        <time>2025-09-06T09:41:40Z</time>
      </trkpt>
      <trkpt lat="46.08243" lon="4.54786">
        <ele>730</ele>
        <time>2025-09-06T09:41:41Z</time>
      </trkpt>
      <trkpt lat="46.08246" lon="4.54785">
        <ele>730</ele>
        <time>2025-09-06T09:41:42Z</time>
      </trkpt>
      <trkpt lat="46.08249" lon="4.54784">
        <ele>730</ele>
        <time>2025-09-06T09:41:43Z</time>
      </trkpt>
      <trkpt lat="46.08252" lon="4.54783">
        <ele>730</ele>
        <time>2025-09-06T09:41:44Z</time>
      </trkpt>
      <trkpt lat="46.08255" lon="4.54782">
        <ele>730</ele>
        <time>2025-09-06T09:41:45Z</time>
      </trkpt>
      <trkpt lat="46.08259" lon="4.5478">
        <ele>730.4</ele>
        <time>2025-09-06T09:41:46Z</time>
      </trkpt>
      <trkpt lat="46.08262" lon="4.54778">
        <ele>730.6</ele>
        <time>2025-09-06T09:41:47Z</time>
      </trkpt>
      <trkpt lat="46.08266" lon="4.54777">
        <ele>730.6</ele>
        <time>2025-09-06T09:41:48Z</time>
      </trkpt>
      <trkpt lat="46.08269" lon="4.54776">
        <ele>730.6</ele>
        <time>2025-09-06T09:41:49Z</time>
      </trkpt>
      <trkpt lat="46.08273" lon="4.54774">
        <ele>730.6</ele>
        <time>2025-09-06T09:41:50Z</time>
      </trkpt>
      <trkpt lat="46.08277" lon="4.54773">
        <ele>730.8</ele>
        <time>2025-09-06T09:41:51Z</time>
      </trkpt>
      <trkpt lat="46.08281" lon="4.54771">
        <ele>730.8</ele>
        <time>2025-09-06T09:41:52Z</time>
      </trkpt>
      <trkpt lat="46.08285" lon="4.54769">
        <ele>730.6</ele>
        <time>2025-09-06T09:41:53Z</time>
      </trkpt>
      <trkpt lat="46.08288" lon="4.54767">
        <ele>730.6</ele>
        <time>2025-09-06T09:41:54Z</time>
      </trkpt>
      <trkpt lat="46.08293" lon="4.54764">
        <ele>730.6</ele>
        <time>2025-09-06T09:41:55Z</time>
      </trkpt>
      <trkpt lat="46.08297" lon="4.54762">
        <ele>730.6</ele>
        <time>2025-09-06T09:41:56Z</time>
      </trkpt>
      <trkpt lat="46.08301" lon="4.54759">
        <ele>730.6</ele>
        <time>2025-09-06T09:41:57Z</time>
      </trkpt>
      <trkpt lat="46.08305" lon="4.54757">
        <ele>730.8</ele>
        <time>2025-09-06T09:41:58Z</time>
      </trkpt>
      <trkpt lat="46.08309" lon="4.54755">
        <ele>730.8</ele>
        <time>2025-09-06T09:41:59Z</time>
      </trkpt>
      <trkpt lat="46.08313" lon="4.54752">
        <ele>731</ele>
        <time>2025-09-06T09:42:00Z</time>
      </trkpt>
      <trkpt lat="46.08317" lon="4.5475">
        <ele>731</ele>
        <time>2025-09-06T09:42:01Z</time>
      </trkpt>
      <trkpt lat="46.08321" lon="4.54747">
        <ele>731</ele>
        <time>2025-09-06T09:42:02Z</time>
      </trkpt>
      <trkpt lat="46.08325" lon="4.54744">
        <ele>731</ele>
        <time>2025-09-06T09:42:03Z</time>
      </trkpt>
      <trkpt lat="46.08329" lon="4.54742">
        <ele>731</ele>
        <time>2025-09-06T09:42:04Z</time>
      </trkpt>
      <trkpt lat="46.08332" lon="4.54739">
        <ele>731.2</ele>
        <time>2025-09-06T09:42:05Z</time>
      </trkpt>
      <trkpt lat="46.08335" lon="4.54735">
        <ele>731.2</ele>
        <time>2025-09-06T09:42:06Z</time>
      </trkpt>
      <trkpt lat="46.08339" lon="4.54732">
        <ele>731.2</ele>
        <time>2025-09-06T09:42:07Z</time>
      </trkpt>
      <trkpt lat="46.08342" lon="4.54728">
        <ele>731.2</ele>
        <time>2025-09-06T09:42:08Z</time>
      </trkpt>
      <trkpt lat="46.08345" lon="4.54724">
        <ele>731.4</ele>
        <time>2025-09-06T09:42:09Z</time>
      </trkpt>
      <trkpt lat="46.08347" lon="4.54721">
        <ele>731.4</ele>
        <time>2025-09-06T09:42:10Z</time>
      </trkpt>
      <trkpt lat="46.0835" lon="4.54718">
        <ele>731.4</ele>
        <time>2025-09-06T09:42:11Z</time>
      </trkpt>
      <trkpt lat="46.08353" lon="4.54713">
        <ele>731.4</ele>
        <time>2025-09-06T09:42:12Z</time>
      </trkpt>
      <trkpt lat="46.08355" lon="4.54709">
        <ele>731.6</ele>
        <time>2025-09-06T09:42:13Z</time>
      </trkpt>
      <trkpt lat="46.08358" lon="4.54706">
        <ele>732</ele>
        <time>2025-09-06T09:42:14Z</time>
      </trkpt>
      <trkpt lat="46.0836" lon="4.54702">
        <ele>732</ele>
        <time>2025-09-06T09:42:15Z</time>
      </trkpt>
      <trkpt lat="46.08363" lon="4.54699">
        <ele>732.2</ele>
        <time>2025-09-06T09:42:16Z</time>
      </trkpt>
      <trkpt lat="46.08365" lon="4.54696">
        <ele>732.2</ele>
        <time>2025-09-06T09:42:17Z</time>
      </trkpt>
      <trkpt lat="46.08368" lon="4.54693">
        <ele>732.6</ele>
        <time>2025-09-06T09:42:18Z</time>
      </trkpt>
      <trkpt lat="46.0837" lon="4.5469">
        <ele>732.8</ele>
        <time>2025-09-06T09:42:19Z</time>
      </trkpt>
      <trkpt lat="46.08373" lon="4.54688">
        <ele>732.8</ele>
        <time>2025-09-06T09:42:20Z</time>
      </trkpt>
      <trkpt lat="46.08375" lon="4.54686">
        <ele>733.2</ele>
        <time>2025-09-06T09:42:21Z</time>
      </trkpt>
      <trkpt lat="46.08378" lon="4.54683">
        <ele>733.4</ele>
        <time>2025-09-06T09:42:22Z</time>
      </trkpt>
      <trkpt lat="46.0838" lon="4.54681">
        <ele>733.4</ele>
        <time>2025-09-06T09:42:23Z</time>
      </trkpt>
      <trkpt lat="46.08383" lon="4.54679">
        <ele>734</ele>
        <time>2025-09-06T09:42:24Z</time>
      </trkpt>
      <trkpt lat="46.08386" lon="4.54676">
        <ele>734</ele>
        <time>2025-09-06T09:42:25Z</time>
      </trkpt>
      <trkpt lat="46.08389" lon="4.54675">
        <ele>734</ele>
        <time>2025-09-06T09:42:26Z</time>
      </trkpt>
      <trkpt lat="46.08392" lon="4.54673">
        <ele>734</ele>
        <time>2025-09-06T09:42:27Z</time>
      </trkpt>
      <trkpt lat="46.08395" lon="4.54672">
        <ele>734</ele>
        <time>2025-09-06T09:42:28Z</time>
      </trkpt>
      <trkpt lat="46.08398" lon="4.54671">
        <ele>734.2</ele>
        <time>2025-09-06T09:42:29Z</time>
      </trkpt>
      <trkpt lat="46.08401" lon="4.54671">
        <ele>734.2</ele>
        <time>2025-09-06T09:42:30Z</time>
      </trkpt>
      <trkpt lat="46.08404" lon="4.54672">
        <ele>734.2</ele>
        <time>2025-09-06T09:42:31Z</time>
      </trkpt>
      <trkpt lat="46.08407" lon="4.54673">
        <ele>734.6</ele>
        <time>2025-09-06T09:42:32Z</time>
      </trkpt>
      <trkpt lat="46.0841" lon="4.54674">
        <ele>734.6</ele>
        <time>2025-09-06T09:42:33Z</time>
      </trkpt>
      <trkpt lat="46.08413" lon="4.54676">
        <ele>734.6</ele>
        <time>2025-09-06T09:42:34Z</time>
      </trkpt>
      <trkpt lat="46.08416" lon="4.54678">
        <ele>734.6</ele>
        <time>2025-09-06T09:42:35Z</time>
      </trkpt>
      <trkpt lat="46.08418" lon="4.5468">
        <ele>735</ele>
        <time>2025-09-06T09:42:36Z</time>
      </trkpt>
      <trkpt lat="46.08421" lon="4.54682">
        <ele>735</ele>
        <time>2025-09-06T09:42:37Z</time>
      </trkpt>
      <trkpt lat="46.08424" lon="4.54684">
        <ele>735</ele>
        <time>2025-09-06T09:42:38Z</time>
      </trkpt>
      <trkpt lat="46.08426" lon="4.54686">
        <ele>735</ele>
        <time>2025-09-06T09:42:39Z</time>
      </trkpt>
      <trkpt lat="46.08429" lon="4.54688">
        <ele>735.2</ele>
        <time>2025-09-06T09:42:40Z</time>
      </trkpt>
      <trkpt lat="46.08432" lon="4.5469">
        <ele>735.2</ele>
        <time>2025-09-06T09:42:41Z</time>
      </trkpt>
      <trkpt lat="46.08435" lon="4.54692">
        <ele>735.2</ele>
        <time>2025-09-06T09:42:42Z</time>
      </trkpt>
      <trkpt lat="46.08438" lon="4.54694">
        <ele>735.4</ele>
        <time>2025-09-06T09:42:43Z</time>
      </trkpt>
      <trkpt lat="46.08441" lon="4.54696">
        <ele>735.4</ele>
        <time>2025-09-06T09:42:44Z</time>
      </trkpt>
      <trkpt lat="46.08443" lon="4.54698">
        <ele>735.4</ele>
        <time>2025-09-06T09:42:45Z</time>
      </trkpt>
      <trkpt lat="46.08446" lon="4.547">
        <ele>735.4</ele>
        <time>2025-09-06T09:42:46Z</time>
      </trkpt>
      <trkpt lat="46.08449" lon="4.54702">
        <ele>735.8</ele>
        <time>2025-09-06T09:42:47Z</time>
      </trkpt>
      <trkpt lat="46.08452" lon="4.54703">
        <ele>735.8</ele>
        <time>2025-09-06T09:42:48Z</time>
      </trkpt>
      <trkpt lat="46.08455" lon="4.54705">
        <ele>736</ele>
        <time>2025-09-06T09:42:49Z</time>
      </trkpt>
      <trkpt lat="46.08458" lon="4.54707">
        <ele>736.2</ele>
        <time>2025-09-06T09:42:50Z</time>
      </trkpt>
      <trkpt lat="46.08462" lon="4.54709">
        <ele>736.2</ele>
        <time>2025-09-06T09:42:51Z</time>
      </trkpt>
      <trkpt lat="46.08465" lon="4.54711">
        <ele>735.8</ele>
        <time>2025-09-06T09:42:52Z</time>
      </trkpt>
      <trkpt lat="46.08468" lon="4.54714">
        <ele>735.8</ele>
        <time>2025-09-06T09:42:53Z</time>
      </trkpt>
      <trkpt lat="46.08471" lon="4.54716">
        <ele>735.8</ele>
        <time>2025-09-06T09:42:54Z</time>
      </trkpt>
      <trkpt lat="46.08474" lon="4.54719">
        <ele>735.8</ele>
        <time>2025-09-06T09:42:55Z</time>
      </trkpt>
      <trkpt lat="46.08477" lon="4.54721">
        <ele>736.2</ele>
        <time>2025-09-06T09:42:56Z</time>
      </trkpt>
      <trkpt lat="46.08481" lon="4.54724">
        <ele>736.2</ele>
        <time>2025-09-06T09:42:57Z</time>
      </trkpt>
      <trkpt lat="46.08484" lon="4.54727">
        <ele>736.2</ele>
        <time>2025-09-06T09:42:58Z</time>
      </trkpt>
      <trkpt lat="46.08487" lon="4.5473">
        <ele>736.2</ele>
        <time>2025-09-06T09:42:59Z</time>
      </trkpt>
      <trkpt lat="46.08491" lon="4.54734">
        <ele>736.6</ele>
        <time>2025-09-06T09:43:00Z</time>
      </trkpt>
      <trkpt lat="46.08494" lon="4.54737">
        <ele>736.6</ele>
        <time>2025-09-06T09:43:01Z</time>
      </trkpt>
      <trkpt lat="46.08497" lon="4.5474">
        <ele>736.6</ele>
        <time>2025-09-06T09:43:02Z</time>
      </trkpt>
      <trkpt lat="46.08497" lon="4.5474">
        <ele>736.6</ele>
        <time>2025-09-06T09:43:03Z</time>
      </trkpt>
      <trkpt lat="46.085" lon="4.54744">
        <ele>736.6</ele>
        <time>2025-09-06T09:43:04Z</time>
      </trkpt>
      <trkpt lat="46.08503" lon="4.54748">
        <ele>736.2</ele>
        <time>2025-09-06T09:43:05Z</time>
      </trkpt>
      <trkpt lat="46.08506" lon="4.54751">
        <ele>736.2</ele>
        <time>2025-09-06T09:43:06Z</time>
      </trkpt>
      <trkpt lat="46.0851" lon="4.54755">
        <ele>736.2</ele>
        <time>2025-09-06T09:43:07Z</time>
      </trkpt>
      <trkpt lat="46.08514" lon="4.54759">
        <ele>736.2</ele>
        <time>2025-09-06T09:43:08Z</time>
      </trkpt>
      <trkpt lat="46.08517" lon="4.54763">
        <ele>736.2</ele>
        <time>2025-09-06T09:43:09Z</time>
      </trkpt>
      <trkpt lat="46.08521" lon="4.54768">
        <ele>736.2</ele>
        <time>2025-09-06T09:43:10Z</time>
      </trkpt>
      <trkpt lat="46.08524" lon="4.54773">
        <ele>736.2</ele>
        <time>2025-09-06T09:43:11Z</time>
      </trkpt>
      <trkpt lat="46.08528" lon="4.54778">
        <ele>736</ele>
        <time>2025-09-06T09:43:12Z</time>
      </trkpt>
      <trkpt lat="46.08532" lon="4.54784">
        <ele>736</ele>
        <time>2025-09-06T09:43:13Z</time>
      </trkpt>
      <trkpt lat="46.08535" lon="4.5479">
        <ele>736.2</ele>
        <time>2025-09-06T09:43:14Z</time>
      </trkpt>
      <trkpt lat="46.08539" lon="4.54795">
        <ele>736.2</ele>
        <time>2025-09-06T09:43:15Z</time>
      </trkpt>
      <trkpt lat="46.08542" lon="4.54802">
        <ele>736.2</ele>
        <time>2025-09-06T09:43:16Z</time>
      </trkpt>
      <trkpt lat="46.08546" lon="4.54807">
        <ele>736.2</ele>
        <time>2025-09-06T09:43:17Z</time>
      </trkpt>
      <trkpt lat="46.0855" lon="4.54813">
        <ele>736.2</ele>
        <time>2025-09-06T09:43:18Z</time>
      </trkpt>
      <trkpt lat="46.08553" lon="4.54819">
        <ele>735.6</ele>
        <time>2025-09-06T09:43:19Z</time>
      </trkpt>
      <trkpt lat="46.08557" lon="4.54825">
        <ele>735.6</ele>
        <time>2025-09-06T09:43:20Z</time>
      </trkpt>
      <trkpt lat="46.0856" lon="4.54831">
        <ele>735.2</ele>
        <time>2025-09-06T09:43:21Z</time>
      </trkpt>
      <trkpt lat="46.08564" lon="4.54838">
        <ele>734.6</ele>
        <time>2025-09-06T09:43:22Z</time>
      </trkpt>
      <trkpt lat="46.08566" lon="4.54843">
        <ele>734.2</ele>
        <time>2025-09-06T09:43:23Z</time>
      </trkpt>
      <trkpt lat="46.0857" lon="4.54848">
        <ele>734</ele>
        <time>2025-09-06T09:43:24Z</time>
      </trkpt>
      <trkpt lat="46.08575" lon="4.54853">
        <ele>734</ele>
        <time>2025-09-06T09:43:25Z</time>
      </trkpt>
      <trkpt lat="46.08579" lon="4.54858">
        <ele>734.4</ele>
        <time>2025-09-06T09:43:26Z</time>
      </trkpt>
      <trkpt lat="46.08584" lon="4.54863">
        <ele>734.4</ele>
        <time>2025-09-06T09:43:27Z</time>
      </trkpt>
      <trkpt lat="46.08589" lon="4.54867">
        <ele>734</ele>
        <time>2025-09-06T09:43:28Z</time>
      </trkpt>
      <trkpt lat="46.08594" lon="4.54871">
        <ele>734</ele>
        <time>2025-09-06T09:43:29Z</time>
      </trkpt>
      <trkpt lat="46.08603" lon="4.54879">
        <ele>734.2</ele>
        <time>2025-09-06T09:43:30Z</time>
      </trkpt>
      <trkpt lat="46.08608" lon="4.54882">
        <ele>734.2</ele>
        <time>2025-09-06T09:43:31Z</time>
      </trkpt>
      <trkpt lat="46.08614" lon="4.54884">
        <ele>734.2</ele>
        <time>2025-09-06T09:43:32Z</time>
      </trkpt>
      <trkpt lat="46.08619" lon="4.54885">
        <ele>734.2</ele>
        <time>2025-09-06T09:43:33Z</time>
      </trkpt>
      <trkpt lat="46.08623" lon="4.54887">
        <ele>734.2</ele>
        <time>2025-09-06T09:43:34Z</time>
      </trkpt>
      <trkpt lat="46.08628" lon="4.54888">
        <ele>734.2</ele>
        <time>2025-09-06T09:43:35Z</time>
      </trkpt>
      <trkpt lat="46.08633" lon="4.54891">
        <ele>734.2</ele>
        <time>2025-09-06T09:43:36Z</time>
      </trkpt>
      <trkpt lat="46.08638" lon="4.54891">
        <ele>734.4</ele>
        <time>2025-09-06T09:43:37Z</time>
      </trkpt>
      <trkpt lat="46.08643" lon="4.54891">
        <ele>734.4</ele>
        <time>2025-09-06T09:43:38Z</time>
      </trkpt>
      <trkpt lat="46.08647" lon="4.54891">
        <ele>734.4</ele>
        <time>2025-09-06T09:43:39Z</time>
      </trkpt>
      <trkpt lat="46.08652" lon="4.5489">
        <ele>734</ele>
        <time>2025-09-06T09:43:40Z</time>
      </trkpt>
      <trkpt lat="46.08658" lon="4.5489">
        <ele>734</ele>
        <time>2025-09-06T09:43:41Z</time>
      </trkpt>
      <trkpt lat="46.08663" lon="4.54889">
        <ele>734</ele>
        <time>2025-09-06T09:43:42Z</time>
      </trkpt>
      <trkpt lat="46.08669" lon="4.54888">
        <ele>733.8</ele>
        <time>2025-09-06T09:43:43Z</time>
      </trkpt>
      <trkpt lat="46.08674" lon="4.54884">
        <ele>733.8</ele>
        <time>2025-09-06T09:43:44Z</time>
      </trkpt>
      <trkpt lat="46.0868" lon="4.54883">
        <ele>733.8</ele>
        <time>2025-09-06T09:43:45Z</time>
      </trkpt>
      <trkpt lat="46.08685" lon="4.5488">
        <ele>734</ele>
        <time>2025-09-06T09:43:46Z</time>
      </trkpt>
      <trkpt lat="46.0869" lon="4.54878">
        <ele>733.8</ele>
        <time>2025-09-06T09:43:47Z</time>
      </trkpt>
      <trkpt lat="46.08695" lon="4.54873">
        <ele>733.8</ele>
        <time>2025-09-06T09:43:48Z</time>
      </trkpt>
      <trkpt lat="46.08699" lon="4.54869">
        <ele>734</ele>
        <time>2025-09-06T09:43:49Z</time>
      </trkpt>
      <trkpt lat="46.08704" lon="4.54864">
        <ele>734.4</ele>
        <time>2025-09-06T09:43:50Z</time>
      </trkpt>
      <trkpt lat="46.08708" lon="4.54859">
        <ele>734.6</ele>
        <time>2025-09-06T09:43:51Z</time>
      </trkpt>
      <trkpt lat="46.08712" lon="4.54853">
        <ele>734.6</ele>
        <time>2025-09-06T09:43:52Z</time>
      </trkpt>
      <trkpt lat="46.08715" lon="4.54847">
        <ele>734.4</ele>
        <time>2025-09-06T09:43:53Z</time>
      </trkpt>
      <trkpt lat="46.08719" lon="4.54842">
        <ele>734.8</ele>
        <time>2025-09-06T09:43:54Z</time>
      </trkpt>
      <trkpt lat="46.08723" lon="4.54837">
        <ele>734.6</ele>
        <time>2025-09-06T09:43:55Z</time>
      </trkpt>
      <trkpt lat="46.08727" lon="4.54833">
        <ele>734.6</ele>
        <time>2025-09-06T09:43:56Z</time>
      </trkpt>
      <trkpt lat="46.08731" lon="4.54827">
        <ele>734.8</ele>
        <time>2025-09-06T09:43:57Z</time>
      </trkpt>
      <trkpt lat="46.08735" lon="4.54824">
        <ele>734.8</ele>
        <time>2025-09-06T09:43:58Z</time>
      </trkpt>
      <trkpt lat="46.08739" lon="4.5482">
        <ele>734.8</ele>
        <time>2025-09-06T09:43:59Z</time>
      </trkpt>
      <trkpt lat="46.08743" lon="4.54816">
        <ele>734.8</ele>
        <time>2025-09-06T09:44:00Z</time>
      </trkpt>
      <trkpt lat="46.08743" lon="4.54816">
        <ele>735</ele>
        <time>2025-09-06T09:44:01Z</time>
      </trkpt>
      <trkpt lat="46.08743" lon="4.54816">
        <ele>735</ele>
        <time>2025-09-06T09:44:02Z</time>
      </trkpt>
      <trkpt lat="46.08761" lon="4.54799">
        <ele>735.4</ele>
        <time>2025-09-06T09:44:05Z</time>
      </trkpt>
      <trkpt lat="46.08763" lon="4.54798">
        <ele>735.4</ele>
        <time>2025-09-06T09:44:06Z</time>
      </trkpt>
      <trkpt lat="46.08765" lon="4.54797">
        <ele>735.4</ele>
        <time>2025-09-06T09:44:07Z</time>
      </trkpt>
      <trkpt lat="46.08767" lon="4.54796">
        <ele>735.6</ele>
        <time>2025-09-06T09:44:08Z</time>
      </trkpt>
      <trkpt lat="46.08768" lon="4.54795">
        <ele>735.6</ele>
        <time>2025-09-06T09:44:09Z</time>
      </trkpt>
      <trkpt lat="46.08768" lon="4.54794">
        <ele>735.6</ele>
        <time>2025-09-06T09:44:10Z</time>
      </trkpt>
      <trkpt lat="46.08768" lon="4.54794">
        <ele>735.8</ele>
        <time>2025-09-06T09:44:11Z</time>
      </trkpt>
      <trkpt lat="46.08768" lon="4.54794">
        <ele>735.8</ele>
        <time>2025-09-06T09:44:12Z</time>
      </trkpt>
      <trkpt lat="46.08768" lon="4.54796">
        <ele>735.4</ele>
        <time>2025-09-06T09:44:23Z</time>
      </trkpt>
      <trkpt lat="46.08768" lon="4.54797">
        <ele>735.4</ele>
        <time>2025-09-06T09:44:24Z</time>
      </trkpt>
      <trkpt lat="46.08768" lon="4.54798">
        <ele>735.4</ele>
        <time>2025-09-06T09:44:25Z</time>
      </trkpt>
      <trkpt lat="46.08769" lon="4.548">
        <ele>735.4</ele>
        <time>2025-09-06T09:44:26Z</time>
      </trkpt>
      <trkpt lat="46.08769" lon="4.548">
        <ele>735.4</ele>
        <time>2025-09-06T09:44:27Z</time>
      </trkpt>
      <trkpt lat="46.08768" lon="4.54801">
        <ele>735.4</ele>
        <time>2025-09-06T09:44:28Z</time>
      </trkpt>
      <trkpt lat="46.08768" lon="4.54803">
        <ele>735.4</ele>
        <time>2025-09-06T09:44:29Z</time>
      </trkpt>
      <trkpt lat="46.08768" lon="4.54803">
        <ele>735.4</ele>
        <time>2025-09-06T09:44:30Z</time>
      </trkpt>
      <trkpt lat="46.08768" lon="4.54802">
        <ele>735.4</ele>
        <time>2025-09-06T09:44:31Z</time>
      </trkpt>
      <trkpt lat="46.08768" lon="4.548">
        <ele>735.2</ele>
        <time>2025-09-06T09:44:37Z</time>
      </trkpt>
      <trkpt lat="46.08769" lon="4.54801">
        <ele>735.2</ele>
        <time>2025-09-06T09:44:38Z</time>
      </trkpt>
      <trkpt lat="46.08769" lon="4.54802">
        <ele>735.2</ele>
        <time>2025-09-06T09:44:39Z</time>
      </trkpt>
      <trkpt lat="46.08766" lon="4.54805">
        <ele>735.8</ele>
        <time>2025-09-06T09:44:57Z</time>
      </trkpt>
      <trkpt lat="46.08765" lon="4.54805">
        <ele>735.8</ele>
        <time>2025-09-06T09:44:58Z</time>
      </trkpt>
      <trkpt lat="46.08764" lon="4.54805">
        <ele>735.8</ele>
        <time>2025-09-06T09:44:59Z</time>
      </trkpt>
      <trkpt lat="46.08764" lon="4.54805">
        <ele>735.8</ele>
        <time>2025-09-06T09:45:00Z</time>
      </trkpt>
      <trkpt lat="46.08764" lon="4.54805">
        <ele>735.8</ele>
        <time>2025-09-06T09:45:01Z</time>
      </trkpt>
      <trkpt lat="46.08765" lon="4.54806">
        <ele>735.6</ele>
        <time>2025-09-06T09:45:02Z</time>
      </trkpt>
      <trkpt lat="46.08764" lon="4.54809">
        <ele>735.4</ele>
        <time>2025-09-06T09:45:25Z</time>
      </trkpt>
      <trkpt lat="46.08764" lon="4.54809">
        <ele>735.4</ele>
        <time>2025-09-06T09:45:26Z</time>
      </trkpt>
      <trkpt lat="46.08763" lon="4.54808">
        <ele>735.4</ele>
        <time>2025-09-06T09:45:27Z</time>
      </trkpt>
      <trkpt lat="46.08762" lon="4.54807">
        <ele>735.4</ele>
        <time>2025-09-06T09:45:28Z</time>
      </trkpt>
      <trkpt lat="46.08761" lon="4.54807">
        <ele>735.4</ele>
        <time>2025-09-06T09:45:29Z</time>
      </trkpt>
      <trkpt lat="46.0876" lon="4.54807">
        <ele>735.4</ele>
        <time>2025-09-06T09:45:30Z</time>
      </trkpt>
      <trkpt lat="46.0876" lon="4.54807">
        <ele>735.4</ele>
        <time>2025-09-06T09:45:31Z</time>
      </trkpt>
      <trkpt lat="46.0876" lon="4.54807">
        <ele>735.4</ele>
        <time>2025-09-06T09:45:32Z</time>
      </trkpt>
      <trkpt lat="46.0876" lon="4.54807">
        <ele>735.4</ele>
        <time>2025-09-06T09:45:33Z</time>
      </trkpt>
      <trkpt lat="46.0876" lon="4.54806">
        <ele>735.4</ele>
        <time>2025-09-06T09:45:34Z</time>
      </trkpt>
      <trkpt lat="46.0876" lon="4.54805">
        <ele>735.4</ele>
        <time>2025-09-06T09:45:35Z</time>
      </trkpt>
      <trkpt lat="46.0876" lon="4.54804">
        <ele>735.4</ele>
        <time>2025-09-06T09:45:36Z</time>
      </trkpt>
      <trkpt lat="46.0876" lon="4.54803">
        <ele>735.4</ele>
        <time>2025-09-06T09:45:37Z</time>
      </trkpt>
      <trkpt lat="46.08761" lon="4.54803">
        <ele>735.4</ele>
        <time>2025-09-06T09:45:38Z</time>
      </trkpt>
      <trkpt lat="46.08761" lon="4.54804">
        <ele>735.4</ele>
        <time>2025-09-06T09:45:39Z</time>
      </trkpt>
      <trkpt lat="46.08761" lon="4.54804">
        <ele>735.4</ele>
        <time>2025-09-06T09:45:40Z</time>
      </trkpt>
      <trkpt lat="46.08761" lon="4.54805">
        <ele>735.4</ele>
        <time>2025-09-06T09:45:41Z</time>
      </trkpt>
      <trkpt lat="46.08761" lon="4.54806">
        <ele>735.4</ele>
        <time>2025-09-06T09:45:42Z</time>
      </trkpt>
      <trkpt lat="46.08761" lon="4.54807">
        <ele>735.4</ele>
        <time>2025-09-06T09:45:43Z</time>
      </trkpt>
      <trkpt lat="46.08761" lon="4.54807">
        <ele>735.4</ele>
        <time>2025-09-06T09:45:44Z</time>
      </trkpt>
      <trkpt lat="46.08761" lon="4.54807">
        <ele>735.4</ele>
        <time>2025-09-06T09:45:45Z</time>
      </trkpt>
      <trkpt lat="46.08762" lon="4.54806">
        <ele>735.4</ele>
        <time>2025-09-06T09:45:46Z</time>
      </trkpt>
      <trkpt lat="46.08762" lon="4.54803">
        <ele>735.4</ele>
        <time>2025-09-06T09:45:50Z</time>
      </trkpt>
      <trkpt lat="46.08762" lon="4.54802">
        <ele>735.4</ele>
        <time>2025-09-06T09:45:51Z</time>
      </trkpt>
      <trkpt lat="46.08764" lon="4.54799">
        <ele>735.6</ele>
        <time>2025-09-06T09:49:26Z</time>
      </trkpt>
      <trkpt lat="46.08765" lon="4.54799">
        <ele>735.8</ele>
        <time>2025-09-06T09:49:27Z</time>
      </trkpt>
      <trkpt lat="46.08767" lon="4.54798">
        <ele>735.8</ele>
        <time>2025-09-06T09:49:28Z</time>
      </trkpt>
      <trkpt lat="46.08769" lon="4.54796">
        <ele>735.8</ele>
        <time>2025-09-06T09:49:29Z</time>
      </trkpt>
      <trkpt lat="46.08772" lon="4.54796">
        <ele>735.8</ele>
        <time>2025-09-06T09:49:30Z</time>
      </trkpt>
      <trkpt lat="46.08774" lon="4.54795">
        <ele>735.8</ele>
        <time>2025-09-06T09:49:31Z</time>
      </trkpt>
      <trkpt lat="46.08777" lon="4.54794">
        <ele>735.6</ele>
        <time>2025-09-06T09:49:32Z</time>
      </trkpt>
      <trkpt lat="46.0878" lon="4.54794">
        <ele>735.6</ele>
        <time>2025-09-06T09:49:33Z</time>
      </trkpt>
      <trkpt lat="46.08783" lon="4.54794">
        <ele>735.6</ele>
        <time>2025-09-06T09:49:34Z</time>
      </trkpt>
      <trkpt lat="46.08786" lon="4.54794">
        <ele>736</ele>
        <time>2025-09-06T09:49:35Z</time>
      </trkpt>
      <trkpt lat="46.08789" lon="4.54793">
        <ele>736</ele>
        <time>2025-09-06T09:49:36Z</time>
      </trkpt>
      <trkpt lat="46.08792" lon="4.54792">
        <ele>736</ele>
        <time>2025-09-06T09:49:37Z</time>
      </trkpt>
      <trkpt lat="46.08796" lon="4.5479">
        <ele>736</ele>
        <time>2025-09-06T09:49:38Z</time>
      </trkpt>
      <trkpt lat="46.08799" lon="4.54788">
        <ele>736</ele>
        <time>2025-09-06T09:49:39Z</time>
      </trkpt>
      <trkpt lat="46.08803" lon="4.54786">
        <ele>736</ele>
        <time>2025-09-06T09:49:40Z</time>
      </trkpt>
      <trkpt lat="46.08807" lon="4.54784">
        <ele>736</ele>
        <time>2025-09-06T09:49:41Z</time>
      </trkpt>
      <trkpt lat="46.08812" lon="4.54783">
        <ele>736</ele>
        <time>2025-09-06T09:49:42Z</time>
      </trkpt>
      <trkpt lat="46.08816" lon="4.54782">
        <ele>736</ele>
        <time>2025-09-06T09:49:43Z</time>
      </trkpt>
      <trkpt lat="46.08821" lon="4.54783">
        <ele>736</ele>
        <time>2025-09-06T09:49:44Z</time>
      </trkpt>
      <trkpt lat="46.08825" lon="4.54781">
        <ele>736</ele>
        <time>2025-09-06T09:49:45Z</time>
      </trkpt>
      <trkpt lat="46.0883" lon="4.5478">
        <ele>736.2</ele>
        <time>2025-09-06T09:49:46Z</time>
      </trkpt>
      <trkpt lat="46.08834" lon="4.54779">
        <ele>735.8</ele>
        <time>2025-09-06T09:49:47Z</time>
      </trkpt>
      <trkpt lat="46.08839" lon="4.54778">
        <ele>735.6</ele>
        <time>2025-09-06T09:49:48Z</time>
      </trkpt>
      <trkpt lat="46.08844" lon="4.54777">
        <ele>735.6</ele>
        <time>2025-09-06T09:49:49Z</time>
      </trkpt>
      <trkpt lat="46.08849" lon="4.54776">
        <ele>735.6</ele>
        <time>2025-09-06T09:49:50Z</time>
      </trkpt>
      <trkpt lat="46.08854" lon="4.54776">
        <ele>735.6</ele>
        <time>2025-09-06T09:49:51Z</time>
      </trkpt>
      <trkpt lat="46.0886" lon="4.54775">
        <ele>735.6</ele>
        <time>2025-09-06T09:49:52Z</time>
      </trkpt>
      <trkpt lat="46.08865" lon="4.54773">
        <ele>735.2</ele>
        <time>2025-09-06T09:49:53Z</time>
      </trkpt>
      <trkpt lat="46.0887" lon="4.54772">
        <ele>735.2</ele>
        <time>2025-09-06T09:49:54Z</time>
      </trkpt>
      <trkpt lat="46.08877" lon="4.54771">
        <ele>735.2</ele>
        <time>2025-09-06T09:49:55Z</time>
      </trkpt>
      <trkpt lat="46.08881" lon="4.5477">
        <ele>735.2</ele>
        <time>2025-09-06T09:49:56Z</time>
      </trkpt>
      <trkpt lat="46.08887" lon="4.54767">
        <ele>734.8</ele>
        <time>2025-09-06T09:49:57Z</time>
      </trkpt>
      <trkpt lat="46.08893" lon="4.54766">
        <ele>734.6</ele>
        <time>2025-09-06T09:49:58Z</time>
      </trkpt>
      <trkpt lat="46.08899" lon="4.54764">
        <ele>734.6</ele>
        <time>2025-09-06T09:49:59Z</time>
      </trkpt>
      <trkpt lat="46.08905" lon="4.54762">
        <ele>734.2</ele>
        <time>2025-09-06T09:50:00Z</time>
      </trkpt>
      <trkpt lat="46.08911" lon="4.54758">
        <ele>734.2</ele>
        <time>2025-09-06T09:50:01Z</time>
      </trkpt>
      <trkpt lat="46.08917" lon="4.54752">
        <ele>734.6</ele>
        <time>2025-09-06T09:50:02Z</time>
      </trkpt>
      <trkpt lat="46.08924" lon="4.5475">
        <ele>734.8</ele>
        <time>2025-09-06T09:50:03Z</time>
      </trkpt>
      <trkpt lat="46.08929" lon="4.54747">
        <ele>734.4</ele>
        <time>2025-09-06T09:50:04Z</time>
      </trkpt>
      <trkpt lat="46.08935" lon="4.54742">
        <ele>734</ele>
        <time>2025-09-06T09:50:05Z</time>
      </trkpt>
      <trkpt lat="46.0894" lon="4.54736">
        <ele>734</ele>
        <time>2025-09-06T09:50:06Z</time>
      </trkpt>
      <trkpt lat="46.08946" lon="4.54729">
        <ele>734</ele>
        <time>2025-09-06T09:50:07Z</time>
      </trkpt>
      <trkpt lat="46.08951" lon="4.54724">
        <ele>733.6</ele>
        <time>2025-09-06T09:50:08Z</time>
      </trkpt>
      <trkpt lat="46.08956" lon="4.5472">
        <ele>733.6</ele>
        <time>2025-09-06T09:50:09Z</time>
      </trkpt>
      <trkpt lat="46.08961" lon="4.54716">
        <ele>733.6</ele>
        <time>2025-09-06T09:50:10Z</time>
      </trkpt>
      <trkpt lat="46.08967" lon="4.54711">
        <ele>733.6</ele>
        <time>2025-09-06T09:50:11Z</time>
      </trkpt>
      <trkpt lat="46.08972" lon="4.54705">
        <ele>734</ele>
        <time>2025-09-06T09:50:12Z</time>
      </trkpt>
      <trkpt lat="46.08977" lon="4.54701">
        <ele>734</ele>
        <time>2025-09-06T09:50:13Z</time>
      </trkpt>
      <trkpt lat="46.08982" lon="4.54695">
        <ele>734</ele>
        <time>2025-09-06T09:50:14Z</time>
      </trkpt>
      <trkpt lat="46.08988" lon="4.54689">
        <ele>733.6</ele>
        <time>2025-09-06T09:50:15Z</time>
      </trkpt>
      <trkpt lat="46.08993" lon="4.54684">
        <ele>733.6</ele>
        <time>2025-09-06T09:50:16Z</time>
      </trkpt>
      <trkpt lat="46.08999" lon="4.54677">
        <ele>733.4</ele>
        <time>2025-09-06T09:50:17Z</time>
      </trkpt>
      <trkpt lat="46.09004" lon="4.54672">
        <ele>733.4</ele>
        <time>2025-09-06T09:50:18Z</time>
      </trkpt>
      <trkpt lat="46.0901" lon="4.54666">
        <ele>733.4</ele>
        <time>2025-09-06T09:50:19Z</time>
      </trkpt>
      <trkpt lat="46.09015" lon="4.54659">
        <ele>733.4</ele>
        <time>2025-09-06T09:50:20Z</time>
      </trkpt>
      <trkpt lat="46.0902" lon="4.54653">
        <ele>733</ele>
        <time>2025-09-06T09:50:21Z</time>
      </trkpt>
      <trkpt lat="46.09026" lon="4.54647">
        <ele>733</ele>
        <time>2025-09-06T09:50:22Z</time>
      </trkpt>
      <trkpt lat="46.09031" lon="4.54641">
        <ele>733</ele>
        <time>2025-09-06T09:50:23Z</time>
      </trkpt>
      <trkpt lat="46.09036" lon="4.54635">
        <ele>733</ele>
        <time>2025-09-06T09:50:24Z</time>
      </trkpt>
      <trkpt lat="46.09041" lon="4.54629">
        <ele>733</ele>
        <time>2025-09-06T09:50:25Z</time>
      </trkpt>
      <trkpt lat="46.09045" lon="4.54622">
        <ele>732.6</ele>
        <time>2025-09-06T09:50:26Z</time>
      </trkpt>
      <trkpt lat="46.0905" lon="4.54615">
        <ele>732.4</ele>
        <time>2025-09-06T09:50:27Z</time>
      </trkpt>
      <trkpt lat="46.09054" lon="4.54607">
        <ele>732.4</ele>
        <time>2025-09-06T09:50:28Z</time>
      </trkpt>
      <trkpt lat="46.09057" lon="4.54599">
        <ele>732.2</ele>
        <time>2025-09-06T09:50:29Z</time>
      </trkpt>
      <trkpt lat="46.09061" lon="4.54589">
        <ele>731.8</ele>
        <time>2025-09-06T09:50:30Z</time>
      </trkpt>
      <trkpt lat="46.09063" lon="4.5458">
        <ele>731.8</ele>
        <time>2025-09-06T09:50:31Z</time>
      </trkpt>
      <trkpt lat="46.09065" lon="4.54571">
        <ele>731.6</ele>
        <time>2025-09-06T09:50:32Z</time>
      </trkpt>
      <trkpt lat="46.09066" lon="4.54562">
        <ele>731.2</ele>
        <time>2025-09-06T09:50:33Z</time>
      </trkpt>
      <trkpt lat="46.09067" lon="4.54552">
        <ele>730.8</ele>
        <time>2025-09-06T09:50:34Z</time>
      </trkpt>
      <trkpt lat="46.09067" lon="4.54542">
        <ele>730.8</ele>
        <time>2025-09-06T09:50:35Z</time>
      </trkpt>
      <trkpt lat="46.09068" lon="4.54533">
        <ele>731.2</ele>
        <time>2025-09-06T09:50:36Z</time>
      </trkpt>
      <trkpt lat="46.09068" lon="4.54523">
        <ele>731.6</ele>
        <time>2025-09-06T09:50:37Z</time>
      </trkpt>
      <trkpt lat="46.09068" lon="4.54513">
        <ele>731.6</ele>
        <time>2025-09-06T09:50:38Z</time>
      </trkpt>
      <trkpt lat="46.09068" lon="4.54503">
        <ele>731.4</ele>
        <time>2025-09-06T09:50:39Z</time>
      </trkpt>
      <trkpt lat="46.09068" lon="4.54493">
        <ele>731.4</ele>
        <time>2025-09-06T09:50:40Z</time>
      </trkpt>
      <trkpt lat="46.09069" lon="4.54484">
        <ele>731.4</ele>
        <time>2025-09-06T09:50:41Z</time>
      </trkpt>
      <trkpt lat="46.09069" lon="4.54475">
        <ele>731.4</ele>
        <time>2025-09-06T09:50:42Z</time>
      </trkpt>
      <trkpt lat="46.09068" lon="4.54466">
        <ele>731.4</ele>
        <time>2025-09-06T09:50:43Z</time>
      </trkpt>
      <trkpt lat="46.09067" lon="4.54457">
        <ele>731.4</ele>
        <time>2025-09-06T09:50:44Z</time>
      </trkpt>
      <trkpt lat="46.09067" lon="4.54448">
        <ele>731.4</ele>
        <time>2025-09-06T09:50:45Z</time>
      </trkpt>
      <trkpt lat="46.09067" lon="4.54439">
        <ele>731.4</ele>
        <time>2025-09-06T09:50:46Z</time>
      </trkpt>
      <trkpt lat="46.09066" lon="4.5443">
        <ele>731.6</ele>
        <time>2025-09-06T09:50:47Z</time>
      </trkpt>
      <trkpt lat="46.09065" lon="4.5442">
        <ele>731.6</ele>
        <time>2025-09-06T09:50:48Z</time>
      </trkpt>
      <trkpt lat="46.09064" lon="4.54411">
        <ele>731.6</ele>
        <time>2025-09-06T09:50:49Z</time>
      </trkpt>
      <trkpt lat="46.09064" lon="4.54403">
        <ele>731.6</ele>
        <time>2025-09-06T09:50:50Z</time>
      </trkpt>
      <trkpt lat="46.09064" lon="4.54395">
        <ele>731.6</ele>
        <time>2025-09-06T09:50:51Z</time>
      </trkpt>
      <trkpt lat="46.09062" lon="4.54385">
        <ele>731.6</ele>
        <time>2025-09-06T09:50:52Z</time>
      </trkpt>
      <trkpt lat="46.09056" lon="4.54381">
        <ele>731.6</ele>
        <time>2025-09-06T09:50:53Z</time>
      </trkpt>
      <trkpt lat="46.09054" lon="4.54373">
        <ele>731.6</ele>
        <time>2025-09-06T09:50:54Z</time>
      </trkpt>
      <trkpt lat="46.09052" lon="4.54365">
        <ele>732</ele>
        <time>2025-09-06T09:50:55Z</time>
      </trkpt>
      <trkpt lat="46.09049" lon="4.54358">
        <ele>732.2</ele>
        <time>2025-09-06T09:50:56Z</time>
      </trkpt>
      <trkpt lat="46.09047" lon="4.5435">
        <ele>732.2</ele>
        <time>2025-09-06T09:50:57Z</time>
      </trkpt>
      <trkpt lat="46.09046" lon="4.54342">
        <ele>732.2</ele>
        <time>2025-09-06T09:50:58Z</time>
      </trkpt>
      <trkpt lat="46.09045" lon="4.54335">
        <ele>732.2</ele>
        <time>2025-09-06T09:50:59Z</time>
      </trkpt>
      <trkpt lat="46.09045" lon="4.54328">
        <ele>732.6</ele>
        <time>2025-09-06T09:51:00Z</time>
      </trkpt>
      <trkpt lat="46.09046" lon="4.54322">
        <ele>732.6</ele>
        <time>2025-09-06T09:51:01Z</time>
      </trkpt>
      <trkpt lat="46.09047" lon="4.54316">
        <ele>732.6</ele>
        <time>2025-09-06T09:51:02Z</time>
      </trkpt>
      <trkpt lat="46.09048" lon="4.5431">
        <ele>732.6</ele>
        <time>2025-09-06T09:51:03Z</time>
      </trkpt>
      <trkpt lat="46.0905" lon="4.54306">
        <ele>732.6</ele>
        <time>2025-09-06T09:51:04Z</time>
      </trkpt>
      <trkpt lat="46.09052" lon="4.54301">
        <ele>732.8</ele>
        <time>2025-09-06T09:51:05Z</time>
      </trkpt>
      <trkpt lat="46.09053" lon="4.54297">
        <ele>732.8</ele>
        <time>2025-09-06T09:51:06Z</time>
      </trkpt>
      <trkpt lat="46.09055" lon="4.54295">
        <ele>733</ele>
        <time>2025-09-06T09:51:07Z</time>
      </trkpt>
      <trkpt lat="46.09057" lon="4.54293">
        <ele>733</ele>
        <time>2025-09-06T09:51:08Z</time>
      </trkpt>
      <trkpt lat="46.09059" lon="4.54291">
        <ele>732.8</ele>
        <time>2025-09-06T09:51:09Z</time>
      </trkpt>
      <trkpt lat="46.0906" lon="4.54289">
        <ele>732.8</ele>
        <time>2025-09-06T09:51:10Z</time>
      </trkpt>
      <trkpt lat="46.09061" lon="4.54288">
        <ele>732.8</ele>
        <time>2025-09-06T09:51:11Z</time>
      </trkpt>
      <trkpt lat="46.09062" lon="4.54287">
        <ele>732.8</ele>
        <time>2025-09-06T09:51:12Z</time>
      </trkpt>
      <trkpt lat="46.09061" lon="4.54288">
        <ele>733</ele>
        <time>2025-09-06T09:51:13Z</time>
      </trkpt>
      <trkpt lat="46.09061" lon="4.54288">
        <ele>733</ele>
        <time>2025-09-06T09:51:14Z</time>
      </trkpt>
      <trkpt lat="46.09062" lon="4.54287">
        <ele>733</ele>
        <time>2025-09-06T09:51:32Z</time>
      </trkpt>
      <trkpt lat="46.09065" lon="4.54286">
        <ele>733</ele>
        <time>2025-09-06T09:51:33Z</time>
      </trkpt>
      <trkpt lat="46.09068" lon="4.54286">
        <ele>733</ele>
        <time>2025-09-06T09:51:34Z</time>
      </trkpt>
      <trkpt lat="46.09071" lon="4.54286">
        <ele>732.6</ele>
        <time>2025-09-06T09:51:35Z</time>
      </trkpt>
      <trkpt lat="46.09075" lon="4.54285">
        <ele>732.6</ele>
        <time>2025-09-06T09:51:36Z</time>
      </trkpt>
      <trkpt lat="46.09079" lon="4.54283">
        <ele>732.4</ele>
        <time>2025-09-06T09:51:37Z</time>
      </trkpt>
      <trkpt lat="46.09083" lon="4.54278">
        <ele>732.4</ele>
        <time>2025-09-06T09:51:38Z</time>
      </trkpt>
      <trkpt lat="46.09088" lon="4.54276">
        <ele>732</ele>
        <time>2025-09-06T09:51:39Z</time>
      </trkpt>
      <trkpt lat="46.09095" lon="4.54274">
        <ele>731.8</ele>
        <time>2025-09-06T09:51:40Z</time>
      </trkpt>
      <trkpt lat="46.09103" lon="4.54271">
        <ele>731.4</ele>
        <time>2025-09-06T09:51:41Z</time>
      </trkpt>
      <trkpt lat="46.09109" lon="4.54269">
        <ele>730.8</ele>
        <time>2025-09-06T09:51:42Z</time>
      </trkpt>
      <trkpt lat="46.09117" lon="4.54269">
        <ele>730.2</ele>
        <time>2025-09-06T09:51:43Z</time>
      </trkpt>
      <trkpt lat="46.09125" lon="4.54274">
        <ele>729.8</ele>
        <time>2025-09-06T09:51:44Z</time>
      </trkpt>
      <trkpt lat="46.09133" lon="4.54277">
        <ele>729.6</ele>
        <time>2025-09-06T09:51:45Z</time>
      </trkpt>
      <trkpt lat="46.09141" lon="4.54281">
        <ele>728.8</ele>
        <time>2025-09-06T09:51:46Z</time>
      </trkpt>
      <trkpt lat="46.09149" lon="4.54286">
        <ele>728.4</ele>
        <time>2025-09-06T09:51:47Z</time>
      </trkpt>
      <trkpt lat="46.09157" lon="4.5429">
        <ele>728.4</ele>
        <time>2025-09-06T09:51:48Z</time>
      </trkpt>
      <trkpt lat="46.09166" lon="4.54296">
        <ele>727.2</ele>
        <time>2025-09-06T09:51:49Z</time>
      </trkpt>
      <trkpt lat="46.09174" lon="4.543">
        <ele>727</ele>
        <time>2025-09-06T09:51:50Z</time>
      </trkpt>
      <trkpt lat="46.09183" lon="4.54305">
        <ele>726.6</ele>
        <time>2025-09-06T09:51:51Z</time>
      </trkpt>
      <trkpt lat="46.09191" lon="4.54309">
        <ele>726.4</ele>
        <time>2025-09-06T09:51:52Z</time>
      </trkpt>
      <trkpt lat="46.092" lon="4.54313">
        <ele>725.8</ele>
        <time>2025-09-06T09:51:53Z</time>
      </trkpt>
      <trkpt lat="46.0921" lon="4.54316">
        <ele>725.6</ele>
        <time>2025-09-06T09:51:54Z</time>
      </trkpt>
      <trkpt lat="46.09219" lon="4.5432">
        <ele>725</ele>
        <time>2025-09-06T09:51:55Z</time>
      </trkpt>
      <trkpt lat="46.09229" lon="4.5432">
        <ele>724.8</ele>
        <time>2025-09-06T09:51:56Z</time>
      </trkpt>
      <trkpt lat="46.09239" lon="4.54321">
        <ele>724.2</ele>
        <time>2025-09-06T09:51:57Z</time>
      </trkpt>
      <trkpt lat="46.09249" lon="4.54322">
        <ele>723.8</ele>
        <time>2025-09-06T09:51:58Z</time>
      </trkpt>
      <trkpt lat="46.09259" lon="4.5432">
        <ele>723.2</ele>
        <time>2025-09-06T09:51:59Z</time>
      </trkpt>
      <trkpt lat="46.0927" lon="4.54317">
        <ele>722.4</ele>
        <time>2025-09-06T09:52:00Z</time>
      </trkpt>
      <trkpt lat="46.0928" lon="4.54315">
        <ele>721.8</ele>
        <time>2025-09-06T09:52:01Z</time>
      </trkpt>
      <trkpt lat="46.09291" lon="4.54312">
        <ele>721.8</ele>
        <time>2025-09-06T09:52:02Z</time>
      </trkpt>
      <trkpt lat="46.09301" lon="4.54308">
        <ele>720.6</ele>
        <time>2025-09-06T09:52:03Z</time>
      </trkpt>
      <trkpt lat="46.09312" lon="4.54306">
        <ele>720.2</ele>
        <time>2025-09-06T09:52:04Z</time>
      </trkpt>
      <trkpt lat="46.09322" lon="4.54302">
        <ele>719.4</ele>
        <time>2025-09-06T09:52:05Z</time>
      </trkpt>
      <trkpt lat="46.09332" lon="4.543">
        <ele>718.8</ele>
        <time>2025-09-06T09:52:06Z</time>
      </trkpt>
      <trkpt lat="46.09342" lon="4.54296">
        <ele>718.2</ele>
        <time>2025-09-06T09:52:07Z</time>
      </trkpt>
      <trkpt lat="46.09352" lon="4.54291">
        <ele>717.8</ele>
        <time>2025-09-06T09:52:08Z</time>
      </trkpt>
      <trkpt lat="46.09362" lon="4.54285">
        <ele>717.2</ele>
        <time>2025-09-06T09:52:09Z</time>
      </trkpt>
      <trkpt lat="46.09372" lon="4.54278">
        <ele>716.8</ele>
        <time>2025-09-06T09:52:10Z</time>
      </trkpt>
      <trkpt lat="46.09381" lon="4.54272">
        <ele>716.4</ele>
        <time>2025-09-06T09:52:11Z</time>
      </trkpt>
      <trkpt lat="46.0939" lon="4.54266">
        <ele>715.8</ele>
        <time>2025-09-06T09:52:12Z</time>
      </trkpt>
      <trkpt lat="46.09399" lon="4.5426">
        <ele>715</ele>
        <time>2025-09-06T09:52:13Z</time>
      </trkpt>
      <trkpt lat="46.09407" lon="4.54255">
        <ele>714.2</ele>
        <time>2025-09-06T09:52:14Z</time>
      </trkpt>
      <trkpt lat="46.09415" lon="4.54249">
        <ele>713.4</ele>
        <time>2025-09-06T09:52:15Z</time>
      </trkpt>
      <trkpt lat="46.09423" lon="4.54243">
        <ele>713</ele>
        <time>2025-09-06T09:52:16Z</time>
      </trkpt>
      <trkpt lat="46.09431" lon="4.54238">
        <ele>712.4</ele>
        <time>2025-09-06T09:52:17Z</time>
      </trkpt>
      <trkpt lat="46.09439" lon="4.54232">
        <ele>711.6</ele>
        <time>2025-09-06T09:52:18Z</time>
      </trkpt>
      <trkpt lat="46.09447" lon="4.54226">
        <ele>711</ele>
        <time>2025-09-06T09:52:19Z</time>
      </trkpt>
      <trkpt lat="46.09454" lon="4.5422">
        <ele>710.4</ele>
        <time>2025-09-06T09:52:20Z</time>
      </trkpt>
      <trkpt lat="46.09462" lon="4.54214">
        <ele>709.8</ele>
        <time>2025-09-06T09:52:21Z</time>
      </trkpt>
      <trkpt lat="46.0947" lon="4.54206">
        <ele>709.4</ele>
        <time>2025-09-06T09:52:22Z</time>
      </trkpt>
      <trkpt lat="46.09477" lon="4.54198">
        <ele>708.6</ele>
        <time>2025-09-06T09:52:23Z</time>
      </trkpt>
      <trkpt lat="46.09484" lon="4.54188">
        <ele>708.2</ele>
        <time>2025-09-06T09:52:24Z</time>
      </trkpt>
      <trkpt lat="46.09491" lon="4.54179">
        <ele>707.4</ele>
        <time>2025-09-06T09:52:25Z</time>
      </trkpt>
      <trkpt lat="46.09498" lon="4.54169">
        <ele>706.8</ele>
        <time>2025-09-06T09:52:26Z</time>
      </trkpt>
      <trkpt lat="46.09505" lon="4.54161">
        <ele>706</ele>
        <time>2025-09-06T09:52:27Z</time>
      </trkpt>
      <trkpt lat="46.09511" lon="4.54153">
        <ele>705.4</ele>
        <time>2025-09-06T09:52:28Z</time>
      </trkpt>
      <trkpt lat="46.09519" lon="4.54147">
        <ele>705.4</ele>
        <time>2025-09-06T09:52:29Z</time>
      </trkpt>
      <trkpt lat="46.09526" lon="4.54143">
        <ele>704.8</ele>
        <time>2025-09-06T09:52:30Z</time>
      </trkpt>
      <trkpt lat="46.09534" lon="4.54139">
        <ele>704.2</ele>
        <time>2025-09-06T09:52:31Z</time>
      </trkpt>
      <trkpt lat="46.09542" lon="4.54138">
        <ele>703.8</ele>
        <time>2025-09-06T09:52:32Z</time>
      </trkpt>
      <trkpt lat="46.09552" lon="4.54139">
        <ele>703</ele>
        <time>2025-09-06T09:52:33Z</time>
      </trkpt>
      <trkpt lat="46.09552" lon="4.54139">
        <ele>702.4</ele>
        <time>2025-09-06T09:52:34Z</time>
      </trkpt>
      <trkpt lat="46.0956" lon="4.54142">
        <ele>702</ele>
        <time>2025-09-06T09:52:35Z</time>
      </trkpt>
      <trkpt lat="46.09569" lon="4.54146">
        <ele>701.2</ele>
        <time>2025-09-06T09:52:36Z</time>
      </trkpt>
      <trkpt lat="46.09578" lon="4.5415">
        <ele>700.6</ele>
        <time>2025-09-06T09:52:37Z</time>
      </trkpt>
      <trkpt lat="46.09586" lon="4.54155">
        <ele>700</ele>
        <time>2025-09-06T09:52:38Z</time>
      </trkpt>
      <trkpt lat="46.09595" lon="4.54159">
        <ele>699.6</ele>
        <time>2025-09-06T09:52:39Z</time>
      </trkpt>
      <trkpt lat="46.09604" lon="4.54163">
        <ele>699.2</ele>
        <time>2025-09-06T09:52:40Z</time>
      </trkpt>
      <trkpt lat="46.09613" lon="4.54168">
        <ele>698.6</ele>
        <time>2025-09-06T09:52:41Z</time>
      </trkpt>
      <trkpt lat="46.09621" lon="4.54172">
        <ele>698</ele>
        <time>2025-09-06T09:52:42Z</time>
      </trkpt>
      <trkpt lat="46.09629" lon="4.54176">
        <ele>698</ele>
        <time>2025-09-06T09:52:43Z</time>
      </trkpt>
      <trkpt lat="46.09638" lon="4.54181">
        <ele>697.2</ele>
        <time>2025-09-06T09:52:44Z</time>
      </trkpt>
      <trkpt lat="46.09645" lon="4.54185">
        <ele>696.6</ele>
        <time>2025-09-06T09:52:45Z</time>
      </trkpt>
      <trkpt lat="46.09652" lon="4.54189">
        <ele>696</ele>
        <time>2025-09-06T09:52:46Z</time>
      </trkpt>
      <trkpt lat="46.09659" lon="4.54192">
        <ele>695.6</ele>
        <time>2025-09-06T09:52:47Z</time>
      </trkpt>
      <trkpt lat="46.09666" lon="4.54195">
        <ele>695</ele>
        <time>2025-09-06T09:52:48Z</time>
      </trkpt>
      <trkpt lat="46.09671" lon="4.54199">
        <ele>694.6</ele>
        <time>2025-09-06T09:52:49Z</time>
      </trkpt>
      <trkpt lat="46.09677" lon="4.54201">
        <ele>693.2</ele>
        <time>2025-09-06T09:52:50Z</time>
      </trkpt>
      <trkpt lat="46.09682" lon="4.54203">
        <ele>693.2</ele>
        <time>2025-09-06T09:52:51Z</time>
      </trkpt>
      <trkpt lat="46.09687" lon="4.54206">
        <ele>693</ele>
        <time>2025-09-06T09:52:52Z</time>
      </trkpt>
      <trkpt lat="46.09693" lon="4.54209">
        <ele>692.6</ele>
        <time>2025-09-06T09:52:53Z</time>
      </trkpt>
      <trkpt lat="46.09696" lon="4.5421">
        <ele>692</ele>
        <time>2025-09-06T09:52:54Z</time>
      </trkpt>
      <trkpt lat="46.097" lon="4.54213">
        <ele>691.6</ele>
        <time>2025-09-06T09:52:55Z</time>
      </trkpt>
      <trkpt lat="46.09708" lon="4.54216">
        <ele>691.4</ele>
        <time>2025-09-06T09:52:56Z</time>
      </trkpt>
      <trkpt lat="46.0971" lon="4.54215">
        <ele>691</ele>
        <time>2025-09-06T09:52:57Z</time>
      </trkpt>
      <trkpt lat="46.09714" lon="4.54213">
        <ele>691</ele>
        <time>2025-09-06T09:52:58Z</time>
      </trkpt>
      <trkpt lat="46.09717" lon="4.5421">
        <ele>690.6</ele>
        <time>2025-09-06T09:52:59Z</time>
      </trkpt>
      <trkpt lat="46.09721" lon="4.54209">
        <ele>690.6</ele>
        <time>2025-09-06T09:53:00Z</time>
      </trkpt>
      <trkpt lat="46.09722" lon="4.54205">
        <ele>690</ele>
        <time>2025-09-06T09:53:01Z</time>
      </trkpt>
      <trkpt lat="46.09725" lon="4.54194">
        <ele>690</ele>
        <time>2025-09-06T09:53:02Z</time>
      </trkpt>
      <trkpt lat="46.09726" lon="4.54189">
        <ele>690</ele>
        <time>2025-09-06T09:53:03Z</time>
      </trkpt>
      <trkpt lat="46.09727" lon="4.54183">
        <ele>689.8</ele>
        <time>2025-09-06T09:53:04Z</time>
      </trkpt>
      <trkpt lat="46.09728" lon="4.54175">
        <ele>689.8</ele>
        <time>2025-09-06T09:53:05Z</time>
      </trkpt>
      <trkpt lat="46.09729" lon="4.54168">
        <ele>689.6</ele>
        <time>2025-09-06T09:53:06Z</time>
      </trkpt>
      <trkpt lat="46.0973" lon="4.5416">
        <ele>689.2</ele>
        <time>2025-09-06T09:53:07Z</time>
      </trkpt>
      <trkpt lat="46.09731" lon="4.54151">
        <ele>689</ele>
        <time>2025-09-06T09:53:08Z</time>
      </trkpt>
      <trkpt lat="46.09732" lon="4.54143">
        <ele>688.8</ele>
        <time>2025-09-06T09:53:09Z</time>
      </trkpt>
      <trkpt lat="46.09733" lon="4.54135">
        <ele>688.4</ele>
        <time>2025-09-06T09:53:10Z</time>
      </trkpt>
      <trkpt lat="46.09734" lon="4.54125">
        <ele>688.2</ele>
        <time>2025-09-06T09:53:11Z</time>
      </trkpt>
      <trkpt lat="46.09735" lon="4.54116">
        <ele>687.8</ele>
        <time>2025-09-06T09:53:12Z</time>
      </trkpt>
      <trkpt lat="46.09735" lon="4.54106">
        <ele>687.4</ele>
        <time>2025-09-06T09:53:13Z</time>
      </trkpt>
      <trkpt lat="46.09736" lon="4.54096">
        <ele>687.4</ele>
        <time>2025-09-06T09:53:14Z</time>
      </trkpt>
      <trkpt lat="46.09738" lon="4.54084">
        <ele>686.8</ele>
        <time>2025-09-06T09:53:15Z</time>
      </trkpt>
      <trkpt lat="46.09739" lon="4.54074">
        <ele>687.2</ele>
        <time>2025-09-06T09:53:16Z</time>
      </trkpt>
      <trkpt lat="46.0974" lon="4.54062">
        <ele>686.8</ele>
        <time>2025-09-06T09:53:17Z</time>
      </trkpt>
      <trkpt lat="46.09741" lon="4.54051">
        <ele>686.8</ele>
        <time>2025-09-06T09:53:18Z</time>
      </trkpt>
      <trkpt lat="46.09741" lon="4.5404">
        <ele>686.4</ele>
        <time>2025-09-06T09:53:19Z</time>
      </trkpt>
      <trkpt lat="46.09743" lon="4.54029">
        <ele>686</ele>
        <time>2025-09-06T09:53:20Z</time>
      </trkpt>
      <trkpt lat="46.09745" lon="4.54017">
        <ele>685.8</ele>
        <time>2025-09-06T09:53:21Z</time>
      </trkpt>
      <trkpt lat="46.09747" lon="4.54006">
        <ele>685.4</ele>
        <time>2025-09-06T09:53:22Z</time>
      </trkpt>
      <trkpt lat="46.09748" lon="4.53995">
        <ele>685</ele>
        <time>2025-09-06T09:53:23Z</time>
      </trkpt>
      <trkpt lat="46.09748" lon="4.53983">
        <ele>684.8</ele>
        <time>2025-09-06T09:53:24Z</time>
      </trkpt>
      <trkpt lat="46.0975" lon="4.53971">
        <ele>684.4</ele>
        <time>2025-09-06T09:53:25Z</time>
      </trkpt>
      <trkpt lat="46.09751" lon="4.53959">
        <ele>684.2</ele>
        <time>2025-09-06T09:53:26Z</time>
      </trkpt>
      <trkpt lat="46.09752" lon="4.53948">
        <ele>683.8</ele>
        <time>2025-09-06T09:53:27Z</time>
      </trkpt>
      <trkpt lat="46.09755" lon="4.53937">
        <ele>683.2</ele>
        <time>2025-09-06T09:53:28Z</time>
      </trkpt>
      <trkpt lat="46.09759" lon="4.53925">
        <ele>682.6</ele>
        <time>2025-09-06T09:53:29Z</time>
      </trkpt>
      <trkpt lat="46.09763" lon="4.53915">
        <ele>682.6</ele>
        <time>2025-09-06T09:53:30Z</time>
      </trkpt>
      <trkpt lat="46.09766" lon="4.53904">
        <ele>682</ele>
        <time>2025-09-06T09:53:31Z</time>
      </trkpt>
      <trkpt lat="46.0977" lon="4.53893">
        <ele>681.8</ele>
        <time>2025-09-06T09:53:32Z</time>
      </trkpt>
      <trkpt lat="46.09774" lon="4.53883">
        <ele>681.4</ele>
        <time>2025-09-06T09:53:33Z</time>
      </trkpt>
      <trkpt lat="46.09778" lon="4.53872">
        <ele>681.4</ele>
        <time>2025-09-06T09:53:34Z</time>
      </trkpt>
      <trkpt lat="46.09782" lon="4.53863">
        <ele>681.4</ele>
        <time>2025-09-06T09:53:35Z</time>
      </trkpt>
      <trkpt lat="46.09787" lon="4.53854">
        <ele>680.8</ele>
        <time>2025-09-06T09:53:36Z</time>
      </trkpt>
      <trkpt lat="46.09791" lon="4.53846">
        <ele>680.4</ele>
        <time>2025-09-06T09:53:37Z</time>
      </trkpt>
      <trkpt lat="46.09796" lon="4.53838">
        <ele>680</ele>
        <time>2025-09-06T09:53:38Z</time>
      </trkpt>
      <trkpt lat="46.09801" lon="4.53829">
        <ele>680</ele>
        <time>2025-09-06T09:53:39Z</time>
      </trkpt>
      <trkpt lat="46.09807" lon="4.5382">
        <ele>679.4</ele>
        <time>2025-09-06T09:53:40Z</time>
      </trkpt>
      <trkpt lat="46.09812" lon="4.53811">
        <ele>679</ele>
        <time>2025-09-06T09:53:41Z</time>
      </trkpt>
      <trkpt lat="46.09818" lon="4.53801">
        <ele>678.6</ele>
        <time>2025-09-06T09:53:42Z</time>
      </trkpt>
      <trkpt lat="46.09823" lon="4.53792">
        <ele>678.2</ele>
        <time>2025-09-06T09:53:43Z</time>
      </trkpt>
      <trkpt lat="46.09828" lon="4.53782">
        <ele>677.8</ele>
        <time>2025-09-06T09:53:44Z</time>
      </trkpt>
      <trkpt lat="46.09833" lon="4.53774">
        <ele>677.8</ele>
        <time>2025-09-06T09:53:45Z</time>
      </trkpt>
      <trkpt lat="46.09837" lon="4.53765">
        <ele>677.2</ele>
        <time>2025-09-06T09:53:46Z</time>
      </trkpt>
      <trkpt lat="46.09842" lon="4.53756">
        <ele>676.8</ele>
        <time>2025-09-06T09:53:47Z</time>
      </trkpt>
      <trkpt lat="46.09846" lon="4.53746">
        <ele>676.6</ele>
        <time>2025-09-06T09:53:48Z</time>
      </trkpt>
      <trkpt lat="46.09851" lon="4.53737">
        <ele>676.2</ele>
        <time>2025-09-06T09:53:49Z</time>
      </trkpt>
      <trkpt lat="46.09856" lon="4.53727">
        <ele>675.8</ele>
        <time>2025-09-06T09:53:50Z</time>
      </trkpt>
      <trkpt lat="46.09862" lon="4.53719">
        <ele>675.8</ele>
        <time>2025-09-06T09:53:51Z</time>
      </trkpt>
      <trkpt lat="46.09867" lon="4.5371">
        <ele>675.4</ele>
        <time>2025-09-06T09:53:52Z</time>
      </trkpt>
      <trkpt lat="46.09873" lon="4.53701">
        <ele>675</ele>
        <time>2025-09-06T09:53:53Z</time>
      </trkpt>
      <trkpt lat="46.09879" lon="4.53693">
        <ele>674.6</ele>
        <time>2025-09-06T09:53:54Z</time>
      </trkpt>
      <trkpt lat="46.09885" lon="4.53685">
        <ele>674.2</ele>
        <time>2025-09-06T09:53:55Z</time>
      </trkpt>
      <trkpt lat="46.09891" lon="4.53678">
        <ele>673.8</ele>
        <time>2025-09-06T09:53:56Z</time>
      </trkpt>
      <trkpt lat="46.09897" lon="4.5367">
        <ele>673.4</ele>
        <time>2025-09-06T09:53:57Z</time>
      </trkpt>
      <trkpt lat="46.09904" lon="4.53663">
        <ele>673</ele>
        <time>2025-09-06T09:53:58Z</time>
      </trkpt>
      <trkpt lat="46.09911" lon="4.53656">
        <ele>672.6</ele>
        <time>2025-09-06T09:53:59Z</time>
      </trkpt>
      <trkpt lat="46.09917" lon="4.5365">
        <ele>672.6</ele>
        <time>2025-09-06T09:54:00Z</time>
      </trkpt>
      <trkpt lat="46.09925" lon="4.53644">
        <ele>672</ele>
        <time>2025-09-06T09:54:01Z</time>
      </trkpt>
      <trkpt lat="46.09932" lon="4.53638">
        <ele>671.4</ele>
        <time>2025-09-06T09:54:02Z</time>
      </trkpt>
      <trkpt lat="46.09939" lon="4.53633">
        <ele>671.4</ele>
        <time>2025-09-06T09:54:03Z</time>
      </trkpt>
      <trkpt lat="46.09947" lon="4.53629">
        <ele>671.2</ele>
        <time>2025-09-06T09:54:04Z</time>
      </trkpt>
      <trkpt lat="46.09955" lon="4.53624">
        <ele>671.2</ele>
        <time>2025-09-06T09:54:05Z</time>
      </trkpt>
      <trkpt lat="46.09963" lon="4.5362">
        <ele>670.4</ele>
        <time>2025-09-06T09:54:06Z</time>
      </trkpt>
      <trkpt lat="46.09971" lon="4.53615">
        <ele>670.4</ele>
        <time>2025-09-06T09:54:07Z</time>
      </trkpt>
      <trkpt lat="46.09979" lon="4.53611">
        <ele>670.2</ele>
        <time>2025-09-06T09:54:08Z</time>
      </trkpt>
      <trkpt lat="46.09986" lon="4.53607">
        <ele>669.6</ele>
        <time>2025-09-06T09:54:09Z</time>
      </trkpt>
      <trkpt lat="46.09994" lon="4.53602">
        <ele>669</ele>
        <time>2025-09-06T09:54:10Z</time>
      </trkpt>
      <trkpt lat="46.10002" lon="4.53598">
        <ele>668.4</ele>
        <time>2025-09-06T09:54:11Z</time>
      </trkpt>
      <trkpt lat="46.1001" lon="4.53594">
        <ele>668.2</ele>
        <time>2025-09-06T09:54:12Z</time>
      </trkpt>
      <trkpt lat="46.10018" lon="4.53588">
        <ele>667.8</ele>
        <time>2025-09-06T09:54:13Z</time>
      </trkpt>
      <trkpt lat="46.10026" lon="4.53584">
        <ele>667.8</ele>
        <time>2025-09-06T09:54:14Z</time>
      </trkpt>
      <trkpt lat="46.10034" lon="4.53579">
        <ele>667.8</ele>
        <time>2025-09-06T09:54:15Z</time>
      </trkpt>
      <trkpt lat="46.10042" lon="4.53574">
        <ele>667.2</ele>
        <time>2025-09-06T09:54:16Z</time>
      </trkpt>
      <trkpt lat="46.1005" lon="4.53569">
        <ele>667</ele>
        <time>2025-09-06T09:54:17Z</time>
      </trkpt>
      <trkpt lat="46.10058" lon="4.53564">
        <ele>666.6</ele>
        <time>2025-09-06T09:54:18Z</time>
      </trkpt>
      <trkpt lat="46.10065" lon="4.53558">
        <ele>666.6</ele>
        <time>2025-09-06T09:54:19Z</time>
      </trkpt>
      <trkpt lat="46.10072" lon="4.53553">
        <ele>666.4</ele>
        <time>2025-09-06T09:54:20Z</time>
      </trkpt>
      <trkpt lat="46.10079" lon="4.53546">
        <ele>666</ele>
        <time>2025-09-06T09:54:21Z</time>
      </trkpt>
      <trkpt lat="46.10085" lon="4.5354">
        <ele>665.6</ele>
        <time>2025-09-06T09:54:22Z</time>
      </trkpt>
      <trkpt lat="46.10091" lon="4.53534">
        <ele>665.4</ele>
        <time>2025-09-06T09:54:23Z</time>
      </trkpt>
      <trkpt lat="46.10097" lon="4.53528">
        <ele>665.4</ele>
        <time>2025-09-06T09:54:24Z</time>
      </trkpt>
      <trkpt lat="46.10103" lon="4.53522">
        <ele>665.4</ele>
        <time>2025-09-06T09:54:25Z</time>
      </trkpt>
      <trkpt lat="46.10109" lon="4.53515">
        <ele>665.8</ele>
        <time>2025-09-06T09:54:26Z</time>
      </trkpt>
      <trkpt lat="46.10114" lon="4.5351">
        <ele>665.8</ele>
        <time>2025-09-06T09:54:27Z</time>
      </trkpt>
      <trkpt lat="46.10119" lon="4.53503">
        <ele>665.8</ele>
        <time>2025-09-06T09:54:28Z</time>
      </trkpt>
      <trkpt lat="46.10122" lon="4.53497">
        <ele>665.8</ele>
        <time>2025-09-06T09:54:29Z</time>
      </trkpt>
      <trkpt lat="46.10124" lon="4.53491">
        <ele>665.8</ele>
        <time>2025-09-06T09:54:30Z</time>
      </trkpt>
      <trkpt lat="46.10125" lon="4.53486">
        <ele>665.8</ele>
        <time>2025-09-06T09:54:31Z</time>
      </trkpt>
      <trkpt lat="46.10126" lon="4.53481">
        <ele>665.8</ele>
        <time>2025-09-06T09:54:32Z</time>
      </trkpt>
      <trkpt lat="46.10127" lon="4.53476">
        <ele>665.8</ele>
        <time>2025-09-06T09:54:33Z</time>
      </trkpt>
      <trkpt lat="46.10127" lon="4.53471">
        <ele>665.8</ele>
        <time>2025-09-06T09:54:34Z</time>
      </trkpt>
      <trkpt lat="46.10128" lon="4.53465">
        <ele>665.8</ele>
        <time>2025-09-06T09:54:35Z</time>
      </trkpt>
      <trkpt lat="46.10127" lon="4.5346">
        <ele>665.4</ele>
        <time>2025-09-06T09:54:36Z</time>
      </trkpt>
      <trkpt lat="46.10125" lon="4.53454">
        <ele>665.4</ele>
        <time>2025-09-06T09:54:37Z</time>
      </trkpt>
      <trkpt lat="46.10124" lon="4.53448">
        <ele>665</ele>
        <time>2025-09-06T09:54:38Z</time>
      </trkpt>
      <trkpt lat="46.10122" lon="4.53443">
        <ele>665</ele>
        <time>2025-09-06T09:54:39Z</time>
      </trkpt>
      <trkpt lat="46.10122" lon="4.53443">
        <ele>664.8</ele>
        <time>2025-09-06T09:54:40Z</time>
      </trkpt>
      <trkpt lat="46.10122" lon="4.53443">
        <ele>664.8</ele>
        <time>2025-09-06T09:54:41Z</time>
      </trkpt>
      <trkpt lat="46.10122" lon="4.53443">
        <ele>664.8</ele>
        <time>2025-09-06T09:54:42Z</time>
      </trkpt>
      <trkpt lat="46.10118" lon="4.53428">
        <ele>664.6</ele>
        <time>2025-09-06T09:54:43Z</time>
      </trkpt>
      <trkpt lat="46.10118" lon="4.53425">
        <ele>664.8</ele>
        <time>2025-09-06T09:54:44Z</time>
      </trkpt>
      <trkpt lat="46.10118" lon="4.53422">
        <ele>664.6</ele>
        <time>2025-09-06T09:54:45Z</time>
      </trkpt>
      <trkpt lat="46.10118" lon="4.53419">
        <ele>664.6</ele>
        <time>2025-09-06T09:54:46Z</time>
      </trkpt>
      <trkpt lat="46.10116" lon="4.53416">
        <ele>664.6</ele>
        <time>2025-09-06T09:54:47Z</time>
      </trkpt>
      <trkpt lat="46.10114" lon="4.53414">
        <ele>664.4</ele>
        <time>2025-09-06T09:54:48Z</time>
      </trkpt>
      <trkpt lat="46.10112" lon="4.53412">
        <ele>664.4</ele>
        <time>2025-09-06T09:54:49Z</time>
      </trkpt>
      <trkpt lat="46.10111" lon="4.53408">
        <ele>664.4</ele>
        <time>2025-09-06T09:54:50Z</time>
      </trkpt>
      <trkpt lat="46.10109" lon="4.53404">
        <ele>664</ele>
        <time>2025-09-06T09:54:51Z</time>
      </trkpt>
      <trkpt lat="46.10108" lon="4.53401">
        <ele>664</ele>
        <time>2025-09-06T09:54:52Z</time>
      </trkpt>
      <trkpt lat="46.10107" lon="4.53398">
        <ele>664</ele>
        <time>2025-09-06T09:54:53Z</time>
      </trkpt>
      <trkpt lat="46.10105" lon="4.53395">
        <ele>664</ele>
        <time>2025-09-06T09:54:54Z</time>
      </trkpt>
      <trkpt lat="46.10103" lon="4.53391">
        <ele>663.6</ele>
        <time>2025-09-06T09:54:55Z</time>
      </trkpt>
      <trkpt lat="46.10101" lon="4.53387">
        <ele>663.6</ele>
        <time>2025-09-06T09:54:56Z</time>
      </trkpt>
      <trkpt lat="46.101" lon="4.53382">
        <ele>663.6</ele>
        <time>2025-09-06T09:54:57Z</time>
      </trkpt>
      <trkpt lat="46.10098" lon="4.53377">
        <ele>663.4</ele>
        <time>2025-09-06T09:54:58Z</time>
      </trkpt>
      <trkpt lat="46.10097" lon="4.53372">
        <ele>663</ele>
        <time>2025-09-06T09:54:59Z</time>
      </trkpt>
      <trkpt lat="46.10096" lon="4.53367">
        <ele>663</ele>
        <time>2025-09-06T09:55:00Z</time>
      </trkpt>
      <trkpt lat="46.10096" lon="4.53367">
        <ele>663</ele>
        <time>2025-09-06T09:55:01Z</time>
      </trkpt>
      <trkpt lat="46.10094" lon="4.53361">
        <ele>662.8</ele>
        <time>2025-09-06T09:55:02Z</time>
      </trkpt>
      <trkpt lat="46.10093" lon="4.53354">
        <ele>662.8</ele>
        <time>2025-09-06T09:55:03Z</time>
      </trkpt>
      <trkpt lat="46.10091" lon="4.53348">
        <ele>662.4</ele>
        <time>2025-09-06T09:55:04Z</time>
      </trkpt>
      <trkpt lat="46.1009" lon="4.53342">
        <ele>662.4</ele>
        <time>2025-09-06T09:55:05Z</time>
      </trkpt>
      <trkpt lat="46.10088" lon="4.53335">
        <ele>662.4</ele>
        <time>2025-09-06T09:55:06Z</time>
      </trkpt>
      <trkpt lat="46.10086" lon="4.53329">
        <ele>662.2</ele>
        <time>2025-09-06T09:55:07Z</time>
      </trkpt>
      <trkpt lat="46.10084" lon="4.53322">
        <ele>662.2</ele>
        <time>2025-09-06T09:55:08Z</time>
      </trkpt>
      <trkpt lat="46.10084" lon="4.53315">
        <ele>661.8</ele>
        <time>2025-09-06T09:55:09Z</time>
      </trkpt>
      <trkpt lat="46.10083" lon="4.53309">
        <ele>661.8</ele>
        <time>2025-09-06T09:55:10Z</time>
      </trkpt>
      <trkpt lat="46.10082" lon="4.53303">
        <ele>661.8</ele>
        <time>2025-09-06T09:55:11Z</time>
      </trkpt>
      <trkpt lat="46.1008" lon="4.53297">
        <ele>661.8</ele>
        <time>2025-09-06T09:55:12Z</time>
      </trkpt>
      <trkpt lat="46.10078" lon="4.5329">
        <ele>661.4</ele>
        <time>2025-09-06T09:55:13Z</time>
      </trkpt>
      <trkpt lat="46.10075" lon="4.53284">
        <ele>661.2</ele>
        <time>2025-09-06T09:55:14Z</time>
      </trkpt>
      <trkpt lat="46.10072" lon="4.53279">
        <ele>661.2</ele>
        <time>2025-09-06T09:55:15Z</time>
      </trkpt>
      <trkpt lat="46.10069" lon="4.53273">
        <ele>660.8</ele>
        <time>2025-09-06T09:55:16Z</time>
      </trkpt>
      <trkpt lat="46.10065" lon="4.53269">
        <ele>660.4</ele>
        <time>2025-09-06T09:55:17Z</time>
      </trkpt>
      <trkpt lat="46.10058" lon="4.53264">
        <ele>660.4</ele>
        <time>2025-09-06T09:55:18Z</time>
      </trkpt>
      <trkpt lat="46.10055" lon="4.53264">
        <ele>660.8</ele>
        <time>2025-09-06T09:55:19Z</time>
      </trkpt>
      <trkpt lat="46.10052" lon="4.53264">
        <ele>660.8</ele>
        <time>2025-09-06T09:55:20Z</time>
      </trkpt>
      <trkpt lat="46.1005" lon="4.53265">
        <ele>660.8</ele>
        <time>2025-09-06T09:55:21Z</time>
      </trkpt>
      <trkpt lat="46.10049" lon="4.53265">
        <ele>661</ele>
        <time>2025-09-06T09:55:22Z</time>
      </trkpt>
      <trkpt lat="46.10047" lon="4.53265">
        <ele>661</ele>
        <time>2025-09-06T09:55:23Z</time>
      </trkpt>
      <trkpt lat="46.10046" lon="4.53266">
        <ele>661.4</ele>
        <time>2025-09-06T09:55:24Z</time>
      </trkpt>
      <trkpt lat="46.10045" lon="4.53266">
        <ele>661.4</ele>
        <time>2025-09-06T09:55:25Z</time>
      </trkpt>
      <trkpt lat="46.10043" lon="4.53267">
        <ele>661.8</ele>
        <time>2025-09-06T09:55:26Z</time>
      </trkpt>
      <trkpt lat="46.10042" lon="4.53267">
        <ele>662.2</ele>
        <time>2025-09-06T09:55:27Z</time>
      </trkpt>
      <trkpt lat="46.1004" lon="4.53267">
        <ele>662.2</ele>
        <time>2025-09-06T09:55:28Z</time>
      </trkpt>
      <trkpt lat="46.10039" lon="4.53268">
        <ele>662.4</ele>
        <time>2025-09-06T09:55:29Z</time>
      </trkpt>
      <trkpt lat="46.10037" lon="4.53268">
        <ele>662.4</ele>
        <time>2025-09-06T09:55:30Z</time>
      </trkpt>
      <trkpt lat="46.10036" lon="4.53269">
        <ele>662.8</ele>
        <time>2025-09-06T09:55:31Z</time>
      </trkpt>
      <trkpt lat="46.10034" lon="4.5327">
        <ele>662.8</ele>
        <time>2025-09-06T09:55:32Z</time>
      </trkpt>
      <trkpt lat="46.10033" lon="4.5327">
        <ele>662.8</ele>
        <time>2025-09-06T09:55:33Z</time>
      </trkpt>
      <trkpt lat="46.10031" lon="4.53271">
        <ele>662.8</ele>
        <time>2025-09-06T09:55:34Z</time>
      </trkpt>
      <trkpt lat="46.1003" lon="4.53271">
        <ele>662.8</ele>
        <time>2025-09-06T09:55:35Z</time>
      </trkpt>
      <trkpt lat="46.10029" lon="4.53271">
        <ele>663.2</ele>
        <time>2025-09-06T09:55:36Z</time>
      </trkpt>
      <trkpt lat="46.10027" lon="4.53271">
        <ele>663.6</ele>
        <time>2025-09-06T09:55:37Z</time>
      </trkpt>
      <trkpt lat="46.10026" lon="4.53272">
        <ele>664</ele>
        <time>2025-09-06T09:55:38Z</time>
      </trkpt>
      <trkpt lat="46.10024" lon="4.53273">
        <ele>664</ele>
        <time>2025-09-06T09:55:39Z</time>
      </trkpt>
      <trkpt lat="46.10023" lon="4.53273">
        <ele>663</ele>
        <time>2025-09-06T09:55:40Z</time>
      </trkpt>
      <trkpt lat="46.10021" lon="4.53273">
        <ele>663</ele>
        <time>2025-09-06T09:55:41Z</time>
      </trkpt>
      <trkpt lat="46.1002" lon="4.53272">
        <ele>663.8</ele>
        <time>2025-09-06T09:55:42Z</time>
      </trkpt>
      <trkpt lat="46.10019" lon="4.53272">
        <ele>664.4</ele>
        <time>2025-09-06T09:55:43Z</time>
      </trkpt>
      <trkpt lat="46.10017" lon="4.53272">
        <ele>664.4</ele>
        <time>2025-09-06T09:55:44Z</time>
      </trkpt>
      <trkpt lat="46.10016" lon="4.53271">
        <ele>664.6</ele>
        <time>2025-09-06T09:55:45Z</time>
      </trkpt>
      <trkpt lat="46.10014" lon="4.53271">
        <ele>665</ele>
        <time>2025-09-06T09:55:46Z</time>
      </trkpt>
      <trkpt lat="46.10013" lon="4.53271">
        <ele>665.2</ele>
        <time>2025-09-06T09:55:47Z</time>
      </trkpt>
      <trkpt lat="46.10011" lon="4.5327">
        <ele>665.2</ele>
        <time>2025-09-06T09:55:48Z</time>
      </trkpt>
      <trkpt lat="46.1001" lon="4.5327">
        <ele>665.6</ele>
        <time>2025-09-06T09:55:49Z</time>
      </trkpt>
      <trkpt lat="46.10008" lon="4.53269">
        <ele>665.6</ele>
        <time>2025-09-06T09:55:50Z</time>
      </trkpt>
      <trkpt lat="46.10006" lon="4.53268">
        <ele>666</ele>
        <time>2025-09-06T09:55:51Z</time>
      </trkpt>
      <trkpt lat="46.10005" lon="4.53267">
        <ele>665.6</ele>
        <time>2025-09-06T09:55:52Z</time>
      </trkpt>
      <trkpt lat="46.10003" lon="4.53266">
        <ele>666</ele>
        <time>2025-09-06T09:55:53Z</time>
      </trkpt>
      <trkpt lat="46.10002" lon="4.53265">
        <ele>666.2</ele>
        <time>2025-09-06T09:55:54Z</time>
      </trkpt>
      <trkpt lat="46.1" lon="4.53264">
        <ele>666.2</ele>
        <time>2025-09-06T09:55:55Z</time>
      </trkpt>
      <trkpt lat="46.09998" lon="4.53263">
        <ele>666.4</ele>
        <time>2025-09-06T09:55:56Z</time>
      </trkpt>
      <trkpt lat="46.09997" lon="4.53262">
        <ele>666.4</ele>
        <time>2025-09-06T09:55:57Z</time>
      </trkpt>
      <trkpt lat="46.09996" lon="4.5326">
        <ele>666.4</ele>
        <time>2025-09-06T09:55:58Z</time>
      </trkpt>
      <trkpt lat="46.09996" lon="4.53258">
        <ele>666.8</ele>
        <time>2025-09-06T09:55:59Z</time>
      </trkpt>
      <trkpt lat="46.09995" lon="4.53257">
        <ele>666.8</ele>
        <time>2025-09-06T09:56:00Z</time>
      </trkpt>
      <trkpt lat="46.09993" lon="4.53255">
        <ele>666.8</ele>
        <time>2025-09-06T09:56:01Z</time>
      </trkpt>
      <trkpt lat="46.09993" lon="4.53253">
        <ele>667</ele>
        <time>2025-09-06T09:56:02Z</time>
      </trkpt>
      <trkpt lat="46.09992" lon="4.53251">
        <ele>667</ele>
        <time>2025-09-06T09:56:03Z</time>
      </trkpt>
      <trkpt lat="46.09992" lon="4.5325">
        <ele>667.4</ele>
        <time>2025-09-06T09:56:04Z</time>
      </trkpt>
      <trkpt lat="46.09991" lon="4.53248">
        <ele>667.8</ele>
        <time>2025-09-06T09:56:05Z</time>
      </trkpt>
      <trkpt lat="46.0999" lon="4.53246">
        <ele>668.2</ele>
        <time>2025-09-06T09:56:06Z</time>
      </trkpt>
      <trkpt lat="46.0999" lon="4.53245">
        <ele>668.2</ele>
        <time>2025-09-06T09:56:07Z</time>
      </trkpt>
      <trkpt lat="46.09989" lon="4.53243">
        <ele>668.4</ele>
        <time>2025-09-06T09:56:08Z</time>
      </trkpt>
      <trkpt lat="46.09988" lon="4.53242">
        <ele>668.4</ele>
        <time>2025-09-06T09:56:09Z</time>
      </trkpt>
      <trkpt lat="46.09988" lon="4.5324">
        <ele>669</ele>
        <time>2025-09-06T09:56:10Z</time>
      </trkpt>
      <trkpt lat="46.09987" lon="4.53239">
        <ele>669.2</ele>
        <time>2025-09-06T09:56:11Z</time>
      </trkpt>
      <trkpt lat="46.09987" lon="4.53237">
        <ele>669.2</ele>
        <time>2025-09-06T09:56:12Z</time>
      </trkpt>
      <trkpt lat="46.09987" lon="4.53235">
        <ele>669.2</ele>
        <time>2025-09-06T09:56:13Z</time>
      </trkpt>
      <trkpt lat="46.09987" lon="4.53234">
        <ele>669.2</ele>
        <time>2025-09-06T09:56:14Z</time>
      </trkpt>
      <trkpt lat="46.09987" lon="4.53232">
        <ele>669.4</ele>
        <time>2025-09-06T09:56:15Z</time>
      </trkpt>
      <trkpt lat="46.09987" lon="4.53231">
        <ele>669.4</ele>
        <time>2025-09-06T09:56:16Z</time>
      </trkpt>
      <trkpt lat="46.09986" lon="4.53229">
        <ele>669.8</ele>
        <time>2025-09-06T09:56:17Z</time>
      </trkpt>
      <trkpt lat="46.09985" lon="4.53228">
        <ele>670</ele>
        <time>2025-09-06T09:56:18Z</time>
      </trkpt>
      <trkpt lat="46.09985" lon="4.53227">
        <ele>670</ele>
        <time>2025-09-06T09:56:19Z</time>
      </trkpt>
      <trkpt lat="46.09984" lon="4.53226">
        <ele>670.2</ele>
        <time>2025-09-06T09:56:20Z</time>
      </trkpt>
      <trkpt lat="46.09983" lon="4.53225">
        <ele>670.6</ele>
        <time>2025-09-06T09:56:21Z</time>
      </trkpt>
      <trkpt lat="46.09981" lon="4.53224">
        <ele>670.6</ele>
        <time>2025-09-06T09:56:22Z</time>
      </trkpt>
      <trkpt lat="46.0998" lon="4.53223">
        <ele>670.8</ele>
        <time>2025-09-06T09:56:23Z</time>
      </trkpt>
      <trkpt lat="46.09979" lon="4.53221">
        <ele>670.8</ele>
        <time>2025-09-06T09:56:24Z</time>
      </trkpt>
      <trkpt lat="46.09978" lon="4.5322">
        <ele>671</ele>
        <time>2025-09-06T09:56:25Z</time>
      </trkpt>
      <trkpt lat="46.09978" lon="4.53219">
        <ele>671.2</ele>
        <time>2025-09-06T09:56:26Z</time>
      </trkpt>
      <trkpt lat="46.09977" lon="4.53218">
        <ele>671.2</ele>
        <time>2025-09-06T09:56:27Z</time>
      </trkpt>
      <trkpt lat="46.09976" lon="4.53217">
        <ele>671.4</ele>
        <time>2025-09-06T09:56:28Z</time>
      </trkpt>
      <trkpt lat="46.09975" lon="4.53216">
        <ele>671.4</ele>
        <time>2025-09-06T09:56:29Z</time>
      </trkpt>
      <trkpt lat="46.09974" lon="4.53215">
        <ele>671.8</ele>
        <time>2025-09-06T09:56:30Z</time>
      </trkpt>
      <trkpt lat="46.09974" lon="4.53213">
        <ele>671.8</ele>
        <time>2025-09-06T09:56:31Z</time>
      </trkpt>
      <trkpt lat="46.09973" lon="4.53212">
        <ele>672</ele>
        <time>2025-09-06T09:56:32Z</time>
      </trkpt>
      <trkpt lat="46.09972" lon="4.53211">
        <ele>672.2</ele>
        <time>2025-09-06T09:56:33Z</time>
      </trkpt>
      <trkpt lat="46.09971" lon="4.53211">
        <ele>672.6</ele>
        <time>2025-09-06T09:56:34Z</time>
      </trkpt>
      <trkpt lat="46.0997" lon="4.5321">
        <ele>672.6</ele>
        <time>2025-09-06T09:56:35Z</time>
      </trkpt>
      <trkpt lat="46.09969" lon="4.53209">
        <ele>672.8</ele>
        <time>2025-09-06T09:56:36Z</time>
      </trkpt>
      <trkpt lat="46.09968" lon="4.53208">
        <ele>672.8</ele>
        <time>2025-09-06T09:56:37Z</time>
      </trkpt>
      <trkpt lat="46.09967" lon="4.53207">
        <ele>673.2</ele>
        <time>2025-09-06T09:56:38Z</time>
      </trkpt>
      <trkpt lat="46.09966" lon="4.53206">
        <ele>673.4</ele>
        <time>2025-09-06T09:56:39Z</time>
      </trkpt>
      <trkpt lat="46.09965" lon="4.53205">
        <ele>673.4</ele>
        <time>2025-09-06T09:56:40Z</time>
      </trkpt>
      <trkpt lat="46.09964" lon="4.53204">
        <ele>673.8</ele>
        <time>2025-09-06T09:56:41Z</time>
      </trkpt>
      <trkpt lat="46.09963" lon="4.53203">
        <ele>673.8</ele>
        <time>2025-09-06T09:56:42Z</time>
      </trkpt>
      <trkpt lat="46.09963" lon="4.53202">
        <ele>674</ele>
        <time>2025-09-06T09:56:43Z</time>
      </trkpt>
      <trkpt lat="46.09962" lon="4.53201">
        <ele>674.2</ele>
        <time>2025-09-06T09:56:44Z</time>
      </trkpt>
      <trkpt lat="46.09961" lon="4.532">
        <ele>674.2</ele>
        <time>2025-09-06T09:56:45Z</time>
      </trkpt>
      <trkpt lat="46.0996" lon="4.53199">
        <ele>674.6</ele>
        <time>2025-09-06T09:56:46Z</time>
      </trkpt>
      <trkpt lat="46.09959" lon="4.53199">
        <ele>674.6</ele>
        <time>2025-09-06T09:56:47Z</time>
      </trkpt>
      <trkpt lat="46.09958" lon="4.53199">
        <ele>674.6</ele>
        <time>2025-09-06T09:56:48Z</time>
      </trkpt>
      <trkpt lat="46.09957" lon="4.53198">
        <ele>674.8</ele>
        <time>2025-09-06T09:56:49Z</time>
      </trkpt>
      <trkpt lat="46.09957" lon="4.53198">
        <ele>675.4</ele>
        <time>2025-09-06T09:56:50Z</time>
      </trkpt>
      <trkpt lat="46.09956" lon="4.53197">
        <ele>675.4</ele>
        <time>2025-09-06T09:56:51Z</time>
      </trkpt>
      <trkpt lat="46.09955" lon="4.53196">
        <ele>675.6</ele>
        <time>2025-09-06T09:56:52Z</time>
      </trkpt>
      <trkpt lat="46.09954" lon="4.53196">
        <ele>676</ele>
        <time>2025-09-06T09:56:53Z</time>
      </trkpt>
      <trkpt lat="46.09953" lon="4.53196">
        <ele>676</ele>
        <time>2025-09-06T09:56:54Z</time>
      </trkpt>
      <trkpt lat="46.09952" lon="4.53196">
        <ele>676</ele>
        <time>2025-09-06T09:56:55Z</time>
      </trkpt>
      <trkpt lat="46.09951" lon="4.53196">
        <ele>676.2</ele>
        <time>2025-09-06T09:56:56Z</time>
      </trkpt>
      <trkpt lat="46.0995" lon="4.53195">
        <ele>676.2</ele>
        <time>2025-09-06T09:56:57Z</time>
      </trkpt>
      <trkpt lat="46.0995" lon="4.53194">
        <ele>676.4</ele>
        <time>2025-09-06T09:56:58Z</time>
      </trkpt>
      <trkpt lat="46.09949" lon="4.53193">
        <ele>676.6</ele>
        <time>2025-09-06T09:56:59Z</time>
      </trkpt>
      <trkpt lat="46.09948" lon="4.53193">
        <ele>676.6</ele>
        <time>2025-09-06T09:57:00Z</time>
      </trkpt>
      <trkpt lat="46.09947" lon="4.53193">
        <ele>676.6</ele>
        <time>2025-09-06T09:57:01Z</time>
      </trkpt>
      <trkpt lat="46.09946" lon="4.53192">
        <ele>677</ele>
        <time>2025-09-06T09:57:02Z</time>
      </trkpt>
      <trkpt lat="46.09945" lon="4.53192">
        <ele>677</ele>
        <time>2025-09-06T09:57:03Z</time>
      </trkpt>
      <trkpt lat="46.09944" lon="4.53191">
        <ele>677</ele>
        <time>2025-09-06T09:57:04Z</time>
      </trkpt>
      <trkpt lat="46.09943" lon="4.53191">
        <ele>677.4</ele>
        <time>2025-09-06T09:57:05Z</time>
      </trkpt>
      <trkpt lat="46.09942" lon="4.53191">
        <ele>677.4</ele>
        <time>2025-09-06T09:57:06Z</time>
      </trkpt>
      <trkpt lat="46.09941" lon="4.53191">
        <ele>677.4</ele>
        <time>2025-09-06T09:57:07Z</time>
      </trkpt>
      <trkpt lat="46.0994" lon="4.5319">
        <ele>677.8</ele>
        <time>2025-09-06T09:57:08Z</time>
      </trkpt>
      <trkpt lat="46.09939" lon="4.5319">
        <ele>678</ele>
        <time>2025-09-06T09:57:09Z</time>
      </trkpt>
      <trkpt lat="46.09938" lon="4.5319">
        <ele>678.2</ele>
        <time>2025-09-06T09:57:10Z</time>
      </trkpt>
      <trkpt lat="46.09937" lon="4.53189">
        <ele>678.6</ele>
        <time>2025-09-06T09:57:11Z</time>
      </trkpt>
      <trkpt lat="46.09936" lon="4.53189">
        <ele>678.8</ele>
        <time>2025-09-06T09:57:12Z</time>
      </trkpt>
      <trkpt lat="46.09936" lon="4.53189">
        <ele>678.8</ele>
        <time>2025-09-06T09:57:13Z</time>
      </trkpt>
      <trkpt lat="46.09934" lon="4.53189">
        <ele>678.8</ele>
        <time>2025-09-06T09:57:14Z</time>
      </trkpt>
      <trkpt lat="46.09934" lon="4.5319">
        <ele>678.8</ele>
        <time>2025-09-06T09:57:15Z</time>
      </trkpt>
      <trkpt lat="46.09933" lon="4.5319">
        <ele>679.2</ele>
        <time>2025-09-06T09:57:16Z</time>
      </trkpt>
      <trkpt lat="46.09932" lon="4.5319">
        <ele>679.2</ele>
        <time>2025-09-06T09:57:17Z</time>
      </trkpt>
      <trkpt lat="46.09931" lon="4.5319">
        <ele>679.4</ele>
        <time>2025-09-06T09:57:18Z</time>
      </trkpt>
      <trkpt lat="46.0993" lon="4.53189">
        <ele>679.4</ele>
        <time>2025-09-06T09:57:19Z</time>
      </trkpt>
      <trkpt lat="46.0993" lon="4.53189">
        <ele>679.8</ele>
        <time>2025-09-06T09:57:20Z</time>
      </trkpt>
      <trkpt lat="46.09929" lon="4.53189">
        <ele>680.2</ele>
        <time>2025-09-06T09:57:21Z</time>
      </trkpt>
      <trkpt lat="46.09928" lon="4.53188">
        <ele>680.4</ele>
        <time>2025-09-06T09:57:22Z</time>
      </trkpt>
      <trkpt lat="46.09927" lon="4.53188">
        <ele>680.4</ele>
        <time>2025-09-06T09:57:23Z</time>
      </trkpt>
      <trkpt lat="46.09926" lon="4.53187">
        <ele>680.4</ele>
        <time>2025-09-06T09:57:24Z</time>
      </trkpt>
      <trkpt lat="46.09925" lon="4.53186">
        <ele>680.4</ele>
        <time>2025-09-06T09:57:25Z</time>
      </trkpt>
      <trkpt lat="46.09924" lon="4.53186">
        <ele>680.6</ele>
        <time>2025-09-06T09:57:26Z</time>
      </trkpt>
      <trkpt lat="46.09924" lon="4.53186">
        <ele>680.6</ele>
        <time>2025-09-06T09:57:27Z</time>
      </trkpt>
      <trkpt lat="46.09922" lon="4.53186">
        <ele>681</ele>
        <time>2025-09-06T09:57:28Z</time>
      </trkpt>
      <trkpt lat="46.09921" lon="4.53186">
        <ele>681</ele>
        <time>2025-09-06T09:57:29Z</time>
      </trkpt>
      <trkpt lat="46.0992" lon="4.53185">
        <ele>681</ele>
        <time>2025-09-06T09:57:30Z</time>
      </trkpt>
      <trkpt lat="46.0992" lon="4.53185">
        <ele>681.2</ele>
        <time>2025-09-06T09:57:31Z</time>
      </trkpt>
      <trkpt lat="46.09919" lon="4.53183">
        <ele>681.2</ele>
        <time>2025-09-06T09:57:32Z</time>
      </trkpt>
      <trkpt lat="46.09918" lon="4.53182">
        <ele>681.6</ele>
        <time>2025-09-06T09:57:33Z</time>
      </trkpt>
      <trkpt lat="46.09917" lon="4.53181">
        <ele>681.8</ele>
        <time>2025-09-06T09:57:34Z</time>
      </trkpt>
      <trkpt lat="46.09916" lon="4.53182">
        <ele>681.8</ele>
        <time>2025-09-06T09:57:35Z</time>
      </trkpt>
      <trkpt lat="46.09915" lon="4.53182">
        <ele>681.8</ele>
        <time>2025-09-06T09:57:36Z</time>
      </trkpt>
      <trkpt lat="46.09914" lon="4.53183">
        <ele>682</ele>
        <time>2025-09-06T09:57:37Z</time>
      </trkpt>
      <trkpt lat="46.09912" lon="4.53182">
        <ele>682.2</ele>
        <time>2025-09-06T09:57:38Z</time>
      </trkpt>
      <trkpt lat="46.09911" lon="4.53182">
        <ele>682.8</ele>
        <time>2025-09-06T09:57:39Z</time>
      </trkpt>
      <trkpt lat="46.0991" lon="4.53181">
        <ele>683.2</ele>
        <time>2025-09-06T09:57:40Z</time>
      </trkpt>
      <trkpt lat="46.0991" lon="4.53181">
        <ele>683.2</ele>
        <time>2025-09-06T09:57:41Z</time>
      </trkpt>
      <trkpt lat="46.09908" lon="4.5318">
        <ele>683.4</ele>
        <time>2025-09-06T09:57:42Z</time>
      </trkpt>
      <trkpt lat="46.09908" lon="4.5318">
        <ele>683.8</ele>
        <time>2025-09-06T09:57:43Z</time>
      </trkpt>
      <trkpt lat="46.09907" lon="4.53179">
        <ele>683.8</ele>
        <time>2025-09-06T09:57:44Z</time>
      </trkpt>
      <trkpt lat="46.09906" lon="4.53178">
        <ele>683.8</ele>
        <time>2025-09-06T09:57:45Z</time>
      </trkpt>
      <trkpt lat="46.09906" lon="4.53177">
        <ele>684</ele>
        <time>2025-09-06T09:57:46Z</time>
      </trkpt>
      <trkpt lat="46.09905" lon="4.53177">
        <ele>684.4</ele>
        <time>2025-09-06T09:57:47Z</time>
      </trkpt>
      <trkpt lat="46.09904" lon="4.53176">
        <ele>684.6</ele>
        <time>2025-09-06T09:57:48Z</time>
      </trkpt>
      <trkpt lat="46.09903" lon="4.53176">
        <ele>684.6</ele>
        <time>2025-09-06T09:57:49Z</time>
      </trkpt>
      <trkpt lat="46.09902" lon="4.53175">
        <ele>685</ele>
        <time>2025-09-06T09:57:50Z</time>
      </trkpt>
      <trkpt lat="46.09901" lon="4.53175">
        <ele>685.2</ele>
        <time>2025-09-06T09:57:51Z</time>
      </trkpt>
      <trkpt lat="46.099" lon="4.53174">
        <ele>685.6</ele>
        <time>2025-09-06T09:57:52Z</time>
      </trkpt>
      <trkpt lat="46.09899" lon="4.53174">
        <ele>685.6</ele>
        <time>2025-09-06T09:57:53Z</time>
      </trkpt>
      <trkpt lat="46.09898" lon="4.53174">
        <ele>685.8</ele>
        <time>2025-09-06T09:57:54Z</time>
      </trkpt>
      <trkpt lat="46.09896" lon="4.53174">
        <ele>685.8</ele>
        <time>2025-09-06T09:57:55Z</time>
      </trkpt>
      <trkpt lat="46.09895" lon="4.53173">
        <ele>686</ele>
        <time>2025-09-06T09:57:56Z</time>
      </trkpt>
      <trkpt lat="46.09894" lon="4.53172">
        <ele>686</ele>
        <time>2025-09-06T09:57:57Z</time>
      </trkpt>
      <trkpt lat="46.09893" lon="4.53171">
        <ele>686</ele>
        <time>2025-09-06T09:57:58Z</time>
      </trkpt>
      <trkpt lat="46.09892" lon="4.5317">
        <ele>686</ele>
        <time>2025-09-06T09:57:59Z</time>
      </trkpt>
      <trkpt lat="46.09891" lon="4.5317">
        <ele>686.4</ele>
        <time>2025-09-06T09:58:00Z</time>
      </trkpt>
      <trkpt lat="46.09891" lon="4.53169">
        <ele>686.6</ele>
        <time>2025-09-06T09:58:01Z</time>
      </trkpt>
      <trkpt lat="46.0989" lon="4.53168">
        <ele>687</ele>
        <time>2025-09-06T09:58:02Z</time>
      </trkpt>
      <trkpt lat="46.09889" lon="4.53168">
        <ele>687</ele>
        <time>2025-09-06T09:58:03Z</time>
      </trkpt>
      <trkpt lat="46.09888" lon="4.53167">
        <ele>687.4</ele>
        <time>2025-09-06T09:58:04Z</time>
      </trkpt>
      <trkpt lat="46.09887" lon="4.53166">
        <ele>687.6</ele>
        <time>2025-09-06T09:58:05Z</time>
      </trkpt>
      <trkpt lat="46.09886" lon="4.53165">
        <ele>687.6</ele>
        <time>2025-09-06T09:58:06Z</time>
      </trkpt>
      <trkpt lat="46.09886" lon="4.53164">
        <ele>687.6</ele>
        <time>2025-09-06T09:58:07Z</time>
      </trkpt>
      <trkpt lat="46.09885" lon="4.53163">
        <ele>687.8</ele>
        <time>2025-09-06T09:58:08Z</time>
      </trkpt>
      <trkpt lat="46.09884" lon="4.53162">
        <ele>688</ele>
        <time>2025-09-06T09:58:09Z</time>
      </trkpt>
      <trkpt lat="46.09884" lon="4.53161">
        <ele>688.2</ele>
        <time>2025-09-06T09:58:10Z</time>
      </trkpt>
      <trkpt lat="46.09883" lon="4.5316">
        <ele>688.2</ele>
        <time>2025-09-06T09:58:11Z</time>
      </trkpt>
      <trkpt lat="46.09883" lon="4.53159">
        <ele>688.6</ele>
        <time>2025-09-06T09:58:12Z</time>
      </trkpt>
      <trkpt lat="46.09882" lon="4.53158">
        <ele>688.6</ele>
        <time>2025-09-06T09:58:13Z</time>
      </trkpt>
      <trkpt lat="46.09881" lon="4.53157">
        <ele>689</ele>
        <time>2025-09-06T09:58:14Z</time>
      </trkpt>
      <trkpt lat="46.0988" lon="4.53155">
        <ele>689</ele>
        <time>2025-09-06T09:58:15Z</time>
      </trkpt>
      <trkpt lat="46.09879" lon="4.53154">
        <ele>689.4</ele>
        <time>2025-09-06T09:58:16Z</time>
      </trkpt>
      <trkpt lat="46.09878" lon="4.53153">
        <ele>689.4</ele>
        <time>2025-09-06T09:58:17Z</time>
      </trkpt>
      <trkpt lat="46.09878" lon="4.53152">
        <ele>689.6</ele>
        <time>2025-09-06T09:58:18Z</time>
      </trkpt>
      <trkpt lat="46.09877" lon="4.53151">
        <ele>689.6</ele>
        <time>2025-09-06T09:58:19Z</time>
      </trkpt>
      <trkpt lat="46.09876" lon="4.5315">
        <ele>689.6</ele>
        <time>2025-09-06T09:58:20Z</time>
      </trkpt>
      <trkpt lat="46.09876" lon="4.53149">
        <ele>689.6</ele>
        <time>2025-09-06T09:58:21Z</time>
      </trkpt>
      <trkpt lat="46.09875" lon="4.53148">
        <ele>689.8</ele>
        <time>2025-09-06T09:58:22Z</time>
      </trkpt>
      <trkpt lat="46.09875" lon="4.53147">
        <ele>690</ele>
        <time>2025-09-06T09:58:23Z</time>
      </trkpt>
      <trkpt lat="46.09874" lon="4.53146">
        <ele>690</ele>
        <time>2025-09-06T09:58:24Z</time>
      </trkpt>
      <trkpt lat="46.09875" lon="4.53147">
        <ele>690.4</ele>
        <time>2025-09-06T09:58:25Z</time>
      </trkpt>
      <trkpt lat="46.09875" lon="4.53147">
        <ele>690.4</ele>
        <time>2025-09-06T09:58:26Z</time>
      </trkpt>
      <trkpt lat="46.09874" lon="4.53147">
        <ele>690.6</ele>
        <time>2025-09-06T09:58:32Z</time>
      </trkpt>
      <trkpt lat="46.09874" lon="4.53147">
        <ele>690.6</ele>
        <time>2025-09-06T09:58:33Z</time>
      </trkpt>
      <trkpt lat="46.09873" lon="4.53144">
        <ele>691</ele>
        <time>2025-09-06T09:59:01Z</time>
      </trkpt>
      <trkpt lat="46.09872" lon="4.53143">
        <ele>691</ele>
        <time>2025-09-06T09:59:02Z</time>
      </trkpt>
      <trkpt lat="46.09871" lon="4.53142">
        <ele>691.4</ele>
        <time>2025-09-06T09:59:03Z</time>
      </trkpt>
      <trkpt lat="46.09871" lon="4.5314">
        <ele>691.4</ele>
        <time>2025-09-06T09:59:04Z</time>
      </trkpt>
      <trkpt lat="46.0987" lon="4.53139">
        <ele>691.4</ele>
        <time>2025-09-06T09:59:05Z</time>
      </trkpt>
      <trkpt lat="46.0987" lon="4.53138">
        <ele>691.8</ele>
        <time>2025-09-06T09:59:06Z</time>
      </trkpt>
      <trkpt lat="46.09869" lon="4.53137">
        <ele>691.8</ele>
        <time>2025-09-06T09:59:07Z</time>
      </trkpt>
      <trkpt lat="46.09869" lon="4.53136">
        <ele>692</ele>
        <time>2025-09-06T09:59:08Z</time>
      </trkpt>
      <trkpt lat="46.09868" lon="4.53135">
        <ele>692</ele>
        <time>2025-09-06T09:59:09Z</time>
      </trkpt>
      <trkpt lat="46.09868" lon="4.53134">
        <ele>692.4</ele>
        <time>2025-09-06T09:59:10Z</time>
      </trkpt>
      <trkpt lat="46.09867" lon="4.53133">
        <ele>692.4</ele>
        <time>2025-09-06T09:59:11Z</time>
      </trkpt>
      <trkpt lat="46.09866" lon="4.53132">
        <ele>692.4</ele>
        <time>2025-09-06T09:59:12Z</time>
      </trkpt>
      <trkpt lat="46.09865" lon="4.53131">
        <ele>692.8</ele>
        <time>2025-09-06T09:59:13Z</time>
      </trkpt>
      <trkpt lat="46.09865" lon="4.5313">
        <ele>693</ele>
        <time>2025-09-06T09:59:14Z</time>
      </trkpt>
      <trkpt lat="46.09864" lon="4.53129">
        <ele>693</ele>
        <time>2025-09-06T09:59:15Z</time>
      </trkpt>
      <trkpt lat="46.09863" lon="4.53128">
        <ele>693.4</ele>
        <time>2025-09-06T09:59:16Z</time>
      </trkpt>
      <trkpt lat="46.09863" lon="4.53127">
        <ele>693.4</ele>
        <time>2025-09-06T09:59:17Z</time>
      </trkpt>
      <trkpt lat="46.09862" lon="4.53126">
        <ele>693.4</ele>
        <time>2025-09-06T09:59:18Z</time>
      </trkpt>
      <trkpt lat="46.09861" lon="4.53125">
        <ele>693.6</ele>
        <time>2025-09-06T09:59:19Z</time>
      </trkpt>
      <trkpt lat="46.09861" lon="4.53124">
        <ele>694</ele>
        <time>2025-09-06T09:59:20Z</time>
      </trkpt>
      <trkpt lat="46.0986" lon="4.53123">
        <ele>694</ele>
        <time>2025-09-06T09:59:21Z</time>
      </trkpt>
      <trkpt lat="46.0986" lon="4.53122">
        <ele>694.2</ele>
        <time>2025-09-06T09:59:22Z</time>
      </trkpt>
      <trkpt lat="46.09859" lon="4.53121">
        <ele>694.4</ele>
        <time>2025-09-06T09:59:23Z</time>
      </trkpt>
      <trkpt lat="46.09859" lon="4.5312">
        <ele>694.4</ele>
        <time>2025-09-06T09:59:24Z</time>
      </trkpt>
      <trkpt lat="46.09858" lon="4.53119">
        <ele>694.4</ele>
        <time>2025-09-06T09:59:25Z</time>
      </trkpt>
      <trkpt lat="46.09858" lon="4.53118">
        <ele>694.8</ele>
        <time>2025-09-06T09:59:26Z</time>
      </trkpt>
      <trkpt lat="46.09858" lon="4.53117">
        <ele>694.8</ele>
        <time>2025-09-06T09:59:27Z</time>
      </trkpt>
      <trkpt lat="46.09857" lon="4.53116">
        <ele>695</ele>
        <time>2025-09-06T09:59:28Z</time>
      </trkpt>
      <trkpt lat="46.09857" lon="4.53115">
        <ele>695</ele>
        <time>2025-09-06T09:59:29Z</time>
      </trkpt>
      <trkpt lat="46.09856" lon="4.53113">
        <ele>695</ele>
        <time>2025-09-06T09:59:30Z</time>
      </trkpt>
      <trkpt lat="46.09855" lon="4.53112">
        <ele>695.2</ele>
        <time>2025-09-06T09:59:31Z</time>
      </trkpt>
      <trkpt lat="46.09855" lon="4.53112">
        <ele>695.2</ele>
        <time>2025-09-06T09:59:32Z</time>
      </trkpt>
      <trkpt lat="46.09854" lon="4.53111">
        <ele>695.6</ele>
        <time>2025-09-06T09:59:33Z</time>
      </trkpt>
      <trkpt lat="46.09854" lon="4.53111">
        <ele>696</ele>
        <time>2025-09-06T09:59:34Z</time>
      </trkpt>
      <trkpt lat="46.09853" lon="4.5311">
        <ele>696.2</ele>
        <time>2025-09-06T09:59:35Z</time>
      </trkpt>
      <trkpt lat="46.09852" lon="4.53108">
        <ele>696.2</ele>
        <time>2025-09-06T09:59:36Z</time>
      </trkpt>
      <trkpt lat="46.09852" lon="4.53108">
        <ele>696.6</ele>
        <time>2025-09-06T09:59:37Z</time>
      </trkpt>
      <trkpt lat="46.09851" lon="4.53107">
        <ele>696.6</ele>
        <time>2025-09-06T09:59:38Z</time>
      </trkpt>
      <trkpt lat="46.09851" lon="4.53106">
        <ele>697</ele>
        <time>2025-09-06T09:59:39Z</time>
      </trkpt>
      <trkpt lat="46.0985" lon="4.53104">
        <ele>697.2</ele>
        <time>2025-09-06T09:59:40Z</time>
      </trkpt>
      <trkpt lat="46.0985" lon="4.53103">
        <ele>697.4</ele>
        <time>2025-09-06T09:59:41Z</time>
      </trkpt>
      <trkpt lat="46.09849" lon="4.53102">
        <ele>697.4</ele>
        <time>2025-09-06T09:59:42Z</time>
      </trkpt>
      <trkpt lat="46.09849" lon="4.53101">
        <ele>697.8</ele>
        <time>2025-09-06T09:59:43Z</time>
      </trkpt>
      <trkpt lat="46.09848" lon="4.531">
        <ele>697.8</ele>
        <time>2025-09-06T09:59:44Z</time>
      </trkpt>
      <trkpt lat="46.09848" lon="4.53099">
        <ele>698.2</ele>
        <time>2025-09-06T09:59:45Z</time>
      </trkpt>
      <trkpt lat="46.09847" lon="4.53098">
        <ele>698.2</ele>
        <time>2025-09-06T09:59:46Z</time>
      </trkpt>
      <trkpt lat="46.09847" lon="4.53097">
        <ele>698.6</ele>
        <time>2025-09-06T09:59:47Z</time>
      </trkpt>
      <trkpt lat="46.09846" lon="4.53097">
        <ele>698.6</ele>
        <time>2025-09-06T09:59:48Z</time>
      </trkpt>
      <trkpt lat="46.09846" lon="4.53097">
        <ele>698.8</ele>
        <time>2025-09-06T09:59:49Z</time>
      </trkpt>
      <trkpt lat="46.09846" lon="4.53097">
        <ele>698.8</ele>
        <time>2025-09-06T09:59:50Z</time>
      </trkpt>
      <trkpt lat="46.09846" lon="4.53095">
        <ele>698.8</ele>
        <time>2025-09-06T09:59:57Z</time>
      </trkpt>
      <trkpt lat="46.09845" lon="4.53094">
        <ele>698.8</ele>
        <time>2025-09-06T09:59:58Z</time>
      </trkpt>
      <trkpt lat="46.09844" lon="4.53093">
        <ele>699.2</ele>
        <time>2025-09-06T09:59:59Z</time>
      </trkpt>
      <trkpt lat="46.09844" lon="4.53092">
        <ele>699.2</ele>
        <time>2025-09-06T10:00:00Z</time>
      </trkpt>
      <trkpt lat="46.09843" lon="4.5309">
        <ele>699.4</ele>
        <time>2025-09-06T10:00:01Z</time>
      </trkpt>
      <trkpt lat="46.09843" lon="4.53089">
        <ele>699.4</ele>
        <time>2025-09-06T10:00:02Z</time>
      </trkpt>
      <trkpt lat="46.09842" lon="4.53088">
        <ele>699.8</ele>
        <time>2025-09-06T10:00:03Z</time>
      </trkpt>
      <trkpt lat="46.09841" lon="4.53087">
        <ele>699.8</ele>
        <time>2025-09-06T10:00:04Z</time>
      </trkpt>
      <trkpt lat="46.09841" lon="4.53086">
        <ele>699.8</ele>
        <time>2025-09-06T10:00:05Z</time>
      </trkpt>
      <trkpt lat="46.09841" lon="4.53085">
        <ele>700</ele>
        <time>2025-09-06T10:00:06Z</time>
      </trkpt>
      <trkpt lat="46.0984" lon="4.53085">
        <ele>700</ele>
        <time>2025-09-06T10:00:07Z</time>
      </trkpt>
      <trkpt lat="46.09839" lon="4.53084">
        <ele>700.2</ele>
        <time>2025-09-06T10:00:08Z</time>
      </trkpt>
      <trkpt lat="46.09839" lon="4.53083">
        <ele>700.4</ele>
        <time>2025-09-06T10:00:09Z</time>
      </trkpt>
      <trkpt lat="46.09838" lon="4.53082">
        <ele>700.4</ele>
        <time>2025-09-06T10:00:10Z</time>
      </trkpt>
      <trkpt lat="46.09838" lon="4.5308">
        <ele>700.8</ele>
        <time>2025-09-06T10:00:11Z</time>
      </trkpt>
      <trkpt lat="46.09838" lon="4.53079">
        <ele>700.8</ele>
        <time>2025-09-06T10:00:12Z</time>
      </trkpt>
      <trkpt lat="46.09837" lon="4.53078">
        <ele>700.8</ele>
        <time>2025-09-06T10:00:13Z</time>
      </trkpt>
      <trkpt lat="46.09837" lon="4.53077">
        <ele>700.8</ele>
        <time>2025-09-06T10:00:14Z</time>
      </trkpt>
      <trkpt lat="46.09836" lon="4.53076">
        <ele>701</ele>
        <time>2025-09-06T10:00:15Z</time>
      </trkpt>
      <trkpt lat="46.09836" lon="4.53075">
        <ele>701</ele>
        <time>2025-09-06T10:00:16Z</time>
      </trkpt>
      <trkpt lat="46.09836" lon="4.53074">
        <ele>701.2</ele>
        <time>2025-09-06T10:00:17Z</time>
      </trkpt>
      <trkpt lat="46.09835" lon="4.53073">
        <ele>701.4</ele>
        <time>2025-09-06T10:00:18Z</time>
      </trkpt>
      <trkpt lat="46.09835" lon="4.53071">
        <ele>701.8</ele>
        <time>2025-09-06T10:00:19Z</time>
      </trkpt>
      <trkpt lat="46.09834" lon="4.5307">
        <ele>701.8</ele>
        <time>2025-09-06T10:00:20Z</time>
      </trkpt>
      <trkpt lat="46.09833" lon="4.53069">
        <ele>702</ele>
        <time>2025-09-06T10:00:21Z</time>
      </trkpt>
      <trkpt lat="46.09833" lon="4.53067">
        <ele>702</ele>
        <time>2025-09-06T10:00:22Z</time>
      </trkpt>
      <trkpt lat="46.09833" lon="4.53066">
        <ele>702</ele>
        <time>2025-09-06T10:00:23Z</time>
      </trkpt>
      <trkpt lat="46.09832" lon="4.53065">
        <ele>702.2</ele>
        <time>2025-09-06T10:00:24Z</time>
      </trkpt>
      <trkpt lat="46.09832" lon="4.53064">
        <ele>702.6</ele>
        <time>2025-09-06T10:00:25Z</time>
      </trkpt>
      <trkpt lat="46.09832" lon="4.53062">
        <ele>702.8</ele>
        <time>2025-09-06T10:00:26Z</time>
      </trkpt>
      <trkpt lat="46.09832" lon="4.53061">
        <ele>702.8</ele>
        <time>2025-09-06T10:00:27Z</time>
      </trkpt>
      <trkpt lat="46.09832" lon="4.53059">
        <ele>703.2</ele>
        <time>2025-09-06T10:00:28Z</time>
      </trkpt>
      <trkpt lat="46.09832" lon="4.53058">
        <ele>703.2</ele>
        <time>2025-09-06T10:00:29Z</time>
      </trkpt>
      <trkpt lat="46.09832" lon="4.53057">
        <ele>703.4</ele>
        <time>2025-09-06T10:00:30Z</time>
      </trkpt>
      <trkpt lat="46.09832" lon="4.53055">
        <ele>703.6</ele>
        <time>2025-09-06T10:00:31Z</time>
      </trkpt>
      <trkpt lat="46.09832" lon="4.53054">
        <ele>703.6</ele>
        <time>2025-09-06T10:00:32Z</time>
      </trkpt>
      <trkpt lat="46.09832" lon="4.53052">
        <ele>703.8</ele>
        <time>2025-09-06T10:00:33Z</time>
      </trkpt>
      <trkpt lat="46.09832" lon="4.53051">
        <ele>703.8</ele>
        <time>2025-09-06T10:00:34Z</time>
      </trkpt>
      <trkpt lat="46.09831" lon="4.53049">
        <ele>704.2</ele>
        <time>2025-09-06T10:00:35Z</time>
      </trkpt>
      <trkpt lat="46.09832" lon="4.53048">
        <ele>704.2</ele>
        <time>2025-09-06T10:00:36Z</time>
      </trkpt>
      <trkpt lat="46.09832" lon="4.53047">
        <ele>704.6</ele>
        <time>2025-09-06T10:00:37Z</time>
      </trkpt>
      <trkpt lat="46.09832" lon="4.53045">
        <ele>704.6</ele>
        <time>2025-09-06T10:00:38Z</time>
      </trkpt>
      <trkpt lat="46.09832" lon="4.53044">
        <ele>704.8</ele>
        <time>2025-09-06T10:00:39Z</time>
      </trkpt>
      <trkpt lat="46.09832" lon="4.53043">
        <ele>705</ele>
        <time>2025-09-06T10:00:40Z</time>
      </trkpt>
      <trkpt lat="46.09832" lon="4.53041">
        <ele>705</ele>
        <time>2025-09-06T10:00:41Z</time>
      </trkpt>
      <trkpt lat="46.09833" lon="4.5304">
        <ele>705.4</ele>
        <time>2025-09-06T10:00:42Z</time>
      </trkpt>
      <trkpt lat="46.09833" lon="4.53039">
        <ele>705.4</ele>
        <time>2025-09-06T10:00:43Z</time>
      </trkpt>
      <trkpt lat="46.09833" lon="4.53038">
        <ele>705.4</ele>
        <time>2025-09-06T10:00:44Z</time>
      </trkpt>
      <trkpt lat="46.09834" lon="4.53037">
        <ele>705.4</ele>
        <time>2025-09-06T10:00:45Z</time>
      </trkpt>
      <trkpt lat="46.09834" lon="4.53035">
        <ele>705.6</ele>
        <time>2025-09-06T10:00:46Z</time>
      </trkpt>
      <trkpt lat="46.09834" lon="4.53034">
        <ele>705.6</ele>
        <time>2025-09-06T10:00:47Z</time>
      </trkpt>
      <trkpt lat="46.09834" lon="4.53033">
        <ele>705.6</ele>
        <time>2025-09-06T10:00:48Z</time>
      </trkpt>
      <trkpt lat="46.09834" lon="4.53032">
        <ele>705.6</ele>
        <time>2025-09-06T10:00:49Z</time>
      </trkpt>
      <trkpt lat="46.09835" lon="4.53031">
        <ele>705.6</ele>
        <time>2025-09-06T10:00:50Z</time>
      </trkpt>
      <trkpt lat="46.09835" lon="4.5303">
        <ele>705.6</ele>
        <time>2025-09-06T10:00:51Z</time>
      </trkpt>
      <trkpt lat="46.09836" lon="4.53029">
        <ele>705.8</ele>
        <time>2025-09-06T10:00:52Z</time>
      </trkpt>
      <trkpt lat="46.09837" lon="4.53029">
        <ele>705.8</ele>
        <time>2025-09-06T10:00:53Z</time>
      </trkpt>
      <trkpt lat="46.09837" lon="4.53028">
        <ele>705.8</ele>
        <time>2025-09-06T10:00:54Z</time>
      </trkpt>
      <trkpt lat="46.09837" lon="4.53028">
        <ele>705.8</ele>
        <time>2025-09-06T10:00:55Z</time>
      </trkpt>
      <trkpt lat="46.09837" lon="4.53028">
        <ele>705.8</ele>
        <time>2025-09-06T10:00:56Z</time>
      </trkpt>
      <trkpt lat="46.09839" lon="4.53026">
        <ele>706</ele>
        <time>2025-09-06T10:01:05Z</time>
      </trkpt>
      <trkpt lat="46.09841" lon="4.53025">
        <ele>706.2</ele>
        <time>2025-09-06T10:01:06Z</time>
      </trkpt>
      <trkpt lat="46.09842" lon="4.53023">
        <ele>706.2</ele>
        <time>2025-09-06T10:01:07Z</time>
      </trkpt>
      <trkpt lat="46.09844" lon="4.53021">
        <ele>706.2</ele>
        <time>2025-09-06T10:01:08Z</time>
      </trkpt>
      <trkpt lat="46.09846" lon="4.53019">
        <ele>706.2</ele>
        <time>2025-09-06T10:01:09Z</time>
      </trkpt>
      <trkpt lat="46.09848" lon="4.53018">
        <ele>706.2</ele>
        <time>2025-09-06T10:01:10Z</time>
      </trkpt>
      <trkpt lat="46.0985" lon="4.53017">
        <ele>706.2</ele>
        <time>2025-09-06T10:01:11Z</time>
      </trkpt>
      <trkpt lat="46.09852" lon="4.53015">
        <ele>706.2</ele>
        <time>2025-09-06T10:01:12Z</time>
      </trkpt>
      <trkpt lat="46.09854" lon="4.53013">
        <ele>706.6</ele>
        <time>2025-09-06T10:01:13Z</time>
      </trkpt>
      <trkpt lat="46.09856" lon="4.53011">
        <ele>706.6</ele>
        <time>2025-09-06T10:01:14Z</time>
      </trkpt>
      <trkpt lat="46.09858" lon="4.53009">
        <ele>706.2</ele>
        <time>2025-09-06T10:01:15Z</time>
      </trkpt>
      <trkpt lat="46.0986" lon="4.53006">
        <ele>706</ele>
        <time>2025-09-06T10:01:16Z</time>
      </trkpt>
      <trkpt lat="46.09862" lon="4.53004">
        <ele>706</ele>
        <time>2025-09-06T10:01:17Z</time>
      </trkpt>
      <trkpt lat="46.09865" lon="4.53002">
        <ele>706</ele>
        <time>2025-09-06T10:01:18Z</time>
      </trkpt>
      <trkpt lat="46.09867" lon="4.52999">
        <ele>705.8</ele>
        <time>2025-09-06T10:01:19Z</time>
      </trkpt>
      <trkpt lat="46.0987" lon="4.52996">
        <ele>705.8</ele>
        <time>2025-09-06T10:01:20Z</time>
      </trkpt>
      <trkpt lat="46.09872" lon="4.52993">
        <ele>705.6</ele>
        <time>2025-09-06T10:01:21Z</time>
      </trkpt>
      <trkpt lat="46.09874" lon="4.5299">
        <ele>705.6</ele>
        <time>2025-09-06T10:01:22Z</time>
      </trkpt>
      <trkpt lat="46.09876" lon="4.52987">
        <ele>705.6</ele>
        <time>2025-09-06T10:01:23Z</time>
      </trkpt>
      <trkpt lat="46.09878" lon="4.52985">
        <ele>705.6</ele>
        <time>2025-09-06T10:01:24Z</time>
      </trkpt>
      <trkpt lat="46.0988" lon="4.52982">
        <ele>705.6</ele>
        <time>2025-09-06T10:01:25Z</time>
      </trkpt>
      <trkpt lat="46.09882" lon="4.52979">
        <ele>705.6</ele>
        <time>2025-09-06T10:01:26Z</time>
      </trkpt>
      <trkpt lat="46.09884" lon="4.52975">
        <ele>705.6</ele>
        <time>2025-09-06T10:01:27Z</time>
      </trkpt>
      <trkpt lat="46.09886" lon="4.5297">
        <ele>705.6</ele>
        <time>2025-09-06T10:01:28Z</time>
      </trkpt>
      <trkpt lat="46.09889" lon="4.52966">
        <ele>705.4</ele>
        <time>2025-09-06T10:01:29Z</time>
      </trkpt>
      <trkpt lat="46.09891" lon="4.52962">
        <ele>705.4</ele>
        <time>2025-09-06T10:01:30Z</time>
      </trkpt>
      <trkpt lat="46.09894" lon="4.52957">
        <ele>705.4</ele>
        <time>2025-09-06T10:01:31Z</time>
      </trkpt>
      <trkpt lat="46.09896" lon="4.52953">
        <ele>705.4</ele>
        <time>2025-09-06T10:01:32Z</time>
      </trkpt>
      <trkpt lat="46.09898" lon="4.52948">
        <ele>705.4</ele>
        <time>2025-09-06T10:01:33Z</time>
      </trkpt>
      <trkpt lat="46.099" lon="4.52944">
        <ele>705.2</ele>
        <time>2025-09-06T10:01:34Z</time>
      </trkpt>
      <trkpt lat="46.09902" lon="4.5294">
        <ele>705.2</ele>
        <time>2025-09-06T10:01:35Z</time>
      </trkpt>
      <trkpt lat="46.09904" lon="4.52936">
        <ele>705.2</ele>
        <time>2025-09-06T10:01:36Z</time>
      </trkpt>
      <trkpt lat="46.09906" lon="4.52932">
        <ele>705.4</ele>
        <time>2025-09-06T10:01:37Z</time>
      </trkpt>
      <trkpt lat="46.09908" lon="4.52928">
        <ele>705.6</ele>
        <time>2025-09-06T10:01:38Z</time>
      </trkpt>
      <trkpt lat="46.0991" lon="4.52924">
        <ele>705.6</ele>
        <time>2025-09-06T10:01:39Z</time>
      </trkpt>
      <trkpt lat="46.09911" lon="4.5292">
        <ele>706</ele>
        <time>2025-09-06T10:01:40Z</time>
      </trkpt>
      <trkpt lat="46.09913" lon="4.52916">
        <ele>706.2</ele>
        <time>2025-09-06T10:01:41Z</time>
      </trkpt>
      <trkpt lat="46.09914" lon="4.52912">
        <ele>706.2</ele>
        <time>2025-09-06T10:01:42Z</time>
      </trkpt>
      <trkpt lat="46.09915" lon="4.52908">
        <ele>706.6</ele>
        <time>2025-09-06T10:01:43Z</time>
      </trkpt>
      <trkpt lat="46.09916" lon="4.52904">
        <ele>706.6</ele>
        <time>2025-09-06T10:01:44Z</time>
      </trkpt>
      <trkpt lat="46.09918" lon="4.529">
        <ele>706.8</ele>
        <time>2025-09-06T10:01:45Z</time>
      </trkpt>
      <trkpt lat="46.09919" lon="4.52897">
        <ele>707.2</ele>
        <time>2025-09-06T10:01:46Z</time>
      </trkpt>
      <trkpt lat="46.0992" lon="4.52893">
        <ele>707.2</ele>
        <time>2025-09-06T10:01:47Z</time>
      </trkpt>
      <trkpt lat="46.09922" lon="4.5289">
        <ele>707.2</ele>
        <time>2025-09-06T10:01:48Z</time>
      </trkpt>
      <trkpt lat="46.09923" lon="4.52886">
        <ele>707.2</ele>
        <time>2025-09-06T10:01:49Z</time>
      </trkpt>
      <trkpt lat="46.09925" lon="4.52882">
        <ele>707.6</ele>
        <time>2025-09-06T10:01:50Z</time>
      </trkpt>
      <trkpt lat="46.09926" lon="4.52878">
        <ele>707.6</ele>
        <time>2025-09-06T10:01:51Z</time>
      </trkpt>
      <trkpt lat="46.09928" lon="4.52874">
        <ele>707.6</ele>
        <time>2025-09-06T10:01:52Z</time>
      </trkpt>
      <trkpt lat="46.09929" lon="4.5287">
        <ele>707.6</ele>
        <time>2025-09-06T10:01:53Z</time>
      </trkpt>
      <trkpt lat="46.09931" lon="4.52866">
        <ele>708</ele>
        <time>2025-09-06T10:01:54Z</time>
      </trkpt>
      <trkpt lat="46.09933" lon="4.52863">
        <ele>708</ele>
        <time>2025-09-06T10:01:55Z</time>
      </trkpt>
      <trkpt lat="46.09934" lon="4.52859">
        <ele>708.4</ele>
        <time>2025-09-06T10:01:56Z</time>
      </trkpt>
      <trkpt lat="46.09936" lon="4.52855">
        <ele>708.4</ele>
        <time>2025-09-06T10:01:57Z</time>
      </trkpt>
      <trkpt lat="46.09938" lon="4.52851">
        <ele>708.6</ele>
        <time>2025-09-06T10:01:58Z</time>
      </trkpt>
      <trkpt lat="46.09939" lon="4.52847">
        <ele>708.6</ele>
        <time>2025-09-06T10:01:59Z</time>
      </trkpt>
      <trkpt lat="46.0994" lon="4.52843">
        <ele>708.8</ele>
        <time>2025-09-06T10:02:00Z</time>
      </trkpt>
      <trkpt lat="46.09942" lon="4.5284">
        <ele>708.8</ele>
        <time>2025-09-06T10:02:01Z</time>
      </trkpt>
      <trkpt lat="46.09944" lon="4.52836">
        <ele>709</ele>
        <time>2025-09-06T10:02:02Z</time>
      </trkpt>
      <trkpt lat="46.09945" lon="4.52833">
        <ele>709</ele>
        <time>2025-09-06T10:02:03Z</time>
      </trkpt>
      <trkpt lat="46.09946" lon="4.5283">
        <ele>709.4</ele>
        <time>2025-09-06T10:02:04Z</time>
      </trkpt>
      <trkpt lat="46.09946" lon="4.5283">
        <ele>709.4</ele>
        <time>2025-09-06T10:02:05Z</time>
      </trkpt>
      <trkpt lat="46.09948" lon="4.52827">
        <ele>709.6</ele>
        <time>2025-09-06T10:02:06Z</time>
      </trkpt>
      <trkpt lat="46.09949" lon="4.52824">
        <ele>709.8</ele>
        <time>2025-09-06T10:02:07Z</time>
      </trkpt>
      <trkpt lat="46.0995" lon="4.52822">
        <ele>710</ele>
        <time>2025-09-06T10:02:08Z</time>
      </trkpt>
      <trkpt lat="46.09951" lon="4.5282">
        <ele>710</ele>
        <time>2025-09-06T10:02:09Z</time>
      </trkpt>
      <trkpt lat="46.09952" lon="4.52818">
        <ele>710</ele>
        <time>2025-09-06T10:02:10Z</time>
      </trkpt>
      <trkpt lat="46.09953" lon="4.52816">
        <ele>710.4</ele>
        <time>2025-09-06T10:02:11Z</time>
      </trkpt>
      <trkpt lat="46.09954" lon="4.52813">
        <ele>710.6</ele>
        <time>2025-09-06T10:02:12Z</time>
      </trkpt>
      <trkpt lat="46.09955" lon="4.52811">
        <ele>710.6</ele>
        <time>2025-09-06T10:02:13Z</time>
      </trkpt>
      <trkpt lat="46.09956" lon="4.5281">
        <ele>710.8</ele>
        <time>2025-09-06T10:02:14Z</time>
      </trkpt>
      <trkpt lat="46.09958" lon="4.52808">
        <ele>711.4</ele>
        <time>2025-09-06T10:02:15Z</time>
      </trkpt>
      <trkpt lat="46.09959" lon="4.52806">
        <ele>711.4</ele>
        <time>2025-09-06T10:02:16Z</time>
      </trkpt>
      <trkpt lat="46.0996" lon="4.52804">
        <ele>711.4</ele>
        <time>2025-09-06T10:02:17Z</time>
      </trkpt>
      <trkpt lat="46.09961" lon="4.52803">
        <ele>711.4</ele>
        <time>2025-09-06T10:02:18Z</time>
      </trkpt>
      <trkpt lat="46.09962" lon="4.52802">
        <ele>711.4</ele>
        <time>2025-09-06T10:02:19Z</time>
      </trkpt>
      <trkpt lat="46.09963" lon="4.52801">
        <ele>711.4</ele>
        <time>2025-09-06T10:02:20Z</time>
      </trkpt>
      <trkpt lat="46.09964" lon="4.52799">
        <ele>711.8</ele>
        <time>2025-09-06T10:02:21Z</time>
      </trkpt>
      <trkpt lat="46.09965" lon="4.52798">
        <ele>711.8</ele>
        <time>2025-09-06T10:02:22Z</time>
      </trkpt>
      <trkpt lat="46.09966" lon="4.52797">
        <ele>711.8</ele>
        <time>2025-09-06T10:02:23Z</time>
      </trkpt>
      <trkpt lat="46.09967" lon="4.52795">
        <ele>712</ele>
        <time>2025-09-06T10:02:24Z</time>
      </trkpt>
      <trkpt lat="46.09968" lon="4.52793">
        <ele>712</ele>
        <time>2025-09-06T10:02:25Z</time>
      </trkpt>
      <trkpt lat="46.09969" lon="4.52791">
        <ele>712.4</ele>
        <time>2025-09-06T10:02:26Z</time>
      </trkpt>
      <trkpt lat="46.09969" lon="4.52789">
        <ele>712.4</ele>
        <time>2025-09-06T10:02:27Z</time>
      </trkpt>
      <trkpt lat="46.0997" lon="4.52786">
        <ele>712.4</ele>
        <time>2025-09-06T10:02:28Z</time>
      </trkpt>
      <trkpt lat="46.09971" lon="4.52784">
        <ele>712.6</ele>
        <time>2025-09-06T10:02:29Z</time>
      </trkpt>
      <trkpt lat="46.09972" lon="4.52782">
        <ele>712.8</ele>
        <time>2025-09-06T10:02:30Z</time>
      </trkpt>
      <trkpt lat="46.09972" lon="4.52781">
        <ele>713.2</ele>
        <time>2025-09-06T10:02:31Z</time>
      </trkpt>
      <trkpt lat="46.09973" lon="4.52779">
        <ele>713.6</ele>
        <time>2025-09-06T10:02:32Z</time>
      </trkpt>
      <trkpt lat="46.09974" lon="4.52777">
        <ele>713.6</ele>
        <time>2025-09-06T10:02:33Z</time>
      </trkpt>
      <trkpt lat="46.09974" lon="4.52773">
        <ele>714</ele>
        <time>2025-09-06T10:02:34Z</time>
      </trkpt>
      <trkpt lat="46.09975" lon="4.52772">
        <ele>714.2</ele>
        <time>2025-09-06T10:02:35Z</time>
      </trkpt>
      <trkpt lat="46.09975" lon="4.5277">
        <ele>714.6</ele>
        <time>2025-09-06T10:02:36Z</time>
      </trkpt>
      <trkpt lat="46.09975" lon="4.52769">
        <ele>714.8</ele>
        <time>2025-09-06T10:02:37Z</time>
      </trkpt>
      <trkpt lat="46.09976" lon="4.52767">
        <ele>715</ele>
        <time>2025-09-06T10:02:38Z</time>
      </trkpt>
      <trkpt lat="46.09977" lon="4.52766">
        <ele>715</ele>
        <time>2025-09-06T10:02:39Z</time>
      </trkpt>
      <trkpt lat="46.09978" lon="4.52766">
        <ele>715</ele>
        <time>2025-09-06T10:02:40Z</time>
      </trkpt>
      <trkpt lat="46.09979" lon="4.52765">
        <ele>715.4</ele>
        <time>2025-09-06T10:02:41Z</time>
      </trkpt>
      <trkpt lat="46.0998" lon="4.52765">
        <ele>715.4</ele>
        <time>2025-09-06T10:02:42Z</time>
      </trkpt>
      <trkpt lat="46.09981" lon="4.52763">
        <ele>715.4</ele>
        <time>2025-09-06T10:02:43Z</time>
      </trkpt>
      <trkpt lat="46.09981" lon="4.52762">
        <ele>715.6</ele>
        <time>2025-09-06T10:02:44Z</time>
      </trkpt>
      <trkpt lat="46.09982" lon="4.52761">
        <ele>715.6</ele>
        <time>2025-09-06T10:02:45Z</time>
      </trkpt>
      <trkpt lat="46.09982" lon="4.52759">
        <ele>715.8</ele>
        <time>2025-09-06T10:02:46Z</time>
      </trkpt>
      <trkpt lat="46.09983" lon="4.52758">
        <ele>715.8</ele>
        <time>2025-09-06T10:02:47Z</time>
      </trkpt>
      <trkpt lat="46.09984" lon="4.52757">
        <ele>716</ele>
        <time>2025-09-06T10:02:48Z</time>
      </trkpt>
      <trkpt lat="46.09984" lon="4.52755">
        <ele>716.4</ele>
        <time>2025-09-06T10:02:49Z</time>
      </trkpt>
      <trkpt lat="46.09984" lon="4.52754">
        <ele>716.4</ele>
        <time>2025-09-06T10:02:50Z</time>
      </trkpt>
      <trkpt lat="46.09985" lon="4.52752">
        <ele>716.6</ele>
        <time>2025-09-06T10:02:51Z</time>
      </trkpt>
      <trkpt lat="46.09985" lon="4.5275">
        <ele>716.6</ele>
        <time>2025-09-06T10:02:52Z</time>
      </trkpt>
      <trkpt lat="46.09986" lon="4.52749">
        <ele>716.8</ele>
        <time>2025-09-06T10:02:53Z</time>
      </trkpt>
      <trkpt lat="46.09987" lon="4.52748">
        <ele>716.8</ele>
        <time>2025-09-06T10:02:54Z</time>
      </trkpt>
      <trkpt lat="46.09987" lon="4.52747">
        <ele>716.8</ele>
        <time>2025-09-06T10:02:55Z</time>
      </trkpt>
      <trkpt lat="46.09989" lon="4.52746">
        <ele>717.4</ele>
        <time>2025-09-06T10:02:56Z</time>
      </trkpt>
      <trkpt lat="46.0999" lon="4.52745">
        <ele>717.6</ele>
        <time>2025-09-06T10:02:57Z</time>
      </trkpt>
      <trkpt lat="46.09991" lon="4.52744">
        <ele>717.8</ele>
        <time>2025-09-06T10:02:58Z</time>
      </trkpt>
      <trkpt lat="46.09992" lon="4.52743">
        <ele>718</ele>
        <time>2025-09-06T10:02:59Z</time>
      </trkpt>
      <trkpt lat="46.09992" lon="4.52742">
        <ele>718.2</ele>
        <time>2025-09-06T10:03:00Z</time>
      </trkpt>
      <trkpt lat="46.09993" lon="4.52741">
        <ele>718.2</ele>
        <time>2025-09-06T10:03:01Z</time>
      </trkpt>
      <trkpt lat="46.09993" lon="4.5274">
        <ele>718.8</ele>
        <time>2025-09-06T10:03:02Z</time>
      </trkpt>
      <trkpt lat="46.09994" lon="4.52739">
        <ele>719</ele>
        <time>2025-09-06T10:03:03Z</time>
      </trkpt>
      <trkpt lat="46.09994" lon="4.52737">
        <ele>719.6</ele>
        <time>2025-09-06T10:03:04Z</time>
      </trkpt>
      <trkpt lat="46.09994" lon="4.52735">
        <ele>719.8</ele>
        <time>2025-09-06T10:03:05Z</time>
      </trkpt>
      <trkpt lat="46.09994" lon="4.52733">
        <ele>719.8</ele>
        <time>2025-09-06T10:03:06Z</time>
      </trkpt>
      <trkpt lat="46.09995" lon="4.52732">
        <ele>720.2</ele>
        <time>2025-09-06T10:03:07Z</time>
      </trkpt>
      <trkpt lat="46.09995" lon="4.52731">
        <ele>720.4</ele>
        <time>2025-09-06T10:03:08Z</time>
      </trkpt>
      <trkpt lat="46.09996" lon="4.5273">
        <ele>720.4</ele>
        <time>2025-09-06T10:03:09Z</time>
      </trkpt>
      <trkpt lat="46.09996" lon="4.52729">
        <ele>720.4</ele>
        <time>2025-09-06T10:03:10Z</time>
      </trkpt>
      <trkpt lat="46.09997" lon="4.52727">
        <ele>720.8</ele>
        <time>2025-09-06T10:03:11Z</time>
      </trkpt>
      <trkpt lat="46.09998" lon="4.52725">
        <ele>721.2</ele>
        <time>2025-09-06T10:03:12Z</time>
      </trkpt>
      <trkpt lat="46.09998" lon="4.52724">
        <ele>721.2</ele>
        <time>2025-09-06T10:03:13Z</time>
      </trkpt>
      <trkpt lat="46.09999" lon="4.52723">
        <ele>721.4</ele>
        <time>2025-09-06T10:03:14Z</time>
      </trkpt>
      <trkpt lat="46.09999" lon="4.52721">
        <ele>721.4</ele>
        <time>2025-09-06T10:03:15Z</time>
      </trkpt>
      <trkpt lat="46.1" lon="4.5272">
        <ele>721.6</ele>
        <time>2025-09-06T10:03:16Z</time>
      </trkpt>
      <trkpt lat="46.1" lon="4.52719">
        <ele>721.6</ele>
        <time>2025-09-06T10:03:17Z</time>
      </trkpt>
      <trkpt lat="46.1" lon="4.52718">
        <ele>721.6</ele>
        <time>2025-09-06T10:03:18Z</time>
      </trkpt>
      <trkpt lat="46.10001" lon="4.52717">
        <ele>722</ele>
        <time>2025-09-06T10:03:19Z</time>
      </trkpt>
      <trkpt lat="46.10002" lon="4.52715">
        <ele>722</ele>
        <time>2025-09-06T10:03:20Z</time>
      </trkpt>
      <trkpt lat="46.10002" lon="4.52714">
        <ele>722.2</ele>
        <time>2025-09-06T10:03:21Z</time>
      </trkpt>
      <trkpt lat="46.10003" lon="4.52712">
        <ele>722.2</ele>
        <time>2025-09-06T10:03:22Z</time>
      </trkpt>
      <trkpt lat="46.10003" lon="4.52711">
        <ele>722.6</ele>
        <time>2025-09-06T10:03:23Z</time>
      </trkpt>
      <trkpt lat="46.10003" lon="4.52709">
        <ele>722.6</ele>
        <time>2025-09-06T10:03:24Z</time>
      </trkpt>
      <trkpt lat="46.10003" lon="4.52708">
        <ele>722.6</ele>
        <time>2025-09-06T10:03:25Z</time>
      </trkpt>
      <trkpt lat="46.10004" lon="4.52706">
        <ele>723</ele>
        <time>2025-09-06T10:03:26Z</time>
      </trkpt>
      <trkpt lat="46.10004" lon="4.52704">
        <ele>723</ele>
        <time>2025-09-06T10:03:27Z</time>
      </trkpt>
      <trkpt lat="46.10005" lon="4.52703">
        <ele>723.4</ele>
        <time>2025-09-06T10:03:28Z</time>
      </trkpt>
      <trkpt lat="46.10005" lon="4.52702">
        <ele>723.8</ele>
        <time>2025-09-06T10:03:29Z</time>
      </trkpt>
      <trkpt lat="46.10006" lon="4.52701">
        <ele>723.8</ele>
        <time>2025-09-06T10:03:30Z</time>
      </trkpt>
      <trkpt lat="46.10007" lon="4.527">
        <ele>723.8</ele>
        <time>2025-09-06T10:03:31Z</time>
      </trkpt>
      <trkpt lat="46.10008" lon="4.52699">
        <ele>724.2</ele>
        <time>2025-09-06T10:03:32Z</time>
      </trkpt>
      <trkpt lat="46.10008" lon="4.52697">
        <ele>724.4</ele>
        <time>2025-09-06T10:03:33Z</time>
      </trkpt>
      <trkpt lat="46.10009" lon="4.52695">
        <ele>724.4</ele>
        <time>2025-09-06T10:03:34Z</time>
      </trkpt>
      <trkpt lat="46.10009" lon="4.52693">
        <ele>724.8</ele>
        <time>2025-09-06T10:03:35Z</time>
      </trkpt>
      <trkpt lat="46.10008" lon="4.52692">
        <ele>724.8</ele>
        <time>2025-09-06T10:03:36Z</time>
      </trkpt>
      <trkpt lat="46.10008" lon="4.5269">
        <ele>724.8</ele>
        <time>2025-09-06T10:03:37Z</time>
      </trkpt>
      <trkpt lat="46.10008" lon="4.52689">
        <ele>725.2</ele>
        <time>2025-09-06T10:03:38Z</time>
      </trkpt>
      <trkpt lat="46.10009" lon="4.52688">
        <ele>725.6</ele>
        <time>2025-09-06T10:03:39Z</time>
      </trkpt>
      <trkpt lat="46.10009" lon="4.52687">
        <ele>725.6</ele>
        <time>2025-09-06T10:03:40Z</time>
      </trkpt>
      <trkpt lat="46.1001" lon="4.52687">
        <ele>725.6</ele>
        <time>2025-09-06T10:03:41Z</time>
      </trkpt>
      <trkpt lat="46.10011" lon="4.52686">
        <ele>725.6</ele>
        <time>2025-09-06T10:03:42Z</time>
      </trkpt>
      <trkpt lat="46.10011" lon="4.52685">
        <ele>725.8</ele>
        <time>2025-09-06T10:03:43Z</time>
      </trkpt>
      <trkpt lat="46.10011" lon="4.52683">
        <ele>726</ele>
        <time>2025-09-06T10:03:44Z</time>
      </trkpt>
      <trkpt lat="46.10011" lon="4.52682">
        <ele>726</ele>
        <time>2025-09-06T10:03:45Z</time>
      </trkpt>
      <trkpt lat="46.10011" lon="4.52681">
        <ele>726.4</ele>
        <time>2025-09-06T10:03:46Z</time>
      </trkpt>
      <trkpt lat="46.10012" lon="4.5268">
        <ele>726.4</ele>
        <time>2025-09-06T10:03:47Z</time>
      </trkpt>
      <trkpt lat="46.10013" lon="4.52679">
        <ele>727</ele>
        <time>2025-09-06T10:03:48Z</time>
      </trkpt>
      <trkpt lat="46.10013" lon="4.52678">
        <ele>727.2</ele>
        <time>2025-09-06T10:03:49Z</time>
      </trkpt>
      <trkpt lat="46.10014" lon="4.52677">
        <ele>727.2</ele>
        <time>2025-09-06T10:03:50Z</time>
      </trkpt>
      <trkpt lat="46.10015" lon="4.52675">
        <ele>727.4</ele>
        <time>2025-09-06T10:03:51Z</time>
      </trkpt>
      <trkpt lat="46.10016" lon="4.52674">
        <ele>727.4</ele>
        <time>2025-09-06T10:03:52Z</time>
      </trkpt>
      <trkpt lat="46.10016" lon="4.52673">
        <ele>727.8</ele>
        <time>2025-09-06T10:03:53Z</time>
      </trkpt>
      <trkpt lat="46.10016" lon="4.52672">
        <ele>728</ele>
        <time>2025-09-06T10:03:54Z</time>
      </trkpt>
      <trkpt lat="46.10017" lon="4.52671">
        <ele>728</ele>
        <time>2025-09-06T10:03:55Z</time>
      </trkpt>
      <trkpt lat="46.10017" lon="4.52669">
        <ele>728.4</ele>
        <time>2025-09-06T10:03:56Z</time>
      </trkpt>
      <trkpt lat="46.10017" lon="4.52667">
        <ele>728.6</ele>
        <time>2025-09-06T10:03:57Z</time>
      </trkpt>
      <trkpt lat="46.10017" lon="4.52666">
        <ele>728.8</ele>
        <time>2025-09-06T10:03:58Z</time>
      </trkpt>
      <trkpt lat="46.10017" lon="4.52664">
        <ele>728.8</ele>
        <time>2025-09-06T10:03:59Z</time>
      </trkpt>
      <trkpt lat="46.10017" lon="4.52663">
        <ele>728.8</ele>
        <time>2025-09-06T10:04:00Z</time>
      </trkpt>
      <trkpt lat="46.10017" lon="4.52661">
        <ele>728.8</ele>
        <time>2025-09-06T10:04:01Z</time>
      </trkpt>
      <trkpt lat="46.10018" lon="4.5266">
        <ele>729.2</ele>
        <time>2025-09-06T10:04:02Z</time>
      </trkpt>
      <trkpt lat="46.10018" lon="4.52659">
        <ele>729.2</ele>
        <time>2025-09-06T10:04:03Z</time>
      </trkpt>
      <trkpt lat="46.10019" lon="4.52658">
        <ele>729.4</ele>
        <time>2025-09-06T10:04:04Z</time>
      </trkpt>
      <trkpt lat="46.10019" lon="4.52658">
        <ele>729.8</ele>
        <time>2025-09-06T10:04:05Z</time>
      </trkpt>
      <trkpt lat="46.10019" lon="4.52657">
        <ele>730</ele>
        <time>2025-09-06T10:04:06Z</time>
      </trkpt>
      <trkpt lat="46.1002" lon="4.52655">
        <ele>730</ele>
        <time>2025-09-06T10:04:07Z</time>
      </trkpt>
      <trkpt lat="46.1002" lon="4.52654">
        <ele>730</ele>
        <time>2025-09-06T10:04:08Z</time>
      </trkpt>
      <trkpt lat="46.10021" lon="4.52653">
        <ele>730.4</ele>
        <time>2025-09-06T10:04:09Z</time>
      </trkpt>
      <trkpt lat="46.10022" lon="4.52651">
        <ele>730.6</ele>
        <time>2025-09-06T10:04:10Z</time>
      </trkpt>
      <trkpt lat="46.10022" lon="4.5265">
        <ele>730.6</ele>
        <time>2025-09-06T10:04:11Z</time>
      </trkpt>
      <trkpt lat="46.10024" lon="4.5265">
        <ele>730.6</ele>
        <time>2025-09-06T10:04:12Z</time>
      </trkpt>
      <trkpt lat="46.10025" lon="4.5265">
        <ele>730.6</ele>
        <time>2025-09-06T10:04:13Z</time>
      </trkpt>
      <trkpt lat="46.10026" lon="4.5265">
        <ele>731.2</ele>
        <time>2025-09-06T10:04:14Z</time>
      </trkpt>
      <trkpt lat="46.10026" lon="4.5265">
        <ele>731.2</ele>
        <time>2025-09-06T10:04:15Z</time>
      </trkpt>
      <trkpt lat="46.10026" lon="4.52649">
        <ele>731.2</ele>
        <time>2025-09-06T10:04:16Z</time>
      </trkpt>
      <trkpt lat="46.10026" lon="4.52646">
        <ele>731.4</ele>
        <time>2025-09-06T10:04:17Z</time>
      </trkpt>
      <trkpt lat="46.10026" lon="4.52644">
        <ele>731.4</ele>
        <time>2025-09-06T10:04:18Z</time>
      </trkpt>
      <trkpt lat="46.10026" lon="4.52642">
        <ele>731.8</ele>
        <time>2025-09-06T10:04:19Z</time>
      </trkpt>
      <trkpt lat="46.10026" lon="4.5264">
        <ele>731.8</ele>
        <time>2025-09-06T10:04:20Z</time>
      </trkpt>
      <trkpt lat="46.10026" lon="4.52638">
        <ele>731.8</ele>
        <time>2025-09-06T10:04:21Z</time>
      </trkpt>
      <trkpt lat="46.10027" lon="4.52637">
        <ele>731.8</ele>
        <time>2025-09-06T10:04:22Z</time>
      </trkpt>
      <trkpt lat="46.10027" lon="4.52635">
        <ele>732</ele>
        <time>2025-09-06T10:04:23Z</time>
      </trkpt>
      <trkpt lat="46.10028" lon="4.52634">
        <ele>732</ele>
        <time>2025-09-06T10:04:24Z</time>
      </trkpt>
      <trkpt lat="46.10028" lon="4.52632">
        <ele>732.2</ele>
        <time>2025-09-06T10:04:25Z</time>
      </trkpt>
      <trkpt lat="46.10028" lon="4.52631">
        <ele>732.4</ele>
        <time>2025-09-06T10:04:26Z</time>
      </trkpt>
      <trkpt lat="46.10028" lon="4.5263">
        <ele>732.4</ele>
        <time>2025-09-06T10:04:27Z</time>
      </trkpt>
      <trkpt lat="46.10029" lon="4.52629">
        <ele>732.4</ele>
        <time>2025-09-06T10:04:28Z</time>
      </trkpt>
      <trkpt lat="46.1003" lon="4.52628">
        <ele>732.8</ele>
        <time>2025-09-06T10:04:29Z</time>
      </trkpt>
      <trkpt lat="46.10031" lon="4.52627">
        <ele>732.8</ele>
        <time>2025-09-06T10:04:30Z</time>
      </trkpt>
      <trkpt lat="46.10031" lon="4.52627">
        <ele>732.8</ele>
        <time>2025-09-06T10:04:31Z</time>
      </trkpt>
      <trkpt lat="46.10032" lon="4.52626">
        <ele>733.4</ele>
        <time>2025-09-06T10:04:32Z</time>
      </trkpt>
      <trkpt lat="46.10033" lon="4.52624">
        <ele>733.6</ele>
        <time>2025-09-06T10:04:33Z</time>
      </trkpt>
      <trkpt lat="46.10033" lon="4.52623">
        <ele>734</ele>
        <time>2025-09-06T10:04:34Z</time>
      </trkpt>
      <trkpt lat="46.10034" lon="4.52622">
        <ele>734.2</ele>
        <time>2025-09-06T10:04:35Z</time>
      </trkpt>
      <trkpt lat="46.10033" lon="4.52621">
        <ele>734.2</ele>
        <time>2025-09-06T10:04:36Z</time>
      </trkpt>
      <trkpt lat="46.10033" lon="4.52619">
        <ele>734.2</ele>
        <time>2025-09-06T10:04:37Z</time>
      </trkpt>
      <trkpt lat="46.10033" lon="4.52617">
        <ele>734.6</ele>
        <time>2025-09-06T10:04:38Z</time>
      </trkpt>
      <trkpt lat="46.10033" lon="4.52615">
        <ele>734.6</ele>
        <time>2025-09-06T10:04:39Z</time>
      </trkpt>
      <trkpt lat="46.10033" lon="4.52614">
        <ele>734.8</ele>
        <time>2025-09-06T10:04:40Z</time>
      </trkpt>
      <trkpt lat="46.10034" lon="4.52613">
        <ele>734.8</ele>
        <time>2025-09-06T10:04:41Z</time>
      </trkpt>
      <trkpt lat="46.10034" lon="4.52611">
        <ele>735</ele>
        <time>2025-09-06T10:04:42Z</time>
      </trkpt>
      <trkpt lat="46.10035" lon="4.5261">
        <ele>735</ele>
        <time>2025-09-06T10:04:43Z</time>
      </trkpt>
      <trkpt lat="46.10036" lon="4.52608">
        <ele>735.4</ele>
        <time>2025-09-06T10:04:44Z</time>
      </trkpt>
      <trkpt lat="46.10037" lon="4.52608">
        <ele>735.4</ele>
        <time>2025-09-06T10:04:45Z</time>
      </trkpt>
      <trkpt lat="46.10037" lon="4.52606">
        <ele>735.8</ele>
        <time>2025-09-06T10:04:46Z</time>
      </trkpt>
      <trkpt lat="46.10038" lon="4.52604">
        <ele>735.8</ele>
        <time>2025-09-06T10:04:47Z</time>
      </trkpt>
      <trkpt lat="46.10039" lon="4.52602">
        <ele>736</ele>
        <time>2025-09-06T10:04:48Z</time>
      </trkpt>
      <trkpt lat="46.10039" lon="4.52601">
        <ele>736.4</ele>
        <time>2025-09-06T10:04:49Z</time>
      </trkpt>
      <trkpt lat="46.10039" lon="4.526">
        <ele>736.4</ele>
        <time>2025-09-06T10:04:50Z</time>
      </trkpt>
      <trkpt lat="46.1004" lon="4.52598">
        <ele>736.4</ele>
        <time>2025-09-06T10:04:51Z</time>
      </trkpt>
      <trkpt lat="46.1004" lon="4.52597">
        <ele>736.4</ele>
        <time>2025-09-06T10:04:52Z</time>
      </trkpt>
      <trkpt lat="46.1004" lon="4.52595">
        <ele>736.6</ele>
        <time>2025-09-06T10:04:53Z</time>
      </trkpt>
      <trkpt lat="46.1004" lon="4.52594">
        <ele>736.6</ele>
        <time>2025-09-06T10:04:54Z</time>
      </trkpt>
      <trkpt lat="46.1004" lon="4.52592">
        <ele>736.6</ele>
        <time>2025-09-06T10:04:55Z</time>
      </trkpt>
      <trkpt lat="46.1004" lon="4.52591">
        <ele>737</ele>
        <time>2025-09-06T10:04:56Z</time>
      </trkpt>
      <trkpt lat="46.1004" lon="4.52591">
        <ele>737</ele>
        <time>2025-09-06T10:04:57Z</time>
      </trkpt>
      <trkpt lat="46.1004" lon="4.5259">
        <ele>737.6</ele>
        <time>2025-09-06T10:04:58Z</time>
      </trkpt>
      <trkpt lat="46.10041" lon="4.52589">
        <ele>737.8</ele>
        <time>2025-09-06T10:04:59Z</time>
      </trkpt>
      <trkpt lat="46.10041" lon="4.52588">
        <ele>738.2</ele>
        <time>2025-09-06T10:05:00Z</time>
      </trkpt>
      <trkpt lat="46.10042" lon="4.52588">
        <ele>738.4</ele>
        <time>2025-09-06T10:05:01Z</time>
      </trkpt>
      <trkpt lat="46.10043" lon="4.52586">
        <ele>738.4</ele>
        <time>2025-09-06T10:05:02Z</time>
      </trkpt>
      <trkpt lat="46.10044" lon="4.52585">
        <ele>738.4</ele>
        <time>2025-09-06T10:05:03Z</time>
      </trkpt>
      <trkpt lat="46.10045" lon="4.52584">
        <ele>738.8</ele>
        <time>2025-09-06T10:05:04Z</time>
      </trkpt>
      <trkpt lat="46.10045" lon="4.52582">
        <ele>738.8</ele>
        <time>2025-09-06T10:05:05Z</time>
      </trkpt>
      <trkpt lat="46.10045" lon="4.5258">
        <ele>739.2</ele>
        <time>2025-09-06T10:05:06Z</time>
      </trkpt>
      <trkpt lat="46.10046" lon="4.52579">
        <ele>739.6</ele>
        <time>2025-09-06T10:05:07Z</time>
      </trkpt>
      <trkpt lat="46.10046" lon="4.52578">
        <ele>739.6</ele>
        <time>2025-09-06T10:05:08Z</time>
      </trkpt>
      <trkpt lat="46.10047" lon="4.52576">
        <ele>739.8</ele>
        <time>2025-09-06T10:05:09Z</time>
      </trkpt>
      <trkpt lat="46.10047" lon="4.52574">
        <ele>739.8</ele>
        <time>2025-09-06T10:05:10Z</time>
      </trkpt>
      <trkpt lat="46.10047" lon="4.52573">
        <ele>739.8</ele>
        <time>2025-09-06T10:05:11Z</time>
      </trkpt>
      <trkpt lat="46.10047" lon="4.52571">
        <ele>740.2</ele>
        <time>2025-09-06T10:05:12Z</time>
      </trkpt>
      <trkpt lat="46.10047" lon="4.5257">
        <ele>740.2</ele>
        <time>2025-09-06T10:05:13Z</time>
      </trkpt>
      <trkpt lat="46.10048" lon="4.52569">
        <ele>740.6</ele>
        <time>2025-09-06T10:05:14Z</time>
      </trkpt>
      <trkpt lat="46.10049" lon="4.52568">
        <ele>740.6</ele>
        <time>2025-09-06T10:05:15Z</time>
      </trkpt>
      <trkpt lat="46.1005" lon="4.52566">
        <ele>741</ele>
        <time>2025-09-06T10:05:16Z</time>
      </trkpt>
      <trkpt lat="46.1005" lon="4.52564">
        <ele>741</ele>
        <time>2025-09-06T10:05:17Z</time>
      </trkpt>
      <trkpt lat="46.1005" lon="4.52563">
        <ele>741.4</ele>
        <time>2025-09-06T10:05:18Z</time>
      </trkpt>
      <trkpt lat="46.1005" lon="4.52562">
        <ele>741.4</ele>
        <time>2025-09-06T10:05:19Z</time>
      </trkpt>
      <trkpt lat="46.1005" lon="4.52561">
        <ele>741.4</ele>
        <time>2025-09-06T10:05:20Z</time>
      </trkpt>
      <trkpt lat="46.1005" lon="4.5256">
        <ele>741.8</ele>
        <time>2025-09-06T10:05:21Z</time>
      </trkpt>
      <trkpt lat="46.1005" lon="4.5256">
        <ele>741.8</ele>
        <time>2025-09-06T10:05:22Z</time>
      </trkpt>
      <trkpt lat="46.1005" lon="4.5256">
        <ele>742</ele>
        <time>2025-09-06T10:05:23Z</time>
      </trkpt>
      <trkpt lat="46.10052" lon="4.52559">
        <ele>742</ele>
        <time>2025-09-06T10:05:44Z</time>
      </trkpt>
      <trkpt lat="46.10053" lon="4.52558">
        <ele>742</ele>
        <time>2025-09-06T10:05:45Z</time>
      </trkpt>
      <trkpt lat="46.10053" lon="4.52558">
        <ele>742.4</ele>
        <time>2025-09-06T10:05:46Z</time>
      </trkpt>
      <trkpt lat="46.10053" lon="4.52556">
        <ele>742.6</ele>
        <time>2025-09-06T10:05:47Z</time>
      </trkpt>
      <trkpt lat="46.10054" lon="4.52555">
        <ele>742.8</ele>
        <time>2025-09-06T10:05:48Z</time>
      </trkpt>
      <trkpt lat="46.10054" lon="4.52554">
        <ele>742.8</ele>
        <time>2025-09-06T10:05:49Z</time>
      </trkpt>
      <trkpt lat="46.10054" lon="4.52554">
        <ele>743.2</ele>
        <time>2025-09-06T10:05:50Z</time>
      </trkpt>
      <trkpt lat="46.10054" lon="4.52552">
        <ele>743.4</ele>
        <time>2025-09-06T10:05:51Z</time>
      </trkpt>
      <trkpt lat="46.10055" lon="4.52551">
        <ele>743.6</ele>
        <time>2025-09-06T10:05:52Z</time>
      </trkpt>
      <trkpt lat="46.10055" lon="4.52552">
        <ele>743.6</ele>
        <time>2025-09-06T10:05:53Z</time>
      </trkpt>
      <trkpt lat="46.10055" lon="4.52552">
        <ele>743.8</ele>
        <time>2025-09-06T10:05:54Z</time>
      </trkpt>
      <trkpt lat="46.10055" lon="4.52552">
        <ele>743.8</ele>
        <time>2025-09-06T10:05:55Z</time>
      </trkpt>
      <trkpt lat="46.10056" lon="4.5255">
        <ele>744.2</ele>
        <time>2025-09-06T10:06:02Z</time>
      </trkpt>
      <trkpt lat="46.10056" lon="4.5255">
        <ele>744.2</ele>
        <time>2025-09-06T10:06:03Z</time>
      </trkpt>
      <trkpt lat="46.10056" lon="4.52549">
        <ele>744.2</ele>
        <time>2025-09-06T10:06:04Z</time>
      </trkpt>
      <trkpt lat="46.10056" lon="4.52548">
        <ele>744.4</ele>
        <time>2025-09-06T10:06:05Z</time>
      </trkpt>
      <trkpt lat="46.10056" lon="4.52545">
        <ele>744.4</ele>
        <time>2025-09-06T10:06:06Z</time>
      </trkpt>
      <trkpt lat="46.10056" lon="4.52544">
        <ele>744.4</ele>
        <time>2025-09-06T10:06:07Z</time>
      </trkpt>
      <trkpt lat="46.10056" lon="4.52543">
        <ele>744.6</ele>
        <time>2025-09-06T10:06:08Z</time>
      </trkpt>
      <trkpt lat="46.10056" lon="4.52542">
        <ele>744.8</ele>
        <time>2025-09-06T10:06:09Z</time>
      </trkpt>
      <trkpt lat="46.10056" lon="4.5254">
        <ele>744.8</ele>
        <time>2025-09-06T10:06:10Z</time>
      </trkpt>
      <trkpt lat="46.10056" lon="4.52539">
        <ele>745.2</ele>
        <time>2025-09-06T10:06:11Z</time>
      </trkpt>
      <trkpt lat="46.10056" lon="4.52539">
        <ele>745.2</ele>
        <time>2025-09-06T10:06:12Z</time>
      </trkpt>
      <trkpt lat="46.10056" lon="4.52538">
        <ele>745.2</ele>
        <time>2025-09-06T10:06:13Z</time>
      </trkpt>
      <trkpt lat="46.10056" lon="4.52537">
        <ele>745.4</ele>
        <time>2025-09-06T10:06:14Z</time>
      </trkpt>
      <trkpt lat="46.10056" lon="4.52536">
        <ele>745.4</ele>
        <time>2025-09-06T10:06:15Z</time>
      </trkpt>
      <trkpt lat="46.10056" lon="4.52535">
        <ele>745.8</ele>
        <time>2025-09-06T10:06:16Z</time>
      </trkpt>
      <trkpt lat="46.10056" lon="4.52534">
        <ele>746</ele>
        <time>2025-09-06T10:06:17Z</time>
      </trkpt>
      <trkpt lat="46.10056" lon="4.52532">
        <ele>746</ele>
        <time>2025-09-06T10:06:18Z</time>
      </trkpt>
      <trkpt lat="46.10056" lon="4.52531">
        <ele>746.2</ele>
        <time>2025-09-06T10:06:19Z</time>
      </trkpt>
      <trkpt lat="46.10056" lon="4.5253">
        <ele>746.4</ele>
        <time>2025-09-06T10:06:20Z</time>
      </trkpt>
      <trkpt lat="46.10056" lon="4.52529">
        <ele>746.4</ele>
        <time>2025-09-06T10:06:21Z</time>
      </trkpt>
      <trkpt lat="46.10057" lon="4.52528">
        <ele>746.8</ele>
        <time>2025-09-06T10:06:22Z</time>
      </trkpt>
      <trkpt lat="46.10057" lon="4.52527">
        <ele>747</ele>
        <time>2025-09-06T10:06:23Z</time>
      </trkpt>
      <trkpt lat="46.10057" lon="4.52527">
        <ele>747</ele>
        <time>2025-09-06T10:06:24Z</time>
      </trkpt>
      <trkpt lat="46.10057" lon="4.52525">
        <ele>747</ele>
        <time>2025-09-06T10:06:25Z</time>
      </trkpt>
      <trkpt lat="46.10057" lon="4.52524">
        <ele>747</ele>
        <time>2025-09-06T10:06:26Z</time>
      </trkpt>
      <trkpt lat="46.10057" lon="4.52523">
        <ele>747.2</ele>
        <time>2025-09-06T10:06:27Z</time>
      </trkpt>
      <trkpt lat="46.10057" lon="4.52522">
        <ele>747.2</ele>
        <time>2025-09-06T10:06:28Z</time>
      </trkpt>
      <trkpt lat="46.10057" lon="4.52521">
        <ele>747.6</ele>
        <time>2025-09-06T10:06:29Z</time>
      </trkpt>
      <trkpt lat="46.10058" lon="4.52519">
        <ele>747.6</ele>
        <time>2025-09-06T10:06:30Z</time>
      </trkpt>
      <trkpt lat="46.10058" lon="4.52517">
        <ele>747.8</ele>
        <time>2025-09-06T10:06:31Z</time>
      </trkpt>
      <trkpt lat="46.10058" lon="4.52515">
        <ele>748.2</ele>
        <time>2025-09-06T10:06:32Z</time>
      </trkpt>
      <trkpt lat="46.10058" lon="4.52514">
        <ele>748.2</ele>
        <time>2025-09-06T10:06:33Z</time>
      </trkpt>
      <trkpt lat="46.10059" lon="4.52513">
        <ele>748.6</ele>
        <time>2025-09-06T10:06:34Z</time>
      </trkpt>
      <trkpt lat="46.10059" lon="4.52512">
        <ele>748.6</ele>
        <time>2025-09-06T10:06:35Z</time>
      </trkpt>
      <trkpt lat="46.10059" lon="4.52512">
        <ele>748.6</ele>
        <time>2025-09-06T10:06:36Z</time>
      </trkpt>
      <trkpt lat="46.10059" lon="4.52511">
        <ele>749</ele>
        <time>2025-09-06T10:06:37Z</time>
      </trkpt>
      <trkpt lat="46.10059" lon="4.52509">
        <ele>749</ele>
        <time>2025-09-06T10:06:38Z</time>
      </trkpt>
      <trkpt lat="46.10058" lon="4.52508">
        <ele>749.2</ele>
        <time>2025-09-06T10:06:39Z</time>
      </trkpt>
      <trkpt lat="46.10058" lon="4.52507">
        <ele>749.4</ele>
        <time>2025-09-06T10:06:40Z</time>
      </trkpt>
      <trkpt lat="46.10058" lon="4.52506">
        <ele>750</ele>
        <time>2025-09-06T10:06:41Z</time>
      </trkpt>
      <trkpt lat="46.10058" lon="4.52506">
        <ele>750.2</ele>
        <time>2025-09-06T10:06:42Z</time>
      </trkpt>
      <trkpt lat="46.10058" lon="4.52505">
        <ele>750.2</ele>
        <time>2025-09-06T10:06:43Z</time>
      </trkpt>
      <trkpt lat="46.10057" lon="4.52503">
        <ele>750.6</ele>
        <time>2025-09-06T10:06:44Z</time>
      </trkpt>
      <trkpt lat="46.10057" lon="4.52502">
        <ele>751</ele>
        <time>2025-09-06T10:06:45Z</time>
      </trkpt>
      <trkpt lat="46.10057" lon="4.52501">
        <ele>751</ele>
        <time>2025-09-06T10:06:46Z</time>
      </trkpt>
      <trkpt lat="46.10058" lon="4.525">
        <ele>751.2</ele>
        <time>2025-09-06T10:06:47Z</time>
      </trkpt>
      <trkpt lat="46.10057" lon="4.52499">
        <ele>751.2</ele>
        <time>2025-09-06T10:06:48Z</time>
      </trkpt>
      <trkpt lat="46.10057" lon="4.52498">
        <ele>751.6</ele>
        <time>2025-09-06T10:06:49Z</time>
      </trkpt>
      <trkpt lat="46.10058" lon="4.52497">
        <ele>751.8</ele>
        <time>2025-09-06T10:06:50Z</time>
      </trkpt>
      <trkpt lat="46.10058" lon="4.52495">
        <ele>751.8</ele>
        <time>2025-09-06T10:06:51Z</time>
      </trkpt>
      <trkpt lat="46.10058" lon="4.52494">
        <ele>751.8</ele>
        <time>2025-09-06T10:06:52Z</time>
      </trkpt>
      <trkpt lat="46.10058" lon="4.52493">
        <ele>751.8</ele>
        <time>2025-09-06T10:06:53Z</time>
      </trkpt>
      <trkpt lat="46.10058" lon="4.52492">
        <ele>752.2</ele>
        <time>2025-09-06T10:06:54Z</time>
      </trkpt>
      <trkpt lat="46.10058" lon="4.52489">
        <ele>752.4</ele>
        <time>2025-09-06T10:06:55Z</time>
      </trkpt>
      <trkpt lat="46.10058" lon="4.52489">
        <ele>752.4</ele>
        <time>2025-09-06T10:06:56Z</time>
      </trkpt>
      <trkpt lat="46.10059" lon="4.52488">
        <ele>752.4</ele>
        <time>2025-09-06T10:06:57Z</time>
      </trkpt>
      <trkpt lat="46.10059" lon="4.52487">
        <ele>752.8</ele>
        <time>2025-09-06T10:06:58Z</time>
      </trkpt>
      <trkpt lat="46.10059" lon="4.52486">
        <ele>752.8</ele>
        <time>2025-09-06T10:06:59Z</time>
      </trkpt>
      <trkpt lat="46.10058" lon="4.52485">
        <ele>753</ele>
        <time>2025-09-06T10:07:00Z</time>
      </trkpt>
      <trkpt lat="46.10058" lon="4.52484">
        <ele>753.2</ele>
        <time>2025-09-06T10:07:01Z</time>
      </trkpt>
      <trkpt lat="46.10058" lon="4.52482">
        <ele>753.2</ele>
        <time>2025-09-06T10:07:02Z</time>
      </trkpt>
      <trkpt lat="46.10058" lon="4.52481">
        <ele>753.2</ele>
        <time>2025-09-06T10:07:03Z</time>
      </trkpt>
      <trkpt lat="46.10058" lon="4.5248">
        <ele>753.6</ele>
        <time>2025-09-06T10:07:04Z</time>
      </trkpt>
      <trkpt lat="46.10058" lon="4.52478">
        <ele>753.8</ele>
        <time>2025-09-06T10:07:05Z</time>
      </trkpt>
      <trkpt lat="46.10058" lon="4.52477">
        <ele>753.8</ele>
        <time>2025-09-06T10:07:06Z</time>
      </trkpt>
      <trkpt lat="46.10059" lon="4.52476">
        <ele>753.8</ele>
        <time>2025-09-06T10:07:07Z</time>
      </trkpt>
      <trkpt lat="46.10059" lon="4.52474">
        <ele>753.8</ele>
        <time>2025-09-06T10:07:08Z</time>
      </trkpt>
      <trkpt lat="46.10059" lon="4.52473">
        <ele>754.4</ele>
        <time>2025-09-06T10:07:09Z</time>
      </trkpt>
      <trkpt lat="46.10059" lon="4.52472">
        <ele>754.4</ele>
        <time>2025-09-06T10:07:10Z</time>
      </trkpt>
      <trkpt lat="46.10059" lon="4.52471">
        <ele>754.6</ele>
        <time>2025-09-06T10:07:11Z</time>
      </trkpt>
      <trkpt lat="46.10059" lon="4.52469">
        <ele>754.6</ele>
        <time>2025-09-06T10:07:12Z</time>
      </trkpt>
      <trkpt lat="46.10059" lon="4.52468">
        <ele>755</ele>
        <time>2025-09-06T10:07:13Z</time>
      </trkpt>
      <trkpt lat="46.10058" lon="4.52467">
        <ele>755.2</ele>
        <time>2025-09-06T10:07:14Z</time>
      </trkpt>
      <trkpt lat="46.10058" lon="4.52466">
        <ele>755.2</ele>
        <time>2025-09-06T10:07:15Z</time>
      </trkpt>
      <trkpt lat="46.10058" lon="4.52465">
        <ele>755.4</ele>
        <time>2025-09-06T10:07:16Z</time>
      </trkpt>
      <trkpt lat="46.10058" lon="4.52464">
        <ele>755.6</ele>
        <time>2025-09-06T10:07:17Z</time>
      </trkpt>
      <trkpt lat="46.10059" lon="4.52463">
        <ele>755.6</ele>
        <time>2025-09-06T10:07:18Z</time>
      </trkpt>
      <trkpt lat="46.10059" lon="4.52462">
        <ele>755.8</ele>
        <time>2025-09-06T10:07:19Z</time>
      </trkpt>
      <trkpt lat="46.10059" lon="4.5246">
        <ele>755.8</ele>
        <time>2025-09-06T10:07:20Z</time>
      </trkpt>
      <trkpt lat="46.1006" lon="4.52459">
        <ele>756.2</ele>
        <time>2025-09-06T10:07:21Z</time>
      </trkpt>
      <trkpt lat="46.10061" lon="4.52458">
        <ele>756.4</ele>
        <time>2025-09-06T10:07:22Z</time>
      </trkpt>
      <trkpt lat="46.10062" lon="4.52457">
        <ele>756.4</ele>
        <time>2025-09-06T10:07:23Z</time>
      </trkpt>
      <trkpt lat="46.10062" lon="4.52456">
        <ele>756.4</ele>
        <time>2025-09-06T10:07:24Z</time>
      </trkpt>
      <trkpt lat="46.10063" lon="4.52455">
        <ele>756.8</ele>
        <time>2025-09-06T10:07:25Z</time>
      </trkpt>
      <trkpt lat="46.10063" lon="4.52455">
        <ele>756.8</ele>
        <time>2025-09-06T10:07:26Z</time>
      </trkpt>
      <trkpt lat="46.10064" lon="4.52454">
        <ele>756.8</ele>
        <time>2025-09-06T10:07:27Z</time>
      </trkpt>
      <trkpt lat="46.10065" lon="4.52454">
        <ele>756.8</ele>
        <time>2025-09-06T10:07:28Z</time>
      </trkpt>
      <trkpt lat="46.10066" lon="4.52454">
        <ele>757.2</ele>
        <time>2025-09-06T10:07:29Z</time>
      </trkpt>
      <trkpt lat="46.10067" lon="4.52455">
        <ele>757.2</ele>
        <time>2025-09-06T10:07:30Z</time>
      </trkpt>
      <trkpt lat="46.10069" lon="4.52455">
        <ele>757.2</ele>
        <time>2025-09-06T10:07:31Z</time>
      </trkpt>
      <trkpt lat="46.1007" lon="4.52456">
        <ele>757.4</ele>
        <time>2025-09-06T10:07:32Z</time>
      </trkpt>
      <trkpt lat="46.10072" lon="4.52456">
        <ele>757.4</ele>
        <time>2025-09-06T10:07:33Z</time>
      </trkpt>
      <trkpt lat="46.10073" lon="4.52457">
        <ele>757.4</ele>
        <time>2025-09-06T10:07:34Z</time>
      </trkpt>
      <trkpt lat="46.10074" lon="4.52458">
        <ele>757.4</ele>
        <time>2025-09-06T10:07:35Z</time>
      </trkpt>
      <trkpt lat="46.10075" lon="4.52458">
        <ele>757.4</ele>
        <time>2025-09-06T10:07:36Z</time>
      </trkpt>
      <trkpt lat="46.10076" lon="4.52459">
        <ele>757.2</ele>
        <time>2025-09-06T10:07:37Z</time>
      </trkpt>
      <trkpt lat="46.10077" lon="4.5246">
        <ele>757.2</ele>
        <time>2025-09-06T10:07:38Z</time>
      </trkpt>
      <trkpt lat="46.10078" lon="4.52461">
        <ele>757.2</ele>
        <time>2025-09-06T10:07:39Z</time>
      </trkpt>
      <trkpt lat="46.10079" lon="4.52462">
        <ele>757.6</ele>
        <time>2025-09-06T10:07:40Z</time>
      </trkpt>
      <trkpt lat="46.1008" lon="4.52464">
        <ele>757.6</ele>
        <time>2025-09-06T10:07:41Z</time>
      </trkpt>
      <trkpt lat="46.1008" lon="4.52464">
        <ele>757.6</ele>
        <time>2025-09-06T10:07:42Z</time>
      </trkpt>
      <trkpt lat="46.10081" lon="4.52465">
        <ele>757.8</ele>
        <time>2025-09-06T10:07:43Z</time>
      </trkpt>
      <trkpt lat="46.10081" lon="4.52465">
        <ele>757.8</ele>
        <time>2025-09-06T10:07:44Z</time>
      </trkpt>
      <trkpt lat="46.10081" lon="4.52466">
        <ele>757.8</ele>
        <time>2025-09-06T10:07:45Z</time>
      </trkpt>
      <trkpt lat="46.10082" lon="4.52469">
        <ele>758</ele>
        <time>2025-09-06T10:07:49Z</time>
      </trkpt>
      <trkpt lat="46.10083" lon="4.5247">
        <ele>758</ele>
        <time>2025-09-06T10:07:50Z</time>
      </trkpt>
      <trkpt lat="46.10084" lon="4.52471">
        <ele>758</ele>
        <time>2025-09-06T10:07:51Z</time>
      </trkpt>
      <trkpt lat="46.10084" lon="4.52471">
        <ele>758</ele>
        <time>2025-09-06T10:07:52Z</time>
      </trkpt>
      <trkpt lat="46.10084" lon="4.52471">
        <ele>758</ele>
        <time>2025-09-06T10:07:53Z</time>
      </trkpt>
      <trkpt lat="46.10085" lon="4.52472">
        <ele>758</ele>
        <time>2025-09-06T10:07:54Z</time>
      </trkpt>
      <trkpt lat="46.10086" lon="4.52473">
        <ele>758.2</ele>
        <time>2025-09-06T10:07:55Z</time>
      </trkpt>
      <trkpt lat="46.10086" lon="4.52474">
        <ele>758.2</ele>
        <time>2025-09-06T10:07:56Z</time>
      </trkpt>
      <trkpt lat="46.10087" lon="4.52475">
        <ele>758.6</ele>
        <time>2025-09-06T10:07:57Z</time>
      </trkpt>
      <trkpt lat="46.10088" lon="4.52476">
        <ele>758.6</ele>
        <time>2025-09-06T10:07:58Z</time>
      </trkpt>
      <trkpt lat="46.10088" lon="4.52476">
        <ele>758.6</ele>
        <time>2025-09-06T10:07:59Z</time>
      </trkpt>
      <trkpt lat="46.10089" lon="4.52476">
        <ele>758.6</ele>
        <time>2025-09-06T10:08:00Z</time>
      </trkpt>
      <trkpt lat="46.10089" lon="4.52476">
        <ele>758.6</ele>
        <time>2025-09-06T10:08:01Z</time>
      </trkpt>
      <trkpt lat="46.10089" lon="4.52476">
        <ele>758.6</ele>
        <time>2025-09-06T10:08:02Z</time>
      </trkpt>
      <trkpt lat="46.10091" lon="4.52477">
        <ele>758.6</ele>
        <time>2025-09-06T10:09:06Z</time>
      </trkpt>
      <trkpt lat="46.10091" lon="4.52476">
        <ele>758.6</ele>
        <time>2025-09-06T10:09:07Z</time>
      </trkpt>
      <trkpt lat="46.10092" lon="4.52476">
        <ele>758.6</ele>
        <time>2025-09-06T10:09:08Z</time>
      </trkpt>
      <trkpt lat="46.10094" lon="4.52476">
        <ele>758.8</ele>
        <time>2025-09-06T10:09:21Z</time>
      </trkpt>
      <trkpt lat="46.10095" lon="4.52476">
        <ele>758.8</ele>
        <time>2025-09-06T10:09:22Z</time>
      </trkpt>
      <trkpt lat="46.10096" lon="4.52476">
        <ele>758.8</ele>
        <time>2025-09-06T10:09:23Z</time>
      </trkpt>
      <trkpt lat="46.10098" lon="4.52476">
        <ele>758.8</ele>
        <time>2025-09-06T10:09:24Z</time>
      </trkpt>
      <trkpt lat="46.101" lon="4.52476">
        <ele>758.6</ele>
        <time>2025-09-06T10:09:25Z</time>
      </trkpt>
      <trkpt lat="46.10101" lon="4.52476">
        <ele>758.6</ele>
        <time>2025-09-06T10:09:26Z</time>
      </trkpt>
      <trkpt lat="46.10102" lon="4.52476">
        <ele>758.6</ele>
        <time>2025-09-06T10:09:27Z</time>
      </trkpt>
      <trkpt lat="46.10103" lon="4.52476">
        <ele>758.2</ele>
        <time>2025-09-06T10:09:28Z</time>
      </trkpt>
      <trkpt lat="46.10105" lon="4.52476">
        <ele>758.2</ele>
        <time>2025-09-06T10:09:29Z</time>
      </trkpt>
      <trkpt lat="46.10106" lon="4.52477">
        <ele>758</ele>
        <time>2025-09-06T10:09:30Z</time>
      </trkpt>
      <trkpt lat="46.10108" lon="4.52477">
        <ele>758</ele>
        <time>2025-09-06T10:09:31Z</time>
      </trkpt>
      <trkpt lat="46.10111" lon="4.52478">
        <ele>758</ele>
        <time>2025-09-06T10:09:32Z</time>
      </trkpt>
      <trkpt lat="46.10115" lon="4.5248">
        <ele>758</ele>
        <time>2025-09-06T10:09:33Z</time>
      </trkpt>
      <trkpt lat="46.1012" lon="4.52483">
        <ele>757.4</ele>
        <time>2025-09-06T10:09:34Z</time>
      </trkpt>
      <trkpt lat="46.10125" lon="4.52487">
        <ele>757.2</ele>
        <time>2025-09-06T10:09:35Z</time>
      </trkpt>
      <trkpt lat="46.1013" lon="4.5249">
        <ele>756.6</ele>
        <time>2025-09-06T10:09:36Z</time>
      </trkpt>
      <trkpt lat="46.10135" lon="4.52494">
        <ele>756</ele>
        <time>2025-09-06T10:09:37Z</time>
      </trkpt>
      <trkpt lat="46.10142" lon="4.52497">
        <ele>755.4</ele>
        <time>2025-09-06T10:09:38Z</time>
      </trkpt>
      <trkpt lat="46.10149" lon="4.52501">
        <ele>754.6</ele>
        <time>2025-09-06T10:09:39Z</time>
      </trkpt>
      <trkpt lat="46.10156" lon="4.52506">
        <ele>753.8</ele>
        <time>2025-09-06T10:09:40Z</time>
      </trkpt>
      <trkpt lat="46.10162" lon="4.52508">
        <ele>753.4</ele>
        <time>2025-09-06T10:09:41Z</time>
      </trkpt>
      <trkpt lat="46.10169" lon="4.52513">
        <ele>753</ele>
        <time>2025-09-06T10:09:42Z</time>
      </trkpt>
      <trkpt lat="46.10178" lon="4.52519">
        <ele>752.2</ele>
        <time>2025-09-06T10:09:43Z</time>
      </trkpt>
      <trkpt lat="46.10187" lon="4.52521">
        <ele>751.4</ele>
        <time>2025-09-06T10:09:44Z</time>
      </trkpt>
      <trkpt lat="46.10192" lon="4.52524">
        <ele>750.4</ele>
        <time>2025-09-06T10:09:45Z</time>
      </trkpt>
      <trkpt lat="46.10201" lon="4.52525">
        <ele>749.2</ele>
        <time>2025-09-06T10:09:46Z</time>
      </trkpt>
      <trkpt lat="46.10209" lon="4.52528">
        <ele>748.4</ele>
        <time>2025-09-06T10:09:47Z</time>
      </trkpt>
      <trkpt lat="46.10219" lon="4.52532">
        <ele>747.8</ele>
        <time>2025-09-06T10:09:48Z</time>
      </trkpt>
      <trkpt lat="46.10228" lon="4.52536">
        <ele>747</ele>
        <time>2025-09-06T10:09:49Z</time>
      </trkpt>
      <trkpt lat="46.10235" lon="4.52539">
        <ele>746.4</ele>
        <time>2025-09-06T10:09:50Z</time>
      </trkpt>
      <trkpt lat="46.10244" lon="4.52545">
        <ele>745.6</ele>
        <time>2025-09-06T10:09:51Z</time>
      </trkpt>
      <trkpt lat="46.10252" lon="4.52551">
        <ele>744.8</ele>
        <time>2025-09-06T10:09:52Z</time>
      </trkpt>
      <trkpt lat="46.10259" lon="4.52558">
        <ele>744.4</ele>
        <time>2025-09-06T10:09:53Z</time>
      </trkpt>
      <trkpt lat="46.10267" lon="4.52563">
        <ele>743.8</ele>
        <time>2025-09-06T10:09:54Z</time>
      </trkpt>
      <trkpt lat="46.10273" lon="4.52571">
        <ele>743.2</ele>
        <time>2025-09-06T10:09:55Z</time>
      </trkpt>
      <trkpt lat="46.10281" lon="4.52578">
        <ele>742.8</ele>
        <time>2025-09-06T10:09:56Z</time>
      </trkpt>
      <trkpt lat="46.10288" lon="4.52585">
        <ele>742.4</ele>
        <time>2025-09-06T10:09:57Z</time>
      </trkpt>
      <trkpt lat="46.10296" lon="4.52593">
        <ele>742.2</ele>
        <time>2025-09-06T10:09:58Z</time>
      </trkpt>
      <trkpt lat="46.10303" lon="4.526">
        <ele>742.2</ele>
        <time>2025-09-06T10:09:59Z</time>
      </trkpt>
      <trkpt lat="46.1031" lon="4.52609">
        <ele>742.2</ele>
        <time>2025-09-06T10:10:00Z</time>
      </trkpt>
      <trkpt lat="46.10315" lon="4.52617">
        <ele>742.2</ele>
        <time>2025-09-06T10:10:01Z</time>
      </trkpt>
      <trkpt lat="46.10321" lon="4.52625">
        <ele>742.2</ele>
        <time>2025-09-06T10:10:02Z</time>
      </trkpt>
      <trkpt lat="46.10327" lon="4.52633">
        <ele>741.8</ele>
        <time>2025-09-06T10:10:03Z</time>
      </trkpt>
      <trkpt lat="46.10332" lon="4.52641">
        <ele>741.6</ele>
        <time>2025-09-06T10:10:04Z</time>
      </trkpt>
      <trkpt lat="46.10339" lon="4.52649">
        <ele>741.4</ele>
        <time>2025-09-06T10:10:05Z</time>
      </trkpt>
      <trkpt lat="46.10345" lon="4.52657">
        <ele>740.8</ele>
        <time>2025-09-06T10:10:06Z</time>
      </trkpt>
      <trkpt lat="46.10345" lon="4.52657">
        <ele>740.4</ele>
        <time>2025-09-06T10:10:07Z</time>
      </trkpt>
      <trkpt lat="46.10353" lon="4.52665">
        <ele>739.8</ele>
        <time>2025-09-06T10:10:08Z</time>
      </trkpt>
      <trkpt lat="46.10361" lon="4.52672">
        <ele>739.2</ele>
        <time>2025-09-06T10:10:09Z</time>
      </trkpt>
      <trkpt lat="46.10369" lon="4.52677">
        <ele>738.8</ele>
        <time>2025-09-06T10:10:10Z</time>
      </trkpt>
      <trkpt lat="46.10377" lon="4.52682">
        <ele>738.6</ele>
        <time>2025-09-06T10:10:11Z</time>
      </trkpt>
      <trkpt lat="46.10386" lon="4.52686">
        <ele>738.2</ele>
        <time>2025-09-06T10:10:12Z</time>
      </trkpt>
      <trkpt lat="46.10394" lon="4.52688">
        <ele>738.4</ele>
        <time>2025-09-06T10:10:13Z</time>
      </trkpt>
      <trkpt lat="46.10402" lon="4.5269">
        <ele>738.4</ele>
        <time>2025-09-06T10:10:14Z</time>
      </trkpt>
      <trkpt lat="46.1041" lon="4.5269">
        <ele>738.4</ele>
        <time>2025-09-06T10:10:15Z</time>
      </trkpt>
      <trkpt lat="46.10418" lon="4.5269">
        <ele>738</ele>
        <time>2025-09-06T10:10:16Z</time>
      </trkpt>
      <trkpt lat="46.10425" lon="4.52692">
        <ele>738.2</ele>
        <time>2025-09-06T10:10:17Z</time>
      </trkpt>
      <trkpt lat="46.10432" lon="4.52692">
        <ele>738.2</ele>
        <time>2025-09-06T10:10:18Z</time>
      </trkpt>
      <trkpt lat="46.10439" lon="4.52694">
        <ele>738.2</ele>
        <time>2025-09-06T10:10:19Z</time>
      </trkpt>
      <trkpt lat="46.10445" lon="4.52694">
        <ele>738.2</ele>
        <time>2025-09-06T10:10:20Z</time>
      </trkpt>
      <trkpt lat="46.10452" lon="4.52696">
        <ele>738.2</ele>
        <time>2025-09-06T10:10:21Z</time>
      </trkpt>
      <trkpt lat="46.10459" lon="4.52695">
        <ele>737.8</ele>
        <time>2025-09-06T10:10:22Z</time>
      </trkpt>
      <trkpt lat="46.10465" lon="4.52694">
        <ele>737.6</ele>
        <time>2025-09-06T10:10:23Z</time>
      </trkpt>
      <trkpt lat="46.10471" lon="4.52693">
        <ele>737.2</ele>
        <time>2025-09-06T10:10:24Z</time>
      </trkpt>
      <trkpt lat="46.10477" lon="4.52692">
        <ele>736.6</ele>
        <time>2025-09-06T10:10:25Z</time>
      </trkpt>
      <trkpt lat="46.10485" lon="4.52693">
        <ele>736.2</ele>
        <time>2025-09-06T10:10:26Z</time>
      </trkpt>
      <trkpt lat="46.10493" lon="4.52694">
        <ele>735.8</ele>
        <time>2025-09-06T10:10:27Z</time>
      </trkpt>
      <trkpt lat="46.105" lon="4.52696">
        <ele>735.4</ele>
        <time>2025-09-06T10:10:28Z</time>
      </trkpt>
      <trkpt lat="46.10507" lon="4.52699">
        <ele>735</ele>
        <time>2025-09-06T10:10:29Z</time>
      </trkpt>
      <trkpt lat="46.10515" lon="4.52702">
        <ele>734.8</ele>
        <time>2025-09-06T10:10:30Z</time>
      </trkpt>
      <trkpt lat="46.10523" lon="4.52705">
        <ele>734.8</ele>
        <time>2025-09-06T10:10:31Z</time>
      </trkpt>
      <trkpt lat="46.10539" lon="4.5271">
        <ele>734</ele>
        <time>2025-09-06T10:10:32Z</time>
      </trkpt>
      <trkpt lat="46.10547" lon="4.52713">
        <ele>733.4</ele>
        <time>2025-09-06T10:10:33Z</time>
      </trkpt>
      <trkpt lat="46.10556" lon="4.52716">
        <ele>733.4</ele>
        <time>2025-09-06T10:10:34Z</time>
      </trkpt>
      <trkpt lat="46.10564" lon="4.52718">
        <ele>733.4</ele>
        <time>2025-09-06T10:10:35Z</time>
      </trkpt>
      <trkpt lat="46.10573" lon="4.5272">
        <ele>732.6</ele>
        <time>2025-09-06T10:10:36Z</time>
      </trkpt>
      <trkpt lat="46.10582" lon="4.52721">
        <ele>732</ele>
        <time>2025-09-06T10:10:37Z</time>
      </trkpt>
      <trkpt lat="46.10591" lon="4.52722">
        <ele>730.6</ele>
        <time>2025-09-06T10:10:38Z</time>
      </trkpt>
      <trkpt lat="46.10599" lon="4.52722">
        <ele>730.6</ele>
        <time>2025-09-06T10:10:39Z</time>
      </trkpt>
      <trkpt lat="46.10606" lon="4.52722">
        <ele>730.6</ele>
        <time>2025-09-06T10:10:40Z</time>
      </trkpt>
      <trkpt lat="46.10614" lon="4.52723">
        <ele>730.6</ele>
        <time>2025-09-06T10:10:41Z</time>
      </trkpt>
      <trkpt lat="46.1062" lon="4.52723">
        <ele>730.8</ele>
        <time>2025-09-06T10:10:42Z</time>
      </trkpt>
      <trkpt lat="46.10625" lon="4.52723">
        <ele>730.8</ele>
        <time>2025-09-06T10:10:43Z</time>
      </trkpt>
      <trkpt lat="46.1063" lon="4.52724">
        <ele>730.8</ele>
        <time>2025-09-06T10:10:44Z</time>
      </trkpt>
      <trkpt lat="46.10634" lon="4.52725">
        <ele>731.2</ele>
        <time>2025-09-06T10:10:45Z</time>
      </trkpt>
      <trkpt lat="46.10637" lon="4.52724">
        <ele>731.6</ele>
        <time>2025-09-06T10:10:46Z</time>
      </trkpt>
      <trkpt lat="46.10639" lon="4.52725">
        <ele>731.8</ele>
        <time>2025-09-06T10:10:47Z</time>
      </trkpt>
      <trkpt lat="46.10641" lon="4.52724">
        <ele>732.4</ele>
        <time>2025-09-06T10:10:48Z</time>
      </trkpt>
      <trkpt lat="46.10643" lon="4.52724">
        <ele>732.8</ele>
        <time>2025-09-06T10:10:49Z</time>
      </trkpt>
      <trkpt lat="46.10645" lon="4.52724">
        <ele>732.8</ele>
        <time>2025-09-06T10:10:50Z</time>
      </trkpt>
      <trkpt lat="46.10647" lon="4.52724">
        <ele>733.2</ele>
        <time>2025-09-06T10:10:51Z</time>
      </trkpt>
      <trkpt lat="46.10649" lon="4.52724">
        <ele>733.6</ele>
        <time>2025-09-06T10:10:52Z</time>
      </trkpt>
      <trkpt lat="46.1065" lon="4.52725">
        <ele>733.8</ele>
        <time>2025-09-06T10:10:53Z</time>
      </trkpt>
      <trkpt lat="46.10652" lon="4.52725">
        <ele>734.2</ele>
        <time>2025-09-06T10:10:54Z</time>
      </trkpt>
      <trkpt lat="46.10654" lon="4.52724">
        <ele>734.6</ele>
        <time>2025-09-06T10:10:55Z</time>
      </trkpt>
      <trkpt lat="46.10655" lon="4.52724">
        <ele>734.8</ele>
        <time>2025-09-06T10:10:56Z</time>
      </trkpt>
      <trkpt lat="46.10657" lon="4.52723">
        <ele>735</ele>
        <time>2025-09-06T10:10:57Z</time>
      </trkpt>
      <trkpt lat="46.10658" lon="4.52723">
        <ele>735</ele>
        <time>2025-09-06T10:10:58Z</time>
      </trkpt>
      <trkpt lat="46.10659" lon="4.52721">
        <ele>735.4</ele>
        <time>2025-09-06T10:10:59Z</time>
      </trkpt>
      <trkpt lat="46.10661" lon="4.5272">
        <ele>735.4</ele>
        <time>2025-09-06T10:11:00Z</time>
      </trkpt>
      <trkpt lat="46.10662" lon="4.52719">
        <ele>735.6</ele>
        <time>2025-09-06T10:11:01Z</time>
      </trkpt>
      <trkpt lat="46.10664" lon="4.52719">
        <ele>735.6</ele>
        <time>2025-09-06T10:11:02Z</time>
      </trkpt>
      <trkpt lat="46.10665" lon="4.52719">
        <ele>736</ele>
        <time>2025-09-06T10:11:03Z</time>
      </trkpt>
      <trkpt lat="46.10667" lon="4.52719">
        <ele>736.6</ele>
        <time>2025-09-06T10:11:04Z</time>
      </trkpt>
      <trkpt lat="46.10668" lon="4.52718">
        <ele>736.6</ele>
        <time>2025-09-06T10:11:05Z</time>
      </trkpt>
      <trkpt lat="46.1067" lon="4.52717">
        <ele>736.6</ele>
        <time>2025-09-06T10:11:06Z</time>
      </trkpt>
      <trkpt lat="46.10671" lon="4.52716">
        <ele>736.8</ele>
        <time>2025-09-06T10:11:07Z</time>
      </trkpt>
      <trkpt lat="46.10672" lon="4.52714">
        <ele>736.8</ele>
        <time>2025-09-06T10:11:08Z</time>
      </trkpt>
      <trkpt lat="46.10674" lon="4.52713">
        <ele>737.2</ele>
        <time>2025-09-06T10:11:09Z</time>
      </trkpt>
      <trkpt lat="46.10675" lon="4.52711">
        <ele>737.2</ele>
        <time>2025-09-06T10:11:10Z</time>
      </trkpt>
      <trkpt lat="46.10676" lon="4.5271">
        <ele>737.2</ele>
        <time>2025-09-06T10:11:11Z</time>
      </trkpt>
      <trkpt lat="46.10676" lon="4.52708">
        <ele>737.4</ele>
        <time>2025-09-06T10:11:12Z</time>
      </trkpt>
      <trkpt lat="46.10677" lon="4.52706">
        <ele>736.6</ele>
        <time>2025-09-06T10:11:13Z</time>
      </trkpt>
      <trkpt lat="46.10678" lon="4.52704">
        <ele>737.6</ele>
        <time>2025-09-06T10:11:14Z</time>
      </trkpt>
      <trkpt lat="46.10679" lon="4.52702">
        <ele>738</ele>
        <time>2025-09-06T10:11:15Z</time>
      </trkpt>
      <trkpt lat="46.10679" lon="4.52701">
        <ele>738</ele>
        <time>2025-09-06T10:11:16Z</time>
      </trkpt>
      <trkpt lat="46.10681" lon="4.52698">
        <ele>738</ele>
        <time>2025-09-06T10:11:17Z</time>
      </trkpt>
      <trkpt lat="46.10682" lon="4.52696">
        <ele>738</ele>
        <time>2025-09-06T10:11:18Z</time>
      </trkpt>
      <trkpt lat="46.10683" lon="4.52693">
        <ele>738</ele>
        <time>2025-09-06T10:11:19Z</time>
      </trkpt>
      <trkpt lat="46.10683" lon="4.5269">
        <ele>738</ele>
        <time>2025-09-06T10:11:20Z</time>
      </trkpt>
      <trkpt lat="46.10684" lon="4.52687">
        <ele>738</ele>
        <time>2025-09-06T10:11:21Z</time>
      </trkpt>
      <trkpt lat="46.10684" lon="4.52685">
        <ele>738</ele>
        <time>2025-09-06T10:11:22Z</time>
      </trkpt>
      <trkpt lat="46.10685" lon="4.52682">
        <ele>738</ele>
        <time>2025-09-06T10:11:23Z</time>
      </trkpt>
      <trkpt lat="46.10686" lon="4.52679">
        <ele>738.4</ele>
        <time>2025-09-06T10:11:24Z</time>
      </trkpt>
      <trkpt lat="46.10687" lon="4.52676">
        <ele>738.4</ele>
        <time>2025-09-06T10:11:25Z</time>
      </trkpt>
      <trkpt lat="46.10687" lon="4.52674">
        <ele>738.4</ele>
        <time>2025-09-06T10:11:26Z</time>
      </trkpt>
      <trkpt lat="46.10688" lon="4.52671">
        <ele>738.4</ele>
        <time>2025-09-06T10:11:27Z</time>
      </trkpt>
      <trkpt lat="46.10688" lon="4.52669">
        <ele>738.4</ele>
        <time>2025-09-06T10:11:28Z</time>
      </trkpt>
      <trkpt lat="46.10689" lon="4.52667">
        <ele>738.6</ele>
        <time>2025-09-06T10:11:29Z</time>
      </trkpt>
      <trkpt lat="46.10689" lon="4.52664">
        <ele>738.6</ele>
        <time>2025-09-06T10:11:30Z</time>
      </trkpt>
      <trkpt lat="46.10689" lon="4.52661">
        <ele>738.8</ele>
        <time>2025-09-06T10:11:31Z</time>
      </trkpt>
      <trkpt lat="46.1069" lon="4.52659">
        <ele>738.8</ele>
        <time>2025-09-06T10:11:32Z</time>
      </trkpt>
      <trkpt lat="46.1069" lon="4.52656">
        <ele>738.8</ele>
        <time>2025-09-06T10:11:33Z</time>
      </trkpt>
      <trkpt lat="46.10691" lon="4.52653">
        <ele>739.2</ele>
        <time>2025-09-06T10:11:34Z</time>
      </trkpt>
      <trkpt lat="46.10692" lon="4.52651">
        <ele>739.2</ele>
        <time>2025-09-06T10:11:35Z</time>
      </trkpt>
      <trkpt lat="46.10692" lon="4.52649">
        <ele>739.2</ele>
        <time>2025-09-06T10:11:36Z</time>
      </trkpt>
      <trkpt lat="46.10693" lon="4.52646">
        <ele>739.2</ele>
        <time>2025-09-06T10:11:37Z</time>
      </trkpt>
      <trkpt lat="46.10694" lon="4.52644">
        <ele>739.2</ele>
        <time>2025-09-06T10:11:38Z</time>
      </trkpt>
      <trkpt lat="46.10694" lon="4.52641">
        <ele>739.4</ele>
        <time>2025-09-06T10:11:39Z</time>
      </trkpt>
      <trkpt lat="46.10695" lon="4.52639">
        <ele>739.4</ele>
        <time>2025-09-06T10:11:40Z</time>
      </trkpt>
      <trkpt lat="46.10696" lon="4.52637">
        <ele>739.4</ele>
        <time>2025-09-06T10:11:41Z</time>
      </trkpt>
      <trkpt lat="46.10696" lon="4.52635">
        <ele>739.6</ele>
        <time>2025-09-06T10:11:42Z</time>
      </trkpt>
      <trkpt lat="46.10697" lon="4.52634">
        <ele>739.6</ele>
        <time>2025-09-06T10:11:43Z</time>
      </trkpt>
      <trkpt lat="46.10698" lon="4.52632">
        <ele>740</ele>
        <time>2025-09-06T10:11:44Z</time>
      </trkpt>
      <trkpt lat="46.10698" lon="4.5263">
        <ele>740</ele>
        <time>2025-09-06T10:11:45Z</time>
      </trkpt>
      <trkpt lat="46.10699" lon="4.52628">
        <ele>740.2</ele>
        <time>2025-09-06T10:11:46Z</time>
      </trkpt>
      <trkpt lat="46.10699" lon="4.52626">
        <ele>740.2</ele>
        <time>2025-09-06T10:11:47Z</time>
      </trkpt>
      <trkpt lat="46.10699" lon="4.52625">
        <ele>740.4</ele>
        <time>2025-09-06T10:11:48Z</time>
      </trkpt>
      <trkpt lat="46.10699" lon="4.52623">
        <ele>740.4</ele>
        <time>2025-09-06T10:11:49Z</time>
      </trkpt>
      <trkpt lat="46.107" lon="4.52621">
        <ele>740.8</ele>
        <time>2025-09-06T10:11:50Z</time>
      </trkpt>
      <trkpt lat="46.107" lon="4.52619">
        <ele>740.8</ele>
        <time>2025-09-06T10:11:51Z</time>
      </trkpt>
      <trkpt lat="46.10701" lon="4.52618">
        <ele>741</ele>
        <time>2025-09-06T10:11:52Z</time>
      </trkpt>
      <trkpt lat="46.10701" lon="4.52616">
        <ele>741</ele>
        <time>2025-09-06T10:11:53Z</time>
      </trkpt>
      <trkpt lat="46.10702" lon="4.52615">
        <ele>741.4</ele>
        <time>2025-09-06T10:11:54Z</time>
      </trkpt>
      <trkpt lat="46.10703" lon="4.52613">
        <ele>741.4</ele>
        <time>2025-09-06T10:11:55Z</time>
      </trkpt>
      <trkpt lat="46.10704" lon="4.52611">
        <ele>741.6</ele>
        <time>2025-09-06T10:11:56Z</time>
      </trkpt>
      <trkpt lat="46.10705" lon="4.5261">
        <ele>741.6</ele>
        <time>2025-09-06T10:11:57Z</time>
      </trkpt>
      <trkpt lat="46.10705" lon="4.52608">
        <ele>742</ele>
        <time>2025-09-06T10:11:58Z</time>
      </trkpt>
      <trkpt lat="46.10706" lon="4.52607">
        <ele>742</ele>
        <time>2025-09-06T10:11:59Z</time>
      </trkpt>
      <trkpt lat="46.10707" lon="4.52605">
        <ele>742</ele>
        <time>2025-09-06T10:12:00Z</time>
      </trkpt>
      <trkpt lat="46.10707" lon="4.52603">
        <ele>742.2</ele>
        <time>2025-09-06T10:12:01Z</time>
      </trkpt>
      <trkpt lat="46.10708" lon="4.52601">
        <ele>742.2</ele>
        <time>2025-09-06T10:12:02Z</time>
      </trkpt>
      <trkpt lat="46.10709" lon="4.526">
        <ele>742.4</ele>
        <time>2025-09-06T10:12:03Z</time>
      </trkpt>
      <trkpt lat="46.10709" lon="4.52598">
        <ele>742.8</ele>
        <time>2025-09-06T10:12:04Z</time>
      </trkpt>
      <trkpt lat="46.1071" lon="4.52596">
        <ele>743</ele>
        <time>2025-09-06T10:12:05Z</time>
      </trkpt>
      <trkpt lat="46.10711" lon="4.52595">
        <ele>743.2</ele>
        <time>2025-09-06T10:12:06Z</time>
      </trkpt>
      <trkpt lat="46.10711" lon="4.52593">
        <ele>743.6</ele>
        <time>2025-09-06T10:12:07Z</time>
      </trkpt>
      <trkpt lat="46.10712" lon="4.52591">
        <ele>743.8</ele>
        <time>2025-09-06T10:12:08Z</time>
      </trkpt>
      <trkpt lat="46.10713" lon="4.52589">
        <ele>744.2</ele>
        <time>2025-09-06T10:12:09Z</time>
      </trkpt>
      <trkpt lat="46.10713" lon="4.52587">
        <ele>744.2</ele>
        <time>2025-09-06T10:12:10Z</time>
      </trkpt>
      <trkpt lat="46.10713" lon="4.52585">
        <ele>744.4</ele>
        <time>2025-09-06T10:12:11Z</time>
      </trkpt>
      <trkpt lat="46.10714" lon="4.52583">
        <ele>744.4</ele>
        <time>2025-09-06T10:12:12Z</time>
      </trkpt>
      <trkpt lat="46.10714" lon="4.52581">
        <ele>744.8</ele>
        <time>2025-09-06T10:12:13Z</time>
      </trkpt>
      <trkpt lat="46.10714" lon="4.52579">
        <ele>744.8</ele>
        <time>2025-09-06T10:12:14Z</time>
      </trkpt>
      <trkpt lat="46.10715" lon="4.52577">
        <ele>745</ele>
        <time>2025-09-06T10:12:15Z</time>
      </trkpt>
      <trkpt lat="46.10715" lon="4.52575">
        <ele>745</ele>
        <time>2025-09-06T10:12:16Z</time>
      </trkpt>
      <trkpt lat="46.10716" lon="4.52574">
        <ele>745.4</ele>
        <time>2025-09-06T10:12:17Z</time>
      </trkpt>
      <trkpt lat="46.10716" lon="4.52572">
        <ele>745.6</ele>
        <time>2025-09-06T10:12:18Z</time>
      </trkpt>
      <trkpt lat="46.10716" lon="4.5257">
        <ele>745.6</ele>
        <time>2025-09-06T10:12:19Z</time>
      </trkpt>
      <trkpt lat="46.10717" lon="4.52568">
        <ele>745.8</ele>
        <time>2025-09-06T10:12:20Z</time>
      </trkpt>
      <trkpt lat="46.10718" lon="4.52567">
        <ele>745.8</ele>
        <time>2025-09-06T10:12:21Z</time>
      </trkpt>
      <trkpt lat="46.10718" lon="4.52565">
        <ele>745.8</ele>
        <time>2025-09-06T10:12:22Z</time>
      </trkpt>
      <trkpt lat="46.10719" lon="4.52563">
        <ele>746</ele>
        <time>2025-09-06T10:12:23Z</time>
      </trkpt>
      <trkpt lat="46.1072" lon="4.52561">
        <ele>746</ele>
        <time>2025-09-06T10:12:24Z</time>
      </trkpt>
      <trkpt lat="46.1072" lon="4.52559">
        <ele>746.4</ele>
        <time>2025-09-06T10:12:25Z</time>
      </trkpt>
      <trkpt lat="46.10721" lon="4.52556">
        <ele>746.4</ele>
        <time>2025-09-06T10:12:26Z</time>
      </trkpt>
      <trkpt lat="46.10721" lon="4.52554">
        <ele>746.4</ele>
        <time>2025-09-06T10:12:27Z</time>
      </trkpt>
      <trkpt lat="46.10722" lon="4.52551">
        <ele>746.6</ele>
        <time>2025-09-06T10:12:28Z</time>
      </trkpt>
      <trkpt lat="46.10722" lon="4.52549">
        <ele>746.8</ele>
        <time>2025-09-06T10:12:29Z</time>
      </trkpt>
      <trkpt lat="46.10722" lon="4.52547">
        <ele>746.8</ele>
        <time>2025-09-06T10:12:30Z</time>
      </trkpt>
      <trkpt lat="46.10723" lon="4.52544">
        <ele>746.8</ele>
        <time>2025-09-06T10:12:31Z</time>
      </trkpt>
      <trkpt lat="46.10723" lon="4.52541">
        <ele>746.8</ele>
        <time>2025-09-06T10:12:32Z</time>
      </trkpt>
      <trkpt lat="46.10723" lon="4.52539">
        <ele>747</ele>
        <time>2025-09-06T10:12:33Z</time>
      </trkpt>
      <trkpt lat="46.10724" lon="4.52537">
        <ele>747.4</ele>
        <time>2025-09-06T10:12:34Z</time>
      </trkpt>
      <trkpt lat="46.10724" lon="4.52535">
        <ele>747.4</ele>
        <time>2025-09-06T10:12:35Z</time>
      </trkpt>
      <trkpt lat="46.10725" lon="4.52533">
        <ele>748</ele>
        <time>2025-09-06T10:12:36Z</time>
      </trkpt>
      <trkpt lat="46.10725" lon="4.52531">
        <ele>748</ele>
        <time>2025-09-06T10:12:37Z</time>
      </trkpt>
      <trkpt lat="46.10726" lon="4.52529">
        <ele>748.2</ele>
        <time>2025-09-06T10:12:38Z</time>
      </trkpt>
      <trkpt lat="46.10727" lon="4.52528">
        <ele>748.2</ele>
        <time>2025-09-06T10:12:39Z</time>
      </trkpt>
      <trkpt lat="46.10727" lon="4.52526">
        <ele>748.6</ele>
        <time>2025-09-06T10:12:40Z</time>
      </trkpt>
      <trkpt lat="46.10727" lon="4.52524">
        <ele>748.6</ele>
        <time>2025-09-06T10:12:41Z</time>
      </trkpt>
      <trkpt lat="46.10727" lon="4.52523">
        <ele>749</ele>
        <time>2025-09-06T10:12:42Z</time>
      </trkpt>
      <trkpt lat="46.10727" lon="4.52521">
        <ele>749</ele>
        <time>2025-09-06T10:12:43Z</time>
      </trkpt>
      <trkpt lat="46.10727" lon="4.52519">
        <ele>749.4</ele>
        <time>2025-09-06T10:12:44Z</time>
      </trkpt>
      <trkpt lat="46.10727" lon="4.52518">
        <ele>749.4</ele>
        <time>2025-09-06T10:12:45Z</time>
      </trkpt>
      <trkpt lat="46.10727" lon="4.52516">
        <ele>749.4</ele>
        <time>2025-09-06T10:12:46Z</time>
      </trkpt>
      <trkpt lat="46.10728" lon="4.52514">
        <ele>749.6</ele>
        <time>2025-09-06T10:12:47Z</time>
      </trkpt>
      <trkpt lat="46.10728" lon="4.52513">
        <ele>749.6</ele>
        <time>2025-09-06T10:12:48Z</time>
      </trkpt>
      <trkpt lat="46.10728" lon="4.52512">
        <ele>749.8</ele>
        <time>2025-09-06T10:12:49Z</time>
      </trkpt>
      <trkpt lat="46.10728" lon="4.5251">
        <ele>750.2</ele>
        <time>2025-09-06T10:12:50Z</time>
      </trkpt>
      <trkpt lat="46.10728" lon="4.52509">
        <ele>750.4</ele>
        <time>2025-09-06T10:12:51Z</time>
      </trkpt>
      <trkpt lat="46.10728" lon="4.52507">
        <ele>750.4</ele>
        <time>2025-09-06T10:12:52Z</time>
      </trkpt>
      <trkpt lat="46.10729" lon="4.52505">
        <ele>750.6</ele>
        <time>2025-09-06T10:12:53Z</time>
      </trkpt>
      <trkpt lat="46.10729" lon="4.52504">
        <ele>750.6</ele>
        <time>2025-09-06T10:12:54Z</time>
      </trkpt>
      <trkpt lat="46.10729" lon="4.52502">
        <ele>751</ele>
        <time>2025-09-06T10:12:55Z</time>
      </trkpt>
      <trkpt lat="46.10729" lon="4.525">
        <ele>751</ele>
        <time>2025-09-06T10:12:56Z</time>
      </trkpt>
      <trkpt lat="46.10729" lon="4.52499">
        <ele>751</ele>
        <time>2025-09-06T10:12:57Z</time>
      </trkpt>
      <trkpt lat="46.1073" lon="4.52498">
        <ele>751</ele>
        <time>2025-09-06T10:12:58Z</time>
      </trkpt>
      <trkpt lat="46.1073" lon="4.52497">
        <ele>751.2</ele>
        <time>2025-09-06T10:12:59Z</time>
      </trkpt>
      <trkpt lat="46.1073" lon="4.52495">
        <ele>751.2</ele>
        <time>2025-09-06T10:13:00Z</time>
      </trkpt>
      <trkpt lat="46.1073" lon="4.52494">
        <ele>751.2</ele>
        <time>2025-09-06T10:13:01Z</time>
      </trkpt>
      <trkpt lat="46.10729" lon="4.52492">
        <ele>751.6</ele>
        <time>2025-09-06T10:13:02Z</time>
      </trkpt>
      <trkpt lat="46.10729" lon="4.52491">
        <ele>752</ele>
        <time>2025-09-06T10:13:03Z</time>
      </trkpt>
      <trkpt lat="46.10729" lon="4.5249">
        <ele>752.2</ele>
        <time>2025-09-06T10:13:04Z</time>
      </trkpt>
      <trkpt lat="46.10729" lon="4.52488">
        <ele>752.4</ele>
        <time>2025-09-06T10:13:05Z</time>
      </trkpt>
      <trkpt lat="46.10729" lon="4.52487">
        <ele>752.4</ele>
        <time>2025-09-06T10:13:06Z</time>
      </trkpt>
      <trkpt lat="46.10728" lon="4.52485">
        <ele>752.4</ele>
        <time>2025-09-06T10:13:07Z</time>
      </trkpt>
      <trkpt lat="46.10728" lon="4.52483">
        <ele>752.8</ele>
        <time>2025-09-06T10:13:08Z</time>
      </trkpt>
      <trkpt lat="46.10728" lon="4.52482">
        <ele>752.8</ele>
        <time>2025-09-06T10:13:09Z</time>
      </trkpt>
      <trkpt lat="46.10727" lon="4.5248">
        <ele>753.2</ele>
        <time>2025-09-06T10:13:10Z</time>
      </trkpt>
      <trkpt lat="46.10727" lon="4.52478">
        <ele>753.4</ele>
        <time>2025-09-06T10:13:11Z</time>
      </trkpt>
      <trkpt lat="46.10728" lon="4.52476">
        <ele>753.4</ele>
        <time>2025-09-06T10:13:12Z</time>
      </trkpt>
      <trkpt lat="46.10728" lon="4.52474">
        <ele>753.6</ele>
        <time>2025-09-06T10:13:13Z</time>
      </trkpt>
      <trkpt lat="46.10727" lon="4.52472">
        <ele>754</ele>
        <time>2025-09-06T10:13:14Z</time>
      </trkpt>
      <trkpt lat="46.10727" lon="4.52471">
        <ele>754.2</ele>
        <time>2025-09-06T10:13:15Z</time>
      </trkpt>
      <trkpt lat="46.10727" lon="4.52469">
        <ele>754.2</ele>
        <time>2025-09-06T10:13:16Z</time>
      </trkpt>
      <trkpt lat="46.10727" lon="4.52467">
        <ele>754.6</ele>
        <time>2025-09-06T10:13:17Z</time>
      </trkpt>
      <trkpt lat="46.10727" lon="4.52466">
        <ele>754.6</ele>
        <time>2025-09-06T10:13:18Z</time>
      </trkpt>
      <trkpt lat="46.10727" lon="4.52464">
        <ele>754.6</ele>
        <time>2025-09-06T10:13:19Z</time>
      </trkpt>
      <trkpt lat="46.10727" lon="4.52463">
        <ele>755.2</ele>
        <time>2025-09-06T10:13:20Z</time>
      </trkpt>
      <trkpt lat="46.10728" lon="4.52461">
        <ele>755.2</ele>
        <time>2025-09-06T10:13:21Z</time>
      </trkpt>
      <trkpt lat="46.10728" lon="4.52459">
        <ele>755.2</ele>
        <time>2025-09-06T10:13:22Z</time>
      </trkpt>
      <trkpt lat="46.10729" lon="4.52458">
        <ele>755.6</ele>
        <time>2025-09-06T10:13:23Z</time>
      </trkpt>
      <trkpt lat="46.1073" lon="4.52457">
        <ele>755.6</ele>
        <time>2025-09-06T10:13:24Z</time>
      </trkpt>
      <trkpt lat="46.10731" lon="4.52456">
        <ele>755.8</ele>
        <time>2025-09-06T10:13:25Z</time>
      </trkpt>
      <trkpt lat="46.10733" lon="4.52455">
        <ele>755.8</ele>
        <time>2025-09-06T10:13:26Z</time>
      </trkpt>
      <trkpt lat="46.10734" lon="4.52454">
        <ele>755.8</ele>
        <time>2025-09-06T10:13:27Z</time>
      </trkpt>
      <trkpt lat="46.10735" lon="4.52455">
        <ele>755.8</ele>
        <time>2025-09-06T10:13:28Z</time>
      </trkpt>
      <trkpt lat="46.10737" lon="4.52455">
        <ele>755.8</ele>
        <time>2025-09-06T10:13:29Z</time>
      </trkpt>
      <trkpt lat="46.10738" lon="4.52456">
        <ele>755.8</ele>
        <time>2025-09-06T10:13:30Z</time>
      </trkpt>
      <trkpt lat="46.10739" lon="4.52457">
        <ele>755.8</ele>
        <time>2025-09-06T10:13:31Z</time>
      </trkpt>
      <trkpt lat="46.10741" lon="4.52459">
        <ele>756.4</ele>
        <time>2025-09-06T10:13:32Z</time>
      </trkpt>
      <trkpt lat="46.10742" lon="4.52461">
        <ele>756.6</ele>
        <time>2025-09-06T10:13:33Z</time>
      </trkpt>
      <trkpt lat="46.10742" lon="4.52464">
        <ele>756.6</ele>
        <time>2025-09-06T10:13:34Z</time>
      </trkpt>
      <trkpt lat="46.10743" lon="4.52466">
        <ele>756.6</ele>
        <time>2025-09-06T10:13:35Z</time>
      </trkpt>
      <trkpt lat="46.10743" lon="4.52468">
        <ele>756.6</ele>
        <time>2025-09-06T10:13:36Z</time>
      </trkpt>
      <trkpt lat="46.10743" lon="4.52471">
        <ele>756.8</ele>
        <time>2025-09-06T10:13:37Z</time>
      </trkpt>
      <trkpt lat="46.10743" lon="4.52473">
        <ele>756.8</ele>
        <time>2025-09-06T10:13:38Z</time>
      </trkpt>
      <trkpt lat="46.10744" lon="4.52474">
        <ele>756.8</ele>
        <time>2025-09-06T10:13:39Z</time>
      </trkpt>
      <trkpt lat="46.10744" lon="4.52474">
        <ele>756.8</ele>
        <time>2025-09-06T10:13:40Z</time>
      </trkpt>
      <trkpt lat="46.10744" lon="4.52474">
        <ele>756.8</ele>
        <time>2025-09-06T10:13:41Z</time>
      </trkpt>
      <trkpt lat="46.10744" lon="4.52474">
        <ele>756.8</ele>
        <time>2025-09-06T10:13:42Z</time>
      </trkpt>
      <trkpt lat="46.10744" lon="4.52474">
        <ele>757.6</ele>
        <time>2025-09-06T10:20:58Z</time>
      </trkpt>
      <trkpt lat="46.10745" lon="4.52472">
        <ele>757</ele>
        <time>2025-09-06T10:20:59Z</time>
      </trkpt>
      <trkpt lat="46.10745" lon="4.5247">
        <ele>757</ele>
        <time>2025-09-06T10:21:00Z</time>
      </trkpt>
      <trkpt lat="46.10745" lon="4.52468">
        <ele>757</ele>
        <time>2025-09-06T10:21:01Z</time>
      </trkpt>
      <trkpt lat="46.10745" lon="4.52468">
        <ele>757</ele>
        <time>2025-09-06T10:21:02Z</time>
      </trkpt>
      <trkpt lat="46.10744" lon="4.52467">
        <ele>757</ele>
        <time>2025-09-06T10:21:03Z</time>
      </trkpt>
      <trkpt lat="46.10744" lon="4.52467">
        <ele>757</ele>
        <time>2025-09-06T10:21:04Z</time>
      </trkpt>
      <trkpt lat="46.10743" lon="4.52466">
        <ele>757</ele>
        <time>2025-09-06T10:21:05Z</time>
      </trkpt>
      <trkpt lat="46.10742" lon="4.52462">
        <ele>757.2</ele>
        <time>2025-09-06T10:21:11Z</time>
      </trkpt>
      <trkpt lat="46.10743" lon="4.52459">
        <ele>756.8</ele>
        <time>2025-09-06T10:21:12Z</time>
      </trkpt>
      <trkpt lat="46.10745" lon="4.52458">
        <ele>756.8</ele>
        <time>2025-09-06T10:21:13Z</time>
      </trkpt>
      <trkpt lat="46.10747" lon="4.52459">
        <ele>756.8</ele>
        <time>2025-09-06T10:21:14Z</time>
      </trkpt>
      <trkpt lat="46.10749" lon="4.5246">
        <ele>756.8</ele>
        <time>2025-09-06T10:21:15Z</time>
      </trkpt>
      <trkpt lat="46.10751" lon="4.52461">
        <ele>756.8</ele>
        <time>2025-09-06T10:21:16Z</time>
      </trkpt>
      <trkpt lat="46.10754" lon="4.52462">
        <ele>756.4</ele>
        <time>2025-09-06T10:21:17Z</time>
      </trkpt>
      <trkpt lat="46.10757" lon="4.52464">
        <ele>756.6</ele>
        <time>2025-09-06T10:21:18Z</time>
      </trkpt>
      <trkpt lat="46.1076" lon="4.52465">
        <ele>756.6</ele>
        <time>2025-09-06T10:21:19Z</time>
      </trkpt>
      <trkpt lat="46.10763" lon="4.52466">
        <ele>756.6</ele>
        <time>2025-09-06T10:21:20Z</time>
      </trkpt>
      <trkpt lat="46.10766" lon="4.52467">
        <ele>757</ele>
        <time>2025-09-06T10:21:21Z</time>
      </trkpt>
      <trkpt lat="46.10766" lon="4.52467">
        <ele>757</ele>
        <time>2025-09-06T10:21:22Z</time>
      </trkpt>
      <trkpt lat="46.10768" lon="4.52468">
        <ele>756.8</ele>
        <time>2025-09-06T10:21:23Z</time>
      </trkpt>
      <trkpt lat="46.10771" lon="4.52468">
        <ele>756.8</ele>
        <time>2025-09-06T10:21:24Z</time>
      </trkpt>
      <trkpt lat="46.10775" lon="4.52469">
        <ele>756.4</ele>
        <time>2025-09-06T10:21:25Z</time>
      </trkpt>
      <trkpt lat="46.10778" lon="4.52469">
        <ele>756.4</ele>
        <time>2025-09-06T10:21:26Z</time>
      </trkpt>
      <trkpt lat="46.10781" lon="4.52469">
        <ele>756.4</ele>
        <time>2025-09-06T10:21:27Z</time>
      </trkpt>
      <trkpt lat="46.10784" lon="4.5247">
        <ele>756.6</ele>
        <time>2025-09-06T10:21:28Z</time>
      </trkpt>
      <trkpt lat="46.10787" lon="4.52471">
        <ele>756.6</ele>
        <time>2025-09-06T10:21:29Z</time>
      </trkpt>
      <trkpt lat="46.10791" lon="4.52472">
        <ele>756.6</ele>
        <time>2025-09-06T10:21:30Z</time>
      </trkpt>
      <trkpt lat="46.10796" lon="4.52472">
        <ele>756.2</ele>
        <time>2025-09-06T10:21:31Z</time>
      </trkpt>
      <trkpt lat="46.10801" lon="4.52474">
        <ele>755.6</ele>
        <time>2025-09-06T10:21:32Z</time>
      </trkpt>
      <trkpt lat="46.10806" lon="4.52473">
        <ele>755.2</ele>
        <time>2025-09-06T10:21:33Z</time>
      </trkpt>
      <trkpt lat="46.1081" lon="4.52475">
        <ele>755.2</ele>
        <time>2025-09-06T10:21:34Z</time>
      </trkpt>
      <trkpt lat="46.10815" lon="4.52476">
        <ele>754.8</ele>
        <time>2025-09-06T10:21:35Z</time>
      </trkpt>
      <trkpt lat="46.10821" lon="4.52477">
        <ele>754.4</ele>
        <time>2025-09-06T10:21:36Z</time>
      </trkpt>
      <trkpt lat="46.10826" lon="4.52478">
        <ele>753.8</ele>
        <time>2025-09-06T10:21:37Z</time>
      </trkpt>
      <trkpt lat="46.10832" lon="4.52481">
        <ele>753</ele>
        <time>2025-09-06T10:21:38Z</time>
      </trkpt>
      <trkpt lat="46.1084" lon="4.52483">
        <ele>752.4</ele>
        <time>2025-09-06T10:21:39Z</time>
      </trkpt>
      <trkpt lat="46.10848" lon="4.52489">
        <ele>751.4</ele>
        <time>2025-09-06T10:21:40Z</time>
      </trkpt>
      <trkpt lat="46.10855" lon="4.52493">
        <ele>750.8</ele>
        <time>2025-09-06T10:21:41Z</time>
      </trkpt>
      <trkpt lat="46.10862" lon="4.52499">
        <ele>750</ele>
        <time>2025-09-06T10:21:42Z</time>
      </trkpt>
      <trkpt lat="46.1087" lon="4.52503">
        <ele>749.2</ele>
        <time>2025-09-06T10:21:43Z</time>
      </trkpt>
      <trkpt lat="46.10877" lon="4.52508">
        <ele>748.6</ele>
        <time>2025-09-06T10:21:44Z</time>
      </trkpt>
      <trkpt lat="46.10884" lon="4.52513">
        <ele>747.8</ele>
        <time>2025-09-06T10:21:45Z</time>
      </trkpt>
      <trkpt lat="46.10891" lon="4.52519">
        <ele>747.4</ele>
        <time>2025-09-06T10:21:46Z</time>
      </trkpt>
      <trkpt lat="46.10897" lon="4.52521">
        <ele>746.8</ele>
        <time>2025-09-06T10:21:47Z</time>
      </trkpt>
      <trkpt lat="46.10905" lon="4.52526">
        <ele>746.4</ele>
        <time>2025-09-06T10:21:48Z</time>
      </trkpt>
      <trkpt lat="46.10915" lon="4.52529">
        <ele>745.4</ele>
        <time>2025-09-06T10:21:49Z</time>
      </trkpt>
      <trkpt lat="46.10922" lon="4.5253">
        <ele>744.6</ele>
        <time>2025-09-06T10:21:50Z</time>
      </trkpt>
      <trkpt lat="46.10939" lon="4.52531">
        <ele>744.4</ele>
        <time>2025-09-06T10:21:51Z</time>
      </trkpt>
      <trkpt lat="46.10947" lon="4.52532">
        <ele>743.8</ele>
        <time>2025-09-06T10:21:52Z</time>
      </trkpt>
      <trkpt lat="46.10955" lon="4.5253">
        <ele>743.4</ele>
        <time>2025-09-06T10:21:53Z</time>
      </trkpt>
      <trkpt lat="46.10963" lon="4.5253">
        <ele>743</ele>
        <time>2025-09-06T10:21:54Z</time>
      </trkpt>
      <trkpt lat="46.1097" lon="4.52526">
        <ele>742</ele>
        <time>2025-09-06T10:21:55Z</time>
      </trkpt>
      <trkpt lat="46.10976" lon="4.5252">
        <ele>741.6</ele>
        <time>2025-09-06T10:21:56Z</time>
      </trkpt>
      <trkpt lat="46.10982" lon="4.52508">
        <ele>741</ele>
        <time>2025-09-06T10:21:57Z</time>
      </trkpt>
      <trkpt lat="46.10988" lon="4.52501">
        <ele>740.8</ele>
        <time>2025-09-06T10:21:58Z</time>
      </trkpt>
      <trkpt lat="46.10995" lon="4.52496">
        <ele>740</ele>
        <time>2025-09-06T10:21:59Z</time>
      </trkpt>
      <trkpt lat="46.11002" lon="4.5249">
        <ele>739.6</ele>
        <time>2025-09-06T10:22:00Z</time>
      </trkpt>
      <trkpt lat="46.1101" lon="4.52486">
        <ele>739</ele>
        <time>2025-09-06T10:22:01Z</time>
      </trkpt>
      <trkpt lat="46.11019" lon="4.52485">
        <ele>738.6</ele>
        <time>2025-09-06T10:22:02Z</time>
      </trkpt>
      <trkpt lat="46.11027" lon="4.52483">
        <ele>738.2</ele>
        <time>2025-09-06T10:22:03Z</time>
      </trkpt>
      <trkpt lat="46.11034" lon="4.52488">
        <ele>737.6</ele>
        <time>2025-09-06T10:22:04Z</time>
      </trkpt>
      <trkpt lat="46.11042" lon="4.52491">
        <ele>736.8</ele>
        <time>2025-09-06T10:22:05Z</time>
      </trkpt>
      <trkpt lat="46.11049" lon="4.52496">
        <ele>736</ele>
        <time>2025-09-06T10:22:06Z</time>
      </trkpt>
      <trkpt lat="46.11055" lon="4.52502">
        <ele>735.2</ele>
        <time>2025-09-06T10:22:07Z</time>
      </trkpt>
      <trkpt lat="46.1106" lon="4.52508">
        <ele>734.6</ele>
        <time>2025-09-06T10:22:08Z</time>
      </trkpt>
      <trkpt lat="46.11067" lon="4.52515">
        <ele>733.8</ele>
        <time>2025-09-06T10:22:09Z</time>
      </trkpt>
      <trkpt lat="46.11073" lon="4.52521">
        <ele>733</ele>
        <time>2025-09-06T10:22:10Z</time>
      </trkpt>
      <trkpt lat="46.1108" lon="4.52527">
        <ele>732.2</ele>
        <time>2025-09-06T10:22:11Z</time>
      </trkpt>
      <trkpt lat="46.11088" lon="4.52531">
        <ele>730.8</ele>
        <time>2025-09-06T10:22:12Z</time>
      </trkpt>
      <trkpt lat="46.11097" lon="4.52535">
        <ele>729.2</ele>
        <time>2025-09-06T10:22:13Z</time>
      </trkpt>
      <trkpt lat="46.11108" lon="4.52538">
        <ele>728</ele>
        <time>2025-09-06T10:22:14Z</time>
      </trkpt>
      <trkpt lat="46.1112" lon="4.52542">
        <ele>726.6</ele>
        <time>2025-09-06T10:22:15Z</time>
      </trkpt>
      <trkpt lat="46.1113" lon="4.52547">
        <ele>725</ele>
        <time>2025-09-06T10:22:16Z</time>
      </trkpt>
      <trkpt lat="46.1114" lon="4.52554">
        <ele>723.8</ele>
        <time>2025-09-06T10:22:17Z</time>
      </trkpt>
      <trkpt lat="46.11151" lon="4.52561">
        <ele>722.8</ele>
        <time>2025-09-06T10:22:18Z</time>
      </trkpt>
      <trkpt lat="46.1116" lon="4.52569">
        <ele>721.6</ele>
        <time>2025-09-06T10:22:19Z</time>
      </trkpt>
      <trkpt lat="46.11169" lon="4.52577">
        <ele>720.6</ele>
        <time>2025-09-06T10:22:20Z</time>
      </trkpt>
      <trkpt lat="46.11178" lon="4.52585">
        <ele>719.6</ele>
        <time>2025-09-06T10:22:21Z</time>
      </trkpt>
      <trkpt lat="46.11187" lon="4.52592">
        <ele>719</ele>
        <time>2025-09-06T10:22:22Z</time>
      </trkpt>
      <trkpt lat="46.11196" lon="4.52601">
        <ele>717.6</ele>
        <time>2025-09-06T10:22:23Z</time>
      </trkpt>
      <trkpt lat="46.11205" lon="4.52609">
        <ele>716.8</ele>
        <time>2025-09-06T10:22:24Z</time>
      </trkpt>
      <trkpt lat="46.11215" lon="4.5262">
        <ele>715.8</ele>
        <time>2025-09-06T10:22:25Z</time>
      </trkpt>
      <trkpt lat="46.11225" lon="4.52626">
        <ele>715.4</ele>
        <time>2025-09-06T10:22:26Z</time>
      </trkpt>
      <trkpt lat="46.11234" lon="4.52634">
        <ele>714.6</ele>
        <time>2025-09-06T10:22:27Z</time>
      </trkpt>
      <trkpt lat="46.11243" lon="4.5264">
        <ele>713.4</ele>
        <time>2025-09-06T10:22:28Z</time>
      </trkpt>
      <trkpt lat="46.11252" lon="4.52644">
        <ele>713</ele>
        <time>2025-09-06T10:22:29Z</time>
      </trkpt>
      <trkpt lat="46.11262" lon="4.52647">
        <ele>712.2</ele>
        <time>2025-09-06T10:22:30Z</time>
      </trkpt>
      <trkpt lat="46.11271" lon="4.52649">
        <ele>711.8</ele>
        <time>2025-09-06T10:22:31Z</time>
      </trkpt>
      <trkpt lat="46.11281" lon="4.52652">
        <ele>711.2</ele>
        <time>2025-09-06T10:22:32Z</time>
      </trkpt>
      <trkpt lat="46.11289" lon="4.52653">
        <ele>711</ele>
        <time>2025-09-06T10:22:33Z</time>
      </trkpt>
      <trkpt lat="46.11296" lon="4.52656">
        <ele>711</ele>
        <time>2025-09-06T10:22:34Z</time>
      </trkpt>
      <trkpt lat="46.11304" lon="4.52658">
        <ele>710.2</ele>
        <time>2025-09-06T10:22:35Z</time>
      </trkpt>
      <trkpt lat="46.11311" lon="4.5266">
        <ele>709.6</ele>
        <time>2025-09-06T10:22:36Z</time>
      </trkpt>
      <trkpt lat="46.1132" lon="4.52659">
        <ele>709</ele>
        <time>2025-09-06T10:22:37Z</time>
      </trkpt>
      <trkpt lat="46.1133" lon="4.52659">
        <ele>708.4</ele>
        <time>2025-09-06T10:22:38Z</time>
      </trkpt>
      <trkpt lat="46.11339" lon="4.52657">
        <ele>708.2</ele>
        <time>2025-09-06T10:22:39Z</time>
      </trkpt>
      <trkpt lat="46.11349" lon="4.52657">
        <ele>707.6</ele>
        <time>2025-09-06T10:22:40Z</time>
      </trkpt>
      <trkpt lat="46.11359" lon="4.52657">
        <ele>706.8</ele>
        <time>2025-09-06T10:22:41Z</time>
      </trkpt>
      <trkpt lat="46.11368" lon="4.52659">
        <ele>706.2</ele>
        <time>2025-09-06T10:22:42Z</time>
      </trkpt>
      <trkpt lat="46.11377" lon="4.52661">
        <ele>705.6</ele>
        <time>2025-09-06T10:22:43Z</time>
      </trkpt>
      <trkpt lat="46.11386" lon="4.52664">
        <ele>705.4</ele>
        <time>2025-09-06T10:22:44Z</time>
      </trkpt>
      <trkpt lat="46.11394" lon="4.52667">
        <ele>705.4</ele>
        <time>2025-09-06T10:22:45Z</time>
      </trkpt>
      <trkpt lat="46.11402" lon="4.52667">
        <ele>705.2</ele>
        <time>2025-09-06T10:22:46Z</time>
      </trkpt>
      <trkpt lat="46.11409" lon="4.52668">
        <ele>705.2</ele>
        <time>2025-09-06T10:22:47Z</time>
      </trkpt>
      <trkpt lat="46.11416" lon="4.52667">
        <ele>704.8</ele>
        <time>2025-09-06T10:22:48Z</time>
      </trkpt>
      <trkpt lat="46.11424" lon="4.52664">
        <ele>704.8</ele>
        <time>2025-09-06T10:22:49Z</time>
      </trkpt>
      <trkpt lat="46.1143" lon="4.52662">
        <ele>704.8</ele>
        <time>2025-09-06T10:22:50Z</time>
      </trkpt>
      <trkpt lat="46.11437" lon="4.52659">
        <ele>704.8</ele>
        <time>2025-09-06T10:22:51Z</time>
      </trkpt>
      <trkpt lat="46.11442" lon="4.52656">
        <ele>705</ele>
        <time>2025-09-06T10:22:52Z</time>
      </trkpt>
      <trkpt lat="46.11448" lon="4.52654">
        <ele>705.4</ele>
        <time>2025-09-06T10:22:53Z</time>
      </trkpt>
      <trkpt lat="46.11453" lon="4.52652">
        <ele>705.8</ele>
        <time>2025-09-06T10:22:54Z</time>
      </trkpt>
      <trkpt lat="46.11458" lon="4.52651">
        <ele>705.8</ele>
        <time>2025-09-06T10:22:55Z</time>
      </trkpt>
      <trkpt lat="46.11462" lon="4.52649">
        <ele>706.2</ele>
        <time>2025-09-06T10:22:56Z</time>
      </trkpt>
      <trkpt lat="46.11466" lon="4.52648">
        <ele>706.2</ele>
        <time>2025-09-06T10:22:57Z</time>
      </trkpt>
      <trkpt lat="46.1147" lon="4.52646">
        <ele>706.8</ele>
        <time>2025-09-06T10:22:58Z</time>
      </trkpt>
      <trkpt lat="46.11474" lon="4.52645">
        <ele>706.8</ele>
        <time>2025-09-06T10:22:59Z</time>
      </trkpt>
      <trkpt lat="46.11477" lon="4.52644">
        <ele>707.2</ele>
        <time>2025-09-06T10:23:00Z</time>
      </trkpt>
      <trkpt lat="46.1148" lon="4.52643">
        <ele>707.6</ele>
        <time>2025-09-06T10:23:01Z</time>
      </trkpt>
      <trkpt lat="46.11483" lon="4.52642">
        <ele>707.8</ele>
        <time>2025-09-06T10:23:02Z</time>
      </trkpt>
      <trkpt lat="46.11486" lon="4.5264">
        <ele>707.8</ele>
        <time>2025-09-06T10:23:03Z</time>
      </trkpt>
      <trkpt lat="46.11489" lon="4.52639">
        <ele>708</ele>
        <time>2025-09-06T10:23:04Z</time>
      </trkpt>
      <trkpt lat="46.11492" lon="4.52639">
        <ele>708</ele>
        <time>2025-09-06T10:23:05Z</time>
      </trkpt>
      <trkpt lat="46.11494" lon="4.52638">
        <ele>708</ele>
        <time>2025-09-06T10:23:06Z</time>
      </trkpt>
      <trkpt lat="46.11497" lon="4.52637">
        <ele>708.4</ele>
        <time>2025-09-06T10:23:07Z</time>
      </trkpt>
      <trkpt lat="46.11499" lon="4.52636">
        <ele>708.4</ele>
        <time>2025-09-06T10:23:08Z</time>
      </trkpt>
      <trkpt lat="46.11502" lon="4.52636">
        <ele>708.4</ele>
        <time>2025-09-06T10:23:09Z</time>
      </trkpt>
      <trkpt lat="46.11504" lon="4.52635">
        <ele>708.6</ele>
        <time>2025-09-06T10:23:10Z</time>
      </trkpt>
      <trkpt lat="46.11507" lon="4.52634">
        <ele>708.6</ele>
        <time>2025-09-06T10:23:11Z</time>
      </trkpt>
      <trkpt lat="46.11509" lon="4.52633">
        <ele>708.8</ele>
        <time>2025-09-06T10:23:12Z</time>
      </trkpt>
      <trkpt lat="46.11512" lon="4.52632">
        <ele>708.8</ele>
        <time>2025-09-06T10:23:13Z</time>
      </trkpt>
      <trkpt lat="46.11514" lon="4.5263">
        <ele>709</ele>
        <time>2025-09-06T10:23:14Z</time>
      </trkpt>
      <trkpt lat="46.11517" lon="4.52629">
        <ele>709</ele>
        <time>2025-09-06T10:23:15Z</time>
      </trkpt>
      <trkpt lat="46.11519" lon="4.52627">
        <ele>709</ele>
        <time>2025-09-06T10:23:16Z</time>
      </trkpt>
      <trkpt lat="46.11522" lon="4.52626">
        <ele>709</ele>
        <time>2025-09-06T10:23:17Z</time>
      </trkpt>
      <trkpt lat="46.11524" lon="4.52625">
        <ele>709</ele>
        <time>2025-09-06T10:23:18Z</time>
      </trkpt>
      <trkpt lat="46.11527" lon="4.52625">
        <ele>709</ele>
        <time>2025-09-06T10:23:19Z</time>
      </trkpt>
      <trkpt lat="46.1153" lon="4.52625">
        <ele>709</ele>
        <time>2025-09-06T10:23:20Z</time>
      </trkpt>
      <trkpt lat="46.11532" lon="4.52625">
        <ele>709</ele>
        <time>2025-09-06T10:23:21Z</time>
      </trkpt>
      <trkpt lat="46.11535" lon="4.52625">
        <ele>709</ele>
        <time>2025-09-06T10:23:22Z</time>
      </trkpt>
      <trkpt lat="46.11538" lon="4.52625">
        <ele>709</ele>
        <time>2025-09-06T10:23:23Z</time>
      </trkpt>
      <trkpt lat="46.11542" lon="4.52626">
        <ele>709</ele>
        <time>2025-09-06T10:23:24Z</time>
      </trkpt>
      <trkpt lat="46.11545" lon="4.52627">
        <ele>709</ele>
        <time>2025-09-06T10:23:25Z</time>
      </trkpt>
      <trkpt lat="46.11549" lon="4.52628">
        <ele>709</ele>
        <time>2025-09-06T10:23:26Z</time>
      </trkpt>
      <trkpt lat="46.11552" lon="4.52629">
        <ele>709</ele>
        <time>2025-09-06T10:23:27Z</time>
      </trkpt>
      <trkpt lat="46.11556" lon="4.52629">
        <ele>709</ele>
        <time>2025-09-06T10:23:28Z</time>
      </trkpt>
      <trkpt lat="46.1156" lon="4.52631">
        <ele>709</ele>
        <time>2025-09-06T10:23:29Z</time>
      </trkpt>
      <trkpt lat="46.11564" lon="4.52634">
        <ele>709</ele>
        <time>2025-09-06T10:23:30Z</time>
      </trkpt>
      <trkpt lat="46.11568" lon="4.52635">
        <ele>709</ele>
        <time>2025-09-06T10:23:31Z</time>
      </trkpt>
      <trkpt lat="46.11572" lon="4.52636">
        <ele>709.4</ele>
        <time>2025-09-06T10:23:32Z</time>
      </trkpt>
      <trkpt lat="46.11577" lon="4.52637">
        <ele>709.4</ele>
        <time>2025-09-06T10:23:33Z</time>
      </trkpt>
      <trkpt lat="46.11581" lon="4.52638">
        <ele>709.4</ele>
        <time>2025-09-06T10:23:34Z</time>
      </trkpt>
      <trkpt lat="46.11586" lon="4.52638">
        <ele>709.4</ele>
        <time>2025-09-06T10:23:35Z</time>
      </trkpt>
      <trkpt lat="46.11591" lon="4.52637">
        <ele>709.4</ele>
        <time>2025-09-06T10:23:36Z</time>
      </trkpt>
      <trkpt lat="46.11597" lon="4.52637">
        <ele>709</ele>
        <time>2025-09-06T10:23:37Z</time>
      </trkpt>
      <trkpt lat="46.11602" lon="4.52637">
        <ele>708.8</ele>
        <time>2025-09-06T10:23:38Z</time>
      </trkpt>
      <trkpt lat="46.11607" lon="4.52635">
        <ele>708.8</ele>
        <time>2025-09-06T10:23:39Z</time>
      </trkpt>
      <trkpt lat="46.11613" lon="4.52635">
        <ele>708.2</ele>
        <time>2025-09-06T10:23:40Z</time>
      </trkpt>
      <trkpt lat="46.11619" lon="4.52633">
        <ele>708.2</ele>
        <time>2025-09-06T10:23:41Z</time>
      </trkpt>
      <trkpt lat="46.11624" lon="4.52631">
        <ele>708</ele>
        <time>2025-09-06T10:23:42Z</time>
      </trkpt>
      <trkpt lat="46.11631" lon="4.52629">
        <ele>707.4</ele>
        <time>2025-09-06T10:23:43Z</time>
      </trkpt>
      <trkpt lat="46.11637" lon="4.52627">
        <ele>707.4</ele>
        <time>2025-09-06T10:23:44Z</time>
      </trkpt>
      <trkpt lat="46.11645" lon="4.52624">
        <ele>706.8</ele>
        <time>2025-09-06T10:23:45Z</time>
      </trkpt>
      <trkpt lat="46.11652" lon="4.52621">
        <ele>706.2</ele>
        <time>2025-09-06T10:23:46Z</time>
      </trkpt>
      <trkpt lat="46.1166" lon="4.52617">
        <ele>705.6</ele>
        <time>2025-09-06T10:23:47Z</time>
      </trkpt>
      <trkpt lat="46.11665" lon="4.52612">
        <ele>705</ele>
        <time>2025-09-06T10:23:48Z</time>
      </trkpt>
      <trkpt lat="46.1167" lon="4.52607">
        <ele>704.8</ele>
        <time>2025-09-06T10:23:49Z</time>
      </trkpt>
      <trkpt lat="46.11675" lon="4.526">
        <ele>704.4</ele>
        <time>2025-09-06T10:23:50Z</time>
      </trkpt>
      <trkpt lat="46.11679" lon="4.52594">
        <ele>704.2</ele>
        <time>2025-09-06T10:23:51Z</time>
      </trkpt>
      <trkpt lat="46.11682" lon="4.52588">
        <ele>703.6</ele>
        <time>2025-09-06T10:23:52Z</time>
      </trkpt>
      <trkpt lat="46.11686" lon="4.52582">
        <ele>703.4</ele>
        <time>2025-09-06T10:23:53Z</time>
      </trkpt>
      <trkpt lat="46.1169" lon="4.52576">
        <ele>703</ele>
        <time>2025-09-06T10:23:54Z</time>
      </trkpt>
      <trkpt lat="46.11694" lon="4.52569">
        <ele>702.8</ele>
        <time>2025-09-06T10:23:55Z</time>
      </trkpt>
      <trkpt lat="46.11698" lon="4.52564">
        <ele>702.4</ele>
        <time>2025-09-06T10:23:56Z</time>
      </trkpt>
      <trkpt lat="46.11702" lon="4.5256">
        <ele>702</ele>
        <time>2025-09-06T10:23:57Z</time>
      </trkpt>
      <trkpt lat="46.11707" lon="4.52559">
        <ele>701.8</ele>
        <time>2025-09-06T10:23:58Z</time>
      </trkpt>
      <trkpt lat="46.11711" lon="4.52561">
        <ele>701.6</ele>
        <time>2025-09-06T10:23:59Z</time>
      </trkpt>
      <trkpt lat="46.11715" lon="4.52564">
        <ele>701.6</ele>
        <time>2025-09-06T10:24:00Z</time>
      </trkpt>
      <trkpt lat="46.11717" lon="4.52568">
        <ele>701.6</ele>
        <time>2025-09-06T10:24:01Z</time>
      </trkpt>
      <trkpt lat="46.11718" lon="4.52573">
        <ele>701.6</ele>
        <time>2025-09-06T10:24:02Z</time>
      </trkpt>
      <trkpt lat="46.11719" lon="4.52577">
        <ele>702</ele>
        <time>2025-09-06T10:24:03Z</time>
      </trkpt>
      <trkpt lat="46.1172" lon="4.52582">
        <ele>702</ele>
        <time>2025-09-06T10:24:04Z</time>
      </trkpt>
      <trkpt lat="46.11721" lon="4.52587">
        <ele>702.2</ele>
        <time>2025-09-06T10:24:05Z</time>
      </trkpt>
      <trkpt lat="46.11721" lon="4.5259">
        <ele>702.2</ele>
        <time>2025-09-06T10:24:06Z</time>
      </trkpt>
      <trkpt lat="46.11722" lon="4.52593">
        <ele>702.4</ele>
        <time>2025-09-06T10:24:07Z</time>
      </trkpt>
      <trkpt lat="46.11724" lon="4.52596">
        <ele>702.4</ele>
        <time>2025-09-06T10:24:08Z</time>
      </trkpt>
      <trkpt lat="46.11725" lon="4.52599">
        <ele>702.8</ele>
        <time>2025-09-06T10:24:09Z</time>
      </trkpt>
      <trkpt lat="46.11726" lon="4.52602">
        <ele>702.8</ele>
        <time>2025-09-06T10:24:10Z</time>
      </trkpt>
      <trkpt lat="46.11727" lon="4.52605">
        <ele>703.2</ele>
        <time>2025-09-06T10:24:11Z</time>
      </trkpt>
      <trkpt lat="46.11727" lon="4.52608">
        <ele>703.2</ele>
        <time>2025-09-06T10:24:12Z</time>
      </trkpt>
      <trkpt lat="46.11728" lon="4.52611">
        <ele>703.4</ele>
        <time>2025-09-06T10:24:13Z</time>
      </trkpt>
      <trkpt lat="46.11728" lon="4.52614">
        <ele>703.4</ele>
        <time>2025-09-06T10:24:14Z</time>
      </trkpt>
      <trkpt lat="46.11729" lon="4.52617">
        <ele>703.8</ele>
        <time>2025-09-06T10:24:15Z</time>
      </trkpt>
      <trkpt lat="46.1173" lon="4.5262">
        <ele>703.8</ele>
        <time>2025-09-06T10:24:16Z</time>
      </trkpt>
      <trkpt lat="46.11731" lon="4.52623">
        <ele>704.2</ele>
        <time>2025-09-06T10:24:17Z</time>
      </trkpt>
      <trkpt lat="46.11732" lon="4.52625">
        <ele>704.2</ele>
        <time>2025-09-06T10:24:18Z</time>
      </trkpt>
      <trkpt lat="46.11733" lon="4.52628">
        <ele>704.8</ele>
        <time>2025-09-06T10:24:19Z</time>
      </trkpt>
      <trkpt lat="46.11734" lon="4.5263">
        <ele>704.8</ele>
        <time>2025-09-06T10:24:20Z</time>
      </trkpt>
      <trkpt lat="46.11735" lon="4.52633">
        <ele>705</ele>
        <time>2025-09-06T10:24:21Z</time>
      </trkpt>
      <trkpt lat="46.11735" lon="4.52635">
        <ele>705</ele>
        <time>2025-09-06T10:24:22Z</time>
      </trkpt>
      <trkpt lat="46.11736" lon="4.52638">
        <ele>705</ele>
        <time>2025-09-06T10:24:23Z</time>
      </trkpt>
      <trkpt lat="46.11737" lon="4.5264">
        <ele>705.4</ele>
        <time>2025-09-06T10:24:24Z</time>
      </trkpt>
      <trkpt lat="46.11737" lon="4.52642">
        <ele>705.4</ele>
        <time>2025-09-06T10:24:25Z</time>
      </trkpt>
      <trkpt lat="46.11738" lon="4.52645">
        <ele>705.4</ele>
        <time>2025-09-06T10:24:26Z</time>
      </trkpt>
      <trkpt lat="46.11738" lon="4.52647">
        <ele>705.6</ele>
        <time>2025-09-06T10:24:27Z</time>
      </trkpt>
      <trkpt lat="46.11739" lon="4.5265">
        <ele>705.6</ele>
        <time>2025-09-06T10:24:28Z</time>
      </trkpt>
      <trkpt lat="46.11739" lon="4.52652">
        <ele>705.8</ele>
        <time>2025-09-06T10:24:29Z</time>
      </trkpt>
      <trkpt lat="46.11739" lon="4.52654">
        <ele>705.8</ele>
        <time>2025-09-06T10:24:30Z</time>
      </trkpt>
      <trkpt lat="46.11739" lon="4.52656">
        <ele>706.4</ele>
        <time>2025-09-06T10:24:31Z</time>
      </trkpt>
      <trkpt lat="46.1174" lon="4.52658">
        <ele>706.6</ele>
        <time>2025-09-06T10:24:32Z</time>
      </trkpt>
      <trkpt lat="46.11741" lon="4.52661">
        <ele>706.6</ele>
        <time>2025-09-06T10:24:33Z</time>
      </trkpt>
      <trkpt lat="46.11742" lon="4.52662">
        <ele>707</ele>
        <time>2025-09-06T10:24:34Z</time>
      </trkpt>
      <trkpt lat="46.11743" lon="4.52665">
        <ele>707.2</ele>
        <time>2025-09-06T10:24:35Z</time>
      </trkpt>
      <trkpt lat="46.11743" lon="4.52667">
        <ele>707.2</ele>
        <time>2025-09-06T10:24:36Z</time>
      </trkpt>
      <trkpt lat="46.11743" lon="4.52669">
        <ele>707.2</ele>
        <time>2025-09-06T10:24:37Z</time>
      </trkpt>
      <trkpt lat="46.11743" lon="4.52671">
        <ele>707.2</ele>
        <time>2025-09-06T10:24:38Z</time>
      </trkpt>
      <trkpt lat="46.11744" lon="4.52673">
        <ele>707.2</ele>
        <time>2025-09-06T10:24:39Z</time>
      </trkpt>
      <trkpt lat="46.11745" lon="4.52675">
        <ele>707.6</ele>
        <time>2025-09-06T10:24:40Z</time>
      </trkpt>
      <trkpt lat="46.11746" lon="4.52678">
        <ele>707.6</ele>
        <time>2025-09-06T10:24:41Z</time>
      </trkpt>
      <trkpt lat="46.11747" lon="4.5268">
        <ele>708.2</ele>
        <time>2025-09-06T10:24:42Z</time>
      </trkpt>
      <trkpt lat="46.11748" lon="4.52681">
        <ele>708.2</ele>
        <time>2025-09-06T10:24:43Z</time>
      </trkpt>
      <trkpt lat="46.11749" lon="4.52683">
        <ele>708.8</ele>
        <time>2025-09-06T10:24:44Z</time>
      </trkpt>
      <trkpt lat="46.1175" lon="4.52685">
        <ele>709</ele>
        <time>2025-09-06T10:24:45Z</time>
      </trkpt>
      <trkpt lat="46.1175" lon="4.52687">
        <ele>709</ele>
        <time>2025-09-06T10:24:46Z</time>
      </trkpt>
      <trkpt lat="46.11751" lon="4.52689">
        <ele>709</ele>
        <time>2025-09-06T10:24:47Z</time>
      </trkpt>
      <trkpt lat="46.11751" lon="4.52689">
        <ele>709</ele>
        <time>2025-09-06T10:24:48Z</time>
      </trkpt>
      <trkpt lat="46.11751" lon="4.52691">
        <ele>709.4</ele>
        <time>2025-09-06T10:24:49Z</time>
      </trkpt>
      <trkpt lat="46.11751" lon="4.52694">
        <ele>709.4</ele>
        <time>2025-09-06T10:24:50Z</time>
      </trkpt>
      <trkpt lat="46.11752" lon="4.52696">
        <ele>709.8</ele>
        <time>2025-09-06T10:24:51Z</time>
      </trkpt>
      <trkpt lat="46.11753" lon="4.52698">
        <ele>710.2</ele>
        <time>2025-09-06T10:24:52Z</time>
      </trkpt>
      <trkpt lat="46.11754" lon="4.527">
        <ele>710.2</ele>
        <time>2025-09-06T10:24:53Z</time>
      </trkpt>
      <trkpt lat="46.11754" lon="4.52702">
        <ele>710.2</ele>
        <time>2025-09-06T10:24:54Z</time>
      </trkpt>
      <trkpt lat="46.11755" lon="4.52704">
        <ele>710.2</ele>
        <time>2025-09-06T10:24:55Z</time>
      </trkpt>
      <trkpt lat="46.11756" lon="4.52706">
        <ele>710.2</ele>
        <time>2025-09-06T10:24:56Z</time>
      </trkpt>
      <trkpt lat="46.11757" lon="4.52708">
        <ele>710.2</ele>
        <time>2025-09-06T10:24:57Z</time>
      </trkpt>
      <trkpt lat="46.11758" lon="4.5271">
        <ele>710.2</ele>
        <time>2025-09-06T10:24:58Z</time>
      </trkpt>
      <trkpt lat="46.11759" lon="4.52712">
        <ele>710.2</ele>
        <time>2025-09-06T10:24:59Z</time>
      </trkpt>
      <trkpt lat="46.1176" lon="4.52714">
        <ele>710.4</ele>
        <time>2025-09-06T10:25:00Z</time>
      </trkpt>
      <trkpt lat="46.1176" lon="4.52717">
        <ele>710.4</ele>
        <time>2025-09-06T10:25:01Z</time>
      </trkpt>
      <trkpt lat="46.11761" lon="4.52719">
        <ele>710.6</ele>
        <time>2025-09-06T10:25:02Z</time>
      </trkpt>
      <trkpt lat="46.11761" lon="4.5272">
        <ele>711</ele>
        <time>2025-09-06T10:25:03Z</time>
      </trkpt>
      <trkpt lat="46.11761" lon="4.52722">
        <ele>711</ele>
        <time>2025-09-06T10:25:04Z</time>
      </trkpt>
      <trkpt lat="46.11762" lon="4.52724">
        <ele>711</ele>
        <time>2025-09-06T10:25:05Z</time>
      </trkpt>
      <trkpt lat="46.11763" lon="4.52727">
        <ele>711.2</ele>
        <time>2025-09-06T10:25:06Z</time>
      </trkpt>
      <trkpt lat="46.11763" lon="4.52729">
        <ele>711.2</ele>
        <time>2025-09-06T10:25:07Z</time>
      </trkpt>
      <trkpt lat="46.11764" lon="4.52732">
        <ele>711.2</ele>
        <time>2025-09-06T10:25:08Z</time>
      </trkpt>
      <trkpt lat="46.11765" lon="4.52735">
        <ele>711.6</ele>
        <time>2025-09-06T10:25:09Z</time>
      </trkpt>
      <trkpt lat="46.11766" lon="4.52737">
        <ele>711.6</ele>
        <time>2025-09-06T10:25:10Z</time>
      </trkpt>
      <trkpt lat="46.11766" lon="4.52739">
        <ele>711.6</ele>
        <time>2025-09-06T10:25:11Z</time>
      </trkpt>
      <trkpt lat="46.11767" lon="4.52741">
        <ele>712.2</ele>
        <time>2025-09-06T10:25:12Z</time>
      </trkpt>
      <trkpt lat="46.11768" lon="4.52744">
        <ele>712.2</ele>
        <time>2025-09-06T10:25:13Z</time>
      </trkpt>
      <trkpt lat="46.11769" lon="4.52745">
        <ele>712.2</ele>
        <time>2025-09-06T10:25:14Z</time>
      </trkpt>
      <trkpt lat="46.11769" lon="4.52747">
        <ele>712.8</ele>
        <time>2025-09-06T10:25:15Z</time>
      </trkpt>
      <trkpt lat="46.11769" lon="4.52749">
        <ele>712.4</ele>
        <time>2025-09-06T10:25:16Z</time>
      </trkpt>
      <trkpt lat="46.1177" lon="4.52751">
        <ele>712.6</ele>
        <time>2025-09-06T10:25:17Z</time>
      </trkpt>
      <trkpt lat="46.1177" lon="4.52752">
        <ele>712.6</ele>
        <time>2025-09-06T10:25:18Z</time>
      </trkpt>
      <trkpt lat="46.11771" lon="4.52753">
        <ele>713.2</ele>
        <time>2025-09-06T10:25:19Z</time>
      </trkpt>
      <trkpt lat="46.11772" lon="4.52754">
        <ele>713.2</ele>
        <time>2025-09-06T10:25:20Z</time>
      </trkpt>
      <trkpt lat="46.11772" lon="4.52756">
        <ele>713.4</ele>
        <time>2025-09-06T10:25:21Z</time>
      </trkpt>
      <trkpt lat="46.11773" lon="4.52757">
        <ele>713.6</ele>
        <time>2025-09-06T10:25:22Z</time>
      </trkpt>
      <trkpt lat="46.11774" lon="4.52759">
        <ele>714</ele>
        <time>2025-09-06T10:25:23Z</time>
      </trkpt>
      <trkpt lat="46.11775" lon="4.5276">
        <ele>714</ele>
        <time>2025-09-06T10:25:24Z</time>
      </trkpt>
      <trkpt lat="46.11775" lon="4.52761">
        <ele>714.4</ele>
        <time>2025-09-06T10:25:25Z</time>
      </trkpt>
      <trkpt lat="46.11776" lon="4.52763">
        <ele>714.4</ele>
        <time>2025-09-06T10:25:26Z</time>
      </trkpt>
      <trkpt lat="46.11777" lon="4.52764">
        <ele>714.4</ele>
        <time>2025-09-06T10:25:27Z</time>
      </trkpt>
      <trkpt lat="46.11778" lon="4.52765">
        <ele>714.6</ele>
        <time>2025-09-06T10:25:28Z</time>
      </trkpt>
      <trkpt lat="46.11779" lon="4.52766">
        <ele>714.6</ele>
        <time>2025-09-06T10:25:29Z</time>
      </trkpt>
      <trkpt lat="46.1178" lon="4.52767">
        <ele>714.6</ele>
        <time>2025-09-06T10:25:30Z</time>
      </trkpt>
      <trkpt lat="46.11781" lon="4.52768">
        <ele>714.6</ele>
        <time>2025-09-06T10:25:31Z</time>
      </trkpt>
      <trkpt lat="46.11782" lon="4.5277">
        <ele>715</ele>
        <time>2025-09-06T10:25:32Z</time>
      </trkpt>
      <trkpt lat="46.11783" lon="4.52771">
        <ele>715</ele>
        <time>2025-09-06T10:25:33Z</time>
      </trkpt>
      <trkpt lat="46.11784" lon="4.52772">
        <ele>715.4</ele>
        <time>2025-09-06T10:25:34Z</time>
      </trkpt>
      <trkpt lat="46.11785" lon="4.52773">
        <ele>715.4</ele>
        <time>2025-09-06T10:25:35Z</time>
      </trkpt>
      <trkpt lat="46.11786" lon="4.52775">
        <ele>715.4</ele>
        <time>2025-09-06T10:25:36Z</time>
      </trkpt>
      <trkpt lat="46.11786" lon="4.52777">
        <ele>715.4</ele>
        <time>2025-09-06T10:25:37Z</time>
      </trkpt>
      <trkpt lat="46.11787" lon="4.52778">
        <ele>715.8</ele>
        <time>2025-09-06T10:25:38Z</time>
      </trkpt>
      <trkpt lat="46.11788" lon="4.52779">
        <ele>716</ele>
        <time>2025-09-06T10:25:39Z</time>
      </trkpt>
      <trkpt lat="46.11789" lon="4.5278">
        <ele>716.2</ele>
        <time>2025-09-06T10:25:40Z</time>
      </trkpt>
      <trkpt lat="46.1179" lon="4.52782">
        <ele>716.2</ele>
        <time>2025-09-06T10:25:41Z</time>
      </trkpt>
      <trkpt lat="46.11791" lon="4.52783">
        <ele>716.8</ele>
        <time>2025-09-06T10:25:42Z</time>
      </trkpt>
      <trkpt lat="46.11792" lon="4.52784">
        <ele>716.8</ele>
        <time>2025-09-06T10:25:43Z</time>
      </trkpt>
      <trkpt lat="46.11793" lon="4.52786">
        <ele>717</ele>
        <time>2025-09-06T10:25:44Z</time>
      </trkpt>
      <trkpt lat="46.11793" lon="4.52787">
        <ele>717.6</ele>
        <time>2025-09-06T10:25:45Z</time>
      </trkpt>
      <trkpt lat="46.11794" lon="4.52788">
        <ele>717.6</ele>
        <time>2025-09-06T10:25:46Z</time>
      </trkpt>
      <trkpt lat="46.11795" lon="4.5279">
        <ele>717.6</ele>
        <time>2025-09-06T10:25:47Z</time>
      </trkpt>
      <trkpt lat="46.11796" lon="4.52791">
        <ele>717.6</ele>
        <time>2025-09-06T10:25:48Z</time>
      </trkpt>
      <trkpt lat="46.11797" lon="4.52792">
        <ele>717.6</ele>
        <time>2025-09-06T10:25:49Z</time>
      </trkpt>
      <trkpt lat="46.11798" lon="4.52793">
        <ele>718</ele>
        <time>2025-09-06T10:25:50Z</time>
      </trkpt>
      <trkpt lat="46.11799" lon="4.52795">
        <ele>718.2</ele>
        <time>2025-09-06T10:25:51Z</time>
      </trkpt>
      <trkpt lat="46.11799" lon="4.52796">
        <ele>718.2</ele>
        <time>2025-09-06T10:25:52Z</time>
      </trkpt>
      <trkpt lat="46.118" lon="4.52798">
        <ele>718.8</ele>
        <time>2025-09-06T10:25:53Z</time>
      </trkpt>
      <trkpt lat="46.11801" lon="4.52799">
        <ele>718.8</ele>
        <time>2025-09-06T10:25:54Z</time>
      </trkpt>
      <trkpt lat="46.11802" lon="4.528">
        <ele>718.8</ele>
        <time>2025-09-06T10:25:55Z</time>
      </trkpt>
      <trkpt lat="46.11804" lon="4.52801">
        <ele>719</ele>
        <time>2025-09-06T10:25:56Z</time>
      </trkpt>
      <trkpt lat="46.11805" lon="4.52802">
        <ele>719</ele>
        <time>2025-09-06T10:25:57Z</time>
      </trkpt>
      <trkpt lat="46.11807" lon="4.52804">
        <ele>718.8</ele>
        <time>2025-09-06T10:25:58Z</time>
      </trkpt>
      <trkpt lat="46.11808" lon="4.52805">
        <ele>718.8</ele>
        <time>2025-09-06T10:25:59Z</time>
      </trkpt>
      <trkpt lat="46.11809" lon="4.52807">
        <ele>719</ele>
        <time>2025-09-06T10:26:00Z</time>
      </trkpt>
      <trkpt lat="46.1181" lon="4.52808">
        <ele>719.4</ele>
        <time>2025-09-06T10:26:01Z</time>
      </trkpt>
      <trkpt lat="46.11811" lon="4.5281">
        <ele>719.4</ele>
        <time>2025-09-06T10:26:02Z</time>
      </trkpt>
      <trkpt lat="46.11812" lon="4.52812">
        <ele>719.4</ele>
        <time>2025-09-06T10:26:03Z</time>
      </trkpt>
      <trkpt lat="46.11813" lon="4.52813">
        <ele>719.6</ele>
        <time>2025-09-06T10:26:04Z</time>
      </trkpt>
      <trkpt lat="46.11814" lon="4.52815">
        <ele>719.6</ele>
        <time>2025-09-06T10:26:05Z</time>
      </trkpt>
      <trkpt lat="46.11815" lon="4.52816">
        <ele>719.6</ele>
        <time>2025-09-06T10:26:06Z</time>
      </trkpt>
      <trkpt lat="46.11816" lon="4.52818">
        <ele>720</ele>
        <time>2025-09-06T10:26:07Z</time>
      </trkpt>
      <trkpt lat="46.11817" lon="4.5282">
        <ele>720</ele>
        <time>2025-09-06T10:26:08Z</time>
      </trkpt>
      <trkpt lat="46.11818" lon="4.52821">
        <ele>719.8</ele>
        <time>2025-09-06T10:26:09Z</time>
      </trkpt>
      <trkpt lat="46.1182" lon="4.52823">
        <ele>719.8</ele>
        <time>2025-09-06T10:26:10Z</time>
      </trkpt>
      <trkpt lat="46.11821" lon="4.52825">
        <ele>719.8</ele>
        <time>2025-09-06T10:26:11Z</time>
      </trkpt>
      <trkpt lat="46.11822" lon="4.52826">
        <ele>720</ele>
        <time>2025-09-06T10:26:12Z</time>
      </trkpt>
      <trkpt lat="46.11824" lon="4.52828">
        <ele>720</ele>
        <time>2025-09-06T10:26:13Z</time>
      </trkpt>
      <trkpt lat="46.11825" lon="4.5283">
        <ele>720</ele>
        <time>2025-09-06T10:26:14Z</time>
      </trkpt>
      <trkpt lat="46.11826" lon="4.52832">
        <ele>720.2</ele>
        <time>2025-09-06T10:26:15Z</time>
      </trkpt>
      <trkpt lat="46.11827" lon="4.52833">
        <ele>720.2</ele>
        <time>2025-09-06T10:26:16Z</time>
      </trkpt>
      <trkpt lat="46.11828" lon="4.52835">
        <ele>720.2</ele>
        <time>2025-09-06T10:26:17Z</time>
      </trkpt>
      <trkpt lat="46.11829" lon="4.52837">
        <ele>720.2</ele>
        <time>2025-09-06T10:26:18Z</time>
      </trkpt>
      <trkpt lat="46.1183" lon="4.52839">
        <ele>720.6</ele>
        <time>2025-09-06T10:26:19Z</time>
      </trkpt>
      <trkpt lat="46.11832" lon="4.5284">
        <ele>720.6</ele>
        <time>2025-09-06T10:26:20Z</time>
      </trkpt>
      <trkpt lat="46.11833" lon="4.52842">
        <ele>721</ele>
        <time>2025-09-06T10:26:21Z</time>
      </trkpt>
      <trkpt lat="46.11834" lon="4.52844">
        <ele>721.2</ele>
        <time>2025-09-06T10:26:22Z</time>
      </trkpt>
      <trkpt lat="46.11835" lon="4.52845">
        <ele>721.2</ele>
        <time>2025-09-06T10:26:23Z</time>
      </trkpt>
      <trkpt lat="46.11836" lon="4.52847">
        <ele>721.2</ele>
        <time>2025-09-06T10:26:24Z</time>
      </trkpt>
      <trkpt lat="46.11838" lon="4.52848">
        <ele>721.2</ele>
        <time>2025-09-06T10:26:25Z</time>
      </trkpt>
      <trkpt lat="46.11839" lon="4.5285">
        <ele>721.2</ele>
        <time>2025-09-06T10:26:26Z</time>
      </trkpt>
      <trkpt lat="46.1184" lon="4.52851">
        <ele>721.6</ele>
        <time>2025-09-06T10:26:27Z</time>
      </trkpt>
      <trkpt lat="46.11841" lon="4.52853">
        <ele>721.6</ele>
        <time>2025-09-06T10:26:28Z</time>
      </trkpt>
      <trkpt lat="46.11841" lon="4.52854">
        <ele>721.6</ele>
        <time>2025-09-06T10:26:29Z</time>
      </trkpt>
      <trkpt lat="46.11843" lon="4.52856">
        <ele>721.6</ele>
        <time>2025-09-06T10:26:30Z</time>
      </trkpt>
      <trkpt lat="46.11844" lon="4.52857">
        <ele>721.6</ele>
        <time>2025-09-06T10:26:31Z</time>
      </trkpt>
      <trkpt lat="46.11845" lon="4.52859">
        <ele>721.6</ele>
        <time>2025-09-06T10:26:32Z</time>
      </trkpt>
      <trkpt lat="46.11846" lon="4.5286">
        <ele>721.8</ele>
        <time>2025-09-06T10:26:33Z</time>
      </trkpt>
      <trkpt lat="46.11847" lon="4.52862">
        <ele>722.2</ele>
        <time>2025-09-06T10:26:34Z</time>
      </trkpt>
      <trkpt lat="46.11848" lon="4.52864">
        <ele>722.2</ele>
        <time>2025-09-06T10:26:35Z</time>
      </trkpt>
      <trkpt lat="46.11849" lon="4.52865">
        <ele>722.6</ele>
        <time>2025-09-06T10:26:36Z</time>
      </trkpt>
      <trkpt lat="46.1185" lon="4.52867">
        <ele>723.2</ele>
        <time>2025-09-06T10:26:37Z</time>
      </trkpt>
      <trkpt lat="46.11851" lon="4.52868">
        <ele>723.2</ele>
        <time>2025-09-06T10:26:38Z</time>
      </trkpt>
      <trkpt lat="46.11852" lon="4.52869">
        <ele>723.2</ele>
        <time>2025-09-06T10:26:39Z</time>
      </trkpt>
      <trkpt lat="46.11854" lon="4.52871">
        <ele>722.8</ele>
        <time>2025-09-06T10:26:40Z</time>
      </trkpt>
      <trkpt lat="46.11855" lon="4.52872">
        <ele>722.8</ele>
        <time>2025-09-06T10:26:41Z</time>
      </trkpt>
      <trkpt lat="46.11856" lon="4.52874">
        <ele>722.8</ele>
        <time>2025-09-06T10:26:42Z</time>
      </trkpt>
      <trkpt lat="46.11857" lon="4.52876">
        <ele>723.2</ele>
        <time>2025-09-06T10:26:43Z</time>
      </trkpt>
      <trkpt lat="46.11859" lon="4.52877">
        <ele>723.2</ele>
        <time>2025-09-06T10:26:44Z</time>
      </trkpt>
      <trkpt lat="46.1186" lon="4.52878">
        <ele>723.4</ele>
        <time>2025-09-06T10:26:45Z</time>
      </trkpt>
      <trkpt lat="46.11861" lon="4.5288">
        <ele>723.4</ele>
        <time>2025-09-06T10:26:46Z</time>
      </trkpt>
      <trkpt lat="46.11863" lon="4.52881">
        <ele>723.8</ele>
        <time>2025-09-06T10:26:47Z</time>
      </trkpt>
      <trkpt lat="46.11864" lon="4.52882">
        <ele>723.8</ele>
        <time>2025-09-06T10:26:48Z</time>
      </trkpt>
      <trkpt lat="46.11865" lon="4.52884">
        <ele>723.8</ele>
        <time>2025-09-06T10:26:49Z</time>
      </trkpt>
      <trkpt lat="46.11867" lon="4.52885">
        <ele>724</ele>
        <time>2025-09-06T10:26:50Z</time>
      </trkpt>
      <trkpt lat="46.11868" lon="4.52887">
        <ele>723.8</ele>
        <time>2025-09-06T10:26:51Z</time>
      </trkpt>
      <trkpt lat="46.11869" lon="4.52889">
        <ele>723.8</ele>
        <time>2025-09-06T10:26:52Z</time>
      </trkpt>
      <trkpt lat="46.1187" lon="4.52891">
        <ele>724</ele>
        <time>2025-09-06T10:26:53Z</time>
      </trkpt>
      <trkpt lat="46.11871" lon="4.52892">
        <ele>724</ele>
        <time>2025-09-06T10:26:54Z</time>
      </trkpt>
      <trkpt lat="46.11872" lon="4.52893">
        <ele>724</ele>
        <time>2025-09-06T10:26:55Z</time>
      </trkpt>
      <trkpt lat="46.11873" lon="4.52895">
        <ele>724.2</ele>
        <time>2025-09-06T10:26:56Z</time>
      </trkpt>
      <trkpt lat="46.11874" lon="4.52896">
        <ele>724.2</ele>
        <time>2025-09-06T10:26:57Z</time>
      </trkpt>
      <trkpt lat="46.11875" lon="4.52898">
        <ele>724.6</ele>
        <time>2025-09-06T10:26:58Z</time>
      </trkpt>
      <trkpt lat="46.11876" lon="4.529">
        <ele>724.6</ele>
        <time>2025-09-06T10:26:59Z</time>
      </trkpt>
      <trkpt lat="46.11877" lon="4.52901">
        <ele>724.6</ele>
        <time>2025-09-06T10:27:00Z</time>
      </trkpt>
      <trkpt lat="46.11878" lon="4.52903">
        <ele>724.8</ele>
        <time>2025-09-06T10:27:01Z</time>
      </trkpt>
      <trkpt lat="46.11879" lon="4.52904">
        <ele>724.8</ele>
        <time>2025-09-06T10:27:02Z</time>
      </trkpt>
      <trkpt lat="46.11881" lon="4.52905">
        <ele>724.8</ele>
        <time>2025-09-06T10:27:03Z</time>
      </trkpt>
      <trkpt lat="46.11882" lon="4.52906">
        <ele>725</ele>
        <time>2025-09-06T10:27:04Z</time>
      </trkpt>
      <trkpt lat="46.11883" lon="4.52908">
        <ele>725.2</ele>
        <time>2025-09-06T10:27:05Z</time>
      </trkpt>
      <trkpt lat="46.11884" lon="4.5291">
        <ele>725.2</ele>
        <time>2025-09-06T10:27:06Z</time>
      </trkpt>
      <trkpt lat="46.11885" lon="4.52911">
        <ele>725.4</ele>
        <time>2025-09-06T10:27:07Z</time>
      </trkpt>
      <trkpt lat="46.11887" lon="4.52913">
        <ele>725.8</ele>
        <time>2025-09-06T10:27:08Z</time>
      </trkpt>
      <trkpt lat="46.11888" lon="4.52914">
        <ele>725.6</ele>
        <time>2025-09-06T10:27:09Z</time>
      </trkpt>
      <trkpt lat="46.11889" lon="4.52915">
        <ele>725.6</ele>
        <time>2025-09-06T10:27:10Z</time>
      </trkpt>
      <trkpt lat="46.1189" lon="4.52917">
        <ele>725.6</ele>
        <time>2025-09-06T10:27:11Z</time>
      </trkpt>
      <trkpt lat="46.11891" lon="4.52918">
        <ele>725.8</ele>
        <time>2025-09-06T10:27:12Z</time>
      </trkpt>
      <trkpt lat="46.11892" lon="4.5292">
        <ele>725.8</ele>
        <time>2025-09-06T10:27:13Z</time>
      </trkpt>
      <trkpt lat="46.11893" lon="4.52921">
        <ele>726</ele>
        <time>2025-09-06T10:27:14Z</time>
      </trkpt>
      <trkpt lat="46.11894" lon="4.52923">
        <ele>726.2</ele>
        <time>2025-09-06T10:27:15Z</time>
      </trkpt>
      <trkpt lat="46.11895" lon="4.52924">
        <ele>726.6</ele>
        <time>2025-09-06T10:27:16Z</time>
      </trkpt>
      <trkpt lat="46.11896" lon="4.52926">
        <ele>726.6</ele>
        <time>2025-09-06T10:27:17Z</time>
      </trkpt>
      <trkpt lat="46.11897" lon="4.52927">
        <ele>726.6</ele>
        <time>2025-09-06T10:27:18Z</time>
      </trkpt>
      <trkpt lat="46.11898" lon="4.52929">
        <ele>726.8</ele>
        <time>2025-09-06T10:27:19Z</time>
      </trkpt>
      <trkpt lat="46.11899" lon="4.5293">
        <ele>727.4</ele>
        <time>2025-09-06T10:27:20Z</time>
      </trkpt>
      <trkpt lat="46.119" lon="4.52931">
        <ele>727.4</ele>
        <time>2025-09-06T10:27:21Z</time>
      </trkpt>
      <trkpt lat="46.11901" lon="4.52932">
        <ele>727.6</ele>
        <time>2025-09-06T10:27:22Z</time>
      </trkpt>
      <trkpt lat="46.11902" lon="4.52933">
        <ele>727.6</ele>
        <time>2025-09-06T10:27:23Z</time>
      </trkpt>
      <trkpt lat="46.11904" lon="4.52934">
        <ele>727.6</ele>
        <time>2025-09-06T10:27:24Z</time>
      </trkpt>
      <trkpt lat="46.11905" lon="4.52936">
        <ele>727.8</ele>
        <time>2025-09-06T10:27:25Z</time>
      </trkpt>
      <trkpt lat="46.11906" lon="4.52937">
        <ele>727.8</ele>
        <time>2025-09-06T10:27:26Z</time>
      </trkpt>
      <trkpt lat="46.11908" lon="4.52938">
        <ele>728.2</ele>
        <time>2025-09-06T10:27:27Z</time>
      </trkpt>
      <trkpt lat="46.11909" lon="4.52939">
        <ele>728.2</ele>
        <time>2025-09-06T10:27:28Z</time>
      </trkpt>
      <trkpt lat="46.1191" lon="4.5294">
        <ele>728.4</ele>
        <time>2025-09-06T10:27:29Z</time>
      </trkpt>
      <trkpt lat="46.11911" lon="4.52941">
        <ele>728.8</ele>
        <time>2025-09-06T10:27:30Z</time>
      </trkpt>
      <trkpt lat="46.11911" lon="4.52941">
        <ele>728.8</ele>
        <time>2025-09-06T10:27:31Z</time>
      </trkpt>
      <trkpt lat="46.11911" lon="4.52941">
        <ele>728.8</ele>
        <time>2025-09-06T10:27:32Z</time>
      </trkpt>
      <trkpt lat="46.11917" lon="4.52944">
        <ele>729</ele>
        <time>2025-09-06T10:27:34Z</time>
      </trkpt>
      <trkpt lat="46.11918" lon="4.52944">
        <ele>729.6</ele>
        <time>2025-09-06T10:27:35Z</time>
      </trkpt>
      <trkpt lat="46.1192" lon="4.52945">
        <ele>729.8</ele>
        <time>2025-09-06T10:27:36Z</time>
      </trkpt>
      <trkpt lat="46.11922" lon="4.52946">
        <ele>730.2</ele>
        <time>2025-09-06T10:27:37Z</time>
      </trkpt>
      <trkpt lat="46.11923" lon="4.52946">
        <ele>730.6</ele>
        <time>2025-09-06T10:27:38Z</time>
      </trkpt>
      <trkpt lat="46.11925" lon="4.52947">
        <ele>730.6</ele>
        <time>2025-09-06T10:27:39Z</time>
      </trkpt>
      <trkpt lat="46.11926" lon="4.52948">
        <ele>730.6</ele>
        <time>2025-09-06T10:27:40Z</time>
      </trkpt>
      <trkpt lat="46.11928" lon="4.52948">
        <ele>731</ele>
        <time>2025-09-06T10:27:41Z</time>
      </trkpt>
      <trkpt lat="46.11929" lon="4.52949">
        <ele>731</ele>
        <time>2025-09-06T10:27:42Z</time>
      </trkpt>
      <trkpt lat="46.1193" lon="4.5295">
        <ele>731</ele>
        <time>2025-09-06T10:27:43Z</time>
      </trkpt>
      <trkpt lat="46.11932" lon="4.52951">
        <ele>731.2</ele>
        <time>2025-09-06T10:27:44Z</time>
      </trkpt>
      <trkpt lat="46.11933" lon="4.52951">
        <ele>731.2</ele>
        <time>2025-09-06T10:27:45Z</time>
      </trkpt>
      <trkpt lat="46.11934" lon="4.52952">
        <ele>731.6</ele>
        <time>2025-09-06T10:27:46Z</time>
      </trkpt>
      <trkpt lat="46.11936" lon="4.52953">
        <ele>731.6</ele>
        <time>2025-09-06T10:27:47Z</time>
      </trkpt>
      <trkpt lat="46.11937" lon="4.52954">
        <ele>731.8</ele>
        <time>2025-09-06T10:27:48Z</time>
      </trkpt>
      <trkpt lat="46.11939" lon="4.52954">
        <ele>731.8</ele>
        <time>2025-09-06T10:27:49Z</time>
      </trkpt>
      <trkpt lat="46.1194" lon="4.52954">
        <ele>732.2</ele>
        <time>2025-09-06T10:27:50Z</time>
      </trkpt>
      <trkpt lat="46.11942" lon="4.52955">
        <ele>732.2</ele>
        <time>2025-09-06T10:27:51Z</time>
      </trkpt>
      <trkpt lat="46.11943" lon="4.52956">
        <ele>732.2</ele>
        <time>2025-09-06T10:27:52Z</time>
      </trkpt>
      <trkpt lat="46.11943" lon="4.52956">
        <ele>732.4</ele>
        <time>2025-09-06T10:27:53Z</time>
      </trkpt>
      <trkpt lat="46.11944" lon="4.52956">
        <ele>732.4</ele>
        <time>2025-09-06T10:27:54Z</time>
      </trkpt>
      <trkpt lat="46.11945" lon="4.52957">
        <ele>732.8</ele>
        <time>2025-09-06T10:27:55Z</time>
      </trkpt>
      <trkpt lat="46.11946" lon="4.52958">
        <ele>732.8</ele>
        <time>2025-09-06T10:27:56Z</time>
      </trkpt>
      <trkpt lat="46.11947" lon="4.52959">
        <ele>733</ele>
        <time>2025-09-06T10:27:57Z</time>
      </trkpt>
      <trkpt lat="46.11948" lon="4.5296">
        <ele>733</ele>
        <time>2025-09-06T10:27:58Z</time>
      </trkpt>
      <trkpt lat="46.11949" lon="4.52961">
        <ele>733</ele>
        <time>2025-09-06T10:27:59Z</time>
      </trkpt>
      <trkpt lat="46.11951" lon="4.52962">
        <ele>733.2</ele>
        <time>2025-09-06T10:28:00Z</time>
      </trkpt>
      <trkpt lat="46.11952" lon="4.52963">
        <ele>733.2</ele>
        <time>2025-09-06T10:28:01Z</time>
      </trkpt>
      <trkpt lat="46.11953" lon="4.52964">
        <ele>733.6</ele>
        <time>2025-09-06T10:28:02Z</time>
      </trkpt>
      <trkpt lat="46.11954" lon="4.52964">
        <ele>733.6</ele>
        <time>2025-09-06T10:28:03Z</time>
      </trkpt>
      <trkpt lat="46.11955" lon="4.52964">
        <ele>733.6</ele>
        <time>2025-09-06T10:28:04Z</time>
      </trkpt>
      <trkpt lat="46.11956" lon="4.52964">
        <ele>733.6</ele>
        <time>2025-09-06T10:28:05Z</time>
      </trkpt>
      <trkpt lat="46.11958" lon="4.52965">
        <ele>733.6</ele>
        <time>2025-09-06T10:28:06Z</time>
      </trkpt>
      <trkpt lat="46.11958" lon="4.52965">
        <ele>734</ele>
        <time>2025-09-06T10:28:07Z</time>
      </trkpt>
      <trkpt lat="46.11958" lon="4.52965">
        <ele>734</ele>
        <time>2025-09-06T10:28:08Z</time>
      </trkpt>
      <trkpt lat="46.11964" lon="4.52964">
        <ele>734.2</ele>
        <time>2025-09-06T10:29:15Z</time>
      </trkpt>
      <trkpt lat="46.11965" lon="4.52964">
        <ele>734.2</ele>
        <time>2025-09-06T10:29:16Z</time>
      </trkpt>
      <trkpt lat="46.11966" lon="4.52963">
        <ele>734.2</ele>
        <time>2025-09-06T10:29:17Z</time>
      </trkpt>
      <trkpt lat="46.11967" lon="4.52963">
        <ele>734.2</ele>
        <time>2025-09-06T10:29:18Z</time>
      </trkpt>
      <trkpt lat="46.11967" lon="4.52962">
        <ele>734.2</ele>
        <time>2025-09-06T10:29:19Z</time>
      </trkpt>
      <trkpt lat="46.11967" lon="4.52962">
        <ele>734.2</ele>
        <time>2025-09-06T10:29:20Z</time>
      </trkpt>
      <trkpt lat="46.11967" lon="4.52963">
        <ele>734.2</ele>
        <time>2025-09-06T10:29:21Z</time>
      </trkpt>
      <trkpt lat="46.11969" lon="4.52962">
        <ele>735</ele>
        <time>2025-09-06T10:29:34Z</time>
      </trkpt>
      <trkpt lat="46.11971" lon="4.52962">
        <ele>734.8</ele>
        <time>2025-09-06T10:29:35Z</time>
      </trkpt>
      <trkpt lat="46.11972" lon="4.52962">
        <ele>734.8</ele>
        <time>2025-09-06T10:29:36Z</time>
      </trkpt>
      <trkpt lat="46.11974" lon="4.52963">
        <ele>734.8</ele>
        <time>2025-09-06T10:29:37Z</time>
      </trkpt>
      <trkpt lat="46.11975" lon="4.52964">
        <ele>735</ele>
        <time>2025-09-06T10:29:38Z</time>
      </trkpt>
      <trkpt lat="46.11977" lon="4.52965">
        <ele>735.2</ele>
        <time>2025-09-06T10:29:39Z</time>
      </trkpt>
      <trkpt lat="46.11978" lon="4.52966">
        <ele>735.2</ele>
        <time>2025-09-06T10:29:40Z</time>
      </trkpt>
      <trkpt lat="46.1198" lon="4.52967">
        <ele>735.2</ele>
        <time>2025-09-06T10:29:41Z</time>
      </trkpt>
      <trkpt lat="46.11982" lon="4.52967">
        <ele>735.8</ele>
        <time>2025-09-06T10:29:42Z</time>
      </trkpt>
      <trkpt lat="46.11984" lon="4.52968">
        <ele>736</ele>
        <time>2025-09-06T10:29:43Z</time>
      </trkpt>
      <trkpt lat="46.11985" lon="4.52968">
        <ele>736</ele>
        <time>2025-09-06T10:29:44Z</time>
      </trkpt>
      <trkpt lat="46.11986" lon="4.52967">
        <ele>736</ele>
        <time>2025-09-06T10:29:45Z</time>
      </trkpt>
      <trkpt lat="46.11988" lon="4.52968">
        <ele>736</ele>
        <time>2025-09-06T10:29:46Z</time>
      </trkpt>
      <trkpt lat="46.11989" lon="4.52968">
        <ele>736.2</ele>
        <time>2025-09-06T10:29:47Z</time>
      </trkpt>
      <trkpt lat="46.11991" lon="4.52969">
        <ele>736.4</ele>
        <time>2025-09-06T10:29:48Z</time>
      </trkpt>
      <trkpt lat="46.11992" lon="4.52969">
        <ele>736.4</ele>
        <time>2025-09-06T10:29:49Z</time>
      </trkpt>
      <trkpt lat="46.11994" lon="4.5297">
        <ele>736.4</ele>
        <time>2025-09-06T10:29:50Z</time>
      </trkpt>
      <trkpt lat="46.11996" lon="4.52971">
        <ele>736.4</ele>
        <time>2025-09-06T10:29:51Z</time>
      </trkpt>
      <trkpt lat="46.11998" lon="4.52972">
        <ele>736.4</ele>
        <time>2025-09-06T10:29:52Z</time>
      </trkpt>
      <trkpt lat="46.12" lon="4.52973">
        <ele>736.8</ele>
        <time>2025-09-06T10:29:53Z</time>
      </trkpt>
      <trkpt lat="46.12001" lon="4.52974">
        <ele>737.2</ele>
        <time>2025-09-06T10:29:54Z</time>
      </trkpt>
      <trkpt lat="46.12003" lon="4.52975">
        <ele>737.2</ele>
        <time>2025-09-06T10:29:55Z</time>
      </trkpt>
      <trkpt lat="46.12003" lon="4.52975">
        <ele>737.4</ele>
        <time>2025-09-06T10:29:56Z</time>
      </trkpt>
      <trkpt lat="46.12003" lon="4.52975">
        <ele>737.4</ele>
        <time>2025-09-06T10:29:57Z</time>
      </trkpt>
      <trkpt lat="46.12003" lon="4.52975">
        <ele>737.4</ele>
        <time>2025-09-06T10:29:58Z</time>
      </trkpt>
      <trkpt lat="46.12003" lon="4.52975">
        <ele>737.6</ele>
        <time>2025-09-06T10:29:59Z</time>
      </trkpt>
      <trkpt lat="46.12001" lon="4.52975">
        <ele>738.2</ele>
        <time>2025-09-06T10:30:20Z</time>
      </trkpt>
      <trkpt lat="46.12" lon="4.52974">
        <ele>737.8</ele>
        <time>2025-09-06T10:30:21Z</time>
      </trkpt>
      <trkpt lat="46.12" lon="4.52974">
        <ele>737.8</ele>
        <time>2025-09-06T10:30:22Z</time>
      </trkpt>
      <trkpt lat="46.11998" lon="4.52974">
        <ele>738.2</ele>
        <time>2025-09-06T10:30:23Z</time>
      </trkpt>
      <trkpt lat="46.11996" lon="4.52973">
        <ele>738</ele>
        <time>2025-09-06T10:30:24Z</time>
      </trkpt>
      <trkpt lat="46.11994" lon="4.52972">
        <ele>738.2</ele>
        <time>2025-09-06T10:30:25Z</time>
      </trkpt>
      <trkpt lat="46.11992" lon="4.52972">
        <ele>737.2</ele>
        <time>2025-09-06T10:30:26Z</time>
      </trkpt>
      <trkpt lat="46.11989" lon="4.52973">
        <ele>737.2</ele>
        <time>2025-09-06T10:30:27Z</time>
      </trkpt>
      <trkpt lat="46.11987" lon="4.52974">
        <ele>737.8</ele>
        <time>2025-09-06T10:30:28Z</time>
      </trkpt>
      <trkpt lat="46.11986" lon="4.52976">
        <ele>737.6</ele>
        <time>2025-09-06T10:30:29Z</time>
      </trkpt>
      <trkpt lat="46.11984" lon="4.52978">
        <ele>736.8</ele>
        <time>2025-09-06T10:30:30Z</time>
      </trkpt>
      <trkpt lat="46.11983" lon="4.52981">
        <ele>736.6</ele>
        <time>2025-09-06T10:30:31Z</time>
      </trkpt>
      <trkpt lat="46.11982" lon="4.52984">
        <ele>737</ele>
        <time>2025-09-06T10:30:32Z</time>
      </trkpt>
      <trkpt lat="46.11981" lon="4.52987">
        <ele>737.2</ele>
        <time>2025-09-06T10:30:33Z</time>
      </trkpt>
      <trkpt lat="46.1198" lon="4.5299">
        <ele>737.2</ele>
        <time>2025-09-06T10:30:34Z</time>
      </trkpt>
      <trkpt lat="46.11979" lon="4.52993">
        <ele>737.2</ele>
        <time>2025-09-06T10:30:35Z</time>
      </trkpt>
      <trkpt lat="46.11979" lon="4.52996">
        <ele>736.8</ele>
        <time>2025-09-06T10:30:36Z</time>
      </trkpt>
      <trkpt lat="46.11978" lon="4.52999">
        <ele>736.8</ele>
        <time>2025-09-06T10:30:37Z</time>
      </trkpt>
      <trkpt lat="46.11977" lon="4.53002">
        <ele>737.2</ele>
        <time>2025-09-06T10:30:38Z</time>
      </trkpt>
      <trkpt lat="46.11976" lon="4.53006">
        <ele>737.2</ele>
        <time>2025-09-06T10:30:39Z</time>
      </trkpt>
      <trkpt lat="46.11974" lon="4.53009">
        <ele>737.4</ele>
        <time>2025-09-06T10:30:40Z</time>
      </trkpt>
      <trkpt lat="46.11973" lon="4.53012">
        <ele>737.4</ele>
        <time>2025-09-06T10:30:41Z</time>
      </trkpt>
      <trkpt lat="46.11972" lon="4.53015">
        <ele>737.6</ele>
        <time>2025-09-06T10:30:42Z</time>
      </trkpt>
      <trkpt lat="46.11971" lon="4.53018">
        <ele>736.8</ele>
        <time>2025-09-06T10:30:43Z</time>
      </trkpt>
      <trkpt lat="46.1197" lon="4.53021">
        <ele>737.4</ele>
        <time>2025-09-06T10:30:44Z</time>
      </trkpt>
      <trkpt lat="46.11969" lon="4.53023">
        <ele>737.8</ele>
        <time>2025-09-06T10:30:45Z</time>
      </trkpt>
      <trkpt lat="46.11967" lon="4.53026">
        <ele>738.2</ele>
        <time>2025-09-06T10:30:46Z</time>
      </trkpt>
      <trkpt lat="46.11966" lon="4.53029">
        <ele>738.2</ele>
        <time>2025-09-06T10:30:47Z</time>
      </trkpt>
      <trkpt lat="46.11965" lon="4.53031">
        <ele>738.6</ele>
        <time>2025-09-06T10:30:48Z</time>
      </trkpt>
      <trkpt lat="46.11964" lon="4.53034">
        <ele>738.6</ele>
        <time>2025-09-06T10:30:49Z</time>
      </trkpt>
      <trkpt lat="46.11963" lon="4.53037">
        <ele>738.6</ele>
        <time>2025-09-06T10:30:50Z</time>
      </trkpt>
      <trkpt lat="46.11963" lon="4.53039">
        <ele>738.6</ele>
        <time>2025-09-06T10:30:51Z</time>
      </trkpt>
      <trkpt lat="46.11962" lon="4.53042">
        <ele>738.6</ele>
        <time>2025-09-06T10:30:52Z</time>
      </trkpt>
      <trkpt lat="46.1196" lon="4.53044">
        <ele>738.8</ele>
        <time>2025-09-06T10:30:53Z</time>
      </trkpt>
      <trkpt lat="46.11959" lon="4.53047">
        <ele>738.8</ele>
        <time>2025-09-06T10:30:54Z</time>
      </trkpt>
      <trkpt lat="46.11958" lon="4.5305">
        <ele>738.8</ele>
        <time>2025-09-06T10:30:55Z</time>
      </trkpt>
      <trkpt lat="46.11957" lon="4.53052">
        <ele>739.4</ele>
        <time>2025-09-06T10:30:56Z</time>
      </trkpt>
      <trkpt lat="46.11956" lon="4.53055">
        <ele>739</ele>
        <time>2025-09-06T10:30:57Z</time>
      </trkpt>
      <trkpt lat="46.11955" lon="4.53057">
        <ele>739</ele>
        <time>2025-09-06T10:30:58Z</time>
      </trkpt>
      <trkpt lat="46.11954" lon="4.53059">
        <ele>739.6</ele>
        <time>2025-09-06T10:30:59Z</time>
      </trkpt>
      <trkpt lat="46.11952" lon="4.53061">
        <ele>739.4</ele>
        <time>2025-09-06T10:31:00Z</time>
      </trkpt>
      <trkpt lat="46.11951" lon="4.53063">
        <ele>739.6</ele>
        <time>2025-09-06T10:31:01Z</time>
      </trkpt>
      <trkpt lat="46.1195" lon="4.53065">
        <ele>740</ele>
        <time>2025-09-06T10:31:02Z</time>
      </trkpt>
      <trkpt lat="46.11949" lon="4.53067">
        <ele>740.2</ele>
        <time>2025-09-06T10:31:03Z</time>
      </trkpt>
      <trkpt lat="46.11947" lon="4.53069">
        <ele>740</ele>
        <time>2025-09-06T10:31:04Z</time>
      </trkpt>
      <trkpt lat="46.11946" lon="4.53071">
        <ele>740</ele>
        <time>2025-09-06T10:31:05Z</time>
      </trkpt>
      <trkpt lat="46.11946" lon="4.53071">
        <ele>740</ele>
        <time>2025-09-06T10:31:06Z</time>
      </trkpt>
      <trkpt lat="46.11945" lon="4.53073">
        <ele>740</ele>
        <time>2025-09-06T10:31:07Z</time>
      </trkpt>
      <trkpt lat="46.11944" lon="4.53075">
        <ele>740.2</ele>
        <time>2025-09-06T10:31:08Z</time>
      </trkpt>
      <trkpt lat="46.11943" lon="4.53078">
        <ele>740.2</ele>
        <time>2025-09-06T10:31:09Z</time>
      </trkpt>
      <trkpt lat="46.11942" lon="4.5308">
        <ele>740</ele>
        <time>2025-09-06T10:31:10Z</time>
      </trkpt>
      <trkpt lat="46.11941" lon="4.53082">
        <ele>740</ele>
        <time>2025-09-06T10:31:11Z</time>
      </trkpt>
      <trkpt lat="46.11939" lon="4.53085">
        <ele>740.4</ele>
        <time>2025-09-06T10:31:12Z</time>
      </trkpt>
      <trkpt lat="46.11938" lon="4.53087">
        <ele>740.4</ele>
        <time>2025-09-06T10:31:13Z</time>
      </trkpt>
      <trkpt lat="46.11937" lon="4.53089">
        <ele>740.8</ele>
        <time>2025-09-06T10:31:14Z</time>
      </trkpt>
      <trkpt lat="46.11935" lon="4.53091">
        <ele>741.2</ele>
        <time>2025-09-06T10:31:15Z</time>
      </trkpt>
      <trkpt lat="46.11934" lon="4.53094">
        <ele>741.2</ele>
        <time>2025-09-06T10:31:16Z</time>
      </trkpt>
      <trkpt lat="46.11933" lon="4.53096">
        <ele>741</ele>
        <time>2025-09-06T10:31:17Z</time>
      </trkpt>
      <trkpt lat="46.11932" lon="4.53098">
        <ele>741</ele>
        <time>2025-09-06T10:31:18Z</time>
      </trkpt>
      <trkpt lat="46.11931" lon="4.531">
        <ele>741.6</ele>
        <time>2025-09-06T10:31:19Z</time>
      </trkpt>
      <trkpt lat="46.11929" lon="4.53103">
        <ele>741.6</ele>
        <time>2025-09-06T10:31:20Z</time>
      </trkpt>
      <trkpt lat="46.11928" lon="4.53105">
        <ele>741.2</ele>
        <time>2025-09-06T10:31:21Z</time>
      </trkpt>
      <trkpt lat="46.11926" lon="4.53106">
        <ele>741.2</ele>
        <time>2025-09-06T10:31:22Z</time>
      </trkpt>
      <trkpt lat="46.11925" lon="4.53108">
        <ele>741.8</ele>
        <time>2025-09-06T10:31:23Z</time>
      </trkpt>
      <trkpt lat="46.11924" lon="4.53111">
        <ele>741.6</ele>
        <time>2025-09-06T10:31:24Z</time>
      </trkpt>
      <trkpt lat="46.11923" lon="4.53113">
        <ele>741.6</ele>
        <time>2025-09-06T10:31:25Z</time>
      </trkpt>
      <trkpt lat="46.11922" lon="4.53115">
        <ele>741.6</ele>
        <time>2025-09-06T10:31:26Z</time>
      </trkpt>
      <trkpt lat="46.1192" lon="4.53118">
        <ele>741.6</ele>
        <time>2025-09-06T10:31:27Z</time>
      </trkpt>
      <trkpt lat="46.11919" lon="4.5312">
        <ele>741.8</ele>
        <time>2025-09-06T10:31:28Z</time>
      </trkpt>
      <trkpt lat="46.11918" lon="4.53122">
        <ele>741.8</ele>
        <time>2025-09-06T10:31:29Z</time>
      </trkpt>
      <trkpt lat="46.11917" lon="4.53125">
        <ele>741.8</ele>
        <time>2025-09-06T10:31:30Z</time>
      </trkpt>
      <trkpt lat="46.11915" lon="4.53127">
        <ele>741.6</ele>
        <time>2025-09-06T10:31:31Z</time>
      </trkpt>
      <trkpt lat="46.11913" lon="4.53129">
        <ele>741.2</ele>
        <time>2025-09-06T10:31:32Z</time>
      </trkpt>
      <trkpt lat="46.11912" lon="4.53131">
        <ele>741.2</ele>
        <time>2025-09-06T10:31:33Z</time>
      </trkpt>
      <trkpt lat="46.1191" lon="4.53134">
        <ele>741.2</ele>
        <time>2025-09-06T10:31:34Z</time>
      </trkpt>
      <trkpt lat="46.11907" lon="4.53139">
        <ele>741.2</ele>
        <time>2025-09-06T10:31:35Z</time>
      </trkpt>
      <trkpt lat="46.11904" lon="4.53141">
        <ele>741.4</ele>
        <time>2025-09-06T10:31:36Z</time>
      </trkpt>
      <trkpt lat="46.11902" lon="4.53143">
        <ele>741</ele>
        <time>2025-09-06T10:31:37Z</time>
      </trkpt>
      <trkpt lat="46.119" lon="4.53144">
        <ele>741</ele>
        <time>2025-09-06T10:31:38Z</time>
      </trkpt>
      <trkpt lat="46.11898" lon="4.53146">
        <ele>741</ele>
        <time>2025-09-06T10:31:39Z</time>
      </trkpt>
      <trkpt lat="46.11896" lon="4.53147">
        <ele>741</ele>
        <time>2025-09-06T10:31:40Z</time>
      </trkpt>
      <trkpt lat="46.11896" lon="4.53147">
        <ele>741</ele>
        <time>2025-09-06T10:31:41Z</time>
      </trkpt>
      <trkpt lat="46.11897" lon="4.53147">
        <ele>741.2</ele>
        <time>2025-09-06T10:31:42Z</time>
      </trkpt>
      <trkpt lat="46.11897" lon="4.53147">
        <ele>741.2</ele>
        <time>2025-09-06T10:31:43Z</time>
      </trkpt>
      <trkpt lat="46.11894" lon="4.53147">
        <ele>740.8</ele>
        <time>2025-09-06T10:31:46Z</time>
      </trkpt>
      <trkpt lat="46.11893" lon="4.53147">
        <ele>740.8</ele>
        <time>2025-09-06T10:31:47Z</time>
      </trkpt>
      <trkpt lat="46.1189" lon="4.53148">
        <ele>740.6</ele>
        <time>2025-09-06T10:31:48Z</time>
      </trkpt>
      <trkpt lat="46.11889" lon="4.53148">
        <ele>740.8</ele>
        <time>2025-09-06T10:31:49Z</time>
      </trkpt>
      <trkpt lat="46.11888" lon="4.53149">
        <ele>740.8</ele>
        <time>2025-09-06T10:31:50Z</time>
      </trkpt>
      <trkpt lat="46.11888" lon="4.5315">
        <ele>741</ele>
        <time>2025-09-06T10:31:51Z</time>
      </trkpt>
      <trkpt lat="46.11889" lon="4.5315">
        <ele>741</ele>
        <time>2025-09-06T10:31:52Z</time>
      </trkpt>
      <trkpt lat="46.11888" lon="4.5315">
        <ele>741</ele>
        <time>2025-09-06T10:31:53Z</time>
      </trkpt>
      <trkpt lat="46.11886" lon="4.5315">
        <ele>740.8</ele>
        <time>2025-09-06T10:31:54Z</time>
      </trkpt>
      <trkpt lat="46.11884" lon="4.53151">
        <ele>740.8</ele>
        <time>2025-09-06T10:31:55Z</time>
      </trkpt>
      <trkpt lat="46.11882" lon="4.53152">
        <ele>741.2</ele>
        <time>2025-09-06T10:31:56Z</time>
      </trkpt>
      <trkpt lat="46.11879" lon="4.53154">
        <ele>740.6</ele>
        <time>2025-09-06T10:31:57Z</time>
      </trkpt>
      <trkpt lat="46.11877" lon="4.53157">
        <ele>740.6</ele>
        <time>2025-09-06T10:31:58Z</time>
      </trkpt>
      <trkpt lat="46.11874" lon="4.53159">
        <ele>740.4</ele>
        <time>2025-09-06T10:31:59Z</time>
      </trkpt>
      <trkpt lat="46.11872" lon="4.53161">
        <ele>740</ele>
        <time>2025-09-06T10:32:00Z</time>
      </trkpt>
      <trkpt lat="46.1187" lon="4.53164">
        <ele>739.8</ele>
        <time>2025-09-06T10:32:01Z</time>
      </trkpt>
      <trkpt lat="46.11868" lon="4.53166">
        <ele>739.8</ele>
        <time>2025-09-06T10:32:02Z</time>
      </trkpt>
      <trkpt lat="46.11865" lon="4.53168">
        <ele>739.6</ele>
        <time>2025-09-06T10:32:03Z</time>
      </trkpt>
      <trkpt lat="46.11863" lon="4.53169">
        <ele>739.4</ele>
        <time>2025-09-06T10:32:04Z</time>
      </trkpt>
      <trkpt lat="46.11862" lon="4.53171">
        <ele>739.4</ele>
        <time>2025-09-06T10:32:05Z</time>
      </trkpt>
      <trkpt lat="46.11861" lon="4.53172">
        <ele>739.4</ele>
        <time>2025-09-06T10:32:06Z</time>
      </trkpt>
      <trkpt lat="46.1186" lon="4.53173">
        <ele>739.4</ele>
        <time>2025-09-06T10:32:07Z</time>
      </trkpt>
      <trkpt lat="46.11859" lon="4.53173">
        <ele>739.4</ele>
        <time>2025-09-06T10:32:08Z</time>
      </trkpt>
      <trkpt lat="46.11859" lon="4.53173">
        <ele>739.4</ele>
        <time>2025-09-06T10:32:09Z</time>
      </trkpt>
      <trkpt lat="46.11859" lon="4.53174">
        <ele>739.4</ele>
        <time>2025-09-06T10:32:10Z</time>
      </trkpt>
      <trkpt lat="46.11857" lon="4.53173">
        <ele>739.2</ele>
        <time>2025-09-06T10:33:17Z</time>
      </trkpt>
      <trkpt lat="46.11855" lon="4.53173">
        <ele>739</ele>
        <time>2025-09-06T10:33:18Z</time>
      </trkpt>
      <trkpt lat="46.11854" lon="4.53173">
        <ele>739</ele>
        <time>2025-09-06T10:33:19Z</time>
      </trkpt>
      <trkpt lat="46.11853" lon="4.53175">
        <ele>739</ele>
        <time>2025-09-06T10:33:20Z</time>
      </trkpt>
      <trkpt lat="46.11852" lon="4.53176">
        <ele>739</ele>
        <time>2025-09-06T10:33:21Z</time>
      </trkpt>
      <trkpt lat="46.11853" lon="4.53178">
        <ele>738.6</ele>
        <time>2025-09-06T10:33:22Z</time>
      </trkpt>
      <trkpt lat="46.11853" lon="4.53178">
        <ele>738.6</ele>
        <time>2025-09-06T10:33:23Z</time>
      </trkpt>
      <trkpt lat="46.11853" lon="4.53179">
        <ele>738.4</ele>
        <time>2025-09-06T10:33:24Z</time>
      </trkpt>
      <trkpt lat="46.11854" lon="4.53179">
        <ele>738.4</ele>
        <time>2025-09-06T10:33:25Z</time>
      </trkpt>
      <trkpt lat="46.11854" lon="4.53179">
        <ele>738.4</ele>
        <time>2025-09-06T10:33:26Z</time>
      </trkpt>
      <trkpt lat="46.11856" lon="4.53177">
        <ele>738.4</ele>
        <time>2025-09-06T10:33:30Z</time>
      </trkpt>
      <trkpt lat="46.11857" lon="4.53176">
        <ele>738.8</ele>
        <time>2025-09-06T10:33:31Z</time>
      </trkpt>
      <trkpt lat="46.11858" lon="4.53175">
        <ele>738.8</ele>
        <time>2025-09-06T10:33:32Z</time>
      </trkpt>
      <trkpt lat="46.1186" lon="4.53174">
        <ele>739.2</ele>
        <time>2025-09-06T10:33:33Z</time>
      </trkpt>
      <trkpt lat="46.11861" lon="4.53173">
        <ele>739.2</ele>
        <time>2025-09-06T10:33:34Z</time>
      </trkpt>
      <trkpt lat="46.11863" lon="4.53172">
        <ele>739.2</ele>
        <time>2025-09-06T10:33:35Z</time>
      </trkpt>
      <trkpt lat="46.11864" lon="4.5317">
        <ele>739.2</ele>
        <time>2025-09-06T10:33:36Z</time>
      </trkpt>
      <trkpt lat="46.11866" lon="4.53169">
        <ele>739.4</ele>
        <time>2025-09-06T10:33:37Z</time>
      </trkpt>
      <trkpt lat="46.11867" lon="4.53167">
        <ele>739.8</ele>
        <time>2025-09-06T10:33:38Z</time>
      </trkpt>
      <trkpt lat="46.11868" lon="4.53166">
        <ele>739.8</ele>
        <time>2025-09-06T10:33:39Z</time>
      </trkpt>
      <trkpt lat="46.11869" lon="4.53165">
        <ele>739.8</ele>
        <time>2025-09-06T10:33:40Z</time>
      </trkpt>
      <trkpt lat="46.11871" lon="4.53164">
        <ele>739.8</ele>
        <time>2025-09-06T10:33:41Z</time>
      </trkpt>
      <trkpt lat="46.11871" lon="4.53162">
        <ele>739.8</ele>
        <time>2025-09-06T10:33:42Z</time>
      </trkpt>
      <trkpt lat="46.11873" lon="4.53161">
        <ele>740</ele>
        <time>2025-09-06T10:33:43Z</time>
      </trkpt>
      <trkpt lat="46.11875" lon="4.5316">
        <ele>740</ele>
        <time>2025-09-06T10:33:44Z</time>
      </trkpt>
      <trkpt lat="46.11876" lon="4.53159">
        <ele>740</ele>
        <time>2025-09-06T10:33:45Z</time>
      </trkpt>
      <trkpt lat="46.11878" lon="4.53157">
        <ele>740</ele>
        <time>2025-09-06T10:33:46Z</time>
      </trkpt>
      <trkpt lat="46.11879" lon="4.53156">
        <ele>740.4</ele>
        <time>2025-09-06T10:33:47Z</time>
      </trkpt>
      <trkpt lat="46.1188" lon="4.53154">
        <ele>740.4</ele>
        <time>2025-09-06T10:33:48Z</time>
      </trkpt>
      <trkpt lat="46.11881" lon="4.53153">
        <ele>740.4</ele>
        <time>2025-09-06T10:33:49Z</time>
      </trkpt>
      <trkpt lat="46.11883" lon="4.53153">
        <ele>740.4</ele>
        <time>2025-09-06T10:33:50Z</time>
      </trkpt>
      <trkpt lat="46.11884" lon="4.53152">
        <ele>740.8</ele>
        <time>2025-09-06T10:33:51Z</time>
      </trkpt>
      <trkpt lat="46.11886" lon="4.53151">
        <ele>740.8</ele>
        <time>2025-09-06T10:33:52Z</time>
      </trkpt>
      <trkpt lat="46.11887" lon="4.5315">
        <ele>740.8</ele>
        <time>2025-09-06T10:33:53Z</time>
      </trkpt>
      <trkpt lat="46.1189" lon="4.53149">
        <ele>740.8</ele>
        <time>2025-09-06T10:33:54Z</time>
      </trkpt>
      <trkpt lat="46.11892" lon="4.53148">
        <ele>740.8</ele>
        <time>2025-09-06T10:33:55Z</time>
      </trkpt>
      <trkpt lat="46.11894" lon="4.53147">
        <ele>740.8</ele>
        <time>2025-09-06T10:33:56Z</time>
      </trkpt>
      <trkpt lat="46.11895" lon="4.53146">
        <ele>740.8</ele>
        <time>2025-09-06T10:33:57Z</time>
      </trkpt>
      <trkpt lat="46.11897" lon="4.53145">
        <ele>740.8</ele>
        <time>2025-09-06T10:33:58Z</time>
      </trkpt>
      <trkpt lat="46.11899" lon="4.53144">
        <ele>740.8</ele>
        <time>2025-09-06T10:33:59Z</time>
      </trkpt>
      <trkpt lat="46.11901" lon="4.53143">
        <ele>740.8</ele>
        <time>2025-09-06T10:34:00Z</time>
      </trkpt>
      <trkpt lat="46.11902" lon="4.53142">
        <ele>740.8</ele>
        <time>2025-09-06T10:34:01Z</time>
      </trkpt>
      <trkpt lat="46.11904" lon="4.53142">
        <ele>740.8</ele>
        <time>2025-09-06T10:34:02Z</time>
      </trkpt>
      <trkpt lat="46.11905" lon="4.53142">
        <ele>740.8</ele>
        <time>2025-09-06T10:34:03Z</time>
      </trkpt>
      <trkpt lat="46.11906" lon="4.53142">
        <ele>741.2</ele>
        <time>2025-09-06T10:34:04Z</time>
      </trkpt>
      <trkpt lat="46.11906" lon="4.53142">
        <ele>741.2</ele>
        <time>2025-09-06T10:34:05Z</time>
      </trkpt>
      <trkpt lat="46.11902" lon="4.53146">
        <ele>741.6</ele>
        <time>2025-09-06T12:06:41Z</time>
      </trkpt>
      <trkpt lat="46.11901" lon="4.53146">
        <ele>741.6</ele>
        <time>2025-09-06T12:06:42Z</time>
      </trkpt>
      <trkpt lat="46.11899" lon="4.53146">
        <ele>741.6</ele>
        <time>2025-09-06T12:06:43Z</time>
      </trkpt>
      <trkpt lat="46.11897" lon="4.53145">
        <ele>741.6</ele>
        <time>2025-09-06T12:06:44Z</time>
      </trkpt>
      <trkpt lat="46.11896" lon="4.53144">
        <ele>741.6</ele>
        <time>2025-09-06T12:06:45Z</time>
      </trkpt>
      <trkpt lat="46.11896" lon="4.53143">
        <ele>741.4</ele>
        <time>2025-09-06T12:06:46Z</time>
      </trkpt>
      <trkpt lat="46.11896" lon="4.53141">
        <ele>741.4</ele>
        <time>2025-09-06T12:06:47Z</time>
      </trkpt>
      <trkpt lat="46.11896" lon="4.53139">
        <ele>741.4</ele>
        <time>2025-09-06T12:06:48Z</time>
      </trkpt>
      <trkpt lat="46.11899" lon="4.53136">
        <ele>741.4</ele>
        <time>2025-09-06T12:06:49Z</time>
      </trkpt>
      <trkpt lat="46.11901" lon="4.53135">
        <ele>741.4</ele>
        <time>2025-09-06T12:06:50Z</time>
      </trkpt>
      <trkpt lat="46.11902" lon="4.53134">
        <ele>741.4</ele>
        <time>2025-09-06T12:06:51Z</time>
      </trkpt>
      <trkpt lat="46.11904" lon="4.53134">
        <ele>741.4</ele>
        <time>2025-09-06T12:06:52Z</time>
      </trkpt>
      <trkpt lat="46.11906" lon="4.53134">
        <ele>741</ele>
        <time>2025-09-06T12:06:53Z</time>
      </trkpt>
      <trkpt lat="46.11907" lon="4.53134">
        <ele>741</ele>
        <time>2025-09-06T12:06:54Z</time>
      </trkpt>
      <trkpt lat="46.11909" lon="4.53135">
        <ele>741.2</ele>
        <time>2025-09-06T12:06:55Z</time>
      </trkpt>
      <trkpt lat="46.11911" lon="4.53136">
        <ele>741.6</ele>
        <time>2025-09-06T12:06:56Z</time>
      </trkpt>
      <trkpt lat="46.11913" lon="4.53137">
        <ele>741.6</ele>
        <time>2025-09-06T12:06:57Z</time>
      </trkpt>
      <trkpt lat="46.11915" lon="4.53137">
        <ele>742</ele>
        <time>2025-09-06T12:06:58Z</time>
      </trkpt>
      <trkpt lat="46.11917" lon="4.53137">
        <ele>742</ele>
        <time>2025-09-06T12:06:59Z</time>
      </trkpt>
      <trkpt lat="46.11919" lon="4.53136">
        <ele>742.4</ele>
        <time>2025-09-06T12:07:00Z</time>
      </trkpt>
      <trkpt lat="46.11921" lon="4.53135">
        <ele>742.4</ele>
        <time>2025-09-06T12:07:01Z</time>
      </trkpt>
      <trkpt lat="46.11923" lon="4.53135">
        <ele>742.4</ele>
        <time>2025-09-06T12:07:02Z</time>
      </trkpt>
      <trkpt lat="46.11925" lon="4.53134">
        <ele>742.4</ele>
        <time>2025-09-06T12:07:03Z</time>
      </trkpt>
      <trkpt lat="46.11927" lon="4.53133">
        <ele>742.6</ele>
        <time>2025-09-06T12:07:04Z</time>
      </trkpt>
      <trkpt lat="46.11929" lon="4.53132">
        <ele>742.4</ele>
        <time>2025-09-06T12:07:05Z</time>
      </trkpt>
      <trkpt lat="46.11931" lon="4.5313">
        <ele>742.4</ele>
        <time>2025-09-06T12:07:06Z</time>
      </trkpt>
      <trkpt lat="46.11933" lon="4.53129">
        <ele>742.4</ele>
        <time>2025-09-06T12:07:07Z</time>
      </trkpt>
      <trkpt lat="46.11934" lon="4.53128">
        <ele>742.6</ele>
        <time>2025-09-06T12:07:08Z</time>
      </trkpt>
      <trkpt lat="46.11937" lon="4.53128">
        <ele>742.6</ele>
        <time>2025-09-06T12:07:09Z</time>
      </trkpt>
      <trkpt lat="46.11939" lon="4.53127">
        <ele>743</ele>
        <time>2025-09-06T12:07:10Z</time>
      </trkpt>
      <trkpt lat="46.11941" lon="4.53126">
        <ele>743</ele>
        <time>2025-09-06T12:07:11Z</time>
      </trkpt>
      <trkpt lat="46.11943" lon="4.53125">
        <ele>743</ele>
        <time>2025-09-06T12:07:12Z</time>
      </trkpt>
      <trkpt lat="46.11945" lon="4.53124">
        <ele>743</ele>
        <time>2025-09-06T12:07:13Z</time>
      </trkpt>
      <trkpt lat="46.11947" lon="4.53123">
        <ele>743</ele>
        <time>2025-09-06T12:07:14Z</time>
      </trkpt>
      <trkpt lat="46.11949" lon="4.53121">
        <ele>743</ele>
        <time>2025-09-06T12:07:15Z</time>
      </trkpt>
      <trkpt lat="46.11951" lon="4.5312">
        <ele>743</ele>
        <time>2025-09-06T12:07:16Z</time>
      </trkpt>
      <trkpt lat="46.11954" lon="4.53117">
        <ele>743</ele>
        <time>2025-09-06T12:07:17Z</time>
      </trkpt>
      <trkpt lat="46.11956" lon="4.53115">
        <ele>743</ele>
        <time>2025-09-06T12:07:18Z</time>
      </trkpt>
      <trkpt lat="46.11959" lon="4.53114">
        <ele>742.8</ele>
        <time>2025-09-06T12:07:19Z</time>
      </trkpt>
      <trkpt lat="46.11961" lon="4.53114">
        <ele>742.8</ele>
        <time>2025-09-06T12:07:20Z</time>
      </trkpt>
      <trkpt lat="46.11963" lon="4.53112">
        <ele>742.8</ele>
        <time>2025-09-06T12:07:21Z</time>
      </trkpt>
      <trkpt lat="46.11965" lon="4.5311">
        <ele>742.8</ele>
        <time>2025-09-06T12:07:22Z</time>
      </trkpt>
      <trkpt lat="46.11967" lon="4.53107">
        <ele>742.8</ele>
        <time>2025-09-06T12:07:23Z</time>
      </trkpt>
      <trkpt lat="46.11969" lon="4.53104">
        <ele>743</ele>
        <time>2025-09-06T12:07:24Z</time>
      </trkpt>
      <trkpt lat="46.11972" lon="4.53103">
        <ele>742.8</ele>
        <time>2025-09-06T12:07:25Z</time>
      </trkpt>
      <trkpt lat="46.11974" lon="4.53102">
        <ele>743.2</ele>
        <time>2025-09-06T12:07:26Z</time>
      </trkpt>
      <trkpt lat="46.11977" lon="4.53101">
        <ele>743.2</ele>
        <time>2025-09-06T12:07:27Z</time>
      </trkpt>
      <trkpt lat="46.11979" lon="4.531">
        <ele>743.4</ele>
        <time>2025-09-06T12:07:28Z</time>
      </trkpt>
      <trkpt lat="46.11981" lon="4.53098">
        <ele>743.4</ele>
        <time>2025-09-06T12:07:29Z</time>
      </trkpt>
      <trkpt lat="46.11983" lon="4.53096">
        <ele>743.4</ele>
        <time>2025-09-06T12:07:30Z</time>
      </trkpt>
      <trkpt lat="46.11985" lon="4.53095">
        <ele>743.4</ele>
        <time>2025-09-06T12:07:31Z</time>
      </trkpt>
      <trkpt lat="46.11987" lon="4.53092">
        <ele>743.8</ele>
        <time>2025-09-06T12:07:32Z</time>
      </trkpt>
      <trkpt lat="46.1199" lon="4.53089">
        <ele>743.8</ele>
        <time>2025-09-06T12:07:33Z</time>
      </trkpt>
      <trkpt lat="46.11992" lon="4.53087">
        <ele>743.4</ele>
        <time>2025-09-06T12:07:34Z</time>
      </trkpt>
      <trkpt lat="46.11995" lon="4.53086">
        <ele>743.6</ele>
        <time>2025-09-06T12:07:35Z</time>
      </trkpt>
      <trkpt lat="46.11997" lon="4.53085">
        <ele>743.6</ele>
        <time>2025-09-06T12:07:36Z</time>
      </trkpt>
      <trkpt lat="46.11999" lon="4.53083">
        <ele>744</ele>
        <time>2025-09-06T12:07:37Z</time>
      </trkpt>
      <trkpt lat="46.12001" lon="4.53082">
        <ele>744</ele>
        <time>2025-09-06T12:07:38Z</time>
      </trkpt>
      <trkpt lat="46.12003" lon="4.5308">
        <ele>744.4</ele>
        <time>2025-09-06T12:07:39Z</time>
      </trkpt>
      <trkpt lat="46.12005" lon="4.53079">
        <ele>744.4</ele>
        <time>2025-09-06T12:07:40Z</time>
      </trkpt>
      <trkpt lat="46.12006" lon="4.53077">
        <ele>744.4</ele>
        <time>2025-09-06T12:07:41Z</time>
      </trkpt>
      <trkpt lat="46.12008" lon="4.53076">
        <ele>744.8</ele>
        <time>2025-09-06T12:07:42Z</time>
      </trkpt>
      <trkpt lat="46.1201" lon="4.53075">
        <ele>745.4</ele>
        <time>2025-09-06T12:07:43Z</time>
      </trkpt>
      <trkpt lat="46.12011" lon="4.53074">
        <ele>745.4</ele>
        <time>2025-09-06T12:07:44Z</time>
      </trkpt>
      <trkpt lat="46.12013" lon="4.53073">
        <ele>745.4</ele>
        <time>2025-09-06T12:07:45Z</time>
      </trkpt>
      <trkpt lat="46.12015" lon="4.53072">
        <ele>745.4</ele>
        <time>2025-09-06T12:07:46Z</time>
      </trkpt>
      <trkpt lat="46.12016" lon="4.5307">
        <ele>745.4</ele>
        <time>2025-09-06T12:07:47Z</time>
      </trkpt>
      <trkpt lat="46.12018" lon="4.53069">
        <ele>745.6</ele>
        <time>2025-09-06T12:07:48Z</time>
      </trkpt>
      <trkpt lat="46.1202" lon="4.53067">
        <ele>745.6</ele>
        <time>2025-09-06T12:07:49Z</time>
      </trkpt>
      <trkpt lat="46.12022" lon="4.53065">
        <ele>745.2</ele>
        <time>2025-09-06T12:07:50Z</time>
      </trkpt>
      <trkpt lat="46.12024" lon="4.53064">
        <ele>745.2</ele>
        <time>2025-09-06T12:07:51Z</time>
      </trkpt>
      <trkpt lat="46.12026" lon="4.53063">
        <ele>745.6</ele>
        <time>2025-09-06T12:07:52Z</time>
      </trkpt>
      <trkpt lat="46.12028" lon="4.53061">
        <ele>745.6</ele>
        <time>2025-09-06T12:07:53Z</time>
      </trkpt>
      <trkpt lat="46.1203" lon="4.53059">
        <ele>745.6</ele>
        <time>2025-09-06T12:07:54Z</time>
      </trkpt>
      <trkpt lat="46.12032" lon="4.53058">
        <ele>745.2</ele>
        <time>2025-09-06T12:07:55Z</time>
      </trkpt>
      <trkpt lat="46.12034" lon="4.53056">
        <ele>745.2</ele>
        <time>2025-09-06T12:07:56Z</time>
      </trkpt>
      <trkpt lat="46.12036" lon="4.53054">
        <ele>745.2</ele>
        <time>2025-09-06T12:07:57Z</time>
      </trkpt>
      <trkpt lat="46.12038" lon="4.53053">
        <ele>745.6</ele>
        <time>2025-09-06T12:07:58Z</time>
      </trkpt>
      <trkpt lat="46.1204" lon="4.53051">
        <ele>745.6</ele>
        <time>2025-09-06T12:07:59Z</time>
      </trkpt>
      <trkpt lat="46.12042" lon="4.53049">
        <ele>745.6</ele>
        <time>2025-09-06T12:08:00Z</time>
      </trkpt>
      <trkpt lat="46.12044" lon="4.53048">
        <ele>745.6</ele>
        <time>2025-09-06T12:08:01Z</time>
      </trkpt>
      <trkpt lat="46.12046" lon="4.53047">
        <ele>746.2</ele>
        <time>2025-09-06T12:08:02Z</time>
      </trkpt>
      <trkpt lat="46.12047" lon="4.53046">
        <ele>746.2</ele>
        <time>2025-09-06T12:08:03Z</time>
      </trkpt>
      <trkpt lat="46.12048" lon="4.53045">
        <ele>746.2</ele>
        <time>2025-09-06T12:08:04Z</time>
      </trkpt>
      <trkpt lat="46.1205" lon="4.53043">
        <ele>746.2</ele>
        <time>2025-09-06T12:08:05Z</time>
      </trkpt>
      <trkpt lat="46.12052" lon="4.53042">
        <ele>746.2</ele>
        <time>2025-09-06T12:08:06Z</time>
      </trkpt>
      <trkpt lat="46.12054" lon="4.53041">
        <ele>746.2</ele>
        <time>2025-09-06T12:08:07Z</time>
      </trkpt>
      <trkpt lat="46.12056" lon="4.53039">
        <ele>746.2</ele>
        <time>2025-09-06T12:08:08Z</time>
      </trkpt>
      <trkpt lat="46.12058" lon="4.53038">
        <ele>746.6</ele>
        <time>2025-09-06T12:08:09Z</time>
      </trkpt>
      <trkpt lat="46.1206" lon="4.53036">
        <ele>746.6</ele>
        <time>2025-09-06T12:08:10Z</time>
      </trkpt>
      <trkpt lat="46.12062" lon="4.53035">
        <ele>746.6</ele>
        <time>2025-09-06T12:08:11Z</time>
      </trkpt>
      <trkpt lat="46.12064" lon="4.53034">
        <ele>747.2</ele>
        <time>2025-09-06T12:08:12Z</time>
      </trkpt>
      <trkpt lat="46.12066" lon="4.53032">
        <ele>747.2</ele>
        <time>2025-09-06T12:08:13Z</time>
      </trkpt>
      <trkpt lat="46.12067" lon="4.53031">
        <ele>747.2</ele>
        <time>2025-09-06T12:08:14Z</time>
      </trkpt>
      <trkpt lat="46.1207" lon="4.5303">
        <ele>747.2</ele>
        <time>2025-09-06T12:08:15Z</time>
      </trkpt>
      <trkpt lat="46.12072" lon="4.53028">
        <ele>747.6</ele>
        <time>2025-09-06T12:08:16Z</time>
      </trkpt>
      <trkpt lat="46.12074" lon="4.53028">
        <ele>747.6</ele>
        <time>2025-09-06T12:08:17Z</time>
      </trkpt>
      <trkpt lat="46.12076" lon="4.53027">
        <ele>747.8</ele>
        <time>2025-09-06T12:08:18Z</time>
      </trkpt>
      <trkpt lat="46.12078" lon="4.53026">
        <ele>747.8</ele>
        <time>2025-09-06T12:08:19Z</time>
      </trkpt>
      <trkpt lat="46.1208" lon="4.53025">
        <ele>747.8</ele>
        <time>2025-09-06T12:08:20Z</time>
      </trkpt>
      <trkpt lat="46.12082" lon="4.53024">
        <ele>748</ele>
        <time>2025-09-06T12:08:21Z</time>
      </trkpt>
      <trkpt lat="46.12084" lon="4.53023">
        <ele>748</ele>
        <time>2025-09-06T12:08:22Z</time>
      </trkpt>
      <trkpt lat="46.12086" lon="4.53023">
        <ele>748</ele>
        <time>2025-09-06T12:08:23Z</time>
      </trkpt>
      <trkpt lat="46.12088" lon="4.53022">
        <ele>748</ele>
        <time>2025-09-06T12:08:24Z</time>
      </trkpt>
      <trkpt lat="46.1209" lon="4.53021">
        <ele>748</ele>
        <time>2025-09-06T12:08:25Z</time>
      </trkpt>
      <trkpt lat="46.12093" lon="4.53021">
        <ele>747.6</ele>
        <time>2025-09-06T12:08:26Z</time>
      </trkpt>
      <trkpt lat="46.12096" lon="4.5302">
        <ele>748</ele>
        <time>2025-09-06T12:08:27Z</time>
      </trkpt>
      <trkpt lat="46.12099" lon="4.53019">
        <ele>748.4</ele>
        <time>2025-09-06T12:08:28Z</time>
      </trkpt>
      <trkpt lat="46.12102" lon="4.53018">
        <ele>748.4</ele>
        <time>2025-09-06T12:08:29Z</time>
      </trkpt>
      <trkpt lat="46.12103" lon="4.53017">
        <ele>748.2</ele>
        <time>2025-09-06T12:08:30Z</time>
      </trkpt>
      <trkpt lat="46.12105" lon="4.53016">
        <ele>747.8</ele>
        <time>2025-09-06T12:08:31Z</time>
      </trkpt>
      <trkpt lat="46.12107" lon="4.53016">
        <ele>747.8</ele>
        <time>2025-09-06T12:08:32Z</time>
      </trkpt>
      <trkpt lat="46.1211" lon="4.53016">
        <ele>748.2</ele>
        <time>2025-09-06T12:08:33Z</time>
      </trkpt>
      <trkpt lat="46.12112" lon="4.53016">
        <ele>748.2</ele>
        <time>2025-09-06T12:08:34Z</time>
      </trkpt>
      <trkpt lat="46.12114" lon="4.53016">
        <ele>748.6</ele>
        <time>2025-09-06T12:08:35Z</time>
      </trkpt>
      <trkpt lat="46.12115" lon="4.53015">
        <ele>748.6</ele>
        <time>2025-09-06T12:08:36Z</time>
      </trkpt>
      <trkpt lat="46.12116" lon="4.53013">
        <ele>748.8</ele>
        <time>2025-09-06T12:08:37Z</time>
      </trkpt>
      <trkpt lat="46.12117" lon="4.53012">
        <ele>748.8</ele>
        <time>2025-09-06T12:08:38Z</time>
      </trkpt>
      <trkpt lat="46.12119" lon="4.53011">
        <ele>749</ele>
        <time>2025-09-06T12:08:39Z</time>
      </trkpt>
      <trkpt lat="46.1212" lon="4.5301">
        <ele>749</ele>
        <time>2025-09-06T12:08:40Z</time>
      </trkpt>
      <trkpt lat="46.12121" lon="4.5301">
        <ele>749.2</ele>
        <time>2025-09-06T12:08:41Z</time>
      </trkpt>
      <trkpt lat="46.12122" lon="4.53009">
        <ele>749.2</ele>
        <time>2025-09-06T12:08:42Z</time>
      </trkpt>
      <trkpt lat="46.12124" lon="4.53007">
        <ele>749.2</ele>
        <time>2025-09-06T12:08:43Z</time>
      </trkpt>
      <trkpt lat="46.12125" lon="4.53006">
        <ele>749.6</ele>
        <time>2025-09-06T12:08:44Z</time>
      </trkpt>
      <trkpt lat="46.12127" lon="4.53005">
        <ele>749.6</ele>
        <time>2025-09-06T12:08:45Z</time>
      </trkpt>
      <trkpt lat="46.12128" lon="4.53004">
        <ele>749.8</ele>
        <time>2025-09-06T12:08:46Z</time>
      </trkpt>
      <trkpt lat="46.1213" lon="4.53004">
        <ele>749.8</ele>
        <time>2025-09-06T12:08:47Z</time>
      </trkpt>
      <trkpt lat="46.12132" lon="4.53004">
        <ele>750.2</ele>
        <time>2025-09-06T12:08:48Z</time>
      </trkpt>
      <trkpt lat="46.12134" lon="4.53005">
        <ele>750.2</ele>
        <time>2025-09-06T12:08:49Z</time>
      </trkpt>
      <trkpt lat="46.12136" lon="4.53005">
        <ele>750.2</ele>
        <time>2025-09-06T12:08:50Z</time>
      </trkpt>
      <trkpt lat="46.12137" lon="4.53005">
        <ele>750.2</ele>
        <time>2025-09-06T12:08:51Z</time>
      </trkpt>
      <trkpt lat="46.12139" lon="4.53005">
        <ele>750.2</ele>
        <time>2025-09-06T12:08:52Z</time>
      </trkpt>
      <trkpt lat="46.12141" lon="4.53004">
        <ele>750.2</ele>
        <time>2025-09-06T12:08:53Z</time>
      </trkpt>
      <trkpt lat="46.12142" lon="4.53004">
        <ele>750.2</ele>
        <time>2025-09-06T12:08:54Z</time>
      </trkpt>
      <trkpt lat="46.12144" lon="4.53003">
        <ele>750.4</ele>
        <time>2025-09-06T12:08:55Z</time>
      </trkpt>
      <trkpt lat="46.12146" lon="4.53002">
        <ele>750.4</ele>
        <time>2025-09-06T12:08:56Z</time>
      </trkpt>
      <trkpt lat="46.12148" lon="4.53002">
        <ele>750.8</ele>
        <time>2025-09-06T12:08:57Z</time>
      </trkpt>
      <trkpt lat="46.1215" lon="4.53001">
        <ele>750.8</ele>
        <time>2025-09-06T12:08:58Z</time>
      </trkpt>
      <trkpt lat="46.12151" lon="4.53">
        <ele>750.8</ele>
        <time>2025-09-06T12:08:59Z</time>
      </trkpt>
      <trkpt lat="46.12153" lon="4.52999">
        <ele>750.8</ele>
        <time>2025-09-06T12:09:00Z</time>
      </trkpt>
      <trkpt lat="46.12155" lon="4.52998">
        <ele>751</ele>
        <time>2025-09-06T12:09:01Z</time>
      </trkpt>
      <trkpt lat="46.12157" lon="4.52997">
        <ele>751</ele>
        <time>2025-09-06T12:09:02Z</time>
      </trkpt>
      <trkpt lat="46.12159" lon="4.52996">
        <ele>751</ele>
        <time>2025-09-06T12:09:03Z</time>
      </trkpt>
      <trkpt lat="46.1216" lon="4.52994">
        <ele>751</ele>
        <time>2025-09-06T12:09:04Z</time>
      </trkpt>
      <trkpt lat="46.12162" lon="4.52993">
        <ele>751</ele>
        <time>2025-09-06T12:09:05Z</time>
      </trkpt>
      <trkpt lat="46.12163" lon="4.52991">
        <ele>751.4</ele>
        <time>2025-09-06T12:09:06Z</time>
      </trkpt>
      <trkpt lat="46.12165" lon="4.5299">
        <ele>751.4</ele>
        <time>2025-09-06T12:09:07Z</time>
      </trkpt>
      <trkpt lat="46.12167" lon="4.52988">
        <ele>751.4</ele>
        <time>2025-09-06T12:09:08Z</time>
      </trkpt>
      <trkpt lat="46.12168" lon="4.52987">
        <ele>751.4</ele>
        <time>2025-09-06T12:09:09Z</time>
      </trkpt>
      <trkpt lat="46.1217" lon="4.52985">
        <ele>751.6</ele>
        <time>2025-09-06T12:09:10Z</time>
      </trkpt>
      <trkpt lat="46.12172" lon="4.52984">
        <ele>751.6</ele>
        <time>2025-09-06T12:09:11Z</time>
      </trkpt>
      <trkpt lat="46.12173" lon="4.52982">
        <ele>751.6</ele>
        <time>2025-09-06T12:09:12Z</time>
      </trkpt>
      <trkpt lat="46.12174" lon="4.5298">
        <ele>751.8</ele>
        <time>2025-09-06T12:09:13Z</time>
      </trkpt>
      <trkpt lat="46.12176" lon="4.52979">
        <ele>751.8</ele>
        <time>2025-09-06T12:09:14Z</time>
      </trkpt>
      <trkpt lat="46.12177" lon="4.52977">
        <ele>751.8</ele>
        <time>2025-09-06T12:09:15Z</time>
      </trkpt>
      <trkpt lat="46.12179" lon="4.52975">
        <ele>752</ele>
        <time>2025-09-06T12:09:16Z</time>
      </trkpt>
      <trkpt lat="46.1218" lon="4.52974">
        <ele>752</ele>
        <time>2025-09-06T12:09:17Z</time>
      </trkpt>
      <trkpt lat="46.12182" lon="4.52972">
        <ele>752</ele>
        <time>2025-09-06T12:09:18Z</time>
      </trkpt>
      <trkpt lat="46.12183" lon="4.5297">
        <ele>752</ele>
        <time>2025-09-06T12:09:19Z</time>
      </trkpt>
      <trkpt lat="46.12185" lon="4.52969">
        <ele>752</ele>
        <time>2025-09-06T12:09:20Z</time>
      </trkpt>
      <trkpt lat="46.12186" lon="4.52967">
        <ele>752.4</ele>
        <time>2025-09-06T12:09:21Z</time>
      </trkpt>
      <trkpt lat="46.12188" lon="4.52965">
        <ele>752.4</ele>
        <time>2025-09-06T12:09:22Z</time>
      </trkpt>
      <trkpt lat="46.12189" lon="4.52963">
        <ele>752.6</ele>
        <time>2025-09-06T12:09:23Z</time>
      </trkpt>
      <trkpt lat="46.1219" lon="4.52962">
        <ele>752.6</ele>
        <time>2025-09-06T12:09:24Z</time>
      </trkpt>
      <trkpt lat="46.12191" lon="4.5296">
        <ele>752.6</ele>
        <time>2025-09-06T12:09:25Z</time>
      </trkpt>
      <trkpt lat="46.12193" lon="4.52958">
        <ele>752.6</ele>
        <time>2025-09-06T12:09:26Z</time>
      </trkpt>
      <trkpt lat="46.12194" lon="4.52957">
        <ele>753</ele>
        <time>2025-09-06T12:09:27Z</time>
      </trkpt>
      <trkpt lat="46.12196" lon="4.52955">
        <ele>753</ele>
        <time>2025-09-06T12:09:28Z</time>
      </trkpt>
      <trkpt lat="46.12197" lon="4.52953">
        <ele>753</ele>
        <time>2025-09-06T12:09:29Z</time>
      </trkpt>
      <trkpt lat="46.12198" lon="4.52952">
        <ele>753.2</ele>
        <time>2025-09-06T12:09:30Z</time>
      </trkpt>
      <trkpt lat="46.12199" lon="4.5295">
        <ele>753.2</ele>
        <time>2025-09-06T12:09:31Z</time>
      </trkpt>
      <trkpt lat="46.122" lon="4.52948">
        <ele>753.4</ele>
        <time>2025-09-06T12:09:32Z</time>
      </trkpt>
      <trkpt lat="46.12201" lon="4.52945">
        <ele>753.4</ele>
        <time>2025-09-06T12:09:33Z</time>
      </trkpt>
      <trkpt lat="46.12202" lon="4.52943">
        <ele>753.6</ele>
        <time>2025-09-06T12:09:34Z</time>
      </trkpt>
      <trkpt lat="46.12203" lon="4.52941">
        <ele>753.6</ele>
        <time>2025-09-06T12:09:35Z</time>
      </trkpt>
      <trkpt lat="46.12204" lon="4.52939">
        <ele>753.6</ele>
        <time>2025-09-06T12:09:36Z</time>
      </trkpt>
      <trkpt lat="46.12206" lon="4.52938">
        <ele>753.6</ele>
        <time>2025-09-06T12:09:37Z</time>
      </trkpt>
      <trkpt lat="46.12207" lon="4.52936">
        <ele>753.6</ele>
        <time>2025-09-06T12:09:38Z</time>
      </trkpt>
      <trkpt lat="46.12208" lon="4.52934">
        <ele>753.6</ele>
        <time>2025-09-06T12:09:39Z</time>
      </trkpt>
      <trkpt lat="46.12209" lon="4.52932">
        <ele>754</ele>
        <time>2025-09-06T12:09:40Z</time>
      </trkpt>
      <trkpt lat="46.12211" lon="4.5293">
        <ele>754</ele>
        <time>2025-09-06T12:09:41Z</time>
      </trkpt>
      <trkpt lat="46.12212" lon="4.52928">
        <ele>754</ele>
        <time>2025-09-06T12:09:42Z</time>
      </trkpt>
      <trkpt lat="46.12214" lon="4.52925">
        <ele>754</ele>
        <time>2025-09-06T12:09:43Z</time>
      </trkpt>
      <trkpt lat="46.12216" lon="4.52923">
        <ele>754</ele>
        <time>2025-09-06T12:09:44Z</time>
      </trkpt>
      <trkpt lat="46.12217" lon="4.52922">
        <ele>754</ele>
        <time>2025-09-06T12:09:45Z</time>
      </trkpt>
      <trkpt lat="46.12219" lon="4.5292">
        <ele>754</ele>
        <time>2025-09-06T12:09:46Z</time>
      </trkpt>
      <trkpt lat="46.1222" lon="4.52917">
        <ele>754</ele>
        <time>2025-09-06T12:09:47Z</time>
      </trkpt>
      <trkpt lat="46.12222" lon="4.52915">
        <ele>754</ele>
        <time>2025-09-06T12:09:48Z</time>
      </trkpt>
      <trkpt lat="46.12223" lon="4.52913">
        <ele>754.6</ele>
        <time>2025-09-06T12:09:49Z</time>
      </trkpt>
      <trkpt lat="46.12225" lon="4.52911">
        <ele>754.6</ele>
        <time>2025-09-06T12:09:50Z</time>
      </trkpt>
      <trkpt lat="46.12226" lon="4.5291">
        <ele>754.6</ele>
        <time>2025-09-06T12:09:51Z</time>
      </trkpt>
      <trkpt lat="46.12228" lon="4.52908">
        <ele>754.6</ele>
        <time>2025-09-06T12:09:52Z</time>
      </trkpt>
      <trkpt lat="46.12229" lon="4.52906">
        <ele>754.6</ele>
        <time>2025-09-06T12:09:53Z</time>
      </trkpt>
      <trkpt lat="46.1223" lon="4.52904">
        <ele>754.2</ele>
        <time>2025-09-06T12:09:54Z</time>
      </trkpt>
      <trkpt lat="46.12231" lon="4.52901">
        <ele>754.2</ele>
        <time>2025-09-06T12:09:55Z</time>
      </trkpt>
      <trkpt lat="46.12233" lon="4.52899">
        <ele>755</ele>
        <time>2025-09-06T12:09:56Z</time>
      </trkpt>
      <trkpt lat="46.12234" lon="4.52897">
        <ele>755</ele>
        <time>2025-09-06T12:09:57Z</time>
      </trkpt>
      <trkpt lat="46.12234" lon="4.52897">
        <ele>754.8</ele>
        <time>2025-09-06T12:09:58Z</time>
      </trkpt>
      <trkpt lat="46.12235" lon="4.52895">
        <ele>754.8</ele>
        <time>2025-09-06T12:09:59Z</time>
      </trkpt>
      <trkpt lat="46.12237" lon="4.52893">
        <ele>754.8</ele>
        <time>2025-09-06T12:10:00Z</time>
      </trkpt>
      <trkpt lat="46.12238" lon="4.5289">
        <ele>754.8</ele>
        <time>2025-09-06T12:10:01Z</time>
      </trkpt>
      <trkpt lat="46.1224" lon="4.52888">
        <ele>754.8</ele>
        <time>2025-09-06T12:10:02Z</time>
      </trkpt>
      <trkpt lat="46.12241" lon="4.52886">
        <ele>755.2</ele>
        <time>2025-09-06T12:10:03Z</time>
      </trkpt>
      <trkpt lat="46.12242" lon="4.52883">
        <ele>755.2</ele>
        <time>2025-09-06T12:10:04Z</time>
      </trkpt>
      <trkpt lat="46.12244" lon="4.52881">
        <ele>755.2</ele>
        <time>2025-09-06T12:10:05Z</time>
      </trkpt>
      <trkpt lat="46.12245" lon="4.52879">
        <ele>755.2</ele>
        <time>2025-09-06T12:10:06Z</time>
      </trkpt>
      <trkpt lat="46.12246" lon="4.52877">
        <ele>755.6</ele>
        <time>2025-09-06T12:10:07Z</time>
      </trkpt>
      <trkpt lat="46.12248" lon="4.52875">
        <ele>755.6</ele>
        <time>2025-09-06T12:10:08Z</time>
      </trkpt>
      <trkpt lat="46.12249" lon="4.52872">
        <ele>756</ele>
        <time>2025-09-06T12:10:09Z</time>
      </trkpt>
      <trkpt lat="46.12251" lon="4.5287">
        <ele>756</ele>
        <time>2025-09-06T12:10:10Z</time>
      </trkpt>
      <trkpt lat="46.12252" lon="4.52868">
        <ele>756.2</ele>
        <time>2025-09-06T12:10:11Z</time>
      </trkpt>
      <trkpt lat="46.12253" lon="4.52866">
        <ele>756.2</ele>
        <time>2025-09-06T12:10:12Z</time>
      </trkpt>
      <trkpt lat="46.12255" lon="4.52864">
        <ele>756.6</ele>
        <time>2025-09-06T12:10:13Z</time>
      </trkpt>
      <trkpt lat="46.12256" lon="4.52862">
        <ele>757</ele>
        <time>2025-09-06T12:10:14Z</time>
      </trkpt>
      <trkpt lat="46.12257" lon="4.52861">
        <ele>757</ele>
        <time>2025-09-06T12:10:15Z</time>
      </trkpt>
      <trkpt lat="46.12259" lon="4.52859">
        <ele>757.2</ele>
        <time>2025-09-06T12:10:16Z</time>
      </trkpt>
      <trkpt lat="46.1226" lon="4.52857">
        <ele>757.2</ele>
        <time>2025-09-06T12:10:17Z</time>
      </trkpt>
      <trkpt lat="46.12262" lon="4.52855">
        <ele>757.2</ele>
        <time>2025-09-06T12:10:18Z</time>
      </trkpt>
      <trkpt lat="46.12263" lon="4.52853">
        <ele>757.2</ele>
        <time>2025-09-06T12:10:19Z</time>
      </trkpt>
      <trkpt lat="46.12264" lon="4.52852">
        <ele>757.8</ele>
        <time>2025-09-06T12:10:20Z</time>
      </trkpt>
      <trkpt lat="46.12266" lon="4.5285">
        <ele>757.8</ele>
        <time>2025-09-06T12:10:21Z</time>
      </trkpt>
      <trkpt lat="46.12267" lon="4.52848">
        <ele>757.8</ele>
        <time>2025-09-06T12:10:22Z</time>
      </trkpt>
      <trkpt lat="46.12269" lon="4.52846">
        <ele>757.8</ele>
        <time>2025-09-06T12:10:23Z</time>
      </trkpt>
      <trkpt lat="46.1227" lon="4.52845">
        <ele>757.8</ele>
        <time>2025-09-06T12:10:24Z</time>
      </trkpt>
      <trkpt lat="46.12271" lon="4.52843">
        <ele>757.8</ele>
        <time>2025-09-06T12:10:25Z</time>
      </trkpt>
      <trkpt lat="46.12274" lon="4.52839">
        <ele>758.2</ele>
        <time>2025-09-06T12:10:26Z</time>
      </trkpt>
      <trkpt lat="46.12275" lon="4.52838">
        <ele>758.2</ele>
        <time>2025-09-06T12:10:27Z</time>
      </trkpt>
      <trkpt lat="46.12276" lon="4.52836">
        <ele>758.2</ele>
        <time>2025-09-06T12:10:28Z</time>
      </trkpt>
      <trkpt lat="46.12278" lon="4.52835">
        <ele>758.4</ele>
        <time>2025-09-06T12:10:29Z</time>
      </trkpt>
      <trkpt lat="46.12279" lon="4.52833">
        <ele>758.4</ele>
        <time>2025-09-06T12:10:30Z</time>
      </trkpt>
      <trkpt lat="46.1228" lon="4.52831">
        <ele>758.4</ele>
        <time>2025-09-06T12:10:31Z</time>
      </trkpt>
      <trkpt lat="46.12281" lon="4.5283">
        <ele>758.8</ele>
        <time>2025-09-06T12:10:32Z</time>
      </trkpt>
      <trkpt lat="46.12283" lon="4.52828">
        <ele>758.8</ele>
        <time>2025-09-06T12:10:33Z</time>
      </trkpt>
      <trkpt lat="46.12284" lon="4.52826">
        <ele>759</ele>
        <time>2025-09-06T12:10:34Z</time>
      </trkpt>
      <trkpt lat="46.12285" lon="4.52825">
        <ele>759</ele>
        <time>2025-09-06T12:10:35Z</time>
      </trkpt>
      <trkpt lat="46.12287" lon="4.52823">
        <ele>759</ele>
        <time>2025-09-06T12:10:36Z</time>
      </trkpt>
      <trkpt lat="46.12288" lon="4.52821">
        <ele>759.4</ele>
        <time>2025-09-06T12:10:37Z</time>
      </trkpt>
      <trkpt lat="46.12289" lon="4.5282">
        <ele>759.4</ele>
        <time>2025-09-06T12:10:38Z</time>
      </trkpt>
      <trkpt lat="46.1229" lon="4.52818">
        <ele>759.4</ele>
        <time>2025-09-06T12:10:39Z</time>
      </trkpt>
      <trkpt lat="46.12291" lon="4.52816">
        <ele>759.8</ele>
        <time>2025-09-06T12:10:40Z</time>
      </trkpt>
      <trkpt lat="46.12292" lon="4.52814">
        <ele>760</ele>
        <time>2025-09-06T12:10:41Z</time>
      </trkpt>
      <trkpt lat="46.12293" lon="4.52812">
        <ele>760</ele>
        <time>2025-09-06T12:10:42Z</time>
      </trkpt>
      <trkpt lat="46.12294" lon="4.52811">
        <ele>760.2</ele>
        <time>2025-09-06T12:10:43Z</time>
      </trkpt>
      <trkpt lat="46.12295" lon="4.52809">
        <ele>760.2</ele>
        <time>2025-09-06T12:10:44Z</time>
      </trkpt>
      <trkpt lat="46.12296" lon="4.52808">
        <ele>760.2</ele>
        <time>2025-09-06T12:10:45Z</time>
      </trkpt>
      <trkpt lat="46.12298" lon="4.52806">
        <ele>760.2</ele>
        <time>2025-09-06T12:10:46Z</time>
      </trkpt>
      <trkpt lat="46.12299" lon="4.52805">
        <ele>760.2</ele>
        <time>2025-09-06T12:10:47Z</time>
      </trkpt>
      <trkpt lat="46.123" lon="4.52804">
        <ele>760.2</ele>
        <time>2025-09-06T12:10:48Z</time>
      </trkpt>
      <trkpt lat="46.12301" lon="4.52804">
        <ele>760.6</ele>
        <time>2025-09-06T12:10:49Z</time>
      </trkpt>
      <trkpt lat="46.12301" lon="4.52802">
        <ele>760.6</ele>
        <time>2025-09-06T12:10:50Z</time>
      </trkpt>
      <trkpt lat="46.12302" lon="4.52801">
        <ele>761</ele>
        <time>2025-09-06T12:10:51Z</time>
      </trkpt>
      <trkpt lat="46.12303" lon="4.52799">
        <ele>761</ele>
        <time>2025-09-06T12:10:52Z</time>
      </trkpt>
      <trkpt lat="46.12304" lon="4.52798">
        <ele>761</ele>
        <time>2025-09-06T12:10:53Z</time>
      </trkpt>
      <trkpt lat="46.12305" lon="4.52797">
        <ele>761.6</ele>
        <time>2025-09-06T12:10:54Z</time>
      </trkpt>
      <trkpt lat="46.12306" lon="4.52796">
        <ele>762</ele>
        <time>2025-09-06T12:10:55Z</time>
      </trkpt>
      <trkpt lat="46.12307" lon="4.52795">
        <ele>762</ele>
        <time>2025-09-06T12:10:56Z</time>
      </trkpt>
      <trkpt lat="46.12308" lon="4.52794">
        <ele>762.6</ele>
        <time>2025-09-06T12:10:57Z</time>
      </trkpt>
      <trkpt lat="46.12309" lon="4.52794">
        <ele>762.8</ele>
        <time>2025-09-06T12:10:58Z</time>
      </trkpt>
      <trkpt lat="46.12311" lon="4.52793">
        <ele>763.2</ele>
        <time>2025-09-06T12:10:59Z</time>
      </trkpt>
      <trkpt lat="46.12312" lon="4.52793">
        <ele>763.4</ele>
        <time>2025-09-06T12:11:00Z</time>
      </trkpt>
      <trkpt lat="46.12313" lon="4.52792">
        <ele>763.4</ele>
        <time>2025-09-06T12:11:01Z</time>
      </trkpt>
      <trkpt lat="46.12314" lon="4.52791">
        <ele>763.8</ele>
        <time>2025-09-06T12:11:02Z</time>
      </trkpt>
      <trkpt lat="46.12315" lon="4.52789">
        <ele>764.2</ele>
        <time>2025-09-06T12:11:03Z</time>
      </trkpt>
      <trkpt lat="46.12316" lon="4.52788">
        <ele>764.2</ele>
        <time>2025-09-06T12:11:04Z</time>
      </trkpt>
      <trkpt lat="46.12317" lon="4.52787">
        <ele>764.2</ele>
        <time>2025-09-06T12:11:05Z</time>
      </trkpt>
      <trkpt lat="46.12318" lon="4.52787">
        <ele>764.2</ele>
        <time>2025-09-06T12:11:06Z</time>
      </trkpt>
      <trkpt lat="46.12318" lon="4.52786">
        <ele>764.4</ele>
        <time>2025-09-06T12:11:07Z</time>
      </trkpt>
      <trkpt lat="46.12319" lon="4.52785">
        <ele>764.4</ele>
        <time>2025-09-06T12:11:08Z</time>
      </trkpt>
      <trkpt lat="46.12319" lon="4.52784">
        <ele>764.4</ele>
        <time>2025-09-06T12:11:09Z</time>
      </trkpt>
      <trkpt lat="46.12319" lon="4.52784">
        <ele>764.4</ele>
        <time>2025-09-06T12:11:10Z</time>
      </trkpt>
      <trkpt lat="46.12319" lon="4.52784">
        <ele>764.6</ele>
        <time>2025-09-06T12:11:11Z</time>
      </trkpt>
      <trkpt lat="46.12322" lon="4.52786">
        <ele>764.6</ele>
        <time>2025-09-06T12:11:17Z</time>
      </trkpt>
      <trkpt lat="46.12322" lon="4.52786">
        <ele>765</ele>
        <time>2025-09-06T12:11:18Z</time>
      </trkpt>
      <trkpt lat="46.12322" lon="4.52784">
        <ele>765</ele>
        <time>2025-09-06T12:11:19Z</time>
      </trkpt>
      <trkpt lat="46.12323" lon="4.52784">
        <ele>765</ele>
        <time>2025-09-06T12:11:20Z</time>
      </trkpt>
      <trkpt lat="46.12324" lon="4.52783">
        <ele>765</ele>
        <time>2025-09-06T12:11:21Z</time>
      </trkpt>
      <trkpt lat="46.12325" lon="4.52782">
        <ele>765.2</ele>
        <time>2025-09-06T12:11:22Z</time>
      </trkpt>
      <trkpt lat="46.12326" lon="4.52782">
        <ele>765.8</ele>
        <time>2025-09-06T12:11:23Z</time>
      </trkpt>
      <trkpt lat="46.12326" lon="4.52781">
        <ele>766</ele>
        <time>2025-09-06T12:11:24Z</time>
      </trkpt>
      <trkpt lat="46.12327" lon="4.52781">
        <ele>766</ele>
        <time>2025-09-06T12:11:25Z</time>
      </trkpt>
      <trkpt lat="46.12327" lon="4.5278">
        <ele>766</ele>
        <time>2025-09-06T12:11:26Z</time>
      </trkpt>
      <trkpt lat="46.12327" lon="4.52779">
        <ele>766</ele>
        <time>2025-09-06T12:11:27Z</time>
      </trkpt>
      <trkpt lat="46.12328" lon="4.52779">
        <ele>765.8</ele>
        <time>2025-09-06T12:11:28Z</time>
      </trkpt>
      <trkpt lat="46.12328" lon="4.52778">
        <ele>766</ele>
        <time>2025-09-06T12:11:29Z</time>
      </trkpt>
      <trkpt lat="46.12329" lon="4.52777">
        <ele>766</ele>
        <time>2025-09-06T12:11:30Z</time>
      </trkpt>
      <trkpt lat="46.12329" lon="4.52776">
        <ele>766.4</ele>
        <time>2025-09-06T12:11:31Z</time>
      </trkpt>
      <trkpt lat="46.1233" lon="4.52775">
        <ele>766.4</ele>
        <time>2025-09-06T12:11:32Z</time>
      </trkpt>
      <trkpt lat="46.12331" lon="4.52775">
        <ele>766.4</ele>
        <time>2025-09-06T12:11:33Z</time>
      </trkpt>
      <trkpt lat="46.12331" lon="4.52774">
        <ele>766.4</ele>
        <time>2025-09-06T12:11:34Z</time>
      </trkpt>
      <trkpt lat="46.12332" lon="4.52774">
        <ele>766.4</ele>
        <time>2025-09-06T12:11:35Z</time>
      </trkpt>
      <trkpt lat="46.12332" lon="4.52774">
        <ele>766.6</ele>
        <time>2025-09-06T12:11:36Z</time>
      </trkpt>
      <trkpt lat="46.12332" lon="4.52773">
        <ele>766.6</ele>
        <time>2025-09-06T12:11:42Z</time>
      </trkpt>
      <trkpt lat="46.12332" lon="4.52772">
        <ele>766.6</ele>
        <time>2025-09-06T12:11:43Z</time>
      </trkpt>
      <trkpt lat="46.12332" lon="4.52771">
        <ele>767</ele>
        <time>2025-09-06T12:11:44Z</time>
      </trkpt>
      <trkpt lat="46.12332" lon="4.52771">
        <ele>767</ele>
        <time>2025-09-06T12:11:45Z</time>
      </trkpt>
      <trkpt lat="46.12333" lon="4.52771">
        <ele>767</ele>
        <time>2025-09-06T12:11:46Z</time>
      </trkpt>
      <trkpt lat="46.12333" lon="4.52771">
        <ele>767.4</ele>
        <time>2025-09-06T12:11:47Z</time>
      </trkpt>
      <trkpt lat="46.12336" lon="4.52766">
        <ele>767.6</ele>
        <time>2025-09-06T12:12:02Z</time>
      </trkpt>
      <trkpt lat="46.12337" lon="4.52765">
        <ele>767.6</ele>
        <time>2025-09-06T12:12:03Z</time>
      </trkpt>
      <trkpt lat="46.12338" lon="4.52764">
        <ele>767.6</ele>
        <time>2025-09-06T12:12:04Z</time>
      </trkpt>
      <trkpt lat="46.12339" lon="4.52764">
        <ele>767.6</ele>
        <time>2025-09-06T12:12:05Z</time>
      </trkpt>
      <trkpt lat="46.1234" lon="4.52763">
        <ele>768.2</ele>
        <time>2025-09-06T12:12:06Z</time>
      </trkpt>
      <trkpt lat="46.12341" lon="4.52761">
        <ele>768.2</ele>
        <time>2025-09-06T12:12:07Z</time>
      </trkpt>
      <trkpt lat="46.12342" lon="4.52761">
        <ele>768.8</ele>
        <time>2025-09-06T12:12:08Z</time>
      </trkpt>
      <trkpt lat="46.12343" lon="4.52759">
        <ele>769</ele>
        <time>2025-09-06T12:12:09Z</time>
      </trkpt>
      <trkpt lat="46.12345" lon="4.52758">
        <ele>769.4</ele>
        <time>2025-09-06T12:12:10Z</time>
      </trkpt>
      <trkpt lat="46.12346" lon="4.52756">
        <ele>769.4</ele>
        <time>2025-09-06T12:12:11Z</time>
      </trkpt>
      <trkpt lat="46.12348" lon="4.52753">
        <ele>769.4</ele>
        <time>2025-09-06T12:12:12Z</time>
      </trkpt>
      <trkpt lat="46.1235" lon="4.52751">
        <ele>769.4</ele>
        <time>2025-09-06T12:12:13Z</time>
      </trkpt>
      <trkpt lat="46.12353" lon="4.52749">
        <ele>769.4</ele>
        <time>2025-09-06T12:12:14Z</time>
      </trkpt>
      <trkpt lat="46.12355" lon="4.52747">
        <ele>769.8</ele>
        <time>2025-09-06T12:12:15Z</time>
      </trkpt>
      <trkpt lat="46.12356" lon="4.52746">
        <ele>769.8</ele>
        <time>2025-09-06T12:12:16Z</time>
      </trkpt>
      <trkpt lat="46.12357" lon="4.52745">
        <ele>770.2</ele>
        <time>2025-09-06T12:12:17Z</time>
      </trkpt>
      <trkpt lat="46.12358" lon="4.52744">
        <ele>770.6</ele>
        <time>2025-09-06T12:12:18Z</time>
      </trkpt>
      <trkpt lat="46.12359" lon="4.52744">
        <ele>770.6</ele>
        <time>2025-09-06T12:12:19Z</time>
      </trkpt>
      <trkpt lat="46.12359" lon="4.52744">
        <ele>770.6</ele>
        <time>2025-09-06T12:12:20Z</time>
      </trkpt>
      <trkpt lat="46.1236" lon="4.52744">
        <ele>770.6</ele>
        <time>2025-09-06T12:12:21Z</time>
      </trkpt>
      <trkpt lat="46.12361" lon="4.52743">
        <ele>770.6</ele>
        <time>2025-09-06T12:12:22Z</time>
      </trkpt>
      <trkpt lat="46.12362" lon="4.52742">
        <ele>770.6</ele>
        <time>2025-09-06T12:12:23Z</time>
      </trkpt>
      <trkpt lat="46.12364" lon="4.52741">
        <ele>770.6</ele>
        <time>2025-09-06T12:12:24Z</time>
      </trkpt>
      <trkpt lat="46.12365" lon="4.5274">
        <ele>770.6</ele>
        <time>2025-09-06T12:12:25Z</time>
      </trkpt>
      <trkpt lat="46.12366" lon="4.52739">
        <ele>770.6</ele>
        <time>2025-09-06T12:12:26Z</time>
      </trkpt>
      <trkpt lat="46.12368" lon="4.52738">
        <ele>770.8</ele>
        <time>2025-09-06T12:12:27Z</time>
      </trkpt>
      <trkpt lat="46.12369" lon="4.52737">
        <ele>771.2</ele>
        <time>2025-09-06T12:12:28Z</time>
      </trkpt>
      <trkpt lat="46.1237" lon="4.52737">
        <ele>771.6</ele>
        <time>2025-09-06T12:12:29Z</time>
      </trkpt>
      <trkpt lat="46.12371" lon="4.52736">
        <ele>771.8</ele>
        <time>2025-09-06T12:12:30Z</time>
      </trkpt>
      <trkpt lat="46.12373" lon="4.52734">
        <ele>771.8</ele>
        <time>2025-09-06T12:12:31Z</time>
      </trkpt>
      <trkpt lat="46.12374" lon="4.52732">
        <ele>771.8</ele>
        <time>2025-09-06T12:12:32Z</time>
      </trkpt>
      <trkpt lat="46.12376" lon="4.5273">
        <ele>772.4</ele>
        <time>2025-09-06T12:12:33Z</time>
      </trkpt>
      <trkpt lat="46.12377" lon="4.52728">
        <ele>772.4</ele>
        <time>2025-09-06T12:12:34Z</time>
      </trkpt>
      <trkpt lat="46.12379" lon="4.52728">
        <ele>772.6</ele>
        <time>2025-09-06T12:12:35Z</time>
      </trkpt>
      <trkpt lat="46.12381" lon="4.52727">
        <ele>772.6</ele>
        <time>2025-09-06T12:12:36Z</time>
      </trkpt>
      <trkpt lat="46.12384" lon="4.52726">
        <ele>772.6</ele>
        <time>2025-09-06T12:12:37Z</time>
      </trkpt>
      <trkpt lat="46.12386" lon="4.52724">
        <ele>773.2</ele>
        <time>2025-09-06T12:12:38Z</time>
      </trkpt>
      <trkpt lat="46.12388" lon="4.52722">
        <ele>773.4</ele>
        <time>2025-09-06T12:12:39Z</time>
      </trkpt>
      <trkpt lat="46.12389" lon="4.52722">
        <ele>773.4</ele>
        <time>2025-09-06T12:12:40Z</time>
      </trkpt>
      <trkpt lat="46.1239" lon="4.52722">
        <ele>773.8</ele>
        <time>2025-09-06T12:12:41Z</time>
      </trkpt>
      <trkpt lat="46.12391" lon="4.52722">
        <ele>774</ele>
        <time>2025-09-06T12:12:42Z</time>
      </trkpt>
      <trkpt lat="46.12392" lon="4.52722">
        <ele>774</ele>
        <time>2025-09-06T12:12:43Z</time>
      </trkpt>
      <trkpt lat="46.12393" lon="4.52721">
        <ele>774</ele>
        <time>2025-09-06T12:12:44Z</time>
      </trkpt>
      <trkpt lat="46.12393" lon="4.52721">
        <ele>774.6</ele>
        <time>2025-09-06T12:12:45Z</time>
      </trkpt>
      <trkpt lat="46.12394" lon="4.52721">
        <ele>774.6</ele>
        <time>2025-09-06T12:12:46Z</time>
      </trkpt>
      <trkpt lat="46.12395" lon="4.5272">
        <ele>774.6</ele>
        <time>2025-09-06T12:12:47Z</time>
      </trkpt>
      <trkpt lat="46.12396" lon="4.52719">
        <ele>774.8</ele>
        <time>2025-09-06T12:12:48Z</time>
      </trkpt>
      <trkpt lat="46.12397" lon="4.52718">
        <ele>775</ele>
        <time>2025-09-06T12:12:49Z</time>
      </trkpt>
      <trkpt lat="46.12398" lon="4.52717">
        <ele>775.4</ele>
        <time>2025-09-06T12:12:50Z</time>
      </trkpt>
      <trkpt lat="46.124" lon="4.52717">
        <ele>775.6</ele>
        <time>2025-09-06T12:12:51Z</time>
      </trkpt>
      <trkpt lat="46.12401" lon="4.52716">
        <ele>775.6</ele>
        <time>2025-09-06T12:12:52Z</time>
      </trkpt>
      <trkpt lat="46.12403" lon="4.52715">
        <ele>775.6</ele>
        <time>2025-09-06T12:12:53Z</time>
      </trkpt>
      <trkpt lat="46.12403" lon="4.52715">
        <ele>775.8</ele>
        <time>2025-09-06T12:12:54Z</time>
      </trkpt>
      <trkpt lat="46.12404" lon="4.52714">
        <ele>775.8</ele>
        <time>2025-09-06T12:12:55Z</time>
      </trkpt>
      <trkpt lat="46.12405" lon="4.52713">
        <ele>776</ele>
        <time>2025-09-06T12:12:56Z</time>
      </trkpt>
      <trkpt lat="46.12406" lon="4.52713">
        <ele>776.4</ele>
        <time>2025-09-06T12:12:57Z</time>
      </trkpt>
      <trkpt lat="46.12407" lon="4.52712">
        <ele>776.4</ele>
        <time>2025-09-06T12:12:58Z</time>
      </trkpt>
      <trkpt lat="46.12409" lon="4.52711">
        <ele>777</ele>
        <time>2025-09-06T12:12:59Z</time>
      </trkpt>
      <trkpt lat="46.12409" lon="4.52711">
        <ele>777</ele>
        <time>2025-09-06T12:13:00Z</time>
      </trkpt>
      <trkpt lat="46.1241" lon="4.5271">
        <ele>777</ele>
        <time>2025-09-06T12:13:01Z</time>
      </trkpt>
      <trkpt lat="46.12413" lon="4.52708">
        <ele>777.6</ele>
        <time>2025-09-06T12:13:02Z</time>
      </trkpt>
      <trkpt lat="46.12415" lon="4.52707">
        <ele>777.6</ele>
        <time>2025-09-06T12:13:03Z</time>
      </trkpt>
      <trkpt lat="46.12416" lon="4.52706">
        <ele>777.8</ele>
        <time>2025-09-06T12:13:04Z</time>
      </trkpt>
      <trkpt lat="46.12417" lon="4.52707">
        <ele>778</ele>
        <time>2025-09-06T12:13:05Z</time>
      </trkpt>
      <trkpt lat="46.12419" lon="4.52707">
        <ele>778.2</ele>
        <time>2025-09-06T12:13:06Z</time>
      </trkpt>
      <trkpt lat="46.1242" lon="4.52706">
        <ele>778.8</ele>
        <time>2025-09-06T12:13:07Z</time>
      </trkpt>
      <trkpt lat="46.12421" lon="4.52705">
        <ele>778.8</ele>
        <time>2025-09-06T12:13:08Z</time>
      </trkpt>
      <trkpt lat="46.12422" lon="4.52704">
        <ele>778.8</ele>
        <time>2025-09-06T12:13:09Z</time>
      </trkpt>
      <trkpt lat="46.12422" lon="4.52702">
        <ele>779.2</ele>
        <time>2025-09-06T12:13:10Z</time>
      </trkpt>
      <trkpt lat="46.12423" lon="4.527">
        <ele>779.2</ele>
        <time>2025-09-06T12:13:11Z</time>
      </trkpt>
      <trkpt lat="46.12425" lon="4.52697">
        <ele>779.2</ele>
        <time>2025-09-06T12:13:12Z</time>
      </trkpt>
      <trkpt lat="46.12426" lon="4.52696">
        <ele>779</ele>
        <time>2025-09-06T12:13:13Z</time>
      </trkpt>
      <trkpt lat="46.12427" lon="4.52694">
        <ele>779</ele>
        <time>2025-09-06T12:13:14Z</time>
      </trkpt>
      <trkpt lat="46.12428" lon="4.52692">
        <ele>779.4</ele>
        <time>2025-09-06T12:13:15Z</time>
      </trkpt>
      <trkpt lat="46.1243" lon="4.5269">
        <ele>779.6</ele>
        <time>2025-09-06T12:13:16Z</time>
      </trkpt>
      <trkpt lat="46.12431" lon="4.52688">
        <ele>780</ele>
        <time>2025-09-06T12:13:17Z</time>
      </trkpt>
      <trkpt lat="46.12431" lon="4.52687">
        <ele>780.2</ele>
        <time>2025-09-06T12:13:18Z</time>
      </trkpt>
      <trkpt lat="46.12432" lon="4.52685">
        <ele>780.2</ele>
        <time>2025-09-06T12:13:19Z</time>
      </trkpt>
      <trkpt lat="46.12433" lon="4.52684">
        <ele>780.6</ele>
        <time>2025-09-06T12:13:20Z</time>
      </trkpt>
      <trkpt lat="46.12434" lon="4.52682">
        <ele>780.6</ele>
        <time>2025-09-06T12:13:21Z</time>
      </trkpt>
      <trkpt lat="46.12434" lon="4.5268">
        <ele>780.6</ele>
        <time>2025-09-06T12:13:22Z</time>
      </trkpt>
      <trkpt lat="46.12435" lon="4.52678">
        <ele>780.6</ele>
        <time>2025-09-06T12:13:23Z</time>
      </trkpt>
      <trkpt lat="46.12436" lon="4.52676">
        <ele>780.8</ele>
        <time>2025-09-06T12:13:24Z</time>
      </trkpt>
      <trkpt lat="46.12437" lon="4.52675">
        <ele>780.8</ele>
        <time>2025-09-06T12:13:25Z</time>
      </trkpt>
      <trkpt lat="46.12438" lon="4.52673">
        <ele>781.2</ele>
        <time>2025-09-06T12:13:26Z</time>
      </trkpt>
      <trkpt lat="46.1244" lon="4.52671">
        <ele>781</ele>
        <time>2025-09-06T12:13:27Z</time>
      </trkpt>
      <trkpt lat="46.12441" lon="4.52669">
        <ele>781.2</ele>
        <time>2025-09-06T12:13:28Z</time>
      </trkpt>
      <trkpt lat="46.12442" lon="4.52668">
        <ele>781.6</ele>
        <time>2025-09-06T12:13:29Z</time>
      </trkpt>
      <trkpt lat="46.12442" lon="4.52666">
        <ele>781.6</ele>
        <time>2025-09-06T12:13:30Z</time>
      </trkpt>
      <trkpt lat="46.12443" lon="4.52664">
        <ele>782</ele>
        <time>2025-09-06T12:13:31Z</time>
      </trkpt>
      <trkpt lat="46.12443" lon="4.52663">
        <ele>782.2</ele>
        <time>2025-09-06T12:13:32Z</time>
      </trkpt>
      <trkpt lat="46.12444" lon="4.52661">
        <ele>782.2</ele>
        <time>2025-09-06T12:13:33Z</time>
      </trkpt>
      <trkpt lat="46.12445" lon="4.52659">
        <ele>782.2</ele>
        <time>2025-09-06T12:13:34Z</time>
      </trkpt>
      <trkpt lat="46.12446" lon="4.52658">
        <ele>782.2</ele>
        <time>2025-09-06T12:13:35Z</time>
      </trkpt>
      <trkpt lat="46.12447" lon="4.52657">
        <ele>782.6</ele>
        <time>2025-09-06T12:13:36Z</time>
      </trkpt>
      <trkpt lat="46.12448" lon="4.52656">
        <ele>782.8</ele>
        <time>2025-09-06T12:13:37Z</time>
      </trkpt>
      <trkpt lat="46.12448" lon="4.52656">
        <ele>782.8</ele>
        <time>2025-09-06T12:13:38Z</time>
      </trkpt>
      <trkpt lat="46.12448" lon="4.52656">
        <ele>782.8</ele>
        <time>2025-09-06T12:13:39Z</time>
      </trkpt>
      <trkpt lat="46.12449" lon="4.52656">
        <ele>783</ele>
        <time>2025-09-06T12:13:40Z</time>
      </trkpt>
      <trkpt lat="46.12451" lon="4.52654">
        <ele>783.6</ele>
        <time>2025-09-06T12:13:46Z</time>
      </trkpt>
      <trkpt lat="46.12451" lon="4.52652">
        <ele>783.6</ele>
        <time>2025-09-06T12:13:47Z</time>
      </trkpt>
      <trkpt lat="46.12451" lon="4.5265">
        <ele>783.6</ele>
        <time>2025-09-06T12:13:48Z</time>
      </trkpt>
      <trkpt lat="46.12451" lon="4.52649">
        <ele>783.6</ele>
        <time>2025-09-06T12:13:49Z</time>
      </trkpt>
      <trkpt lat="46.1245" lon="4.52647">
        <ele>783.6</ele>
        <time>2025-09-06T12:13:50Z</time>
      </trkpt>
      <trkpt lat="46.1245" lon="4.52646">
        <ele>783.6</ele>
        <time>2025-09-06T12:13:51Z</time>
      </trkpt>
      <trkpt lat="46.1245" lon="4.52646">
        <ele>783.6</ele>
        <time>2025-09-06T12:13:52Z</time>
      </trkpt>
      <trkpt lat="46.12451" lon="4.52646">
        <ele>784</ele>
        <time>2025-09-06T12:13:53Z</time>
      </trkpt>
      <trkpt lat="46.12451" lon="4.52645">
        <ele>784</ele>
        <time>2025-09-06T12:13:54Z</time>
      </trkpt>
      <trkpt lat="46.12452" lon="4.52645">
        <ele>784</ele>
        <time>2025-09-06T12:13:55Z</time>
      </trkpt>
      <trkpt lat="46.12453" lon="4.52644">
        <ele>784.2</ele>
        <time>2025-09-06T12:13:56Z</time>
      </trkpt>
      <trkpt lat="46.12454" lon="4.52644">
        <ele>784.2</ele>
        <time>2025-09-06T12:13:57Z</time>
      </trkpt>
      <trkpt lat="46.12456" lon="4.52643">
        <ele>784.4</ele>
        <time>2025-09-06T12:13:58Z</time>
      </trkpt>
      <trkpt lat="46.12456" lon="4.52642">
        <ele>784.4</ele>
        <time>2025-09-06T12:13:59Z</time>
      </trkpt>
      <trkpt lat="46.12457" lon="4.52641">
        <ele>784.8</ele>
        <time>2025-09-06T12:14:00Z</time>
      </trkpt>
      <trkpt lat="46.12457" lon="4.52639">
        <ele>784.8</ele>
        <time>2025-09-06T12:14:01Z</time>
      </trkpt>
      <trkpt lat="46.12458" lon="4.52638">
        <ele>785.2</ele>
        <time>2025-09-06T12:14:02Z</time>
      </trkpt>
      <trkpt lat="46.12459" lon="4.52638">
        <ele>785.2</ele>
        <time>2025-09-06T12:14:03Z</time>
      </trkpt>
      <trkpt lat="46.12459" lon="4.52637">
        <ele>785.2</ele>
        <time>2025-09-06T12:14:04Z</time>
      </trkpt>
      <trkpt lat="46.1246" lon="4.52636">
        <ele>785.2</ele>
        <time>2025-09-06T12:14:05Z</time>
      </trkpt>
      <trkpt lat="46.1246" lon="4.52635">
        <ele>785.2</ele>
        <time>2025-09-06T12:14:06Z</time>
      </trkpt>
      <trkpt lat="46.12461" lon="4.52634">
        <ele>785.4</ele>
        <time>2025-09-06T12:14:07Z</time>
      </trkpt>
      <trkpt lat="46.12462" lon="4.52632">
        <ele>785.4</ele>
        <time>2025-09-06T12:14:08Z</time>
      </trkpt>
      <trkpt lat="46.12463" lon="4.52632">
        <ele>785.8</ele>
        <time>2025-09-06T12:14:09Z</time>
      </trkpt>
      <trkpt lat="46.12464" lon="4.52631">
        <ele>785.8</ele>
        <time>2025-09-06T12:14:10Z</time>
      </trkpt>
      <trkpt lat="46.12465" lon="4.5263">
        <ele>785.8</ele>
        <time>2025-09-06T12:14:11Z</time>
      </trkpt>
      <trkpt lat="46.12466" lon="4.52629">
        <ele>785.8</ele>
        <time>2025-09-06T12:14:12Z</time>
      </trkpt>
      <trkpt lat="46.12467" lon="4.52629">
        <ele>786.2</ele>
        <time>2025-09-06T12:14:13Z</time>
      </trkpt>
      <trkpt lat="46.12467" lon="4.52628">
        <ele>786.2</ele>
        <time>2025-09-06T12:14:14Z</time>
      </trkpt>
      <trkpt lat="46.12468" lon="4.52627">
        <ele>786.6</ele>
        <time>2025-09-06T12:14:15Z</time>
      </trkpt>
      <trkpt lat="46.12469" lon="4.52626">
        <ele>786.6</ele>
        <time>2025-09-06T12:14:16Z</time>
      </trkpt>
      <trkpt lat="46.12469" lon="4.52624">
        <ele>786.6</ele>
        <time>2025-09-06T12:14:17Z</time>
      </trkpt>
      <trkpt lat="46.1247" lon="4.52623">
        <ele>786.6</ele>
        <time>2025-09-06T12:14:18Z</time>
      </trkpt>
      <trkpt lat="46.12471" lon="4.52621">
        <ele>786.6</ele>
        <time>2025-09-06T12:14:19Z</time>
      </trkpt>
      <trkpt lat="46.12472" lon="4.52621">
        <ele>787</ele>
        <time>2025-09-06T12:14:20Z</time>
      </trkpt>
      <trkpt lat="46.12472" lon="4.5262">
        <ele>787.2</ele>
        <time>2025-09-06T12:14:21Z</time>
      </trkpt>
      <trkpt lat="46.12473" lon="4.5262">
        <ele>787.2</ele>
        <time>2025-09-06T12:14:22Z</time>
      </trkpt>
      <trkpt lat="46.12474" lon="4.5262">
        <ele>787.2</ele>
        <time>2025-09-06T12:14:23Z</time>
      </trkpt>
      <trkpt lat="46.12475" lon="4.5262">
        <ele>787.2</ele>
        <time>2025-09-06T12:14:24Z</time>
      </trkpt>
      <trkpt lat="46.12476" lon="4.5262">
        <ele>787.4</ele>
        <time>2025-09-06T12:14:25Z</time>
      </trkpt>
      <trkpt lat="46.12477" lon="4.52619">
        <ele>787.4</ele>
        <time>2025-09-06T12:14:26Z</time>
      </trkpt>
      <trkpt lat="46.12478" lon="4.52617">
        <ele>787.4</ele>
        <time>2025-09-06T12:14:27Z</time>
      </trkpt>
      <trkpt lat="46.12479" lon="4.52616">
        <ele>787.8</ele>
        <time>2025-09-06T12:14:28Z</time>
      </trkpt>
      <trkpt lat="46.12479" lon="4.52615">
        <ele>788.4</ele>
        <time>2025-09-06T12:14:29Z</time>
      </trkpt>
      <trkpt lat="46.12479" lon="4.52613">
        <ele>788.4</ele>
        <time>2025-09-06T12:14:30Z</time>
      </trkpt>
      <trkpt lat="46.1248" lon="4.52611">
        <ele>788.4</ele>
        <time>2025-09-06T12:14:31Z</time>
      </trkpt>
      <trkpt lat="46.12481" lon="4.52609">
        <ele>788.2</ele>
        <time>2025-09-06T12:14:32Z</time>
      </trkpt>
      <trkpt lat="46.12482" lon="4.52608">
        <ele>788.6</ele>
        <time>2025-09-06T12:14:33Z</time>
      </trkpt>
      <trkpt lat="46.12483" lon="4.52607">
        <ele>788.6</ele>
        <time>2025-09-06T12:14:34Z</time>
      </trkpt>
      <trkpt lat="46.12484" lon="4.52606">
        <ele>788.6</ele>
        <time>2025-09-06T12:14:35Z</time>
      </trkpt>
      <trkpt lat="46.12484" lon="4.52605">
        <ele>788.8</ele>
        <time>2025-09-06T12:14:36Z</time>
      </trkpt>
      <trkpt lat="46.12485" lon="4.52604">
        <ele>789.2</ele>
        <time>2025-09-06T12:14:37Z</time>
      </trkpt>
      <trkpt lat="46.12485" lon="4.52603">
        <ele>789.2</ele>
        <time>2025-09-06T12:14:38Z</time>
      </trkpt>
      <trkpt lat="46.12485" lon="4.52603">
        <ele>789.2</ele>
        <time>2025-09-06T12:14:39Z</time>
      </trkpt>
      <trkpt lat="46.12486" lon="4.52602">
        <ele>789.4</ele>
        <time>2025-09-06T12:14:40Z</time>
      </trkpt>
      <trkpt lat="46.12486" lon="4.52601">
        <ele>789.4</ele>
        <time>2025-09-06T12:14:41Z</time>
      </trkpt>
      <trkpt lat="46.12486" lon="4.52601">
        <ele>789.4</ele>
        <time>2025-09-06T12:14:42Z</time>
      </trkpt>
      <trkpt lat="46.12486" lon="4.52602">
        <ele>789.8</ele>
        <time>2025-09-06T12:14:43Z</time>
      </trkpt>
      <trkpt lat="46.12486" lon="4.52602">
        <ele>789.2</ele>
        <time>2025-09-06T12:14:55Z</time>
      </trkpt>
      <trkpt lat="46.12487" lon="4.526">
        <ele>789.8</ele>
        <time>2025-09-06T12:14:56Z</time>
      </trkpt>
      <trkpt lat="46.12488" lon="4.52599">
        <ele>789.8</ele>
        <time>2025-09-06T12:14:57Z</time>
      </trkpt>
      <trkpt lat="46.12489" lon="4.52597">
        <ele>789.8</ele>
        <time>2025-09-06T12:14:58Z</time>
      </trkpt>
      <trkpt lat="46.1249" lon="4.52597">
        <ele>789.8</ele>
        <time>2025-09-06T12:14:59Z</time>
      </trkpt>
      <trkpt lat="46.12491" lon="4.52596">
        <ele>790.2</ele>
        <time>2025-09-06T12:15:00Z</time>
      </trkpt>
      <trkpt lat="46.12493" lon="4.52595">
        <ele>790.4</ele>
        <time>2025-09-06T12:15:01Z</time>
      </trkpt>
      <trkpt lat="46.12495" lon="4.52594">
        <ele>790.8</ele>
        <time>2025-09-06T12:15:02Z</time>
      </trkpt>
      <trkpt lat="46.12496" lon="4.52592">
        <ele>790.8</ele>
        <time>2025-09-06T12:15:03Z</time>
      </trkpt>
      <trkpt lat="46.12497" lon="4.5259">
        <ele>790.8</ele>
        <time>2025-09-06T12:15:04Z</time>
      </trkpt>
      <trkpt lat="46.12498" lon="4.52588">
        <ele>790.4</ele>
        <time>2025-09-06T12:15:05Z</time>
      </trkpt>
      <trkpt lat="46.12499" lon="4.52587">
        <ele>790.4</ele>
        <time>2025-09-06T12:15:06Z</time>
      </trkpt>
      <trkpt lat="46.125" lon="4.52585">
        <ele>790.4</ele>
        <time>2025-09-06T12:15:07Z</time>
      </trkpt>
      <trkpt lat="46.12502" lon="4.52583">
        <ele>790.4</ele>
        <time>2025-09-06T12:15:08Z</time>
      </trkpt>
      <trkpt lat="46.12503" lon="4.52581">
        <ele>790.8</ele>
        <time>2025-09-06T12:15:09Z</time>
      </trkpt>
      <trkpt lat="46.12504" lon="4.5258">
        <ele>791.4</ele>
        <time>2025-09-06T12:15:10Z</time>
      </trkpt>
      <trkpt lat="46.12506" lon="4.52578">
        <ele>791.4</ele>
        <time>2025-09-06T12:15:11Z</time>
      </trkpt>
      <trkpt lat="46.12508" lon="4.52576">
        <ele>791.8</ele>
        <time>2025-09-06T12:15:12Z</time>
      </trkpt>
      <trkpt lat="46.1251" lon="4.52574">
        <ele>791.8</ele>
        <time>2025-09-06T12:15:13Z</time>
      </trkpt>
      <trkpt lat="46.12512" lon="4.52572">
        <ele>792.2</ele>
        <time>2025-09-06T12:15:14Z</time>
      </trkpt>
      <trkpt lat="46.12513" lon="4.5257">
        <ele>792.4</ele>
        <time>2025-09-06T12:15:15Z</time>
      </trkpt>
      <trkpt lat="46.12515" lon="4.52568">
        <ele>792.2</ele>
        <time>2025-09-06T12:15:16Z</time>
      </trkpt>
      <trkpt lat="46.12517" lon="4.52566">
        <ele>792.2</ele>
        <time>2025-09-06T12:15:17Z</time>
      </trkpt>
      <trkpt lat="46.12518" lon="4.52565">
        <ele>792.2</ele>
        <time>2025-09-06T12:15:18Z</time>
      </trkpt>
      <trkpt lat="46.1252" lon="4.52563">
        <ele>792.6</ele>
        <time>2025-09-06T12:15:19Z</time>
      </trkpt>
      <trkpt lat="46.12522" lon="4.52561">
        <ele>792.6</ele>
        <time>2025-09-06T12:15:20Z</time>
      </trkpt>
      <trkpt lat="46.12523" lon="4.5256">
        <ele>793</ele>
        <time>2025-09-06T12:15:21Z</time>
      </trkpt>
      <trkpt lat="46.12525" lon="4.52558">
        <ele>792.6</ele>
        <time>2025-09-06T12:15:22Z</time>
      </trkpt>
      <trkpt lat="46.12526" lon="4.52556">
        <ele>793</ele>
        <time>2025-09-06T12:15:23Z</time>
      </trkpt>
      <trkpt lat="46.12528" lon="4.52554">
        <ele>793</ele>
        <time>2025-09-06T12:15:24Z</time>
      </trkpt>
      <trkpt lat="46.12529" lon="4.52552">
        <ele>793.4</ele>
        <time>2025-09-06T12:15:25Z</time>
      </trkpt>
      <trkpt lat="46.1253" lon="4.52551">
        <ele>793</ele>
        <time>2025-09-06T12:15:26Z</time>
      </trkpt>
      <trkpt lat="46.12532" lon="4.52548">
        <ele>794</ele>
        <time>2025-09-06T12:15:27Z</time>
      </trkpt>
      <trkpt lat="46.12533" lon="4.52546">
        <ele>793.8</ele>
        <time>2025-09-06T12:15:28Z</time>
      </trkpt>
      <trkpt lat="46.12534" lon="4.52544">
        <ele>793.8</ele>
        <time>2025-09-06T12:15:29Z</time>
      </trkpt>
      <trkpt lat="46.12535" lon="4.52542">
        <ele>793.8</ele>
        <time>2025-09-06T12:15:30Z</time>
      </trkpt>
      <trkpt lat="46.12536" lon="4.5254">
        <ele>793.8</ele>
        <time>2025-09-06T12:15:31Z</time>
      </trkpt>
      <trkpt lat="46.12537" lon="4.52538">
        <ele>794</ele>
        <time>2025-09-06T12:15:32Z</time>
      </trkpt>
      <trkpt lat="46.12539" lon="4.52536">
        <ele>794.2</ele>
        <time>2025-09-06T12:15:33Z</time>
      </trkpt>
      <trkpt lat="46.1254" lon="4.52534">
        <ele>794.2</ele>
        <time>2025-09-06T12:15:34Z</time>
      </trkpt>
      <trkpt lat="46.12542" lon="4.52532">
        <ele>794.4</ele>
        <time>2025-09-06T12:15:35Z</time>
      </trkpt>
      <trkpt lat="46.12543" lon="4.5253">
        <ele>794.4</ele>
        <time>2025-09-06T12:15:36Z</time>
      </trkpt>
      <trkpt lat="46.12545" lon="4.52529">
        <ele>794.4</ele>
        <time>2025-09-06T12:15:37Z</time>
      </trkpt>
      <trkpt lat="46.12546" lon="4.52528">
        <ele>794.4</ele>
        <time>2025-09-06T12:15:38Z</time>
      </trkpt>
      <trkpt lat="46.12547" lon="4.52526">
        <ele>794.8</ele>
        <time>2025-09-06T12:15:39Z</time>
      </trkpt>
      <trkpt lat="46.12548" lon="4.52524">
        <ele>794.8</ele>
        <time>2025-09-06T12:15:40Z</time>
      </trkpt>
      <trkpt lat="46.12549" lon="4.52522">
        <ele>795.2</ele>
        <time>2025-09-06T12:15:41Z</time>
      </trkpt>
      <trkpt lat="46.12551" lon="4.5252">
        <ele>795.4</ele>
        <time>2025-09-06T12:15:42Z</time>
      </trkpt>
      <trkpt lat="46.12552" lon="4.52519">
        <ele>795.4</ele>
        <time>2025-09-06T12:15:43Z</time>
      </trkpt>
      <trkpt lat="46.12554" lon="4.52517">
        <ele>795.4</ele>
        <time>2025-09-06T12:15:44Z</time>
      </trkpt>
      <trkpt lat="46.12555" lon="4.52516">
        <ele>795.8</ele>
        <time>2025-09-06T12:15:45Z</time>
      </trkpt>
      <trkpt lat="46.12556" lon="4.52514">
        <ele>796</ele>
        <time>2025-09-06T12:15:46Z</time>
      </trkpt>
      <trkpt lat="46.12557" lon="4.52513">
        <ele>796.2</ele>
        <time>2025-09-06T12:15:47Z</time>
      </trkpt>
      <trkpt lat="46.12558" lon="4.52511">
        <ele>796.6</ele>
        <time>2025-09-06T12:15:48Z</time>
      </trkpt>
      <trkpt lat="46.12559" lon="4.52508">
        <ele>796.6</ele>
        <time>2025-09-06T12:15:49Z</time>
      </trkpt>
      <trkpt lat="46.1256" lon="4.52506">
        <ele>796.6</ele>
        <time>2025-09-06T12:15:50Z</time>
      </trkpt>
      <trkpt lat="46.12561" lon="4.52504">
        <ele>797.2</ele>
        <time>2025-09-06T12:15:51Z</time>
      </trkpt>
      <trkpt lat="46.12562" lon="4.52502">
        <ele>797.4</ele>
        <time>2025-09-06T12:15:52Z</time>
      </trkpt>
      <trkpt lat="46.12564" lon="4.525">
        <ele>796.8</ele>
        <time>2025-09-06T12:15:53Z</time>
      </trkpt>
      <trkpt lat="46.12565" lon="4.52498">
        <ele>796.8</ele>
        <time>2025-09-06T12:15:54Z</time>
      </trkpt>
      <trkpt lat="46.12566" lon="4.52497">
        <ele>797.2</ele>
        <time>2025-09-06T12:15:55Z</time>
      </trkpt>
      <trkpt lat="46.12568" lon="4.52495">
        <ele>797.2</ele>
        <time>2025-09-06T12:15:56Z</time>
      </trkpt>
      <trkpt lat="46.12569" lon="4.52493">
        <ele>797.2</ele>
        <time>2025-09-06T12:15:57Z</time>
      </trkpt>
      <trkpt lat="46.1257" lon="4.5249">
        <ele>797.2</ele>
        <time>2025-09-06T12:15:58Z</time>
      </trkpt>
      <trkpt lat="46.1257" lon="4.52488">
        <ele>796.6</ele>
        <time>2025-09-06T12:15:59Z</time>
      </trkpt>
      <trkpt lat="46.1257" lon="4.52487">
        <ele>796.8</ele>
        <time>2025-09-06T12:16:00Z</time>
      </trkpt>
      <trkpt lat="46.12571" lon="4.52484">
        <ele>796.8</ele>
        <time>2025-09-06T12:16:01Z</time>
      </trkpt>
      <trkpt lat="46.12571" lon="4.52482">
        <ele>797.4</ele>
        <time>2025-09-06T12:16:02Z</time>
      </trkpt>
      <trkpt lat="46.12572" lon="4.5248">
        <ele>797.4</ele>
        <time>2025-09-06T12:16:03Z</time>
      </trkpt>
      <trkpt lat="46.12572" lon="4.52478">
        <ele>797.4</ele>
        <time>2025-09-06T12:16:04Z</time>
      </trkpt>
      <trkpt lat="46.12573" lon="4.52476">
        <ele>798</ele>
        <time>2025-09-06T12:16:05Z</time>
      </trkpt>
      <trkpt lat="46.12574" lon="4.52474">
        <ele>798</ele>
        <time>2025-09-06T12:16:06Z</time>
      </trkpt>
      <trkpt lat="46.12575" lon="4.52472">
        <ele>798</ele>
        <time>2025-09-06T12:16:07Z</time>
      </trkpt>
      <trkpt lat="46.12576" lon="4.52471">
        <ele>798.4</ele>
        <time>2025-09-06T12:16:08Z</time>
      </trkpt>
      <trkpt lat="46.12577" lon="4.52469">
        <ele>798.6</ele>
        <time>2025-09-06T12:16:09Z</time>
      </trkpt>
      <trkpt lat="46.12578" lon="4.52467">
        <ele>799</ele>
        <time>2025-09-06T12:16:10Z</time>
      </trkpt>
      <trkpt lat="46.12579" lon="4.52465">
        <ele>799</ele>
        <time>2025-09-06T12:16:11Z</time>
      </trkpt>
      <trkpt lat="46.1258" lon="4.52463">
        <ele>799.6</ele>
        <time>2025-09-06T12:16:12Z</time>
      </trkpt>
      <trkpt lat="46.12581" lon="4.52462">
        <ele>799.6</ele>
        <time>2025-09-06T12:16:13Z</time>
      </trkpt>
      <trkpt lat="46.12582" lon="4.52461">
        <ele>799.6</ele>
        <time>2025-09-06T12:16:14Z</time>
      </trkpt>
      <trkpt lat="46.12583" lon="4.5246">
        <ele>799.8</ele>
        <time>2025-09-06T12:16:15Z</time>
      </trkpt>
      <trkpt lat="46.12584" lon="4.52458">
        <ele>799.8</ele>
        <time>2025-09-06T12:16:16Z</time>
      </trkpt>
      <trkpt lat="46.12585" lon="4.52456">
        <ele>799.8</ele>
        <time>2025-09-06T12:16:17Z</time>
      </trkpt>
      <trkpt lat="46.12586" lon="4.52455">
        <ele>799.8</ele>
        <time>2025-09-06T12:16:18Z</time>
      </trkpt>
      <trkpt lat="46.12588" lon="4.52453">
        <ele>800</ele>
        <time>2025-09-06T12:16:19Z</time>
      </trkpt>
      <trkpt lat="46.1259" lon="4.52452">
        <ele>800.2</ele>
        <time>2025-09-06T12:16:20Z</time>
      </trkpt>
      <trkpt lat="46.1259" lon="4.52452">
        <ele>800.6</ele>
        <time>2025-09-06T12:16:21Z</time>
      </trkpt>
      <trkpt lat="46.12591" lon="4.5245">
        <ele>800.6</ele>
        <time>2025-09-06T12:16:22Z</time>
      </trkpt>
      <trkpt lat="46.12593" lon="4.52448">
        <ele>801</ele>
        <time>2025-09-06T12:16:23Z</time>
      </trkpt>
      <trkpt lat="46.12594" lon="4.52447">
        <ele>800.8</ele>
        <time>2025-09-06T12:16:24Z</time>
      </trkpt>
      <trkpt lat="46.12595" lon="4.52445">
        <ele>801.2</ele>
        <time>2025-09-06T12:16:25Z</time>
      </trkpt>
      <trkpt lat="46.12596" lon="4.52443">
        <ele>801.2</ele>
        <time>2025-09-06T12:16:26Z</time>
      </trkpt>
      <trkpt lat="46.12597" lon="4.52441">
        <ele>800.8</ele>
        <time>2025-09-06T12:16:27Z</time>
      </trkpt>
      <trkpt lat="46.12599" lon="4.52439">
        <ele>801.2</ele>
        <time>2025-09-06T12:16:28Z</time>
      </trkpt>
      <trkpt lat="46.126" lon="4.52437">
        <ele>801.6</ele>
        <time>2025-09-06T12:16:29Z</time>
      </trkpt>
      <trkpt lat="46.12601" lon="4.52436">
        <ele>801.4</ele>
        <time>2025-09-06T12:16:30Z</time>
      </trkpt>
      <trkpt lat="46.12601" lon="4.52434">
        <ele>801.4</ele>
        <time>2025-09-06T12:16:31Z</time>
      </trkpt>
      <trkpt lat="46.12602" lon="4.52432">
        <ele>801.6</ele>
        <time>2025-09-06T12:16:32Z</time>
      </trkpt>
      <trkpt lat="46.12603" lon="4.52431">
        <ele>802</ele>
        <time>2025-09-06T12:16:33Z</time>
      </trkpt>
      <trkpt lat="46.12603" lon="4.5243">
        <ele>802.6</ele>
        <time>2025-09-06T12:16:34Z</time>
      </trkpt>
      <trkpt lat="46.12604" lon="4.52429">
        <ele>802.6</ele>
        <time>2025-09-06T12:16:35Z</time>
      </trkpt>
      <trkpt lat="46.12605" lon="4.52427">
        <ele>802.6</ele>
        <time>2025-09-06T12:16:36Z</time>
      </trkpt>
      <trkpt lat="46.12606" lon="4.52426">
        <ele>802.2</ele>
        <time>2025-09-06T12:16:37Z</time>
      </trkpt>
      <trkpt lat="46.12607" lon="4.52424">
        <ele>802.2</ele>
        <time>2025-09-06T12:16:38Z</time>
      </trkpt>
      <trkpt lat="46.12608" lon="4.52422">
        <ele>802</ele>
        <time>2025-09-06T12:16:39Z</time>
      </trkpt>
      <trkpt lat="46.12609" lon="4.5242">
        <ele>802</ele>
        <time>2025-09-06T12:16:40Z</time>
      </trkpt>
      <trkpt lat="46.1261" lon="4.52418">
        <ele>802</ele>
        <time>2025-09-06T12:16:41Z</time>
      </trkpt>
      <trkpt lat="46.12611" lon="4.52416">
        <ele>802</ele>
        <time>2025-09-06T12:16:42Z</time>
      </trkpt>
      <trkpt lat="46.12612" lon="4.52414">
        <ele>802.2</ele>
        <time>2025-09-06T12:16:43Z</time>
      </trkpt>
      <trkpt lat="46.12613" lon="4.52412">
        <ele>802.2</ele>
        <time>2025-09-06T12:16:44Z</time>
      </trkpt>
      <trkpt lat="46.12614" lon="4.52409">
        <ele>802.4</ele>
        <time>2025-09-06T12:16:45Z</time>
      </trkpt>
      <trkpt lat="46.12615" lon="4.52407">
        <ele>802.4</ele>
        <time>2025-09-06T12:16:46Z</time>
      </trkpt>
      <trkpt lat="46.12616" lon="4.52404">
        <ele>803</ele>
        <time>2025-09-06T12:16:47Z</time>
      </trkpt>
      <trkpt lat="46.12617" lon="4.52402">
        <ele>803</ele>
        <time>2025-09-06T12:16:48Z</time>
      </trkpt>
      <trkpt lat="46.12619" lon="4.52399">
        <ele>803</ele>
        <time>2025-09-06T12:16:49Z</time>
      </trkpt>
      <trkpt lat="46.1262" lon="4.52396">
        <ele>802.8</ele>
        <time>2025-09-06T12:16:50Z</time>
      </trkpt>
      <trkpt lat="46.12622" lon="4.52391">
        <ele>802.8</ele>
        <time>2025-09-06T12:16:51Z</time>
      </trkpt>
      <trkpt lat="46.12623" lon="4.52389">
        <ele>803.2</ele>
        <time>2025-09-06T12:16:52Z</time>
      </trkpt>
      <trkpt lat="46.12624" lon="4.52387">
        <ele>803.2</ele>
        <time>2025-09-06T12:16:53Z</time>
      </trkpt>
      <trkpt lat="46.12625" lon="4.52385">
        <ele>803.2</ele>
        <time>2025-09-06T12:16:54Z</time>
      </trkpt>
      <trkpt lat="46.12626" lon="4.52383">
        <ele>803.6</ele>
        <time>2025-09-06T12:16:55Z</time>
      </trkpt>
      <trkpt lat="46.12627" lon="4.5238">
        <ele>803.6</ele>
        <time>2025-09-06T12:16:56Z</time>
      </trkpt>
      <trkpt lat="46.12628" lon="4.52377">
        <ele>803.2</ele>
        <time>2025-09-06T12:16:57Z</time>
      </trkpt>
      <trkpt lat="46.1263" lon="4.52375">
        <ele>803.2</ele>
        <time>2025-09-06T12:16:58Z</time>
      </trkpt>
      <trkpt lat="46.12631" lon="4.52373">
        <ele>803.2</ele>
        <time>2025-09-06T12:16:59Z</time>
      </trkpt>
      <trkpt lat="46.12632" lon="4.52371">
        <ele>803.2</ele>
        <time>2025-09-06T12:17:00Z</time>
      </trkpt>
      <trkpt lat="46.12633" lon="4.52369">
        <ele>803.2</ele>
        <time>2025-09-06T12:17:01Z</time>
      </trkpt>
      <trkpt lat="46.12634" lon="4.52366">
        <ele>803.2</ele>
        <time>2025-09-06T12:17:02Z</time>
      </trkpt>
      <trkpt lat="46.12635" lon="4.52364">
        <ele>803.2</ele>
        <time>2025-09-06T12:17:03Z</time>
      </trkpt>
      <trkpt lat="46.12637" lon="4.52362">
        <ele>803.2</ele>
        <time>2025-09-06T12:17:04Z</time>
      </trkpt>
      <trkpt lat="46.12638" lon="4.5236">
        <ele>803.6</ele>
        <time>2025-09-06T12:17:05Z</time>
      </trkpt>
      <trkpt lat="46.12639" lon="4.52358">
        <ele>803.6</ele>
        <time>2025-09-06T12:17:06Z</time>
      </trkpt>
      <trkpt lat="46.12641" lon="4.52356">
        <ele>803.8</ele>
        <time>2025-09-06T12:17:07Z</time>
      </trkpt>
      <trkpt lat="46.12642" lon="4.52354">
        <ele>804.4</ele>
        <time>2025-09-06T12:17:08Z</time>
      </trkpt>
      <trkpt lat="46.12643" lon="4.52352">
        <ele>804.8</ele>
        <time>2025-09-06T12:17:09Z</time>
      </trkpt>
      <trkpt lat="46.12645" lon="4.52349">
        <ele>804.8</ele>
        <time>2025-09-06T12:17:10Z</time>
      </trkpt>
      <trkpt lat="46.12646" lon="4.52347">
        <ele>804.4</ele>
        <time>2025-09-06T12:17:11Z</time>
      </trkpt>
      <trkpt lat="46.12647" lon="4.52345">
        <ele>804.4</ele>
        <time>2025-09-06T12:17:12Z</time>
      </trkpt>
      <trkpt lat="46.12649" lon="4.52344">
        <ele>804</ele>
        <time>2025-09-06T12:17:13Z</time>
      </trkpt>
      <trkpt lat="46.1265" lon="4.52343">
        <ele>803.8</ele>
        <time>2025-09-06T12:17:14Z</time>
      </trkpt>
      <trkpt lat="46.12651" lon="4.52341">
        <ele>804.6</ele>
        <time>2025-09-06T12:17:15Z</time>
      </trkpt>
      <trkpt lat="46.12652" lon="4.5234">
        <ele>804.6</ele>
        <time>2025-09-06T12:17:16Z</time>
      </trkpt>
      <trkpt lat="46.12654" lon="4.52339">
        <ele>805</ele>
        <time>2025-09-06T12:17:17Z</time>
      </trkpt>
      <trkpt lat="46.12655" lon="4.52337">
        <ele>805</ele>
        <time>2025-09-06T12:17:18Z</time>
      </trkpt>
      <trkpt lat="46.12656" lon="4.52336">
        <ele>805</ele>
        <time>2025-09-06T12:17:19Z</time>
      </trkpt>
      <trkpt lat="46.12657" lon="4.52335">
        <ele>805</ele>
        <time>2025-09-06T12:17:20Z</time>
      </trkpt>
      <trkpt lat="46.12659" lon="4.52333">
        <ele>805</ele>
        <time>2025-09-06T12:17:21Z</time>
      </trkpt>
      <trkpt lat="46.1266" lon="4.52332">
        <ele>805</ele>
        <time>2025-09-06T12:17:22Z</time>
      </trkpt>
      <trkpt lat="46.12662" lon="4.52331">
        <ele>805</ele>
        <time>2025-09-06T12:17:23Z</time>
      </trkpt>
      <trkpt lat="46.12664" lon="4.52329">
        <ele>805</ele>
        <time>2025-09-06T12:17:24Z</time>
      </trkpt>
      <trkpt lat="46.12665" lon="4.52328">
        <ele>805.4</ele>
        <time>2025-09-06T12:17:25Z</time>
      </trkpt>
      <trkpt lat="46.12666" lon="4.52326">
        <ele>805.8</ele>
        <time>2025-09-06T12:17:26Z</time>
      </trkpt>
      <trkpt lat="46.12667" lon="4.52324">
        <ele>805.8</ele>
        <time>2025-09-06T12:17:27Z</time>
      </trkpt>
      <trkpt lat="46.12668" lon="4.52323">
        <ele>805.8</ele>
        <time>2025-09-06T12:17:28Z</time>
      </trkpt>
      <trkpt lat="46.12669" lon="4.52321">
        <ele>805.8</ele>
        <time>2025-09-06T12:17:29Z</time>
      </trkpt>
      <trkpt lat="46.12671" lon="4.5232">
        <ele>805.8</ele>
        <time>2025-09-06T12:17:30Z</time>
      </trkpt>
      <trkpt lat="46.12672" lon="4.52318">
        <ele>805.8</ele>
        <time>2025-09-06T12:17:31Z</time>
      </trkpt>
      <trkpt lat="46.12673" lon="4.52316">
        <ele>805.8</ele>
        <time>2025-09-06T12:17:32Z</time>
      </trkpt>
      <trkpt lat="46.12674" lon="4.52315">
        <ele>805.8</ele>
        <time>2025-09-06T12:17:33Z</time>
      </trkpt>
      <trkpt lat="46.12675" lon="4.52314">
        <ele>805.8</ele>
        <time>2025-09-06T12:17:34Z</time>
      </trkpt>
      <trkpt lat="46.12676" lon="4.52312">
        <ele>806.6</ele>
        <time>2025-09-06T12:17:35Z</time>
      </trkpt>
      <trkpt lat="46.12677" lon="4.5231">
        <ele>806.6</ele>
        <time>2025-09-06T12:17:36Z</time>
      </trkpt>
      <trkpt lat="46.12678" lon="4.52308">
        <ele>806.8</ele>
        <time>2025-09-06T12:17:37Z</time>
      </trkpt>
      <trkpt lat="46.12679" lon="4.52306">
        <ele>807.4</ele>
        <time>2025-09-06T12:17:38Z</time>
      </trkpt>
      <trkpt lat="46.1268" lon="4.52304">
        <ele>807.4</ele>
        <time>2025-09-06T12:17:39Z</time>
      </trkpt>
      <trkpt lat="46.12681" lon="4.52303">
        <ele>807.4</ele>
        <time>2025-09-06T12:17:40Z</time>
      </trkpt>
      <trkpt lat="46.12682" lon="4.52302">
        <ele>808</ele>
        <time>2025-09-06T12:17:41Z</time>
      </trkpt>
      <trkpt lat="46.12683" lon="4.523">
        <ele>807.6</ele>
        <time>2025-09-06T12:17:42Z</time>
      </trkpt>
      <trkpt lat="46.12684" lon="4.52298">
        <ele>808</ele>
        <time>2025-09-06T12:17:43Z</time>
      </trkpt>
      <trkpt lat="46.12685" lon="4.52297">
        <ele>808</ele>
        <time>2025-09-06T12:17:44Z</time>
      </trkpt>
      <trkpt lat="46.12686" lon="4.52295">
        <ele>808.2</ele>
        <time>2025-09-06T12:17:45Z</time>
      </trkpt>
      <trkpt lat="46.12687" lon="4.52293">
        <ele>808.2</ele>
        <time>2025-09-06T12:17:46Z</time>
      </trkpt>
      <trkpt lat="46.12688" lon="4.52292">
        <ele>808.8</ele>
        <time>2025-09-06T12:17:47Z</time>
      </trkpt>
      <trkpt lat="46.12689" lon="4.5229">
        <ele>808.2</ele>
        <time>2025-09-06T12:17:48Z</time>
      </trkpt>
      <trkpt lat="46.1269" lon="4.52288">
        <ele>808.8</ele>
        <time>2025-09-06T12:17:49Z</time>
      </trkpt>
      <trkpt lat="46.12691" lon="4.52287">
        <ele>809</ele>
        <time>2025-09-06T12:17:50Z</time>
      </trkpt>
      <trkpt lat="46.12693" lon="4.52286">
        <ele>809</ele>
        <time>2025-09-06T12:17:51Z</time>
      </trkpt>
      <trkpt lat="46.12694" lon="4.52284">
        <ele>809.4</ele>
        <time>2025-09-06T12:17:52Z</time>
      </trkpt>
      <trkpt lat="46.12695" lon="4.52282">
        <ele>809.4</ele>
        <time>2025-09-06T12:17:53Z</time>
      </trkpt>
      <trkpt lat="46.12696" lon="4.52281">
        <ele>809.4</ele>
        <time>2025-09-06T12:17:54Z</time>
      </trkpt>
      <trkpt lat="46.12697" lon="4.5228">
        <ele>809.4</ele>
        <time>2025-09-06T12:17:55Z</time>
      </trkpt>
      <trkpt lat="46.12698" lon="4.52278">
        <ele>809.8</ele>
        <time>2025-09-06T12:17:56Z</time>
      </trkpt>
      <trkpt lat="46.12699" lon="4.52276">
        <ele>810.2</ele>
        <time>2025-09-06T12:17:57Z</time>
      </trkpt>
      <trkpt lat="46.127" lon="4.52274">
        <ele>810.2</ele>
        <time>2025-09-06T12:17:58Z</time>
      </trkpt>
      <trkpt lat="46.12701" lon="4.52273">
        <ele>810.6</ele>
        <time>2025-09-06T12:17:59Z</time>
      </trkpt>
      <trkpt lat="46.12702" lon="4.52272">
        <ele>811</ele>
        <time>2025-09-06T12:18:00Z</time>
      </trkpt>
      <trkpt lat="46.12703" lon="4.52271">
        <ele>811</ele>
        <time>2025-09-06T12:18:01Z</time>
      </trkpt>
      <trkpt lat="46.12704" lon="4.52269">
        <ele>811</ele>
        <time>2025-09-06T12:18:02Z</time>
      </trkpt>
      <trkpt lat="46.12705" lon="4.52268">
        <ele>811</ele>
        <time>2025-09-06T12:18:03Z</time>
      </trkpt>
      <trkpt lat="46.12705" lon="4.52266">
        <ele>811.6</ele>
        <time>2025-09-06T12:18:04Z</time>
      </trkpt>
      <trkpt lat="46.12706" lon="4.52265">
        <ele>811.6</ele>
        <time>2025-09-06T12:18:05Z</time>
      </trkpt>
      <trkpt lat="46.12707" lon="4.52263">
        <ele>811.6</ele>
        <time>2025-09-06T12:18:06Z</time>
      </trkpt>
      <trkpt lat="46.12709" lon="4.52262">
        <ele>811.4</ele>
        <time>2025-09-06T12:18:07Z</time>
      </trkpt>
      <trkpt lat="46.1271" lon="4.52261">
        <ele>811.4</ele>
        <time>2025-09-06T12:18:08Z</time>
      </trkpt>
      <trkpt lat="46.12711" lon="4.52261">
        <ele>811.4</ele>
        <time>2025-09-06T12:18:09Z</time>
      </trkpt>
      <trkpt lat="46.12712" lon="4.5226">
        <ele>811.8</ele>
        <time>2025-09-06T12:18:10Z</time>
      </trkpt>
      <trkpt lat="46.12712" lon="4.52259">
        <ele>812</ele>
        <time>2025-09-06T12:18:11Z</time>
      </trkpt>
      <trkpt lat="46.12713" lon="4.52258">
        <ele>812</ele>
        <time>2025-09-06T12:18:12Z</time>
      </trkpt>
      <trkpt lat="46.12713" lon="4.52257">
        <ele>812.2</ele>
        <time>2025-09-06T12:18:13Z</time>
      </trkpt>
      <trkpt lat="46.12714" lon="4.52256">
        <ele>812.2</ele>
        <time>2025-09-06T12:18:14Z</time>
      </trkpt>
      <trkpt lat="46.12713" lon="4.52256">
        <ele>812.2</ele>
        <time>2025-09-06T12:18:15Z</time>
      </trkpt>
      <trkpt lat="46.12713" lon="4.52256">
        <ele>812.2</ele>
        <time>2025-09-06T12:18:16Z</time>
      </trkpt>
      <trkpt lat="46.12716" lon="4.52256">
        <ele>811.6</ele>
        <time>2025-09-06T12:18:41Z</time>
      </trkpt>
      <trkpt lat="46.12717" lon="4.52255">
        <ele>812</ele>
        <time>2025-09-06T12:18:42Z</time>
      </trkpt>
      <trkpt lat="46.12718" lon="4.52253">
        <ele>812</ele>
        <time>2025-09-06T12:18:43Z</time>
      </trkpt>
      <trkpt lat="46.12719" lon="4.52251">
        <ele>812.4</ele>
        <time>2025-09-06T12:18:44Z</time>
      </trkpt>
      <trkpt lat="46.1272" lon="4.52248">
        <ele>812.4</ele>
        <time>2025-09-06T12:18:45Z</time>
      </trkpt>
      <trkpt lat="46.1272" lon="4.52246">
        <ele>812.8</ele>
        <time>2025-09-06T12:18:46Z</time>
      </trkpt>
      <trkpt lat="46.12721" lon="4.52244">
        <ele>812.6</ele>
        <time>2025-09-06T12:18:47Z</time>
      </trkpt>
      <trkpt lat="46.12722" lon="4.52243">
        <ele>813</ele>
        <time>2025-09-06T12:18:48Z</time>
      </trkpt>
      <trkpt lat="46.12723" lon="4.52241">
        <ele>813.2</ele>
        <time>2025-09-06T12:18:49Z</time>
      </trkpt>
      <trkpt lat="46.12724" lon="4.52239">
        <ele>813.2</ele>
        <time>2025-09-06T12:18:50Z</time>
      </trkpt>
      <trkpt lat="46.12725" lon="4.52236">
        <ele>813.2</ele>
        <time>2025-09-06T12:18:51Z</time>
      </trkpt>
      <trkpt lat="46.12726" lon="4.52234">
        <ele>813.4</ele>
        <time>2025-09-06T12:18:52Z</time>
      </trkpt>
      <trkpt lat="46.12727" lon="4.52233">
        <ele>813.2</ele>
        <time>2025-09-06T12:18:53Z</time>
      </trkpt>
      <trkpt lat="46.12728" lon="4.52231">
        <ele>813.4</ele>
        <time>2025-09-06T12:18:54Z</time>
      </trkpt>
      <trkpt lat="46.12729" lon="4.5223">
        <ele>813.4</ele>
        <time>2025-09-06T12:18:55Z</time>
      </trkpt>
      <trkpt lat="46.1273" lon="4.52228">
        <ele>813.8</ele>
        <time>2025-09-06T12:18:56Z</time>
      </trkpt>
      <trkpt lat="46.12731" lon="4.52227">
        <ele>813.8</ele>
        <time>2025-09-06T12:18:57Z</time>
      </trkpt>
      <trkpt lat="46.12733" lon="4.52226">
        <ele>814.4</ele>
        <time>2025-09-06T12:18:58Z</time>
      </trkpt>
      <trkpt lat="46.12734" lon="4.52224">
        <ele>814.8</ele>
        <time>2025-09-06T12:18:59Z</time>
      </trkpt>
      <trkpt lat="46.12735" lon="4.52222">
        <ele>814.8</ele>
        <time>2025-09-06T12:19:00Z</time>
      </trkpt>
      <trkpt lat="46.12736" lon="4.5222">
        <ele>814.6</ele>
        <time>2025-09-06T12:19:01Z</time>
      </trkpt>
      <trkpt lat="46.12737" lon="4.52218">
        <ele>814.8</ele>
        <time>2025-09-06T12:19:02Z</time>
      </trkpt>
      <trkpt lat="46.12738" lon="4.52217">
        <ele>815</ele>
        <time>2025-09-06T12:19:03Z</time>
      </trkpt>
      <trkpt lat="46.1274" lon="4.52215">
        <ele>815.2</ele>
        <time>2025-09-06T12:19:04Z</time>
      </trkpt>
      <trkpt lat="46.12741" lon="4.52213">
        <ele>815.4</ele>
        <time>2025-09-06T12:19:05Z</time>
      </trkpt>
      <trkpt lat="46.12742" lon="4.52212">
        <ele>814.8</ele>
        <time>2025-09-06T12:19:06Z</time>
      </trkpt>
      <trkpt lat="46.12744" lon="4.5221">
        <ele>815.2</ele>
        <time>2025-09-06T12:19:07Z</time>
      </trkpt>
      <trkpt lat="46.12746" lon="4.52209">
        <ele>815.6</ele>
        <time>2025-09-06T12:19:08Z</time>
      </trkpt>
      <trkpt lat="46.12748" lon="4.52207">
        <ele>815.6</ele>
        <time>2025-09-06T12:19:09Z</time>
      </trkpt>
      <trkpt lat="46.12749" lon="4.52205">
        <ele>815.8</ele>
        <time>2025-09-06T12:19:10Z</time>
      </trkpt>
      <trkpt lat="46.1275" lon="4.52204">
        <ele>816</ele>
        <time>2025-09-06T12:19:11Z</time>
      </trkpt>
      <trkpt lat="46.12751" lon="4.52202">
        <ele>816</ele>
        <time>2025-09-06T12:19:12Z</time>
      </trkpt>
      <trkpt lat="46.12752" lon="4.522">
        <ele>816.4</ele>
        <time>2025-09-06T12:19:13Z</time>
      </trkpt>
      <trkpt lat="46.12753" lon="4.52198">
        <ele>816.8</ele>
        <time>2025-09-06T12:19:14Z</time>
      </trkpt>
      <trkpt lat="46.12754" lon="4.52197">
        <ele>816.8</ele>
        <time>2025-09-06T12:19:15Z</time>
      </trkpt>
      <trkpt lat="46.12756" lon="4.52195">
        <ele>817.2</ele>
        <time>2025-09-06T12:19:16Z</time>
      </trkpt>
      <trkpt lat="46.12757" lon="4.52193">
        <ele>817.2</ele>
        <time>2025-09-06T12:19:17Z</time>
      </trkpt>
      <trkpt lat="46.12759" lon="4.52192">
        <ele>817.2</ele>
        <time>2025-09-06T12:19:18Z</time>
      </trkpt>
      <trkpt lat="46.1276" lon="4.5219">
        <ele>817.2</ele>
        <time>2025-09-06T12:19:19Z</time>
      </trkpt>
      <trkpt lat="46.12761" lon="4.52188">
        <ele>817.6</ele>
        <time>2025-09-06T12:19:20Z</time>
      </trkpt>
      <trkpt lat="46.12762" lon="4.52186">
        <ele>818</ele>
        <time>2025-09-06T12:19:21Z</time>
      </trkpt>
      <trkpt lat="46.12764" lon="4.52184">
        <ele>817.8</ele>
        <time>2025-09-06T12:19:22Z</time>
      </trkpt>
      <trkpt lat="46.12765" lon="4.52182">
        <ele>817.8</ele>
        <time>2025-09-06T12:19:23Z</time>
      </trkpt>
      <trkpt lat="46.12766" lon="4.5218">
        <ele>817.8</ele>
        <time>2025-09-06T12:19:24Z</time>
      </trkpt>
      <trkpt lat="46.12766" lon="4.52178">
        <ele>818</ele>
        <time>2025-09-06T12:19:25Z</time>
      </trkpt>
      <trkpt lat="46.12767" lon="4.52175">
        <ele>818</ele>
        <time>2025-09-06T12:19:26Z</time>
      </trkpt>
      <trkpt lat="46.12768" lon="4.52174">
        <ele>818</ele>
        <time>2025-09-06T12:19:27Z</time>
      </trkpt>
      <trkpt lat="46.12768" lon="4.52172">
        <ele>818.4</ele>
        <time>2025-09-06T12:19:28Z</time>
      </trkpt>
      <trkpt lat="46.12769" lon="4.5217">
        <ele>818.4</ele>
        <time>2025-09-06T12:19:29Z</time>
      </trkpt>
      <trkpt lat="46.1277" lon="4.52168">
        <ele>818.4</ele>
        <time>2025-09-06T12:19:30Z</time>
      </trkpt>
      <trkpt lat="46.12771" lon="4.52167">
        <ele>818.4</ele>
        <time>2025-09-06T12:19:31Z</time>
      </trkpt>
      <trkpt lat="46.12772" lon="4.52165">
        <ele>818.4</ele>
        <time>2025-09-06T12:19:32Z</time>
      </trkpt>
      <trkpt lat="46.12773" lon="4.52163">
        <ele>818.6</ele>
        <time>2025-09-06T12:19:33Z</time>
      </trkpt>
      <trkpt lat="46.12774" lon="4.52161">
        <ele>818.6</ele>
        <time>2025-09-06T12:19:34Z</time>
      </trkpt>
      <trkpt lat="46.12775" lon="4.52159">
        <ele>818.6</ele>
        <time>2025-09-06T12:19:35Z</time>
      </trkpt>
      <trkpt lat="46.12776" lon="4.52157">
        <ele>819.2</ele>
        <time>2025-09-06T12:19:36Z</time>
      </trkpt>
      <trkpt lat="46.12777" lon="4.52155">
        <ele>819.4</ele>
        <time>2025-09-06T12:19:37Z</time>
      </trkpt>
      <trkpt lat="46.12778" lon="4.52153">
        <ele>819.4</ele>
        <time>2025-09-06T12:19:38Z</time>
      </trkpt>
      <trkpt lat="46.12779" lon="4.52151">
        <ele>819.4</ele>
        <time>2025-09-06T12:19:39Z</time>
      </trkpt>
      <trkpt lat="46.1278" lon="4.52149">
        <ele>819.4</ele>
        <time>2025-09-06T12:19:40Z</time>
      </trkpt>
      <trkpt lat="46.12781" lon="4.52147">
        <ele>819.4</ele>
        <time>2025-09-06T12:19:41Z</time>
      </trkpt>
      <trkpt lat="46.12782" lon="4.52146">
        <ele>819.8</ele>
        <time>2025-09-06T12:19:42Z</time>
      </trkpt>
      <trkpt lat="46.12783" lon="4.52143">
        <ele>819.8</ele>
        <time>2025-09-06T12:19:43Z</time>
      </trkpt>
      <trkpt lat="46.12784" lon="4.52141">
        <ele>819.4</ele>
        <time>2025-09-06T12:19:44Z</time>
      </trkpt>
      <trkpt lat="46.12785" lon="4.52139">
        <ele>819.4</ele>
        <time>2025-09-06T12:19:45Z</time>
      </trkpt>
      <trkpt lat="46.12786" lon="4.52138">
        <ele>819.4</ele>
        <time>2025-09-06T12:19:46Z</time>
      </trkpt>
      <trkpt lat="46.12786" lon="4.52137">
        <ele>820</ele>
        <time>2025-09-06T12:19:47Z</time>
      </trkpt>
      <trkpt lat="46.12787" lon="4.52135">
        <ele>820</ele>
        <time>2025-09-06T12:19:48Z</time>
      </trkpt>
      <trkpt lat="46.12788" lon="4.52132">
        <ele>820</ele>
        <time>2025-09-06T12:19:49Z</time>
      </trkpt>
      <trkpt lat="46.1279" lon="4.5213">
        <ele>820.2</ele>
        <time>2025-09-06T12:19:50Z</time>
      </trkpt>
      <trkpt lat="46.12791" lon="4.52128">
        <ele>820.2</ele>
        <time>2025-09-06T12:19:51Z</time>
      </trkpt>
      <trkpt lat="46.12792" lon="4.52126">
        <ele>820.4</ele>
        <time>2025-09-06T12:19:52Z</time>
      </trkpt>
      <trkpt lat="46.12792" lon="4.52124">
        <ele>820.4</ele>
        <time>2025-09-06T12:19:53Z</time>
      </trkpt>
      <trkpt lat="46.12793" lon="4.52121">
        <ele>821</ele>
        <time>2025-09-06T12:19:54Z</time>
      </trkpt>
      <trkpt lat="46.12794" lon="4.52119">
        <ele>821</ele>
        <time>2025-09-06T12:19:55Z</time>
      </trkpt>
      <trkpt lat="46.12795" lon="4.52117">
        <ele>821</ele>
        <time>2025-09-06T12:19:56Z</time>
      </trkpt>
      <trkpt lat="46.12796" lon="4.52114">
        <ele>821.2</ele>
        <time>2025-09-06T12:19:57Z</time>
      </trkpt>
      <trkpt lat="46.12797" lon="4.52111">
        <ele>821.2</ele>
        <time>2025-09-06T12:19:58Z</time>
      </trkpt>
      <trkpt lat="46.12798" lon="4.52108">
        <ele>820.8</ele>
        <time>2025-09-06T12:19:59Z</time>
      </trkpt>
      <trkpt lat="46.12799" lon="4.52107">
        <ele>821</ele>
        <time>2025-09-06T12:20:00Z</time>
      </trkpt>
      <trkpt lat="46.128" lon="4.52105">
        <ele>821</ele>
        <time>2025-09-06T12:20:01Z</time>
      </trkpt>
      <trkpt lat="46.12801" lon="4.52103">
        <ele>821</ele>
        <time>2025-09-06T12:20:02Z</time>
      </trkpt>
      <trkpt lat="46.12802" lon="4.52101">
        <ele>821.4</ele>
        <time>2025-09-06T12:20:03Z</time>
      </trkpt>
      <trkpt lat="46.12803" lon="4.52099">
        <ele>821</ele>
        <time>2025-09-06T12:20:04Z</time>
      </trkpt>
      <trkpt lat="46.12804" lon="4.52098">
        <ele>821.8</ele>
        <time>2025-09-06T12:20:05Z</time>
      </trkpt>
      <trkpt lat="46.12805" lon="4.52097">
        <ele>821.8</ele>
        <time>2025-09-06T12:20:06Z</time>
      </trkpt>
      <trkpt lat="46.12805" lon="4.52097">
        <ele>822.2</ele>
        <time>2025-09-06T12:20:07Z</time>
      </trkpt>
      <trkpt lat="46.12807" lon="4.52093">
        <ele>822.6</ele>
        <time>2025-09-06T12:20:08Z</time>
      </trkpt>
      <trkpt lat="46.12807" lon="4.52091">
        <ele>823</ele>
        <time>2025-09-06T12:20:09Z</time>
      </trkpt>
      <trkpt lat="46.12808" lon="4.52088">
        <ele>823</ele>
        <time>2025-09-06T12:20:10Z</time>
      </trkpt>
      <trkpt lat="46.12808" lon="4.52086">
        <ele>823.2</ele>
        <time>2025-09-06T12:20:11Z</time>
      </trkpt>
      <trkpt lat="46.12809" lon="4.52083">
        <ele>823.2</ele>
        <time>2025-09-06T12:20:12Z</time>
      </trkpt>
      <trkpt lat="46.1281" lon="4.52081">
        <ele>822.8</ele>
        <time>2025-09-06T12:20:13Z</time>
      </trkpt>
      <trkpt lat="46.12811" lon="4.52078">
        <ele>823</ele>
        <time>2025-09-06T12:20:14Z</time>
      </trkpt>
      <trkpt lat="46.12811" lon="4.52076">
        <ele>823.2</ele>
        <time>2025-09-06T12:20:15Z</time>
      </trkpt>
      <trkpt lat="46.12812" lon="4.52074">
        <ele>822.8</ele>
        <time>2025-09-06T12:20:16Z</time>
      </trkpt>
      <trkpt lat="46.12813" lon="4.52072">
        <ele>823.4</ele>
        <time>2025-09-06T12:20:17Z</time>
      </trkpt>
      <trkpt lat="46.12813" lon="4.52069">
        <ele>823.4</ele>
        <time>2025-09-06T12:20:18Z</time>
      </trkpt>
      <trkpt lat="46.12814" lon="4.52067">
        <ele>823.4</ele>
        <time>2025-09-06T12:20:19Z</time>
      </trkpt>
      <trkpt lat="46.12814" lon="4.52065">
        <ele>823.8</ele>
        <time>2025-09-06T12:20:20Z</time>
      </trkpt>
      <trkpt lat="46.12815" lon="4.52062">
        <ele>824.2</ele>
        <time>2025-09-06T12:20:21Z</time>
      </trkpt>
      <trkpt lat="46.12816" lon="4.5206">
        <ele>824</ele>
        <time>2025-09-06T12:20:22Z</time>
      </trkpt>
      <trkpt lat="46.12816" lon="4.52057">
        <ele>824</ele>
        <time>2025-09-06T12:20:23Z</time>
      </trkpt>
      <trkpt lat="46.12817" lon="4.52054">
        <ele>824</ele>
        <time>2025-09-06T12:20:24Z</time>
      </trkpt>
      <trkpt lat="46.12818" lon="4.52052">
        <ele>824</ele>
        <time>2025-09-06T12:20:25Z</time>
      </trkpt>
      <trkpt lat="46.12818" lon="4.5205">
        <ele>824</ele>
        <time>2025-09-06T12:20:26Z</time>
      </trkpt>
      <trkpt lat="46.12819" lon="4.52048">
        <ele>824</ele>
        <time>2025-09-06T12:20:27Z</time>
      </trkpt>
      <trkpt lat="46.1282" lon="4.52045">
        <ele>824</ele>
        <time>2025-09-06T12:20:28Z</time>
      </trkpt>
      <trkpt lat="46.1282" lon="4.52043">
        <ele>824</ele>
        <time>2025-09-06T12:20:29Z</time>
      </trkpt>
      <trkpt lat="46.12821" lon="4.52039">
        <ele>824</ele>
        <time>2025-09-06T12:20:30Z</time>
      </trkpt>
      <trkpt lat="46.12821" lon="4.52037">
        <ele>824</ele>
        <time>2025-09-06T12:20:31Z</time>
      </trkpt>
      <trkpt lat="46.12821" lon="4.52034">
        <ele>824</ele>
        <time>2025-09-06T12:20:32Z</time>
      </trkpt>
      <trkpt lat="46.12822" lon="4.52031">
        <ele>824</ele>
        <time>2025-09-06T12:20:33Z</time>
      </trkpt>
      <trkpt lat="46.12822" lon="4.52029">
        <ele>824</ele>
        <time>2025-09-06T12:20:34Z</time>
      </trkpt>
      <trkpt lat="46.12823" lon="4.52027">
        <ele>824</ele>
        <time>2025-09-06T12:20:35Z</time>
      </trkpt>
      <trkpt lat="46.12823" lon="4.52024">
        <ele>824</ele>
        <time>2025-09-06T12:20:36Z</time>
      </trkpt>
      <trkpt lat="46.12824" lon="4.52022">
        <ele>824.4</ele>
        <time>2025-09-06T12:20:37Z</time>
      </trkpt>
      <trkpt lat="46.12825" lon="4.5202">
        <ele>824.4</ele>
        <time>2025-09-06T12:20:38Z</time>
      </trkpt>
      <trkpt lat="46.12826" lon="4.52018">
        <ele>824.4</ele>
        <time>2025-09-06T12:20:39Z</time>
      </trkpt>
      <trkpt lat="46.12828" lon="4.52016">
        <ele>824.4</ele>
        <time>2025-09-06T12:20:40Z</time>
      </trkpt>
      <trkpt lat="46.12829" lon="4.52014">
        <ele>824.6</ele>
        <time>2025-09-06T12:20:41Z</time>
      </trkpt>
      <trkpt lat="46.12831" lon="4.52013">
        <ele>824.6</ele>
        <time>2025-09-06T12:20:42Z</time>
      </trkpt>
      <trkpt lat="46.12832" lon="4.52012">
        <ele>824.8</ele>
        <time>2025-09-06T12:20:43Z</time>
      </trkpt>
      <trkpt lat="46.12834" lon="4.52012">
        <ele>825.2</ele>
        <time>2025-09-06T12:20:44Z</time>
      </trkpt>
      <trkpt lat="46.12835" lon="4.52011">
        <ele>825.2</ele>
        <time>2025-09-06T12:20:45Z</time>
      </trkpt>
      <trkpt lat="46.12837" lon="4.52011">
        <ele>825.2</ele>
        <time>2025-09-06T12:20:46Z</time>
      </trkpt>
      <trkpt lat="46.12838" lon="4.5201">
        <ele>825.2</ele>
        <time>2025-09-06T12:20:47Z</time>
      </trkpt>
      <trkpt lat="46.1284" lon="4.52009">
        <ele>825.2</ele>
        <time>2025-09-06T12:20:48Z</time>
      </trkpt>
      <trkpt lat="46.12842" lon="4.52008">
        <ele>825.2</ele>
        <time>2025-09-06T12:20:49Z</time>
      </trkpt>
      <trkpt lat="46.12844" lon="4.52007">
        <ele>825.2</ele>
        <time>2025-09-06T12:20:50Z</time>
      </trkpt>
      <trkpt lat="46.12844" lon="4.52006">
        <ele>825.2</ele>
        <time>2025-09-06T12:20:51Z</time>
      </trkpt>
      <trkpt lat="46.12845" lon="4.52005">
        <ele>825.2</ele>
        <time>2025-09-06T12:20:52Z</time>
      </trkpt>
      <trkpt lat="46.12847" lon="4.52004">
        <ele>825.6</ele>
        <time>2025-09-06T12:20:53Z</time>
      </trkpt>
      <trkpt lat="46.1285" lon="4.52003">
        <ele>825.6</ele>
        <time>2025-09-06T12:20:54Z</time>
      </trkpt>
      <trkpt lat="46.12852" lon="4.52002">
        <ele>825.6</ele>
        <time>2025-09-06T12:20:55Z</time>
      </trkpt>
      <trkpt lat="46.12853" lon="4.52">
        <ele>825.6</ele>
        <time>2025-09-06T12:20:56Z</time>
      </trkpt>
      <trkpt lat="46.12855" lon="4.51999">
        <ele>825.6</ele>
        <time>2025-09-06T12:20:57Z</time>
      </trkpt>
      <trkpt lat="46.12857" lon="4.51998">
        <ele>825.6</ele>
        <time>2025-09-06T12:20:58Z</time>
      </trkpt>
      <trkpt lat="46.12859" lon="4.51997">
        <ele>825.8</ele>
        <time>2025-09-06T12:20:59Z</time>
      </trkpt>
      <trkpt lat="46.1286" lon="4.51996">
        <ele>825.8</ele>
        <time>2025-09-06T12:21:00Z</time>
      </trkpt>
      <trkpt lat="46.12861" lon="4.51995">
        <ele>826.2</ele>
        <time>2025-09-06T12:21:01Z</time>
      </trkpt>
      <trkpt lat="46.12863" lon="4.51994">
        <ele>826.2</ele>
        <time>2025-09-06T12:21:02Z</time>
      </trkpt>
      <trkpt lat="46.12865" lon="4.51993">
        <ele>826.4</ele>
        <time>2025-09-06T12:21:03Z</time>
      </trkpt>
      <trkpt lat="46.12866" lon="4.51992">
        <ele>826.4</ele>
        <time>2025-09-06T12:21:04Z</time>
      </trkpt>
      <trkpt lat="46.12868" lon="4.51991">
        <ele>826.4</ele>
        <time>2025-09-06T12:21:05Z</time>
      </trkpt>
      <trkpt lat="46.12869" lon="4.5199">
        <ele>826.8</ele>
        <time>2025-09-06T12:21:06Z</time>
      </trkpt>
      <trkpt lat="46.12871" lon="4.51989">
        <ele>826.8</ele>
        <time>2025-09-06T12:21:07Z</time>
      </trkpt>
      <trkpt lat="46.12872" lon="4.51989">
        <ele>827.2</ele>
        <time>2025-09-06T12:21:08Z</time>
      </trkpt>
      <trkpt lat="46.12874" lon="4.51989">
        <ele>827.6</ele>
        <time>2025-09-06T12:21:09Z</time>
      </trkpt>
      <trkpt lat="46.12876" lon="4.51989">
        <ele>827.6</ele>
        <time>2025-09-06T12:21:10Z</time>
      </trkpt>
      <trkpt lat="46.12878" lon="4.51988">
        <ele>827.6</ele>
        <time>2025-09-06T12:21:11Z</time>
      </trkpt>
      <trkpt lat="46.1288" lon="4.51988">
        <ele>828</ele>
        <time>2025-09-06T12:21:12Z</time>
      </trkpt>
      <trkpt lat="46.12882" lon="4.51987">
        <ele>828</ele>
        <time>2025-09-06T12:21:13Z</time>
      </trkpt>
      <trkpt lat="46.12883" lon="4.51986">
        <ele>828.4</ele>
        <time>2025-09-06T12:21:14Z</time>
      </trkpt>
      <trkpt lat="46.12884" lon="4.51986">
        <ele>828.4</ele>
        <time>2025-09-06T12:21:15Z</time>
      </trkpt>
      <trkpt lat="46.12885" lon="4.51985">
        <ele>828.4</ele>
        <time>2025-09-06T12:21:16Z</time>
      </trkpt>
      <trkpt lat="46.12887" lon="4.51984">
        <ele>829</ele>
        <time>2025-09-06T12:21:17Z</time>
      </trkpt>
      <trkpt lat="46.12888" lon="4.51983">
        <ele>829.2</ele>
        <time>2025-09-06T12:21:18Z</time>
      </trkpt>
      <trkpt lat="46.12888" lon="4.51982">
        <ele>829.2</ele>
        <time>2025-09-06T12:21:19Z</time>
      </trkpt>
      <trkpt lat="46.1289" lon="4.5198">
        <ele>829.2</ele>
        <time>2025-09-06T12:21:20Z</time>
      </trkpt>
      <trkpt lat="46.12891" lon="4.51979">
        <ele>829.2</ele>
        <time>2025-09-06T12:21:21Z</time>
      </trkpt>
      <trkpt lat="46.12891" lon="4.51979">
        <ele>829.6</ele>
        <time>2025-09-06T12:21:22Z</time>
      </trkpt>
      <trkpt lat="46.12893" lon="4.51979">
        <ele>829.8</ele>
        <time>2025-09-06T12:21:23Z</time>
      </trkpt>
      <trkpt lat="46.12894" lon="4.51979">
        <ele>829.8</ele>
        <time>2025-09-06T12:21:24Z</time>
      </trkpt>
      <trkpt lat="46.12896" lon="4.51979">
        <ele>829.8</ele>
        <time>2025-09-06T12:21:25Z</time>
      </trkpt>
      <trkpt lat="46.12897" lon="4.51978">
        <ele>829.8</ele>
        <time>2025-09-06T12:21:26Z</time>
      </trkpt>
      <trkpt lat="46.12898" lon="4.51977">
        <ele>829.8</ele>
        <time>2025-09-06T12:21:27Z</time>
      </trkpt>
      <trkpt lat="46.129" lon="4.51977">
        <ele>830</ele>
        <time>2025-09-06T12:21:28Z</time>
      </trkpt>
      <trkpt lat="46.12902" lon="4.51976">
        <ele>830</ele>
        <time>2025-09-06T12:21:29Z</time>
      </trkpt>
      <trkpt lat="46.12904" lon="4.51974">
        <ele>830</ele>
        <time>2025-09-06T12:21:30Z</time>
      </trkpt>
      <trkpt lat="46.12906" lon="4.51973">
        <ele>830</ele>
        <time>2025-09-06T12:21:31Z</time>
      </trkpt>
      <trkpt lat="46.12908" lon="4.51971">
        <ele>830</ele>
        <time>2025-09-06T12:21:32Z</time>
      </trkpt>
      <trkpt lat="46.12909" lon="4.5197">
        <ele>830.4</ele>
        <time>2025-09-06T12:21:33Z</time>
      </trkpt>
      <trkpt lat="46.1291" lon="4.51969">
        <ele>830.6</ele>
        <time>2025-09-06T12:21:34Z</time>
      </trkpt>
      <trkpt lat="46.12911" lon="4.51969">
        <ele>830.6</ele>
        <time>2025-09-06T12:21:35Z</time>
      </trkpt>
      <trkpt lat="46.12913" lon="4.51968">
        <ele>830.6</ele>
        <time>2025-09-06T12:21:36Z</time>
      </trkpt>
      <trkpt lat="46.12914" lon="4.51967">
        <ele>830.6</ele>
        <time>2025-09-06T12:21:37Z</time>
      </trkpt>
      <trkpt lat="46.12916" lon="4.51966">
        <ele>830.6</ele>
        <time>2025-09-06T12:21:38Z</time>
      </trkpt>
      <trkpt lat="46.12918" lon="4.51964">
        <ele>830.6</ele>
        <time>2025-09-06T12:21:39Z</time>
      </trkpt>
      <trkpt lat="46.1292" lon="4.51964">
        <ele>830.8</ele>
        <time>2025-09-06T12:21:40Z</time>
      </trkpt>
      <trkpt lat="46.1292" lon="4.51963">
        <ele>830.8</ele>
        <time>2025-09-06T12:21:41Z</time>
      </trkpt>
      <trkpt lat="46.12921" lon="4.51963">
        <ele>831.2</ele>
        <time>2025-09-06T12:21:42Z</time>
      </trkpt>
      <trkpt lat="46.12922" lon="4.51962">
        <ele>831.2</ele>
        <time>2025-09-06T12:21:43Z</time>
      </trkpt>
      <trkpt lat="46.12924" lon="4.51961">
        <ele>831.2</ele>
        <time>2025-09-06T12:21:44Z</time>
      </trkpt>
      <trkpt lat="46.12926" lon="4.51959">
        <ele>831.6</ele>
        <time>2025-09-06T12:21:45Z</time>
      </trkpt>
      <trkpt lat="46.12928" lon="4.51959">
        <ele>831.6</ele>
        <time>2025-09-06T12:21:46Z</time>
      </trkpt>
      <trkpt lat="46.1293" lon="4.51958">
        <ele>831.8</ele>
        <time>2025-09-06T12:21:47Z</time>
      </trkpt>
      <trkpt lat="46.12932" lon="4.51958">
        <ele>832</ele>
        <time>2025-09-06T12:21:48Z</time>
      </trkpt>
      <trkpt lat="46.12934" lon="4.51957">
        <ele>832.4</ele>
        <time>2025-09-06T12:21:49Z</time>
      </trkpt>
      <trkpt lat="46.12936" lon="4.51957">
        <ele>832.4</ele>
        <time>2025-09-06T12:21:50Z</time>
      </trkpt>
      <trkpt lat="46.12937" lon="4.51956">
        <ele>832.4</ele>
        <time>2025-09-06T12:21:51Z</time>
      </trkpt>
      <trkpt lat="46.12938" lon="4.51956">
        <ele>832.4</ele>
        <time>2025-09-06T12:21:52Z</time>
      </trkpt>
      <trkpt lat="46.12939" lon="4.51955">
        <ele>832.4</ele>
        <time>2025-09-06T12:21:53Z</time>
      </trkpt>
      <trkpt lat="46.12941" lon="4.51954">
        <ele>832.4</ele>
        <time>2025-09-06T12:21:54Z</time>
      </trkpt>
      <trkpt lat="46.12943" lon="4.51953">
        <ele>832</ele>
        <time>2025-09-06T12:21:55Z</time>
      </trkpt>
      <trkpt lat="46.12945" lon="4.51952">
        <ele>832</ele>
        <time>2025-09-06T12:21:56Z</time>
      </trkpt>
      <trkpt lat="46.12946" lon="4.51952">
        <ele>832</ele>
        <time>2025-09-06T12:21:57Z</time>
      </trkpt>
      <trkpt lat="46.12948" lon="4.51951">
        <ele>832</ele>
        <time>2025-09-06T12:21:58Z</time>
      </trkpt>
      <trkpt lat="46.1295" lon="4.51951">
        <ele>832</ele>
        <time>2025-09-06T12:21:59Z</time>
      </trkpt>
      <trkpt lat="46.12951" lon="4.51951">
        <ele>832.4</ele>
        <time>2025-09-06T12:22:00Z</time>
      </trkpt>
      <trkpt lat="46.12954" lon="4.5195">
        <ele>833</ele>
        <time>2025-09-06T12:22:01Z</time>
      </trkpt>
      <trkpt lat="46.12956" lon="4.5195">
        <ele>833</ele>
        <time>2025-09-06T12:22:02Z</time>
      </trkpt>
      <trkpt lat="46.12958" lon="4.51949">
        <ele>833</ele>
        <time>2025-09-06T12:22:03Z</time>
      </trkpt>
      <trkpt lat="46.1296" lon="4.51949">
        <ele>833.6</ele>
        <time>2025-09-06T12:22:04Z</time>
      </trkpt>
      <trkpt lat="46.12961" lon="4.51948">
        <ele>833.8</ele>
        <time>2025-09-06T12:22:05Z</time>
      </trkpt>
      <trkpt lat="46.12963" lon="4.51947">
        <ele>834.2</ele>
        <time>2025-09-06T12:22:06Z</time>
      </trkpt>
      <trkpt lat="46.12965" lon="4.51945">
        <ele>834.6</ele>
        <time>2025-09-06T12:22:07Z</time>
      </trkpt>
      <trkpt lat="46.12967" lon="4.51944">
        <ele>834.8</ele>
        <time>2025-09-06T12:22:08Z</time>
      </trkpt>
      <trkpt lat="46.12968" lon="4.51943">
        <ele>834.8</ele>
        <time>2025-09-06T12:22:09Z</time>
      </trkpt>
      <trkpt lat="46.12969" lon="4.51942">
        <ele>834.8</ele>
        <time>2025-09-06T12:22:10Z</time>
      </trkpt>
      <trkpt lat="46.12971" lon="4.51941">
        <ele>835.2</ele>
        <time>2025-09-06T12:22:11Z</time>
      </trkpt>
      <trkpt lat="46.12972" lon="4.51941">
        <ele>835.6</ele>
        <time>2025-09-06T12:22:12Z</time>
      </trkpt>
      <trkpt lat="46.12973" lon="4.5194">
        <ele>835.6</ele>
        <time>2025-09-06T12:22:13Z</time>
      </trkpt>
      <trkpt lat="46.12973" lon="4.5194">
        <ele>835.6</ele>
        <time>2025-09-06T12:22:14Z</time>
      </trkpt>
      <trkpt lat="46.12974" lon="4.51939">
        <ele>835.8</ele>
        <time>2025-09-06T12:22:15Z</time>
      </trkpt>
      <trkpt lat="46.12976" lon="4.51938">
        <ele>836.2</ele>
        <time>2025-09-06T12:22:16Z</time>
      </trkpt>
      <trkpt lat="46.12977" lon="4.51938">
        <ele>836.2</ele>
        <time>2025-09-06T12:22:17Z</time>
      </trkpt>
      <trkpt lat="46.12978" lon="4.51938">
        <ele>836.6</ele>
        <time>2025-09-06T12:22:18Z</time>
      </trkpt>
      <trkpt lat="46.12979" lon="4.51938">
        <ele>836.6</ele>
        <time>2025-09-06T12:22:19Z</time>
      </trkpt>
      <trkpt lat="46.1298" lon="4.51938">
        <ele>836.6</ele>
        <time>2025-09-06T12:22:20Z</time>
      </trkpt>
      <trkpt lat="46.1298" lon="4.51938">
        <ele>837</ele>
        <time>2025-09-06T12:22:21Z</time>
      </trkpt>
      <trkpt lat="46.1298" lon="4.51937">
        <ele>837.2</ele>
        <time>2025-09-06T12:22:22Z</time>
      </trkpt>
      <trkpt lat="46.12981" lon="4.51937">
        <ele>837.2</ele>
        <time>2025-09-06T12:22:23Z</time>
      </trkpt>
      <trkpt lat="46.12982" lon="4.51936">
        <ele>837.6</ele>
        <time>2025-09-06T12:22:24Z</time>
      </trkpt>
      <trkpt lat="46.12984" lon="4.51936">
        <ele>837.6</ele>
        <time>2025-09-06T12:22:25Z</time>
      </trkpt>
      <trkpt lat="46.12985" lon="4.51935">
        <ele>837.8</ele>
        <time>2025-09-06T12:22:26Z</time>
      </trkpt>
      <trkpt lat="46.12987" lon="4.51933">
        <ele>837.8</ele>
        <time>2025-09-06T12:22:27Z</time>
      </trkpt>
      <trkpt lat="46.12988" lon="4.51931">
        <ele>838.2</ele>
        <time>2025-09-06T12:22:28Z</time>
      </trkpt>
      <trkpt lat="46.12989" lon="4.5193">
        <ele>838.2</ele>
        <time>2025-09-06T12:22:29Z</time>
      </trkpt>
      <trkpt lat="46.12991" lon="4.51929">
        <ele>838.2</ele>
        <time>2025-09-06T12:22:30Z</time>
      </trkpt>
      <trkpt lat="46.12993" lon="4.51929">
        <ele>838.6</ele>
        <time>2025-09-06T12:22:31Z</time>
      </trkpt>
      <trkpt lat="46.12995" lon="4.51928">
        <ele>839</ele>
        <time>2025-09-06T12:22:32Z</time>
      </trkpt>
      <trkpt lat="46.12997" lon="4.51927">
        <ele>839</ele>
        <time>2025-09-06T12:22:33Z</time>
      </trkpt>
      <trkpt lat="46.13" lon="4.51926">
        <ele>839.2</ele>
        <time>2025-09-06T12:22:34Z</time>
      </trkpt>
      <trkpt lat="46.13001" lon="4.51924">
        <ele>839.2</ele>
        <time>2025-09-06T12:22:35Z</time>
      </trkpt>
      <trkpt lat="46.13001" lon="4.51924">
        <ele>839.2</ele>
        <time>2025-09-06T12:22:36Z</time>
      </trkpt>
      <trkpt lat="46.13003" lon="4.51923">
        <ele>839.4</ele>
        <time>2025-09-06T12:22:37Z</time>
      </trkpt>
      <trkpt lat="46.13003" lon="4.51921">
        <ele>839.8</ele>
        <time>2025-09-06T12:22:38Z</time>
      </trkpt>
      <trkpt lat="46.13003" lon="4.51921">
        <ele>839.8</ele>
        <time>2025-09-06T12:22:39Z</time>
      </trkpt>
      <trkpt lat="46.13004" lon="4.51921">
        <ele>840</ele>
        <time>2025-09-06T12:22:40Z</time>
      </trkpt>
      <trkpt lat="46.13005" lon="4.51921">
        <ele>840</ele>
        <time>2025-09-06T12:22:41Z</time>
      </trkpt>
      <trkpt lat="46.13006" lon="4.51922">
        <ele>840</ele>
        <time>2025-09-06T12:22:42Z</time>
      </trkpt>
      <trkpt lat="46.13007" lon="4.51922">
        <ele>840.4</ele>
        <time>2025-09-06T12:22:43Z</time>
      </trkpt>
      <trkpt lat="46.13007" lon="4.51922">
        <ele>840.4</ele>
        <time>2025-09-06T12:22:44Z</time>
      </trkpt>
      <trkpt lat="46.13008" lon="4.51922">
        <ele>840.4</ele>
        <time>2025-09-06T12:22:45Z</time>
      </trkpt>
      <trkpt lat="46.13009" lon="4.51921">
        <ele>840.8</ele>
        <time>2025-09-06T12:22:46Z</time>
      </trkpt>
      <trkpt lat="46.13011" lon="4.51919">
        <ele>840.8</ele>
        <time>2025-09-06T12:22:47Z</time>
      </trkpt>
      <trkpt lat="46.13012" lon="4.51918">
        <ele>841</ele>
        <time>2025-09-06T12:22:48Z</time>
      </trkpt>
      <trkpt lat="46.13013" lon="4.51918">
        <ele>841.2</ele>
        <time>2025-09-06T12:22:49Z</time>
      </trkpt>
      <trkpt lat="46.13014" lon="4.51919">
        <ele>841.2</ele>
        <time>2025-09-06T12:22:50Z</time>
      </trkpt>
      <trkpt lat="46.13014" lon="4.5192">
        <ele>841.4</ele>
        <time>2025-09-06T12:22:51Z</time>
      </trkpt>
      <trkpt lat="46.13015" lon="4.5192">
        <ele>841.4</ele>
        <time>2025-09-06T12:22:52Z</time>
      </trkpt>
      <trkpt lat="46.13016" lon="4.51921">
        <ele>841.4</ele>
        <time>2025-09-06T12:22:53Z</time>
      </trkpt>
      <trkpt lat="46.13017" lon="4.51921">
        <ele>841.8</ele>
        <time>2025-09-06T12:22:54Z</time>
      </trkpt>
      <trkpt lat="46.13018" lon="4.51921">
        <ele>841.8</ele>
        <time>2025-09-06T12:22:55Z</time>
      </trkpt>
      <trkpt lat="46.13019" lon="4.5192">
        <ele>842.2</ele>
        <time>2025-09-06T12:22:56Z</time>
      </trkpt>
      <trkpt lat="46.1302" lon="4.51919">
        <ele>842.2</ele>
        <time>2025-09-06T12:22:57Z</time>
      </trkpt>
      <trkpt lat="46.13021" lon="4.51919">
        <ele>842.4</ele>
        <time>2025-09-06T12:22:58Z</time>
      </trkpt>
      <trkpt lat="46.13022" lon="4.51918">
        <ele>842.4</ele>
        <time>2025-09-06T12:22:59Z</time>
      </trkpt>
      <trkpt lat="46.13022" lon="4.51918">
        <ele>842.8</ele>
        <time>2025-09-06T12:23:00Z</time>
      </trkpt>
      <trkpt lat="46.13024" lon="4.51917">
        <ele>842.8</ele>
        <time>2025-09-06T12:23:01Z</time>
      </trkpt>
      <trkpt lat="46.13026" lon="4.51917">
        <ele>843</ele>
        <time>2025-09-06T12:23:02Z</time>
      </trkpt>
      <trkpt lat="46.13028" lon="4.51916">
        <ele>843.2</ele>
        <time>2025-09-06T12:23:03Z</time>
      </trkpt>
      <trkpt lat="46.1303" lon="4.51916">
        <ele>843.6</ele>
        <time>2025-09-06T12:23:04Z</time>
      </trkpt>
      <trkpt lat="46.1303" lon="4.51916">
        <ele>843.6</ele>
        <time>2025-09-06T12:23:05Z</time>
      </trkpt>
      <trkpt lat="46.13031" lon="4.51917">
        <ele>843.8</ele>
        <time>2025-09-06T12:23:06Z</time>
      </trkpt>
      <trkpt lat="46.13031" lon="4.51917">
        <ele>843.8</ele>
        <time>2025-09-06T12:23:07Z</time>
      </trkpt>
      <trkpt lat="46.13031" lon="4.51917">
        <ele>843.8</ele>
        <time>2025-09-06T12:23:08Z</time>
      </trkpt>
      <trkpt lat="46.13038" lon="4.51914">
        <ele>845</ele>
        <time>2025-09-06T12:23:19Z</time>
      </trkpt>
      <trkpt lat="46.13041" lon="4.51913">
        <ele>845</ele>
        <time>2025-09-06T12:23:20Z</time>
      </trkpt>
      <trkpt lat="46.13042" lon="4.51913">
        <ele>845</ele>
        <time>2025-09-06T12:23:21Z</time>
      </trkpt>
      <trkpt lat="46.13044" lon="4.51912">
        <ele>845</ele>
        <time>2025-09-06T12:23:22Z</time>
      </trkpt>
      <trkpt lat="46.13045" lon="4.5191">
        <ele>845</ele>
        <time>2025-09-06T12:23:23Z</time>
      </trkpt>
      <trkpt lat="46.13046" lon="4.51906">
        <ele>845</ele>
        <time>2025-09-06T12:23:24Z</time>
      </trkpt>
      <trkpt lat="46.13047" lon="4.51904">
        <ele>845.6</ele>
        <time>2025-09-06T12:23:25Z</time>
      </trkpt>
      <trkpt lat="46.13049" lon="4.51903">
        <ele>846</ele>
        <time>2025-09-06T12:23:26Z</time>
      </trkpt>
      <trkpt lat="46.1305" lon="4.51903">
        <ele>846</ele>
        <time>2025-09-06T12:23:27Z</time>
      </trkpt>
      <trkpt lat="46.13052" lon="4.51903">
        <ele>846</ele>
        <time>2025-09-06T12:23:28Z</time>
      </trkpt>
      <trkpt lat="46.13055" lon="4.51902">
        <ele>846</ele>
        <time>2025-09-06T12:23:29Z</time>
      </trkpt>
      <trkpt lat="46.13057" lon="4.51901">
        <ele>846.6</ele>
        <time>2025-09-06T12:23:30Z</time>
      </trkpt>
      <trkpt lat="46.13058" lon="4.51901">
        <ele>846.8</ele>
        <time>2025-09-06T12:23:31Z</time>
      </trkpt>
      <trkpt lat="46.13059" lon="4.519">
        <ele>847.2</ele>
        <time>2025-09-06T12:23:32Z</time>
      </trkpt>
      <trkpt lat="46.13061" lon="4.519">
        <ele>847.4</ele>
        <time>2025-09-06T12:23:33Z</time>
      </trkpt>
      <trkpt lat="46.13062" lon="4.51899">
        <ele>847.4</ele>
        <time>2025-09-06T12:23:34Z</time>
      </trkpt>
      <trkpt lat="46.13064" lon="4.51898">
        <ele>847.8</ele>
        <time>2025-09-06T12:23:35Z</time>
      </trkpt>
      <trkpt lat="46.13065" lon="4.51899">
        <ele>847.8</ele>
        <time>2025-09-06T12:23:36Z</time>
      </trkpt>
      <trkpt lat="46.13065" lon="4.51899">
        <ele>847.8</ele>
        <time>2025-09-06T12:23:37Z</time>
      </trkpt>
      <trkpt lat="46.13066" lon="4.51899">
        <ele>848</ele>
        <time>2025-09-06T12:23:38Z</time>
      </trkpt>
      <trkpt lat="46.13069" lon="4.519">
        <ele>849.6</ele>
        <time>2025-09-06T12:24:05Z</time>
      </trkpt>
      <trkpt lat="46.1307" lon="4.519">
        <ele>849.8</ele>
        <time>2025-09-06T12:24:06Z</time>
      </trkpt>
      <trkpt lat="46.13072" lon="4.519">
        <ele>850</ele>
        <time>2025-09-06T12:24:07Z</time>
      </trkpt>
      <trkpt lat="46.13072" lon="4.519">
        <ele>850</ele>
        <time>2025-09-06T12:24:08Z</time>
      </trkpt>
      <trkpt lat="46.13073" lon="4.519">
        <ele>850.4</ele>
        <time>2025-09-06T12:24:09Z</time>
      </trkpt>
      <trkpt lat="46.13074" lon="4.51898">
        <ele>850.4</ele>
        <time>2025-09-06T12:24:10Z</time>
      </trkpt>
      <trkpt lat="46.13075" lon="4.51897">
        <ele>850.4</ele>
        <time>2025-09-06T12:24:11Z</time>
      </trkpt>
      <trkpt lat="46.13077" lon="4.51897">
        <ele>850.8</ele>
        <time>2025-09-06T12:24:12Z</time>
      </trkpt>
      <trkpt lat="46.13077" lon="4.51896">
        <ele>851</ele>
        <time>2025-09-06T12:24:13Z</time>
      </trkpt>
      <trkpt lat="46.13078" lon="4.51896">
        <ele>851</ele>
        <time>2025-09-06T12:24:14Z</time>
      </trkpt>
      <trkpt lat="46.13079" lon="4.51895">
        <ele>851</ele>
        <time>2025-09-06T12:24:15Z</time>
      </trkpt>
      <trkpt lat="46.13079" lon="4.51895">
        <ele>851.2</ele>
        <time>2025-09-06T12:24:16Z</time>
      </trkpt>
      <trkpt lat="46.1308" lon="4.51895">
        <ele>851.2</ele>
        <time>2025-09-06T12:24:17Z</time>
      </trkpt>
      <trkpt lat="46.1308" lon="4.51896">
        <ele>851.2</ele>
        <time>2025-09-06T12:24:18Z</time>
      </trkpt>
      <trkpt lat="46.1308" lon="4.51896">
        <ele>851.2</ele>
        <time>2025-09-06T12:24:19Z</time>
      </trkpt>
      <trkpt lat="46.13081" lon="4.51896">
        <ele>851.8</ele>
        <time>2025-09-06T12:24:20Z</time>
      </trkpt>
      <trkpt lat="46.13082" lon="4.51896">
        <ele>852</ele>
        <time>2025-09-06T12:24:21Z</time>
      </trkpt>
      <trkpt lat="46.13082" lon="4.51896">
        <ele>852.2</ele>
        <time>2025-09-06T12:24:22Z</time>
      </trkpt>
      <trkpt lat="46.13083" lon="4.51895">
        <ele>852.4</ele>
        <time>2025-09-06T12:24:23Z</time>
      </trkpt>
      <trkpt lat="46.13084" lon="4.51895">
        <ele>852.4</ele>
        <time>2025-09-06T12:24:24Z</time>
      </trkpt>
      <trkpt lat="46.13085" lon="4.51895">
        <ele>852.4</ele>
        <time>2025-09-06T12:24:25Z</time>
      </trkpt>
      <trkpt lat="46.13085" lon="4.51895">
        <ele>852.4</ele>
        <time>2025-09-06T12:24:26Z</time>
      </trkpt>
      <trkpt lat="46.13086" lon="4.51894">
        <ele>852.4</ele>
        <time>2025-09-06T12:24:27Z</time>
      </trkpt>
      <trkpt lat="46.13086" lon="4.51894">
        <ele>852.4</ele>
        <time>2025-09-06T12:24:28Z</time>
      </trkpt>
      <trkpt lat="46.13087" lon="4.51894">
        <ele>852.4</ele>
        <time>2025-09-06T12:24:29Z</time>
      </trkpt>
      <trkpt lat="46.13088" lon="4.51893">
        <ele>852.8</ele>
        <time>2025-09-06T12:24:30Z</time>
      </trkpt>
      <trkpt lat="46.13089" lon="4.51892">
        <ele>852.8</ele>
        <time>2025-09-06T12:24:31Z</time>
      </trkpt>
      <trkpt lat="46.13089" lon="4.51892">
        <ele>853.2</ele>
        <time>2025-09-06T12:24:32Z</time>
      </trkpt>
      <trkpt lat="46.13089" lon="4.51891">
        <ele>853.2</ele>
        <time>2025-09-06T12:24:33Z</time>
      </trkpt>
      <trkpt lat="46.1309" lon="4.51891">
        <ele>853.6</ele>
        <time>2025-09-06T12:24:34Z</time>
      </trkpt>
      <trkpt lat="46.13091" lon="4.5189">
        <ele>853.6</ele>
        <time>2025-09-06T12:24:35Z</time>
      </trkpt>
      <trkpt lat="46.13091" lon="4.5189">
        <ele>854</ele>
        <time>2025-09-06T12:24:36Z</time>
      </trkpt>
      <trkpt lat="46.13092" lon="4.51889">
        <ele>854</ele>
        <time>2025-09-06T12:24:37Z</time>
      </trkpt>
      <trkpt lat="46.13093" lon="4.51889">
        <ele>854</ele>
        <time>2025-09-06T12:24:38Z</time>
      </trkpt>
      <trkpt lat="46.13093" lon="4.51888">
        <ele>854</ele>
        <time>2025-09-06T12:24:39Z</time>
      </trkpt>
      <trkpt lat="46.13094" lon="4.51887">
        <ele>854</ele>
        <time>2025-09-06T12:24:40Z</time>
      </trkpt>
      <trkpt lat="46.13095" lon="4.51886">
        <ele>854.2</ele>
        <time>2025-09-06T12:24:41Z</time>
      </trkpt>
      <trkpt lat="46.13096" lon="4.51886">
        <ele>854.2</ele>
        <time>2025-09-06T12:24:42Z</time>
      </trkpt>
      <trkpt lat="46.13097" lon="4.51885">
        <ele>854.2</ele>
        <time>2025-09-06T12:24:43Z</time>
      </trkpt>
      <trkpt lat="46.13098" lon="4.51885">
        <ele>854.8</ele>
        <time>2025-09-06T12:24:44Z</time>
      </trkpt>
      <trkpt lat="46.13099" lon="4.51885">
        <ele>854.8</ele>
        <time>2025-09-06T12:24:45Z</time>
      </trkpt>
      <trkpt lat="46.131" lon="4.51884">
        <ele>855</ele>
        <time>2025-09-06T12:24:46Z</time>
      </trkpt>
      <trkpt lat="46.13101" lon="4.51882">
        <ele>855</ele>
        <time>2025-09-06T12:24:47Z</time>
      </trkpt>
      <trkpt lat="46.13102" lon="4.51881">
        <ele>854.8</ele>
        <time>2025-09-06T12:24:48Z</time>
      </trkpt>
      <trkpt lat="46.13103" lon="4.5188">
        <ele>854.8</ele>
        <time>2025-09-06T12:24:49Z</time>
      </trkpt>
      <trkpt lat="46.13104" lon="4.51879">
        <ele>855.4</ele>
        <time>2025-09-06T12:24:50Z</time>
      </trkpt>
      <trkpt lat="46.13105" lon="4.51878">
        <ele>855.4</ele>
        <time>2025-09-06T12:24:51Z</time>
      </trkpt>
      <trkpt lat="46.13106" lon="4.51877">
        <ele>855.6</ele>
        <time>2025-09-06T12:24:52Z</time>
      </trkpt>
      <trkpt lat="46.13106" lon="4.51876">
        <ele>856</ele>
        <time>2025-09-06T12:24:53Z</time>
      </trkpt>
      <trkpt lat="46.13107" lon="4.51876">
        <ele>856</ele>
        <time>2025-09-06T12:24:54Z</time>
      </trkpt>
      <trkpt lat="46.13108" lon="4.51876">
        <ele>856</ele>
        <time>2025-09-06T12:24:55Z</time>
      </trkpt>
      <trkpt lat="46.13108" lon="4.51875">
        <ele>856.2</ele>
        <time>2025-09-06T12:24:56Z</time>
      </trkpt>
      <trkpt lat="46.13109" lon="4.51875">
        <ele>856.2</ele>
        <time>2025-09-06T12:24:57Z</time>
      </trkpt>
      <trkpt lat="46.13109" lon="4.51875">
        <ele>856.2</ele>
        <time>2025-09-06T12:24:58Z</time>
      </trkpt>
      <trkpt lat="46.1311" lon="4.51874">
        <ele>856.2</ele>
        <time>2025-09-06T12:24:59Z</time>
      </trkpt>
      <trkpt lat="46.13111" lon="4.51874">
        <ele>856.2</ele>
        <time>2025-09-06T12:25:00Z</time>
      </trkpt>
      <trkpt lat="46.13112" lon="4.51874">
        <ele>856.4</ele>
        <time>2025-09-06T12:25:01Z</time>
      </trkpt>
      <trkpt lat="46.13113" lon="4.51874">
        <ele>856.4</ele>
        <time>2025-09-06T12:25:02Z</time>
      </trkpt>
      <trkpt lat="46.13113" lon="4.51873">
        <ele>856.8</ele>
        <time>2025-09-06T12:25:03Z</time>
      </trkpt>
      <trkpt lat="46.13114" lon="4.51872">
        <ele>856.8</ele>
        <time>2025-09-06T12:25:04Z</time>
      </trkpt>
      <trkpt lat="46.13115" lon="4.51872">
        <ele>856.8</ele>
        <time>2025-09-06T12:25:05Z</time>
      </trkpt>
      <trkpt lat="46.13116" lon="4.51871">
        <ele>856.8</ele>
        <time>2025-09-06T12:25:06Z</time>
      </trkpt>
      <trkpt lat="46.13117" lon="4.5187">
        <ele>856.8</ele>
        <time>2025-09-06T12:25:07Z</time>
      </trkpt>
      <trkpt lat="46.13117" lon="4.51869">
        <ele>856.8</ele>
        <time>2025-09-06T12:25:08Z</time>
      </trkpt>
      <trkpt lat="46.13118" lon="4.51869">
        <ele>857.2</ele>
        <time>2025-09-06T12:25:09Z</time>
      </trkpt>
      <trkpt lat="46.13119" lon="4.51868">
        <ele>857.4</ele>
        <time>2025-09-06T12:25:10Z</time>
      </trkpt>
      <trkpt lat="46.1312" lon="4.51867">
        <ele>857.4</ele>
        <time>2025-09-06T12:25:11Z</time>
      </trkpt>
      <trkpt lat="46.1312" lon="4.51866">
        <ele>857.8</ele>
        <time>2025-09-06T12:25:12Z</time>
      </trkpt>
      <trkpt lat="46.13121" lon="4.51865">
        <ele>858</ele>
        <time>2025-09-06T12:25:13Z</time>
      </trkpt>
      <trkpt lat="46.13121" lon="4.51865">
        <ele>858</ele>
        <time>2025-09-06T12:25:14Z</time>
      </trkpt>
      <trkpt lat="46.13122" lon="4.51864">
        <ele>858</ele>
        <time>2025-09-06T12:25:15Z</time>
      </trkpt>
      <trkpt lat="46.13122" lon="4.51864">
        <ele>858</ele>
        <time>2025-09-06T12:25:16Z</time>
      </trkpt>
      <trkpt lat="46.13123" lon="4.51862">
        <ele>858.2</ele>
        <time>2025-09-06T12:25:17Z</time>
      </trkpt>
      <trkpt lat="46.13123" lon="4.51861">
        <ele>858.2</ele>
        <time>2025-09-06T12:25:18Z</time>
      </trkpt>
      <trkpt lat="46.13123" lon="4.51859">
        <ele>858.2</ele>
        <time>2025-09-06T12:25:19Z</time>
      </trkpt>
      <trkpt lat="46.13123" lon="4.51858">
        <ele>858.2</ele>
        <time>2025-09-06T12:25:20Z</time>
      </trkpt>
      <trkpt lat="46.13123" lon="4.51857">
        <ele>858.2</ele>
        <time>2025-09-06T12:25:21Z</time>
      </trkpt>
      <trkpt lat="46.13123" lon="4.51856">
        <ele>858.2</ele>
        <time>2025-09-06T12:25:22Z</time>
      </trkpt>
      <trkpt lat="46.13124" lon="4.51856">
        <ele>858.2</ele>
        <time>2025-09-06T12:25:23Z</time>
      </trkpt>
      <trkpt lat="46.1313" lon="4.51856">
        <ele>858.2</ele>
        <time>2025-09-06T12:26:33Z</time>
      </trkpt>
      <trkpt lat="46.1313" lon="4.51856">
        <ele>858</ele>
        <time>2025-09-06T12:26:34Z</time>
      </trkpt>
      <trkpt lat="46.13131" lon="4.51854">
        <ele>858</ele>
        <time>2025-09-06T12:26:37Z</time>
      </trkpt>
      <trkpt lat="46.13131" lon="4.51852">
        <ele>858</ele>
        <time>2025-09-06T12:26:38Z</time>
      </trkpt>
      <trkpt lat="46.13132" lon="4.51851">
        <ele>858</ele>
        <time>2025-09-06T12:26:39Z</time>
      </trkpt>
      <trkpt lat="46.13132" lon="4.51849">
        <ele>858</ele>
        <time>2025-09-06T12:26:40Z</time>
      </trkpt>
      <trkpt lat="46.13133" lon="4.51849">
        <ele>858</ele>
        <time>2025-09-06T12:26:41Z</time>
      </trkpt>
      <trkpt lat="46.13134" lon="4.51848">
        <ele>858</ele>
        <time>2025-09-06T12:26:42Z</time>
      </trkpt>
      <trkpt lat="46.13134" lon="4.51847">
        <ele>858</ele>
        <time>2025-09-06T12:26:43Z</time>
      </trkpt>
      <trkpt lat="46.13134" lon="4.51845">
        <ele>858</ele>
        <time>2025-09-06T12:26:44Z</time>
      </trkpt>
      <trkpt lat="46.13134" lon="4.51844">
        <ele>858</ele>
        <time>2025-09-06T12:26:45Z</time>
      </trkpt>
      <trkpt lat="46.13134" lon="4.51844">
        <ele>858</ele>
        <time>2025-09-06T12:26:46Z</time>
      </trkpt>
      <trkpt lat="46.13133" lon="4.51843">
        <ele>858</ele>
        <time>2025-09-06T12:26:47Z</time>
      </trkpt>
      <trkpt lat="46.13132" lon="4.51841">
        <ele>858.2</ele>
        <time>2025-09-06T12:27:14Z</time>
      </trkpt>
      <trkpt lat="46.13132" lon="4.51841">
        <ele>858.2</ele>
        <time>2025-09-06T12:27:15Z</time>
      </trkpt>
      <trkpt lat="46.13131" lon="4.51842">
        <ele>858.4</ele>
        <time>2025-09-06T12:27:18Z</time>
      </trkpt>
      <trkpt lat="46.1313" lon="4.51842">
        <ele>858.4</ele>
        <time>2025-09-06T12:27:19Z</time>
      </trkpt>
      <trkpt lat="46.13129" lon="4.51841">
        <ele>858.4</ele>
        <time>2025-09-06T12:27:20Z</time>
      </trkpt>
      <trkpt lat="46.13129" lon="4.5184">
        <ele>858.4</ele>
        <time>2025-09-06T12:27:24Z</time>
      </trkpt>
      <trkpt lat="46.1313" lon="4.51841">
        <ele>858.4</ele>
        <time>2025-09-06T12:27:25Z</time>
      </trkpt>
      <trkpt lat="46.13129" lon="4.51842">
        <ele>858.4</ele>
        <time>2025-09-06T12:27:26Z</time>
      </trkpt>
      <trkpt lat="46.13127" lon="4.51845">
        <ele>858.8</ele>
        <time>2025-09-06T12:30:26Z</time>
      </trkpt>
      <trkpt lat="46.13127" lon="4.51844">
        <ele>858.8</ele>
        <time>2025-09-06T12:30:27Z</time>
      </trkpt>
      <trkpt lat="46.13127" lon="4.51842">
        <ele>858.4</ele>
        <time>2025-09-06T12:30:28Z</time>
      </trkpt>
      <trkpt lat="46.13127" lon="4.51841">
        <ele>858.4</ele>
        <time>2025-09-06T12:30:29Z</time>
      </trkpt>
      <trkpt lat="46.13127" lon="4.5184">
        <ele>858.4</ele>
        <time>2025-09-06T12:30:30Z</time>
      </trkpt>
      <trkpt lat="46.13127" lon="4.51839">
        <ele>858.4</ele>
        <time>2025-09-06T12:30:31Z</time>
      </trkpt>
      <trkpt lat="46.13127" lon="4.51838">
        <ele>858.2</ele>
        <time>2025-09-06T12:30:32Z</time>
      </trkpt>
      <trkpt lat="46.13128" lon="4.51838">
        <ele>858.2</ele>
        <time>2025-09-06T12:30:33Z</time>
      </trkpt>
      <trkpt lat="46.13128" lon="4.51838">
        <ele>858</ele>
        <time>2025-09-06T12:30:34Z</time>
      </trkpt>
      <trkpt lat="46.13131" lon="4.51836">
        <ele>858</ele>
        <time>2025-09-06T12:30:37Z</time>
      </trkpt>
      <trkpt lat="46.13132" lon="4.51835">
        <ele>858</ele>
        <time>2025-09-06T12:30:38Z</time>
      </trkpt>
      <trkpt lat="46.13133" lon="4.51835">
        <ele>858</ele>
        <time>2025-09-06T12:30:39Z</time>
      </trkpt>
      <trkpt lat="46.13133" lon="4.51835">
        <ele>858</ele>
        <time>2025-09-06T12:30:40Z</time>
      </trkpt>
      <trkpt lat="46.13135" lon="4.51835">
        <ele>858</ele>
        <time>2025-09-06T12:30:41Z</time>
      </trkpt>
      <trkpt lat="46.13136" lon="4.51834">
        <ele>858</ele>
        <time>2025-09-06T12:30:42Z</time>
      </trkpt>
      <trkpt lat="46.13138" lon="4.51833">
        <ele>858</ele>
        <time>2025-09-06T12:30:43Z</time>
      </trkpt>
      <trkpt lat="46.13139" lon="4.51832">
        <ele>858</ele>
        <time>2025-09-06T12:30:44Z</time>
      </trkpt>
      <trkpt lat="46.13139" lon="4.51829">
        <ele>858</ele>
        <time>2025-09-06T12:30:45Z</time>
      </trkpt>
      <trkpt lat="46.1314" lon="4.51827">
        <ele>858</ele>
        <time>2025-09-06T12:30:46Z</time>
      </trkpt>
      <trkpt lat="46.13141" lon="4.51825">
        <ele>858</ele>
        <time>2025-09-06T12:30:47Z</time>
      </trkpt>
      <trkpt lat="46.13142" lon="4.51823">
        <ele>858</ele>
        <time>2025-09-06T12:30:48Z</time>
      </trkpt>
      <trkpt lat="46.13143" lon="4.51821">
        <ele>857.8</ele>
        <time>2025-09-06T12:30:49Z</time>
      </trkpt>
      <trkpt lat="46.13144" lon="4.5182">
        <ele>857.8</ele>
        <time>2025-09-06T12:30:50Z</time>
      </trkpt>
      <trkpt lat="46.13145" lon="4.51818">
        <ele>857.8</ele>
        <time>2025-09-06T12:30:51Z</time>
      </trkpt>
      <trkpt lat="46.13145" lon="4.51818">
        <ele>857.8</ele>
        <time>2025-09-06T12:30:52Z</time>
      </trkpt>
      <trkpt lat="46.13146" lon="4.51816">
        <ele>857.8</ele>
        <time>2025-09-06T12:30:53Z</time>
      </trkpt>
      <trkpt lat="46.13147" lon="4.51814">
        <ele>857.8</ele>
        <time>2025-09-06T12:30:54Z</time>
      </trkpt>
      <trkpt lat="46.13148" lon="4.51812">
        <ele>857.8</ele>
        <time>2025-09-06T12:30:55Z</time>
      </trkpt>
      <trkpt lat="46.13149" lon="4.5181">
        <ele>857.8</ele>
        <time>2025-09-06T12:30:56Z</time>
      </trkpt>
      <trkpt lat="46.1315" lon="4.51808">
        <ele>857.8</ele>
        <time>2025-09-06T12:30:57Z</time>
      </trkpt>
      <trkpt lat="46.13151" lon="4.51805">
        <ele>857.2</ele>
        <time>2025-09-06T12:30:58Z</time>
      </trkpt>
      <trkpt lat="46.13152" lon="4.51802">
        <ele>857</ele>
        <time>2025-09-06T12:30:59Z</time>
      </trkpt>
      <trkpt lat="46.13154" lon="4.51799">
        <ele>857</ele>
        <time>2025-09-06T12:31:00Z</time>
      </trkpt>
      <trkpt lat="46.13156" lon="4.51795">
        <ele>857</ele>
        <time>2025-09-06T12:31:01Z</time>
      </trkpt>
      <trkpt lat="46.13157" lon="4.51791">
        <ele>857</ele>
        <time>2025-09-06T12:31:02Z</time>
      </trkpt>
      <trkpt lat="46.13159" lon="4.51786">
        <ele>857</ele>
        <time>2025-09-06T12:31:03Z</time>
      </trkpt>
      <trkpt lat="46.13161" lon="4.51781">
        <ele>856.8</ele>
        <time>2025-09-06T12:31:04Z</time>
      </trkpt>
      <trkpt lat="46.13164" lon="4.51777">
        <ele>856.8</ele>
        <time>2025-09-06T12:31:05Z</time>
      </trkpt>
      <trkpt lat="46.13166" lon="4.51772">
        <ele>856.8</ele>
        <time>2025-09-06T12:31:06Z</time>
      </trkpt>
      <trkpt lat="46.13169" lon="4.51764">
        <ele>856.4</ele>
        <time>2025-09-06T12:31:07Z</time>
      </trkpt>
      <trkpt lat="46.13172" lon="4.5176">
        <ele>855.8</ele>
        <time>2025-09-06T12:31:08Z</time>
      </trkpt>
      <trkpt lat="46.13175" lon="4.51753">
        <ele>855</ele>
        <time>2025-09-06T12:31:09Z</time>
      </trkpt>
      <trkpt lat="46.13178" lon="4.51749">
        <ele>855.4</ele>
        <time>2025-09-06T12:31:10Z</time>
      </trkpt>
      <trkpt lat="46.1318" lon="4.51743">
        <ele>855.4</ele>
        <time>2025-09-06T12:31:11Z</time>
      </trkpt>
      <trkpt lat="46.13183" lon="4.51737">
        <ele>855.4</ele>
        <time>2025-09-06T12:31:12Z</time>
      </trkpt>
      <trkpt lat="46.13187" lon="4.51731">
        <ele>855.4</ele>
        <time>2025-09-06T12:31:13Z</time>
      </trkpt>
      <trkpt lat="46.13189" lon="4.51724">
        <ele>854.8</ele>
        <time>2025-09-06T12:31:14Z</time>
      </trkpt>
      <trkpt lat="46.13192" lon="4.51719">
        <ele>854.2</ele>
        <time>2025-09-06T12:31:15Z</time>
      </trkpt>
      <trkpt lat="46.13195" lon="4.51714">
        <ele>854.2</ele>
        <time>2025-09-06T12:31:16Z</time>
      </trkpt>
      <trkpt lat="46.13197" lon="4.51708">
        <ele>854.2</ele>
        <time>2025-09-06T12:31:17Z</time>
      </trkpt>
      <trkpt lat="46.132" lon="4.51704">
        <ele>854.2</ele>
        <time>2025-09-06T12:31:18Z</time>
      </trkpt>
      <trkpt lat="46.13202" lon="4.51698">
        <ele>854.2</ele>
        <time>2025-09-06T12:31:19Z</time>
      </trkpt>
      <trkpt lat="46.13205" lon="4.51693">
        <ele>853.8</ele>
        <time>2025-09-06T12:31:20Z</time>
      </trkpt>
      <trkpt lat="46.13207" lon="4.51688">
        <ele>853.8</ele>
        <time>2025-09-06T12:31:21Z</time>
      </trkpt>
      <trkpt lat="46.13211" lon="4.51677">
        <ele>853</ele>
        <time>2025-09-06T12:31:22Z</time>
      </trkpt>
      <trkpt lat="46.13213" lon="4.51673">
        <ele>853</ele>
        <time>2025-09-06T12:31:23Z</time>
      </trkpt>
      <trkpt lat="46.13214" lon="4.51668">
        <ele>853</ele>
        <time>2025-09-06T12:31:24Z</time>
      </trkpt>
      <trkpt lat="46.13216" lon="4.51663">
        <ele>853</ele>
        <time>2025-09-06T12:31:25Z</time>
      </trkpt>
      <trkpt lat="46.13219" lon="4.51658">
        <ele>852.8</ele>
        <time>2025-09-06T12:31:26Z</time>
      </trkpt>
      <trkpt lat="46.13222" lon="4.51653">
        <ele>852.2</ele>
        <time>2025-09-06T12:31:27Z</time>
      </trkpt>
      <trkpt lat="46.13225" lon="4.51648">
        <ele>851.6</ele>
        <time>2025-09-06T12:31:28Z</time>
      </trkpt>
      <trkpt lat="46.13227" lon="4.51643">
        <ele>851.6</ele>
        <time>2025-09-06T12:31:29Z</time>
      </trkpt>
      <trkpt lat="46.13229" lon="4.51638">
        <ele>851</ele>
        <time>2025-09-06T12:31:30Z</time>
      </trkpt>
      <trkpt lat="46.13232" lon="4.51633">
        <ele>850.4</ele>
        <time>2025-09-06T12:31:31Z</time>
      </trkpt>
      <trkpt lat="46.13236" lon="4.51629">
        <ele>850</ele>
        <time>2025-09-06T12:31:32Z</time>
      </trkpt>
      <trkpt lat="46.13239" lon="4.51625">
        <ele>850</ele>
        <time>2025-09-06T12:31:33Z</time>
      </trkpt>
      <trkpt lat="46.13242" lon="4.51622">
        <ele>850</ele>
        <time>2025-09-06T12:31:34Z</time>
      </trkpt>
      <trkpt lat="46.13244" lon="4.51617">
        <ele>849.8</ele>
        <time>2025-09-06T12:31:35Z</time>
      </trkpt>
      <trkpt lat="46.13247" lon="4.51614">
        <ele>849.6</ele>
        <time>2025-09-06T12:31:36Z</time>
      </trkpt>
      <trkpt lat="46.1325" lon="4.51608">
        <ele>849.6</ele>
        <time>2025-09-06T12:31:37Z</time>
      </trkpt>
      <trkpt lat="46.13252" lon="4.51604">
        <ele>849</ele>
        <time>2025-09-06T12:31:38Z</time>
      </trkpt>
      <trkpt lat="46.13254" lon="4.516">
        <ele>848.8</ele>
        <time>2025-09-06T12:31:39Z</time>
      </trkpt>
      <trkpt lat="46.13256" lon="4.51598">
        <ele>848</ele>
        <time>2025-09-06T12:31:40Z</time>
      </trkpt>
      <trkpt lat="46.13258" lon="4.51595">
        <ele>847.4</ele>
        <time>2025-09-06T12:31:41Z</time>
      </trkpt>
      <trkpt lat="46.13261" lon="4.51591">
        <ele>847</ele>
        <time>2025-09-06T12:31:42Z</time>
      </trkpt>
      <trkpt lat="46.13264" lon="4.51584">
        <ele>846</ele>
        <time>2025-09-06T12:31:43Z</time>
      </trkpt>
      <trkpt lat="46.13264" lon="4.51577">
        <ele>845.8</ele>
        <time>2025-09-06T12:31:44Z</time>
      </trkpt>
      <trkpt lat="46.13266" lon="4.51573">
        <ele>845.2</ele>
        <time>2025-09-06T12:31:45Z</time>
      </trkpt>
      <trkpt lat="46.13268" lon="4.51568">
        <ele>844.8</ele>
        <time>2025-09-06T12:31:46Z</time>
      </trkpt>
      <trkpt lat="46.13271" lon="4.51565">
        <ele>844.2</ele>
        <time>2025-09-06T12:31:47Z</time>
      </trkpt>
      <trkpt lat="46.13274" lon="4.51561">
        <ele>844.2</ele>
        <time>2025-09-06T12:31:48Z</time>
      </trkpt>
      <trkpt lat="46.13277" lon="4.51557">
        <ele>843.6</ele>
        <time>2025-09-06T12:31:49Z</time>
      </trkpt>
      <trkpt lat="46.13278" lon="4.51552">
        <ele>843.2</ele>
        <time>2025-09-06T12:31:50Z</time>
      </trkpt>
      <trkpt lat="46.13279" lon="4.51547">
        <ele>842.8</ele>
        <time>2025-09-06T12:31:51Z</time>
      </trkpt>
      <trkpt lat="46.13282" lon="4.51541">
        <ele>842.4</ele>
        <time>2025-09-06T12:31:52Z</time>
      </trkpt>
      <trkpt lat="46.13283" lon="4.51535">
        <ele>842.2</ele>
        <time>2025-09-06T12:31:53Z</time>
      </trkpt>
      <trkpt lat="46.13287" lon="4.51529">
        <ele>842.2</ele>
        <time>2025-09-06T12:31:54Z</time>
      </trkpt>
      <trkpt lat="46.1329" lon="4.51525">
        <ele>842.2</ele>
        <time>2025-09-06T12:31:55Z</time>
      </trkpt>
      <trkpt lat="46.13293" lon="4.5152">
        <ele>842.6</ele>
        <time>2025-09-06T12:31:56Z</time>
      </trkpt>
      <trkpt lat="46.13294" lon="4.51516">
        <ele>842.2</ele>
        <time>2025-09-06T12:31:57Z</time>
      </trkpt>
      <trkpt lat="46.13296" lon="4.51511">
        <ele>841.4</ele>
        <time>2025-09-06T12:31:58Z</time>
      </trkpt>
      <trkpt lat="46.13297" lon="4.51507">
        <ele>841</ele>
        <time>2025-09-06T12:31:59Z</time>
      </trkpt>
      <trkpt lat="46.133" lon="4.51503">
        <ele>840.2</ele>
        <time>2025-09-06T12:32:00Z</time>
      </trkpt>
      <trkpt lat="46.13302" lon="4.51498">
        <ele>840.2</ele>
        <time>2025-09-06T12:32:01Z</time>
      </trkpt>
      <trkpt lat="46.13305" lon="4.51493">
        <ele>839.4</ele>
        <time>2025-09-06T12:32:02Z</time>
      </trkpt>
      <trkpt lat="46.13307" lon="4.51488">
        <ele>839.4</ele>
        <time>2025-09-06T12:32:03Z</time>
      </trkpt>
      <trkpt lat="46.13311" lon="4.51483">
        <ele>838.8</ele>
        <time>2025-09-06T12:32:04Z</time>
      </trkpt>
      <trkpt lat="46.13314" lon="4.5148">
        <ele>839</ele>
        <time>2025-09-06T12:32:05Z</time>
      </trkpt>
      <trkpt lat="46.13316" lon="4.51475">
        <ele>837.8</ele>
        <time>2025-09-06T12:32:06Z</time>
      </trkpt>
      <trkpt lat="46.13318" lon="4.51471">
        <ele>837.4</ele>
        <time>2025-09-06T12:32:07Z</time>
      </trkpt>
      <trkpt lat="46.13321" lon="4.51468">
        <ele>837</ele>
        <time>2025-09-06T12:32:08Z</time>
      </trkpt>
      <trkpt lat="46.13323" lon="4.51464">
        <ele>836.6</ele>
        <time>2025-09-06T12:32:09Z</time>
      </trkpt>
      <trkpt lat="46.13325" lon="4.51462">
        <ele>836.6</ele>
        <time>2025-09-06T12:32:10Z</time>
      </trkpt>
      <trkpt lat="46.13327" lon="4.51456">
        <ele>836.6</ele>
        <time>2025-09-06T12:32:11Z</time>
      </trkpt>
      <trkpt lat="46.13329" lon="4.51453">
        <ele>836.2</ele>
        <time>2025-09-06T12:32:12Z</time>
      </trkpt>
      <trkpt lat="46.13331" lon="4.51447">
        <ele>835.8</ele>
        <time>2025-09-06T12:32:13Z</time>
      </trkpt>
      <trkpt lat="46.13333" lon="4.51443">
        <ele>834.8</ele>
        <time>2025-09-06T12:32:14Z</time>
      </trkpt>
      <trkpt lat="46.13334" lon="4.51439">
        <ele>834.6</ele>
        <time>2025-09-06T12:32:15Z</time>
      </trkpt>
      <trkpt lat="46.13337" lon="4.51435">
        <ele>834</ele>
        <time>2025-09-06T12:32:16Z</time>
      </trkpt>
      <trkpt lat="46.13339" lon="4.51431">
        <ele>833.6</ele>
        <time>2025-09-06T12:32:17Z</time>
      </trkpt>
      <trkpt lat="46.13341" lon="4.51427">
        <ele>833.2</ele>
        <time>2025-09-06T12:32:18Z</time>
      </trkpt>
      <trkpt lat="46.13342" lon="4.51422">
        <ele>833</ele>
        <time>2025-09-06T12:32:19Z</time>
      </trkpt>
      <trkpt lat="46.13344" lon="4.51416">
        <ele>833</ele>
        <time>2025-09-06T12:32:20Z</time>
      </trkpt>
      <trkpt lat="46.13346" lon="4.51411">
        <ele>832.8</ele>
        <time>2025-09-06T12:32:21Z</time>
      </trkpt>
      <trkpt lat="46.13349" lon="4.51407">
        <ele>832.4</ele>
        <time>2025-09-06T12:32:22Z</time>
      </trkpt>
      <trkpt lat="46.13351" lon="4.51401">
        <ele>832.4</ele>
        <time>2025-09-06T12:32:23Z</time>
      </trkpt>
      <trkpt lat="46.13355" lon="4.51398">
        <ele>832.4</ele>
        <time>2025-09-06T12:32:24Z</time>
      </trkpt>
      <trkpt lat="46.13357" lon="4.51394">
        <ele>832.4</ele>
        <time>2025-09-06T12:32:25Z</time>
      </trkpt>
      <trkpt lat="46.13359" lon="4.51389">
        <ele>832</ele>
        <time>2025-09-06T12:32:26Z</time>
      </trkpt>
      <trkpt lat="46.13361" lon="4.51386">
        <ele>832.6</ele>
        <time>2025-09-06T12:32:27Z</time>
      </trkpt>
      <trkpt lat="46.13363" lon="4.51381">
        <ele>831.4</ele>
        <time>2025-09-06T12:32:28Z</time>
      </trkpt>
      <trkpt lat="46.13366" lon="4.51376">
        <ele>831.4</ele>
        <time>2025-09-06T12:32:29Z</time>
      </trkpt>
      <trkpt lat="46.13367" lon="4.51372">
        <ele>831.4</ele>
        <time>2025-09-06T12:32:30Z</time>
      </trkpt>
      <trkpt lat="46.13368" lon="4.51368">
        <ele>830.8</ele>
        <time>2025-09-06T12:32:31Z</time>
      </trkpt>
      <trkpt lat="46.1337" lon="4.51364">
        <ele>831</ele>
        <time>2025-09-06T12:32:32Z</time>
      </trkpt>
      <trkpt lat="46.13372" lon="4.5136">
        <ele>831</ele>
        <time>2025-09-06T12:32:33Z</time>
      </trkpt>
      <trkpt lat="46.13374" lon="4.51356">
        <ele>830.4</ele>
        <time>2025-09-06T12:32:34Z</time>
      </trkpt>
      <trkpt lat="46.13377" lon="4.51352">
        <ele>830.2</ele>
        <time>2025-09-06T12:32:35Z</time>
      </trkpt>
      <trkpt lat="46.1338" lon="4.51347">
        <ele>830.2</ele>
        <time>2025-09-06T12:32:36Z</time>
      </trkpt>
      <trkpt lat="46.13382" lon="4.51342">
        <ele>830</ele>
        <time>2025-09-06T12:32:37Z</time>
      </trkpt>
      <trkpt lat="46.13383" lon="4.51337">
        <ele>829.6</ele>
        <time>2025-09-06T12:32:38Z</time>
      </trkpt>
      <trkpt lat="46.13385" lon="4.51333">
        <ele>829.6</ele>
        <time>2025-09-06T12:32:39Z</time>
      </trkpt>
      <trkpt lat="46.13387" lon="4.5133">
        <ele>829.4</ele>
        <time>2025-09-06T12:32:40Z</time>
      </trkpt>
      <trkpt lat="46.13388" lon="4.51327">
        <ele>829.4</ele>
        <time>2025-09-06T12:32:41Z</time>
      </trkpt>
      <trkpt lat="46.13391" lon="4.51324">
        <ele>829.4</ele>
        <time>2025-09-06T12:32:42Z</time>
      </trkpt>
      <trkpt lat="46.13394" lon="4.51321">
        <ele>828.8</ele>
        <time>2025-09-06T12:32:43Z</time>
      </trkpt>
      <trkpt lat="46.13396" lon="4.51318">
        <ele>828.8</ele>
        <time>2025-09-06T12:32:44Z</time>
      </trkpt>
      <trkpt lat="46.13399" lon="4.51314">
        <ele>828.8</ele>
        <time>2025-09-06T12:32:45Z</time>
      </trkpt>
      <trkpt lat="46.13402" lon="4.51309">
        <ele>828.2</ele>
        <time>2025-09-06T12:32:46Z</time>
      </trkpt>
      <trkpt lat="46.13404" lon="4.51304">
        <ele>828</ele>
        <time>2025-09-06T12:32:47Z</time>
      </trkpt>
      <trkpt lat="46.13406" lon="4.51299">
        <ele>827.6</ele>
        <time>2025-09-06T12:32:48Z</time>
      </trkpt>
      <trkpt lat="46.13408" lon="4.51294">
        <ele>827.6</ele>
        <time>2025-09-06T12:32:49Z</time>
      </trkpt>
      <trkpt lat="46.13411" lon="4.51288">
        <ele>827.6</ele>
        <time>2025-09-06T12:32:50Z</time>
      </trkpt>
      <trkpt lat="46.13414" lon="4.51282">
        <ele>827.2</ele>
        <time>2025-09-06T12:32:51Z</time>
      </trkpt>
      <trkpt lat="46.13416" lon="4.51278">
        <ele>827.2</ele>
        <time>2025-09-06T12:32:52Z</time>
      </trkpt>
      <trkpt lat="46.13419" lon="4.51273">
        <ele>827</ele>
        <time>2025-09-06T12:32:53Z</time>
      </trkpt>
      <trkpt lat="46.1342" lon="4.51269">
        <ele>826.6</ele>
        <time>2025-09-06T12:32:54Z</time>
      </trkpt>
      <trkpt lat="46.13421" lon="4.51265">
        <ele>826.2</ele>
        <time>2025-09-06T12:32:55Z</time>
      </trkpt>
      <trkpt lat="46.13423" lon="4.51263">
        <ele>826.2</ele>
        <time>2025-09-06T12:32:56Z</time>
      </trkpt>
      <trkpt lat="46.13425" lon="4.5126">
        <ele>826</ele>
        <time>2025-09-06T12:32:57Z</time>
      </trkpt>
      <trkpt lat="46.13426" lon="4.51259">
        <ele>826</ele>
        <time>2025-09-06T12:32:58Z</time>
      </trkpt>
      <trkpt lat="46.13428" lon="4.51257">
        <ele>826</ele>
        <time>2025-09-06T12:32:59Z</time>
      </trkpt>
      <trkpt lat="46.13429" lon="4.51257">
        <ele>826</ele>
        <time>2025-09-06T12:33:00Z</time>
      </trkpt>
      <trkpt lat="46.13429" lon="4.51257">
        <ele>826</ele>
        <time>2025-09-06T12:33:01Z</time>
      </trkpt>
      <trkpt lat="46.13429" lon="4.51257">
        <ele>826</ele>
        <time>2025-09-06T12:33:02Z</time>
      </trkpt>
      <trkpt lat="46.13428" lon="4.51257">
        <ele>826</ele>
        <time>2025-09-06T12:33:03Z</time>
      </trkpt>
      <trkpt lat="46.13432" lon="4.51254">
        <ele>825</ele>
        <time>2025-09-06T12:33:37Z</time>
      </trkpt>
      <trkpt lat="46.13433" lon="4.51253">
        <ele>825</ele>
        <time>2025-09-06T12:33:38Z</time>
      </trkpt>
      <trkpt lat="46.13433" lon="4.51251">
        <ele>825</ele>
        <time>2025-09-06T12:33:39Z</time>
      </trkpt>
      <trkpt lat="46.13434" lon="4.51249">
        <ele>825</ele>
        <time>2025-09-06T12:33:40Z</time>
      </trkpt>
      <trkpt lat="46.13435" lon="4.51246">
        <ele>825</ele>
        <time>2025-09-06T12:33:41Z</time>
      </trkpt>
      <trkpt lat="46.13436" lon="4.51243">
        <ele>825.4</ele>
        <time>2025-09-06T12:33:42Z</time>
      </trkpt>
      <trkpt lat="46.13437" lon="4.5124">
        <ele>825</ele>
        <time>2025-09-06T12:33:43Z</time>
      </trkpt>
      <trkpt lat="46.13437" lon="4.51236">
        <ele>825</ele>
        <time>2025-09-06T12:33:44Z</time>
      </trkpt>
      <trkpt lat="46.13438" lon="4.51233">
        <ele>824.6</ele>
        <time>2025-09-06T12:33:45Z</time>
      </trkpt>
      <trkpt lat="46.1344" lon="4.5123">
        <ele>824.4</ele>
        <time>2025-09-06T12:33:46Z</time>
      </trkpt>
      <trkpt lat="46.13441" lon="4.51228">
        <ele>824.4</ele>
        <time>2025-09-06T12:33:47Z</time>
      </trkpt>
      <trkpt lat="46.13443" lon="4.51225">
        <ele>824</ele>
        <time>2025-09-06T12:33:48Z</time>
      </trkpt>
      <trkpt lat="46.13445" lon="4.51223">
        <ele>823.8</ele>
        <time>2025-09-06T12:33:49Z</time>
      </trkpt>
      <trkpt lat="46.13447" lon="4.5122">
        <ele>823.4</ele>
        <time>2025-09-06T12:33:50Z</time>
      </trkpt>
      <trkpt lat="46.13449" lon="4.51218">
        <ele>823</ele>
        <time>2025-09-06T12:33:51Z</time>
      </trkpt>
      <trkpt lat="46.1345" lon="4.51216">
        <ele>822.8</ele>
        <time>2025-09-06T12:33:52Z</time>
      </trkpt>
      <trkpt lat="46.13451" lon="4.51214">
        <ele>822.2</ele>
        <time>2025-09-06T12:33:53Z</time>
      </trkpt>
      <trkpt lat="46.13452" lon="4.51212">
        <ele>822.2</ele>
        <time>2025-09-06T12:33:54Z</time>
      </trkpt>
      <trkpt lat="46.13453" lon="4.5121">
        <ele>822.2</ele>
        <time>2025-09-06T12:33:55Z</time>
      </trkpt>
      <trkpt lat="46.13454" lon="4.51208">
        <ele>821.4</ele>
        <time>2025-09-06T12:33:56Z</time>
      </trkpt>
      <trkpt lat="46.13454" lon="4.51205">
        <ele>821.4</ele>
        <time>2025-09-06T12:33:57Z</time>
      </trkpt>
      <trkpt lat="46.13454" lon="4.51203">
        <ele>821.4</ele>
        <time>2025-09-06T12:33:58Z</time>
      </trkpt>
      <trkpt lat="46.13455" lon="4.512">
        <ele>821</ele>
        <time>2025-09-06T12:33:59Z</time>
      </trkpt>
      <trkpt lat="46.13456" lon="4.51198">
        <ele>820.4</ele>
        <time>2025-09-06T12:34:00Z</time>
      </trkpt>
      <trkpt lat="46.13458" lon="4.51195">
        <ele>820.4</ele>
        <time>2025-09-06T12:34:01Z</time>
      </trkpt>
      <trkpt lat="46.13459" lon="4.51193">
        <ele>820.4</ele>
        <time>2025-09-06T12:34:02Z</time>
      </trkpt>
      <trkpt lat="46.1346" lon="4.5119">
        <ele>820</ele>
        <time>2025-09-06T12:34:03Z</time>
      </trkpt>
      <trkpt lat="46.13462" lon="4.51188">
        <ele>819.6</ele>
        <time>2025-09-06T12:34:04Z</time>
      </trkpt>
      <trkpt lat="46.13462" lon="4.51188">
        <ele>819.6</ele>
        <time>2025-09-06T12:34:05Z</time>
      </trkpt>
      <trkpt lat="46.13464" lon="4.51186">
        <ele>819.2</ele>
        <time>2025-09-06T12:34:06Z</time>
      </trkpt>
      <trkpt lat="46.13465" lon="4.51184">
        <ele>819.4</ele>
        <time>2025-09-06T12:34:07Z</time>
      </trkpt>
      <trkpt lat="46.13467" lon="4.51181">
        <ele>819.2</ele>
        <time>2025-09-06T12:34:08Z</time>
      </trkpt>
      <trkpt lat="46.13468" lon="4.51177">
        <ele>818.6</ele>
        <time>2025-09-06T12:34:09Z</time>
      </trkpt>
      <trkpt lat="46.1347" lon="4.51174">
        <ele>818.6</ele>
        <time>2025-09-06T12:34:10Z</time>
      </trkpt>
      <trkpt lat="46.13472" lon="4.51171">
        <ele>818.6</ele>
        <time>2025-09-06T12:34:11Z</time>
      </trkpt>
      <trkpt lat="46.13474" lon="4.51167">
        <ele>818</ele>
        <time>2025-09-06T12:34:12Z</time>
      </trkpt>
      <trkpt lat="46.13475" lon="4.51164">
        <ele>817.6</ele>
        <time>2025-09-06T12:34:13Z</time>
      </trkpt>
      <trkpt lat="46.13475" lon="4.51164">
        <ele>817.4</ele>
        <time>2025-09-06T12:34:14Z</time>
      </trkpt>
      <trkpt lat="46.1348" lon="4.51155">
        <ele>816.8</ele>
        <time>2025-09-06T12:34:16Z</time>
      </trkpt>
      <trkpt lat="46.13481" lon="4.51152">
        <ele>817.4</ele>
        <time>2025-09-06T12:34:17Z</time>
      </trkpt>
      <trkpt lat="46.13483" lon="4.51148">
        <ele>816.8</ele>
        <time>2025-09-06T12:34:18Z</time>
      </trkpt>
      <trkpt lat="46.13485" lon="4.51145">
        <ele>816.2</ele>
        <time>2025-09-06T12:34:19Z</time>
      </trkpt>
      <trkpt lat="46.13486" lon="4.51142">
        <ele>815.8</ele>
        <time>2025-09-06T12:34:20Z</time>
      </trkpt>
      <trkpt lat="46.13488" lon="4.5114">
        <ele>815.6</ele>
        <time>2025-09-06T12:34:21Z</time>
      </trkpt>
      <trkpt lat="46.13489" lon="4.51138">
        <ele>814.6</ele>
        <time>2025-09-06T12:34:22Z</time>
      </trkpt>
      <trkpt lat="46.13491" lon="4.51135">
        <ele>814.8</ele>
        <time>2025-09-06T12:34:23Z</time>
      </trkpt>
      <trkpt lat="46.13493" lon="4.51131">
        <ele>814.4</ele>
        <time>2025-09-06T12:34:24Z</time>
      </trkpt>
      <trkpt lat="46.13496" lon="4.51127">
        <ele>813.8</ele>
        <time>2025-09-06T12:34:25Z</time>
      </trkpt>
      <trkpt lat="46.13498" lon="4.51124">
        <ele>813</ele>
        <time>2025-09-06T12:34:26Z</time>
      </trkpt>
      <trkpt lat="46.135" lon="4.5112">
        <ele>813</ele>
        <time>2025-09-06T12:34:27Z</time>
      </trkpt>
      <trkpt lat="46.13502" lon="4.51116">
        <ele>812.8</ele>
        <time>2025-09-06T12:34:28Z</time>
      </trkpt>
      <trkpt lat="46.13504" lon="4.51112">
        <ele>812.2</ele>
        <time>2025-09-06T12:34:29Z</time>
      </trkpt>
      <trkpt lat="46.13506" lon="4.51109">
        <ele>811.2</ele>
        <time>2025-09-06T12:34:30Z</time>
      </trkpt>
      <trkpt lat="46.13509" lon="4.51105">
        <ele>811.2</ele>
        <time>2025-09-06T12:34:31Z</time>
      </trkpt>
      <trkpt lat="46.13511" lon="4.51102">
        <ele>810.6</ele>
        <time>2025-09-06T12:34:32Z</time>
      </trkpt>
      <trkpt lat="46.13512" lon="4.51099">
        <ele>810.6</ele>
        <time>2025-09-06T12:34:33Z</time>
      </trkpt>
      <trkpt lat="46.13514" lon="4.51095">
        <ele>809.8</ele>
        <time>2025-09-06T12:34:34Z</time>
      </trkpt>
      <trkpt lat="46.13517" lon="4.51092">
        <ele>809.4</ele>
        <time>2025-09-06T12:34:35Z</time>
      </trkpt>
      <trkpt lat="46.13519" lon="4.51088">
        <ele>809</ele>
        <time>2025-09-06T12:34:36Z</time>
      </trkpt>
      <trkpt lat="46.13521" lon="4.51085">
        <ele>808.4</ele>
        <time>2025-09-06T12:34:37Z</time>
      </trkpt>
      <trkpt lat="46.13523" lon="4.51082">
        <ele>808</ele>
        <time>2025-09-06T12:34:38Z</time>
      </trkpt>
      <trkpt lat="46.13525" lon="4.5108">
        <ele>807.4</ele>
        <time>2025-09-06T12:34:39Z</time>
      </trkpt>
      <trkpt lat="46.13527" lon="4.51077">
        <ele>807</ele>
        <time>2025-09-06T12:34:40Z</time>
      </trkpt>
      <trkpt lat="46.13529" lon="4.51073">
        <ele>806.6</ele>
        <time>2025-09-06T12:34:41Z</time>
      </trkpt>
      <trkpt lat="46.13529" lon="4.51073">
        <ele>806.2</ele>
        <time>2025-09-06T12:34:42Z</time>
      </trkpt>
      <trkpt lat="46.13533" lon="4.51066">
        <ele>806.2</ele>
        <time>2025-09-06T12:34:43Z</time>
      </trkpt>
      <trkpt lat="46.13536" lon="4.51063">
        <ele>806</ele>
        <time>2025-09-06T12:34:44Z</time>
      </trkpt>
      <trkpt lat="46.13538" lon="4.51059">
        <ele>805.4</ele>
        <time>2025-09-06T12:34:45Z</time>
      </trkpt>
      <trkpt lat="46.1354" lon="4.51056">
        <ele>804.8</ele>
        <time>2025-09-06T12:34:46Z</time>
      </trkpt>
      <trkpt lat="46.13542" lon="4.51053">
        <ele>804.8</ele>
        <time>2025-09-06T12:34:47Z</time>
      </trkpt>
      <trkpt lat="46.13544" lon="4.5105">
        <ele>804.4</ele>
        <time>2025-09-06T12:34:48Z</time>
      </trkpt>
      <trkpt lat="46.13547" lon="4.51047">
        <ele>804</ele>
        <time>2025-09-06T12:34:49Z</time>
      </trkpt>
      <trkpt lat="46.1355" lon="4.51045">
        <ele>803.6</ele>
        <time>2025-09-06T12:34:50Z</time>
      </trkpt>
      <trkpt lat="46.13553" lon="4.51042">
        <ele>803.2</ele>
        <time>2025-09-06T12:34:51Z</time>
      </trkpt>
      <trkpt lat="46.13555" lon="4.5104">
        <ele>802.6</ele>
        <time>2025-09-06T12:34:52Z</time>
      </trkpt>
      <trkpt lat="46.13558" lon="4.51039">
        <ele>802.2</ele>
        <time>2025-09-06T12:34:53Z</time>
      </trkpt>
      <trkpt lat="46.1356" lon="4.51038">
        <ele>801.8</ele>
        <time>2025-09-06T12:34:54Z</time>
      </trkpt>
      <trkpt lat="46.13561" lon="4.51037">
        <ele>801.8</ele>
        <time>2025-09-06T12:34:55Z</time>
      </trkpt>
      <trkpt lat="46.13563" lon="4.51036">
        <ele>801.8</ele>
        <time>2025-09-06T12:34:56Z</time>
      </trkpt>
      <trkpt lat="46.13566" lon="4.51034">
        <ele>801.4</ele>
        <time>2025-09-06T12:34:57Z</time>
      </trkpt>
      <trkpt lat="46.13568" lon="4.51032">
        <ele>801.2</ele>
        <time>2025-09-06T12:34:58Z</time>
      </trkpt>
      <trkpt lat="46.1357" lon="4.51031">
        <ele>800.6</ele>
        <time>2025-09-06T12:34:59Z</time>
      </trkpt>
      <trkpt lat="46.13571" lon="4.51029">
        <ele>800.6</ele>
        <time>2025-09-06T12:35:00Z</time>
      </trkpt>
      <trkpt lat="46.13572" lon="4.51028">
        <ele>800.6</ele>
        <time>2025-09-06T12:35:01Z</time>
      </trkpt>
      <trkpt lat="46.13572" lon="4.51028">
        <ele>800.6</ele>
        <time>2025-09-06T12:35:02Z</time>
      </trkpt>
      <trkpt lat="46.13571" lon="4.51028">
        <ele>800.6</ele>
        <time>2025-09-06T12:35:03Z</time>
      </trkpt>
      <trkpt lat="46.1357" lon="4.51027">
        <ele>800</ele>
        <time>2025-09-06T12:35:12Z</time>
      </trkpt>
      <trkpt lat="46.1357" lon="4.51027">
        <ele>799.8</ele>
        <time>2025-09-06T12:35:13Z</time>
      </trkpt>
      <trkpt lat="46.13571" lon="4.51027">
        <ele>799.8</ele>
        <time>2025-09-06T12:35:14Z</time>
      </trkpt>
      <trkpt lat="46.1357" lon="4.5103">
        <ele>800.4</ele>
        <time>2025-09-06T12:36:22Z</time>
      </trkpt>
      <trkpt lat="46.13569" lon="4.51031">
        <ele>800.6</ele>
        <time>2025-09-06T12:36:23Z</time>
      </trkpt>
      <trkpt lat="46.13569" lon="4.51031">
        <ele>800.4</ele>
        <time>2025-09-06T12:36:24Z</time>
      </trkpt>
      <trkpt lat="46.13569" lon="4.51032">
        <ele>800.4</ele>
        <time>2025-09-06T12:36:25Z</time>
      </trkpt>
      <trkpt lat="46.13568" lon="4.51033">
        <ele>800</ele>
        <time>2025-09-06T12:36:26Z</time>
      </trkpt>
      <trkpt lat="46.13567" lon="4.51034">
        <ele>800</ele>
        <time>2025-09-06T12:36:27Z</time>
      </trkpt>
      <trkpt lat="46.13566" lon="4.51035">
        <ele>800.2</ele>
        <time>2025-09-06T12:36:28Z</time>
      </trkpt>
      <trkpt lat="46.13565" lon="4.51037">
        <ele>800.2</ele>
        <time>2025-09-06T12:36:29Z</time>
      </trkpt>
      <trkpt lat="46.13565" lon="4.51038">
        <ele>800.2</ele>
        <time>2025-09-06T12:36:30Z</time>
      </trkpt>
      <trkpt lat="46.13565" lon="4.51038">
        <ele>800</ele>
        <time>2025-09-06T12:36:31Z</time>
      </trkpt>
      <trkpt lat="46.13567" lon="4.51038">
        <ele>800</ele>
        <time>2025-09-06T12:36:32Z</time>
      </trkpt>
      <trkpt lat="46.13568" lon="4.51038">
        <ele>800</ele>
        <time>2025-09-06T12:36:33Z</time>
      </trkpt>
      <trkpt lat="46.13568" lon="4.51037">
        <ele>800</ele>
        <time>2025-09-06T12:36:34Z</time>
      </trkpt>
      <trkpt lat="46.13568" lon="4.51037">
        <ele>800</ele>
        <time>2025-09-06T12:36:35Z</time>
      </trkpt>
      <trkpt lat="46.13569" lon="4.51036">
        <ele>799.6</ele>
        <time>2025-09-06T12:36:39Z</time>
      </trkpt>
      <trkpt lat="46.13571" lon="4.51035">
        <ele>799.6</ele>
        <time>2025-09-06T12:36:40Z</time>
      </trkpt>
      <trkpt lat="46.13573" lon="4.51034">
        <ele>799.6</ele>
        <time>2025-09-06T12:36:41Z</time>
      </trkpt>
      <trkpt lat="46.13575" lon="4.51032">
        <ele>799.4</ele>
        <time>2025-09-06T12:36:42Z</time>
      </trkpt>
      <trkpt lat="46.13577" lon="4.51031">
        <ele>799.4</ele>
        <time>2025-09-06T12:36:43Z</time>
      </trkpt>
      <trkpt lat="46.1358" lon="4.51029">
        <ele>799.4</ele>
        <time>2025-09-06T12:36:44Z</time>
      </trkpt>
      <trkpt lat="46.13583" lon="4.51027">
        <ele>799</ele>
        <time>2025-09-06T12:36:45Z</time>
      </trkpt>
      <trkpt lat="46.13586" lon="4.51026">
        <ele>798.6</ele>
        <time>2025-09-06T12:36:46Z</time>
      </trkpt>
      <trkpt lat="46.13589" lon="4.51024">
        <ele>798.2</ele>
        <time>2025-09-06T12:36:47Z</time>
      </trkpt>
      <trkpt lat="46.13591" lon="4.51022">
        <ele>798</ele>
        <time>2025-09-06T12:36:48Z</time>
      </trkpt>
      <trkpt lat="46.13593" lon="4.51021">
        <ele>797.6</ele>
        <time>2025-09-06T12:36:49Z</time>
      </trkpt>
      <trkpt lat="46.13596" lon="4.5102">
        <ele>797.6</ele>
        <time>2025-09-06T12:36:50Z</time>
      </trkpt>
      <trkpt lat="46.13598" lon="4.51018">
        <ele>797</ele>
        <time>2025-09-06T12:36:51Z</time>
      </trkpt>
      <trkpt lat="46.13601" lon="4.51017">
        <ele>796.8</ele>
        <time>2025-09-06T12:36:52Z</time>
      </trkpt>
      <trkpt lat="46.13604" lon="4.51016">
        <ele>796.8</ele>
        <time>2025-09-06T12:36:53Z</time>
      </trkpt>
      <trkpt lat="46.13606" lon="4.51014">
        <ele>796.4</ele>
        <time>2025-09-06T12:36:54Z</time>
      </trkpt>
      <trkpt lat="46.13608" lon="4.51013">
        <ele>796.4</ele>
        <time>2025-09-06T12:36:55Z</time>
      </trkpt>
      <trkpt lat="46.1361" lon="4.51012">
        <ele>796</ele>
        <time>2025-09-06T12:36:56Z</time>
      </trkpt>
      <trkpt lat="46.13612" lon="4.51011">
        <ele>796</ele>
        <time>2025-09-06T12:36:57Z</time>
      </trkpt>
      <trkpt lat="46.13615" lon="4.51009">
        <ele>796</ele>
        <time>2025-09-06T12:36:58Z</time>
      </trkpt>
      <trkpt lat="46.13619" lon="4.51007">
        <ele>795.8</ele>
        <time>2025-09-06T12:36:59Z</time>
      </trkpt>
      <trkpt lat="46.13622" lon="4.51006">
        <ele>795.2</ele>
        <time>2025-09-06T12:37:00Z</time>
      </trkpt>
      <trkpt lat="46.13625" lon="4.51004">
        <ele>794.8</ele>
        <time>2025-09-06T12:37:01Z</time>
      </trkpt>
      <trkpt lat="46.13627" lon="4.51003">
        <ele>795</ele>
        <time>2025-09-06T12:37:02Z</time>
      </trkpt>
      <trkpt lat="46.1363" lon="4.51001">
        <ele>794.8</ele>
        <time>2025-09-06T12:37:03Z</time>
      </trkpt>
      <trkpt lat="46.13633" lon="4.50999">
        <ele>794.4</ele>
        <time>2025-09-06T12:37:04Z</time>
      </trkpt>
      <trkpt lat="46.13635" lon="4.50998">
        <ele>794.6</ele>
        <time>2025-09-06T12:37:05Z</time>
      </trkpt>
      <trkpt lat="46.13638" lon="4.50997">
        <ele>794</ele>
        <time>2025-09-06T12:37:06Z</time>
      </trkpt>
      <trkpt lat="46.1364" lon="4.50996">
        <ele>794.8</ele>
        <time>2025-09-06T12:37:07Z</time>
      </trkpt>
      <trkpt lat="46.13643" lon="4.50995">
        <ele>794.4</ele>
        <time>2025-09-06T12:37:08Z</time>
      </trkpt>
      <trkpt lat="46.13646" lon="4.50994">
        <ele>794.2</ele>
        <time>2025-09-06T12:37:09Z</time>
      </trkpt>
      <trkpt lat="46.1365" lon="4.50993">
        <ele>793.6</ele>
        <time>2025-09-06T12:37:10Z</time>
      </trkpt>
      <trkpt lat="46.13654" lon="4.50993">
        <ele>793</ele>
        <time>2025-09-06T12:37:11Z</time>
      </trkpt>
      <trkpt lat="46.13657" lon="4.50993">
        <ele>792.4</ele>
        <time>2025-09-06T12:37:12Z</time>
      </trkpt>
      <trkpt lat="46.13659" lon="4.50992">
        <ele>792.4</ele>
        <time>2025-09-06T12:37:13Z</time>
      </trkpt>
      <trkpt lat="46.13663" lon="4.50991">
        <ele>792</ele>
        <time>2025-09-06T12:37:14Z</time>
      </trkpt>
      <trkpt lat="46.13666" lon="4.5099">
        <ele>792.2</ele>
        <time>2025-09-06T12:37:15Z</time>
      </trkpt>
      <trkpt lat="46.1367" lon="4.50989">
        <ele>791.2</ele>
        <time>2025-09-06T12:37:16Z</time>
      </trkpt>
      <trkpt lat="46.13673" lon="4.50988">
        <ele>791</ele>
        <time>2025-09-06T12:37:17Z</time>
      </trkpt>
      <trkpt lat="46.13677" lon="4.50987">
        <ele>790.6</ele>
        <time>2025-09-06T12:37:18Z</time>
      </trkpt>
      <trkpt lat="46.1368" lon="4.50986">
        <ele>790.8</ele>
        <time>2025-09-06T12:37:19Z</time>
      </trkpt>
      <trkpt lat="46.13684" lon="4.50985">
        <ele>790.6</ele>
        <time>2025-09-06T12:37:20Z</time>
      </trkpt>
      <trkpt lat="46.13686" lon="4.50984">
        <ele>791</ele>
        <time>2025-09-06T12:37:21Z</time>
      </trkpt>
      <trkpt lat="46.13689" lon="4.50984">
        <ele>791</ele>
        <time>2025-09-06T12:37:22Z</time>
      </trkpt>
      <trkpt lat="46.13692" lon="4.50983">
        <ele>791</ele>
        <time>2025-09-06T12:37:23Z</time>
      </trkpt>
      <trkpt lat="46.13695" lon="4.50983">
        <ele>790.6</ele>
        <time>2025-09-06T12:37:24Z</time>
      </trkpt>
      <trkpt lat="46.13698" lon="4.50982">
        <ele>790</ele>
        <time>2025-09-06T12:37:25Z</time>
      </trkpt>
      <trkpt lat="46.13701" lon="4.5098">
        <ele>789.8</ele>
        <time>2025-09-06T12:37:26Z</time>
      </trkpt>
      <trkpt lat="46.13703" lon="4.50979">
        <ele>789.2</ele>
        <time>2025-09-06T12:37:27Z</time>
      </trkpt>
      <trkpt lat="46.13705" lon="4.50978">
        <ele>789.2</ele>
        <time>2025-09-06T12:37:28Z</time>
      </trkpt>
      <trkpt lat="46.13707" lon="4.50977">
        <ele>789.6</ele>
        <time>2025-09-06T12:37:29Z</time>
      </trkpt>
      <trkpt lat="46.13709" lon="4.50975">
        <ele>788.6</ele>
        <time>2025-09-06T12:37:30Z</time>
      </trkpt>
      <trkpt lat="46.13711" lon="4.50973">
        <ele>788.6</ele>
        <time>2025-09-06T12:37:31Z</time>
      </trkpt>
      <trkpt lat="46.13713" lon="4.50971">
        <ele>788.2</ele>
        <time>2025-09-06T12:37:32Z</time>
      </trkpt>
      <trkpt lat="46.13715" lon="4.50969">
        <ele>787.8</ele>
        <time>2025-09-06T12:37:33Z</time>
      </trkpt>
      <trkpt lat="46.13717" lon="4.50968">
        <ele>787.8</ele>
        <time>2025-09-06T12:37:34Z</time>
      </trkpt>
      <trkpt lat="46.13718" lon="4.50967">
        <ele>787.8</ele>
        <time>2025-09-06T12:37:35Z</time>
      </trkpt>
      <trkpt lat="46.1372" lon="4.50966">
        <ele>787.8</ele>
        <time>2025-09-06T12:37:36Z</time>
      </trkpt>
      <trkpt lat="46.13722" lon="4.50966">
        <ele>787.6</ele>
        <time>2025-09-06T12:37:37Z</time>
      </trkpt>
      <trkpt lat="46.13724" lon="4.50966">
        <ele>787.6</ele>
        <time>2025-09-06T12:37:38Z</time>
      </trkpt>
      <trkpt lat="46.13726" lon="4.50966">
        <ele>786.8</ele>
        <time>2025-09-06T12:37:39Z</time>
      </trkpt>
      <trkpt lat="46.13727" lon="4.50966">
        <ele>786.8</ele>
        <time>2025-09-06T12:37:40Z</time>
      </trkpt>
      <trkpt lat="46.13729" lon="4.50965">
        <ele>786.8</ele>
        <time>2025-09-06T12:37:41Z</time>
      </trkpt>
      <trkpt lat="46.13731" lon="4.50965">
        <ele>786.8</ele>
        <time>2025-09-06T12:37:42Z</time>
      </trkpt>
      <trkpt lat="46.13734" lon="4.50965">
        <ele>786.4</ele>
        <time>2025-09-06T12:37:43Z</time>
      </trkpt>
      <trkpt lat="46.13736" lon="4.50964">
        <ele>786</ele>
        <time>2025-09-06T12:37:44Z</time>
      </trkpt>
      <trkpt lat="46.13738" lon="4.50964">
        <ele>785.6</ele>
        <time>2025-09-06T12:37:45Z</time>
      </trkpt>
      <trkpt lat="46.1374" lon="4.50962">
        <ele>785.4</ele>
        <time>2025-09-06T12:37:46Z</time>
      </trkpt>
      <trkpt lat="46.13743" lon="4.50961">
        <ele>785.6</ele>
        <time>2025-09-06T12:37:47Z</time>
      </trkpt>
      <trkpt lat="46.13745" lon="4.5096">
        <ele>785.4</ele>
        <time>2025-09-06T12:37:48Z</time>
      </trkpt>
      <trkpt lat="46.13746" lon="4.50959">
        <ele>785</ele>
        <time>2025-09-06T12:37:49Z</time>
      </trkpt>
      <trkpt lat="46.13748" lon="4.50958">
        <ele>784.6</ele>
        <time>2025-09-06T12:37:50Z</time>
      </trkpt>
      <trkpt lat="46.1375" lon="4.50957">
        <ele>784.6</ele>
        <time>2025-09-06T12:37:51Z</time>
      </trkpt>
      <trkpt lat="46.13751" lon="4.50956">
        <ele>784.4</ele>
        <time>2025-09-06T12:37:52Z</time>
      </trkpt>
      <trkpt lat="46.13752" lon="4.50955">
        <ele>784.4</ele>
        <time>2025-09-06T12:37:53Z</time>
      </trkpt>
      <trkpt lat="46.13753" lon="4.50954">
        <ele>784.2</ele>
        <time>2025-09-06T12:37:54Z</time>
      </trkpt>
      <trkpt lat="46.13754" lon="4.50954">
        <ele>784.2</ele>
        <time>2025-09-06T12:37:55Z</time>
      </trkpt>
      <trkpt lat="46.13754" lon="4.50954">
        <ele>783.8</ele>
        <time>2025-09-06T12:37:56Z</time>
      </trkpt>
      <trkpt lat="46.13754" lon="4.50954">
        <ele>783.8</ele>
        <time>2025-09-06T12:37:57Z</time>
      </trkpt>
      <trkpt lat="46.13757" lon="4.5095">
        <ele>783</ele>
        <time>2025-09-06T12:38:13Z</time>
      </trkpt>
      <trkpt lat="46.13758" lon="4.50948">
        <ele>783</ele>
        <time>2025-09-06T12:38:14Z</time>
      </trkpt>
      <trkpt lat="46.1376" lon="4.50947">
        <ele>783</ele>
        <time>2025-09-06T12:38:15Z</time>
      </trkpt>
      <trkpt lat="46.13762" lon="4.50945">
        <ele>783</ele>
        <time>2025-09-06T12:38:16Z</time>
      </trkpt>
      <trkpt lat="46.13764" lon="4.50943">
        <ele>782.8</ele>
        <time>2025-09-06T12:38:17Z</time>
      </trkpt>
      <trkpt lat="46.13766" lon="4.50941">
        <ele>782.2</ele>
        <time>2025-09-06T12:38:18Z</time>
      </trkpt>
      <trkpt lat="46.13768" lon="4.50939">
        <ele>782.2</ele>
        <time>2025-09-06T12:38:19Z</time>
      </trkpt>
      <trkpt lat="46.1377" lon="4.50938">
        <ele>782.2</ele>
        <time>2025-09-06T12:38:20Z</time>
      </trkpt>
      <trkpt lat="46.13771" lon="4.50936">
        <ele>782</ele>
        <time>2025-09-06T12:38:21Z</time>
      </trkpt>
      <trkpt lat="46.13773" lon="4.50935">
        <ele>782</ele>
        <time>2025-09-06T12:38:22Z</time>
      </trkpt>
      <trkpt lat="46.13775" lon="4.50933">
        <ele>781.4</ele>
        <time>2025-09-06T12:38:23Z</time>
      </trkpt>
      <trkpt lat="46.13776" lon="4.50931">
        <ele>781.4</ele>
        <time>2025-09-06T12:38:24Z</time>
      </trkpt>
      <trkpt lat="46.13778" lon="4.50929">
        <ele>781.4</ele>
        <time>2025-09-06T12:38:25Z</time>
      </trkpt>
      <trkpt lat="46.13779" lon="4.50927">
        <ele>781.4</ele>
        <time>2025-09-06T12:38:26Z</time>
      </trkpt>
      <trkpt lat="46.13781" lon="4.50925">
        <ele>781</ele>
        <time>2025-09-06T12:38:27Z</time>
      </trkpt>
      <trkpt lat="46.13783" lon="4.50924">
        <ele>781</ele>
        <time>2025-09-06T12:38:28Z</time>
      </trkpt>
      <trkpt lat="46.13785" lon="4.50922">
        <ele>780.4</ele>
        <time>2025-09-06T12:38:29Z</time>
      </trkpt>
      <trkpt lat="46.13786" lon="4.50921">
        <ele>780.4</ele>
        <time>2025-09-06T12:38:30Z</time>
      </trkpt>
      <trkpt lat="46.13788" lon="4.5092">
        <ele>780</ele>
        <time>2025-09-06T12:38:31Z</time>
      </trkpt>
      <trkpt lat="46.1379" lon="4.5092">
        <ele>780</ele>
        <time>2025-09-06T12:38:32Z</time>
      </trkpt>
      <trkpt lat="46.13792" lon="4.50919">
        <ele>779.8</ele>
        <time>2025-09-06T12:38:33Z</time>
      </trkpt>
      <trkpt lat="46.13793" lon="4.50919">
        <ele>779</ele>
        <time>2025-09-06T12:38:34Z</time>
      </trkpt>
      <trkpt lat="46.13795" lon="4.50918">
        <ele>778.8</ele>
        <time>2025-09-06T12:38:35Z</time>
      </trkpt>
      <trkpt lat="46.13796" lon="4.50918">
        <ele>778.4</ele>
        <time>2025-09-06T12:38:36Z</time>
      </trkpt>
      <trkpt lat="46.13798" lon="4.50917">
        <ele>778.2</ele>
        <time>2025-09-06T12:38:37Z</time>
      </trkpt>
      <trkpt lat="46.13799" lon="4.50917">
        <ele>778.2</ele>
        <time>2025-09-06T12:38:38Z</time>
      </trkpt>
      <trkpt lat="46.138" lon="4.50917">
        <ele>777.8</ele>
        <time>2025-09-06T12:38:39Z</time>
      </trkpt>
      <trkpt lat="46.13801" lon="4.50917">
        <ele>777.8</ele>
        <time>2025-09-06T12:38:40Z</time>
      </trkpt>
      <trkpt lat="46.13801" lon="4.50917">
        <ele>777.8</ele>
        <time>2025-09-06T12:38:41Z</time>
      </trkpt>
      <trkpt lat="46.13801" lon="4.50917">
        <ele>777.8</ele>
        <time>2025-09-06T12:38:42Z</time>
      </trkpt>
      <trkpt lat="46.13802" lon="4.50917">
        <ele>777.4</ele>
        <time>2025-09-06T12:38:59Z</time>
      </trkpt>
      <trkpt lat="46.13803" lon="4.50917">
        <ele>777.4</ele>
        <time>2025-09-06T12:39:00Z</time>
      </trkpt>
      <trkpt lat="46.13804" lon="4.50917">
        <ele>777.2</ele>
        <time>2025-09-06T12:39:01Z</time>
      </trkpt>
      <trkpt lat="46.13805" lon="4.50917">
        <ele>777.2</ele>
        <time>2025-09-06T12:39:02Z</time>
      </trkpt>
      <trkpt lat="46.13806" lon="4.50917">
        <ele>776.8</ele>
        <time>2025-09-06T12:39:03Z</time>
      </trkpt>
      <trkpt lat="46.13807" lon="4.50916">
        <ele>776.2</ele>
        <time>2025-09-06T12:39:04Z</time>
      </trkpt>
      <trkpt lat="46.13808" lon="4.50916">
        <ele>776.2</ele>
        <time>2025-09-06T12:39:05Z</time>
      </trkpt>
      <trkpt lat="46.13809" lon="4.50915">
        <ele>776.4</ele>
        <time>2025-09-06T12:39:06Z</time>
      </trkpt>
      <trkpt lat="46.13809" lon="4.50914">
        <ele>776.4</ele>
        <time>2025-09-06T12:39:07Z</time>
      </trkpt>
      <trkpt lat="46.13809" lon="4.50914">
        <ele>776.4</ele>
        <time>2025-09-06T12:39:08Z</time>
      </trkpt>
      <trkpt lat="46.1381" lon="4.50914">
        <ele>776.2</ele>
        <time>2025-09-06T12:39:09Z</time>
      </trkpt>
      <trkpt lat="46.1381" lon="4.50913">
        <ele>776.2</ele>
        <time>2025-09-06T12:39:10Z</time>
      </trkpt>
      <trkpt lat="46.13811" lon="4.50913">
        <ele>776</ele>
        <time>2025-09-06T12:39:11Z</time>
      </trkpt>
      <trkpt lat="46.13812" lon="4.50912">
        <ele>776</ele>
        <time>2025-09-06T12:39:12Z</time>
      </trkpt>
      <trkpt lat="46.13813" lon="4.50911">
        <ele>776.2</ele>
        <time>2025-09-06T12:39:13Z</time>
      </trkpt>
      <trkpt lat="46.13814" lon="4.5091">
        <ele>776.2</ele>
        <time>2025-09-06T12:39:14Z</time>
      </trkpt>
      <trkpt lat="46.13815" lon="4.5091">
        <ele>775.8</ele>
        <time>2025-09-06T12:39:15Z</time>
      </trkpt>
      <trkpt lat="46.13816" lon="4.5091">
        <ele>775.8</ele>
        <time>2025-09-06T12:39:16Z</time>
      </trkpt>
      <trkpt lat="46.13816" lon="4.5091">
        <ele>775.8</ele>
        <time>2025-09-06T12:39:17Z</time>
      </trkpt>
      <trkpt lat="46.13817" lon="4.50909">
        <ele>775.8</ele>
        <time>2025-09-06T12:39:18Z</time>
      </trkpt>
      <trkpt lat="46.13818" lon="4.50909">
        <ele>775.2</ele>
        <time>2025-09-06T12:39:19Z</time>
      </trkpt>
      <trkpt lat="46.13818" lon="4.50908">
        <ele>775</ele>
        <time>2025-09-06T12:39:20Z</time>
      </trkpt>
      <trkpt lat="46.13819" lon="4.50908">
        <ele>774.4</ele>
        <time>2025-09-06T12:39:21Z</time>
      </trkpt>
      <trkpt lat="46.13819" lon="4.50907">
        <ele>774.4</ele>
        <time>2025-09-06T12:39:22Z</time>
      </trkpt>
      <trkpt lat="46.1382" lon="4.50906">
        <ele>774.8</ele>
        <time>2025-09-06T12:39:23Z</time>
      </trkpt>
      <trkpt lat="46.13821" lon="4.50905">
        <ele>774.2</ele>
        <time>2025-09-06T12:39:24Z</time>
      </trkpt>
      <trkpt lat="46.13822" lon="4.50904">
        <ele>774.2</ele>
        <time>2025-09-06T12:39:25Z</time>
      </trkpt>
      <trkpt lat="46.13823" lon="4.50904">
        <ele>774.2</ele>
        <time>2025-09-06T12:39:26Z</time>
      </trkpt>
      <trkpt lat="46.13824" lon="4.50903">
        <ele>773.8</ele>
        <time>2025-09-06T12:39:27Z</time>
      </trkpt>
      <trkpt lat="46.13825" lon="4.50903">
        <ele>773.4</ele>
        <time>2025-09-06T12:39:28Z</time>
      </trkpt>
      <trkpt lat="46.13826" lon="4.50902">
        <ele>772.8</ele>
        <time>2025-09-06T12:39:29Z</time>
      </trkpt>
      <trkpt lat="46.13827" lon="4.50902">
        <ele>772.6</ele>
        <time>2025-09-06T12:39:30Z</time>
      </trkpt>
      <trkpt lat="46.13828" lon="4.50902">
        <ele>772.6</ele>
        <time>2025-09-06T12:39:31Z</time>
      </trkpt>
      <trkpt lat="46.13829" lon="4.50901">
        <ele>772.4</ele>
        <time>2025-09-06T12:39:32Z</time>
      </trkpt>
      <trkpt lat="46.1383" lon="4.509">
        <ele>772.4</ele>
        <time>2025-09-06T12:39:33Z</time>
      </trkpt>
      <trkpt lat="46.13831" lon="4.509">
        <ele>772.4</ele>
        <time>2025-09-06T12:39:34Z</time>
      </trkpt>
      <trkpt lat="46.13831" lon="4.50899">
        <ele>772.4</ele>
        <time>2025-09-06T12:39:35Z</time>
      </trkpt>
      <trkpt lat="46.13832" lon="4.50899">
        <ele>772.4</ele>
        <time>2025-09-06T12:39:36Z</time>
      </trkpt>
      <trkpt lat="46.13833" lon="4.50899">
        <ele>772.6</ele>
        <time>2025-09-06T12:39:37Z</time>
      </trkpt>
      <trkpt lat="46.13834" lon="4.50899">
        <ele>772.6</ele>
        <time>2025-09-06T12:39:38Z</time>
      </trkpt>
      <trkpt lat="46.13835" lon="4.50899">
        <ele>772</ele>
        <time>2025-09-06T12:39:39Z</time>
      </trkpt>
      <trkpt lat="46.13835" lon="4.50899">
        <ele>772</ele>
        <time>2025-09-06T12:39:40Z</time>
      </trkpt>
      <trkpt lat="46.13836" lon="4.50899">
        <ele>771.6</ele>
        <time>2025-09-06T12:39:41Z</time>
      </trkpt>
      <trkpt lat="46.13836" lon="4.50899">
        <ele>771.4</ele>
        <time>2025-09-06T12:39:42Z</time>
      </trkpt>
      <trkpt lat="46.13836" lon="4.50898">
        <ele>771.4</ele>
        <time>2025-09-06T12:39:43Z</time>
      </trkpt>
      <trkpt lat="46.13837" lon="4.50897">
        <ele>770.8</ele>
        <time>2025-09-06T12:39:47Z</time>
      </trkpt>
      <trkpt lat="46.13838" lon="4.50897">
        <ele>770.4</ele>
        <time>2025-09-06T12:39:48Z</time>
      </trkpt>
      <trkpt lat="46.13839" lon="4.50896">
        <ele>770.4</ele>
        <time>2025-09-06T12:39:49Z</time>
      </trkpt>
      <trkpt lat="46.1384" lon="4.50895">
        <ele>770.2</ele>
        <time>2025-09-06T12:39:50Z</time>
      </trkpt>
      <trkpt lat="46.13841" lon="4.50895">
        <ele>770.2</ele>
        <time>2025-09-06T12:39:51Z</time>
      </trkpt>
      <trkpt lat="46.13843" lon="4.50894">
        <ele>769.8</ele>
        <time>2025-09-06T12:39:52Z</time>
      </trkpt>
      <trkpt lat="46.13844" lon="4.50894">
        <ele>770.2</ele>
        <time>2025-09-06T12:39:53Z</time>
      </trkpt>
      <trkpt lat="46.13845" lon="4.50894">
        <ele>769.8</ele>
        <time>2025-09-06T12:39:54Z</time>
      </trkpt>
      <trkpt lat="46.13846" lon="4.50893">
        <ele>769.6</ele>
        <time>2025-09-06T12:39:55Z</time>
      </trkpt>
      <trkpt lat="46.13847" lon="4.50893">
        <ele>769.6</ele>
        <time>2025-09-06T12:39:56Z</time>
      </trkpt>
      <trkpt lat="46.13847" lon="4.50892">
        <ele>769.6</ele>
        <time>2025-09-06T12:39:57Z</time>
      </trkpt>
      <trkpt lat="46.13848" lon="4.50891">
        <ele>769.6</ele>
        <time>2025-09-06T12:39:58Z</time>
      </trkpt>
      <trkpt lat="46.13848" lon="4.5089">
        <ele>769.4</ele>
        <time>2025-09-06T12:39:59Z</time>
      </trkpt>
      <trkpt lat="46.13849" lon="4.5089">
        <ele>769.2</ele>
        <time>2025-09-06T12:40:00Z</time>
      </trkpt>
      <trkpt lat="46.1385" lon="4.50889">
        <ele>768.8</ele>
        <time>2025-09-06T12:40:01Z</time>
      </trkpt>
      <trkpt lat="46.13851" lon="4.50888">
        <ele>768.8</ele>
        <time>2025-09-06T12:40:02Z</time>
      </trkpt>
      <trkpt lat="46.13851" lon="4.50888">
        <ele>768.4</ele>
        <time>2025-09-06T12:40:03Z</time>
      </trkpt>
      <trkpt lat="46.13852" lon="4.50888">
        <ele>768.4</ele>
        <time>2025-09-06T12:40:04Z</time>
      </trkpt>
      <trkpt lat="46.13853" lon="4.50887">
        <ele>768.2</ele>
        <time>2025-09-06T12:40:05Z</time>
      </trkpt>
      <trkpt lat="46.13853" lon="4.50887">
        <ele>768.2</ele>
        <time>2025-09-06T12:40:06Z</time>
      </trkpt>
      <trkpt lat="46.13854" lon="4.50887">
        <ele>768.2</ele>
        <time>2025-09-06T12:40:07Z</time>
      </trkpt>
      <trkpt lat="46.13855" lon="4.50886">
        <ele>768.2</ele>
        <time>2025-09-06T12:40:08Z</time>
      </trkpt>
      <trkpt lat="46.13855" lon="4.50886">
        <ele>768.2</ele>
        <time>2025-09-06T12:40:09Z</time>
      </trkpt>
      <trkpt lat="46.13856" lon="4.50885">
        <ele>767.6</ele>
        <time>2025-09-06T12:40:10Z</time>
      </trkpt>
      <trkpt lat="46.13857" lon="4.50885">
        <ele>767.2</ele>
        <time>2025-09-06T12:40:11Z</time>
      </trkpt>
      <trkpt lat="46.13858" lon="4.50884">
        <ele>766.8</ele>
        <time>2025-09-06T12:40:12Z</time>
      </trkpt>
      <trkpt lat="46.13859" lon="4.50884">
        <ele>766.4</ele>
        <time>2025-09-06T12:40:13Z</time>
      </trkpt>
      <trkpt lat="46.1386" lon="4.50884">
        <ele>766.6</ele>
        <time>2025-09-06T12:40:14Z</time>
      </trkpt>
      <trkpt lat="46.1386" lon="4.50883">
        <ele>766.6</ele>
        <time>2025-09-06T12:40:15Z</time>
      </trkpt>
      <trkpt lat="46.13861" lon="4.50883">
        <ele>766</ele>
        <time>2025-09-06T12:40:16Z</time>
      </trkpt>
      <trkpt lat="46.13862" lon="4.50883">
        <ele>766</ele>
        <time>2025-09-06T12:40:17Z</time>
      </trkpt>
      <trkpt lat="46.13863" lon="4.50882">
        <ele>766</ele>
        <time>2025-09-06T12:40:18Z</time>
      </trkpt>
      <trkpt lat="46.13864" lon="4.50882">
        <ele>766</ele>
        <time>2025-09-06T12:40:19Z</time>
      </trkpt>
      <trkpt lat="46.13865" lon="4.50881">
        <ele>766</ele>
        <time>2025-09-06T12:40:20Z</time>
      </trkpt>
      <trkpt lat="46.13866" lon="4.50881">
        <ele>766</ele>
        <time>2025-09-06T12:40:21Z</time>
      </trkpt>
      <trkpt lat="46.13868" lon="4.5088">
        <ele>766</ele>
        <time>2025-09-06T12:40:22Z</time>
      </trkpt>
      <trkpt lat="46.13869" lon="4.5088">
        <ele>765.8</ele>
        <time>2025-09-06T12:40:23Z</time>
      </trkpt>
      <trkpt lat="46.13869" lon="4.50879">
        <ele>765.2</ele>
        <time>2025-09-06T12:40:24Z</time>
      </trkpt>
      <trkpt lat="46.1387" lon="4.50877">
        <ele>765.2</ele>
        <time>2025-09-06T12:40:25Z</time>
      </trkpt>
      <trkpt lat="46.13871" lon="4.50877">
        <ele>764.8</ele>
        <time>2025-09-06T12:40:26Z</time>
      </trkpt>
      <trkpt lat="46.13872" lon="4.50876">
        <ele>764.8</ele>
        <time>2025-09-06T12:40:27Z</time>
      </trkpt>
      <trkpt lat="46.13872" lon="4.50876">
        <ele>764.4</ele>
        <time>2025-09-06T12:40:28Z</time>
      </trkpt>
      <trkpt lat="46.13873" lon="4.50875">
        <ele>764.4</ele>
        <time>2025-09-06T12:40:29Z</time>
      </trkpt>
      <trkpt lat="46.13873" lon="4.50874">
        <ele>764.2</ele>
        <time>2025-09-06T12:40:30Z</time>
      </trkpt>
      <trkpt lat="46.13874" lon="4.50873">
        <ele>764.2</ele>
        <time>2025-09-06T12:40:31Z</time>
      </trkpt>
      <trkpt lat="46.13876" lon="4.50873">
        <ele>764.2</ele>
        <time>2025-09-06T12:40:32Z</time>
      </trkpt>
      <trkpt lat="46.13877" lon="4.50873">
        <ele>764</ele>
        <time>2025-09-06T12:40:33Z</time>
      </trkpt>
      <trkpt lat="46.13878" lon="4.50873">
        <ele>763.2</ele>
        <time>2025-09-06T12:40:34Z</time>
      </trkpt>
      <trkpt lat="46.13878" lon="4.50872">
        <ele>763.2</ele>
        <time>2025-09-06T12:40:35Z</time>
      </trkpt>
      <trkpt lat="46.13879" lon="4.50871">
        <ele>763.4</ele>
        <time>2025-09-06T12:40:36Z</time>
      </trkpt>
      <trkpt lat="46.1388" lon="4.5087">
        <ele>763</ele>
        <time>2025-09-06T12:40:37Z</time>
      </trkpt>
      <trkpt lat="46.13881" lon="4.50869">
        <ele>762.4</ele>
        <time>2025-09-06T12:40:38Z</time>
      </trkpt>
      <trkpt lat="46.13883" lon="4.50868">
        <ele>762.2</ele>
        <time>2025-09-06T12:40:39Z</time>
      </trkpt>
      <trkpt lat="46.13885" lon="4.50868">
        <ele>762</ele>
        <time>2025-09-06T12:40:40Z</time>
      </trkpt>
      <trkpt lat="46.13887" lon="4.50868">
        <ele>762</ele>
        <time>2025-09-06T12:40:41Z</time>
      </trkpt>
      <trkpt lat="46.13888" lon="4.50868">
        <ele>762</ele>
        <time>2025-09-06T12:40:42Z</time>
      </trkpt>
      <trkpt lat="46.13888" lon="4.50867">
        <ele>761.6</ele>
        <time>2025-09-06T12:40:43Z</time>
      </trkpt>
      <trkpt lat="46.13889" lon="4.50866">
        <ele>761.6</ele>
        <time>2025-09-06T12:40:44Z</time>
      </trkpt>
      <trkpt lat="46.1389" lon="4.50865">
        <ele>761.4</ele>
        <time>2025-09-06T12:40:45Z</time>
      </trkpt>
      <trkpt lat="46.13892" lon="4.50864">
        <ele>761.4</ele>
        <time>2025-09-06T12:40:46Z</time>
      </trkpt>
      <trkpt lat="46.13893" lon="4.50864">
        <ele>761.6</ele>
        <time>2025-09-06T12:40:47Z</time>
      </trkpt>
      <trkpt lat="46.13893" lon="4.50863">
        <ele>762</ele>
        <time>2025-09-06T12:40:48Z</time>
      </trkpt>
      <trkpt lat="46.13894" lon="4.50862">
        <ele>762</ele>
        <time>2025-09-06T12:40:49Z</time>
      </trkpt>
      <trkpt lat="46.13895" lon="4.50861">
        <ele>762</ele>
        <time>2025-09-06T12:40:50Z</time>
      </trkpt>
      <trkpt lat="46.13895" lon="4.50859">
        <ele>761.8</ele>
        <time>2025-09-06T12:40:51Z</time>
      </trkpt>
      <trkpt lat="46.13896" lon="4.50858">
        <ele>761.8</ele>
        <time>2025-09-06T12:40:52Z</time>
      </trkpt>
      <trkpt lat="46.13897" lon="4.50857">
        <ele>761.6</ele>
        <time>2025-09-06T12:40:53Z</time>
      </trkpt>
      <trkpt lat="46.13897" lon="4.50857">
        <ele>761.2</ele>
        <time>2025-09-06T12:40:54Z</time>
      </trkpt>
      <trkpt lat="46.13898" lon="4.50857">
        <ele>761.2</ele>
        <time>2025-09-06T12:40:55Z</time>
      </trkpt>
      <trkpt lat="46.13898" lon="4.50857">
        <ele>760.8</ele>
        <time>2025-09-06T12:40:56Z</time>
      </trkpt>
      <trkpt lat="46.13897" lon="4.50858">
        <ele>760.8</ele>
        <time>2025-09-06T12:40:57Z</time>
      </trkpt>
      <trkpt lat="46.13898" lon="4.50857">
        <ele>760.8</ele>
        <time>2025-09-06T12:40:58Z</time>
      </trkpt>
      <trkpt lat="46.13899" lon="4.50857">
        <ele>760.8</ele>
        <time>2025-09-06T12:40:59Z</time>
      </trkpt>
      <trkpt lat="46.139" lon="4.50856">
        <ele>760.6</ele>
        <time>2025-09-06T12:41:00Z</time>
      </trkpt>
      <trkpt lat="46.13901" lon="4.50856">
        <ele>760.6</ele>
        <time>2025-09-06T12:41:01Z</time>
      </trkpt>
      <trkpt lat="46.139" lon="4.50856">
        <ele>760.6</ele>
        <time>2025-09-06T12:41:02Z</time>
      </trkpt>
      <trkpt lat="46.139" lon="4.50856">
        <ele>760.6</ele>
        <time>2025-09-06T12:41:03Z</time>
      </trkpt>
      <trkpt lat="46.13903" lon="4.50854">
        <ele>760.4</ele>
        <time>2025-09-06T12:41:19Z</time>
      </trkpt>
      <trkpt lat="46.13904" lon="4.50853">
        <ele>760.4</ele>
        <time>2025-09-06T12:41:20Z</time>
      </trkpt>
      <trkpt lat="46.13906" lon="4.50851">
        <ele>760.6</ele>
        <time>2025-09-06T12:41:21Z</time>
      </trkpt>
      <trkpt lat="46.13908" lon="4.50849">
        <ele>760.4</ele>
        <time>2025-09-06T12:41:22Z</time>
      </trkpt>
      <trkpt lat="46.13911" lon="4.50847">
        <ele>760</ele>
        <time>2025-09-06T12:41:23Z</time>
      </trkpt>
      <trkpt lat="46.13913" lon="4.50846">
        <ele>760</ele>
        <time>2025-09-06T12:41:24Z</time>
      </trkpt>
      <trkpt lat="46.13916" lon="4.50844">
        <ele>759.6</ele>
        <time>2025-09-06T12:41:25Z</time>
      </trkpt>
      <trkpt lat="46.13918" lon="4.50842">
        <ele>759.2</ele>
        <time>2025-09-06T12:41:26Z</time>
      </trkpt>
      <trkpt lat="46.1392" lon="4.5084">
        <ele>759</ele>
        <time>2025-09-06T12:41:27Z</time>
      </trkpt>
      <trkpt lat="46.13921" lon="4.50838">
        <ele>758.6</ele>
        <time>2025-09-06T12:41:28Z</time>
      </trkpt>
      <trkpt lat="46.13922" lon="4.50836">
        <ele>758.6</ele>
        <time>2025-09-06T12:41:29Z</time>
      </trkpt>
      <trkpt lat="46.13923" lon="4.50835">
        <ele>758.4</ele>
        <time>2025-09-06T12:41:30Z</time>
      </trkpt>
      <trkpt lat="46.13924" lon="4.50833">
        <ele>758</ele>
        <time>2025-09-06T12:41:31Z</time>
      </trkpt>
      <trkpt lat="46.13926" lon="4.50831">
        <ele>757.6</ele>
        <time>2025-09-06T12:41:32Z</time>
      </trkpt>
      <trkpt lat="46.13928" lon="4.50828">
        <ele>757.6</ele>
        <time>2025-09-06T12:41:33Z</time>
      </trkpt>
      <trkpt lat="46.13931" lon="4.50824">
        <ele>757.2</ele>
        <time>2025-09-06T12:41:34Z</time>
      </trkpt>
      <trkpt lat="46.13934" lon="4.5082">
        <ele>757.2</ele>
        <time>2025-09-06T12:41:35Z</time>
      </trkpt>
      <trkpt lat="46.13938" lon="4.50817">
        <ele>757.2</ele>
        <time>2025-09-06T12:41:36Z</time>
      </trkpt>
      <trkpt lat="46.13941" lon="4.50814">
        <ele>756.2</ele>
        <time>2025-09-06T12:41:37Z</time>
      </trkpt>
      <trkpt lat="46.13943" lon="4.50812">
        <ele>756</ele>
        <time>2025-09-06T12:41:38Z</time>
      </trkpt>
      <trkpt lat="46.13946" lon="4.5081">
        <ele>756</ele>
        <time>2025-09-06T12:41:39Z</time>
      </trkpt>
      <trkpt lat="46.1395" lon="4.50807">
        <ele>756.6</ele>
        <time>2025-09-06T12:41:40Z</time>
      </trkpt>
      <trkpt lat="46.13953" lon="4.50805">
        <ele>756.2</ele>
        <time>2025-09-06T12:41:41Z</time>
      </trkpt>
      <trkpt lat="46.13957" lon="4.50802">
        <ele>756.4</ele>
        <time>2025-09-06T12:41:42Z</time>
      </trkpt>
      <trkpt lat="46.1396" lon="4.508">
        <ele>755.8</ele>
        <time>2025-09-06T12:41:43Z</time>
      </trkpt>
      <trkpt lat="46.13968" lon="4.50798">
        <ele>755.8</ele>
        <time>2025-09-06T12:41:44Z</time>
      </trkpt>
      <trkpt lat="46.13971" lon="4.50795">
        <ele>755.2</ele>
        <time>2025-09-06T12:41:45Z</time>
      </trkpt>
      <trkpt lat="46.13973" lon="4.50791">
        <ele>754.8</ele>
        <time>2025-09-06T12:41:46Z</time>
      </trkpt>
      <trkpt lat="46.13977" lon="4.50788">
        <ele>754.6</ele>
        <time>2025-09-06T12:41:47Z</time>
      </trkpt>
      <trkpt lat="46.1398" lon="4.50785">
        <ele>754.6</ele>
        <time>2025-09-06T12:41:48Z</time>
      </trkpt>
      <trkpt lat="46.13984" lon="4.50782">
        <ele>754.2</ele>
        <time>2025-09-06T12:41:49Z</time>
      </trkpt>
      <trkpt lat="46.13986" lon="4.5078">
        <ele>753.8</ele>
        <time>2025-09-06T12:41:50Z</time>
      </trkpt>
      <trkpt lat="46.13987" lon="4.50781">
        <ele>753.8</ele>
        <time>2025-09-06T12:41:51Z</time>
      </trkpt>
      <trkpt lat="46.13987" lon="4.50779">
        <ele>753.8</ele>
        <time>2025-09-06T12:41:52Z</time>
      </trkpt>
      <trkpt lat="46.13987" lon="4.50779">
        <ele>753.8</ele>
        <time>2025-09-06T12:41:53Z</time>
      </trkpt>
      <trkpt lat="46.13986" lon="4.50779">
        <ele>753.8</ele>
        <time>2025-09-06T12:41:54Z</time>
      </trkpt>
      <trkpt lat="46.13989" lon="4.50775">
        <ele>753.8</ele>
        <time>2025-09-06T12:42:06Z</time>
      </trkpt>
      <trkpt lat="46.13991" lon="4.50774">
        <ele>754</ele>
        <time>2025-09-06T12:42:07Z</time>
      </trkpt>
      <trkpt lat="46.13993" lon="4.50771">
        <ele>754</ele>
        <time>2025-09-06T12:42:08Z</time>
      </trkpt>
      <trkpt lat="46.13995" lon="4.50769">
        <ele>754</ele>
        <time>2025-09-06T12:42:09Z</time>
      </trkpt>
      <trkpt lat="46.13996" lon="4.50767">
        <ele>754</ele>
        <time>2025-09-06T12:42:10Z</time>
      </trkpt>
      <trkpt lat="46.13999" lon="4.50765">
        <ele>754</ele>
        <time>2025-09-06T12:42:11Z</time>
      </trkpt>
      <trkpt lat="46.14002" lon="4.50763">
        <ele>754</ele>
        <time>2025-09-06T12:42:12Z</time>
      </trkpt>
      <trkpt lat="46.14005" lon="4.50761">
        <ele>753.8</ele>
        <time>2025-09-06T12:42:13Z</time>
      </trkpt>
      <trkpt lat="46.14008" lon="4.5076">
        <ele>753.8</ele>
        <time>2025-09-06T12:42:14Z</time>
      </trkpt>
      <trkpt lat="46.1401" lon="4.50759">
        <ele>753.8</ele>
        <time>2025-09-06T12:42:15Z</time>
      </trkpt>
      <trkpt lat="46.14012" lon="4.50759">
        <ele>753.8</ele>
        <time>2025-09-06T12:42:16Z</time>
      </trkpt>
      <trkpt lat="46.14014" lon="4.50759">
        <ele>753.8</ele>
        <time>2025-09-06T12:42:17Z</time>
      </trkpt>
      <trkpt lat="46.14016" lon="4.50759">
        <ele>753.8</ele>
        <time>2025-09-06T12:42:18Z</time>
      </trkpt>
      <trkpt lat="46.14019" lon="4.5076">
        <ele>754.2</ele>
        <time>2025-09-06T12:42:19Z</time>
      </trkpt>
      <trkpt lat="46.14022" lon="4.50761">
        <ele>754.2</ele>
        <time>2025-09-06T12:42:20Z</time>
      </trkpt>
      <trkpt lat="46.14025" lon="4.50761">
        <ele>753.8</ele>
        <time>2025-09-06T12:42:21Z</time>
      </trkpt>
      <trkpt lat="46.14027" lon="4.50759">
        <ele>753.6</ele>
        <time>2025-09-06T12:42:22Z</time>
      </trkpt>
      <trkpt lat="46.14029" lon="4.50758">
        <ele>753.2</ele>
        <time>2025-09-06T12:42:23Z</time>
      </trkpt>
      <trkpt lat="46.14031" lon="4.50758">
        <ele>753.6</ele>
        <time>2025-09-06T12:42:24Z</time>
      </trkpt>
      <trkpt lat="46.14034" lon="4.50758">
        <ele>753.6</ele>
        <time>2025-09-06T12:42:25Z</time>
      </trkpt>
      <trkpt lat="46.14036" lon="4.50758">
        <ele>753.6</ele>
        <time>2025-09-06T12:42:26Z</time>
      </trkpt>
      <trkpt lat="46.14038" lon="4.50758">
        <ele>753.2</ele>
        <time>2025-09-06T12:42:27Z</time>
      </trkpt>
      <trkpt lat="46.14041" lon="4.50756">
        <ele>753.2</ele>
        <time>2025-09-06T12:42:28Z</time>
      </trkpt>
      <trkpt lat="46.14044" lon="4.50755">
        <ele>753.6</ele>
        <time>2025-09-06T12:42:29Z</time>
      </trkpt>
      <trkpt lat="46.14046" lon="4.50754">
        <ele>753.6</ele>
        <time>2025-09-06T12:42:30Z</time>
      </trkpt>
      <trkpt lat="46.14049" lon="4.50753">
        <ele>753.6</ele>
        <time>2025-09-06T12:42:31Z</time>
      </trkpt>
      <trkpt lat="46.14052" lon="4.50753">
        <ele>753.4</ele>
        <time>2025-09-06T12:42:32Z</time>
      </trkpt>
      <trkpt lat="46.14054" lon="4.50752">
        <ele>753.4</ele>
        <time>2025-09-06T12:42:33Z</time>
      </trkpt>
      <trkpt lat="46.14057" lon="4.50751">
        <ele>753.6</ele>
        <time>2025-09-06T12:42:34Z</time>
      </trkpt>
      <trkpt lat="46.14059" lon="4.5075">
        <ele>753.6</ele>
        <time>2025-09-06T12:42:35Z</time>
      </trkpt>
      <trkpt lat="46.14062" lon="4.5075">
        <ele>753.6</ele>
        <time>2025-09-06T12:42:36Z</time>
      </trkpt>
      <trkpt lat="46.14065" lon="4.50748">
        <ele>753.6</ele>
        <time>2025-09-06T12:42:37Z</time>
      </trkpt>
      <trkpt lat="46.14068" lon="4.50746">
        <ele>753.4</ele>
        <time>2025-09-06T12:42:38Z</time>
      </trkpt>
      <trkpt lat="46.1407" lon="4.50746">
        <ele>752.8</ele>
        <time>2025-09-06T12:42:39Z</time>
      </trkpt>
      <trkpt lat="46.14071" lon="4.50746">
        <ele>752.8</ele>
        <time>2025-09-06T12:42:40Z</time>
      </trkpt>
      <trkpt lat="46.14072" lon="4.50746">
        <ele>754.2</ele>
        <time>2025-09-06T12:42:41Z</time>
      </trkpt>
      <trkpt lat="46.14073" lon="4.50745">
        <ele>754.2</ele>
        <time>2025-09-06T12:42:42Z</time>
      </trkpt>
      <trkpt lat="46.14075" lon="4.50744">
        <ele>754.6</ele>
        <time>2025-09-06T12:42:43Z</time>
      </trkpt>
      <trkpt lat="46.14077" lon="4.50743">
        <ele>754.4</ele>
        <time>2025-09-06T12:42:44Z</time>
      </trkpt>
      <trkpt lat="46.14078" lon="4.50742">
        <ele>754.4</ele>
        <time>2025-09-06T12:42:45Z</time>
      </trkpt>
      <trkpt lat="46.14079" lon="4.5074">
        <ele>754</ele>
        <time>2025-09-06T12:42:46Z</time>
      </trkpt>
      <trkpt lat="46.1408" lon="4.50738">
        <ele>754</ele>
        <time>2025-09-06T12:42:47Z</time>
      </trkpt>
      <trkpt lat="46.14082" lon="4.50735">
        <ele>754</ele>
        <time>2025-09-06T12:42:48Z</time>
      </trkpt>
      <trkpt lat="46.14085" lon="4.50733">
        <ele>754.4</ele>
        <time>2025-09-06T12:42:49Z</time>
      </trkpt>
      <trkpt lat="46.14087" lon="4.5073">
        <ele>754.4</ele>
        <time>2025-09-06T12:42:50Z</time>
      </trkpt>
      <trkpt lat="46.1409" lon="4.50727">
        <ele>754.4</ele>
        <time>2025-09-06T12:42:51Z</time>
      </trkpt>
      <trkpt lat="46.14093" lon="4.50724">
        <ele>754.4</ele>
        <time>2025-09-06T12:42:52Z</time>
      </trkpt>
      <trkpt lat="46.14095" lon="4.50721">
        <ele>754.4</ele>
        <time>2025-09-06T12:42:53Z</time>
      </trkpt>
      <trkpt lat="46.14096" lon="4.50718">
        <ele>754</ele>
        <time>2025-09-06T12:42:54Z</time>
      </trkpt>
      <trkpt lat="46.14099" lon="4.50714">
        <ele>754</ele>
        <time>2025-09-06T12:42:55Z</time>
      </trkpt>
      <trkpt lat="46.14102" lon="4.5071">
        <ele>754</ele>
        <time>2025-09-06T12:42:56Z</time>
      </trkpt>
      <trkpt lat="46.14105" lon="4.50707">
        <ele>754</ele>
        <time>2025-09-06T12:42:57Z</time>
      </trkpt>
      <trkpt lat="46.14107" lon="4.50705">
        <ele>754</ele>
        <time>2025-09-06T12:42:58Z</time>
      </trkpt>
      <trkpt lat="46.1411" lon="4.50702">
        <ele>754</ele>
        <time>2025-09-06T12:42:59Z</time>
      </trkpt>
      <trkpt lat="46.1411" lon="4.50702">
        <ele>754</ele>
        <time>2025-09-06T12:43:00Z</time>
      </trkpt>
      <trkpt lat="46.14113" lon="4.50699">
        <ele>754</ele>
        <time>2025-09-06T12:43:01Z</time>
      </trkpt>
      <trkpt lat="46.14115" lon="4.50697">
        <ele>753.8</ele>
        <time>2025-09-06T12:43:02Z</time>
      </trkpt>
      <trkpt lat="46.1412" lon="4.50693">
        <ele>753.8</ele>
        <time>2025-09-06T12:43:03Z</time>
      </trkpt>
      <trkpt lat="46.14124" lon="4.5069">
        <ele>754.2</ele>
        <time>2025-09-06T12:43:04Z</time>
      </trkpt>
      <trkpt lat="46.14127" lon="4.50688">
        <ele>753.6</ele>
        <time>2025-09-06T12:43:05Z</time>
      </trkpt>
      <trkpt lat="46.1413" lon="4.50685">
        <ele>753.6</ele>
        <time>2025-09-06T12:43:06Z</time>
      </trkpt>
      <trkpt lat="46.14135" lon="4.50683">
        <ele>753.4</ele>
        <time>2025-09-06T12:43:07Z</time>
      </trkpt>
      <trkpt lat="46.14139" lon="4.50678">
        <ele>752.6</ele>
        <time>2025-09-06T12:43:08Z</time>
      </trkpt>
      <trkpt lat="46.14144" lon="4.50677">
        <ele>752.2</ele>
        <time>2025-09-06T12:43:09Z</time>
      </trkpt>
      <trkpt lat="46.14148" lon="4.50675">
        <ele>752.2</ele>
        <time>2025-09-06T12:43:10Z</time>
      </trkpt>
      <trkpt lat="46.14153" lon="4.50673">
        <ele>752.2</ele>
        <time>2025-09-06T12:43:11Z</time>
      </trkpt>
      <trkpt lat="46.14156" lon="4.50673">
        <ele>752.2</ele>
        <time>2025-09-06T12:43:12Z</time>
      </trkpt>
      <trkpt lat="46.1416" lon="4.50673">
        <ele>751.8</ele>
        <time>2025-09-06T12:43:13Z</time>
      </trkpt>
      <trkpt lat="46.14165" lon="4.50673">
        <ele>751.8</ele>
        <time>2025-09-06T12:43:14Z</time>
      </trkpt>
      <trkpt lat="46.14168" lon="4.50673">
        <ele>752.2</ele>
        <time>2025-09-06T12:43:15Z</time>
      </trkpt>
      <trkpt lat="46.14171" lon="4.50673">
        <ele>752.4</ele>
        <time>2025-09-06T12:43:16Z</time>
      </trkpt>
      <trkpt lat="46.14174" lon="4.50673">
        <ele>751.8</ele>
        <time>2025-09-06T12:43:17Z</time>
      </trkpt>
      <trkpt lat="46.14177" lon="4.50673">
        <ele>751.8</ele>
        <time>2025-09-06T12:43:18Z</time>
      </trkpt>
      <trkpt lat="46.14181" lon="4.50672">
        <ele>751.8</ele>
        <time>2025-09-06T12:43:19Z</time>
      </trkpt>
      <trkpt lat="46.14184" lon="4.50673">
        <ele>751.4</ele>
        <time>2025-09-06T12:43:20Z</time>
      </trkpt>
      <trkpt lat="46.14188" lon="4.50674">
        <ele>751.4</ele>
        <time>2025-09-06T12:43:21Z</time>
      </trkpt>
      <trkpt lat="46.14192" lon="4.50674">
        <ele>751.4</ele>
        <time>2025-09-06T12:43:22Z</time>
      </trkpt>
      <trkpt lat="46.14195" lon="4.50674">
        <ele>751.4</ele>
        <time>2025-09-06T12:43:23Z</time>
      </trkpt>
      <trkpt lat="46.14197" lon="4.50673">
        <ele>751.4</ele>
        <time>2025-09-06T12:43:24Z</time>
      </trkpt>
      <trkpt lat="46.142" lon="4.50674">
        <ele>751.8</ele>
        <time>2025-09-06T12:43:25Z</time>
      </trkpt>
      <trkpt lat="46.14202" lon="4.50674">
        <ele>751.8</ele>
        <time>2025-09-06T12:43:26Z</time>
      </trkpt>
      <trkpt lat="46.14203" lon="4.50674">
        <ele>751.8</ele>
        <time>2025-09-06T12:43:27Z</time>
      </trkpt>
      <trkpt lat="46.14203" lon="4.50674">
        <ele>751.4</ele>
        <time>2025-09-06T12:43:28Z</time>
      </trkpt>
      <trkpt lat="46.14204" lon="4.50674">
        <ele>751.6</ele>
        <time>2025-09-06T12:43:29Z</time>
      </trkpt>
      <trkpt lat="46.14206" lon="4.50674">
        <ele>751.6</ele>
        <time>2025-09-06T12:43:30Z</time>
      </trkpt>
      <trkpt lat="46.14209" lon="4.50672">
        <ele>751.6</ele>
        <time>2025-09-06T12:43:31Z</time>
      </trkpt>
      <trkpt lat="46.1421" lon="4.50672">
        <ele>751.6</ele>
        <time>2025-09-06T12:43:32Z</time>
      </trkpt>
      <trkpt lat="46.14212" lon="4.50671">
        <ele>751.6</ele>
        <time>2025-09-06T12:43:33Z</time>
      </trkpt>
      <trkpt lat="46.14214" lon="4.50671">
        <ele>751.6</ele>
        <time>2025-09-06T12:43:34Z</time>
      </trkpt>
      <trkpt lat="46.14216" lon="4.50672">
        <ele>751.6</ele>
        <time>2025-09-06T12:43:35Z</time>
      </trkpt>
      <trkpt lat="46.14217" lon="4.50672">
        <ele>751.6</ele>
        <time>2025-09-06T12:43:36Z</time>
      </trkpt>
      <trkpt lat="46.14218" lon="4.50673">
        <ele>751.6</ele>
        <time>2025-09-06T12:43:37Z</time>
      </trkpt>
      <trkpt lat="46.1422" lon="4.50673">
        <ele>751.6</ele>
        <time>2025-09-06T12:43:38Z</time>
      </trkpt>
      <trkpt lat="46.14222" lon="4.50673">
        <ele>751.4</ele>
        <time>2025-09-06T12:43:39Z</time>
      </trkpt>
      <trkpt lat="46.14223" lon="4.50675">
        <ele>752.6</ele>
        <time>2025-09-06T12:43:40Z</time>
      </trkpt>
      <trkpt lat="46.14224" lon="4.50678">
        <ele>752.6</ele>
        <time>2025-09-06T12:43:41Z</time>
      </trkpt>
      <trkpt lat="46.14225" lon="4.5068">
        <ele>752.6</ele>
        <time>2025-09-06T12:43:42Z</time>
      </trkpt>
      <trkpt lat="46.14227" lon="4.50682">
        <ele>752.6</ele>
        <time>2025-09-06T12:43:43Z</time>
      </trkpt>
      <trkpt lat="46.14229" lon="4.50683">
        <ele>752.2</ele>
        <time>2025-09-06T12:43:44Z</time>
      </trkpt>
      <trkpt lat="46.14231" lon="4.50683">
        <ele>752.2</ele>
        <time>2025-09-06T12:43:45Z</time>
      </trkpt>
      <trkpt lat="46.14234" lon="4.50684">
        <ele>752.2</ele>
        <time>2025-09-06T12:43:46Z</time>
      </trkpt>
      <trkpt lat="46.14237" lon="4.50684">
        <ele>752.2</ele>
        <time>2025-09-06T12:43:47Z</time>
      </trkpt>
      <trkpt lat="46.1424" lon="4.50685">
        <ele>752</ele>
        <time>2025-09-06T12:43:48Z</time>
      </trkpt>
      <trkpt lat="46.14242" lon="4.50686">
        <ele>752</ele>
        <time>2025-09-06T12:43:49Z</time>
      </trkpt>
      <trkpt lat="46.14245" lon="4.50687">
        <ele>752</ele>
        <time>2025-09-06T12:43:50Z</time>
      </trkpt>
      <trkpt lat="46.14248" lon="4.50687">
        <ele>752.2</ele>
        <time>2025-09-06T12:43:51Z</time>
      </trkpt>
      <trkpt lat="46.14251" lon="4.50688">
        <ele>752.2</ele>
        <time>2025-09-06T12:43:52Z</time>
      </trkpt>
      <trkpt lat="46.14253" lon="4.50689">
        <ele>752.2</ele>
        <time>2025-09-06T12:43:53Z</time>
      </trkpt>
      <trkpt lat="46.14256" lon="4.5069">
        <ele>752.6</ele>
        <time>2025-09-06T12:43:54Z</time>
      </trkpt>
      <trkpt lat="46.14258" lon="4.50691">
        <ele>753</ele>
        <time>2025-09-06T12:43:55Z</time>
      </trkpt>
      <trkpt lat="46.14261" lon="4.50692">
        <ele>753</ele>
        <time>2025-09-06T12:43:56Z</time>
      </trkpt>
      <trkpt lat="46.14263" lon="4.50693">
        <ele>753</ele>
        <time>2025-09-06T12:43:57Z</time>
      </trkpt>
      <trkpt lat="46.14265" lon="4.50694">
        <ele>752.8</ele>
        <time>2025-09-06T12:43:58Z</time>
      </trkpt>
      <trkpt lat="46.14267" lon="4.50695">
        <ele>752.8</ele>
        <time>2025-09-06T12:43:59Z</time>
      </trkpt>
      <trkpt lat="46.14269" lon="4.50695">
        <ele>752.8</ele>
        <time>2025-09-06T12:44:00Z</time>
      </trkpt>
      <trkpt lat="46.14271" lon="4.50696">
        <ele>752.8</ele>
        <time>2025-09-06T12:44:01Z</time>
      </trkpt>
      <trkpt lat="46.14272" lon="4.50696">
        <ele>753</ele>
        <time>2025-09-06T12:44:02Z</time>
      </trkpt>
      <trkpt lat="46.14275" lon="4.50697">
        <ele>753</ele>
        <time>2025-09-06T12:44:03Z</time>
      </trkpt>
      <trkpt lat="46.14277" lon="4.50697">
        <ele>753.4</ele>
        <time>2025-09-06T12:44:04Z</time>
      </trkpt>
      <trkpt lat="46.14278" lon="4.50696">
        <ele>753.4</ele>
        <time>2025-09-06T12:44:05Z</time>
      </trkpt>
      <trkpt lat="46.14279" lon="4.50696">
        <ele>753.4</ele>
        <time>2025-09-06T12:44:06Z</time>
      </trkpt>
      <trkpt lat="46.14281" lon="4.50697">
        <ele>753.6</ele>
        <time>2025-09-06T12:44:07Z</time>
      </trkpt>
      <trkpt lat="46.14282" lon="4.50698">
        <ele>753.6</ele>
        <time>2025-09-06T12:44:08Z</time>
      </trkpt>
      <trkpt lat="46.14284" lon="4.50699">
        <ele>754</ele>
        <time>2025-09-06T12:44:09Z</time>
      </trkpt>
      <trkpt lat="46.14286" lon="4.50699">
        <ele>754</ele>
        <time>2025-09-06T12:44:10Z</time>
      </trkpt>
      <trkpt lat="46.14288" lon="4.507">
        <ele>754</ele>
        <time>2025-09-06T12:44:11Z</time>
      </trkpt>
      <trkpt lat="46.14291" lon="4.507">
        <ele>754</ele>
        <time>2025-09-06T12:44:12Z</time>
      </trkpt>
      <trkpt lat="46.14293" lon="4.507">
        <ele>754</ele>
        <time>2025-09-06T12:44:13Z</time>
      </trkpt>
      <trkpt lat="46.14296" lon="4.50701">
        <ele>754</ele>
        <time>2025-09-06T12:44:14Z</time>
      </trkpt>
      <trkpt lat="46.14299" lon="4.50701">
        <ele>754</ele>
        <time>2025-09-06T12:44:15Z</time>
      </trkpt>
      <trkpt lat="46.14301" lon="4.507">
        <ele>754</ele>
        <time>2025-09-06T12:44:16Z</time>
      </trkpt>
      <trkpt lat="46.14304" lon="4.507">
        <ele>754</ele>
        <time>2025-09-06T12:44:17Z</time>
      </trkpt>
      <trkpt lat="46.14308" lon="4.507">
        <ele>754.2</ele>
        <time>2025-09-06T12:44:18Z</time>
      </trkpt>
      <trkpt lat="46.14311" lon="4.50699">
        <ele>754.2</ele>
        <time>2025-09-06T12:44:19Z</time>
      </trkpt>
      <trkpt lat="46.14313" lon="4.50699">
        <ele>754.2</ele>
        <time>2025-09-06T12:44:20Z</time>
      </trkpt>
      <trkpt lat="46.14315" lon="4.50698">
        <ele>754.2</ele>
        <time>2025-09-06T12:44:21Z</time>
      </trkpt>
      <trkpt lat="46.14317" lon="4.50698">
        <ele>754.4</ele>
        <time>2025-09-06T12:44:22Z</time>
      </trkpt>
      <trkpt lat="46.1432" lon="4.50697">
        <ele>754.4</ele>
        <time>2025-09-06T12:44:23Z</time>
      </trkpt>
      <trkpt lat="46.14322" lon="4.50698">
        <ele>754.2</ele>
        <time>2025-09-06T12:44:24Z</time>
      </trkpt>
      <trkpt lat="46.14325" lon="4.50698">
        <ele>754.4</ele>
        <time>2025-09-06T12:44:25Z</time>
      </trkpt>
      <trkpt lat="46.14326" lon="4.50698">
        <ele>754.4</ele>
        <time>2025-09-06T12:44:26Z</time>
      </trkpt>
      <trkpt lat="46.14328" lon="4.50697">
        <ele>754.8</ele>
        <time>2025-09-06T12:44:27Z</time>
      </trkpt>
      <trkpt lat="46.14328" lon="4.50697">
        <ele>754.8</ele>
        <time>2025-09-06T12:44:28Z</time>
      </trkpt>
      <trkpt lat="46.14328" lon="4.50697">
        <ele>754.8</ele>
        <time>2025-09-06T12:44:29Z</time>
      </trkpt>
      <trkpt lat="46.14328" lon="4.50696">
        <ele>754.8</ele>
        <time>2025-09-06T12:44:30Z</time>
      </trkpt>
      <trkpt lat="46.14331" lon="4.50703">
        <ele>754.6</ele>
        <time>2025-09-06T12:45:57Z</time>
      </trkpt>
      <trkpt lat="46.14332" lon="4.50703">
        <ele>755</ele>
        <time>2025-09-06T12:45:58Z</time>
      </trkpt>
      <trkpt lat="46.14335" lon="4.50702">
        <ele>755</ele>
        <time>2025-09-06T12:45:59Z</time>
      </trkpt>
      <trkpt lat="46.14338" lon="4.507">
        <ele>755</ele>
        <time>2025-09-06T12:46:00Z</time>
      </trkpt>
      <trkpt lat="46.14341" lon="4.50699">
        <ele>754.8</ele>
        <time>2025-09-06T12:46:01Z</time>
      </trkpt>
      <trkpt lat="46.14343" lon="4.50698">
        <ele>754.6</ele>
        <time>2025-09-06T12:46:02Z</time>
      </trkpt>
      <trkpt lat="46.14346" lon="4.50697">
        <ele>754.6</ele>
        <time>2025-09-06T12:46:03Z</time>
      </trkpt>
      <trkpt lat="46.1435" lon="4.50694">
        <ele>754.2</ele>
        <time>2025-09-06T12:46:04Z</time>
      </trkpt>
      <trkpt lat="46.14353" lon="4.50692">
        <ele>754.2</ele>
        <time>2025-09-06T12:46:05Z</time>
      </trkpt>
      <trkpt lat="46.14356" lon="4.50691">
        <ele>754</ele>
        <time>2025-09-06T12:46:06Z</time>
      </trkpt>
      <trkpt lat="46.14359" lon="4.5069">
        <ele>754</ele>
        <time>2025-09-06T12:46:07Z</time>
      </trkpt>
      <trkpt lat="46.14362" lon="4.50689">
        <ele>754</ele>
        <time>2025-09-06T12:46:08Z</time>
      </trkpt>
      <trkpt lat="46.14365" lon="4.5069">
        <ele>753.6</ele>
        <time>2025-09-06T12:46:09Z</time>
      </trkpt>
      <trkpt lat="46.14368" lon="4.50689">
        <ele>754</ele>
        <time>2025-09-06T12:46:10Z</time>
      </trkpt>
      <trkpt lat="46.1437" lon="4.50687">
        <ele>753.2</ele>
        <time>2025-09-06T12:46:11Z</time>
      </trkpt>
      <trkpt lat="46.14371" lon="4.50685">
        <ele>753.6</ele>
        <time>2025-09-06T12:46:12Z</time>
      </trkpt>
      <trkpt lat="46.14373" lon="4.50683">
        <ele>753.6</ele>
        <time>2025-09-06T12:46:13Z</time>
      </trkpt>
      <trkpt lat="46.14375" lon="4.50682">
        <ele>753.6</ele>
        <time>2025-09-06T12:46:14Z</time>
      </trkpt>
      <trkpt lat="46.14378" lon="4.50682">
        <ele>753.6</ele>
        <time>2025-09-06T12:46:15Z</time>
      </trkpt>
      <trkpt lat="46.1438" lon="4.50683">
        <ele>753.6</ele>
        <time>2025-09-06T12:46:16Z</time>
      </trkpt>
      <trkpt lat="46.14381" lon="4.50684">
        <ele>754</ele>
        <time>2025-09-06T12:46:17Z</time>
      </trkpt>
      <trkpt lat="46.14383" lon="4.50685">
        <ele>754.2</ele>
        <time>2025-09-06T12:46:18Z</time>
      </trkpt>
      <trkpt lat="46.14385" lon="4.50685">
        <ele>754.4</ele>
        <time>2025-09-06T12:46:19Z</time>
      </trkpt>
      <trkpt lat="46.14388" lon="4.50685">
        <ele>754.4</ele>
        <time>2025-09-06T12:46:20Z</time>
      </trkpt>
      <trkpt lat="46.14389" lon="4.50685">
        <ele>754.4</ele>
        <time>2025-09-06T12:46:21Z</time>
      </trkpt>
      <trkpt lat="46.1439" lon="4.50686">
        <ele>754.4</ele>
        <time>2025-09-06T12:46:22Z</time>
      </trkpt>
      <trkpt lat="46.14391" lon="4.50688">
        <ele>754.4</ele>
        <time>2025-09-06T12:46:23Z</time>
      </trkpt>
      <trkpt lat="46.14392" lon="4.50691">
        <ele>754.2</ele>
        <time>2025-09-06T12:46:24Z</time>
      </trkpt>
      <trkpt lat="46.14393" lon="4.50694">
        <ele>754.2</ele>
        <time>2025-09-06T12:46:25Z</time>
      </trkpt>
      <trkpt lat="46.14394" lon="4.50698">
        <ele>753.8</ele>
        <time>2025-09-06T12:46:26Z</time>
      </trkpt>
      <trkpt lat="46.14396" lon="4.507">
        <ele>753.8</ele>
        <time>2025-09-06T12:46:27Z</time>
      </trkpt>
      <trkpt lat="46.14398" lon="4.50702">
        <ele>753.8</ele>
        <time>2025-09-06T12:46:28Z</time>
      </trkpt>
      <trkpt lat="46.144" lon="4.50704">
        <ele>754.4</ele>
        <time>2025-09-06T12:46:29Z</time>
      </trkpt>
      <trkpt lat="46.14403" lon="4.50706">
        <ele>754.6</ele>
        <time>2025-09-06T12:46:30Z</time>
      </trkpt>
      <trkpt lat="46.14405" lon="4.50707">
        <ele>754.6</ele>
        <time>2025-09-06T12:46:31Z</time>
      </trkpt>
      <trkpt lat="46.14408" lon="4.50707">
        <ele>754.6</ele>
        <time>2025-09-06T12:46:32Z</time>
      </trkpt>
      <trkpt lat="46.14411" lon="4.50708">
        <ele>754.6</ele>
        <time>2025-09-06T12:46:33Z</time>
      </trkpt>
      <trkpt lat="46.14414" lon="4.50709">
        <ele>754.6</ele>
        <time>2025-09-06T12:46:34Z</time>
      </trkpt>
      <trkpt lat="46.14416" lon="4.5071">
        <ele>754.2</ele>
        <time>2025-09-06T12:46:35Z</time>
      </trkpt>
      <trkpt lat="46.14418" lon="4.50712">
        <ele>754.4</ele>
        <time>2025-09-06T12:46:36Z</time>
      </trkpt>
      <trkpt lat="46.1442" lon="4.50713">
        <ele>754.4</ele>
        <time>2025-09-06T12:46:37Z</time>
      </trkpt>
      <trkpt lat="46.14422" lon="4.50714">
        <ele>754.4</ele>
        <time>2025-09-06T12:46:38Z</time>
      </trkpt>
      <trkpt lat="46.14424" lon="4.50714">
        <ele>754.4</ele>
        <time>2025-09-06T12:46:39Z</time>
      </trkpt>
      <trkpt lat="46.14425" lon="4.50715">
        <ele>754.4</ele>
        <time>2025-09-06T12:46:40Z</time>
      </trkpt>
      <trkpt lat="46.14428" lon="4.50717">
        <ele>754.8</ele>
        <time>2025-09-06T12:46:41Z</time>
      </trkpt>
      <trkpt lat="46.14429" lon="4.50718">
        <ele>754.8</ele>
        <time>2025-09-06T12:46:42Z</time>
      </trkpt>
      <trkpt lat="46.14432" lon="4.50719">
        <ele>755.2</ele>
        <time>2025-09-06T12:46:43Z</time>
      </trkpt>
      <trkpt lat="46.14434" lon="4.5072">
        <ele>755.4</ele>
        <time>2025-09-06T12:46:44Z</time>
      </trkpt>
      <trkpt lat="46.14436" lon="4.50721">
        <ele>755.8</ele>
        <time>2025-09-06T12:46:45Z</time>
      </trkpt>
      <trkpt lat="46.14437" lon="4.50722">
        <ele>755.8</ele>
        <time>2025-09-06T12:46:46Z</time>
      </trkpt>
      <trkpt lat="46.14439" lon="4.50723">
        <ele>755.8</ele>
        <time>2025-09-06T12:46:47Z</time>
      </trkpt>
      <trkpt lat="46.14441" lon="4.50725">
        <ele>756</ele>
        <time>2025-09-06T12:46:48Z</time>
      </trkpt>
      <trkpt lat="46.14443" lon="4.50726">
        <ele>756.4</ele>
        <time>2025-09-06T12:46:49Z</time>
      </trkpt>
      <trkpt lat="46.14445" lon="4.50728">
        <ele>756.4</ele>
        <time>2025-09-06T12:46:50Z</time>
      </trkpt>
      <trkpt lat="46.14447" lon="4.50729">
        <ele>756.4</ele>
        <time>2025-09-06T12:46:51Z</time>
      </trkpt>
      <trkpt lat="46.1445" lon="4.50731">
        <ele>756.4</ele>
        <time>2025-09-06T12:46:52Z</time>
      </trkpt>
      <trkpt lat="46.14452" lon="4.50732">
        <ele>756.4</ele>
        <time>2025-09-06T12:46:53Z</time>
      </trkpt>
      <trkpt lat="46.14455" lon="4.50733">
        <ele>756.4</ele>
        <time>2025-09-06T12:46:54Z</time>
      </trkpt>
      <trkpt lat="46.14457" lon="4.50734">
        <ele>756.4</ele>
        <time>2025-09-06T12:46:55Z</time>
      </trkpt>
      <trkpt lat="46.1446" lon="4.50736">
        <ele>756.4</ele>
        <time>2025-09-06T12:46:56Z</time>
      </trkpt>
      <trkpt lat="46.14463" lon="4.50738">
        <ele>756.4</ele>
        <time>2025-09-06T12:46:57Z</time>
      </trkpt>
      <trkpt lat="46.14465" lon="4.50739">
        <ele>756.4</ele>
        <time>2025-09-06T12:46:58Z</time>
      </trkpt>
      <trkpt lat="46.14468" lon="4.5074">
        <ele>756.4</ele>
        <time>2025-09-06T12:46:59Z</time>
      </trkpt>
      <trkpt lat="46.14471" lon="4.50742">
        <ele>756.2</ele>
        <time>2025-09-06T12:47:00Z</time>
      </trkpt>
      <trkpt lat="46.14473" lon="4.50743">
        <ele>756.2</ele>
        <time>2025-09-06T12:47:01Z</time>
      </trkpt>
      <trkpt lat="46.14476" lon="4.50745">
        <ele>756.2</ele>
        <time>2025-09-06T12:47:02Z</time>
      </trkpt>
      <trkpt lat="46.14479" lon="4.50746">
        <ele>756.2</ele>
        <time>2025-09-06T12:47:03Z</time>
      </trkpt>
      <trkpt lat="46.14482" lon="4.50747">
        <ele>756.4</ele>
        <time>2025-09-06T12:47:04Z</time>
      </trkpt>
      <trkpt lat="46.14485" lon="4.50748">
        <ele>756.4</ele>
        <time>2025-09-06T12:47:05Z</time>
      </trkpt>
      <trkpt lat="46.14488" lon="4.5075">
        <ele>756.2</ele>
        <time>2025-09-06T12:47:06Z</time>
      </trkpt>
      <trkpt lat="46.14492" lon="4.5075">
        <ele>756.2</ele>
        <time>2025-09-06T12:47:07Z</time>
      </trkpt>
      <trkpt lat="46.14495" lon="4.50751">
        <ele>756.2</ele>
        <time>2025-09-06T12:47:08Z</time>
      </trkpt>
      <trkpt lat="46.14498" lon="4.50751">
        <ele>756.2</ele>
        <time>2025-09-06T12:47:09Z</time>
      </trkpt>
      <trkpt lat="46.14501" lon="4.50752">
        <ele>756.2</ele>
        <time>2025-09-06T12:47:10Z</time>
      </trkpt>
      <trkpt lat="46.14504" lon="4.50753">
        <ele>756.2</ele>
        <time>2025-09-06T12:47:11Z</time>
      </trkpt>
      <trkpt lat="46.14506" lon="4.50754">
        <ele>756.2</ele>
        <time>2025-09-06T12:47:12Z</time>
      </trkpt>
      <trkpt lat="46.14509" lon="4.50756">
        <ele>756.4</ele>
        <time>2025-09-06T12:47:13Z</time>
      </trkpt>
      <trkpt lat="46.1451" lon="4.50757">
        <ele>756.4</ele>
        <time>2025-09-06T12:47:14Z</time>
      </trkpt>
      <trkpt lat="46.1451" lon="4.50757">
        <ele>756.4</ele>
        <time>2025-09-06T12:47:15Z</time>
      </trkpt>
      <trkpt lat="46.1451" lon="4.50757">
        <ele>756.4</ele>
        <time>2025-09-06T12:47:16Z</time>
      </trkpt>
      <trkpt lat="46.14512" lon="4.50757">
        <ele>756.4</ele>
        <time>2025-09-06T12:51:15Z</time>
      </trkpt>
      <trkpt lat="46.14513" lon="4.50757">
        <ele>756.2</ele>
        <time>2025-09-06T12:51:16Z</time>
      </trkpt>
      <trkpt lat="46.14515" lon="4.50756">
        <ele>756.2</ele>
        <time>2025-09-06T12:51:17Z</time>
      </trkpt>
      <trkpt lat="46.14517" lon="4.50756">
        <ele>756.2</ele>
        <time>2025-09-06T12:51:18Z</time>
      </trkpt>
      <trkpt lat="46.14519" lon="4.50756">
        <ele>756.2</ele>
        <time>2025-09-06T12:51:19Z</time>
      </trkpt>
      <trkpt lat="46.14521" lon="4.50756">
        <ele>755.4</ele>
        <time>2025-09-06T12:51:20Z</time>
      </trkpt>
      <trkpt lat="46.14524" lon="4.50756">
        <ele>755.4</ele>
        <time>2025-09-06T12:51:21Z</time>
      </trkpt>
      <trkpt lat="46.14527" lon="4.50756">
        <ele>755</ele>
        <time>2025-09-06T12:51:22Z</time>
      </trkpt>
      <trkpt lat="46.1453" lon="4.50756">
        <ele>755</ele>
        <time>2025-09-06T12:51:23Z</time>
      </trkpt>
      <trkpt lat="46.14534" lon="4.50756">
        <ele>755</ele>
        <time>2025-09-06T12:51:24Z</time>
      </trkpt>
      <trkpt lat="46.14537" lon="4.50757">
        <ele>755</ele>
        <time>2025-09-06T12:51:25Z</time>
      </trkpt>
      <trkpt lat="46.1454" lon="4.50759">
        <ele>754.6</ele>
        <time>2025-09-06T12:51:26Z</time>
      </trkpt>
      <trkpt lat="46.14543" lon="4.50762">
        <ele>754</ele>
        <time>2025-09-06T12:51:27Z</time>
      </trkpt>
      <trkpt lat="46.14546" lon="4.50765">
        <ele>753.8</ele>
        <time>2025-09-06T12:51:28Z</time>
      </trkpt>
      <trkpt lat="46.14548" lon="4.50769">
        <ele>753.4</ele>
        <time>2025-09-06T12:51:29Z</time>
      </trkpt>
      <trkpt lat="46.1455" lon="4.50773">
        <ele>753.6</ele>
        <time>2025-09-06T12:51:30Z</time>
      </trkpt>
      <trkpt lat="46.14552" lon="4.50778">
        <ele>753.4</ele>
        <time>2025-09-06T12:51:31Z</time>
      </trkpt>
      <trkpt lat="46.14553" lon="4.50781">
        <ele>753.2</ele>
        <time>2025-09-06T12:51:32Z</time>
      </trkpt>
      <trkpt lat="46.14554" lon="4.50785">
        <ele>753.2</ele>
        <time>2025-09-06T12:51:33Z</time>
      </trkpt>
      <trkpt lat="46.14555" lon="4.50788">
        <ele>752.8</ele>
        <time>2025-09-06T12:51:34Z</time>
      </trkpt>
      <trkpt lat="46.14557" lon="4.50792">
        <ele>752.6</ele>
        <time>2025-09-06T12:51:35Z</time>
      </trkpt>
      <trkpt lat="46.14558" lon="4.50796">
        <ele>752.2</ele>
        <time>2025-09-06T12:51:36Z</time>
      </trkpt>
      <trkpt lat="46.1456" lon="4.50798">
        <ele>751.8</ele>
        <time>2025-09-06T12:51:37Z</time>
      </trkpt>
      <trkpt lat="46.14561" lon="4.50801">
        <ele>751.4</ele>
        <time>2025-09-06T12:51:38Z</time>
      </trkpt>
      <trkpt lat="46.14562" lon="4.50804">
        <ele>751.4</ele>
        <time>2025-09-06T12:51:39Z</time>
      </trkpt>
      <trkpt lat="46.14563" lon="4.50806">
        <ele>751.4</ele>
        <time>2025-09-06T12:51:40Z</time>
      </trkpt>
      <trkpt lat="46.14565" lon="4.50808">
        <ele>751</ele>
        <time>2025-09-06T12:51:41Z</time>
      </trkpt>
      <trkpt lat="46.14566" lon="4.5081">
        <ele>750.4</ele>
        <time>2025-09-06T12:51:42Z</time>
      </trkpt>
      <trkpt lat="46.14567" lon="4.50812">
        <ele>750.4</ele>
        <time>2025-09-06T12:51:43Z</time>
      </trkpt>
      <trkpt lat="46.14569" lon="4.50813">
        <ele>750.4</ele>
        <time>2025-09-06T12:51:44Z</time>
      </trkpt>
      <trkpt lat="46.14571" lon="4.50814">
        <ele>750.4</ele>
        <time>2025-09-06T12:51:45Z</time>
      </trkpt>
      <trkpt lat="46.14573" lon="4.50816">
        <ele>749.8</ele>
        <time>2025-09-06T12:51:46Z</time>
      </trkpt>
      <trkpt lat="46.14574" lon="4.50818">
        <ele>749.2</ele>
        <time>2025-09-06T12:51:47Z</time>
      </trkpt>
      <trkpt lat="46.14576" lon="4.5082">
        <ele>749.2</ele>
        <time>2025-09-06T12:51:48Z</time>
      </trkpt>
      <trkpt lat="46.14577" lon="4.50823">
        <ele>748.8</ele>
        <time>2025-09-06T12:51:49Z</time>
      </trkpt>
      <trkpt lat="46.14579" lon="4.50825">
        <ele>748.6</ele>
        <time>2025-09-06T12:51:50Z</time>
      </trkpt>
      <trkpt lat="46.14581" lon="4.50827">
        <ele>748</ele>
        <time>2025-09-06T12:51:51Z</time>
      </trkpt>
      <trkpt lat="46.14583" lon="4.50828">
        <ele>747.8</ele>
        <time>2025-09-06T12:51:52Z</time>
      </trkpt>
      <trkpt lat="46.14586" lon="4.5083">
        <ele>747.8</ele>
        <time>2025-09-06T12:51:53Z</time>
      </trkpt>
      <trkpt lat="46.14588" lon="4.50831">
        <ele>747.8</ele>
        <time>2025-09-06T12:51:54Z</time>
      </trkpt>
      <trkpt lat="46.1459" lon="4.50832">
        <ele>747.6</ele>
        <time>2025-09-06T12:51:55Z</time>
      </trkpt>
      <trkpt lat="46.14592" lon="4.50832">
        <ele>747.2</ele>
        <time>2025-09-06T12:51:56Z</time>
      </trkpt>
      <trkpt lat="46.14594" lon="4.50833">
        <ele>747.2</ele>
        <time>2025-09-06T12:51:57Z</time>
      </trkpt>
      <trkpt lat="46.14596" lon="4.50833">
        <ele>746.6</ele>
        <time>2025-09-06T12:51:58Z</time>
      </trkpt>
      <trkpt lat="46.14598" lon="4.50833">
        <ele>746</ele>
        <time>2025-09-06T12:51:59Z</time>
      </trkpt>
      <trkpt lat="46.146" lon="4.50833">
        <ele>745.8</ele>
        <time>2025-09-06T12:52:00Z</time>
      </trkpt>
      <trkpt lat="46.14601" lon="4.50833">
        <ele>745.8</ele>
        <time>2025-09-06T12:52:01Z</time>
      </trkpt>
      <trkpt lat="46.14602" lon="4.50834">
        <ele>745.6</ele>
        <time>2025-09-06T12:52:02Z</time>
      </trkpt>
      <trkpt lat="46.14603" lon="4.50835">
        <ele>745.2</ele>
        <time>2025-09-06T12:52:03Z</time>
      </trkpt>
      <trkpt lat="46.14603" lon="4.50835">
        <ele>745</ele>
        <time>2025-09-06T12:52:04Z</time>
      </trkpt>
      <trkpt lat="46.14605" lon="4.50836">
        <ele>744.8</ele>
        <time>2025-09-06T12:52:05Z</time>
      </trkpt>
      <trkpt lat="46.14606" lon="4.50837">
        <ele>744.2</ele>
        <time>2025-09-06T12:52:06Z</time>
      </trkpt>
      <trkpt lat="46.14609" lon="4.50838">
        <ele>744.2</ele>
        <time>2025-09-06T12:52:07Z</time>
      </trkpt>
      <trkpt lat="46.14611" lon="4.50839">
        <ele>743.6</ele>
        <time>2025-09-06T12:52:08Z</time>
      </trkpt>
      <trkpt lat="46.14613" lon="4.50839">
        <ele>743.2</ele>
        <time>2025-09-06T12:52:09Z</time>
      </trkpt>
      <trkpt lat="46.14614" lon="4.5084">
        <ele>742.8</ele>
        <time>2025-09-06T12:52:10Z</time>
      </trkpt>
      <trkpt lat="46.14616" lon="4.5084">
        <ele>742.6</ele>
        <time>2025-09-06T12:52:11Z</time>
      </trkpt>
      <trkpt lat="46.14618" lon="4.5084">
        <ele>742.2</ele>
        <time>2025-09-06T12:52:12Z</time>
      </trkpt>
      <trkpt lat="46.1462" lon="4.50841">
        <ele>742</ele>
        <time>2025-09-06T12:52:13Z</time>
      </trkpt>
      <trkpt lat="46.14623" lon="4.50841">
        <ele>741.8</ele>
        <time>2025-09-06T12:52:14Z</time>
      </trkpt>
      <trkpt lat="46.14625" lon="4.50841">
        <ele>741.8</ele>
        <time>2025-09-06T12:52:15Z</time>
      </trkpt>
      <trkpt lat="46.14626" lon="4.50841">
        <ele>741.4</ele>
        <time>2025-09-06T12:52:16Z</time>
      </trkpt>
      <trkpt lat="46.14628" lon="4.50841">
        <ele>741</ele>
        <time>2025-09-06T12:52:17Z</time>
      </trkpt>
      <trkpt lat="46.1463" lon="4.50841">
        <ele>741</ele>
        <time>2025-09-06T12:52:18Z</time>
      </trkpt>
      <trkpt lat="46.14631" lon="4.50842">
        <ele>740.4</ele>
        <time>2025-09-06T12:52:19Z</time>
      </trkpt>
      <trkpt lat="46.14633" lon="4.50842">
        <ele>740.4</ele>
        <time>2025-09-06T12:52:20Z</time>
      </trkpt>
      <trkpt lat="46.14635" lon="4.50843">
        <ele>739.8</ele>
        <time>2025-09-06T12:52:21Z</time>
      </trkpt>
      <trkpt lat="46.14636" lon="4.50844">
        <ele>739.8</ele>
        <time>2025-09-06T12:52:22Z</time>
      </trkpt>
      <trkpt lat="46.14637" lon="4.50844">
        <ele>739.8</ele>
        <time>2025-09-06T12:52:23Z</time>
      </trkpt>
      <trkpt lat="46.14639" lon="4.50844">
        <ele>739.4</ele>
        <time>2025-09-06T12:52:24Z</time>
      </trkpt>
      <trkpt lat="46.1464" lon="4.50844">
        <ele>739.4</ele>
        <time>2025-09-06T12:52:25Z</time>
      </trkpt>
      <trkpt lat="46.14642" lon="4.50843">
        <ele>738.8</ele>
        <time>2025-09-06T12:52:26Z</time>
      </trkpt>
      <trkpt lat="46.14644" lon="4.50842">
        <ele>738</ele>
        <time>2025-09-06T12:52:27Z</time>
      </trkpt>
      <trkpt lat="46.14647" lon="4.50841">
        <ele>738</ele>
        <time>2025-09-06T12:52:28Z</time>
      </trkpt>
      <trkpt lat="46.14649" lon="4.5084">
        <ele>738</ele>
        <time>2025-09-06T12:52:29Z</time>
      </trkpt>
      <trkpt lat="46.14651" lon="4.50839">
        <ele>737.6</ele>
        <time>2025-09-06T12:52:30Z</time>
      </trkpt>
      <trkpt lat="46.14652" lon="4.50838">
        <ele>737.4</ele>
        <time>2025-09-06T12:52:31Z</time>
      </trkpt>
      <trkpt lat="46.14654" lon="4.50837">
        <ele>736.8</ele>
        <time>2025-09-06T12:52:32Z</time>
      </trkpt>
      <trkpt lat="46.14656" lon="4.50837">
        <ele>736.4</ele>
        <time>2025-09-06T12:52:33Z</time>
      </trkpt>
      <trkpt lat="46.14657" lon="4.50836">
        <ele>736</ele>
        <time>2025-09-06T12:52:34Z</time>
      </trkpt>
      <trkpt lat="46.14658" lon="4.50836">
        <ele>735.8</ele>
        <time>2025-09-06T12:52:35Z</time>
      </trkpt>
      <trkpt lat="46.14659" lon="4.50836">
        <ele>735.2</ele>
        <time>2025-09-06T12:52:36Z</time>
      </trkpt>
      <trkpt lat="46.14661" lon="4.50835">
        <ele>735</ele>
        <time>2025-09-06T12:52:37Z</time>
      </trkpt>
      <trkpt lat="46.14663" lon="4.50835">
        <ele>734.6</ele>
        <time>2025-09-06T12:52:38Z</time>
      </trkpt>
      <trkpt lat="46.14665" lon="4.50835">
        <ele>734.4</ele>
        <time>2025-09-06T12:52:39Z</time>
      </trkpt>
      <trkpt lat="46.14667" lon="4.50835">
        <ele>734.4</ele>
        <time>2025-09-06T12:52:40Z</time>
      </trkpt>
      <trkpt lat="46.14669" lon="4.50834">
        <ele>733.6</ele>
        <time>2025-09-06T12:52:41Z</time>
      </trkpt>
      <trkpt lat="46.14671" lon="4.50833">
        <ele>733.4</ele>
        <time>2025-09-06T12:52:42Z</time>
      </trkpt>
      <trkpt lat="46.14673" lon="4.50832">
        <ele>732.8</ele>
        <time>2025-09-06T12:52:43Z</time>
      </trkpt>
      <trkpt lat="46.14675" lon="4.50831">
        <ele>732.6</ele>
        <time>2025-09-06T12:52:44Z</time>
      </trkpt>
      <trkpt lat="46.14677" lon="4.5083">
        <ele>732.2</ele>
        <time>2025-09-06T12:52:45Z</time>
      </trkpt>
      <trkpt lat="46.14679" lon="4.5083">
        <ele>732.4</ele>
        <time>2025-09-06T12:52:46Z</time>
      </trkpt>
      <trkpt lat="46.14681" lon="4.5083">
        <ele>731.8</ele>
        <time>2025-09-06T12:52:47Z</time>
      </trkpt>
      <trkpt lat="46.14683" lon="4.50829">
        <ele>731.4</ele>
        <time>2025-09-06T12:52:48Z</time>
      </trkpt>
      <trkpt lat="46.14685" lon="4.50829">
        <ele>730.8</ele>
        <time>2025-09-06T12:52:49Z</time>
      </trkpt>
      <trkpt lat="46.14687" lon="4.50828">
        <ele>731.4</ele>
        <time>2025-09-06T12:52:50Z</time>
      </trkpt>
      <trkpt lat="46.14689" lon="4.50827">
        <ele>731.4</ele>
        <time>2025-09-06T12:52:51Z</time>
      </trkpt>
      <trkpt lat="46.14691" lon="4.50827">
        <ele>731.4</ele>
        <time>2025-09-06T12:52:52Z</time>
      </trkpt>
      <trkpt lat="46.14693" lon="4.50826">
        <ele>731</ele>
        <time>2025-09-06T12:52:53Z</time>
      </trkpt>
      <trkpt lat="46.14696" lon="4.50826">
        <ele>730</ele>
        <time>2025-09-06T12:52:54Z</time>
      </trkpt>
      <trkpt lat="46.14698" lon="4.50826">
        <ele>729.2</ele>
        <time>2025-09-06T12:52:55Z</time>
      </trkpt>
      <trkpt lat="46.147" lon="4.50826">
        <ele>728.8</ele>
        <time>2025-09-06T12:52:56Z</time>
      </trkpt>
      <trkpt lat="46.14703" lon="4.50825">
        <ele>728.4</ele>
        <time>2025-09-06T12:52:57Z</time>
      </trkpt>
      <trkpt lat="46.14706" lon="4.50824">
        <ele>728</ele>
        <time>2025-09-06T12:52:58Z</time>
      </trkpt>
      <trkpt lat="46.14709" lon="4.50823">
        <ele>727.8</ele>
        <time>2025-09-06T12:52:59Z</time>
      </trkpt>
      <trkpt lat="46.14712" lon="4.50822">
        <ele>727.2</ele>
        <time>2025-09-06T12:53:00Z</time>
      </trkpt>
      <trkpt lat="46.14715" lon="4.5082">
        <ele>727.8</ele>
        <time>2025-09-06T12:53:01Z</time>
      </trkpt>
      <trkpt lat="46.14718" lon="4.50818">
        <ele>727.2</ele>
        <time>2025-09-06T12:53:02Z</time>
      </trkpt>
      <trkpt lat="46.14722" lon="4.50816">
        <ele>726.4</ele>
        <time>2025-09-06T12:53:03Z</time>
      </trkpt>
      <trkpt lat="46.14726" lon="4.50813">
        <ele>726.2</ele>
        <time>2025-09-06T12:53:04Z</time>
      </trkpt>
      <trkpt lat="46.14728" lon="4.50811">
        <ele>726.6</ele>
        <time>2025-09-06T12:53:05Z</time>
      </trkpt>
      <trkpt lat="46.1473" lon="4.5081">
        <ele>726.2</ele>
        <time>2025-09-06T12:53:06Z</time>
      </trkpt>
      <trkpt lat="46.14732" lon="4.50808">
        <ele>725.4</ele>
        <time>2025-09-06T12:53:07Z</time>
      </trkpt>
      <trkpt lat="46.14735" lon="4.50806">
        <ele>725.2</ele>
        <time>2025-09-06T12:53:08Z</time>
      </trkpt>
      <trkpt lat="46.14737" lon="4.50804">
        <ele>724.8</ele>
        <time>2025-09-06T12:53:09Z</time>
      </trkpt>
      <trkpt lat="46.1474" lon="4.50802">
        <ele>725.2</ele>
        <time>2025-09-06T12:53:10Z</time>
      </trkpt>
      <trkpt lat="46.14743" lon="4.50801">
        <ele>724.6</ele>
        <time>2025-09-06T12:53:11Z</time>
      </trkpt>
      <trkpt lat="46.14746" lon="4.50799">
        <ele>724.2</ele>
        <time>2025-09-06T12:53:12Z</time>
      </trkpt>
      <trkpt lat="46.14749" lon="4.50798">
        <ele>724.2</ele>
        <time>2025-09-06T12:53:13Z</time>
      </trkpt>
      <trkpt lat="46.14752" lon="4.50797">
        <ele>724</ele>
        <time>2025-09-06T12:53:14Z</time>
      </trkpt>
      <trkpt lat="46.14755" lon="4.50796">
        <ele>723.6</ele>
        <time>2025-09-06T12:53:15Z</time>
      </trkpt>
      <trkpt lat="46.14758" lon="4.50794">
        <ele>723.6</ele>
        <time>2025-09-06T12:53:16Z</time>
      </trkpt>
      <trkpt lat="46.14761" lon="4.50792">
        <ele>723.4</ele>
        <time>2025-09-06T12:53:17Z</time>
      </trkpt>
      <trkpt lat="46.14765" lon="4.5079">
        <ele>723</ele>
        <time>2025-09-06T12:53:18Z</time>
      </trkpt>
      <trkpt lat="46.14769" lon="4.50788">
        <ele>722.8</ele>
        <time>2025-09-06T12:53:19Z</time>
      </trkpt>
      <trkpt lat="46.14773" lon="4.50787">
        <ele>722.4</ele>
        <time>2025-09-06T12:53:20Z</time>
      </trkpt>
      <trkpt lat="46.14777" lon="4.50787">
        <ele>722.4</ele>
        <time>2025-09-06T12:53:21Z</time>
      </trkpt>
      <trkpt lat="46.14781" lon="4.50787">
        <ele>722</ele>
        <time>2025-09-06T12:53:22Z</time>
      </trkpt>
      <trkpt lat="46.14785" lon="4.50787">
        <ele>721.6</ele>
        <time>2025-09-06T12:53:23Z</time>
      </trkpt>
      <trkpt lat="46.14787" lon="4.50787">
        <ele>721.6</ele>
        <time>2025-09-06T12:53:24Z</time>
      </trkpt>
      <trkpt lat="46.14789" lon="4.50788">
        <ele>721.6</ele>
        <time>2025-09-06T12:53:25Z</time>
      </trkpt>
      <trkpt lat="46.14791" lon="4.50788">
        <ele>721.6</ele>
        <time>2025-09-06T12:53:26Z</time>
      </trkpt>
      <trkpt lat="46.14794" lon="4.50788">
        <ele>721.6</ele>
        <time>2025-09-06T12:53:27Z</time>
      </trkpt>
      <trkpt lat="46.14796" lon="4.50788">
        <ele>721.2</ele>
        <time>2025-09-06T12:53:28Z</time>
      </trkpt>
      <trkpt lat="46.14798" lon="4.50788">
        <ele>721</ele>
        <time>2025-09-06T12:53:29Z</time>
      </trkpt>
      <trkpt lat="46.148" lon="4.50788">
        <ele>721</ele>
        <time>2025-09-06T12:53:30Z</time>
      </trkpt>
      <trkpt lat="46.14803" lon="4.50787">
        <ele>721</ele>
        <time>2025-09-06T12:53:31Z</time>
      </trkpt>
      <trkpt lat="46.14806" lon="4.50786">
        <ele>720.8</ele>
        <time>2025-09-06T12:53:32Z</time>
      </trkpt>
      <trkpt lat="46.14809" lon="4.50784">
        <ele>720.4</ele>
        <time>2025-09-06T12:53:33Z</time>
      </trkpt>
      <trkpt lat="46.14813" lon="4.50781">
        <ele>720.6</ele>
        <time>2025-09-06T12:53:34Z</time>
      </trkpt>
      <trkpt lat="46.14817" lon="4.50778">
        <ele>721.4</ele>
        <time>2025-09-06T12:53:35Z</time>
      </trkpt>
      <trkpt lat="46.14821" lon="4.50776">
        <ele>720.8</ele>
        <time>2025-09-06T12:53:36Z</time>
      </trkpt>
      <trkpt lat="46.14825" lon="4.50773">
        <ele>720.4</ele>
        <time>2025-09-06T12:53:37Z</time>
      </trkpt>
      <trkpt lat="46.14829" lon="4.5077">
        <ele>720</ele>
        <time>2025-09-06T12:53:38Z</time>
      </trkpt>
      <trkpt lat="46.14832" lon="4.50767">
        <ele>719.6</ele>
        <time>2025-09-06T12:53:39Z</time>
      </trkpt>
      <trkpt lat="46.14835" lon="4.50765">
        <ele>719.2</ele>
        <time>2025-09-06T12:53:40Z</time>
      </trkpt>
      <trkpt lat="46.14839" lon="4.50762">
        <ele>718.2</ele>
        <time>2025-09-06T12:53:41Z</time>
      </trkpt>
      <trkpt lat="46.14842" lon="4.5076">
        <ele>718.4</ele>
        <time>2025-09-06T12:53:42Z</time>
      </trkpt>
      <trkpt lat="46.14845" lon="4.50757">
        <ele>718.6</ele>
        <time>2025-09-06T12:53:43Z</time>
      </trkpt>
      <trkpt lat="46.14848" lon="4.50754">
        <ele>718.4</ele>
        <time>2025-09-06T12:53:44Z</time>
      </trkpt>
      <trkpt lat="46.14851" lon="4.50752">
        <ele>717.8</ele>
        <time>2025-09-06T12:53:45Z</time>
      </trkpt>
      <trkpt lat="46.14853" lon="4.50749">
        <ele>717.8</ele>
        <time>2025-09-06T12:53:46Z</time>
      </trkpt>
      <trkpt lat="46.14856" lon="4.50746">
        <ele>717.2</ele>
        <time>2025-09-06T12:53:47Z</time>
      </trkpt>
      <trkpt lat="46.1486" lon="4.50745">
        <ele>717.2</ele>
        <time>2025-09-06T12:53:48Z</time>
      </trkpt>
      <trkpt lat="46.14863" lon="4.50743">
        <ele>717.4</ele>
        <time>2025-09-06T12:53:49Z</time>
      </trkpt>
      <trkpt lat="46.14866" lon="4.50741">
        <ele>717.2</ele>
        <time>2025-09-06T12:53:50Z</time>
      </trkpt>
      <trkpt lat="46.1487" lon="4.50738">
        <ele>717.2</ele>
        <time>2025-09-06T12:53:51Z</time>
      </trkpt>
      <trkpt lat="46.14873" lon="4.50736">
        <ele>716.6</ele>
        <time>2025-09-06T12:53:52Z</time>
      </trkpt>
      <trkpt lat="46.14877" lon="4.50734">
        <ele>717</ele>
        <time>2025-09-06T12:53:53Z</time>
      </trkpt>
      <trkpt lat="46.1488" lon="4.50733">
        <ele>717.2</ele>
        <time>2025-09-06T12:53:54Z</time>
      </trkpt>
      <trkpt lat="46.14884" lon="4.50731">
        <ele>716.8</ele>
        <time>2025-09-06T12:53:55Z</time>
      </trkpt>
      <trkpt lat="46.14887" lon="4.50729">
        <ele>715.4</ele>
        <time>2025-09-06T12:53:56Z</time>
      </trkpt>
      <trkpt lat="46.14891" lon="4.50727">
        <ele>715.4</ele>
        <time>2025-09-06T12:53:57Z</time>
      </trkpt>
      <trkpt lat="46.14895" lon="4.50725">
        <ele>715.4</ele>
        <time>2025-09-06T12:53:58Z</time>
      </trkpt>
      <trkpt lat="46.14898" lon="4.50724">
        <ele>715.4</ele>
        <time>2025-09-06T12:53:59Z</time>
      </trkpt>
      <trkpt lat="46.14901" lon="4.50723">
        <ele>715.2</ele>
        <time>2025-09-06T12:54:00Z</time>
      </trkpt>
      <trkpt lat="46.14905" lon="4.50722">
        <ele>715.2</ele>
        <time>2025-09-06T12:54:01Z</time>
      </trkpt>
      <trkpt lat="46.14908" lon="4.50721">
        <ele>715.6</ele>
        <time>2025-09-06T12:54:02Z</time>
      </trkpt>
      <trkpt lat="46.14911" lon="4.50721">
        <ele>715.6</ele>
        <time>2025-09-06T12:54:03Z</time>
      </trkpt>
      <trkpt lat="46.14914" lon="4.50722">
        <ele>715.6</ele>
        <time>2025-09-06T12:54:04Z</time>
      </trkpt>
      <trkpt lat="46.14917" lon="4.50723">
        <ele>715.8</ele>
        <time>2025-09-06T12:54:05Z</time>
      </trkpt>
      <trkpt lat="46.14919" lon="4.50724">
        <ele>715.8</ele>
        <time>2025-09-06T12:54:06Z</time>
      </trkpt>
      <trkpt lat="46.14922" lon="4.50726">
        <ele>715.8</ele>
        <time>2025-09-06T12:54:07Z</time>
      </trkpt>
      <trkpt lat="46.14925" lon="4.50728">
        <ele>716</ele>
        <time>2025-09-06T12:54:08Z</time>
      </trkpt>
      <trkpt lat="46.14928" lon="4.5073">
        <ele>716</ele>
        <time>2025-09-06T12:54:09Z</time>
      </trkpt>
      <trkpt lat="46.14931" lon="4.50733">
        <ele>716</ele>
        <time>2025-09-06T12:54:10Z</time>
      </trkpt>
      <trkpt lat="46.14934" lon="4.50736">
        <ele>716</ele>
        <time>2025-09-06T12:54:11Z</time>
      </trkpt>
      <trkpt lat="46.14937" lon="4.50738">
        <ele>715.8</ele>
        <time>2025-09-06T12:54:12Z</time>
      </trkpt>
      <trkpt lat="46.1494" lon="4.50741">
        <ele>715.8</ele>
        <time>2025-09-06T12:54:13Z</time>
      </trkpt>
      <trkpt lat="46.14943" lon="4.50743">
        <ele>716.4</ele>
        <time>2025-09-06T12:54:14Z</time>
      </trkpt>
      <trkpt lat="46.14946" lon="4.50746">
        <ele>716.6</ele>
        <time>2025-09-06T12:54:15Z</time>
      </trkpt>
      <trkpt lat="46.14949" lon="4.50748">
        <ele>716.6</ele>
        <time>2025-09-06T12:54:16Z</time>
      </trkpt>
      <trkpt lat="46.14951" lon="4.5075">
        <ele>716.6</ele>
        <time>2025-09-06T12:54:17Z</time>
      </trkpt>
      <trkpt lat="46.14954" lon="4.50752">
        <ele>716.6</ele>
        <time>2025-09-06T12:54:18Z</time>
      </trkpt>
      <trkpt lat="46.14957" lon="4.50754">
        <ele>716.6</ele>
        <time>2025-09-06T12:54:19Z</time>
      </trkpt>
      <trkpt lat="46.1496" lon="4.50755">
        <ele>716.8</ele>
        <time>2025-09-06T12:54:20Z</time>
      </trkpt>
      <trkpt lat="46.14963" lon="4.50757">
        <ele>716.8</ele>
        <time>2025-09-06T12:54:21Z</time>
      </trkpt>
      <trkpt lat="46.14965" lon="4.50759">
        <ele>717</ele>
        <time>2025-09-06T12:54:22Z</time>
      </trkpt>
      <trkpt lat="46.14968" lon="4.5076">
        <ele>717</ele>
        <time>2025-09-06T12:54:23Z</time>
      </trkpt>
      <trkpt lat="46.14971" lon="4.50761">
        <ele>717</ele>
        <time>2025-09-06T12:54:24Z</time>
      </trkpt>
      <trkpt lat="46.14974" lon="4.50763">
        <ele>717</ele>
        <time>2025-09-06T12:54:25Z</time>
      </trkpt>
      <trkpt lat="46.14977" lon="4.50764">
        <ele>717</ele>
        <time>2025-09-06T12:54:26Z</time>
      </trkpt>
      <trkpt lat="46.1498" lon="4.50765">
        <ele>717.4</ele>
        <time>2025-09-06T12:54:27Z</time>
      </trkpt>
      <trkpt lat="46.14983" lon="4.50766">
        <ele>717.4</ele>
        <time>2025-09-06T12:54:28Z</time>
      </trkpt>
      <trkpt lat="46.14986" lon="4.50767">
        <ele>717.4</ele>
        <time>2025-09-06T12:54:29Z</time>
      </trkpt>
      <trkpt lat="46.14989" lon="4.50768">
        <ele>717.4</ele>
        <time>2025-09-06T12:54:30Z</time>
      </trkpt>
      <trkpt lat="46.14992" lon="4.50769">
        <ele>717.4</ele>
        <time>2025-09-06T12:54:31Z</time>
      </trkpt>
      <trkpt lat="46.14995" lon="4.50769">
        <ele>717.4</ele>
        <time>2025-09-06T12:54:32Z</time>
      </trkpt>
      <trkpt lat="46.14998" lon="4.50771">
        <ele>717.4</ele>
        <time>2025-09-06T12:54:33Z</time>
      </trkpt>
      <trkpt lat="46.15" lon="4.50772">
        <ele>717.4</ele>
        <time>2025-09-06T12:54:34Z</time>
      </trkpt>
      <trkpt lat="46.15002" lon="4.50772">
        <ele>717.4</ele>
        <time>2025-09-06T12:54:35Z</time>
      </trkpt>
      <trkpt lat="46.15004" lon="4.50773">
        <ele>717.4</ele>
        <time>2025-09-06T12:54:36Z</time>
      </trkpt>
      <trkpt lat="46.15007" lon="4.50773">
        <ele>717.4</ele>
        <time>2025-09-06T12:54:37Z</time>
      </trkpt>
      <trkpt lat="46.15009" lon="4.50774">
        <ele>717.4</ele>
        <time>2025-09-06T12:54:38Z</time>
      </trkpt>
      <trkpt lat="46.15012" lon="4.50774">
        <ele>717.6</ele>
        <time>2025-09-06T12:54:39Z</time>
      </trkpt>
      <trkpt lat="46.15015" lon="4.50775">
        <ele>717.6</ele>
        <time>2025-09-06T12:54:40Z</time>
      </trkpt>
      <trkpt lat="46.15017" lon="4.50776">
        <ele>717.6</ele>
        <time>2025-09-06T12:54:41Z</time>
      </trkpt>
      <trkpt lat="46.15019" lon="4.50777">
        <ele>717.6</ele>
        <time>2025-09-06T12:54:42Z</time>
      </trkpt>
      <trkpt lat="46.15022" lon="4.50778">
        <ele>717.6</ele>
        <time>2025-09-06T12:54:43Z</time>
      </trkpt>
      <trkpt lat="46.15024" lon="4.50778">
        <ele>717.2</ele>
        <time>2025-09-06T12:54:44Z</time>
      </trkpt>
      <trkpt lat="46.15027" lon="4.50779">
        <ele>717</ele>
        <time>2025-09-06T12:54:45Z</time>
      </trkpt>
      <trkpt lat="46.15029" lon="4.50781">
        <ele>717</ele>
        <time>2025-09-06T12:54:46Z</time>
      </trkpt>
      <trkpt lat="46.15032" lon="4.50782">
        <ele>717</ele>
        <time>2025-09-06T12:54:47Z</time>
      </trkpt>
      <trkpt lat="46.15034" lon="4.50784">
        <ele>717.6</ele>
        <time>2025-09-06T12:54:48Z</time>
      </trkpt>
      <trkpt lat="46.15036" lon="4.50786">
        <ele>718.2</ele>
        <time>2025-09-06T12:54:49Z</time>
      </trkpt>
      <trkpt lat="46.15036" lon="4.50786">
        <ele>718.2</ele>
        <time>2025-09-06T12:54:50Z</time>
      </trkpt>
      <trkpt lat="46.15036" lon="4.50786">
        <ele>718.2</ele>
        <time>2025-09-06T12:54:51Z</time>
      </trkpt>
      <trkpt lat="46.15046" lon="4.50791">
        <ele>718.4</ele>
        <time>2025-09-06T12:54:54Z</time>
      </trkpt>
      <trkpt lat="46.15048" lon="4.50792">
        <ele>718.4</ele>
        <time>2025-09-06T12:54:55Z</time>
      </trkpt>
      <trkpt lat="46.1505" lon="4.50791">
        <ele>718.4</ele>
        <time>2025-09-06T12:54:56Z</time>
      </trkpt>
      <trkpt lat="46.15053" lon="4.50791">
        <ele>718.4</ele>
        <time>2025-09-06T12:54:57Z</time>
      </trkpt>
      <trkpt lat="46.15055" lon="4.5079">
        <ele>718.4</ele>
        <time>2025-09-06T12:54:58Z</time>
      </trkpt>
      <trkpt lat="46.15057" lon="4.50786">
        <ele>718.2</ele>
        <time>2025-09-06T12:54:59Z</time>
      </trkpt>
      <trkpt lat="46.15058" lon="4.50782">
        <ele>718.2</ele>
        <time>2025-09-06T12:55:00Z</time>
      </trkpt>
      <trkpt lat="46.15058" lon="4.50777">
        <ele>718.2</ele>
        <time>2025-09-06T12:55:01Z</time>
      </trkpt>
      <trkpt lat="46.15058" lon="4.50773">
        <ele>718.2</ele>
        <time>2025-09-06T12:55:02Z</time>
      </trkpt>
      <trkpt lat="46.15059" lon="4.50768">
        <ele>718.2</ele>
        <time>2025-09-06T12:55:03Z</time>
      </trkpt>
      <trkpt lat="46.15059" lon="4.50763">
        <ele>718.2</ele>
        <time>2025-09-06T12:55:04Z</time>
      </trkpt>
      <trkpt lat="46.1506" lon="4.50759">
        <ele>718.2</ele>
        <time>2025-09-06T12:55:05Z</time>
      </trkpt>
      <trkpt lat="46.15061" lon="4.50754">
        <ele>718.6</ele>
        <time>2025-09-06T12:55:06Z</time>
      </trkpt>
      <trkpt lat="46.15062" lon="4.50749">
        <ele>718.6</ele>
        <time>2025-09-06T12:55:07Z</time>
      </trkpt>
      <trkpt lat="46.15064" lon="4.50745">
        <ele>718.6</ele>
        <time>2025-09-06T12:55:08Z</time>
      </trkpt>
      <trkpt lat="46.15065" lon="4.5074">
        <ele>718.6</ele>
        <time>2025-09-06T12:55:09Z</time>
      </trkpt>
      <trkpt lat="46.15066" lon="4.50736">
        <ele>718.6</ele>
        <time>2025-09-06T12:55:10Z</time>
      </trkpt>
      <trkpt lat="46.15068" lon="4.50731">
        <ele>718.2</ele>
        <time>2025-09-06T12:55:11Z</time>
      </trkpt>
      <trkpt lat="46.1507" lon="4.50726">
        <ele>718.2</ele>
        <time>2025-09-06T12:55:12Z</time>
      </trkpt>
      <trkpt lat="46.15071" lon="4.50722">
        <ele>718.2</ele>
        <time>2025-09-06T12:55:13Z</time>
      </trkpt>
      <trkpt lat="46.15073" lon="4.50717">
        <ele>718.2</ele>
        <time>2025-09-06T12:55:14Z</time>
      </trkpt>
      <trkpt lat="46.15076" lon="4.50708">
        <ele>718.2</ele>
        <time>2025-09-06T12:55:15Z</time>
      </trkpt>
      <trkpt lat="46.15078" lon="4.50704">
        <ele>718.6</ele>
        <time>2025-09-06T12:55:16Z</time>
      </trkpt>
      <trkpt lat="46.15079" lon="4.507">
        <ele>718.6</ele>
        <time>2025-09-06T12:55:17Z</time>
      </trkpt>
      <trkpt lat="46.15081" lon="4.50696">
        <ele>718.6</ele>
        <time>2025-09-06T12:55:18Z</time>
      </trkpt>
      <trkpt lat="46.15083" lon="4.50691">
        <ele>719</ele>
        <time>2025-09-06T12:55:19Z</time>
      </trkpt>
      <trkpt lat="46.15085" lon="4.50688">
        <ele>719</ele>
        <time>2025-09-06T12:55:20Z</time>
      </trkpt>
      <trkpt lat="46.15088" lon="4.50684">
        <ele>719</ele>
        <time>2025-09-06T12:55:21Z</time>
      </trkpt>
      <trkpt lat="46.1509" lon="4.5068">
        <ele>719.2</ele>
        <time>2025-09-06T12:55:22Z</time>
      </trkpt>
      <trkpt lat="46.15092" lon="4.50676">
        <ele>719.2</ele>
        <time>2025-09-06T12:55:23Z</time>
      </trkpt>
      <trkpt lat="46.15094" lon="4.50672">
        <ele>719.4</ele>
        <time>2025-09-06T12:55:24Z</time>
      </trkpt>
      <trkpt lat="46.15096" lon="4.50668">
        <ele>719.4</ele>
        <time>2025-09-06T12:55:25Z</time>
      </trkpt>
      <trkpt lat="46.15098" lon="4.50665">
        <ele>719.4</ele>
        <time>2025-09-06T12:55:26Z</time>
      </trkpt>
      <trkpt lat="46.151" lon="4.50661">
        <ele>719.4</ele>
        <time>2025-09-06T12:55:27Z</time>
      </trkpt>
      <trkpt lat="46.15102" lon="4.50658">
        <ele>719.4</ele>
        <time>2025-09-06T12:55:28Z</time>
      </trkpt>
      <trkpt lat="46.15104" lon="4.50655">
        <ele>719.4</ele>
        <time>2025-09-06T12:55:29Z</time>
      </trkpt>
      <trkpt lat="46.15105" lon="4.50652">
        <ele>719.8</ele>
        <time>2025-09-06T12:55:30Z</time>
      </trkpt>
      <trkpt lat="46.15107" lon="4.50648">
        <ele>719.8</ele>
        <time>2025-09-06T12:55:31Z</time>
      </trkpt>
      <trkpt lat="46.15109" lon="4.50645">
        <ele>719.8</ele>
        <time>2025-09-06T12:55:32Z</time>
      </trkpt>
      <trkpt lat="46.15111" lon="4.50642">
        <ele>719.8</ele>
        <time>2025-09-06T12:55:33Z</time>
      </trkpt>
      <trkpt lat="46.15112" lon="4.50639">
        <ele>720</ele>
        <time>2025-09-06T12:55:34Z</time>
      </trkpt>
      <trkpt lat="46.15114" lon="4.50636">
        <ele>720.4</ele>
        <time>2025-09-06T12:55:35Z</time>
      </trkpt>
      <trkpt lat="46.15116" lon="4.50633">
        <ele>720.8</ele>
        <time>2025-09-06T12:55:36Z</time>
      </trkpt>
      <trkpt lat="46.15118" lon="4.5063">
        <ele>720.8</ele>
        <time>2025-09-06T12:55:37Z</time>
      </trkpt>
      <trkpt lat="46.15119" lon="4.50627">
        <ele>721.2</ele>
        <time>2025-09-06T12:55:38Z</time>
      </trkpt>
      <trkpt lat="46.15121" lon="4.50623">
        <ele>721.2</ele>
        <time>2025-09-06T12:55:39Z</time>
      </trkpt>
      <trkpt lat="46.15122" lon="4.50621">
        <ele>721.6</ele>
        <time>2025-09-06T12:55:40Z</time>
      </trkpt>
      <trkpt lat="46.15124" lon="4.50618">
        <ele>721.6</ele>
        <time>2025-09-06T12:55:41Z</time>
      </trkpt>
      <trkpt lat="46.15125" lon="4.50615">
        <ele>721.6</ele>
        <time>2025-09-06T12:55:42Z</time>
      </trkpt>
      <trkpt lat="46.15127" lon="4.50612">
        <ele>721.6</ele>
        <time>2025-09-06T12:55:43Z</time>
      </trkpt>
      <trkpt lat="46.15128" lon="4.50609">
        <ele>721.8</ele>
        <time>2025-09-06T12:55:44Z</time>
      </trkpt>
      <trkpt lat="46.15129" lon="4.50606">
        <ele>721.8</ele>
        <time>2025-09-06T12:55:45Z</time>
      </trkpt>
      <trkpt lat="46.15131" lon="4.50603">
        <ele>722</ele>
        <time>2025-09-06T12:55:46Z</time>
      </trkpt>
      <trkpt lat="46.15132" lon="4.506">
        <ele>722</ele>
        <time>2025-09-06T12:55:47Z</time>
      </trkpt>
      <trkpt lat="46.15133" lon="4.50597">
        <ele>722.2</ele>
        <time>2025-09-06T12:55:48Z</time>
      </trkpt>
      <trkpt lat="46.15134" lon="4.50594">
        <ele>722.2</ele>
        <time>2025-09-06T12:55:49Z</time>
      </trkpt>
      <trkpt lat="46.15135" lon="4.50591">
        <ele>722.2</ele>
        <time>2025-09-06T12:55:50Z</time>
      </trkpt>
      <trkpt lat="46.15136" lon="4.50587">
        <ele>722.6</ele>
        <time>2025-09-06T12:55:51Z</time>
      </trkpt>
      <trkpt lat="46.15137" lon="4.50584">
        <ele>722.6</ele>
        <time>2025-09-06T12:55:52Z</time>
      </trkpt>
      <trkpt lat="46.15138" lon="4.50581">
        <ele>722.8</ele>
        <time>2025-09-06T12:55:53Z</time>
      </trkpt>
      <trkpt lat="46.15139" lon="4.50578">
        <ele>722.8</ele>
        <time>2025-09-06T12:55:54Z</time>
      </trkpt>
      <trkpt lat="46.1514" lon="4.50575">
        <ele>722.8</ele>
        <time>2025-09-06T12:55:55Z</time>
      </trkpt>
      <trkpt lat="46.15142" lon="4.50573">
        <ele>722.6</ele>
        <time>2025-09-06T12:55:56Z</time>
      </trkpt>
      <trkpt lat="46.15143" lon="4.50571">
        <ele>722.6</ele>
        <time>2025-09-06T12:55:57Z</time>
      </trkpt>
      <trkpt lat="46.15143" lon="4.50571">
        <ele>722.6</ele>
        <time>2025-09-06T12:55:58Z</time>
      </trkpt>
      <trkpt lat="46.15143" lon="4.50571">
        <ele>722.8</ele>
        <time>2025-09-06T12:55:59Z</time>
      </trkpt>
      <trkpt lat="46.15143" lon="4.50572">
        <ele>722.8</ele>
        <time>2025-09-06T12:56:00Z</time>
      </trkpt>
      <trkpt lat="46.15144" lon="4.5057">
        <ele>723.6</ele>
        <time>2025-09-06T12:56:06Z</time>
      </trkpt>
      <trkpt lat="46.15144" lon="4.5057">
        <ele>723.6</ele>
        <time>2025-09-06T12:56:07Z</time>
      </trkpt>
      <trkpt lat="46.15145" lon="4.5057">
        <ele>723.6</ele>
        <time>2025-09-06T12:56:08Z</time>
      </trkpt>
      <trkpt lat="46.15146" lon="4.50571">
        <ele>724</ele>
        <time>2025-09-06T12:56:09Z</time>
      </trkpt>
      <trkpt lat="46.15147" lon="4.50571">
        <ele>724.4</ele>
        <time>2025-09-06T12:56:10Z</time>
      </trkpt>
      <trkpt lat="46.15148" lon="4.50572">
        <ele>724</ele>
        <time>2025-09-06T12:56:11Z</time>
      </trkpt>
      <trkpt lat="46.15149" lon="4.50573">
        <ele>724</ele>
        <time>2025-09-06T12:56:12Z</time>
      </trkpt>
      <trkpt lat="46.15149" lon="4.50573">
        <ele>724</ele>
        <time>2025-09-06T12:56:13Z</time>
      </trkpt>
      <trkpt lat="46.15149" lon="4.50573">
        <ele>724.2</ele>
        <time>2025-09-06T12:56:14Z</time>
      </trkpt>
      <trkpt lat="46.15149" lon="4.50573">
        <ele>724.6</ele>
        <time>2025-09-06T12:56:15Z</time>
      </trkpt>
      <trkpt lat="46.15148" lon="4.50576">
        <ele>724.8</ele>
        <time>2025-09-06T12:56:33Z</time>
      </trkpt>
      <trkpt lat="46.15148" lon="4.50577">
        <ele>724.8</ele>
        <time>2025-09-06T12:56:34Z</time>
      </trkpt>
      <trkpt lat="46.15148" lon="4.5058">
        <ele>724.8</ele>
        <time>2025-09-06T12:56:35Z</time>
      </trkpt>
      <trkpt lat="46.15148" lon="4.50582">
        <ele>725</ele>
        <time>2025-09-06T12:56:36Z</time>
      </trkpt>
      <trkpt lat="46.15149" lon="4.50582">
        <ele>725</ele>
        <time>2025-09-06T12:56:37Z</time>
      </trkpt>
      <trkpt lat="46.15149" lon="4.50583">
        <ele>724.8</ele>
        <time>2025-09-06T12:56:38Z</time>
      </trkpt>
      <trkpt lat="46.1515" lon="4.50583">
        <ele>724.8</ele>
        <time>2025-09-06T12:56:39Z</time>
      </trkpt>
      <trkpt lat="46.15145" lon="4.50578">
        <ele>725</ele>
        <time>2025-09-06T12:58:09Z</time>
      </trkpt>
      <trkpt lat="46.15144" lon="4.50577">
        <ele>725</ele>
        <time>2025-09-06T12:58:10Z</time>
      </trkpt>
      <trkpt lat="46.15144" lon="4.50576">
        <ele>725</ele>
        <time>2025-09-06T12:58:11Z</time>
      </trkpt>
      <trkpt lat="46.15143" lon="4.50575">
        <ele>725</ele>
        <time>2025-09-06T12:58:12Z</time>
      </trkpt>
      <trkpt lat="46.15143" lon="4.50574">
        <ele>724.8</ele>
        <time>2025-09-06T12:58:13Z</time>
      </trkpt>
      <trkpt lat="46.15142" lon="4.50573">
        <ele>724.8</ele>
        <time>2025-09-06T12:58:14Z</time>
      </trkpt>
      <trkpt lat="46.15141" lon="4.50573">
        <ele>724.6</ele>
        <time>2025-09-06T12:58:15Z</time>
      </trkpt>
      <trkpt lat="46.1514" lon="4.50573">
        <ele>724.2</ele>
        <time>2025-09-06T12:58:16Z</time>
      </trkpt>
      <trkpt lat="46.1514" lon="4.50573">
        <ele>723.6</ele>
        <time>2025-09-06T12:58:17Z</time>
      </trkpt>
      <trkpt lat="46.15139" lon="4.50574">
        <ele>723.6</ele>
        <time>2025-09-06T12:58:18Z</time>
      </trkpt>
      <trkpt lat="46.15138" lon="4.50575">
        <ele>723.6</ele>
        <time>2025-09-06T12:58:19Z</time>
      </trkpt>
      <trkpt lat="46.15138" lon="4.50576">
        <ele>723.4</ele>
        <time>2025-09-06T12:58:20Z</time>
      </trkpt>
      <trkpt lat="46.15138" lon="4.50577">
        <ele>723.4</ele>
        <time>2025-09-06T12:58:21Z</time>
      </trkpt>
      <trkpt lat="46.15139" lon="4.50577">
        <ele>723.4</ele>
        <time>2025-09-06T12:58:22Z</time>
      </trkpt>
      <trkpt lat="46.15138" lon="4.50579">
        <ele>723.4</ele>
        <time>2025-09-06T12:58:25Z</time>
      </trkpt>
      <trkpt lat="46.15137" lon="4.5058">
        <ele>723.4</ele>
        <time>2025-09-06T12:58:26Z</time>
      </trkpt>
      <trkpt lat="46.15136" lon="4.50583">
        <ele>723.4</ele>
        <time>2025-09-06T12:58:27Z</time>
      </trkpt>
      <trkpt lat="46.15134" lon="4.50585">
        <ele>723.4</ele>
        <time>2025-09-06T12:58:28Z</time>
      </trkpt>
      <trkpt lat="46.15133" lon="4.50588">
        <ele>723.4</ele>
        <time>2025-09-06T12:58:29Z</time>
      </trkpt>
      <trkpt lat="46.15133" lon="4.50592">
        <ele>723.4</ele>
        <time>2025-09-06T12:58:30Z</time>
      </trkpt>
      <trkpt lat="46.15132" lon="4.50595">
        <ele>723.2</ele>
        <time>2025-09-06T12:58:31Z</time>
      </trkpt>
      <trkpt lat="46.15131" lon="4.50598">
        <ele>723.4</ele>
        <time>2025-09-06T12:58:32Z</time>
      </trkpt>
      <trkpt lat="46.1513" lon="4.50602">
        <ele>723</ele>
        <time>2025-09-06T12:58:33Z</time>
      </trkpt>
      <trkpt lat="46.15129" lon="4.50606">
        <ele>723</ele>
        <time>2025-09-06T12:58:34Z</time>
      </trkpt>
      <trkpt lat="46.15127" lon="4.5061">
        <ele>722.8</ele>
        <time>2025-09-06T12:58:35Z</time>
      </trkpt>
      <trkpt lat="46.15125" lon="4.50615">
        <ele>722.8</ele>
        <time>2025-09-06T12:58:36Z</time>
      </trkpt>
      <trkpt lat="46.15122" lon="4.50619">
        <ele>722.8</ele>
        <time>2025-09-06T12:58:37Z</time>
      </trkpt>
      <trkpt lat="46.1512" lon="4.50624">
        <ele>722.6</ele>
        <time>2025-09-06T12:58:38Z</time>
      </trkpt>
      <trkpt lat="46.15117" lon="4.50629">
        <ele>722.6</ele>
        <time>2025-09-06T12:58:39Z</time>
      </trkpt>
      <trkpt lat="46.15114" lon="4.50634">
        <ele>722.6</ele>
        <time>2025-09-06T12:58:40Z</time>
      </trkpt>
      <trkpt lat="46.15111" lon="4.5064">
        <ele>722.4</ele>
        <time>2025-09-06T12:58:41Z</time>
      </trkpt>
      <trkpt lat="46.15108" lon="4.50646">
        <ele>722.4</ele>
        <time>2025-09-06T12:58:42Z</time>
      </trkpt>
      <trkpt lat="46.15104" lon="4.50652">
        <ele>722</ele>
        <time>2025-09-06T12:58:43Z</time>
      </trkpt>
      <trkpt lat="46.15101" lon="4.50658">
        <ele>722</ele>
        <time>2025-09-06T12:58:44Z</time>
      </trkpt>
      <trkpt lat="46.15097" lon="4.50665">
        <ele>722</ele>
        <time>2025-09-06T12:58:45Z</time>
      </trkpt>
      <trkpt lat="46.15094" lon="4.50672">
        <ele>721.8</ele>
        <time>2025-09-06T12:58:46Z</time>
      </trkpt>
      <trkpt lat="46.1509" lon="4.50679">
        <ele>721.2</ele>
        <time>2025-09-06T12:58:47Z</time>
      </trkpt>
      <trkpt lat="46.15086" lon="4.50686">
        <ele>721.2</ele>
        <time>2025-09-06T12:58:48Z</time>
      </trkpt>
      <trkpt lat="46.15083" lon="4.50694">
        <ele>720.8</ele>
        <time>2025-09-06T12:58:49Z</time>
      </trkpt>
      <trkpt lat="46.1508" lon="4.50702">
        <ele>720.8</ele>
        <time>2025-09-06T12:58:50Z</time>
      </trkpt>
      <trkpt lat="46.15077" lon="4.50709">
        <ele>720.6</ele>
        <time>2025-09-06T12:58:51Z</time>
      </trkpt>
      <trkpt lat="46.15074" lon="4.50717">
        <ele>720.4</ele>
        <time>2025-09-06T12:58:52Z</time>
      </trkpt>
      <trkpt lat="46.1507" lon="4.50725">
        <ele>720.4</ele>
        <time>2025-09-06T12:58:53Z</time>
      </trkpt>
      <trkpt lat="46.15068" lon="4.50733">
        <ele>720.4</ele>
        <time>2025-09-06T12:58:54Z</time>
      </trkpt>
      <trkpt lat="46.15065" lon="4.5074">
        <ele>720.4</ele>
        <time>2025-09-06T12:58:55Z</time>
      </trkpt>
      <trkpt lat="46.15063" lon="4.50748">
        <ele>720.2</ele>
        <time>2025-09-06T12:58:56Z</time>
      </trkpt>
      <trkpt lat="46.15061" lon="4.50757">
        <ele>720.2</ele>
        <time>2025-09-06T12:58:57Z</time>
      </trkpt>
      <trkpt lat="46.1506" lon="4.50766">
        <ele>720.2</ele>
        <time>2025-09-06T12:58:58Z</time>
      </trkpt>
      <trkpt lat="46.15058" lon="4.50774">
        <ele>720.2</ele>
        <time>2025-09-06T12:58:59Z</time>
      </trkpt>
      <trkpt lat="46.15057" lon="4.50782">
        <ele>719.8</ele>
        <time>2025-09-06T12:59:00Z</time>
      </trkpt>
      <trkpt lat="46.15056" lon="4.5079">
        <ele>719.6</ele>
        <time>2025-09-06T12:59:01Z</time>
      </trkpt>
      <trkpt lat="46.15055" lon="4.50798">
        <ele>719.6</ele>
        <time>2025-09-06T12:59:02Z</time>
      </trkpt>
      <trkpt lat="46.15054" lon="4.50807">
        <ele>719.6</ele>
        <time>2025-09-06T12:59:03Z</time>
      </trkpt>
      <trkpt lat="46.15054" lon="4.50815">
        <ele>719.4</ele>
        <time>2025-09-06T12:59:04Z</time>
      </trkpt>
      <trkpt lat="46.15053" lon="4.50823">
        <ele>719.2</ele>
        <time>2025-09-06T12:59:05Z</time>
      </trkpt>
      <trkpt lat="46.15052" lon="4.50831">
        <ele>719.2</ele>
        <time>2025-09-06T12:59:06Z</time>
      </trkpt>
      <trkpt lat="46.15053" lon="4.50839">
        <ele>719.2</ele>
        <time>2025-09-06T12:59:07Z</time>
      </trkpt>
      <trkpt lat="46.15053" lon="4.50847">
        <ele>718.8</ele>
        <time>2025-09-06T12:59:08Z</time>
      </trkpt>
      <trkpt lat="46.15055" lon="4.50855">
        <ele>718.8</ele>
        <time>2025-09-06T12:59:09Z</time>
      </trkpt>
      <trkpt lat="46.15057" lon="4.50862">
        <ele>718.4</ele>
        <time>2025-09-06T12:59:10Z</time>
      </trkpt>
      <trkpt lat="46.1506" lon="4.50868">
        <ele>718.4</ele>
        <time>2025-09-06T12:59:11Z</time>
      </trkpt>
      <trkpt lat="46.15062" lon="4.50873">
        <ele>718</ele>
        <time>2025-09-06T12:59:12Z</time>
      </trkpt>
      <trkpt lat="46.15065" lon="4.50877">
        <ele>717.6</ele>
        <time>2025-09-06T12:59:13Z</time>
      </trkpt>
      <trkpt lat="46.15068" lon="4.50881">
        <ele>717.6</ele>
        <time>2025-09-06T12:59:14Z</time>
      </trkpt>
      <trkpt lat="46.15071" lon="4.50885">
        <ele>717</ele>
        <time>2025-09-06T12:59:15Z</time>
      </trkpt>
      <trkpt lat="46.15072" lon="4.50886">
        <ele>716.8</ele>
        <time>2025-09-06T12:59:16Z</time>
      </trkpt>
      <trkpt lat="46.15074" lon="4.50889">
        <ele>716.4</ele>
        <time>2025-09-06T12:59:17Z</time>
      </trkpt>
      <trkpt lat="46.15076" lon="4.5089">
        <ele>716</ele>
        <time>2025-09-06T12:59:18Z</time>
      </trkpt>
      <trkpt lat="46.15077" lon="4.50892">
        <ele>715.6</ele>
        <time>2025-09-06T12:59:19Z</time>
      </trkpt>
      <trkpt lat="46.15078" lon="4.50893">
        <ele>715.4</ele>
        <time>2025-09-06T12:59:20Z</time>
      </trkpt>
      <trkpt lat="46.1508" lon="4.50895">
        <ele>715.4</ele>
        <time>2025-09-06T12:59:21Z</time>
      </trkpt>
      <trkpt lat="46.15081" lon="4.50896">
        <ele>714.6</ele>
        <time>2025-09-06T12:59:22Z</time>
      </trkpt>
      <trkpt lat="46.15083" lon="4.50898">
        <ele>714.4</ele>
        <time>2025-09-06T12:59:23Z</time>
      </trkpt>
      <trkpt lat="46.15085" lon="4.509">
        <ele>714.6</ele>
        <time>2025-09-06T12:59:24Z</time>
      </trkpt>
      <trkpt lat="46.15086" lon="4.50902">
        <ele>714.6</ele>
        <time>2025-09-06T12:59:25Z</time>
      </trkpt>
      <trkpt lat="46.15088" lon="4.50905">
        <ele>714.2</ele>
        <time>2025-09-06T12:59:26Z</time>
      </trkpt>
      <trkpt lat="46.15089" lon="4.50907">
        <ele>714.2</ele>
        <time>2025-09-06T12:59:27Z</time>
      </trkpt>
      <trkpt lat="46.1509" lon="4.50909">
        <ele>713.6</ele>
        <time>2025-09-06T12:59:28Z</time>
      </trkpt>
      <trkpt lat="46.15092" lon="4.50911">
        <ele>713.6</ele>
        <time>2025-09-06T12:59:29Z</time>
      </trkpt>
      <trkpt lat="46.15093" lon="4.50913">
        <ele>713.6</ele>
        <time>2025-09-06T12:59:30Z</time>
      </trkpt>
      <trkpt lat="46.15095" lon="4.50916">
        <ele>713.4</ele>
        <time>2025-09-06T12:59:31Z</time>
      </trkpt>
      <trkpt lat="46.15098" lon="4.50919">
        <ele>713.4</ele>
        <time>2025-09-06T12:59:32Z</time>
      </trkpt>
      <trkpt lat="46.15101" lon="4.50923">
        <ele>712.8</ele>
        <time>2025-09-06T12:59:33Z</time>
      </trkpt>
      <trkpt lat="46.15104" lon="4.50926">
        <ele>712.4</ele>
        <time>2025-09-06T12:59:34Z</time>
      </trkpt>
      <trkpt lat="46.15107" lon="4.50929">
        <ele>712</ele>
        <time>2025-09-06T12:59:35Z</time>
      </trkpt>
      <trkpt lat="46.15109" lon="4.50932">
        <ele>711.8</ele>
        <time>2025-09-06T12:59:36Z</time>
      </trkpt>
      <trkpt lat="46.15112" lon="4.50936">
        <ele>711.2</ele>
        <time>2025-09-06T12:59:37Z</time>
      </trkpt>
      <trkpt lat="46.15114" lon="4.5094">
        <ele>710.8</ele>
        <time>2025-09-06T12:59:38Z</time>
      </trkpt>
      <trkpt lat="46.15118" lon="4.50945">
        <ele>710.2</ele>
        <time>2025-09-06T12:59:39Z</time>
      </trkpt>
      <trkpt lat="46.15121" lon="4.50951">
        <ele>709.6</ele>
        <time>2025-09-06T12:59:40Z</time>
      </trkpt>
      <trkpt lat="46.15126" lon="4.50958">
        <ele>709.2</ele>
        <time>2025-09-06T12:59:41Z</time>
      </trkpt>
      <trkpt lat="46.1513" lon="4.50964">
        <ele>708.6</ele>
        <time>2025-09-06T12:59:42Z</time>
      </trkpt>
      <trkpt lat="46.15135" lon="4.50971">
        <ele>707.8</ele>
        <time>2025-09-06T12:59:43Z</time>
      </trkpt>
      <trkpt lat="46.15139" lon="4.50976">
        <ele>707</ele>
        <time>2025-09-06T12:59:44Z</time>
      </trkpt>
      <trkpt lat="46.15142" lon="4.5098">
        <ele>706.2</ele>
        <time>2025-09-06T12:59:45Z</time>
      </trkpt>
      <trkpt lat="46.15145" lon="4.50984">
        <ele>705.6</ele>
        <time>2025-09-06T12:59:46Z</time>
      </trkpt>
      <trkpt lat="46.15146" lon="4.50986">
        <ele>705</ele>
        <time>2025-09-06T12:59:47Z</time>
      </trkpt>
      <trkpt lat="46.15147" lon="4.50987">
        <ele>704.6</ele>
        <time>2025-09-06T12:59:48Z</time>
      </trkpt>
      <trkpt lat="46.15148" lon="4.50989">
        <ele>704</ele>
        <time>2025-09-06T12:59:49Z</time>
      </trkpt>
      <trkpt lat="46.15148" lon="4.5099">
        <ele>703.6</ele>
        <time>2025-09-06T12:59:50Z</time>
      </trkpt>
      <trkpt lat="46.15149" lon="4.5099">
        <ele>703.6</ele>
        <time>2025-09-06T12:59:51Z</time>
      </trkpt>
      <trkpt lat="46.15149" lon="4.5099">
        <ele>703.2</ele>
        <time>2025-09-06T12:59:52Z</time>
      </trkpt>
      <trkpt lat="46.15149" lon="4.50989">
        <ele>703</ele>
        <time>2025-09-06T12:59:53Z</time>
      </trkpt>
      <trkpt lat="46.1515" lon="4.50989">
        <ele>702.4</ele>
        <time>2025-09-06T13:00:59Z</time>
      </trkpt>
      <trkpt lat="46.15152" lon="4.50991">
        <ele>702.4</ele>
        <time>2025-09-06T13:01:00Z</time>
      </trkpt>
      <trkpt lat="46.15154" lon="4.50993">
        <ele>702</ele>
        <time>2025-09-06T13:01:01Z</time>
      </trkpt>
      <trkpt lat="46.15156" lon="4.50996">
        <ele>701.6</ele>
        <time>2025-09-06T13:01:02Z</time>
      </trkpt>
      <trkpt lat="46.15159" lon="4.50998">
        <ele>701.6</ele>
        <time>2025-09-06T13:01:03Z</time>
      </trkpt>
      <trkpt lat="46.15162" lon="4.51001">
        <ele>701.2</ele>
        <time>2025-09-06T13:01:04Z</time>
      </trkpt>
      <trkpt lat="46.15165" lon="4.51003">
        <ele>700.6</ele>
        <time>2025-09-06T13:01:05Z</time>
      </trkpt>
      <trkpt lat="46.15167" lon="4.51006">
        <ele>700.4</ele>
        <time>2025-09-06T13:01:06Z</time>
      </trkpt>
      <trkpt lat="46.1517" lon="4.5101">
        <ele>700</ele>
        <time>2025-09-06T13:01:07Z</time>
      </trkpt>
      <trkpt lat="46.15178" lon="4.51019">
        <ele>699.6</ele>
        <time>2025-09-06T13:01:08Z</time>
      </trkpt>
      <trkpt lat="46.15184" lon="4.51024">
        <ele>699</ele>
        <time>2025-09-06T13:01:09Z</time>
      </trkpt>
      <trkpt lat="46.1519" lon="4.5103">
        <ele>698.4</ele>
        <time>2025-09-06T13:01:10Z</time>
      </trkpt>
      <trkpt lat="46.15199" lon="4.51036">
        <ele>697.4</ele>
        <time>2025-09-06T13:01:11Z</time>
      </trkpt>
      <trkpt lat="46.15212" lon="4.51045">
        <ele>696.4</ele>
        <time>2025-09-06T13:01:12Z</time>
      </trkpt>
      <trkpt lat="46.15219" lon="4.51051">
        <ele>695.4</ele>
        <time>2025-09-06T13:01:13Z</time>
      </trkpt>
      <trkpt lat="46.15226" lon="4.51058">
        <ele>694.2</ele>
        <time>2025-09-06T13:01:14Z</time>
      </trkpt>
      <trkpt lat="46.1523" lon="4.51063">
        <ele>693.2</ele>
        <time>2025-09-06T13:01:15Z</time>
      </trkpt>
      <trkpt lat="46.15235" lon="4.51071">
        <ele>692.4</ele>
        <time>2025-09-06T13:01:16Z</time>
      </trkpt>
      <trkpt lat="46.1524" lon="4.51078">
        <ele>691.4</ele>
        <time>2025-09-06T13:01:17Z</time>
      </trkpt>
      <trkpt lat="46.15245" lon="4.51086">
        <ele>690.8</ele>
        <time>2025-09-06T13:01:18Z</time>
      </trkpt>
      <trkpt lat="46.15248" lon="4.51091">
        <ele>689.8</ele>
        <time>2025-09-06T13:01:19Z</time>
      </trkpt>
      <trkpt lat="46.15253" lon="4.51099">
        <ele>689</ele>
        <time>2025-09-06T13:01:20Z</time>
      </trkpt>
      <trkpt lat="46.15257" lon="4.51107">
        <ele>688.2</ele>
        <time>2025-09-06T13:01:21Z</time>
      </trkpt>
      <trkpt lat="46.15261" lon="4.51114">
        <ele>687.4</ele>
        <time>2025-09-06T13:01:22Z</time>
      </trkpt>
      <trkpt lat="46.15265" lon="4.51122">
        <ele>686.8</ele>
        <time>2025-09-06T13:01:23Z</time>
      </trkpt>
      <trkpt lat="46.15269" lon="4.51129">
        <ele>686.2</ele>
        <time>2025-09-06T13:01:24Z</time>
      </trkpt>
      <trkpt lat="46.15271" lon="4.51141">
        <ele>685.4</ele>
        <time>2025-09-06T13:01:25Z</time>
      </trkpt>
      <trkpt lat="46.15274" lon="4.5115">
        <ele>684.4</ele>
        <time>2025-09-06T13:01:26Z</time>
      </trkpt>
      <trkpt lat="46.15277" lon="4.51161">
        <ele>683.6</ele>
        <time>2025-09-06T13:01:27Z</time>
      </trkpt>
      <trkpt lat="46.15279" lon="4.51171">
        <ele>682.6</ele>
        <time>2025-09-06T13:01:28Z</time>
      </trkpt>
      <trkpt lat="46.15282" lon="4.5118">
        <ele>682.6</ele>
        <time>2025-09-06T13:01:29Z</time>
      </trkpt>
      <trkpt lat="46.15284" lon="4.51192">
        <ele>682.2</ele>
        <time>2025-09-06T13:01:30Z</time>
      </trkpt>
      <trkpt lat="46.15288" lon="4.51201">
        <ele>682.2</ele>
        <time>2025-09-06T13:01:31Z</time>
      </trkpt>
      <trkpt lat="46.15291" lon="4.51209">
        <ele>682</ele>
        <time>2025-09-06T13:01:32Z</time>
      </trkpt>
      <trkpt lat="46.15295" lon="4.51217">
        <ele>682</ele>
        <time>2025-09-06T13:01:33Z</time>
      </trkpt>
      <trkpt lat="46.15299" lon="4.51223">
        <ele>681.6</ele>
        <time>2025-09-06T13:01:34Z</time>
      </trkpt>
      <trkpt lat="46.15302" lon="4.51229">
        <ele>681.6</ele>
        <time>2025-09-06T13:01:35Z</time>
      </trkpt>
      <trkpt lat="46.15306" lon="4.51236">
        <ele>681.6</ele>
        <time>2025-09-06T13:01:36Z</time>
      </trkpt>
      <trkpt lat="46.1531" lon="4.51242">
        <ele>681.6</ele>
        <time>2025-09-06T13:01:37Z</time>
      </trkpt>
      <trkpt lat="46.15315" lon="4.51248">
        <ele>682</ele>
        <time>2025-09-06T13:01:38Z</time>
      </trkpt>
      <trkpt lat="46.15319" lon="4.51253">
        <ele>682</ele>
        <time>2025-09-06T13:01:39Z</time>
      </trkpt>
      <trkpt lat="46.15323" lon="4.51257">
        <ele>682.2</ele>
        <time>2025-09-06T13:01:40Z</time>
      </trkpt>
      <trkpt lat="46.15327" lon="4.51263">
        <ele>682.2</ele>
        <time>2025-09-06T13:01:41Z</time>
      </trkpt>
      <trkpt lat="46.15331" lon="4.51267">
        <ele>682.2</ele>
        <time>2025-09-06T13:01:42Z</time>
      </trkpt>
      <trkpt lat="46.15334" lon="4.51271">
        <ele>682.6</ele>
        <time>2025-09-06T13:01:43Z</time>
      </trkpt>
      <trkpt lat="46.15338" lon="4.51276">
        <ele>682.8</ele>
        <time>2025-09-06T13:01:44Z</time>
      </trkpt>
      <trkpt lat="46.15341" lon="4.51279">
        <ele>683.2</ele>
        <time>2025-09-06T13:01:45Z</time>
      </trkpt>
      <trkpt lat="46.15344" lon="4.51282">
        <ele>683.2</ele>
        <time>2025-09-06T13:01:46Z</time>
      </trkpt>
      <trkpt lat="46.15346" lon="4.51284">
        <ele>683.4</ele>
        <time>2025-09-06T13:01:47Z</time>
      </trkpt>
      <trkpt lat="46.15349" lon="4.51288">
        <ele>683.4</ele>
        <time>2025-09-06T13:01:48Z</time>
      </trkpt>
      <trkpt lat="46.15352" lon="4.51289">
        <ele>683.4</ele>
        <time>2025-09-06T13:01:49Z</time>
      </trkpt>
      <trkpt lat="46.15357" lon="4.51293">
        <ele>683.4</ele>
        <time>2025-09-06T13:01:50Z</time>
      </trkpt>
      <trkpt lat="46.1536" lon="4.51295">
        <ele>683.4</ele>
        <time>2025-09-06T13:01:51Z</time>
      </trkpt>
      <trkpt lat="46.15364" lon="4.51297">
        <ele>683.4</ele>
        <time>2025-09-06T13:01:52Z</time>
      </trkpt>
      <trkpt lat="46.15369" lon="4.513">
        <ele>683.4</ele>
        <time>2025-09-06T13:01:53Z</time>
      </trkpt>
      <trkpt lat="46.15372" lon="4.51301">
        <ele>683.4</ele>
        <time>2025-09-06T13:01:54Z</time>
      </trkpt>
      <trkpt lat="46.15374" lon="4.51303">
        <ele>683.8</ele>
        <time>2025-09-06T13:01:55Z</time>
      </trkpt>
      <trkpt lat="46.15378" lon="4.51307">
        <ele>683.8</ele>
        <time>2025-09-06T13:01:56Z</time>
      </trkpt>
      <trkpt lat="46.15381" lon="4.51311">
        <ele>683.8</ele>
        <time>2025-09-06T13:01:57Z</time>
      </trkpt>
      <trkpt lat="46.15385" lon="4.51315">
        <ele>683.8</ele>
        <time>2025-09-06T13:01:58Z</time>
      </trkpt>
      <trkpt lat="46.15387" lon="4.51319">
        <ele>683.8</ele>
        <time>2025-09-06T13:01:59Z</time>
      </trkpt>
      <trkpt lat="46.1539" lon="4.51324">
        <ele>684</ele>
        <time>2025-09-06T13:02:00Z</time>
      </trkpt>
      <trkpt lat="46.15393" lon="4.51327">
        <ele>684</ele>
        <time>2025-09-06T13:02:01Z</time>
      </trkpt>
      <trkpt lat="46.15395" lon="4.51331">
        <ele>683.2</ele>
        <time>2025-09-06T13:02:02Z</time>
      </trkpt>
      <trkpt lat="46.15397" lon="4.51335">
        <ele>683.2</ele>
        <time>2025-09-06T13:02:03Z</time>
      </trkpt>
      <trkpt lat="46.154" lon="4.51338">
        <ele>683.4</ele>
        <time>2025-09-06T13:02:04Z</time>
      </trkpt>
      <trkpt lat="46.15403" lon="4.51341">
        <ele>683.6</ele>
        <time>2025-09-06T13:02:05Z</time>
      </trkpt>
      <trkpt lat="46.15405" lon="4.51344">
        <ele>683.6</ele>
        <time>2025-09-06T13:02:06Z</time>
      </trkpt>
      <trkpt lat="46.15408" lon="4.51349">
        <ele>683.4</ele>
        <time>2025-09-06T13:02:07Z</time>
      </trkpt>
      <trkpt lat="46.1541" lon="4.51353">
        <ele>683.4</ele>
        <time>2025-09-06T13:02:08Z</time>
      </trkpt>
      <trkpt lat="46.15412" lon="4.51358">
        <ele>683.4</ele>
        <time>2025-09-06T13:02:09Z</time>
      </trkpt>
      <trkpt lat="46.15415" lon="4.51363">
        <ele>683.4</ele>
        <time>2025-09-06T13:02:10Z</time>
      </trkpt>
      <trkpt lat="46.15418" lon="4.51368">
        <ele>683.4</ele>
        <time>2025-09-06T13:02:11Z</time>
      </trkpt>
      <trkpt lat="46.1542" lon="4.51372">
        <ele>683.2</ele>
        <time>2025-09-06T13:02:12Z</time>
      </trkpt>
      <trkpt lat="46.15421" lon="4.51375">
        <ele>683.2</ele>
        <time>2025-09-06T13:02:13Z</time>
      </trkpt>
      <trkpt lat="46.15421" lon="4.51377">
        <ele>683.2</ele>
        <time>2025-09-06T13:02:14Z</time>
      </trkpt>
      <trkpt lat="46.15422" lon="4.51378">
        <ele>683.2</ele>
        <time>2025-09-06T13:02:15Z</time>
      </trkpt>
      <trkpt lat="46.15423" lon="4.51378">
        <ele>683.2</ele>
        <time>2025-09-06T13:02:16Z</time>
      </trkpt>
      <trkpt lat="46.15423" lon="4.51378">
        <ele>683.2</ele>
        <time>2025-09-06T13:02:17Z</time>
      </trkpt>
      <trkpt lat="46.15424" lon="4.51378">
        <ele>683.2</ele>
        <time>2025-09-06T13:02:18Z</time>
      </trkpt>
      <trkpt lat="46.15424" lon="4.51378">
        <ele>683.2</ele>
        <time>2025-09-06T13:02:19Z</time>
      </trkpt>
      <trkpt lat="46.15423" lon="4.51379">
        <ele>683.2</ele>
        <time>2025-09-06T13:02:20Z</time>
      </trkpt>
      <trkpt lat="46.15423" lon="4.51374">
        <ele>683.2</ele>
        <time>2025-09-06T13:02:24Z</time>
      </trkpt>
      <trkpt lat="46.15422" lon="4.51373">
        <ele>683.2</ele>
        <time>2025-09-06T13:02:25Z</time>
      </trkpt>
      <trkpt lat="46.15421" lon="4.51372">
        <ele>683.2</ele>
        <time>2025-09-06T13:02:26Z</time>
      </trkpt>
      <trkpt lat="46.1542" lon="4.51371">
        <ele>683.2</ele>
        <time>2025-09-06T13:02:27Z</time>
      </trkpt>
      <trkpt lat="46.15419" lon="4.5137">
        <ele>683.2</ele>
        <time>2025-09-06T13:02:28Z</time>
      </trkpt>
      <trkpt lat="46.15418" lon="4.51368">
        <ele>683.2</ele>
        <time>2025-09-06T13:02:29Z</time>
      </trkpt>
      <trkpt lat="46.15417" lon="4.51366">
        <ele>683.2</ele>
        <time>2025-09-06T13:02:30Z</time>
      </trkpt>
      <trkpt lat="46.15416" lon="4.51365">
        <ele>683.2</ele>
        <time>2025-09-06T13:02:31Z</time>
      </trkpt>
      <trkpt lat="46.15416" lon="4.51363">
        <ele>683.2</ele>
        <time>2025-09-06T13:02:32Z</time>
      </trkpt>
      <trkpt lat="46.15415" lon="4.51362">
        <ele>683.4</ele>
        <time>2025-09-06T13:02:33Z</time>
      </trkpt>
      <trkpt lat="46.15414" lon="4.51361">
        <ele>683.4</ele>
        <time>2025-09-06T13:02:34Z</time>
      </trkpt>
      <trkpt lat="46.15413" lon="4.51359">
        <ele>683.4</ele>
        <time>2025-09-06T13:02:35Z</time>
      </trkpt>
      <trkpt lat="46.15412" lon="4.51358">
        <ele>683.4</ele>
        <time>2025-09-06T13:02:36Z</time>
      </trkpt>
      <trkpt lat="46.15411" lon="4.51359">
        <ele>683.4</ele>
        <time>2025-09-06T13:02:37Z</time>
      </trkpt>
      <trkpt lat="46.15411" lon="4.51359">
        <ele>683.4</ele>
        <time>2025-09-06T13:02:38Z</time>
      </trkpt>
      <trkpt lat="46.15411" lon="4.5136">
        <ele>683.4</ele>
        <time>2025-09-06T13:02:39Z</time>
      </trkpt>
      <trkpt lat="46.15412" lon="4.51364">
        <ele>683.2</ele>
        <time>2025-09-06T13:02:47Z</time>
      </trkpt>
      <trkpt lat="46.15413" lon="4.51366">
        <ele>683.2</ele>
        <time>2025-09-06T13:02:48Z</time>
      </trkpt>
      <trkpt lat="46.15415" lon="4.51367">
        <ele>683.2</ele>
        <time>2025-09-06T13:02:49Z</time>
      </trkpt>
      <trkpt lat="46.15417" lon="4.51368">
        <ele>683.2</ele>
        <time>2025-09-06T13:02:50Z</time>
      </trkpt>
      <trkpt lat="46.15419" lon="4.51372">
        <ele>683.2</ele>
        <time>2025-09-06T13:02:51Z</time>
      </trkpt>
      <trkpt lat="46.1542" lon="4.51374">
        <ele>683.2</ele>
        <time>2025-09-06T13:02:52Z</time>
      </trkpt>
      <trkpt lat="46.15421" lon="4.51377">
        <ele>683.2</ele>
        <time>2025-09-06T13:02:53Z</time>
      </trkpt>
      <trkpt lat="46.15423" lon="4.51382">
        <ele>683.2</ele>
        <time>2025-09-06T13:02:54Z</time>
      </trkpt>
      <trkpt lat="46.15424" lon="4.51387">
        <ele>682.8</ele>
        <time>2025-09-06T13:02:55Z</time>
      </trkpt>
      <trkpt lat="46.15426" lon="4.51393">
        <ele>682.8</ele>
        <time>2025-09-06T13:02:56Z</time>
      </trkpt>
      <trkpt lat="46.15427" lon="4.51399">
        <ele>682.6</ele>
        <time>2025-09-06T13:02:57Z</time>
      </trkpt>
      <trkpt lat="46.15429" lon="4.51405">
        <ele>682.6</ele>
        <time>2025-09-06T13:02:58Z</time>
      </trkpt>
      <trkpt lat="46.15431" lon="4.5141">
        <ele>682.2</ele>
        <time>2025-09-06T13:02:59Z</time>
      </trkpt>
      <trkpt lat="46.15432" lon="4.51417">
        <ele>682</ele>
        <time>2025-09-06T13:03:00Z</time>
      </trkpt>
      <trkpt lat="46.15433" lon="4.51424">
        <ele>681.8</ele>
        <time>2025-09-06T13:03:01Z</time>
      </trkpt>
      <trkpt lat="46.15434" lon="4.51432">
        <ele>681.4</ele>
        <time>2025-09-06T13:03:02Z</time>
      </trkpt>
      <trkpt lat="46.15435" lon="4.51439">
        <ele>680.8</ele>
        <time>2025-09-06T13:03:03Z</time>
      </trkpt>
      <trkpt lat="46.15436" lon="4.51447">
        <ele>680.2</ele>
        <time>2025-09-06T13:03:04Z</time>
      </trkpt>
      <trkpt lat="46.15437" lon="4.51454">
        <ele>679.8</ele>
        <time>2025-09-06T13:03:05Z</time>
      </trkpt>
      <trkpt lat="46.15438" lon="4.51461">
        <ele>679.4</ele>
        <time>2025-09-06T13:03:06Z</time>
      </trkpt>
      <trkpt lat="46.1544" lon="4.51469">
        <ele>679.2</ele>
        <time>2025-09-06T13:03:07Z</time>
      </trkpt>
      <trkpt lat="46.15442" lon="4.51477">
        <ele>679.2</ele>
        <time>2025-09-06T13:03:08Z</time>
      </trkpt>
      <trkpt lat="46.15443" lon="4.51482">
        <ele>678.8</ele>
        <time>2025-09-06T13:03:09Z</time>
      </trkpt>
      <trkpt lat="46.15444" lon="4.51489">
        <ele>678.6</ele>
        <time>2025-09-06T13:03:10Z</time>
      </trkpt>
      <trkpt lat="46.15446" lon="4.51494">
        <ele>678.6</ele>
        <time>2025-09-06T13:03:11Z</time>
      </trkpt>
      <trkpt lat="46.15447" lon="4.51499">
        <ele>678</ele>
        <time>2025-09-06T13:03:12Z</time>
      </trkpt>
      <trkpt lat="46.15448" lon="4.51504">
        <ele>678</ele>
        <time>2025-09-06T13:03:13Z</time>
      </trkpt>
      <trkpt lat="46.15449" lon="4.51508">
        <ele>677.6</ele>
        <time>2025-09-06T13:03:14Z</time>
      </trkpt>
      <trkpt lat="46.15449" lon="4.51513">
        <ele>677.2</ele>
        <time>2025-09-06T13:03:15Z</time>
      </trkpt>
      <trkpt lat="46.1545" lon="4.51518">
        <ele>677</ele>
        <time>2025-09-06T13:03:16Z</time>
      </trkpt>
      <trkpt lat="46.15452" lon="4.51522">
        <ele>676.4</ele>
        <time>2025-09-06T13:03:17Z</time>
      </trkpt>
      <trkpt lat="46.15452" lon="4.51526">
        <ele>676</ele>
        <time>2025-09-06T13:03:18Z</time>
      </trkpt>
      <trkpt lat="46.15454" lon="4.51531">
        <ele>675.4</ele>
        <time>2025-09-06T13:03:19Z</time>
      </trkpt>
      <trkpt lat="46.15455" lon="4.51537">
        <ele>675.2</ele>
        <time>2025-09-06T13:03:20Z</time>
      </trkpt>
      <trkpt lat="46.15455" lon="4.51541">
        <ele>675</ele>
        <time>2025-09-06T13:03:21Z</time>
      </trkpt>
      <trkpt lat="46.15456" lon="4.51544">
        <ele>675</ele>
        <time>2025-09-06T13:03:22Z</time>
      </trkpt>
      <trkpt lat="46.15456" lon="4.51547">
        <ele>674.6</ele>
        <time>2025-09-06T13:03:23Z</time>
      </trkpt>
      <trkpt lat="46.15457" lon="4.51549">
        <ele>674.6</ele>
        <time>2025-09-06T13:03:24Z</time>
      </trkpt>
      <trkpt lat="46.15458" lon="4.5155">
        <ele>674.2</ele>
        <time>2025-09-06T13:03:25Z</time>
      </trkpt>
      <trkpt lat="46.1546" lon="4.51552">
        <ele>674.2</ele>
        <time>2025-09-06T13:03:26Z</time>
      </trkpt>
      <trkpt lat="46.15461" lon="4.51554">
        <ele>673.8</ele>
        <time>2025-09-06T13:03:27Z</time>
      </trkpt>
      <trkpt lat="46.15462" lon="4.51557">
        <ele>673.8</ele>
        <time>2025-09-06T13:03:28Z</time>
      </trkpt>
      <trkpt lat="46.15464" lon="4.5156">
        <ele>673.8</ele>
        <time>2025-09-06T13:03:29Z</time>
      </trkpt>
      <trkpt lat="46.15465" lon="4.51563">
        <ele>673.8</ele>
        <time>2025-09-06T13:03:30Z</time>
      </trkpt>
      <trkpt lat="46.15468" lon="4.51566">
        <ele>673.6</ele>
        <time>2025-09-06T13:03:31Z</time>
      </trkpt>
      <trkpt lat="46.15471" lon="4.51568">
        <ele>673.6</ele>
        <time>2025-09-06T13:03:32Z</time>
      </trkpt>
      <trkpt lat="46.15474" lon="4.5157">
        <ele>673.2</ele>
        <time>2025-09-06T13:03:33Z</time>
      </trkpt>
      <trkpt lat="46.15478" lon="4.51572">
        <ele>673.2</ele>
        <time>2025-09-06T13:03:34Z</time>
      </trkpt>
      <trkpt lat="46.15482" lon="4.51573">
        <ele>673.2</ele>
        <time>2025-09-06T13:03:35Z</time>
      </trkpt>
      <trkpt lat="46.15486" lon="4.51575">
        <ele>673</ele>
        <time>2025-09-06T13:03:36Z</time>
      </trkpt>
      <trkpt lat="46.1549" lon="4.51579">
        <ele>673</ele>
        <time>2025-09-06T13:03:37Z</time>
      </trkpt>
      <trkpt lat="46.15493" lon="4.51583">
        <ele>672.6</ele>
        <time>2025-09-06T13:03:38Z</time>
      </trkpt>
      <trkpt lat="46.15496" lon="4.51587">
        <ele>672.6</ele>
        <time>2025-09-06T13:03:39Z</time>
      </trkpt>
      <trkpt lat="46.155" lon="4.51589">
        <ele>672.2</ele>
        <time>2025-09-06T13:03:40Z</time>
      </trkpt>
      <trkpt lat="46.15504" lon="4.51594">
        <ele>672.2</ele>
        <time>2025-09-06T13:03:41Z</time>
      </trkpt>
      <trkpt lat="46.15507" lon="4.51597">
        <ele>671.6</ele>
        <time>2025-09-06T13:03:42Z</time>
      </trkpt>
      <trkpt lat="46.15511" lon="4.516">
        <ele>671.4</ele>
        <time>2025-09-06T13:03:43Z</time>
      </trkpt>
      <trkpt lat="46.15516" lon="4.51603">
        <ele>671.4</ele>
        <time>2025-09-06T13:03:44Z</time>
      </trkpt>
      <trkpt lat="46.15519" lon="4.51606">
        <ele>671.6</ele>
        <time>2025-09-06T13:03:45Z</time>
      </trkpt>
      <trkpt lat="46.15523" lon="4.51609">
        <ele>671.4</ele>
        <time>2025-09-06T13:03:46Z</time>
      </trkpt>
      <trkpt lat="46.15526" lon="4.51612">
        <ele>671.8</ele>
        <time>2025-09-06T13:03:47Z</time>
      </trkpt>
      <trkpt lat="46.1553" lon="4.51618">
        <ele>671.8</ele>
        <time>2025-09-06T13:03:48Z</time>
      </trkpt>
      <trkpt lat="46.15532" lon="4.51626">
        <ele>671.8</ele>
        <time>2025-09-06T13:03:49Z</time>
      </trkpt>
      <trkpt lat="46.15534" lon="4.51633">
        <ele>671.4</ele>
        <time>2025-09-06T13:03:50Z</time>
      </trkpt>
      <trkpt lat="46.15534" lon="4.51642">
        <ele>671</ele>
        <time>2025-09-06T13:03:51Z</time>
      </trkpt>
      <trkpt lat="46.15534" lon="4.5165">
        <ele>670.6</ele>
        <time>2025-09-06T13:03:52Z</time>
      </trkpt>
      <trkpt lat="46.15535" lon="4.51658">
        <ele>670.4</ele>
        <time>2025-09-06T13:03:53Z</time>
      </trkpt>
      <trkpt lat="46.15536" lon="4.51666">
        <ele>670.2</ele>
        <time>2025-09-06T13:03:54Z</time>
      </trkpt>
      <trkpt lat="46.15538" lon="4.51675">
        <ele>670.2</ele>
        <time>2025-09-06T13:03:55Z</time>
      </trkpt>
      <trkpt lat="46.15541" lon="4.51681">
        <ele>669.6</ele>
        <time>2025-09-06T13:03:56Z</time>
      </trkpt>
      <trkpt lat="46.15544" lon="4.51687">
        <ele>669.2</ele>
        <time>2025-09-06T13:03:57Z</time>
      </trkpt>
      <trkpt lat="46.15547" lon="4.51692">
        <ele>670</ele>
        <time>2025-09-06T13:03:58Z</time>
      </trkpt>
      <trkpt lat="46.15551" lon="4.51697">
        <ele>670</ele>
        <time>2025-09-06T13:03:59Z</time>
      </trkpt>
      <trkpt lat="46.15553" lon="4.517">
        <ele>670</ele>
        <time>2025-09-06T13:04:00Z</time>
      </trkpt>
      <trkpt lat="46.15555" lon="4.51704">
        <ele>670.4</ele>
        <time>2025-09-06T13:04:01Z</time>
      </trkpt>
      <trkpt lat="46.15558" lon="4.51706">
        <ele>670.4</ele>
        <time>2025-09-06T13:04:02Z</time>
      </trkpt>
      <trkpt lat="46.15558" lon="4.5171">
        <ele>670.8</ele>
        <time>2025-09-06T13:04:03Z</time>
      </trkpt>
      <trkpt lat="46.15561" lon="4.51713">
        <ele>670.8</ele>
        <time>2025-09-06T13:04:04Z</time>
      </trkpt>
      <trkpt lat="46.15563" lon="4.51717">
        <ele>670.8</ele>
        <time>2025-09-06T13:04:05Z</time>
      </trkpt>
      <trkpt lat="46.15563" lon="4.51719">
        <ele>670.8</ele>
        <time>2025-09-06T13:04:06Z</time>
      </trkpt>
      <trkpt lat="46.15565" lon="4.51723">
        <ele>671</ele>
        <time>2025-09-06T13:04:07Z</time>
      </trkpt>
      <trkpt lat="46.15566" lon="4.51726">
        <ele>671.4</ele>
        <time>2025-09-06T13:04:08Z</time>
      </trkpt>
      <trkpt lat="46.15567" lon="4.5173">
        <ele>671.4</ele>
        <time>2025-09-06T13:04:09Z</time>
      </trkpt>
      <trkpt lat="46.15568" lon="4.51733">
        <ele>671.6</ele>
        <time>2025-09-06T13:04:10Z</time>
      </trkpt>
      <trkpt lat="46.15568" lon="4.51737">
        <ele>671.6</ele>
        <time>2025-09-06T13:04:11Z</time>
      </trkpt>
      <trkpt lat="46.15567" lon="4.5174">
        <ele>672</ele>
        <time>2025-09-06T13:04:12Z</time>
      </trkpt>
      <trkpt lat="46.15567" lon="4.51743">
        <ele>672</ele>
        <time>2025-09-06T13:04:13Z</time>
      </trkpt>
      <trkpt lat="46.15567" lon="4.51747">
        <ele>672.4</ele>
        <time>2025-09-06T13:04:14Z</time>
      </trkpt>
      <trkpt lat="46.15567" lon="4.5175">
        <ele>672.4</ele>
        <time>2025-09-06T13:04:15Z</time>
      </trkpt>
      <trkpt lat="46.15567" lon="4.5175">
        <ele>672.6</ele>
        <time>2025-09-06T13:04:16Z</time>
      </trkpt>
      <trkpt lat="46.15566" lon="4.51754">
        <ele>672.6</ele>
        <time>2025-09-06T13:04:17Z</time>
      </trkpt>
      <trkpt lat="46.15566" lon="4.51758">
        <ele>673</ele>
        <time>2025-09-06T13:04:18Z</time>
      </trkpt>
      <trkpt lat="46.15565" lon="4.51761">
        <ele>673.4</ele>
        <time>2025-09-06T13:04:19Z</time>
      </trkpt>
      <trkpt lat="46.15565" lon="4.51765">
        <ele>673.4</ele>
        <time>2025-09-06T13:04:20Z</time>
      </trkpt>
      <trkpt lat="46.15565" lon="4.51768">
        <ele>673.4</ele>
        <time>2025-09-06T13:04:21Z</time>
      </trkpt>
      <trkpt lat="46.15565" lon="4.51771">
        <ele>673.8</ele>
        <time>2025-09-06T13:04:22Z</time>
      </trkpt>
      <trkpt lat="46.15565" lon="4.51774">
        <ele>673.8</ele>
        <time>2025-09-06T13:04:23Z</time>
      </trkpt>
      <trkpt lat="46.15565" lon="4.51777">
        <ele>673.8</ele>
        <time>2025-09-06T13:04:24Z</time>
      </trkpt>
      <trkpt lat="46.15565" lon="4.5178">
        <ele>674.2</ele>
        <time>2025-09-06T13:04:25Z</time>
      </trkpt>
      <trkpt lat="46.15565" lon="4.51782">
        <ele>674.2</ele>
        <time>2025-09-06T13:04:26Z</time>
      </trkpt>
      <trkpt lat="46.15565" lon="4.51785">
        <ele>674.4</ele>
        <time>2025-09-06T13:04:27Z</time>
      </trkpt>
      <trkpt lat="46.15565" lon="4.51787">
        <ele>674.4</ele>
        <time>2025-09-06T13:04:28Z</time>
      </trkpt>
      <trkpt lat="46.15565" lon="4.51789">
        <ele>674.8</ele>
        <time>2025-09-06T13:04:29Z</time>
      </trkpt>
      <trkpt lat="46.15566" lon="4.51791">
        <ele>675.2</ele>
        <time>2025-09-06T13:04:30Z</time>
      </trkpt>
      <trkpt lat="46.15566" lon="4.51793">
        <ele>675.4</ele>
        <time>2025-09-06T13:04:31Z</time>
      </trkpt>
      <trkpt lat="46.15566" lon="4.51795">
        <ele>675.4</ele>
        <time>2025-09-06T13:04:32Z</time>
      </trkpt>
      <trkpt lat="46.15566" lon="4.51797">
        <ele>675.6</ele>
        <time>2025-09-06T13:04:33Z</time>
      </trkpt>
      <trkpt lat="46.15566" lon="4.51799">
        <ele>675.8</ele>
        <time>2025-09-06T13:04:34Z</time>
      </trkpt>
      <trkpt lat="46.15567" lon="4.51801">
        <ele>675.8</ele>
        <time>2025-09-06T13:04:35Z</time>
      </trkpt>
      <trkpt lat="46.15567" lon="4.51803">
        <ele>676</ele>
        <time>2025-09-06T13:04:36Z</time>
      </trkpt>
      <trkpt lat="46.15568" lon="4.51805">
        <ele>676</ele>
        <time>2025-09-06T13:04:37Z</time>
      </trkpt>
      <trkpt lat="46.15569" lon="4.51806">
        <ele>676</ele>
        <time>2025-09-06T13:04:38Z</time>
      </trkpt>
      <trkpt lat="46.1557" lon="4.51809">
        <ele>676.4</ele>
        <time>2025-09-06T13:04:39Z</time>
      </trkpt>
      <trkpt lat="46.1557" lon="4.5181">
        <ele>676.4</ele>
        <time>2025-09-06T13:04:40Z</time>
      </trkpt>
      <trkpt lat="46.1557" lon="4.51812">
        <ele>676.6</ele>
        <time>2025-09-06T13:04:41Z</time>
      </trkpt>
      <trkpt lat="46.1557" lon="4.51815">
        <ele>676.6</ele>
        <time>2025-09-06T13:04:42Z</time>
      </trkpt>
      <trkpt lat="46.1557" lon="4.51817">
        <ele>676.6</ele>
        <time>2025-09-06T13:04:43Z</time>
      </trkpt>
      <trkpt lat="46.1557" lon="4.51819">
        <ele>676.6</ele>
        <time>2025-09-06T13:04:44Z</time>
      </trkpt>
      <trkpt lat="46.1557" lon="4.51821">
        <ele>677.2</ele>
        <time>2025-09-06T13:04:45Z</time>
      </trkpt>
      <trkpt lat="46.15571" lon="4.51824">
        <ele>677.2</ele>
        <time>2025-09-06T13:04:46Z</time>
      </trkpt>
      <trkpt lat="46.15571" lon="4.51829">
        <ele>677.2</ele>
        <time>2025-09-06T13:04:47Z</time>
      </trkpt>
      <trkpt lat="46.15571" lon="4.51832">
        <ele>677.4</ele>
        <time>2025-09-06T13:04:48Z</time>
      </trkpt>
      <trkpt lat="46.15572" lon="4.51835">
        <ele>677.6</ele>
        <time>2025-09-06T13:04:49Z</time>
      </trkpt>
      <trkpt lat="46.15572" lon="4.51839">
        <ele>676.6</ele>
        <time>2025-09-06T13:04:50Z</time>
      </trkpt>
      <trkpt lat="46.15572" lon="4.51839">
        <ele>676.8</ele>
        <time>2025-09-06T13:04:51Z</time>
      </trkpt>
      <trkpt lat="46.15572" lon="4.51839">
        <ele>676.8</ele>
        <time>2025-09-06T13:04:52Z</time>
      </trkpt>
      <trkpt lat="46.15573" lon="4.51859">
        <ele>676.8</ele>
        <time>2025-09-06T13:04:55Z</time>
      </trkpt>
      <trkpt lat="46.15573" lon="4.51865">
        <ele>676.8</ele>
        <time>2025-09-06T13:04:56Z</time>
      </trkpt>
      <trkpt lat="46.15574" lon="4.5187">
        <ele>676.8</ele>
        <time>2025-09-06T13:04:57Z</time>
      </trkpt>
      <trkpt lat="46.15574" lon="4.51874">
        <ele>677.2</ele>
        <time>2025-09-06T13:04:58Z</time>
      </trkpt>
      <trkpt lat="46.15574" lon="4.51878">
        <ele>677.4</ele>
        <time>2025-09-06T13:04:59Z</time>
      </trkpt>
      <trkpt lat="46.15574" lon="4.51883">
        <ele>677.4</ele>
        <time>2025-09-06T13:05:00Z</time>
      </trkpt>
      <trkpt lat="46.15574" lon="4.51887">
        <ele>677.4</ele>
        <time>2025-09-06T13:05:01Z</time>
      </trkpt>
      <trkpt lat="46.15574" lon="4.51891">
        <ele>677.4</ele>
        <time>2025-09-06T13:05:02Z</time>
      </trkpt>
      <trkpt lat="46.15573" lon="4.51896">
        <ele>677.4</ele>
        <time>2025-09-06T13:05:03Z</time>
      </trkpt>
      <trkpt lat="46.15571" lon="4.51901">
        <ele>677.4</ele>
        <time>2025-09-06T13:05:04Z</time>
      </trkpt>
      <trkpt lat="46.1557" lon="4.51907">
        <ele>677</ele>
        <time>2025-09-06T13:05:05Z</time>
      </trkpt>
      <trkpt lat="46.15568" lon="4.51912">
        <ele>677</ele>
        <time>2025-09-06T13:05:06Z</time>
      </trkpt>
      <trkpt lat="46.15567" lon="4.51918">
        <ele>677</ele>
        <time>2025-09-06T13:05:07Z</time>
      </trkpt>
      <trkpt lat="46.15565" lon="4.51923">
        <ele>677</ele>
        <time>2025-09-06T13:05:08Z</time>
      </trkpt>
      <trkpt lat="46.15564" lon="4.51929">
        <ele>677</ele>
        <time>2025-09-06T13:05:09Z</time>
      </trkpt>
      <trkpt lat="46.15562" lon="4.51934">
        <ele>677</ele>
        <time>2025-09-06T13:05:10Z</time>
      </trkpt>
      <trkpt lat="46.15561" lon="4.5194">
        <ele>677</ele>
        <time>2025-09-06T13:05:11Z</time>
      </trkpt>
      <trkpt lat="46.15559" lon="4.51946">
        <ele>676.8</ele>
        <time>2025-09-06T13:05:12Z</time>
      </trkpt>
      <trkpt lat="46.15558" lon="4.51951">
        <ele>676.8</ele>
        <time>2025-09-06T13:05:13Z</time>
      </trkpt>
      <trkpt lat="46.15556" lon="4.51957">
        <ele>676.8</ele>
        <time>2025-09-06T13:05:14Z</time>
      </trkpt>
      <trkpt lat="46.15554" lon="4.51964">
        <ele>676.8</ele>
        <time>2025-09-06T13:05:15Z</time>
      </trkpt>
      <trkpt lat="46.15552" lon="4.51976">
        <ele>676.4</ele>
        <time>2025-09-06T13:05:16Z</time>
      </trkpt>
      <trkpt lat="46.1555" lon="4.51982">
        <ele>676.4</ele>
        <time>2025-09-06T13:05:17Z</time>
      </trkpt>
      <trkpt lat="46.15548" lon="4.51989">
        <ele>676</ele>
        <time>2025-09-06T13:05:18Z</time>
      </trkpt>
      <trkpt lat="46.15546" lon="4.51995">
        <ele>675.6</ele>
        <time>2025-09-06T13:05:19Z</time>
      </trkpt>
      <trkpt lat="46.15544" lon="4.52001">
        <ele>675.2</ele>
        <time>2025-09-06T13:05:20Z</time>
      </trkpt>
      <trkpt lat="46.15542" lon="4.52004">
        <ele>675</ele>
        <time>2025-09-06T13:05:21Z</time>
      </trkpt>
      <trkpt lat="46.1554" lon="4.52007">
        <ele>674.6</ele>
        <time>2025-09-06T13:05:22Z</time>
      </trkpt>
      <trkpt lat="46.1554" lon="4.5201">
        <ele>674.6</ele>
        <time>2025-09-06T13:05:23Z</time>
      </trkpt>
      <trkpt lat="46.1554" lon="4.52011">
        <ele>674.4</ele>
        <time>2025-09-06T13:05:24Z</time>
      </trkpt>
      <trkpt lat="46.1554" lon="4.52011">
        <ele>674.4</ele>
        <time>2025-09-06T13:05:25Z</time>
      </trkpt>
      <trkpt lat="46.1554" lon="4.5201">
        <ele>674.4</ele>
        <time>2025-09-06T13:05:26Z</time>
      </trkpt>
      <trkpt lat="46.15539" lon="4.52011">
        <ele>674.2</ele>
        <time>2025-09-06T13:05:27Z</time>
      </trkpt>
      <trkpt lat="46.15539" lon="4.52013">
        <ele>673.8</ele>
        <time>2025-09-06T13:05:30Z</time>
      </trkpt>
      <trkpt lat="46.15538" lon="4.52014">
        <ele>673.8</ele>
        <time>2025-09-06T13:05:31Z</time>
      </trkpt>
      <trkpt lat="46.15538" lon="4.52015">
        <ele>673.6</ele>
        <time>2025-09-06T13:05:32Z</time>
      </trkpt>
      <trkpt lat="46.15538" lon="4.52015">
        <ele>673.6</ele>
        <time>2025-09-06T13:05:33Z</time>
      </trkpt>
      <trkpt lat="46.15538" lon="4.52015">
        <ele>673.6</ele>
        <time>2025-09-06T13:05:34Z</time>
      </trkpt>
      <trkpt lat="46.15538" lon="4.52015">
        <ele>673.6</ele>
        <time>2025-09-06T13:05:35Z</time>
      </trkpt>
      <trkpt lat="46.1554" lon="4.52017">
        <ele>673.6</ele>
        <time>2025-09-06T13:05:38Z</time>
      </trkpt>
      <trkpt lat="46.1554" lon="4.52018">
        <ele>673.6</ele>
        <time>2025-09-06T13:05:39Z</time>
      </trkpt>
      <trkpt lat="46.15541" lon="4.52018">
        <ele>673.6</ele>
        <time>2025-09-06T13:05:40Z</time>
      </trkpt>
      <trkpt lat="46.15541" lon="4.52018">
        <ele>673.6</ele>
        <time>2025-09-06T13:05:41Z</time>
      </trkpt>
      <trkpt lat="46.15541" lon="4.52017">
        <ele>673.6</ele>
        <time>2025-09-06T13:05:42Z</time>
      </trkpt>
      <trkpt lat="46.15541" lon="4.52019">
        <ele>675.4</ele>
        <time>2025-09-06T13:11:11Z</time>
      </trkpt>
      <trkpt lat="46.1554" lon="4.5202">
        <ele>675.4</ele>
        <time>2025-09-06T13:11:12Z</time>
      </trkpt>
      <trkpt lat="46.15539" lon="4.52021">
        <ele>675.4</ele>
        <time>2025-09-06T13:11:13Z</time>
      </trkpt>
      <trkpt lat="46.15539" lon="4.52022">
        <ele>674.8</ele>
        <time>2025-09-06T13:11:14Z</time>
      </trkpt>
      <trkpt lat="46.15539" lon="4.52022">
        <ele>674.8</ele>
        <time>2025-09-06T13:11:15Z</time>
      </trkpt>
      <trkpt lat="46.15539" lon="4.52022">
        <ele>674.8</ele>
        <time>2025-09-06T13:11:16Z</time>
      </trkpt>
      <trkpt lat="46.15538" lon="4.52025">
        <ele>675.6</ele>
        <time>2025-09-06T13:12:23Z</time>
      </trkpt>
      <trkpt lat="46.15537" lon="4.52027">
        <ele>675.8</ele>
        <time>2025-09-06T13:12:24Z</time>
      </trkpt>
      <trkpt lat="46.15536" lon="4.52031">
        <ele>675.8</ele>
        <time>2025-09-06T13:12:25Z</time>
      </trkpt>
      <trkpt lat="46.15534" lon="4.52034">
        <ele>675.8</ele>
        <time>2025-09-06T13:12:26Z</time>
      </trkpt>
      <trkpt lat="46.15533" lon="4.52038">
        <ele>675.6</ele>
        <time>2025-09-06T13:12:27Z</time>
      </trkpt>
      <trkpt lat="46.15532" lon="4.52042">
        <ele>675.6</ele>
        <time>2025-09-06T13:12:28Z</time>
      </trkpt>
      <trkpt lat="46.15531" lon="4.52047">
        <ele>675.6</ele>
        <time>2025-09-06T13:12:29Z</time>
      </trkpt>
      <trkpt lat="46.1553" lon="4.52051">
        <ele>675.8</ele>
        <time>2025-09-06T13:12:30Z</time>
      </trkpt>
      <trkpt lat="46.15529" lon="4.52056">
        <ele>675.8</ele>
        <time>2025-09-06T13:12:31Z</time>
      </trkpt>
      <trkpt lat="46.15528" lon="4.52061">
        <ele>675.8</ele>
        <time>2025-09-06T13:12:32Z</time>
      </trkpt>
      <trkpt lat="46.15527" lon="4.52065">
        <ele>675.8</ele>
        <time>2025-09-06T13:12:33Z</time>
      </trkpt>
      <trkpt lat="46.15527" lon="4.52071">
        <ele>675.8</ele>
        <time>2025-09-06T13:12:34Z</time>
      </trkpt>
      <trkpt lat="46.15526" lon="4.52076">
        <ele>675.8</ele>
        <time>2025-09-06T13:12:35Z</time>
      </trkpt>
      <trkpt lat="46.15525" lon="4.52082">
        <ele>675.8</ele>
        <time>2025-09-06T13:12:36Z</time>
      </trkpt>
      <trkpt lat="46.15524" lon="4.52087">
        <ele>675.8</ele>
        <time>2025-09-06T13:12:37Z</time>
      </trkpt>
      <trkpt lat="46.15523" lon="4.52093">
        <ele>675.8</ele>
        <time>2025-09-06T13:12:38Z</time>
      </trkpt>
      <trkpt lat="46.15522" lon="4.52099">
        <ele>675.8</ele>
        <time>2025-09-06T13:12:39Z</time>
      </trkpt>
      <trkpt lat="46.15522" lon="4.52106">
        <ele>675.8</ele>
        <time>2025-09-06T13:12:40Z</time>
      </trkpt>
      <trkpt lat="46.15521" lon="4.52113">
        <ele>675.6</ele>
        <time>2025-09-06T13:12:41Z</time>
      </trkpt>
      <trkpt lat="46.1552" lon="4.5212">
        <ele>675.6</ele>
        <time>2025-09-06T13:12:42Z</time>
      </trkpt>
      <trkpt lat="46.15519" lon="4.52127">
        <ele>675.2</ele>
        <time>2025-09-06T13:12:43Z</time>
      </trkpt>
      <trkpt lat="46.15519" lon="4.52135">
        <ele>675.2</ele>
        <time>2025-09-06T13:12:44Z</time>
      </trkpt>
      <trkpt lat="46.15517" lon="4.52142">
        <ele>675.2</ele>
        <time>2025-09-06T13:12:45Z</time>
      </trkpt>
      <trkpt lat="46.15517" lon="4.5215">
        <ele>675.2</ele>
        <time>2025-09-06T13:12:46Z</time>
      </trkpt>
      <trkpt lat="46.15517" lon="4.52158">
        <ele>675.2</ele>
        <time>2025-09-06T13:12:47Z</time>
      </trkpt>
      <trkpt lat="46.15517" lon="4.52165">
        <ele>674.8</ele>
        <time>2025-09-06T13:12:48Z</time>
      </trkpt>
      <trkpt lat="46.15517" lon="4.52174">
        <ele>674.6</ele>
        <time>2025-09-06T13:12:49Z</time>
      </trkpt>
      <trkpt lat="46.15518" lon="4.52183">
        <ele>674.6</ele>
        <time>2025-09-06T13:12:50Z</time>
      </trkpt>
      <trkpt lat="46.15519" lon="4.52191">
        <ele>674.6</ele>
        <time>2025-09-06T13:12:51Z</time>
      </trkpt>
      <trkpt lat="46.1552" lon="4.52199">
        <ele>674</ele>
        <time>2025-09-06T13:12:52Z</time>
      </trkpt>
      <trkpt lat="46.1552" lon="4.52207">
        <ele>673.8</ele>
        <time>2025-09-06T13:12:53Z</time>
      </trkpt>
      <trkpt lat="46.15521" lon="4.52214">
        <ele>673.8</ele>
        <time>2025-09-06T13:12:54Z</time>
      </trkpt>
      <trkpt lat="46.15521" lon="4.52221">
        <ele>673.6</ele>
        <time>2025-09-06T13:12:55Z</time>
      </trkpt>
      <trkpt lat="46.15521" lon="4.52227">
        <ele>673.8</ele>
        <time>2025-09-06T13:12:56Z</time>
      </trkpt>
      <trkpt lat="46.15521" lon="4.52234">
        <ele>673.8</ele>
        <time>2025-09-06T13:12:57Z</time>
      </trkpt>
      <trkpt lat="46.15521" lon="4.5224">
        <ele>673.8</ele>
        <time>2025-09-06T13:12:58Z</time>
      </trkpt>
      <trkpt lat="46.15522" lon="4.52246">
        <ele>673.8</ele>
        <time>2025-09-06T13:12:59Z</time>
      </trkpt>
      <trkpt lat="46.15522" lon="4.52252">
        <ele>673.8</ele>
        <time>2025-09-06T13:13:00Z</time>
      </trkpt>
      <trkpt lat="46.15522" lon="4.52258">
        <ele>673.8</ele>
        <time>2025-09-06T13:13:01Z</time>
      </trkpt>
      <trkpt lat="46.15522" lon="4.52264">
        <ele>674.2</ele>
        <time>2025-09-06T13:13:02Z</time>
      </trkpt>
      <trkpt lat="46.15523" lon="4.5227">
        <ele>674.2</ele>
        <time>2025-09-06T13:13:03Z</time>
      </trkpt>
      <trkpt lat="46.15523" lon="4.52275">
        <ele>674.4</ele>
        <time>2025-09-06T13:13:04Z</time>
      </trkpt>
      <trkpt lat="46.15523" lon="4.52281">
        <ele>674.8</ele>
        <time>2025-09-06T13:13:05Z</time>
      </trkpt>
      <trkpt lat="46.15523" lon="4.52286">
        <ele>674.8</ele>
        <time>2025-09-06T13:13:06Z</time>
      </trkpt>
      <trkpt lat="46.15523" lon="4.52291">
        <ele>675.2</ele>
        <time>2025-09-06T13:13:07Z</time>
      </trkpt>
      <trkpt lat="46.15523" lon="4.52297">
        <ele>675.2</ele>
        <time>2025-09-06T13:13:08Z</time>
      </trkpt>
      <trkpt lat="46.15523" lon="4.52302">
        <ele>675.2</ele>
        <time>2025-09-06T13:13:09Z</time>
      </trkpt>
      <trkpt lat="46.15523" lon="4.52307">
        <ele>675.2</ele>
        <time>2025-09-06T13:13:10Z</time>
      </trkpt>
      <trkpt lat="46.15523" lon="4.52312">
        <ele>675.2</ele>
        <time>2025-09-06T13:13:11Z</time>
      </trkpt>
      <trkpt lat="46.15523" lon="4.52317">
        <ele>675.2</ele>
        <time>2025-09-06T13:13:12Z</time>
      </trkpt>
      <trkpt lat="46.15523" lon="4.52322">
        <ele>675.2</ele>
        <time>2025-09-06T13:13:13Z</time>
      </trkpt>
      <trkpt lat="46.15524" lon="4.52326">
        <ele>675</ele>
        <time>2025-09-06T13:13:14Z</time>
      </trkpt>
      <trkpt lat="46.15523" lon="4.52331">
        <ele>675</ele>
        <time>2025-09-06T13:13:15Z</time>
      </trkpt>
      <trkpt lat="46.15523" lon="4.52336">
        <ele>675.2</ele>
        <time>2025-09-06T13:13:16Z</time>
      </trkpt>
      <trkpt lat="46.15523" lon="4.52341">
        <ele>675.2</ele>
        <time>2025-09-06T13:13:17Z</time>
      </trkpt>
      <trkpt lat="46.15522" lon="4.52346">
        <ele>675.8</ele>
        <time>2025-09-06T13:13:18Z</time>
      </trkpt>
      <trkpt lat="46.15523" lon="4.52351">
        <ele>676.2</ele>
        <time>2025-09-06T13:13:19Z</time>
      </trkpt>
      <trkpt lat="46.15523" lon="4.52357">
        <ele>676.2</ele>
        <time>2025-09-06T13:13:20Z</time>
      </trkpt>
      <trkpt lat="46.15523" lon="4.52362">
        <ele>676</ele>
        <time>2025-09-06T13:13:21Z</time>
      </trkpt>
      <trkpt lat="46.15522" lon="4.52367">
        <ele>676</ele>
        <time>2025-09-06T13:13:22Z</time>
      </trkpt>
      <trkpt lat="46.15522" lon="4.52372">
        <ele>676</ele>
        <time>2025-09-06T13:13:23Z</time>
      </trkpt>
      <trkpt lat="46.15522" lon="4.52377">
        <ele>676.2</ele>
        <time>2025-09-06T13:13:24Z</time>
      </trkpt>
      <trkpt lat="46.15522" lon="4.52383">
        <ele>676.6</ele>
        <time>2025-09-06T13:13:25Z</time>
      </trkpt>
      <trkpt lat="46.15522" lon="4.52388">
        <ele>676.6</ele>
        <time>2025-09-06T13:13:26Z</time>
      </trkpt>
      <trkpt lat="46.15522" lon="4.52393">
        <ele>676.2</ele>
        <time>2025-09-06T13:13:27Z</time>
      </trkpt>
      <trkpt lat="46.15522" lon="4.52398">
        <ele>676.2</ele>
        <time>2025-09-06T13:13:28Z</time>
      </trkpt>
      <trkpt lat="46.15522" lon="4.52404">
        <ele>676.6</ele>
        <time>2025-09-06T13:13:29Z</time>
      </trkpt>
      <trkpt lat="46.15522" lon="4.52409">
        <ele>677</ele>
        <time>2025-09-06T13:13:30Z</time>
      </trkpt>
      <trkpt lat="46.15522" lon="4.52414">
        <ele>677.6</ele>
        <time>2025-09-06T13:13:31Z</time>
      </trkpt>
      <trkpt lat="46.15521" lon="4.52418">
        <ele>677.6</ele>
        <time>2025-09-06T13:13:32Z</time>
      </trkpt>
      <trkpt lat="46.15521" lon="4.52423">
        <ele>678</ele>
        <time>2025-09-06T13:13:33Z</time>
      </trkpt>
      <trkpt lat="46.15521" lon="4.52426">
        <ele>678</ele>
        <time>2025-09-06T13:13:34Z</time>
      </trkpt>
      <trkpt lat="46.15521" lon="4.5243">
        <ele>678.4</ele>
        <time>2025-09-06T13:13:35Z</time>
      </trkpt>
      <trkpt lat="46.15522" lon="4.52433">
        <ele>678.4</ele>
        <time>2025-09-06T13:13:36Z</time>
      </trkpt>
      <trkpt lat="46.15522" lon="4.52435">
        <ele>678.8</ele>
        <time>2025-09-06T13:13:37Z</time>
      </trkpt>
      <trkpt lat="46.15523" lon="4.52437">
        <ele>678.8</ele>
        <time>2025-09-06T13:13:38Z</time>
      </trkpt>
      <trkpt lat="46.15523" lon="4.5244">
        <ele>679</ele>
        <time>2025-09-06T13:13:39Z</time>
      </trkpt>
      <trkpt lat="46.15523" lon="4.52442">
        <ele>679</ele>
        <time>2025-09-06T13:13:40Z</time>
      </trkpt>
      <trkpt lat="46.15523" lon="4.52444">
        <ele>679.4</ele>
        <time>2025-09-06T13:13:41Z</time>
      </trkpt>
      <trkpt lat="46.15523" lon="4.52446">
        <ele>679.6</ele>
        <time>2025-09-06T13:13:42Z</time>
      </trkpt>
      <trkpt lat="46.15523" lon="4.52448">
        <ele>679.6</ele>
        <time>2025-09-06T13:13:43Z</time>
      </trkpt>
      <trkpt lat="46.15523" lon="4.52451">
        <ele>679.6</ele>
        <time>2025-09-06T13:13:44Z</time>
      </trkpt>
      <trkpt lat="46.15524" lon="4.52454">
        <ele>680</ele>
        <time>2025-09-06T13:13:45Z</time>
      </trkpt>
      <trkpt lat="46.15525" lon="4.52457">
        <ele>680</ele>
        <time>2025-09-06T13:13:46Z</time>
      </trkpt>
      <trkpt lat="46.15526" lon="4.52459">
        <ele>680</ele>
        <time>2025-09-06T13:13:47Z</time>
      </trkpt>
      <trkpt lat="46.15527" lon="4.52461">
        <ele>680</ele>
        <time>2025-09-06T13:13:48Z</time>
      </trkpt>
      <trkpt lat="46.15527" lon="4.52463">
        <ele>680</ele>
        <time>2025-09-06T13:13:49Z</time>
      </trkpt>
      <trkpt lat="46.15527" lon="4.52465">
        <ele>680.4</ele>
        <time>2025-09-06T13:13:50Z</time>
      </trkpt>
      <trkpt lat="46.15527" lon="4.52467">
        <ele>680.6</ele>
        <time>2025-09-06T13:13:51Z</time>
      </trkpt>
      <trkpt lat="46.15527" lon="4.5247">
        <ele>680.8</ele>
        <time>2025-09-06T13:13:52Z</time>
      </trkpt>
      <trkpt lat="46.15527" lon="4.52472">
        <ele>680.8</ele>
        <time>2025-09-06T13:13:53Z</time>
      </trkpt>
      <trkpt lat="46.15526" lon="4.52475">
        <ele>681.2</ele>
        <time>2025-09-06T13:13:54Z</time>
      </trkpt>
      <trkpt lat="46.15526" lon="4.52477">
        <ele>681.2</ele>
        <time>2025-09-06T13:13:55Z</time>
      </trkpt>
      <trkpt lat="46.15526" lon="4.5248">
        <ele>681.4</ele>
        <time>2025-09-06T13:13:56Z</time>
      </trkpt>
      <trkpt lat="46.15526" lon="4.52482">
        <ele>681.8</ele>
        <time>2025-09-06T13:13:57Z</time>
      </trkpt>
      <trkpt lat="46.15526" lon="4.52484">
        <ele>681.8</ele>
        <time>2025-09-06T13:13:58Z</time>
      </trkpt>
      <trkpt lat="46.15526" lon="4.52486">
        <ele>681.8</ele>
        <time>2025-09-06T13:13:59Z</time>
      </trkpt>
      <trkpt lat="46.15526" lon="4.52488">
        <ele>682</ele>
        <time>2025-09-06T13:14:00Z</time>
      </trkpt>
      <trkpt lat="46.15526" lon="4.5249">
        <ele>682</ele>
        <time>2025-09-06T13:14:01Z</time>
      </trkpt>
      <trkpt lat="46.15526" lon="4.52493">
        <ele>682.2</ele>
        <time>2025-09-06T13:14:02Z</time>
      </trkpt>
      <trkpt lat="46.15526" lon="4.52495">
        <ele>682.2</ele>
        <time>2025-09-06T13:14:03Z</time>
      </trkpt>
      <trkpt lat="46.15526" lon="4.52497">
        <ele>682.4</ele>
        <time>2025-09-06T13:14:04Z</time>
      </trkpt>
      <trkpt lat="46.15526" lon="4.52499">
        <ele>682.4</ele>
        <time>2025-09-06T13:14:05Z</time>
      </trkpt>
      <trkpt lat="46.15526" lon="4.52502">
        <ele>682.8</ele>
        <time>2025-09-06T13:14:06Z</time>
      </trkpt>
      <trkpt lat="46.15526" lon="4.52504">
        <ele>682.8</ele>
        <time>2025-09-06T13:14:07Z</time>
      </trkpt>
      <trkpt lat="46.15526" lon="4.52507">
        <ele>682.8</ele>
        <time>2025-09-06T13:14:08Z</time>
      </trkpt>
      <trkpt lat="46.15526" lon="4.52509">
        <ele>682.8</ele>
        <time>2025-09-06T13:14:09Z</time>
      </trkpt>
      <trkpt lat="46.15526" lon="4.52511">
        <ele>683</ele>
        <time>2025-09-06T13:14:10Z</time>
      </trkpt>
      <trkpt lat="46.15526" lon="4.52514">
        <ele>683.2</ele>
        <time>2025-09-06T13:14:11Z</time>
      </trkpt>
      <trkpt lat="46.15526" lon="4.52516">
        <ele>683.6</ele>
        <time>2025-09-06T13:14:12Z</time>
      </trkpt>
      <trkpt lat="46.15526" lon="4.52518">
        <ele>683.6</ele>
        <time>2025-09-06T13:14:13Z</time>
      </trkpt>
      <trkpt lat="46.15526" lon="4.52518">
        <ele>683.8</ele>
        <time>2025-09-06T13:14:14Z</time>
      </trkpt>
      <trkpt lat="46.15526" lon="4.52521">
        <ele>683.8</ele>
        <time>2025-09-06T13:14:15Z</time>
      </trkpt>
      <trkpt lat="46.15526" lon="4.52523">
        <ele>684</ele>
        <time>2025-09-06T13:14:16Z</time>
      </trkpt>
      <trkpt lat="46.15526" lon="4.52525">
        <ele>684</ele>
        <time>2025-09-06T13:14:17Z</time>
      </trkpt>
      <trkpt lat="46.15526" lon="4.52527">
        <ele>684</ele>
        <time>2025-09-06T13:14:18Z</time>
      </trkpt>
      <trkpt lat="46.15526" lon="4.52529">
        <ele>684</ele>
        <time>2025-09-06T13:14:19Z</time>
      </trkpt>
      <trkpt lat="46.15526" lon="4.52532">
        <ele>684</ele>
        <time>2025-09-06T13:14:20Z</time>
      </trkpt>
      <trkpt lat="46.15526" lon="4.52534">
        <ele>684.2</ele>
        <time>2025-09-06T13:14:21Z</time>
      </trkpt>
      <trkpt lat="46.15526" lon="4.52537">
        <ele>684.2</ele>
        <time>2025-09-06T13:14:22Z</time>
      </trkpt>
      <trkpt lat="46.15526" lon="4.52539">
        <ele>684.2</ele>
        <time>2025-09-06T13:14:23Z</time>
      </trkpt>
      <trkpt lat="46.15526" lon="4.52541">
        <ele>684.2</ele>
        <time>2025-09-06T13:14:24Z</time>
      </trkpt>
      <trkpt lat="46.15526" lon="4.52543">
        <ele>684.6</ele>
        <time>2025-09-06T13:14:25Z</time>
      </trkpt>
      <trkpt lat="46.15527" lon="4.52546">
        <ele>684.8</ele>
        <time>2025-09-06T13:14:26Z</time>
      </trkpt>
      <trkpt lat="46.15527" lon="4.52548">
        <ele>685</ele>
        <time>2025-09-06T13:14:27Z</time>
      </trkpt>
      <trkpt lat="46.15527" lon="4.5255">
        <ele>685</ele>
        <time>2025-09-06T13:14:28Z</time>
      </trkpt>
      <trkpt lat="46.15527" lon="4.52553">
        <ele>685</ele>
        <time>2025-09-06T13:14:29Z</time>
      </trkpt>
      <trkpt lat="46.15527" lon="4.52555">
        <ele>685.4</ele>
        <time>2025-09-06T13:14:30Z</time>
      </trkpt>
      <trkpt lat="46.15527" lon="4.52557">
        <ele>685.4</ele>
        <time>2025-09-06T13:14:31Z</time>
      </trkpt>
      <trkpt lat="46.15527" lon="4.5256">
        <ele>685.6</ele>
        <time>2025-09-06T13:14:32Z</time>
      </trkpt>
      <trkpt lat="46.15527" lon="4.52562">
        <ele>685.8</ele>
        <time>2025-09-06T13:14:33Z</time>
      </trkpt>
      <trkpt lat="46.15527" lon="4.52564">
        <ele>685.8</ele>
        <time>2025-09-06T13:14:34Z</time>
      </trkpt>
      <trkpt lat="46.15528" lon="4.52566">
        <ele>685.8</ele>
        <time>2025-09-06T13:14:35Z</time>
      </trkpt>
      <trkpt lat="46.15528" lon="4.52568">
        <ele>685.8</ele>
        <time>2025-09-06T13:14:36Z</time>
      </trkpt>
      <trkpt lat="46.15528" lon="4.5257">
        <ele>685.8</ele>
        <time>2025-09-06T13:14:37Z</time>
      </trkpt>
      <trkpt lat="46.15528" lon="4.52572">
        <ele>685.8</ele>
        <time>2025-09-06T13:14:38Z</time>
      </trkpt>
      <trkpt lat="46.15529" lon="4.52575">
        <ele>686.2</ele>
        <time>2025-09-06T13:14:39Z</time>
      </trkpt>
      <trkpt lat="46.15529" lon="4.52577">
        <ele>686.2</ele>
        <time>2025-09-06T13:14:40Z</time>
      </trkpt>
      <trkpt lat="46.15529" lon="4.52579">
        <ele>686.6</ele>
        <time>2025-09-06T13:14:41Z</time>
      </trkpt>
      <trkpt lat="46.15528" lon="4.52581">
        <ele>686.6</ele>
        <time>2025-09-06T13:14:42Z</time>
      </trkpt>
      <trkpt lat="46.15528" lon="4.52583">
        <ele>686.6</ele>
        <time>2025-09-06T13:14:43Z</time>
      </trkpt>
      <trkpt lat="46.15528" lon="4.52585">
        <ele>686.6</ele>
        <time>2025-09-06T13:14:44Z</time>
      </trkpt>
      <trkpt lat="46.15528" lon="4.5259">
        <ele>687</ele>
        <time>2025-09-06T13:14:45Z</time>
      </trkpt>
      <trkpt lat="46.15529" lon="4.52592">
        <ele>687.2</ele>
        <time>2025-09-06T13:14:46Z</time>
      </trkpt>
      <trkpt lat="46.15529" lon="4.52594">
        <ele>687.4</ele>
        <time>2025-09-06T13:14:47Z</time>
      </trkpt>
      <trkpt lat="46.15529" lon="4.52596">
        <ele>687.4</ele>
        <time>2025-09-06T13:14:48Z</time>
      </trkpt>
      <trkpt lat="46.15529" lon="4.52598">
        <ele>687.8</ele>
        <time>2025-09-06T13:14:49Z</time>
      </trkpt>
      <trkpt lat="46.15529" lon="4.526">
        <ele>688</ele>
        <time>2025-09-06T13:14:50Z</time>
      </trkpt>
      <trkpt lat="46.15529" lon="4.52602">
        <ele>688</ele>
        <time>2025-09-06T13:14:51Z</time>
      </trkpt>
      <trkpt lat="46.1553" lon="4.52604">
        <ele>688</ele>
        <time>2025-09-06T13:14:52Z</time>
      </trkpt>
      <trkpt lat="46.1553" lon="4.52606">
        <ele>688</ele>
        <time>2025-09-06T13:14:53Z</time>
      </trkpt>
      <trkpt lat="46.1553" lon="4.52608">
        <ele>688.4</ele>
        <time>2025-09-06T13:14:54Z</time>
      </trkpt>
      <trkpt lat="46.1553" lon="4.52611">
        <ele>688.4</ele>
        <time>2025-09-06T13:14:55Z</time>
      </trkpt>
      <trkpt lat="46.1553" lon="4.52613">
        <ele>688.6</ele>
        <time>2025-09-06T13:14:56Z</time>
      </trkpt>
      <trkpt lat="46.1553" lon="4.52615">
        <ele>688.6</ele>
        <time>2025-09-06T13:14:57Z</time>
      </trkpt>
      <trkpt lat="46.1553" lon="4.52617">
        <ele>688.6</ele>
        <time>2025-09-06T13:14:58Z</time>
      </trkpt>
      <trkpt lat="46.1553" lon="4.52619">
        <ele>688.8</ele>
        <time>2025-09-06T13:14:59Z</time>
      </trkpt>
      <trkpt lat="46.1553" lon="4.52621">
        <ele>688.8</ele>
        <time>2025-09-06T13:15:00Z</time>
      </trkpt>
      <trkpt lat="46.15531" lon="4.52623">
        <ele>689</ele>
        <time>2025-09-06T13:15:01Z</time>
      </trkpt>
      <trkpt lat="46.15531" lon="4.52626">
        <ele>689</ele>
        <time>2025-09-06T13:15:02Z</time>
      </trkpt>
      <trkpt lat="46.15531" lon="4.52628">
        <ele>689</ele>
        <time>2025-09-06T13:15:03Z</time>
      </trkpt>
      <trkpt lat="46.15531" lon="4.5263">
        <ele>689.4</ele>
        <time>2025-09-06T13:15:04Z</time>
      </trkpt>
      <trkpt lat="46.15532" lon="4.52633">
        <ele>689.6</ele>
        <time>2025-09-06T13:15:05Z</time>
      </trkpt>
      <trkpt lat="46.15532" lon="4.52635">
        <ele>689.6</ele>
        <time>2025-09-06T13:15:06Z</time>
      </trkpt>
      <trkpt lat="46.15532" lon="4.52638">
        <ele>690</ele>
        <time>2025-09-06T13:15:07Z</time>
      </trkpt>
      <trkpt lat="46.15532" lon="4.52641">
        <ele>690</ele>
        <time>2025-09-06T13:15:08Z</time>
      </trkpt>
      <trkpt lat="46.15532" lon="4.52643">
        <ele>690</ele>
        <time>2025-09-06T13:15:09Z</time>
      </trkpt>
      <trkpt lat="46.15531" lon="4.52645">
        <ele>690</ele>
        <time>2025-09-06T13:15:10Z</time>
      </trkpt>
      <trkpt lat="46.15531" lon="4.52648">
        <ele>690.2</ele>
        <time>2025-09-06T13:15:11Z</time>
      </trkpt>
      <trkpt lat="46.15532" lon="4.5265">
        <ele>690.2</ele>
        <time>2025-09-06T13:15:12Z</time>
      </trkpt>
      <trkpt lat="46.15532" lon="4.52652">
        <ele>690.2</ele>
        <time>2025-09-06T13:15:13Z</time>
      </trkpt>
      <trkpt lat="46.15532" lon="4.52655">
        <ele>690.2</ele>
        <time>2025-09-06T13:15:14Z</time>
      </trkpt>
      <trkpt lat="46.15533" lon="4.52657">
        <ele>690.4</ele>
        <time>2025-09-06T13:15:15Z</time>
      </trkpt>
      <trkpt lat="46.15533" lon="4.52659">
        <ele>690.4</ele>
        <time>2025-09-06T13:15:16Z</time>
      </trkpt>
      <trkpt lat="46.15534" lon="4.52662">
        <ele>690.4</ele>
        <time>2025-09-06T13:15:17Z</time>
      </trkpt>
      <trkpt lat="46.15534" lon="4.52664">
        <ele>690.4</ele>
        <time>2025-09-06T13:15:18Z</time>
      </trkpt>
      <trkpt lat="46.15534" lon="4.52667">
        <ele>690.4</ele>
        <time>2025-09-06T13:15:19Z</time>
      </trkpt>
      <trkpt lat="46.15534" lon="4.52669">
        <ele>690.4</ele>
        <time>2025-09-06T13:15:20Z</time>
      </trkpt>
      <trkpt lat="46.15534" lon="4.52671">
        <ele>690.6</ele>
        <time>2025-09-06T13:15:21Z</time>
      </trkpt>
      <trkpt lat="46.15535" lon="4.52674">
        <ele>690.6</ele>
        <time>2025-09-06T13:15:22Z</time>
      </trkpt>
      <trkpt lat="46.15535" lon="4.52676">
        <ele>690.8</ele>
        <time>2025-09-06T13:15:23Z</time>
      </trkpt>
      <trkpt lat="46.15535" lon="4.52678">
        <ele>690.8</ele>
        <time>2025-09-06T13:15:24Z</time>
      </trkpt>
      <trkpt lat="46.15535" lon="4.5268">
        <ele>691.2</ele>
        <time>2025-09-06T13:15:25Z</time>
      </trkpt>
      <trkpt lat="46.15536" lon="4.52683">
        <ele>691.2</ele>
        <time>2025-09-06T13:15:26Z</time>
      </trkpt>
      <trkpt lat="46.15536" lon="4.52685">
        <ele>691.2</ele>
        <time>2025-09-06T13:15:27Z</time>
      </trkpt>
      <trkpt lat="46.15536" lon="4.52688">
        <ele>691.4</ele>
        <time>2025-09-06T13:15:28Z</time>
      </trkpt>
      <trkpt lat="46.15536" lon="4.5269">
        <ele>691.4</ele>
        <time>2025-09-06T13:15:29Z</time>
      </trkpt>
      <trkpt lat="46.15536" lon="4.52693">
        <ele>691.6</ele>
        <time>2025-09-06T13:15:30Z</time>
      </trkpt>
      <trkpt lat="46.15537" lon="4.52695">
        <ele>691.6</ele>
        <time>2025-09-06T13:15:31Z</time>
      </trkpt>
      <trkpt lat="46.15537" lon="4.52697">
        <ele>691.8</ele>
        <time>2025-09-06T13:15:32Z</time>
      </trkpt>
      <trkpt lat="46.15537" lon="4.527">
        <ele>691.8</ele>
        <time>2025-09-06T13:15:33Z</time>
      </trkpt>
      <trkpt lat="46.15537" lon="4.52702">
        <ele>691.8</ele>
        <time>2025-09-06T13:15:34Z</time>
      </trkpt>
      <trkpt lat="46.15537" lon="4.52704">
        <ele>691.8</ele>
        <time>2025-09-06T13:15:35Z</time>
      </trkpt>
      <trkpt lat="46.15537" lon="4.52707">
        <ele>692.4</ele>
        <time>2025-09-06T13:15:36Z</time>
      </trkpt>
      <trkpt lat="46.15537" lon="4.5271">
        <ele>692.4</ele>
        <time>2025-09-06T13:15:37Z</time>
      </trkpt>
      <trkpt lat="46.15538" lon="4.52712">
        <ele>692.8</ele>
        <time>2025-09-06T13:15:38Z</time>
      </trkpt>
      <trkpt lat="46.15538" lon="4.52715">
        <ele>692.8</ele>
        <time>2025-09-06T13:15:39Z</time>
      </trkpt>
      <trkpt lat="46.15538" lon="4.52718">
        <ele>693</ele>
        <time>2025-09-06T13:15:40Z</time>
      </trkpt>
      <trkpt lat="46.15539" lon="4.5272">
        <ele>693</ele>
        <time>2025-09-06T13:15:41Z</time>
      </trkpt>
      <trkpt lat="46.15539" lon="4.52723">
        <ele>693</ele>
        <time>2025-09-06T13:15:42Z</time>
      </trkpt>
      <trkpt lat="46.1554" lon="4.52725">
        <ele>693</ele>
        <time>2025-09-06T13:15:43Z</time>
      </trkpt>
      <trkpt lat="46.1554" lon="4.52727">
        <ele>693</ele>
        <time>2025-09-06T13:15:44Z</time>
      </trkpt>
      <trkpt lat="46.1554" lon="4.5273">
        <ele>693</ele>
        <time>2025-09-06T13:15:45Z</time>
      </trkpt>
      <trkpt lat="46.1554" lon="4.52733">
        <ele>693</ele>
        <time>2025-09-06T13:15:46Z</time>
      </trkpt>
      <trkpt lat="46.15541" lon="4.52735">
        <ele>693</ele>
        <time>2025-09-06T13:15:47Z</time>
      </trkpt>
      <trkpt lat="46.15541" lon="4.52737">
        <ele>693</ele>
        <time>2025-09-06T13:15:48Z</time>
      </trkpt>
      <trkpt lat="46.15541" lon="4.52739">
        <ele>693.4</ele>
        <time>2025-09-06T13:15:49Z</time>
      </trkpt>
      <trkpt lat="46.15542" lon="4.52741">
        <ele>693.8</ele>
        <time>2025-09-06T13:15:50Z</time>
      </trkpt>
      <trkpt lat="46.15542" lon="4.52743">
        <ele>693.8</ele>
        <time>2025-09-06T13:15:51Z</time>
      </trkpt>
      <trkpt lat="46.15543" lon="4.52745">
        <ele>694</ele>
        <time>2025-09-06T13:15:52Z</time>
      </trkpt>
      <trkpt lat="46.15543" lon="4.52748">
        <ele>694.2</ele>
        <time>2025-09-06T13:15:53Z</time>
      </trkpt>
      <trkpt lat="46.15543" lon="4.5275">
        <ele>694.2</ele>
        <time>2025-09-06T13:15:54Z</time>
      </trkpt>
      <trkpt lat="46.15544" lon="4.52752">
        <ele>694.2</ele>
        <time>2025-09-06T13:15:55Z</time>
      </trkpt>
      <trkpt lat="46.15544" lon="4.52755">
        <ele>694.2</ele>
        <time>2025-09-06T13:15:56Z</time>
      </trkpt>
      <trkpt lat="46.15545" lon="4.52757">
        <ele>694.6</ele>
        <time>2025-09-06T13:15:57Z</time>
      </trkpt>
      <trkpt lat="46.15545" lon="4.52759">
        <ele>694.6</ele>
        <time>2025-09-06T13:15:58Z</time>
      </trkpt>
      <trkpt lat="46.15545" lon="4.52762">
        <ele>694.6</ele>
        <time>2025-09-06T13:15:59Z</time>
      </trkpt>
      <trkpt lat="46.15546" lon="4.52764">
        <ele>694.6</ele>
        <time>2025-09-06T13:16:00Z</time>
      </trkpt>
      <trkpt lat="46.15546" lon="4.52766">
        <ele>695</ele>
        <time>2025-09-06T13:16:01Z</time>
      </trkpt>
      <trkpt lat="46.15546" lon="4.52768">
        <ele>695</ele>
        <time>2025-09-06T13:16:02Z</time>
      </trkpt>
      <trkpt lat="46.15547" lon="4.5277">
        <ele>695.2</ele>
        <time>2025-09-06T13:16:03Z</time>
      </trkpt>
      <trkpt lat="46.15547" lon="4.52772">
        <ele>695.2</ele>
        <time>2025-09-06T13:16:04Z</time>
      </trkpt>
      <trkpt lat="46.15548" lon="4.52774">
        <ele>695.2</ele>
        <time>2025-09-06T13:16:05Z</time>
      </trkpt>
      <trkpt lat="46.15549" lon="4.52776">
        <ele>695.2</ele>
        <time>2025-09-06T13:16:06Z</time>
      </trkpt>
      <trkpt lat="46.15549" lon="4.52778">
        <ele>695.6</ele>
        <time>2025-09-06T13:16:07Z</time>
      </trkpt>
      <trkpt lat="46.1555" lon="4.5278">
        <ele>695.6</ele>
        <time>2025-09-06T13:16:08Z</time>
      </trkpt>
      <trkpt lat="46.15551" lon="4.52783">
        <ele>695.6</ele>
        <time>2025-09-06T13:16:09Z</time>
      </trkpt>
      <trkpt lat="46.15551" lon="4.52785">
        <ele>695.6</ele>
        <time>2025-09-06T13:16:10Z</time>
      </trkpt>
      <trkpt lat="46.15552" lon="4.52787">
        <ele>696</ele>
        <time>2025-09-06T13:16:11Z</time>
      </trkpt>
      <trkpt lat="46.15553" lon="4.52789">
        <ele>696</ele>
        <time>2025-09-06T13:16:12Z</time>
      </trkpt>
      <trkpt lat="46.15554" lon="4.52791">
        <ele>696</ele>
        <time>2025-09-06T13:16:13Z</time>
      </trkpt>
      <trkpt lat="46.15554" lon="4.52793">
        <ele>696.2</ele>
        <time>2025-09-06T13:16:14Z</time>
      </trkpt>
      <trkpt lat="46.15555" lon="4.52795">
        <ele>696.2</ele>
        <time>2025-09-06T13:16:15Z</time>
      </trkpt>
      <trkpt lat="46.15556" lon="4.52797">
        <ele>696.6</ele>
        <time>2025-09-06T13:16:16Z</time>
      </trkpt>
      <trkpt lat="46.15557" lon="4.52799">
        <ele>696.8</ele>
        <time>2025-09-06T13:16:17Z</time>
      </trkpt>
      <trkpt lat="46.15558" lon="4.52801">
        <ele>696.8</ele>
        <time>2025-09-06T13:16:18Z</time>
      </trkpt>
      <trkpt lat="46.15559" lon="4.52802">
        <ele>696.8</ele>
        <time>2025-09-06T13:16:19Z</time>
      </trkpt>
      <trkpt lat="46.1556" lon="4.52804">
        <ele>696.8</ele>
        <time>2025-09-06T13:16:20Z</time>
      </trkpt>
      <trkpt lat="46.15561" lon="4.52806">
        <ele>696.8</ele>
        <time>2025-09-06T13:16:21Z</time>
      </trkpt>
      <trkpt lat="46.15562" lon="4.52808">
        <ele>696.8</ele>
        <time>2025-09-06T13:16:22Z</time>
      </trkpt>
      <trkpt lat="46.15563" lon="4.52809">
        <ele>696.8</ele>
        <time>2025-09-06T13:16:23Z</time>
      </trkpt>
      <trkpt lat="46.15563" lon="4.52811">
        <ele>697</ele>
        <time>2025-09-06T13:16:24Z</time>
      </trkpt>
      <trkpt lat="46.15564" lon="4.52812">
        <ele>697.2</ele>
        <time>2025-09-06T13:16:25Z</time>
      </trkpt>
      <trkpt lat="46.15565" lon="4.52814">
        <ele>697.2</ele>
        <time>2025-09-06T13:16:26Z</time>
      </trkpt>
      <trkpt lat="46.15566" lon="4.52815">
        <ele>697.4</ele>
        <time>2025-09-06T13:16:27Z</time>
      </trkpt>
      <trkpt lat="46.15567" lon="4.52817">
        <ele>697.4</ele>
        <time>2025-09-06T13:16:28Z</time>
      </trkpt>
      <trkpt lat="46.15568" lon="4.52819">
        <ele>698</ele>
        <time>2025-09-06T13:16:29Z</time>
      </trkpt>
      <trkpt lat="46.15569" lon="4.5282">
        <ele>698.2</ele>
        <time>2025-09-06T13:16:30Z</time>
      </trkpt>
      <trkpt lat="46.1557" lon="4.52822">
        <ele>698.2</ele>
        <time>2025-09-06T13:16:31Z</time>
      </trkpt>
      <trkpt lat="46.15571" lon="4.52823">
        <ele>698.2</ele>
        <time>2025-09-06T13:16:32Z</time>
      </trkpt>
      <trkpt lat="46.15572" lon="4.52824">
        <ele>698.2</ele>
        <time>2025-09-06T13:16:33Z</time>
      </trkpt>
      <trkpt lat="46.15573" lon="4.52825">
        <ele>698.4</ele>
        <time>2025-09-06T13:16:34Z</time>
      </trkpt>
      <trkpt lat="46.15574" lon="4.52827">
        <ele>698.4</ele>
        <time>2025-09-06T13:16:35Z</time>
      </trkpt>
      <trkpt lat="46.15575" lon="4.52828">
        <ele>698.8</ele>
        <time>2025-09-06T13:16:36Z</time>
      </trkpt>
      <trkpt lat="46.15576" lon="4.5283">
        <ele>698.8</ele>
        <time>2025-09-06T13:16:37Z</time>
      </trkpt>
      <trkpt lat="46.15576" lon="4.52831">
        <ele>698.8</ele>
        <time>2025-09-06T13:16:38Z</time>
      </trkpt>
      <trkpt lat="46.15577" lon="4.52832">
        <ele>699.2</ele>
        <time>2025-09-06T13:16:39Z</time>
      </trkpt>
      <trkpt lat="46.15578" lon="4.52833">
        <ele>699.2</ele>
        <time>2025-09-06T13:16:40Z</time>
      </trkpt>
      <trkpt lat="46.15579" lon="4.52833">
        <ele>699.4</ele>
        <time>2025-09-06T13:16:41Z</time>
      </trkpt>
      <trkpt lat="46.15581" lon="4.52834">
        <ele>699.4</ele>
        <time>2025-09-06T13:16:42Z</time>
      </trkpt>
      <trkpt lat="46.15581" lon="4.52835">
        <ele>699.8</ele>
        <time>2025-09-06T13:16:43Z</time>
      </trkpt>
      <trkpt lat="46.15581" lon="4.52835">
        <ele>699.8</ele>
        <time>2025-09-06T13:16:44Z</time>
      </trkpt>
      <trkpt lat="46.15581" lon="4.52835">
        <ele>700.2</ele>
        <time>2025-09-06T13:16:45Z</time>
      </trkpt>
      <trkpt lat="46.15586" lon="4.52838">
        <ele>700.2</ele>
        <time>2025-09-06T13:16:48Z</time>
      </trkpt>
      <trkpt lat="46.15587" lon="4.52838">
        <ele>699.6</ele>
        <time>2025-09-06T13:16:49Z</time>
      </trkpt>
      <trkpt lat="46.15588" lon="4.52839">
        <ele>700.4</ele>
        <time>2025-09-06T13:16:50Z</time>
      </trkpt>
      <trkpt lat="46.15589" lon="4.52841">
        <ele>700.8</ele>
        <time>2025-09-06T13:16:51Z</time>
      </trkpt>
      <trkpt lat="46.1559" lon="4.52842">
        <ele>701.2</ele>
        <time>2025-09-06T13:16:52Z</time>
      </trkpt>
      <trkpt lat="46.15591" lon="4.52843">
        <ele>701.2</ele>
        <time>2025-09-06T13:16:53Z</time>
      </trkpt>
      <trkpt lat="46.15592" lon="4.52844">
        <ele>701.4</ele>
        <time>2025-09-06T13:16:54Z</time>
      </trkpt>
      <trkpt lat="46.15593" lon="4.52845">
        <ele>701.8</ele>
        <time>2025-09-06T13:16:55Z</time>
      </trkpt>
      <trkpt lat="46.15595" lon="4.52845">
        <ele>702</ele>
        <time>2025-09-06T13:16:56Z</time>
      </trkpt>
      <trkpt lat="46.15596" lon="4.52845">
        <ele>702</ele>
        <time>2025-09-06T13:16:57Z</time>
      </trkpt>
      <trkpt lat="46.15597" lon="4.52846">
        <ele>702.4</ele>
        <time>2025-09-06T13:16:58Z</time>
      </trkpt>
      <trkpt lat="46.15598" lon="4.52847">
        <ele>702.4</ele>
        <time>2025-09-06T13:16:59Z</time>
      </trkpt>
      <trkpt lat="46.156" lon="4.52849">
        <ele>702.6</ele>
        <time>2025-09-06T13:17:00Z</time>
      </trkpt>
      <trkpt lat="46.15601" lon="4.5285">
        <ele>702.6</ele>
        <time>2025-09-06T13:17:01Z</time>
      </trkpt>
      <trkpt lat="46.15602" lon="4.5285">
        <ele>703</ele>
        <time>2025-09-06T13:17:02Z</time>
      </trkpt>
      <trkpt lat="46.15603" lon="4.52851">
        <ele>703</ele>
        <time>2025-09-06T13:17:03Z</time>
      </trkpt>
      <trkpt lat="46.15605" lon="4.52851">
        <ele>703</ele>
        <time>2025-09-06T13:17:04Z</time>
      </trkpt>
      <trkpt lat="46.15607" lon="4.52852">
        <ele>703</ele>
        <time>2025-09-06T13:17:05Z</time>
      </trkpt>
      <trkpt lat="46.15609" lon="4.52853">
        <ele>703.4</ele>
        <time>2025-09-06T13:17:06Z</time>
      </trkpt>
      <trkpt lat="46.1561" lon="4.52854">
        <ele>703.4</ele>
        <time>2025-09-06T13:17:07Z</time>
      </trkpt>
      <trkpt lat="46.15611" lon="4.52856">
        <ele>703.4</ele>
        <time>2025-09-06T13:17:08Z</time>
      </trkpt>
      <trkpt lat="46.15612" lon="4.52857">
        <ele>703.6</ele>
        <time>2025-09-06T13:17:09Z</time>
      </trkpt>
      <trkpt lat="46.15613" lon="4.52859">
        <ele>703.6</ele>
        <time>2025-09-06T13:17:10Z</time>
      </trkpt>
      <trkpt lat="46.15615" lon="4.52859">
        <ele>703.6</ele>
        <time>2025-09-06T13:17:11Z</time>
      </trkpt>
      <trkpt lat="46.15616" lon="4.5286">
        <ele>703.6</ele>
        <time>2025-09-06T13:17:12Z</time>
      </trkpt>
      <trkpt lat="46.15617" lon="4.5286">
        <ele>703.6</ele>
        <time>2025-09-06T13:17:13Z</time>
      </trkpt>
      <trkpt lat="46.15619" lon="4.52861">
        <ele>704</ele>
        <time>2025-09-06T13:17:14Z</time>
      </trkpt>
      <trkpt lat="46.15621" lon="4.52862">
        <ele>704</ele>
        <time>2025-09-06T13:17:15Z</time>
      </trkpt>
      <trkpt lat="46.15622" lon="4.52862">
        <ele>704</ele>
        <time>2025-09-06T13:17:16Z</time>
      </trkpt>
      <trkpt lat="46.15622" lon="4.52863">
        <ele>704.4</ele>
        <time>2025-09-06T13:17:17Z</time>
      </trkpt>
      <trkpt lat="46.15623" lon="4.52864">
        <ele>704.4</ele>
        <time>2025-09-06T13:17:18Z</time>
      </trkpt>
      <trkpt lat="46.15624" lon="4.52864">
        <ele>704.6</ele>
        <time>2025-09-06T13:17:19Z</time>
      </trkpt>
      <trkpt lat="46.15625" lon="4.52865">
        <ele>704.6</ele>
        <time>2025-09-06T13:17:20Z</time>
      </trkpt>
      <trkpt lat="46.15627" lon="4.52866">
        <ele>705</ele>
        <time>2025-09-06T13:17:21Z</time>
      </trkpt>
      <trkpt lat="46.15628" lon="4.52867">
        <ele>705</ele>
        <time>2025-09-06T13:17:22Z</time>
      </trkpt>
      <trkpt lat="46.15629" lon="4.52868">
        <ele>705</ele>
        <time>2025-09-06T13:17:23Z</time>
      </trkpt>
      <trkpt lat="46.15631" lon="4.52868">
        <ele>705.4</ele>
        <time>2025-09-06T13:17:24Z</time>
      </trkpt>
      <trkpt lat="46.15632" lon="4.52868">
        <ele>705.4</ele>
        <time>2025-09-06T13:17:25Z</time>
      </trkpt>
      <trkpt lat="46.15634" lon="4.52869">
        <ele>705.6</ele>
        <time>2025-09-06T13:17:26Z</time>
      </trkpt>
      <trkpt lat="46.15635" lon="4.52869">
        <ele>705.6</ele>
        <time>2025-09-06T13:17:27Z</time>
      </trkpt>
      <trkpt lat="46.15637" lon="4.5287">
        <ele>705.6</ele>
        <time>2025-09-06T13:17:28Z</time>
      </trkpt>
      <trkpt lat="46.15638" lon="4.52871">
        <ele>706</ele>
        <time>2025-09-06T13:17:29Z</time>
      </trkpt>
      <trkpt lat="46.1564" lon="4.52871">
        <ele>706.2</ele>
        <time>2025-09-06T13:17:30Z</time>
      </trkpt>
      <trkpt lat="46.15641" lon="4.52873">
        <ele>706.2</ele>
        <time>2025-09-06T13:17:31Z</time>
      </trkpt>
      <trkpt lat="46.15642" lon="4.52874">
        <ele>706.2</ele>
        <time>2025-09-06T13:17:32Z</time>
      </trkpt>
      <trkpt lat="46.15643" lon="4.52875">
        <ele>706.4</ele>
        <time>2025-09-06T13:17:33Z</time>
      </trkpt>
      <trkpt lat="46.15644" lon="4.52876">
        <ele>706.4</ele>
        <time>2025-09-06T13:17:34Z</time>
      </trkpt>
      <trkpt lat="46.15644" lon="4.52876">
        <ele>706.4</ele>
        <time>2025-09-06T13:17:35Z</time>
      </trkpt>
      <trkpt lat="46.15647" lon="4.52879">
        <ele>706.6</ele>
        <time>2025-09-06T13:17:36Z</time>
      </trkpt>
      <trkpt lat="46.15648" lon="4.5288">
        <ele>706.6</ele>
        <time>2025-09-06T13:17:37Z</time>
      </trkpt>
      <trkpt lat="46.15649" lon="4.52881">
        <ele>706.6</ele>
        <time>2025-09-06T13:17:38Z</time>
      </trkpt>
      <trkpt lat="46.15651" lon="4.52882">
        <ele>707</ele>
        <time>2025-09-06T13:17:39Z</time>
      </trkpt>
      <trkpt lat="46.15651" lon="4.52883">
        <ele>707</ele>
        <time>2025-09-06T13:17:40Z</time>
      </trkpt>
      <trkpt lat="46.15651" lon="4.52883">
        <ele>707</ele>
        <time>2025-09-06T13:17:41Z</time>
      </trkpt>
      <trkpt lat="46.15651" lon="4.52883">
        <ele>707</ele>
        <time>2025-09-06T13:17:42Z</time>
      </trkpt>
      <trkpt lat="46.15651" lon="4.52883">
        <ele>707</ele>
        <time>2025-09-06T13:17:43Z</time>
      </trkpt>
      <trkpt lat="46.1565" lon="4.5288">
        <ele>707</ele>
        <time>2025-09-06T13:17:48Z</time>
      </trkpt>
      <trkpt lat="46.15651" lon="4.5288">
        <ele>707</ele>
        <time>2025-09-06T13:17:49Z</time>
      </trkpt>
      <trkpt lat="46.15655" lon="4.52888">
        <ele>707.6</ele>
        <time>2025-09-06T13:18:27Z</time>
      </trkpt>
      <trkpt lat="46.15657" lon="4.5289">
        <ele>707.6</ele>
        <time>2025-09-06T13:18:28Z</time>
      </trkpt>
      <trkpt lat="46.15658" lon="4.52892">
        <ele>707.6</ele>
        <time>2025-09-06T13:18:29Z</time>
      </trkpt>
      <trkpt lat="46.1566" lon="4.52894">
        <ele>707.6</ele>
        <time>2025-09-06T13:18:30Z</time>
      </trkpt>
      <trkpt lat="46.15662" lon="4.52895">
        <ele>707.6</ele>
        <time>2025-09-06T13:18:31Z</time>
      </trkpt>
      <trkpt lat="46.15664" lon="4.52896">
        <ele>707.8</ele>
        <time>2025-09-06T13:18:32Z</time>
      </trkpt>
      <trkpt lat="46.15666" lon="4.52897">
        <ele>707.8</ele>
        <time>2025-09-06T13:18:33Z</time>
      </trkpt>
      <trkpt lat="46.15668" lon="4.52898">
        <ele>707.8</ele>
        <time>2025-09-06T13:18:34Z</time>
      </trkpt>
      <trkpt lat="46.15671" lon="4.52899">
        <ele>707.8</ele>
        <time>2025-09-06T13:18:35Z</time>
      </trkpt>
      <trkpt lat="46.15673" lon="4.52901">
        <ele>707.8</ele>
        <time>2025-09-06T13:18:36Z</time>
      </trkpt>
      <trkpt lat="46.15676" lon="4.52902">
        <ele>708</ele>
        <time>2025-09-06T13:18:37Z</time>
      </trkpt>
      <trkpt lat="46.15678" lon="4.52904">
        <ele>708</ele>
        <time>2025-09-06T13:18:38Z</time>
      </trkpt>
      <trkpt lat="46.1568" lon="4.52905">
        <ele>708</ele>
        <time>2025-09-06T13:18:39Z</time>
      </trkpt>
      <trkpt lat="46.15683" lon="4.52906">
        <ele>708</ele>
        <time>2025-09-06T13:18:40Z</time>
      </trkpt>
      <trkpt lat="46.15686" lon="4.52908">
        <ele>708</ele>
        <time>2025-09-06T13:18:41Z</time>
      </trkpt>
      <trkpt lat="46.15689" lon="4.5291">
        <ele>708.4</ele>
        <time>2025-09-06T13:18:42Z</time>
      </trkpt>
      <trkpt lat="46.15692" lon="4.52913">
        <ele>708.6</ele>
        <time>2025-09-06T13:18:43Z</time>
      </trkpt>
      <trkpt lat="46.15694" lon="4.52914">
        <ele>708.6</ele>
        <time>2025-09-06T13:18:44Z</time>
      </trkpt>
      <trkpt lat="46.15697" lon="4.52915">
        <ele>708.8</ele>
        <time>2025-09-06T13:18:45Z</time>
      </trkpt>
      <trkpt lat="46.15699" lon="4.52916">
        <ele>708.8</ele>
        <time>2025-09-06T13:18:46Z</time>
      </trkpt>
      <trkpt lat="46.15702" lon="4.52917">
        <ele>708.8</ele>
        <time>2025-09-06T13:18:47Z</time>
      </trkpt>
      <trkpt lat="46.15704" lon="4.52917">
        <ele>708.8</ele>
        <time>2025-09-06T13:18:48Z</time>
      </trkpt>
      <trkpt lat="46.15707" lon="4.52917">
        <ele>709</ele>
        <time>2025-09-06T13:18:49Z</time>
      </trkpt>
      <trkpt lat="46.15709" lon="4.52917">
        <ele>709</ele>
        <time>2025-09-06T13:18:50Z</time>
      </trkpt>
      <trkpt lat="46.15712" lon="4.52917">
        <ele>709</ele>
        <time>2025-09-06T13:18:51Z</time>
      </trkpt>
      <trkpt lat="46.15714" lon="4.52917">
        <ele>709.4</ele>
        <time>2025-09-06T13:18:52Z</time>
      </trkpt>
      <trkpt lat="46.15717" lon="4.52917">
        <ele>709.6</ele>
        <time>2025-09-06T13:18:53Z</time>
      </trkpt>
      <trkpt lat="46.15719" lon="4.52917">
        <ele>709.6</ele>
        <time>2025-09-06T13:18:54Z</time>
      </trkpt>
      <trkpt lat="46.15722" lon="4.52917">
        <ele>709.6</ele>
        <time>2025-09-06T13:18:55Z</time>
      </trkpt>
      <trkpt lat="46.15725" lon="4.52917">
        <ele>709.8</ele>
        <time>2025-09-06T13:18:56Z</time>
      </trkpt>
      <trkpt lat="46.15726" lon="4.52917">
        <ele>709.8</ele>
        <time>2025-09-06T13:18:57Z</time>
      </trkpt>
      <trkpt lat="46.15728" lon="4.52917">
        <ele>710.2</ele>
        <time>2025-09-06T13:18:58Z</time>
      </trkpt>
      <trkpt lat="46.1573" lon="4.52916">
        <ele>710.2</ele>
        <time>2025-09-06T13:18:59Z</time>
      </trkpt>
      <trkpt lat="46.15732" lon="4.52916">
        <ele>710.4</ele>
        <time>2025-09-06T13:19:00Z</time>
      </trkpt>
      <trkpt lat="46.15733" lon="4.52916">
        <ele>710.4</ele>
        <time>2025-09-06T13:19:01Z</time>
      </trkpt>
      <trkpt lat="46.15735" lon="4.52916">
        <ele>710.8</ele>
        <time>2025-09-06T13:19:02Z</time>
      </trkpt>
      <trkpt lat="46.15736" lon="4.52916">
        <ele>710.8</ele>
        <time>2025-09-06T13:19:03Z</time>
      </trkpt>
      <trkpt lat="46.15737" lon="4.52916">
        <ele>711</ele>
        <time>2025-09-06T13:19:04Z</time>
      </trkpt>
      <trkpt lat="46.15738" lon="4.52916">
        <ele>711</ele>
        <time>2025-09-06T13:19:05Z</time>
      </trkpt>
      <trkpt lat="46.15739" lon="4.52917">
        <ele>711.4</ele>
        <time>2025-09-06T13:19:06Z</time>
      </trkpt>
      <trkpt lat="46.15739" lon="4.52918">
        <ele>711.4</ele>
        <time>2025-09-06T13:19:07Z</time>
      </trkpt>
      <trkpt lat="46.15739" lon="4.52918">
        <ele>711.4</ele>
        <time>2025-09-06T13:19:08Z</time>
      </trkpt>
      <trkpt lat="46.15743" lon="4.52922">
        <ele>712.4</ele>
        <time>2025-09-06T13:20:19Z</time>
      </trkpt>
      <trkpt lat="46.15744" lon="4.52923">
        <ele>712.6</ele>
        <time>2025-09-06T13:20:20Z</time>
      </trkpt>
      <trkpt lat="46.15746" lon="4.52924">
        <ele>712.6</ele>
        <time>2025-09-06T13:20:21Z</time>
      </trkpt>
      <trkpt lat="46.15748" lon="4.52923">
        <ele>712.6</ele>
        <time>2025-09-06T13:20:22Z</time>
      </trkpt>
      <trkpt lat="46.1575" lon="4.52922">
        <ele>712.6</ele>
        <time>2025-09-06T13:20:23Z</time>
      </trkpt>
      <trkpt lat="46.15752" lon="4.52921">
        <ele>712.6</ele>
        <time>2025-09-06T13:20:24Z</time>
      </trkpt>
      <trkpt lat="46.15754" lon="4.5292">
        <ele>713</ele>
        <time>2025-09-06T13:20:25Z</time>
      </trkpt>
      <trkpt lat="46.15756" lon="4.5292">
        <ele>713</ele>
        <time>2025-09-06T13:20:26Z</time>
      </trkpt>
      <trkpt lat="46.15757" lon="4.5292">
        <ele>713.4</ele>
        <time>2025-09-06T13:20:27Z</time>
      </trkpt>
      <trkpt lat="46.15757" lon="4.52921">
        <ele>713.6</ele>
        <time>2025-09-06T13:20:28Z</time>
      </trkpt>
      <trkpt lat="46.15755" lon="4.52921">
        <ele>713.8</ele>
        <time>2025-09-06T13:20:29Z</time>
      </trkpt>
      <trkpt lat="46.15755" lon="4.52921">
        <ele>713.8</ele>
        <time>2025-09-06T13:20:30Z</time>
      </trkpt>
      <trkpt lat="46.15754" lon="4.52923">
        <ele>713.8</ele>
        <time>2025-09-06T13:20:33Z</time>
      </trkpt>
      <trkpt lat="46.15754" lon="4.52923">
        <ele>713.8</ele>
        <time>2025-09-06T13:20:34Z</time>
      </trkpt>
      <trkpt lat="46.15753" lon="4.52923">
        <ele>713.8</ele>
        <time>2025-09-06T13:20:35Z</time>
      </trkpt>
      <trkpt lat="46.15753" lon="4.52921">
        <ele>713.8</ele>
        <time>2025-09-06T13:20:56Z</time>
      </trkpt>
      <trkpt lat="46.15753" lon="4.52921">
        <ele>713.8</ele>
        <time>2025-09-06T13:20:57Z</time>
      </trkpt>
      <trkpt lat="46.15753" lon="4.5292">
        <ele>713.8</ele>
        <time>2025-09-06T13:20:58Z</time>
      </trkpt>
      <trkpt lat="46.15752" lon="4.5292">
        <ele>713.8</ele>
        <time>2025-09-06T13:20:59Z</time>
      </trkpt>
      <trkpt lat="46.15752" lon="4.52919">
        <ele>713.8</ele>
        <time>2025-09-06T13:21:00Z</time>
      </trkpt>
      <trkpt lat="46.1575" lon="4.52919">
        <ele>713.6</ele>
        <time>2025-09-06T13:21:01Z</time>
      </trkpt>
      <trkpt lat="46.15749" lon="4.5292">
        <ele>713.6</ele>
        <time>2025-09-06T13:21:02Z</time>
      </trkpt>
      <trkpt lat="46.15748" lon="4.52922">
        <ele>713.6</ele>
        <time>2025-09-06T13:21:03Z</time>
      </trkpt>
      <trkpt lat="46.15747" lon="4.52923">
        <ele>713.6</ele>
        <time>2025-09-06T13:21:04Z</time>
      </trkpt>
      <trkpt lat="46.15747" lon="4.52924">
        <ele>713.4</ele>
        <time>2025-09-06T13:21:05Z</time>
      </trkpt>
      <trkpt lat="46.15748" lon="4.52926">
        <ele>713.2</ele>
        <time>2025-09-06T13:21:06Z</time>
      </trkpt>
      <trkpt lat="46.15748" lon="4.52928">
        <ele>713.2</ele>
        <time>2025-09-06T13:21:07Z</time>
      </trkpt>
      <trkpt lat="46.15749" lon="4.52929">
        <ele>713.2</ele>
        <time>2025-09-06T13:21:08Z</time>
      </trkpt>
      <trkpt lat="46.1575" lon="4.52931">
        <ele>713.4</ele>
        <time>2025-09-06T13:21:09Z</time>
      </trkpt>
      <trkpt lat="46.15751" lon="4.52932">
        <ele>713.4</ele>
        <time>2025-09-06T13:21:10Z</time>
      </trkpt>
      <trkpt lat="46.15752" lon="4.52933">
        <ele>713.4</ele>
        <time>2025-09-06T13:21:11Z</time>
      </trkpt>
      <trkpt lat="46.15752" lon="4.52933">
        <ele>713.4</ele>
        <time>2025-09-06T13:21:12Z</time>
      </trkpt>
      <trkpt lat="46.15754" lon="4.52934">
        <ele>713.4</ele>
        <time>2025-09-06T13:21:13Z</time>
      </trkpt>
      <trkpt lat="46.15755" lon="4.52934">
        <ele>713.4</ele>
        <time>2025-09-06T13:21:14Z</time>
      </trkpt>
      <trkpt lat="46.15756" lon="4.52935">
        <ele>713.4</ele>
        <time>2025-09-06T13:21:15Z</time>
      </trkpt>
      <trkpt lat="46.15757" lon="4.52936">
        <ele>713.6</ele>
        <time>2025-09-06T13:21:16Z</time>
      </trkpt>
      <trkpt lat="46.15758" lon="4.52936">
        <ele>713.6</ele>
        <time>2025-09-06T13:21:17Z</time>
      </trkpt>
      <trkpt lat="46.15759" lon="4.52938">
        <ele>713.6</ele>
        <time>2025-09-06T13:21:18Z</time>
      </trkpt>
      <trkpt lat="46.1576" lon="4.52939">
        <ele>713.6</ele>
        <time>2025-09-06T13:21:19Z</time>
      </trkpt>
      <trkpt lat="46.15761" lon="4.5294">
        <ele>713.6</ele>
        <time>2025-09-06T13:21:20Z</time>
      </trkpt>
      <trkpt lat="46.15762" lon="4.5294">
        <ele>714</ele>
        <time>2025-09-06T13:21:21Z</time>
      </trkpt>
      <trkpt lat="46.15763" lon="4.52941">
        <ele>714</ele>
        <time>2025-09-06T13:21:22Z</time>
      </trkpt>
      <trkpt lat="46.15764" lon="4.52942">
        <ele>714</ele>
        <time>2025-09-06T13:21:23Z</time>
      </trkpt>
      <trkpt lat="46.15765" lon="4.52942">
        <ele>714.2</ele>
        <time>2025-09-06T13:21:24Z</time>
      </trkpt>
      <trkpt lat="46.15766" lon="4.52943">
        <ele>714.2</ele>
        <time>2025-09-06T13:21:25Z</time>
      </trkpt>
      <trkpt lat="46.15767" lon="4.52943">
        <ele>714.4</ele>
        <time>2025-09-06T13:21:26Z</time>
      </trkpt>
      <trkpt lat="46.15768" lon="4.52943">
        <ele>714.4</ele>
        <time>2025-09-06T13:21:27Z</time>
      </trkpt>
      <trkpt lat="46.15768" lon="4.52943">
        <ele>714.6</ele>
        <time>2025-09-06T13:21:28Z</time>
      </trkpt>
      <trkpt lat="46.15769" lon="4.52943">
        <ele>714.6</ele>
        <time>2025-09-06T13:21:29Z</time>
      </trkpt>
      <trkpt lat="46.1577" lon="4.52944">
        <ele>714.6</ele>
        <time>2025-09-06T13:21:30Z</time>
      </trkpt>
      <trkpt lat="46.15771" lon="4.52945">
        <ele>714.8</ele>
        <time>2025-09-06T13:21:31Z</time>
      </trkpt>
      <trkpt lat="46.15771" lon="4.52946">
        <ele>714.8</ele>
        <time>2025-09-06T13:21:32Z</time>
      </trkpt>
      <trkpt lat="46.15772" lon="4.52947">
        <ele>714.8</ele>
        <time>2025-09-06T13:21:33Z</time>
      </trkpt>
      <trkpt lat="46.15773" lon="4.52948">
        <ele>714.8</ele>
        <time>2025-09-06T13:21:34Z</time>
      </trkpt>
      <trkpt lat="46.15774" lon="4.52947">
        <ele>715.2</ele>
        <time>2025-09-06T13:21:35Z</time>
      </trkpt>
      <trkpt lat="46.15775" lon="4.52946">
        <ele>715.2</ele>
        <time>2025-09-06T13:21:36Z</time>
      </trkpt>
      <trkpt lat="46.15775" lon="4.52945">
        <ele>715.2</ele>
        <time>2025-09-06T13:21:37Z</time>
      </trkpt>
      <trkpt lat="46.15776" lon="4.52944">
        <ele>715.4</ele>
        <time>2025-09-06T13:21:38Z</time>
      </trkpt>
      <trkpt lat="46.15776" lon="4.52944">
        <ele>715.6</ele>
        <time>2025-09-06T13:21:39Z</time>
      </trkpt>
      <trkpt lat="46.15776" lon="4.52944">
        <ele>715.6</ele>
        <time>2025-09-06T13:21:40Z</time>
      </trkpt>
      <trkpt lat="46.15773" lon="4.52942">
        <ele>716.2</ele>
        <time>2025-09-06T13:22:26Z</time>
      </trkpt>
      <trkpt lat="46.15772" lon="4.52944">
        <ele>716</ele>
        <time>2025-09-06T13:22:27Z</time>
      </trkpt>
      <trkpt lat="46.15772" lon="4.52946">
        <ele>716</ele>
        <time>2025-09-06T13:22:28Z</time>
      </trkpt>
      <trkpt lat="46.15772" lon="4.52948">
        <ele>716</ele>
        <time>2025-09-06T13:22:29Z</time>
      </trkpt>
      <trkpt lat="46.15773" lon="4.5295">
        <ele>716</ele>
        <time>2025-09-06T13:22:30Z</time>
      </trkpt>
      <trkpt lat="46.15774" lon="4.52952">
        <ele>716</ele>
        <time>2025-09-06T13:22:31Z</time>
      </trkpt>
      <trkpt lat="46.15776" lon="4.52954">
        <ele>715.6</ele>
        <time>2025-09-06T13:22:32Z</time>
      </trkpt>
      <trkpt lat="46.15777" lon="4.52955">
        <ele>715.6</ele>
        <time>2025-09-06T13:22:33Z</time>
      </trkpt>
      <trkpt lat="46.15778" lon="4.52955">
        <ele>715.6</ele>
        <time>2025-09-06T13:22:34Z</time>
      </trkpt>
      <trkpt lat="46.15779" lon="4.52955">
        <ele>715.6</ele>
        <time>2025-09-06T13:22:35Z</time>
      </trkpt>
      <trkpt lat="46.1578" lon="4.52955">
        <ele>715.6</ele>
        <time>2025-09-06T13:22:36Z</time>
      </trkpt>
      <trkpt lat="46.1578" lon="4.52954">
        <ele>715.6</ele>
        <time>2025-09-06T13:22:37Z</time>
      </trkpt>
      <trkpt lat="46.15781" lon="4.52954">
        <ele>715.6</ele>
        <time>2025-09-06T13:22:38Z</time>
      </trkpt>
      <trkpt lat="46.15781" lon="4.52954">
        <ele>715.6</ele>
        <time>2025-09-06T13:22:39Z</time>
      </trkpt>
      <trkpt lat="46.15779" lon="4.52956">
        <ele>716.2</ele>
        <time>2025-09-06T13:26:33Z</time>
      </trkpt>
      <trkpt lat="46.15778" lon="4.52956">
        <ele>716.2</ele>
        <time>2025-09-06T13:26:34Z</time>
      </trkpt>
      <trkpt lat="46.15777" lon="4.52957">
        <ele>716.2</ele>
        <time>2025-09-06T13:26:35Z</time>
      </trkpt>
      <trkpt lat="46.15777" lon="4.52959">
        <ele>716.2</ele>
        <time>2025-09-06T13:26:36Z</time>
      </trkpt>
      <trkpt lat="46.15777" lon="4.5296">
        <ele>716.2</ele>
        <time>2025-09-06T13:26:37Z</time>
      </trkpt>
      <trkpt lat="46.15777" lon="4.52961">
        <ele>716.2</ele>
        <time>2025-09-06T13:26:38Z</time>
      </trkpt>
      <trkpt lat="46.15778" lon="4.5296">
        <ele>716.2</ele>
        <time>2025-09-06T13:26:39Z</time>
      </trkpt>
      <trkpt lat="46.15779" lon="4.5296">
        <ele>716.2</ele>
        <time>2025-09-06T13:26:40Z</time>
      </trkpt>
      <trkpt lat="46.15783" lon="4.52957">
        <ele>716.4</ele>
        <time>2025-09-06T13:27:11Z</time>
      </trkpt>
      <trkpt lat="46.15783" lon="4.52957">
        <ele>716.4</ele>
        <time>2025-09-06T13:27:12Z</time>
      </trkpt>
      <trkpt lat="46.15783" lon="4.52962">
        <ele>716.6</ele>
        <time>2025-09-06T13:27:19Z</time>
      </trkpt>
      <trkpt lat="46.15784" lon="4.52965">
        <ele>716.6</ele>
        <time>2025-09-06T13:27:20Z</time>
      </trkpt>
      <trkpt lat="46.15785" lon="4.52967">
        <ele>716.6</ele>
        <time>2025-09-06T13:27:21Z</time>
      </trkpt>
      <trkpt lat="46.15787" lon="4.52969">
        <ele>716.6</ele>
        <time>2025-09-06T13:27:22Z</time>
      </trkpt>
      <trkpt lat="46.15789" lon="4.52971">
        <ele>716.6</ele>
        <time>2025-09-06T13:27:23Z</time>
      </trkpt>
      <trkpt lat="46.1579" lon="4.52973">
        <ele>716.6</ele>
        <time>2025-09-06T13:27:24Z</time>
      </trkpt>
      <trkpt lat="46.15792" lon="4.52975">
        <ele>716.8</ele>
        <time>2025-09-06T13:27:25Z</time>
      </trkpt>
      <trkpt lat="46.15794" lon="4.52977">
        <ele>716.8</ele>
        <time>2025-09-06T13:27:26Z</time>
      </trkpt>
      <trkpt lat="46.15795" lon="4.52979">
        <ele>716.8</ele>
        <time>2025-09-06T13:27:27Z</time>
      </trkpt>
      <trkpt lat="46.15797" lon="4.52981">
        <ele>716.8</ele>
        <time>2025-09-06T13:27:28Z</time>
      </trkpt>
      <trkpt lat="46.15799" lon="4.52983">
        <ele>717</ele>
        <time>2025-09-06T13:27:29Z</time>
      </trkpt>
      <trkpt lat="46.158" lon="4.52985">
        <ele>717</ele>
        <time>2025-09-06T13:27:30Z</time>
      </trkpt>
      <trkpt lat="46.15802" lon="4.52987">
        <ele>717</ele>
        <time>2025-09-06T13:27:31Z</time>
      </trkpt>
      <trkpt lat="46.15804" lon="4.52989">
        <ele>717.2</ele>
        <time>2025-09-06T13:27:32Z</time>
      </trkpt>
      <trkpt lat="46.15806" lon="4.52991">
        <ele>717.2</ele>
        <time>2025-09-06T13:27:33Z</time>
      </trkpt>
      <trkpt lat="46.15807" lon="4.52992">
        <ele>717.6</ele>
        <time>2025-09-06T13:27:34Z</time>
      </trkpt>
      <trkpt lat="46.15809" lon="4.52994">
        <ele>717.6</ele>
        <time>2025-09-06T13:27:35Z</time>
      </trkpt>
      <trkpt lat="46.1581" lon="4.52996">
        <ele>717.8</ele>
        <time>2025-09-06T13:27:36Z</time>
      </trkpt>
      <trkpt lat="46.15812" lon="4.52998">
        <ele>717.8</ele>
        <time>2025-09-06T13:27:37Z</time>
      </trkpt>
      <trkpt lat="46.15814" lon="4.53001">
        <ele>718</ele>
        <time>2025-09-06T13:27:38Z</time>
      </trkpt>
      <trkpt lat="46.15815" lon="4.53003">
        <ele>718</ele>
        <time>2025-09-06T13:27:39Z</time>
      </trkpt>
      <trkpt lat="46.15817" lon="4.53005">
        <ele>718</ele>
        <time>2025-09-06T13:27:40Z</time>
      </trkpt>
      <trkpt lat="46.15818" lon="4.53008">
        <ele>718</ele>
        <time>2025-09-06T13:27:41Z</time>
      </trkpt>
      <trkpt lat="46.1582" lon="4.5301">
        <ele>718.4</ele>
        <time>2025-09-06T13:27:42Z</time>
      </trkpt>
      <trkpt lat="46.15821" lon="4.53013">
        <ele>718.4</ele>
        <time>2025-09-06T13:27:43Z</time>
      </trkpt>
      <trkpt lat="46.15822" lon="4.53015">
        <ele>718.4</ele>
        <time>2025-09-06T13:27:44Z</time>
      </trkpt>
      <trkpt lat="46.15823" lon="4.53016">
        <ele>718.4</ele>
        <time>2025-09-06T13:27:45Z</time>
      </trkpt>
      <trkpt lat="46.15824" lon="4.53017">
        <ele>718.6</ele>
        <time>2025-09-06T13:27:46Z</time>
      </trkpt>
      <trkpt lat="46.15824" lon="4.53018">
        <ele>718.6</ele>
        <time>2025-09-06T13:27:47Z</time>
      </trkpt>
      <trkpt lat="46.15825" lon="4.53019">
        <ele>718.6</ele>
        <time>2025-09-06T13:27:48Z</time>
      </trkpt>
      <trkpt lat="46.15826" lon="4.5302">
        <ele>718.8</ele>
        <time>2025-09-06T13:27:49Z</time>
      </trkpt>
      <trkpt lat="46.15827" lon="4.53021">
        <ele>718.8</ele>
        <time>2025-09-06T13:27:50Z</time>
      </trkpt>
      <trkpt lat="46.15827" lon="4.53021">
        <ele>718.8</ele>
        <time>2025-09-06T13:27:51Z</time>
      </trkpt>
      <trkpt lat="46.15826" lon="4.5302">
        <ele>718.8</ele>
        <time>2025-09-06T13:27:52Z</time>
      </trkpt>
      <trkpt lat="46.15824" lon="4.53021">
        <ele>719.2</ele>
        <time>2025-09-06T13:28:13Z</time>
      </trkpt>
      <trkpt lat="46.15825" lon="4.53023">
        <ele>719.2</ele>
        <time>2025-09-06T13:28:14Z</time>
      </trkpt>
      <trkpt lat="46.15826" lon="4.53024">
        <ele>719.2</ele>
        <time>2025-09-06T13:28:15Z</time>
      </trkpt>
      <trkpt lat="46.15828" lon="4.53024">
        <ele>719.4</ele>
        <time>2025-09-06T13:28:16Z</time>
      </trkpt>
      <trkpt lat="46.15829" lon="4.53022">
        <ele>719.4</ele>
        <time>2025-09-06T13:28:17Z</time>
      </trkpt>
      <trkpt lat="46.15828" lon="4.53018">
        <ele>719.4</ele>
        <time>2025-09-06T13:28:18Z</time>
      </trkpt>
      <trkpt lat="46.15827" lon="4.53015">
        <ele>719.4</ele>
        <time>2025-09-06T13:28:19Z</time>
      </trkpt>
      <trkpt lat="46.15824" lon="4.53012">
        <ele>719.4</ele>
        <time>2025-09-06T13:28:20Z</time>
      </trkpt>
      <trkpt lat="46.15821" lon="4.5301">
        <ele>719.4</ele>
        <time>2025-09-06T13:28:21Z</time>
      </trkpt>
      <trkpt lat="46.15819" lon="4.53008">
        <ele>719.4</ele>
        <time>2025-09-06T13:28:22Z</time>
      </trkpt>
      <trkpt lat="46.15816" lon="4.53005">
        <ele>719.4</ele>
        <time>2025-09-06T13:28:23Z</time>
      </trkpt>
      <trkpt lat="46.15814" lon="4.53002">
        <ele>719.4</ele>
        <time>2025-09-06T13:28:24Z</time>
      </trkpt>
      <trkpt lat="46.15813" lon="4.52998">
        <ele>719.4</ele>
        <time>2025-09-06T13:28:25Z</time>
      </trkpt>
      <trkpt lat="46.15813" lon="4.52995">
        <ele>719.4</ele>
        <time>2025-09-06T13:28:26Z</time>
      </trkpt>
      <trkpt lat="46.15812" lon="4.52993">
        <ele>719.4</ele>
        <time>2025-09-06T13:28:27Z</time>
      </trkpt>
      <trkpt lat="46.15811" lon="4.52992">
        <ele>719.4</ele>
        <time>2025-09-06T13:28:28Z</time>
      </trkpt>
      <trkpt lat="46.15809" lon="4.52993">
        <ele>719.2</ele>
        <time>2025-09-06T13:28:29Z</time>
      </trkpt>
      <trkpt lat="46.15807" lon="4.52996">
        <ele>719.2</ele>
        <time>2025-09-06T13:28:30Z</time>
      </trkpt>
      <trkpt lat="46.15807" lon="4.53">
        <ele>719</ele>
        <time>2025-09-06T13:28:31Z</time>
      </trkpt>
      <trkpt lat="46.15809" lon="4.53003">
        <ele>719</ele>
        <time>2025-09-06T13:28:32Z</time>
      </trkpt>
      <trkpt lat="46.15811" lon="4.53006">
        <ele>719</ele>
        <time>2025-09-06T13:28:33Z</time>
      </trkpt>
      <trkpt lat="46.15814" lon="4.53008">
        <ele>719</ele>
        <time>2025-09-06T13:28:34Z</time>
      </trkpt>
      <trkpt lat="46.15817" lon="4.53012">
        <ele>718.6</ele>
        <time>2025-09-06T13:28:35Z</time>
      </trkpt>
      <trkpt lat="46.15819" lon="4.53015">
        <ele>718.6</ele>
        <time>2025-09-06T13:28:36Z</time>
      </trkpt>
      <trkpt lat="46.1582" lon="4.53018">
        <ele>718.6</ele>
        <time>2025-09-06T13:28:37Z</time>
      </trkpt>
      <trkpt lat="46.15821" lon="4.53022">
        <ele>719</ele>
        <time>2025-09-06T13:28:38Z</time>
      </trkpt>
      <trkpt lat="46.15822" lon="4.53026">
        <ele>719</ele>
        <time>2025-09-06T13:28:39Z</time>
      </trkpt>
      <trkpt lat="46.15823" lon="4.53031">
        <ele>718.6</ele>
        <time>2025-09-06T13:28:40Z</time>
      </trkpt>
      <trkpt lat="46.15823" lon="4.53038">
        <ele>718.2</ele>
        <time>2025-09-06T13:28:41Z</time>
      </trkpt>
      <trkpt lat="46.15823" lon="4.53046">
        <ele>718.2</ele>
        <time>2025-09-06T13:28:42Z</time>
      </trkpt>
      <trkpt lat="46.15822" lon="4.53055">
        <ele>717.4</ele>
        <time>2025-09-06T13:28:43Z</time>
      </trkpt>
      <trkpt lat="46.15821" lon="4.53065">
        <ele>716.6</ele>
        <time>2025-09-06T13:28:44Z</time>
      </trkpt>
      <trkpt lat="46.1582" lon="4.53075">
        <ele>715.8</ele>
        <time>2025-09-06T13:28:45Z</time>
      </trkpt>
      <trkpt lat="46.15818" lon="4.53085">
        <ele>714.8</ele>
        <time>2025-09-06T13:28:46Z</time>
      </trkpt>
      <trkpt lat="46.15817" lon="4.53095">
        <ele>714.2</ele>
        <time>2025-09-06T13:28:47Z</time>
      </trkpt>
      <trkpt lat="46.15816" lon="4.53107">
        <ele>713.6</ele>
        <time>2025-09-06T13:28:48Z</time>
      </trkpt>
      <trkpt lat="46.15816" lon="4.53107">
        <ele>712.6</ele>
        <time>2025-09-06T13:28:49Z</time>
      </trkpt>
      <trkpt lat="46.15816" lon="4.53107">
        <ele>711.6</ele>
        <time>2025-09-06T13:28:50Z</time>
      </trkpt>
      <trkpt lat="46.1582" lon="4.53148">
        <ele>709.6</ele>
        <time>2025-09-06T13:28:52Z</time>
      </trkpt>
      <trkpt lat="46.15818" lon="4.53158">
        <ele>708.8</ele>
        <time>2025-09-06T13:28:53Z</time>
      </trkpt>
      <trkpt lat="46.15817" lon="4.53167">
        <ele>708.2</ele>
        <time>2025-09-06T13:28:54Z</time>
      </trkpt>
      <trkpt lat="46.15817" lon="4.53176">
        <ele>707.4</ele>
        <time>2025-09-06T13:28:55Z</time>
      </trkpt>
      <trkpt lat="46.15815" lon="4.53184">
        <ele>707</ele>
        <time>2025-09-06T13:28:56Z</time>
      </trkpt>
      <trkpt lat="46.15815" lon="4.5319">
        <ele>706</ele>
        <time>2025-09-06T13:28:57Z</time>
      </trkpt>
      <trkpt lat="46.15813" lon="4.53199">
        <ele>705</ele>
        <time>2025-09-06T13:28:58Z</time>
      </trkpt>
      <trkpt lat="46.15813" lon="4.53207">
        <ele>704.2</ele>
        <time>2025-09-06T13:28:59Z</time>
      </trkpt>
      <trkpt lat="46.15813" lon="4.53215">
        <ele>703.2</ele>
        <time>2025-09-06T13:29:00Z</time>
      </trkpt>
      <trkpt lat="46.15807" lon="4.53228">
        <ele>702.4</ele>
        <time>2025-09-06T13:29:01Z</time>
      </trkpt>
      <trkpt lat="46.15805" lon="4.53239">
        <ele>701.2</ele>
        <time>2025-09-06T13:29:02Z</time>
      </trkpt>
      <trkpt lat="46.15804" lon="4.53247">
        <ele>700</ele>
        <time>2025-09-06T13:29:03Z</time>
      </trkpt>
      <trkpt lat="46.15803" lon="4.53257">
        <ele>699</ele>
        <time>2025-09-06T13:29:04Z</time>
      </trkpt>
      <trkpt lat="46.15801" lon="4.53267">
        <ele>698</ele>
        <time>2025-09-06T13:29:05Z</time>
      </trkpt>
      <trkpt lat="46.15802" lon="4.53276">
        <ele>697</ele>
        <time>2025-09-06T13:29:06Z</time>
      </trkpt>
      <trkpt lat="46.15802" lon="4.53286">
        <ele>696</ele>
        <time>2025-09-06T13:29:07Z</time>
      </trkpt>
      <trkpt lat="46.15803" lon="4.53297">
        <ele>695</ele>
        <time>2025-09-06T13:29:08Z</time>
      </trkpt>
      <trkpt lat="46.15803" lon="4.53309">
        <ele>694.4</ele>
        <time>2025-09-06T13:29:09Z</time>
      </trkpt>
      <trkpt lat="46.15804" lon="4.53317">
        <ele>692.4</ele>
        <time>2025-09-06T13:29:10Z</time>
      </trkpt>
      <trkpt lat="46.15804" lon="4.53328">
        <ele>691.6</ele>
        <time>2025-09-06T13:29:11Z</time>
      </trkpt>
      <trkpt lat="46.15804" lon="4.53336">
        <ele>690.8</ele>
        <time>2025-09-06T13:29:12Z</time>
      </trkpt>
      <trkpt lat="46.15806" lon="4.53346">
        <ele>690</ele>
        <time>2025-09-06T13:29:13Z</time>
      </trkpt>
      <trkpt lat="46.15808" lon="4.53355">
        <ele>689</ele>
        <time>2025-09-06T13:29:14Z</time>
      </trkpt>
      <trkpt lat="46.15811" lon="4.53364">
        <ele>688.2</ele>
        <time>2025-09-06T13:29:15Z</time>
      </trkpt>
      <trkpt lat="46.15809" lon="4.5337">
        <ele>688</ele>
        <time>2025-09-06T13:29:16Z</time>
      </trkpt>
      <trkpt lat="46.15809" lon="4.53375">
        <ele>687.2</ele>
        <time>2025-09-06T13:29:17Z</time>
      </trkpt>
      <trkpt lat="46.15807" lon="4.53381">
        <ele>686.2</ele>
        <time>2025-09-06T13:29:18Z</time>
      </trkpt>
      <trkpt lat="46.158" lon="4.53376">
        <ele>685.4</ele>
        <time>2025-09-06T13:29:19Z</time>
      </trkpt>
      <trkpt lat="46.15797" lon="4.53375">
        <ele>684.4</ele>
        <time>2025-09-06T13:29:20Z</time>
      </trkpt>
      <trkpt lat="46.15793" lon="4.53374">
        <ele>683.6</ele>
        <time>2025-09-06T13:29:21Z</time>
      </trkpt>
      <trkpt lat="46.15792" lon="4.53373">
        <ele>683</ele>
        <time>2025-09-06T13:29:22Z</time>
      </trkpt>
      <trkpt lat="46.1579" lon="4.53367">
        <ele>682.2</ele>
        <time>2025-09-06T13:29:23Z</time>
      </trkpt>
      <trkpt lat="46.15787" lon="4.53363">
        <ele>682</ele>
        <time>2025-09-06T13:29:24Z</time>
      </trkpt>
      <trkpt lat="46.15786" lon="4.53356">
        <ele>681</ele>
        <time>2025-09-06T13:29:25Z</time>
      </trkpt>
      <trkpt lat="46.15782" lon="4.53351">
        <ele>680.6</ele>
        <time>2025-09-06T13:29:26Z</time>
      </trkpt>
      <trkpt lat="46.15777" lon="4.53348">
        <ele>680.2</ele>
        <time>2025-09-06T13:29:27Z</time>
      </trkpt>
      <trkpt lat="46.15773" lon="4.5335">
        <ele>679.6</ele>
        <time>2025-09-06T13:29:28Z</time>
      </trkpt>
      <trkpt lat="46.1577" lon="4.53354">
        <ele>679.2</ele>
        <time>2025-09-06T13:29:29Z</time>
      </trkpt>
      <trkpt lat="46.15768" lon="4.53361">
        <ele>678.6</ele>
        <time>2025-09-06T13:29:30Z</time>
      </trkpt>
      <trkpt lat="46.15765" lon="4.53369">
        <ele>677.8</ele>
        <time>2025-09-06T13:29:31Z</time>
      </trkpt>
      <trkpt lat="46.15766" lon="4.53379">
        <ele>677</ele>
        <time>2025-09-06T13:29:32Z</time>
      </trkpt>
      <trkpt lat="46.15766" lon="4.53379">
        <ele>676</ele>
        <time>2025-09-06T13:29:33Z</time>
      </trkpt>
      <trkpt lat="46.15766" lon="4.53388">
        <ele>675</ele>
        <time>2025-09-06T13:29:34Z</time>
      </trkpt>
      <trkpt lat="46.15766" lon="4.53399">
        <ele>674</ele>
        <time>2025-09-06T13:29:35Z</time>
      </trkpt>
      <trkpt lat="46.15767" lon="4.53411">
        <ele>673.6</ele>
        <time>2025-09-06T13:29:36Z</time>
      </trkpt>
      <trkpt lat="46.15767" lon="4.53423">
        <ele>672.8</ele>
        <time>2025-09-06T13:29:37Z</time>
      </trkpt>
      <trkpt lat="46.15767" lon="4.53434">
        <ele>672</ele>
        <time>2025-09-06T13:29:38Z</time>
      </trkpt>
      <trkpt lat="46.15768" lon="4.53443">
        <ele>671</ele>
        <time>2025-09-06T13:29:39Z</time>
      </trkpt>
      <trkpt lat="46.15768" lon="4.53453">
        <ele>670.2</ele>
        <time>2025-09-06T13:29:40Z</time>
      </trkpt>
      <trkpt lat="46.15768" lon="4.53462">
        <ele>669.2</ele>
        <time>2025-09-06T13:29:41Z</time>
      </trkpt>
      <trkpt lat="46.15769" lon="4.53472">
        <ele>668.6</ele>
        <time>2025-09-06T13:29:42Z</time>
      </trkpt>
      <trkpt lat="46.15769" lon="4.53483">
        <ele>667.8</ele>
        <time>2025-09-06T13:29:43Z</time>
      </trkpt>
      <trkpt lat="46.1577" lon="4.53493">
        <ele>666.8</ele>
        <time>2025-09-06T13:29:44Z</time>
      </trkpt>
      <trkpt lat="46.15772" lon="4.53505">
        <ele>665.6</ele>
        <time>2025-09-06T13:29:45Z</time>
      </trkpt>
      <trkpt lat="46.15773" lon="4.53517">
        <ele>664.8</ele>
        <time>2025-09-06T13:29:46Z</time>
      </trkpt>
      <trkpt lat="46.15777" lon="4.53528">
        <ele>663.6</ele>
        <time>2025-09-06T13:29:47Z</time>
      </trkpt>
      <trkpt lat="46.15776" lon="4.53541">
        <ele>662.6</ele>
        <time>2025-09-06T13:29:48Z</time>
      </trkpt>
      <trkpt lat="46.15777" lon="4.53553">
        <ele>661.6</ele>
        <time>2025-09-06T13:29:49Z</time>
      </trkpt>
      <trkpt lat="46.15778" lon="4.53564">
        <ele>660.6</ele>
        <time>2025-09-06T13:29:50Z</time>
      </trkpt>
      <trkpt lat="46.15778" lon="4.53574">
        <ele>659.4</ele>
        <time>2025-09-06T13:29:51Z</time>
      </trkpt>
      <trkpt lat="46.15778" lon="4.53584">
        <ele>658.6</ele>
        <time>2025-09-06T13:29:52Z</time>
      </trkpt>
      <trkpt lat="46.1578" lon="4.5359">
        <ele>657.6</ele>
        <time>2025-09-06T13:29:53Z</time>
      </trkpt>
      <trkpt lat="46.15782" lon="4.53596">
        <ele>657</ele>
        <time>2025-09-06T13:29:54Z</time>
      </trkpt>
      <trkpt lat="46.15785" lon="4.53602">
        <ele>656.4</ele>
        <time>2025-09-06T13:29:55Z</time>
      </trkpt>
      <trkpt lat="46.15788" lon="4.53606">
        <ele>655.8</ele>
        <time>2025-09-06T13:29:56Z</time>
      </trkpt>
      <trkpt lat="46.15792" lon="4.53609">
        <ele>655.2</ele>
        <time>2025-09-06T13:29:57Z</time>
      </trkpt>
      <trkpt lat="46.15799" lon="4.53611">
        <ele>654</ele>
        <time>2025-09-06T13:29:58Z</time>
      </trkpt>
      <trkpt lat="46.15805" lon="4.53613">
        <ele>652.8</ele>
        <time>2025-09-06T13:29:59Z</time>
      </trkpt>
      <trkpt lat="46.15813" lon="4.53614">
        <ele>652</ele>
        <time>2025-09-06T13:30:00Z</time>
      </trkpt>
      <trkpt lat="46.1582" lon="4.53615">
        <ele>651.2</ele>
        <time>2025-09-06T13:30:01Z</time>
      </trkpt>
      <trkpt lat="46.15827" lon="4.53616">
        <ele>650.6</ele>
        <time>2025-09-06T13:30:02Z</time>
      </trkpt>
      <trkpt lat="46.1584" lon="4.53611">
        <ele>649.6</ele>
        <time>2025-09-06T13:30:03Z</time>
      </trkpt>
      <trkpt lat="46.15847" lon="4.5361">
        <ele>648.8</ele>
        <time>2025-09-06T13:30:04Z</time>
      </trkpt>
      <trkpt lat="46.15855" lon="4.53608">
        <ele>647.8</ele>
        <time>2025-09-06T13:30:05Z</time>
      </trkpt>
      <trkpt lat="46.15862" lon="4.53609">
        <ele>647</ele>
        <time>2025-09-06T13:30:06Z</time>
      </trkpt>
      <trkpt lat="46.15862" lon="4.53609">
        <ele>645.8</ele>
        <time>2025-09-06T13:30:07Z</time>
      </trkpt>
      <trkpt lat="46.15874" lon="4.53616">
        <ele>644.6</ele>
        <time>2025-09-06T13:30:08Z</time>
      </trkpt>
      <trkpt lat="46.15882" lon="4.53619">
        <ele>643.4</ele>
        <time>2025-09-06T13:30:09Z</time>
      </trkpt>
      <trkpt lat="46.15887" lon="4.53624">
        <ele>642.4</ele>
        <time>2025-09-06T13:30:10Z</time>
      </trkpt>
      <trkpt lat="46.15893" lon="4.53628">
        <ele>641.4</ele>
        <time>2025-09-06T13:30:11Z</time>
      </trkpt>
      <trkpt lat="46.15898" lon="4.5363">
        <ele>640</ele>
        <time>2025-09-06T13:30:12Z</time>
      </trkpt>
      <trkpt lat="46.15906" lon="4.53638">
        <ele>639.2</ele>
        <time>2025-09-06T13:30:13Z</time>
      </trkpt>
      <trkpt lat="46.15913" lon="4.53645">
        <ele>638.2</ele>
        <time>2025-09-06T13:30:14Z</time>
      </trkpt>
      <trkpt lat="46.1592" lon="4.53652">
        <ele>636.8</ele>
        <time>2025-09-06T13:30:15Z</time>
      </trkpt>
      <trkpt lat="46.15928" lon="4.5366">
        <ele>635.6</ele>
        <time>2025-09-06T13:30:16Z</time>
      </trkpt>
      <trkpt lat="46.15936" lon="4.53665">
        <ele>634.2</ele>
        <time>2025-09-06T13:30:17Z</time>
      </trkpt>
      <trkpt lat="46.15944" lon="4.53674">
        <ele>633</ele>
        <time>2025-09-06T13:30:18Z</time>
      </trkpt>
      <trkpt lat="46.15952" lon="4.53682">
        <ele>631.8</ele>
        <time>2025-09-06T13:30:19Z</time>
      </trkpt>
      <trkpt lat="46.15961" lon="4.53689">
        <ele>630.4</ele>
        <time>2025-09-06T13:30:20Z</time>
      </trkpt>
      <trkpt lat="46.15968" lon="4.53695">
        <ele>629.6</ele>
        <time>2025-09-06T13:30:21Z</time>
      </trkpt>
      <trkpt lat="46.15974" lon="4.53702">
        <ele>628.2</ele>
        <time>2025-09-06T13:30:22Z</time>
      </trkpt>
      <trkpt lat="46.15981" lon="4.53706">
        <ele>626.8</ele>
        <time>2025-09-06T13:30:23Z</time>
      </trkpt>
      <trkpt lat="46.15988" lon="4.53711">
        <ele>625.6</ele>
        <time>2025-09-06T13:30:24Z</time>
      </trkpt>
      <trkpt lat="46.15994" lon="4.53715">
        <ele>624.4</ele>
        <time>2025-09-06T13:30:25Z</time>
      </trkpt>
      <trkpt lat="46.15998" lon="4.5372">
        <ele>623.8</ele>
        <time>2025-09-06T13:30:26Z</time>
      </trkpt>
      <trkpt lat="46.16006" lon="4.53723">
        <ele>622.4</ele>
        <time>2025-09-06T13:30:27Z</time>
      </trkpt>
      <trkpt lat="46.16012" lon="4.53732">
        <ele>621.2</ele>
        <time>2025-09-06T13:30:28Z</time>
      </trkpt>
      <trkpt lat="46.16019" lon="4.53739">
        <ele>619.8</ele>
        <time>2025-09-06T13:30:29Z</time>
      </trkpt>
      <trkpt lat="46.16026" lon="4.53747">
        <ele>618.6</ele>
        <time>2025-09-06T13:30:30Z</time>
      </trkpt>
      <trkpt lat="46.16034" lon="4.53754">
        <ele>617.2</ele>
        <time>2025-09-06T13:30:31Z</time>
      </trkpt>
      <trkpt lat="46.16034" lon="4.53754">
        <ele>615.8</ele>
        <time>2025-09-06T13:30:32Z</time>
      </trkpt>
      <trkpt lat="46.16043" lon="4.53761">
        <ele>614.6</ele>
        <time>2025-09-06T13:30:33Z</time>
      </trkpt>
      <trkpt lat="46.1605" lon="4.53769">
        <ele>613.4</ele>
        <time>2025-09-06T13:30:34Z</time>
      </trkpt>
      <trkpt lat="46.16058" lon="4.53774">
        <ele>612.4</ele>
        <time>2025-09-06T13:30:35Z</time>
      </trkpt>
      <trkpt lat="46.16066" lon="4.5378">
        <ele>611</ele>
        <time>2025-09-06T13:30:36Z</time>
      </trkpt>
      <trkpt lat="46.16072" lon="4.53785">
        <ele>610.2</ele>
        <time>2025-09-06T13:30:37Z</time>
      </trkpt>
      <trkpt lat="46.16078" lon="4.5379">
        <ele>609</ele>
        <time>2025-09-06T13:30:38Z</time>
      </trkpt>
      <trkpt lat="46.16083" lon="4.53794">
        <ele>607.8</ele>
        <time>2025-09-06T13:30:39Z</time>
      </trkpt>
      <trkpt lat="46.16086" lon="4.538">
        <ele>606.8</ele>
        <time>2025-09-06T13:30:40Z</time>
      </trkpt>
      <trkpt lat="46.16087" lon="4.53807">
        <ele>606</ele>
        <time>2025-09-06T13:30:41Z</time>
      </trkpt>
      <trkpt lat="46.16086" lon="4.53814">
        <ele>605.2</ele>
        <time>2025-09-06T13:30:42Z</time>
      </trkpt>
      <trkpt lat="46.16084" lon="4.5382">
        <ele>604.2</ele>
        <time>2025-09-06T13:30:43Z</time>
      </trkpt>
      <trkpt lat="46.1608" lon="4.53828">
        <ele>603.4</ele>
        <time>2025-09-06T13:30:44Z</time>
      </trkpt>
      <trkpt lat="46.16076" lon="4.53834">
        <ele>602.6</ele>
        <time>2025-09-06T13:30:45Z</time>
      </trkpt>
      <trkpt lat="46.16073" lon="4.53839">
        <ele>601.6</ele>
        <time>2025-09-06T13:30:46Z</time>
      </trkpt>
      <trkpt lat="46.16069" lon="4.53844">
        <ele>601</ele>
        <time>2025-09-06T13:30:47Z</time>
      </trkpt>
      <trkpt lat="46.16066" lon="4.53848">
        <ele>600.2</ele>
        <time>2025-09-06T13:30:48Z</time>
      </trkpt>
      <trkpt lat="46.16062" lon="4.53852">
        <ele>599.2</ele>
        <time>2025-09-06T13:30:49Z</time>
      </trkpt>
      <trkpt lat="46.16058" lon="4.53854">
        <ele>598.2</ele>
        <time>2025-09-06T13:30:50Z</time>
      </trkpt>
      <trkpt lat="46.16054" lon="4.53856">
        <ele>597.6</ele>
        <time>2025-09-06T13:30:51Z</time>
      </trkpt>
      <trkpt lat="46.16051" lon="4.53859">
        <ele>596.8</ele>
        <time>2025-09-06T13:30:52Z</time>
      </trkpt>
      <trkpt lat="46.16048" lon="4.53861">
        <ele>596</ele>
        <time>2025-09-06T13:30:53Z</time>
      </trkpt>
      <trkpt lat="46.16047" lon="4.53864">
        <ele>595.6</ele>
        <time>2025-09-06T13:30:54Z</time>
      </trkpt>
      <trkpt lat="46.16045" lon="4.53867">
        <ele>595.2</ele>
        <time>2025-09-06T13:30:55Z</time>
      </trkpt>
      <trkpt lat="46.16044" lon="4.53871">
        <ele>595</ele>
        <time>2025-09-06T13:30:56Z</time>
      </trkpt>
      <trkpt lat="46.16043" lon="4.53875">
        <ele>594.4</ele>
        <time>2025-09-06T13:30:57Z</time>
      </trkpt>
      <trkpt lat="46.16045" lon="4.53878">
        <ele>594</ele>
        <time>2025-09-06T13:30:58Z</time>
      </trkpt>
      <trkpt lat="46.16047" lon="4.5388">
        <ele>593.8</ele>
        <time>2025-09-06T13:30:59Z</time>
      </trkpt>
      <trkpt lat="46.16049" lon="4.53882">
        <ele>593.4</ele>
        <time>2025-09-06T13:31:00Z</time>
      </trkpt>
      <trkpt lat="46.1605" lon="4.53883">
        <ele>593.4</ele>
        <time>2025-09-06T13:31:01Z</time>
      </trkpt>
      <trkpt lat="46.16051" lon="4.53885">
        <ele>593</ele>
        <time>2025-09-06T13:31:02Z</time>
      </trkpt>
      <trkpt lat="46.16053" lon="4.53887">
        <ele>593</ele>
        <time>2025-09-06T13:31:03Z</time>
      </trkpt>
      <trkpt lat="46.16057" lon="4.53892">
        <ele>592.4</ele>
        <time>2025-09-06T13:31:04Z</time>
      </trkpt>
      <trkpt lat="46.16059" lon="4.53895">
        <ele>592</ele>
        <time>2025-09-06T13:31:05Z</time>
      </trkpt>
      <trkpt lat="46.16062" lon="4.53899">
        <ele>591.8</ele>
        <time>2025-09-06T13:31:06Z</time>
      </trkpt>
      <trkpt lat="46.16064" lon="4.53902">
        <ele>591.8</ele>
        <time>2025-09-06T13:31:07Z</time>
      </trkpt>
      <trkpt lat="46.16067" lon="4.53906">
        <ele>591.2</ele>
        <time>2025-09-06T13:31:08Z</time>
      </trkpt>
      <trkpt lat="46.1607" lon="4.53914">
        <ele>590.8</ele>
        <time>2025-09-06T13:31:09Z</time>
      </trkpt>
      <trkpt lat="46.16074" lon="4.53916">
        <ele>590.2</ele>
        <time>2025-09-06T13:31:10Z</time>
      </trkpt>
      <trkpt lat="46.16078" lon="4.53922">
        <ele>589.6</ele>
        <time>2025-09-06T13:31:11Z</time>
      </trkpt>
      <trkpt lat="46.16082" lon="4.53927">
        <ele>589</ele>
        <time>2025-09-06T13:31:12Z</time>
      </trkpt>
      <trkpt lat="46.16086" lon="4.53932">
        <ele>588.4</ele>
        <time>2025-09-06T13:31:13Z</time>
      </trkpt>
      <trkpt lat="46.1609" lon="4.53938">
        <ele>588</ele>
        <time>2025-09-06T13:31:14Z</time>
      </trkpt>
      <trkpt lat="46.16093" lon="4.53943">
        <ele>587.4</ele>
        <time>2025-09-06T13:31:15Z</time>
      </trkpt>
      <trkpt lat="46.16097" lon="4.53949">
        <ele>586.6</ele>
        <time>2025-09-06T13:31:16Z</time>
      </trkpt>
      <trkpt lat="46.16101" lon="4.53955">
        <ele>586.2</ele>
        <time>2025-09-06T13:31:17Z</time>
      </trkpt>
      <trkpt lat="46.16104" lon="4.53961">
        <ele>585.6</ele>
        <time>2025-09-06T13:31:18Z</time>
      </trkpt>
      <trkpt lat="46.16106" lon="4.53966">
        <ele>585.2</ele>
        <time>2025-09-06T13:31:19Z</time>
      </trkpt>
      <trkpt lat="46.16107" lon="4.53969">
        <ele>584.8</ele>
        <time>2025-09-06T13:31:20Z</time>
      </trkpt>
      <trkpt lat="46.16108" lon="4.53971">
        <ele>584.4</ele>
        <time>2025-09-06T13:31:21Z</time>
      </trkpt>
      <trkpt lat="46.16108" lon="4.53971">
        <ele>584</ele>
        <time>2025-09-06T13:31:22Z</time>
      </trkpt>
      <trkpt lat="46.16108" lon="4.53971">
        <ele>584</ele>
        <time>2025-09-06T13:31:23Z</time>
      </trkpt>
      <trkpt lat="46.16106" lon="4.53971">
        <ele>583.6</ele>
        <time>2025-09-06T13:31:24Z</time>
      </trkpt>
      <trkpt lat="46.16111" lon="4.53972">
        <ele>582.4</ele>
        <time>2025-09-06T13:31:40Z</time>
      </trkpt>
      <trkpt lat="46.16112" lon="4.53974">
        <ele>582.4</ele>
        <time>2025-09-06T13:31:41Z</time>
      </trkpt>
      <trkpt lat="46.16115" lon="4.53976">
        <ele>582.4</ele>
        <time>2025-09-06T13:31:42Z</time>
      </trkpt>
      <trkpt lat="46.16118" lon="4.53979">
        <ele>582.4</ele>
        <time>2025-09-06T13:31:43Z</time>
      </trkpt>
      <trkpt lat="46.16122" lon="4.53982">
        <ele>582.4</ele>
        <time>2025-09-06T13:31:44Z</time>
      </trkpt>
      <trkpt lat="46.16127" lon="4.53984">
        <ele>581.8</ele>
        <time>2025-09-06T13:31:45Z</time>
      </trkpt>
      <trkpt lat="46.16131" lon="4.53986">
        <ele>581.6</ele>
        <time>2025-09-06T13:31:46Z</time>
      </trkpt>
      <trkpt lat="46.16137" lon="4.53988">
        <ele>581</ele>
        <time>2025-09-06T13:31:47Z</time>
      </trkpt>
      <trkpt lat="46.16142" lon="4.5399">
        <ele>580.6</ele>
        <time>2025-09-06T13:31:48Z</time>
      </trkpt>
      <trkpt lat="46.16148" lon="4.53991">
        <ele>580.2</ele>
        <time>2025-09-06T13:31:49Z</time>
      </trkpt>
      <trkpt lat="46.16154" lon="4.53993">
        <ele>579.8</ele>
        <time>2025-09-06T13:31:50Z</time>
      </trkpt>
      <trkpt lat="46.1616" lon="4.53994">
        <ele>579.6</ele>
        <time>2025-09-06T13:31:51Z</time>
      </trkpt>
      <trkpt lat="46.16166" lon="4.53994">
        <ele>579</ele>
        <time>2025-09-06T13:31:52Z</time>
      </trkpt>
      <trkpt lat="46.16172" lon="4.53995">
        <ele>578.2</ele>
        <time>2025-09-06T13:31:53Z</time>
      </trkpt>
      <trkpt lat="46.1618" lon="4.53996">
        <ele>577.6</ele>
        <time>2025-09-06T13:31:54Z</time>
      </trkpt>
      <trkpt lat="46.16187" lon="4.53996">
        <ele>577</ele>
        <time>2025-09-06T13:31:55Z</time>
      </trkpt>
      <trkpt lat="46.16193" lon="4.53998">
        <ele>576.4</ele>
        <time>2025-09-06T13:31:56Z</time>
      </trkpt>
      <trkpt lat="46.16201" lon="4.53996">
        <ele>576</ele>
        <time>2025-09-06T13:31:57Z</time>
      </trkpt>
      <trkpt lat="46.16209" lon="4.53997">
        <ele>575.4</ele>
        <time>2025-09-06T13:31:58Z</time>
      </trkpt>
      <trkpt lat="46.16217" lon="4.53997">
        <ele>574.8</ele>
        <time>2025-09-06T13:31:59Z</time>
      </trkpt>
      <trkpt lat="46.16226" lon="4.53999">
        <ele>574</ele>
        <time>2025-09-06T13:32:00Z</time>
      </trkpt>
      <trkpt lat="46.16236" lon="4.54001">
        <ele>573</ele>
        <time>2025-09-06T13:32:01Z</time>
      </trkpt>
      <trkpt lat="46.16246" lon="4.54004">
        <ele>571.8</ele>
        <time>2025-09-06T13:32:02Z</time>
      </trkpt>
      <trkpt lat="46.16255" lon="4.54008">
        <ele>571</ele>
        <time>2025-09-06T13:32:03Z</time>
      </trkpt>
      <trkpt lat="46.16265" lon="4.54012">
        <ele>569.8</ele>
        <time>2025-09-06T13:32:04Z</time>
      </trkpt>
      <trkpt lat="46.16274" lon="4.54015">
        <ele>568.8</ele>
        <time>2025-09-06T13:32:05Z</time>
      </trkpt>
      <trkpt lat="46.16284" lon="4.54017">
        <ele>568</ele>
        <time>2025-09-06T13:32:06Z</time>
      </trkpt>
      <trkpt lat="46.16293" lon="4.54018">
        <ele>567</ele>
        <time>2025-09-06T13:32:07Z</time>
      </trkpt>
      <trkpt lat="46.16302" lon="4.54018">
        <ele>566.4</ele>
        <time>2025-09-06T13:32:08Z</time>
      </trkpt>
      <trkpt lat="46.16312" lon="4.54018">
        <ele>565</ele>
        <time>2025-09-06T13:32:09Z</time>
      </trkpt>
      <trkpt lat="46.16322" lon="4.54019">
        <ele>564.2</ele>
        <time>2025-09-06T13:32:10Z</time>
      </trkpt>
      <trkpt lat="46.16331" lon="4.54019">
        <ele>563.2</ele>
        <time>2025-09-06T13:32:11Z</time>
      </trkpt>
      <trkpt lat="46.16341" lon="4.54019">
        <ele>562.2</ele>
        <time>2025-09-06T13:32:12Z</time>
      </trkpt>
      <trkpt lat="46.16351" lon="4.54018">
        <ele>561.2</ele>
        <time>2025-09-06T13:32:13Z</time>
      </trkpt>
      <trkpt lat="46.16359" lon="4.54018">
        <ele>560.4</ele>
        <time>2025-09-06T13:32:14Z</time>
      </trkpt>
      <trkpt lat="46.16368" lon="4.54018">
        <ele>559</ele>
        <time>2025-09-06T13:32:15Z</time>
      </trkpt>
      <trkpt lat="46.16377" lon="4.54019">
        <ele>557.8</ele>
        <time>2025-09-06T13:32:16Z</time>
      </trkpt>
      <trkpt lat="46.16387" lon="4.5402">
        <ele>556.6</ele>
        <time>2025-09-06T13:32:17Z</time>
      </trkpt>
      <trkpt lat="46.16396" lon="4.54019">
        <ele>555.6</ele>
        <time>2025-09-06T13:32:18Z</time>
      </trkpt>
      <trkpt lat="46.16404" lon="4.5402">
        <ele>554.4</ele>
        <time>2025-09-06T13:32:19Z</time>
      </trkpt>
      <trkpt lat="46.16411" lon="4.54021">
        <ele>553.4</ele>
        <time>2025-09-06T13:32:20Z</time>
      </trkpt>
      <trkpt lat="46.16417" lon="4.54021">
        <ele>552.4</ele>
        <time>2025-09-06T13:32:21Z</time>
      </trkpt>
      <trkpt lat="46.16423" lon="4.54019">
        <ele>551.6</ele>
        <time>2025-09-06T13:32:22Z</time>
      </trkpt>
      <trkpt lat="46.16428" lon="4.5402">
        <ele>550.6</ele>
        <time>2025-09-06T13:32:23Z</time>
      </trkpt>
      <trkpt lat="46.16429" lon="4.54024">
        <ele>550</ele>
        <time>2025-09-06T13:32:24Z</time>
      </trkpt>
      <trkpt lat="46.16432" lon="4.54029">
        <ele>549.2</ele>
        <time>2025-09-06T13:32:25Z</time>
      </trkpt>
      <trkpt lat="46.1643" lon="4.54036">
        <ele>549</ele>
        <time>2025-09-06T13:32:26Z</time>
      </trkpt>
      <trkpt lat="46.1643" lon="4.54044">
        <ele>548.4</ele>
        <time>2025-09-06T13:32:27Z</time>
      </trkpt>
      <trkpt lat="46.16429" lon="4.54053">
        <ele>547.4</ele>
        <time>2025-09-06T13:32:28Z</time>
      </trkpt>
      <trkpt lat="46.16427" lon="4.54062">
        <ele>546.8</ele>
        <time>2025-09-06T13:32:29Z</time>
      </trkpt>
      <trkpt lat="46.16426" lon="4.5407">
        <ele>546</ele>
        <time>2025-09-06T13:32:30Z</time>
      </trkpt>
      <trkpt lat="46.16424" lon="4.54078">
        <ele>545</ele>
        <time>2025-09-06T13:32:31Z</time>
      </trkpt>
      <trkpt lat="46.1642" lon="4.54084">
        <ele>544.2</ele>
        <time>2025-09-06T13:32:32Z</time>
      </trkpt>
      <trkpt lat="46.16416" lon="4.54091">
        <ele>543.6</ele>
        <time>2025-09-06T13:32:33Z</time>
      </trkpt>
      <trkpt lat="46.1641" lon="4.54092">
        <ele>543</ele>
        <time>2025-09-06T13:32:34Z</time>
      </trkpt>
      <trkpt lat="46.16404" lon="4.54092">
        <ele>542</ele>
        <time>2025-09-06T13:32:35Z</time>
      </trkpt>
      <trkpt lat="46.16398" lon="4.54092">
        <ele>541.6</ele>
        <time>2025-09-06T13:32:36Z</time>
      </trkpt>
      <trkpt lat="46.16392" lon="4.54092">
        <ele>541.2</ele>
        <time>2025-09-06T13:32:37Z</time>
      </trkpt>
      <trkpt lat="46.16387" lon="4.54092">
        <ele>541</ele>
        <time>2025-09-06T13:32:38Z</time>
      </trkpt>
      <trkpt lat="46.16381" lon="4.54093">
        <ele>540.6</ele>
        <time>2025-09-06T13:32:39Z</time>
      </trkpt>
      <trkpt lat="46.16377" lon="4.54092">
        <ele>540.4</ele>
        <time>2025-09-06T13:32:40Z</time>
      </trkpt>
      <trkpt lat="46.16372" lon="4.54095">
        <ele>540</ele>
        <time>2025-09-06T13:32:41Z</time>
      </trkpt>
      <trkpt lat="46.16367" lon="4.54096">
        <ele>540</ele>
        <time>2025-09-06T13:32:42Z</time>
      </trkpt>
      <trkpt lat="46.16363" lon="4.54097">
        <ele>540</ele>
        <time>2025-09-06T13:32:43Z</time>
      </trkpt>
      <trkpt lat="46.16359" lon="4.54099">
        <ele>540</ele>
        <time>2025-09-06T13:32:44Z</time>
      </trkpt>
      <trkpt lat="46.16354" lon="4.54101">
        <ele>540</ele>
        <time>2025-09-06T13:32:45Z</time>
      </trkpt>
      <trkpt lat="46.1635" lon="4.54101">
        <ele>540</ele>
        <time>2025-09-06T13:32:46Z</time>
      </trkpt>
      <trkpt lat="46.16346" lon="4.54105">
        <ele>540</ele>
        <time>2025-09-06T13:32:47Z</time>
      </trkpt>
      <trkpt lat="46.16343" lon="4.54106">
        <ele>540.4</ele>
        <time>2025-09-06T13:32:48Z</time>
      </trkpt>
      <trkpt lat="46.16339" lon="4.54108">
        <ele>540.6</ele>
        <time>2025-09-06T13:32:49Z</time>
      </trkpt>
      <trkpt lat="46.16336" lon="4.54109">
        <ele>540.6</ele>
        <time>2025-09-06T13:32:50Z</time>
      </trkpt>
      <trkpt lat="46.16333" lon="4.54111">
        <ele>541</ele>
        <time>2025-09-06T13:32:51Z</time>
      </trkpt>
      <trkpt lat="46.16331" lon="4.54112">
        <ele>541.2</ele>
        <time>2025-09-06T13:32:52Z</time>
      </trkpt>
      <trkpt lat="46.16328" lon="4.54114">
        <ele>541.2</ele>
        <time>2025-09-06T13:32:53Z</time>
      </trkpt>
      <trkpt lat="46.16325" lon="4.54116">
        <ele>541.4</ele>
        <time>2025-09-06T13:32:54Z</time>
      </trkpt>
      <trkpt lat="46.16322" lon="4.54118">
        <ele>541.6</ele>
        <time>2025-09-06T13:32:55Z</time>
      </trkpt>
      <trkpt lat="46.16319" lon="4.54117">
        <ele>541.6</ele>
        <time>2025-09-06T13:32:56Z</time>
      </trkpt>
      <trkpt lat="46.16316" lon="4.54118">
        <ele>542</ele>
        <time>2025-09-06T13:32:57Z</time>
      </trkpt>
      <trkpt lat="46.16313" lon="4.54119">
        <ele>542</ele>
        <time>2025-09-06T13:32:58Z</time>
      </trkpt>
      <trkpt lat="46.16311" lon="4.5412">
        <ele>542</ele>
        <time>2025-09-06T13:32:59Z</time>
      </trkpt>
      <trkpt lat="46.16308" lon="4.54121">
        <ele>542.4</ele>
        <time>2025-09-06T13:33:00Z</time>
      </trkpt>
      <trkpt lat="46.16306" lon="4.54123">
        <ele>542.4</ele>
        <time>2025-09-06T13:33:01Z</time>
      </trkpt>
      <trkpt lat="46.16303" lon="4.54124">
        <ele>542.6</ele>
        <time>2025-09-06T13:33:02Z</time>
      </trkpt>
      <trkpt lat="46.16301" lon="4.54125">
        <ele>542.8</ele>
        <time>2025-09-06T13:33:03Z</time>
      </trkpt>
      <trkpt lat="46.16298" lon="4.54127">
        <ele>542.8</ele>
        <time>2025-09-06T13:33:04Z</time>
      </trkpt>
      <trkpt lat="46.16296" lon="4.54128">
        <ele>542.8</ele>
        <time>2025-09-06T13:33:05Z</time>
      </trkpt>
      <trkpt lat="46.16293" lon="4.5413">
        <ele>543.2</ele>
        <time>2025-09-06T13:33:06Z</time>
      </trkpt>
      <trkpt lat="46.16291" lon="4.54131">
        <ele>543.2</ele>
        <time>2025-09-06T13:33:07Z</time>
      </trkpt>
      <trkpt lat="46.16289" lon="4.54133">
        <ele>543.6</ele>
        <time>2025-09-06T13:33:08Z</time>
      </trkpt>
      <trkpt lat="46.16286" lon="4.54135">
        <ele>543.8</ele>
        <time>2025-09-06T13:33:09Z</time>
      </trkpt>
      <trkpt lat="46.16284" lon="4.54136">
        <ele>544.2</ele>
        <time>2025-09-06T13:33:10Z</time>
      </trkpt>
      <trkpt lat="46.16282" lon="4.54138">
        <ele>544.2</ele>
        <time>2025-09-06T13:33:11Z</time>
      </trkpt>
      <trkpt lat="46.16279" lon="4.5414">
        <ele>543.8</ele>
        <time>2025-09-06T13:33:12Z</time>
      </trkpt>
      <trkpt lat="46.16277" lon="4.54141">
        <ele>543.8</ele>
        <time>2025-09-06T13:33:13Z</time>
      </trkpt>
      <trkpt lat="46.16275" lon="4.54143">
        <ele>544</ele>
        <time>2025-09-06T13:33:14Z</time>
      </trkpt>
      <trkpt lat="46.16273" lon="4.54143">
        <ele>544</ele>
        <time>2025-09-06T13:33:15Z</time>
      </trkpt>
      <trkpt lat="46.16271" lon="4.54144">
        <ele>544</ele>
        <time>2025-09-06T13:33:16Z</time>
      </trkpt>
      <trkpt lat="46.16268" lon="4.54146">
        <ele>544.4</ele>
        <time>2025-09-06T13:33:17Z</time>
      </trkpt>
      <trkpt lat="46.16266" lon="4.54148">
        <ele>544.4</ele>
        <time>2025-09-06T13:33:18Z</time>
      </trkpt>
      <trkpt lat="46.16262" lon="4.54151">
        <ele>544.4</ele>
        <time>2025-09-06T13:33:19Z</time>
      </trkpt>
      <trkpt lat="46.16259" lon="4.54154">
        <ele>544.4</ele>
        <time>2025-09-06T13:33:20Z</time>
      </trkpt>
      <trkpt lat="46.16256" lon="4.54157">
        <ele>544.4</ele>
        <time>2025-09-06T13:33:21Z</time>
      </trkpt>
      <trkpt lat="46.16253" lon="4.5416">
        <ele>544.4</ele>
        <time>2025-09-06T13:33:22Z</time>
      </trkpt>
      <trkpt lat="46.1625" lon="4.54166">
        <ele>544.4</ele>
        <time>2025-09-06T13:33:23Z</time>
      </trkpt>
      <trkpt lat="46.16246" lon="4.54174">
        <ele>544.4</ele>
        <time>2025-09-06T13:33:24Z</time>
      </trkpt>
      <trkpt lat="46.16243" lon="4.54181">
        <ele>543.8</ele>
        <time>2025-09-06T13:33:25Z</time>
      </trkpt>
      <trkpt lat="46.1624" lon="4.54188">
        <ele>543.6</ele>
        <time>2025-09-06T13:33:26Z</time>
      </trkpt>
      <trkpt lat="46.16236" lon="4.54195">
        <ele>543.6</ele>
        <time>2025-09-06T13:33:27Z</time>
      </trkpt>
      <trkpt lat="46.16233" lon="4.54203">
        <ele>543.6</ele>
        <time>2025-09-06T13:33:28Z</time>
      </trkpt>
      <trkpt lat="46.16229" lon="4.54211">
        <ele>543.2</ele>
        <time>2025-09-06T13:33:29Z</time>
      </trkpt>
      <trkpt lat="46.16226" lon="4.54219">
        <ele>542.6</ele>
        <time>2025-09-06T13:33:30Z</time>
      </trkpt>
      <trkpt lat="46.16221" lon="4.54226">
        <ele>542.4</ele>
        <time>2025-09-06T13:33:31Z</time>
      </trkpt>
      <trkpt lat="46.16216" lon="4.54233">
        <ele>542</ele>
        <time>2025-09-06T13:33:32Z</time>
      </trkpt>
      <trkpt lat="46.16211" lon="4.54239">
        <ele>541.6</ele>
        <time>2025-09-06T13:33:33Z</time>
      </trkpt>
      <trkpt lat="46.16206" lon="4.54244">
        <ele>541.6</ele>
        <time>2025-09-06T13:33:34Z</time>
      </trkpt>
      <trkpt lat="46.16201" lon="4.54248">
        <ele>541.2</ele>
        <time>2025-09-06T13:33:35Z</time>
      </trkpt>
      <trkpt lat="46.16195" lon="4.54253">
        <ele>541</ele>
        <time>2025-09-06T13:33:36Z</time>
      </trkpt>
      <trkpt lat="46.16192" lon="4.54258">
        <ele>541</ele>
        <time>2025-09-06T13:33:37Z</time>
      </trkpt>
      <trkpt lat="46.16188" lon="4.54262">
        <ele>541</ele>
        <time>2025-09-06T13:33:38Z</time>
      </trkpt>
      <trkpt lat="46.16186" lon="4.54269">
        <ele>540.6</ele>
        <time>2025-09-06T13:33:39Z</time>
      </trkpt>
      <trkpt lat="46.16185" lon="4.54276">
        <ele>540.6</ele>
        <time>2025-09-06T13:33:40Z</time>
      </trkpt>
      <trkpt lat="46.16184" lon="4.54284">
        <ele>540</ele>
        <time>2025-09-06T13:33:41Z</time>
      </trkpt>
      <trkpt lat="46.16182" lon="4.54293">
        <ele>539.8</ele>
        <time>2025-09-06T13:33:42Z</time>
      </trkpt>
      <trkpt lat="46.16179" lon="4.54303">
        <ele>539.2</ele>
        <time>2025-09-06T13:33:43Z</time>
      </trkpt>
      <trkpt lat="46.16173" lon="4.54313">
        <ele>538.2</ele>
        <time>2025-09-06T13:33:44Z</time>
      </trkpt>
      <trkpt lat="46.16168" lon="4.54322">
        <ele>537.2</ele>
        <time>2025-09-06T13:33:45Z</time>
      </trkpt>
      <trkpt lat="46.16163" lon="4.54332">
        <ele>536</ele>
        <time>2025-09-06T13:33:46Z</time>
      </trkpt>
      <trkpt lat="46.16158" lon="4.54343">
        <ele>534.6</ele>
        <time>2025-09-06T13:33:47Z</time>
      </trkpt>
      <trkpt lat="46.16153" lon="4.54354">
        <ele>533.4</ele>
        <time>2025-09-06T13:33:48Z</time>
      </trkpt>
      <trkpt lat="46.1615" lon="4.54365">
        <ele>532.6</ele>
        <time>2025-09-06T13:33:49Z</time>
      </trkpt>
      <trkpt lat="46.16147" lon="4.54376">
        <ele>531.6</ele>
        <time>2025-09-06T13:33:50Z</time>
      </trkpt>
      <trkpt lat="46.16144" lon="4.54387">
        <ele>530.4</ele>
        <time>2025-09-06T13:33:51Z</time>
      </trkpt>
      <trkpt lat="46.16142" lon="4.54398">
        <ele>529.4</ele>
        <time>2025-09-06T13:33:52Z</time>
      </trkpt>
      <trkpt lat="46.1614" lon="4.54408">
        <ele>528.6</ele>
        <time>2025-09-06T13:33:53Z</time>
      </trkpt>
      <trkpt lat="46.1614" lon="4.54419">
        <ele>527.8</ele>
        <time>2025-09-06T13:33:54Z</time>
      </trkpt>
      <trkpt lat="46.1614" lon="4.54431">
        <ele>527</ele>
        <time>2025-09-06T13:33:55Z</time>
      </trkpt>
      <trkpt lat="46.16141" lon="4.54444">
        <ele>526.4</ele>
        <time>2025-09-06T13:33:56Z</time>
      </trkpt>
      <trkpt lat="46.16143" lon="4.54456">
        <ele>525.8</ele>
        <time>2025-09-06T13:33:57Z</time>
      </trkpt>
      <trkpt lat="46.16145" lon="4.54469">
        <ele>525</ele>
        <time>2025-09-06T13:33:58Z</time>
      </trkpt>
      <trkpt lat="46.16148" lon="4.54481">
        <ele>524.2</ele>
        <time>2025-09-06T13:33:59Z</time>
      </trkpt>
      <trkpt lat="46.1615" lon="4.54493">
        <ele>523.4</ele>
        <time>2025-09-06T13:34:00Z</time>
      </trkpt>
      <trkpt lat="46.16153" lon="4.54505">
        <ele>522.4</ele>
        <time>2025-09-06T13:34:01Z</time>
      </trkpt>
      <trkpt lat="46.16153" lon="4.54505">
        <ele>521.6</ele>
        <time>2025-09-06T13:34:02Z</time>
      </trkpt>
      <trkpt lat="46.16154" lon="4.54516">
        <ele>521</ele>
        <time>2025-09-06T13:34:03Z</time>
      </trkpt>
      <trkpt lat="46.16155" lon="4.54527">
        <ele>520.8</ele>
        <time>2025-09-06T13:34:04Z</time>
      </trkpt>
      <trkpt lat="46.16155" lon="4.54538">
        <ele>520.2</ele>
        <time>2025-09-06T13:34:05Z</time>
      </trkpt>
      <trkpt lat="46.16154" lon="4.54548">
        <ele>519.2</ele>
        <time>2025-09-06T13:34:06Z</time>
      </trkpt>
      <trkpt lat="46.16153" lon="4.54558">
        <ele>518.6</ele>
        <time>2025-09-06T13:34:07Z</time>
      </trkpt>
      <trkpt lat="46.16152" lon="4.54568">
        <ele>517.6</ele>
        <time>2025-09-06T13:34:08Z</time>
      </trkpt>
      <trkpt lat="46.16151" lon="4.5458">
        <ele>516.4</ele>
        <time>2025-09-06T13:34:09Z</time>
      </trkpt>
      <trkpt lat="46.1615" lon="4.54593">
        <ele>515.4</ele>
        <time>2025-09-06T13:34:10Z</time>
      </trkpt>
      <trkpt lat="46.1615" lon="4.54604">
        <ele>514.4</ele>
        <time>2025-09-06T13:34:11Z</time>
      </trkpt>
      <trkpt lat="46.1615" lon="4.54618">
        <ele>513.8</ele>
        <time>2025-09-06T13:34:12Z</time>
      </trkpt>
      <trkpt lat="46.16151" lon="4.54632">
        <ele>512.8</ele>
        <time>2025-09-06T13:34:13Z</time>
      </trkpt>
      <trkpt lat="46.16153" lon="4.54644">
        <ele>512</ele>
        <time>2025-09-06T13:34:14Z</time>
      </trkpt>
      <trkpt lat="46.16156" lon="4.54658">
        <ele>511.6</ele>
        <time>2025-09-06T13:34:15Z</time>
      </trkpt>
      <trkpt lat="46.16159" lon="4.54672">
        <ele>511.2</ele>
        <time>2025-09-06T13:34:16Z</time>
      </trkpt>
      <trkpt lat="46.16161" lon="4.54686">
        <ele>510.4</ele>
        <time>2025-09-06T13:34:17Z</time>
      </trkpt>
      <trkpt lat="46.16164" lon="4.547">
        <ele>510</ele>
        <time>2025-09-06T13:34:18Z</time>
      </trkpt>
      <trkpt lat="46.16167" lon="4.54713">
        <ele>509.6</ele>
        <time>2025-09-06T13:34:19Z</time>
      </trkpt>
      <trkpt lat="46.16169" lon="4.54725">
        <ele>509.2</ele>
        <time>2025-09-06T13:34:20Z</time>
      </trkpt>
      <trkpt lat="46.16172" lon="4.54737">
        <ele>509.4</ele>
        <time>2025-09-06T13:34:21Z</time>
      </trkpt>
      <trkpt lat="46.16173" lon="4.54749">
        <ele>509.6</ele>
        <time>2025-09-06T13:34:22Z</time>
      </trkpt>
      <trkpt lat="46.16174" lon="4.54759">
        <ele>510</ele>
        <time>2025-09-06T13:34:23Z</time>
      </trkpt>
      <trkpt lat="46.16176" lon="4.54768">
        <ele>510</ele>
        <time>2025-09-06T13:34:24Z</time>
      </trkpt>
      <trkpt lat="46.16177" lon="4.54777">
        <ele>510.2</ele>
        <time>2025-09-06T13:34:25Z</time>
      </trkpt>
      <trkpt lat="46.16179" lon="4.54785">
        <ele>510.2</ele>
        <time>2025-09-06T13:34:26Z</time>
      </trkpt>
      <trkpt lat="46.16181" lon="4.54793">
        <ele>510.4</ele>
        <time>2025-09-06T13:34:27Z</time>
      </trkpt>
      <trkpt lat="46.16182" lon="4.54801">
        <ele>510.4</ele>
        <time>2025-09-06T13:34:28Z</time>
      </trkpt>
      <trkpt lat="46.16184" lon="4.54809">
        <ele>510.4</ele>
        <time>2025-09-06T13:34:29Z</time>
      </trkpt>
      <trkpt lat="46.16186" lon="4.54814">
        <ele>510.4</ele>
        <time>2025-09-06T13:34:30Z</time>
      </trkpt>
      <trkpt lat="46.16188" lon="4.5482">
        <ele>510.4</ele>
        <time>2025-09-06T13:34:31Z</time>
      </trkpt>
      <trkpt lat="46.16189" lon="4.54824">
        <ele>510</ele>
        <time>2025-09-06T13:34:32Z</time>
      </trkpt>
      <trkpt lat="46.16191" lon="4.5483">
        <ele>510</ele>
        <time>2025-09-06T13:34:33Z</time>
      </trkpt>
      <trkpt lat="46.16197" lon="4.5484">
        <ele>509.8</ele>
        <time>2025-09-06T13:34:34Z</time>
      </trkpt>
      <trkpt lat="46.162" lon="4.54846">
        <ele>509.4</ele>
        <time>2025-09-06T13:34:35Z</time>
      </trkpt>
      <trkpt lat="46.16203" lon="4.5485">
        <ele>508.8</ele>
        <time>2025-09-06T13:34:36Z</time>
      </trkpt>
      <trkpt lat="46.16206" lon="4.54856">
        <ele>508.4</ele>
        <time>2025-09-06T13:34:37Z</time>
      </trkpt>
      <trkpt lat="46.1621" lon="4.54861">
        <ele>507.8</ele>
        <time>2025-09-06T13:34:38Z</time>
      </trkpt>
      <trkpt lat="46.16213" lon="4.54866">
        <ele>506.6</ele>
        <time>2025-09-06T13:34:39Z</time>
      </trkpt>
      <trkpt lat="46.16218" lon="4.54873">
        <ele>506</ele>
        <time>2025-09-06T13:34:40Z</time>
      </trkpt>
      <trkpt lat="46.16222" lon="4.54879">
        <ele>505.2</ele>
        <time>2025-09-06T13:34:41Z</time>
      </trkpt>
      <trkpt lat="46.16225" lon="4.54885">
        <ele>504.2</ele>
        <time>2025-09-06T13:34:42Z</time>
      </trkpt>
      <trkpt lat="46.16229" lon="4.54891">
        <ele>503.4</ele>
        <time>2025-09-06T13:34:43Z</time>
      </trkpt>
      <trkpt lat="46.16233" lon="4.54896">
        <ele>502.4</ele>
        <time>2025-09-06T13:34:44Z</time>
      </trkpt>
      <trkpt lat="46.16237" lon="4.54902">
        <ele>501.6</ele>
        <time>2025-09-06T13:34:45Z</time>
      </trkpt>
      <trkpt lat="46.1624" lon="4.54907">
        <ele>500.4</ele>
        <time>2025-09-06T13:34:46Z</time>
      </trkpt>
      <trkpt lat="46.16244" lon="4.54912">
        <ele>499.4</ele>
        <time>2025-09-06T13:34:47Z</time>
      </trkpt>
      <trkpt lat="46.16248" lon="4.54917">
        <ele>498.4</ele>
        <time>2025-09-06T13:34:48Z</time>
      </trkpt>
      <trkpt lat="46.16252" lon="4.54922">
        <ele>497.6</ele>
        <time>2025-09-06T13:34:49Z</time>
      </trkpt>
      <trkpt lat="46.16257" lon="4.54927">
        <ele>496.8</ele>
        <time>2025-09-06T13:34:50Z</time>
      </trkpt>
      <trkpt lat="46.16262" lon="4.54932">
        <ele>495.8</ele>
        <time>2025-09-06T13:34:51Z</time>
      </trkpt>
      <trkpt lat="46.16267" lon="4.54937">
        <ele>494.4</ele>
        <time>2025-09-06T13:34:52Z</time>
      </trkpt>
      <trkpt lat="46.16272" lon="4.54942">
        <ele>493.4</ele>
        <time>2025-09-06T13:34:53Z</time>
      </trkpt>
      <trkpt lat="46.16277" lon="4.54946">
        <ele>492.2</ele>
        <time>2025-09-06T13:34:54Z</time>
      </trkpt>
      <trkpt lat="46.16281" lon="4.5495">
        <ele>491.4</ele>
        <time>2025-09-06T13:34:55Z</time>
      </trkpt>
      <trkpt lat="46.16286" lon="4.54953">
        <ele>490.2</ele>
        <time>2025-09-06T13:34:56Z</time>
      </trkpt>
      <trkpt lat="46.1629" lon="4.54955">
        <ele>489.4</ele>
        <time>2025-09-06T13:34:57Z</time>
      </trkpt>
      <trkpt lat="46.16295" lon="4.54957">
        <ele>488.6</ele>
        <time>2025-09-06T13:34:58Z</time>
      </trkpt>
      <trkpt lat="46.163" lon="4.54958">
        <ele>487.8</ele>
        <time>2025-09-06T13:34:59Z</time>
      </trkpt>
      <trkpt lat="46.16305" lon="4.54958">
        <ele>486.8</ele>
        <time>2025-09-06T13:35:00Z</time>
      </trkpt>
      <trkpt lat="46.1631" lon="4.54957">
        <ele>485.8</ele>
        <time>2025-09-06T13:35:01Z</time>
      </trkpt>
      <trkpt lat="46.16316" lon="4.54955">
        <ele>485.2</ele>
        <time>2025-09-06T13:35:02Z</time>
      </trkpt>
      <trkpt lat="46.16321" lon="4.54952">
        <ele>484.4</ele>
        <time>2025-09-06T13:35:03Z</time>
      </trkpt>
      <trkpt lat="46.16325" lon="4.54949">
        <ele>483.6</ele>
        <time>2025-09-06T13:35:04Z</time>
      </trkpt>
      <trkpt lat="46.16329" lon="4.54945">
        <ele>482.8</ele>
        <time>2025-09-06T13:35:05Z</time>
      </trkpt>
      <trkpt lat="46.16332" lon="4.54942">
        <ele>481.6</ele>
        <time>2025-09-06T13:35:06Z</time>
      </trkpt>
      <trkpt lat="46.16335" lon="4.54939">
        <ele>480.8</ele>
        <time>2025-09-06T13:35:07Z</time>
      </trkpt>
      <trkpt lat="46.16339" lon="4.54937">
        <ele>480</ele>
        <time>2025-09-06T13:35:08Z</time>
      </trkpt>
      <trkpt lat="46.16341" lon="4.54934">
        <ele>479.2</ele>
        <time>2025-09-06T13:35:09Z</time>
      </trkpt>
      <trkpt lat="46.16343" lon="4.54935">
        <ele>478.6</ele>
        <time>2025-09-06T13:35:10Z</time>
      </trkpt>
      <trkpt lat="46.16345" lon="4.54935">
        <ele>478</ele>
        <time>2025-09-06T13:35:11Z</time>
      </trkpt>
      <trkpt lat="46.16347" lon="4.54937">
        <ele>477.4</ele>
        <time>2025-09-06T13:35:12Z</time>
      </trkpt>
      <trkpt lat="46.16348" lon="4.54939">
        <ele>476.6</ele>
        <time>2025-09-06T13:35:13Z</time>
      </trkpt>
      <trkpt lat="46.16349" lon="4.54942">
        <ele>476</ele>
        <time>2025-09-06T13:35:14Z</time>
      </trkpt>
      <trkpt lat="46.1635" lon="4.54943">
        <ele>475.8</ele>
        <time>2025-09-06T13:35:15Z</time>
      </trkpt>
      <trkpt lat="46.16351" lon="4.54944">
        <ele>475.4</ele>
        <time>2025-09-06T13:35:16Z</time>
      </trkpt>
      <trkpt lat="46.16352" lon="4.54944">
        <ele>475.2</ele>
        <time>2025-09-06T13:35:17Z</time>
      </trkpt>
      <trkpt lat="46.16352" lon="4.54944">
        <ele>475.2</ele>
        <time>2025-09-06T13:35:18Z</time>
      </trkpt>
      <trkpt lat="46.16352" lon="4.54944">
        <ele>474.8</ele>
        <time>2025-09-06T13:35:19Z</time>
      </trkpt>
      <trkpt lat="46.16352" lon="4.54946">
        <ele>474.4</ele>
        <time>2025-09-06T13:38:31Z</time>
      </trkpt>
      <trkpt lat="46.16352" lon="4.54946">
        <ele>474.4</ele>
        <time>2025-09-06T13:38:32Z</time>
      </trkpt>
      <trkpt lat="46.16351" lon="4.54949">
        <ele>474.2</ele>
        <time>2025-09-06T13:38:33Z</time>
      </trkpt>
      <trkpt lat="46.16351" lon="4.54953">
        <ele>474.2</ele>
        <time>2025-09-06T13:38:34Z</time>
      </trkpt>
      <trkpt lat="46.16351" lon="4.54956">
        <ele>473.8</ele>
        <time>2025-09-06T13:38:35Z</time>
      </trkpt>
      <trkpt lat="46.16351" lon="4.54959">
        <ele>473.8</ele>
        <time>2025-09-06T13:38:36Z</time>
      </trkpt>
      <trkpt lat="46.16352" lon="4.54962">
        <ele>473.4</ele>
        <time>2025-09-06T13:38:37Z</time>
      </trkpt>
      <trkpt lat="46.16353" lon="4.54965">
        <ele>473.4</ele>
        <time>2025-09-06T13:38:38Z</time>
      </trkpt>
      <trkpt lat="46.16354" lon="4.54967">
        <ele>473</ele>
        <time>2025-09-06T13:38:39Z</time>
      </trkpt>
      <trkpt lat="46.16354" lon="4.54968">
        <ele>472.4</ele>
        <time>2025-09-06T13:38:40Z</time>
      </trkpt>
      <trkpt lat="46.16354" lon="4.5497">
        <ele>472</ele>
        <time>2025-09-06T13:38:41Z</time>
      </trkpt>
      <trkpt lat="46.16354" lon="4.5497">
        <ele>471.8</ele>
        <time>2025-09-06T13:38:42Z</time>
      </trkpt>
      <trkpt lat="46.16354" lon="4.5497">
        <ele>471.8</ele>
        <time>2025-09-06T13:38:43Z</time>
      </trkpt>
      <trkpt lat="46.16356" lon="4.54972">
        <ele>472</ele>
        <time>2025-09-06T13:39:32Z</time>
      </trkpt>
      <trkpt lat="46.16356" lon="4.54975">
        <ele>471.6</ele>
        <time>2025-09-06T13:39:33Z</time>
      </trkpt>
      <trkpt lat="46.16356" lon="4.54979">
        <ele>471.6</ele>
        <time>2025-09-06T13:39:34Z</time>
      </trkpt>
      <trkpt lat="46.16356" lon="4.54984">
        <ele>471.2</ele>
        <time>2025-09-06T13:39:35Z</time>
      </trkpt>
      <trkpt lat="46.16357" lon="4.54991">
        <ele>470.6</ele>
        <time>2025-09-06T13:39:36Z</time>
      </trkpt>
      <trkpt lat="46.16358" lon="4.54998">
        <ele>470.2</ele>
        <time>2025-09-06T13:39:37Z</time>
      </trkpt>
      <trkpt lat="46.16359" lon="4.55006">
        <ele>469.2</ele>
        <time>2025-09-06T13:39:38Z</time>
      </trkpt>
      <trkpt lat="46.1636" lon="4.55015">
        <ele>468.6</ele>
        <time>2025-09-06T13:39:39Z</time>
      </trkpt>
      <trkpt lat="46.1636" lon="4.55024">
        <ele>467.8</ele>
        <time>2025-09-06T13:39:40Z</time>
      </trkpt>
      <trkpt lat="46.16361" lon="4.55032">
        <ele>467</ele>
        <time>2025-09-06T13:39:41Z</time>
      </trkpt>
      <trkpt lat="46.16362" lon="4.55041">
        <ele>466.4</ele>
        <time>2025-09-06T13:39:42Z</time>
      </trkpt>
      <trkpt lat="46.16362" lon="4.5505">
        <ele>465.8</ele>
        <time>2025-09-06T13:39:43Z</time>
      </trkpt>
      <trkpt lat="46.16364" lon="4.55058">
        <ele>465.2</ele>
        <time>2025-09-06T13:39:44Z</time>
      </trkpt>
      <trkpt lat="46.16366" lon="4.55077">
        <ele>464.2</ele>
        <time>2025-09-06T13:39:45Z</time>
      </trkpt>
      <trkpt lat="46.16367" lon="4.55087">
        <ele>463.4</ele>
        <time>2025-09-06T13:39:46Z</time>
      </trkpt>
      <trkpt lat="46.16367" lon="4.55097">
        <ele>462.4</ele>
        <time>2025-09-06T13:39:47Z</time>
      </trkpt>
      <trkpt lat="46.16368" lon="4.55106">
        <ele>461.4</ele>
        <time>2025-09-06T13:39:48Z</time>
      </trkpt>
      <trkpt lat="46.16367" lon="4.55115">
        <ele>460.6</ele>
        <time>2025-09-06T13:39:49Z</time>
      </trkpt>
      <trkpt lat="46.16367" lon="4.55124">
        <ele>459.6</ele>
        <time>2025-09-06T13:39:50Z</time>
      </trkpt>
      <trkpt lat="46.16367" lon="4.5513">
        <ele>458.8</ele>
        <time>2025-09-06T13:39:51Z</time>
      </trkpt>
      <trkpt lat="46.16366" lon="4.55137">
        <ele>457.6</ele>
        <time>2025-09-06T13:39:52Z</time>
      </trkpt>
      <trkpt lat="46.16364" lon="4.55142">
        <ele>456.6</ele>
        <time>2025-09-06T13:39:53Z</time>
      </trkpt>
      <trkpt lat="46.16364" lon="4.55146">
        <ele>456</ele>
        <time>2025-09-06T13:39:54Z</time>
      </trkpt>
      <trkpt lat="46.16362" lon="4.55151">
        <ele>455.4</ele>
        <time>2025-09-06T13:39:55Z</time>
      </trkpt>
      <trkpt lat="46.16364" lon="4.55156">
        <ele>454.8</ele>
        <time>2025-09-06T13:39:56Z</time>
      </trkpt>
      <trkpt lat="46.16365" lon="4.55161">
        <ele>454.2</ele>
        <time>2025-09-06T13:39:57Z</time>
      </trkpt>
      <trkpt lat="46.16366" lon="4.55168">
        <ele>453.6</ele>
        <time>2025-09-06T13:39:58Z</time>
      </trkpt>
      <trkpt lat="46.16368" lon="4.55175">
        <ele>452.8</ele>
        <time>2025-09-06T13:39:59Z</time>
      </trkpt>
      <trkpt lat="46.16371" lon="4.55182">
        <ele>452.2</ele>
        <time>2025-09-06T13:40:00Z</time>
      </trkpt>
      <trkpt lat="46.1637" lon="4.55189">
        <ele>451</ele>
        <time>2025-09-06T13:40:01Z</time>
      </trkpt>
      <trkpt lat="46.16373" lon="4.55198">
        <ele>450</ele>
        <time>2025-09-06T13:40:02Z</time>
      </trkpt>
      <trkpt lat="46.16375" lon="4.55207">
        <ele>449.2</ele>
        <time>2025-09-06T13:40:03Z</time>
      </trkpt>
      <trkpt lat="46.16378" lon="4.55215">
        <ele>448.4</ele>
        <time>2025-09-06T13:40:04Z</time>
      </trkpt>
      <trkpt lat="46.16381" lon="4.55223">
        <ele>447.4</ele>
        <time>2025-09-06T13:40:05Z</time>
      </trkpt>
      <trkpt lat="46.16384" lon="4.5523">
        <ele>446.6</ele>
        <time>2025-09-06T13:40:06Z</time>
      </trkpt>
      <trkpt lat="46.16388" lon="4.55239">
        <ele>445.4</ele>
        <time>2025-09-06T13:40:07Z</time>
      </trkpt>
      <trkpt lat="46.16393" lon="4.55248">
        <ele>444.2</ele>
        <time>2025-09-06T13:40:08Z</time>
      </trkpt>
      <trkpt lat="46.16399" lon="4.55256">
        <ele>443.4</ele>
        <time>2025-09-06T13:40:09Z</time>
      </trkpt>
      <trkpt lat="46.16405" lon="4.55267">
        <ele>442.6</ele>
        <time>2025-09-06T13:40:10Z</time>
      </trkpt>
      <trkpt lat="46.16411" lon="4.55276">
        <ele>441.8</ele>
        <time>2025-09-06T13:40:11Z</time>
      </trkpt>
      <trkpt lat="46.16418" lon="4.55285">
        <ele>440.8</ele>
        <time>2025-09-06T13:40:12Z</time>
      </trkpt>
      <trkpt lat="46.16425" lon="4.55295">
        <ele>439.6</ele>
        <time>2025-09-06T13:40:13Z</time>
      </trkpt>
      <trkpt lat="46.16431" lon="4.55304">
        <ele>438.6</ele>
        <time>2025-09-06T13:40:14Z</time>
      </trkpt>
      <trkpt lat="46.16439" lon="4.55314">
        <ele>437.8</ele>
        <time>2025-09-06T13:40:15Z</time>
      </trkpt>
      <trkpt lat="46.16446" lon="4.55324">
        <ele>437</ele>
        <time>2025-09-06T13:40:16Z</time>
      </trkpt>
      <trkpt lat="46.16453" lon="4.55334">
        <ele>436</ele>
        <time>2025-09-06T13:40:17Z</time>
      </trkpt>
      <trkpt lat="46.16459" lon="4.55343">
        <ele>435.4</ele>
        <time>2025-09-06T13:40:18Z</time>
      </trkpt>
      <trkpt lat="46.16465" lon="4.55352">
        <ele>434.6</ele>
        <time>2025-09-06T13:40:19Z</time>
      </trkpt>
      <trkpt lat="46.1647" lon="4.55361">
        <ele>433.6</ele>
        <time>2025-09-06T13:40:20Z</time>
      </trkpt>
      <trkpt lat="46.16476" lon="4.55371">
        <ele>433</ele>
        <time>2025-09-06T13:40:21Z</time>
      </trkpt>
      <trkpt lat="46.1648" lon="4.55381">
        <ele>432.2</ele>
        <time>2025-09-06T13:40:22Z</time>
      </trkpt>
      <trkpt lat="46.16483" lon="4.55391">
        <ele>431.6</ele>
        <time>2025-09-06T13:40:23Z</time>
      </trkpt>
      <trkpt lat="46.16487" lon="4.55403">
        <ele>430.8</ele>
        <time>2025-09-06T13:40:24Z</time>
      </trkpt>
      <trkpt lat="46.16491" lon="4.55415">
        <ele>430.4</ele>
        <time>2025-09-06T13:40:25Z</time>
      </trkpt>
      <trkpt lat="46.16495" lon="4.55426">
        <ele>430</ele>
        <time>2025-09-06T13:40:26Z</time>
      </trkpt>
      <trkpt lat="46.16497" lon="4.55438">
        <ele>429.6</ele>
        <time>2025-09-06T13:40:27Z</time>
      </trkpt>
      <trkpt lat="46.16497" lon="4.55438">
        <ele>429</ele>
        <time>2025-09-06T13:40:28Z</time>
      </trkpt>
      <trkpt lat="46.16499" lon="4.55449">
        <ele>428.6</ele>
        <time>2025-09-06T13:40:29Z</time>
      </trkpt>
      <trkpt lat="46.16501" lon="4.55459">
        <ele>428</ele>
        <time>2025-09-06T13:40:30Z</time>
      </trkpt>
      <trkpt lat="46.16504" lon="4.5547">
        <ele>427.6</ele>
        <time>2025-09-06T13:40:31Z</time>
      </trkpt>
      <trkpt lat="46.16508" lon="4.5548">
        <ele>427.2</ele>
        <time>2025-09-06T13:40:32Z</time>
      </trkpt>
      <trkpt lat="46.16509" lon="4.55489">
        <ele>426.6</ele>
        <time>2025-09-06T13:40:33Z</time>
      </trkpt>
      <trkpt lat="46.16511" lon="4.55498">
        <ele>426.4</ele>
        <time>2025-09-06T13:40:34Z</time>
      </trkpt>
      <trkpt lat="46.16512" lon="4.55507">
        <ele>425.8</ele>
        <time>2025-09-06T13:40:35Z</time>
      </trkpt>
      <trkpt lat="46.16514" lon="4.55515">
        <ele>425.6</ele>
        <time>2025-09-06T13:40:36Z</time>
      </trkpt>
      <trkpt lat="46.16515" lon="4.55523">
        <ele>425.6</ele>
        <time>2025-09-06T13:40:37Z</time>
      </trkpt>
      <trkpt lat="46.16516" lon="4.55528">
        <ele>425.2</ele>
        <time>2025-09-06T13:40:38Z</time>
      </trkpt>
      <trkpt lat="46.16518" lon="4.55534">
        <ele>424.8</ele>
        <time>2025-09-06T13:40:39Z</time>
      </trkpt>
      <trkpt lat="46.1652" lon="4.55541">
        <ele>424.6</ele>
        <time>2025-09-06T13:40:40Z</time>
      </trkpt>
      <trkpt lat="46.16522" lon="4.55547">
        <ele>424.6</ele>
        <time>2025-09-06T13:40:41Z</time>
      </trkpt>
      <trkpt lat="46.16523" lon="4.55555">
        <ele>424.6</ele>
        <time>2025-09-06T13:40:42Z</time>
      </trkpt>
      <trkpt lat="46.16525" lon="4.55562">
        <ele>424.2</ele>
        <time>2025-09-06T13:40:43Z</time>
      </trkpt>
      <trkpt lat="46.16525" lon="4.55568">
        <ele>423.8</ele>
        <time>2025-09-06T13:40:44Z</time>
      </trkpt>
      <trkpt lat="46.16525" lon="4.55574">
        <ele>423.8</ele>
        <time>2025-09-06T13:40:45Z</time>
      </trkpt>
      <trkpt lat="46.16528" lon="4.55579">
        <ele>423.4</ele>
        <time>2025-09-06T13:40:46Z</time>
      </trkpt>
      <trkpt lat="46.16531" lon="4.55584">
        <ele>423.4</ele>
        <time>2025-09-06T13:40:47Z</time>
      </trkpt>
      <trkpt lat="46.16535" lon="4.55588">
        <ele>423.4</ele>
        <time>2025-09-06T13:40:48Z</time>
      </trkpt>
      <trkpt lat="46.16539" lon="4.55593">
        <ele>422.8</ele>
        <time>2025-09-06T13:40:49Z</time>
      </trkpt>
      <trkpt lat="46.16544" lon="4.55599">
        <ele>422.6</ele>
        <time>2025-09-06T13:40:50Z</time>
      </trkpt>
      <trkpt lat="46.16548" lon="4.55605">
        <ele>422.2</ele>
        <time>2025-09-06T13:40:51Z</time>
      </trkpt>
      <trkpt lat="46.16558" lon="4.55618">
        <ele>421.8</ele>
        <time>2025-09-06T13:40:52Z</time>
      </trkpt>
      <trkpt lat="46.16563" lon="4.55624">
        <ele>421.4</ele>
        <time>2025-09-06T13:40:53Z</time>
      </trkpt>
      <trkpt lat="46.16567" lon="4.55629">
        <ele>421</ele>
        <time>2025-09-06T13:40:54Z</time>
      </trkpt>
      <trkpt lat="46.16572" lon="4.55634">
        <ele>420.6</ele>
        <time>2025-09-06T13:40:55Z</time>
      </trkpt>
      <trkpt lat="46.16577" lon="4.55639">
        <ele>420</ele>
        <time>2025-09-06T13:40:56Z</time>
      </trkpt>
      <trkpt lat="46.16582" lon="4.55643">
        <ele>419.6</ele>
        <time>2025-09-06T13:40:57Z</time>
      </trkpt>
      <trkpt lat="46.16588" lon="4.55646">
        <ele>418.8</ele>
        <time>2025-09-06T13:40:58Z</time>
      </trkpt>
      <trkpt lat="46.16593" lon="4.55651">
        <ele>418.2</ele>
        <time>2025-09-06T13:40:59Z</time>
      </trkpt>
      <trkpt lat="46.166" lon="4.55656">
        <ele>417.4</ele>
        <time>2025-09-06T13:41:00Z</time>
      </trkpt>
      <trkpt lat="46.16606" lon="4.55661">
        <ele>416.8</ele>
        <time>2025-09-06T13:41:01Z</time>
      </trkpt>
      <trkpt lat="46.16612" lon="4.55666">
        <ele>415.8</ele>
        <time>2025-09-06T13:41:02Z</time>
      </trkpt>
      <trkpt lat="46.16619" lon="4.55671">
        <ele>414.8</ele>
        <time>2025-09-06T13:41:03Z</time>
      </trkpt>
      <trkpt lat="46.16626" lon="4.55676">
        <ele>413.8</ele>
        <time>2025-09-06T13:41:04Z</time>
      </trkpt>
      <trkpt lat="46.16631" lon="4.55682">
        <ele>412.8</ele>
        <time>2025-09-06T13:41:05Z</time>
      </trkpt>
      <trkpt lat="46.16638" lon="4.55687">
        <ele>412.2</ele>
        <time>2025-09-06T13:41:06Z</time>
      </trkpt>
      <trkpt lat="46.16643" lon="4.55693">
        <ele>411.2</ele>
        <time>2025-09-06T13:41:07Z</time>
      </trkpt>
      <trkpt lat="46.1665" lon="4.55698">
        <ele>410.2</ele>
        <time>2025-09-06T13:41:08Z</time>
      </trkpt>
      <trkpt lat="46.16656" lon="4.55705">
        <ele>409.6</ele>
        <time>2025-09-06T13:41:09Z</time>
      </trkpt>
      <trkpt lat="46.16661" lon="4.55709">
        <ele>408.6</ele>
        <time>2025-09-06T13:41:10Z</time>
      </trkpt>
      <trkpt lat="46.16667" lon="4.5571">
        <ele>407.6</ele>
        <time>2025-09-06T13:41:11Z</time>
      </trkpt>
      <trkpt lat="46.16671" lon="4.55713">
        <ele>406.8</ele>
        <time>2025-09-06T13:41:12Z</time>
      </trkpt>
      <trkpt lat="46.16676" lon="4.55715">
        <ele>406.4</ele>
        <time>2025-09-06T13:41:13Z</time>
      </trkpt>
      <trkpt lat="46.16681" lon="4.55719">
        <ele>405.6</ele>
        <time>2025-09-06T13:41:14Z</time>
      </trkpt>
      <trkpt lat="46.16685" lon="4.55723">
        <ele>404.8</ele>
        <time>2025-09-06T13:41:15Z</time>
      </trkpt>
      <trkpt lat="46.1669" lon="4.55727">
        <ele>404.2</ele>
        <time>2025-09-06T13:41:16Z</time>
      </trkpt>
      <trkpt lat="46.16694" lon="4.5573">
        <ele>403.6</ele>
        <time>2025-09-06T13:41:17Z</time>
      </trkpt>
      <trkpt lat="46.16698" lon="4.55733">
        <ele>402.6</ele>
        <time>2025-09-06T13:41:18Z</time>
      </trkpt>
      <trkpt lat="46.167" lon="4.55735">
        <ele>401.6</ele>
        <time>2025-09-06T13:41:19Z</time>
      </trkpt>
      <trkpt lat="46.16703" lon="4.55738">
        <ele>400.8</ele>
        <time>2025-09-06T13:41:20Z</time>
      </trkpt>
      <trkpt lat="46.16707" lon="4.55742">
        <ele>400.2</ele>
        <time>2025-09-06T13:41:21Z</time>
      </trkpt>
      <trkpt lat="46.16711" lon="4.55747">
        <ele>399.6</ele>
        <time>2025-09-06T13:41:22Z</time>
      </trkpt>
      <trkpt lat="46.16714" lon="4.5575">
        <ele>399</ele>
        <time>2025-09-06T13:41:23Z</time>
      </trkpt>
      <trkpt lat="46.16719" lon="4.55753">
        <ele>398.2</ele>
        <time>2025-09-06T13:41:24Z</time>
      </trkpt>
      <trkpt lat="46.16722" lon="4.55756">
        <ele>397.4</ele>
        <time>2025-09-06T13:41:25Z</time>
      </trkpt>
      <trkpt lat="46.16722" lon="4.55757">
        <ele>396.6</ele>
        <time>2025-09-06T13:41:26Z</time>
      </trkpt>
      <trkpt lat="46.16724" lon="4.55759">
        <ele>395.8</ele>
        <time>2025-09-06T13:41:27Z</time>
      </trkpt>
      <trkpt lat="46.16726" lon="4.55761">
        <ele>395.2</ele>
        <time>2025-09-06T13:41:28Z</time>
      </trkpt>
      <trkpt lat="46.16727" lon="4.55761">
        <ele>394.6</ele>
        <time>2025-09-06T13:41:29Z</time>
      </trkpt>
      <trkpt lat="46.1673" lon="4.55761">
        <ele>394.4</ele>
        <time>2025-09-06T13:41:30Z</time>
      </trkpt>
      <trkpt lat="46.16732" lon="4.5576">
        <ele>394.2</ele>
        <time>2025-09-06T13:41:31Z</time>
      </trkpt>
      <trkpt lat="46.16732" lon="4.55758">
        <ele>393.8</ele>
        <time>2025-09-06T13:41:32Z</time>
      </trkpt>
      <trkpt lat="46.16734" lon="4.55755">
        <ele>393.6</ele>
        <time>2025-09-06T13:41:33Z</time>
      </trkpt>
      <trkpt lat="46.16735" lon="4.55753">
        <ele>393.6</ele>
        <time>2025-09-06T13:41:34Z</time>
      </trkpt>
      <trkpt lat="46.16735" lon="4.5575">
        <ele>393.4</ele>
        <time>2025-09-06T13:41:35Z</time>
      </trkpt>
      <trkpt lat="46.16736" lon="4.55747">
        <ele>393.4</ele>
        <time>2025-09-06T13:41:36Z</time>
      </trkpt>
      <trkpt lat="46.16737" lon="4.55744">
        <ele>393.4</ele>
        <time>2025-09-06T13:41:37Z</time>
      </trkpt>
      <trkpt lat="46.16738" lon="4.55741">
        <ele>393.4</ele>
        <time>2025-09-06T13:41:38Z</time>
      </trkpt>
      <trkpt lat="46.16739" lon="4.55738">
        <ele>393.8</ele>
        <time>2025-09-06T13:41:39Z</time>
      </trkpt>
      <trkpt lat="46.1674" lon="4.55735">
        <ele>393.8</ele>
        <time>2025-09-06T13:41:40Z</time>
      </trkpt>
      <trkpt lat="46.16742" lon="4.55732">
        <ele>393.8</ele>
        <time>2025-09-06T13:41:41Z</time>
      </trkpt>
      <trkpt lat="46.16744" lon="4.55729">
        <ele>394</ele>
        <time>2025-09-06T13:41:42Z</time>
      </trkpt>
      <trkpt lat="46.16745" lon="4.55726">
        <ele>394</ele>
        <time>2025-09-06T13:41:43Z</time>
      </trkpt>
      <trkpt lat="46.16746" lon="4.55724">
        <ele>394</ele>
        <time>2025-09-06T13:41:44Z</time>
      </trkpt>
      <trkpt lat="46.16747" lon="4.5572">
        <ele>394</ele>
        <time>2025-09-06T13:41:45Z</time>
      </trkpt>
      <trkpt lat="46.16748" lon="4.55717">
        <ele>394.2</ele>
        <time>2025-09-06T13:41:46Z</time>
      </trkpt>
      <trkpt lat="46.16749" lon="4.55713">
        <ele>394.2</ele>
        <time>2025-09-06T13:41:47Z</time>
      </trkpt>
      <trkpt lat="46.1675" lon="4.5571">
        <ele>394.6</ele>
        <time>2025-09-06T13:41:48Z</time>
      </trkpt>
      <trkpt lat="46.16751" lon="4.55706">
        <ele>394.8</ele>
        <time>2025-09-06T13:41:49Z</time>
      </trkpt>
      <trkpt lat="46.16752" lon="4.55703">
        <ele>394.8</ele>
        <time>2025-09-06T13:41:50Z</time>
      </trkpt>
      <trkpt lat="46.16752" lon="4.55699">
        <ele>394.8</ele>
        <time>2025-09-06T13:41:51Z</time>
      </trkpt>
      <trkpt lat="46.16753" lon="4.55696">
        <ele>395</ele>
        <time>2025-09-06T13:41:52Z</time>
      </trkpt>
      <trkpt lat="46.16754" lon="4.55692">
        <ele>395</ele>
        <time>2025-09-06T13:41:53Z</time>
      </trkpt>
      <trkpt lat="46.16755" lon="4.55689">
        <ele>395</ele>
        <time>2025-09-06T13:41:54Z</time>
      </trkpt>
      <trkpt lat="46.16756" lon="4.55685">
        <ele>395</ele>
        <time>2025-09-06T13:41:55Z</time>
      </trkpt>
      <trkpt lat="46.16757" lon="4.55682">
        <ele>395</ele>
        <time>2025-09-06T13:41:56Z</time>
      </trkpt>
      <trkpt lat="46.16758" lon="4.55678">
        <ele>395</ele>
        <time>2025-09-06T13:41:57Z</time>
      </trkpt>
      <trkpt lat="46.16759" lon="4.55675">
        <ele>395</ele>
        <time>2025-09-06T13:41:58Z</time>
      </trkpt>
      <trkpt lat="46.1676" lon="4.55671">
        <ele>395.4</ele>
        <time>2025-09-06T13:41:59Z</time>
      </trkpt>
      <trkpt lat="46.16761" lon="4.55668">
        <ele>395.4</ele>
        <time>2025-09-06T13:42:00Z</time>
      </trkpt>
      <trkpt lat="46.16763" lon="4.55665">
        <ele>395.4</ele>
        <time>2025-09-06T13:42:01Z</time>
      </trkpt>
      <trkpt lat="46.16765" lon="4.55661">
        <ele>395.4</ele>
        <time>2025-09-06T13:42:02Z</time>
      </trkpt>
      <trkpt lat="46.16767" lon="4.55658">
        <ele>395.4</ele>
        <time>2025-09-06T13:42:03Z</time>
      </trkpt>
      <trkpt lat="46.16768" lon="4.55655">
        <ele>395.4</ele>
        <time>2025-09-06T13:42:04Z</time>
      </trkpt>
      <trkpt lat="46.16769" lon="4.55651">
        <ele>395.4</ele>
        <time>2025-09-06T13:42:05Z</time>
      </trkpt>
      <trkpt lat="46.1677" lon="4.55648">
        <ele>395.4</ele>
        <time>2025-09-06T13:42:06Z</time>
      </trkpt>
      <trkpt lat="46.16772" lon="4.55644">
        <ele>395.6</ele>
        <time>2025-09-06T13:42:07Z</time>
      </trkpt>
      <trkpt lat="46.16774" lon="4.5564">
        <ele>395.6</ele>
        <time>2025-09-06T13:42:08Z</time>
      </trkpt>
      <trkpt lat="46.16775" lon="4.55637">
        <ele>395.6</ele>
        <time>2025-09-06T13:42:09Z</time>
      </trkpt>
      <trkpt lat="46.16777" lon="4.55633">
        <ele>395.6</ele>
        <time>2025-09-06T13:42:10Z</time>
      </trkpt>
      <trkpt lat="46.16778" lon="4.55629">
        <ele>395.6</ele>
        <time>2025-09-06T13:42:11Z</time>
      </trkpt>
      <trkpt lat="46.1678" lon="4.55625">
        <ele>395.6</ele>
        <time>2025-09-06T13:42:12Z</time>
      </trkpt>
      <trkpt lat="46.16781" lon="4.55621">
        <ele>395.6</ele>
        <time>2025-09-06T13:42:13Z</time>
      </trkpt>
      <trkpt lat="46.16782" lon="4.55617">
        <ele>395.6</ele>
        <time>2025-09-06T13:42:14Z</time>
      </trkpt>
      <trkpt lat="46.16783" lon="4.55613">
        <ele>396</ele>
        <time>2025-09-06T13:42:15Z</time>
      </trkpt>
      <trkpt lat="46.16784" lon="4.55609">
        <ele>396</ele>
        <time>2025-09-06T13:42:16Z</time>
      </trkpt>
      <trkpt lat="46.16785" lon="4.55606">
        <ele>396</ele>
        <time>2025-09-06T13:42:17Z</time>
      </trkpt>
      <trkpt lat="46.16786" lon="4.55602">
        <ele>396</ele>
        <time>2025-09-06T13:42:18Z</time>
      </trkpt>
      <trkpt lat="46.16787" lon="4.55599">
        <ele>396</ele>
        <time>2025-09-06T13:42:19Z</time>
      </trkpt>
      <trkpt lat="46.16787" lon="4.55596">
        <ele>396</ele>
        <time>2025-09-06T13:42:20Z</time>
      </trkpt>
      <trkpt lat="46.16788" lon="4.55593">
        <ele>396</ele>
        <time>2025-09-06T13:42:21Z</time>
      </trkpt>
      <trkpt lat="46.16789" lon="4.5559">
        <ele>396</ele>
        <time>2025-09-06T13:42:22Z</time>
      </trkpt>
      <trkpt lat="46.1679" lon="4.55587">
        <ele>396</ele>
        <time>2025-09-06T13:42:23Z</time>
      </trkpt>
      <trkpt lat="46.16791" lon="4.55583">
        <ele>396.4</ele>
        <time>2025-09-06T13:42:24Z</time>
      </trkpt>
      <trkpt lat="46.16792" lon="4.55579">
        <ele>396.4</ele>
        <time>2025-09-06T13:42:25Z</time>
      </trkpt>
      <trkpt lat="46.16793" lon="4.55575">
        <ele>396.4</ele>
        <time>2025-09-06T13:42:26Z</time>
      </trkpt>
      <trkpt lat="46.16795" lon="4.55571">
        <ele>396.4</ele>
        <time>2025-09-06T13:42:27Z</time>
      </trkpt>
      <trkpt lat="46.16796" lon="4.55567">
        <ele>396.4</ele>
        <time>2025-09-06T13:42:28Z</time>
      </trkpt>
      <trkpt lat="46.16797" lon="4.55562">
        <ele>396</ele>
        <time>2025-09-06T13:42:29Z</time>
      </trkpt>
      <trkpt lat="46.16799" lon="4.55558">
        <ele>396</ele>
        <time>2025-09-06T13:42:30Z</time>
      </trkpt>
      <trkpt lat="46.168" lon="4.55553">
        <ele>396.2</ele>
        <time>2025-09-06T13:42:31Z</time>
      </trkpt>
      <trkpt lat="46.16801" lon="4.55549">
        <ele>396.2</ele>
        <time>2025-09-06T13:42:32Z</time>
      </trkpt>
      <trkpt lat="46.16803" lon="4.55545">
        <ele>396.2</ele>
        <time>2025-09-06T13:42:33Z</time>
      </trkpt>
      <trkpt lat="46.16804" lon="4.55541">
        <ele>396.4</ele>
        <time>2025-09-06T13:42:34Z</time>
      </trkpt>
      <trkpt lat="46.16805" lon="4.55537">
        <ele>395.8</ele>
        <time>2025-09-06T13:42:35Z</time>
      </trkpt>
      <trkpt lat="46.16806" lon="4.55532">
        <ele>396.2</ele>
        <time>2025-09-06T13:42:36Z</time>
      </trkpt>
      <trkpt lat="46.16808" lon="4.55528">
        <ele>396.2</ele>
        <time>2025-09-06T13:42:37Z</time>
      </trkpt>
      <trkpt lat="46.16809" lon="4.55524">
        <ele>396.2</ele>
        <time>2025-09-06T13:42:38Z</time>
      </trkpt>
      <trkpt lat="46.16811" lon="4.55519">
        <ele>396.4</ele>
        <time>2025-09-06T13:42:39Z</time>
      </trkpt>
      <trkpt lat="46.16812" lon="4.55514">
        <ele>396.4</ele>
        <time>2025-09-06T13:42:40Z</time>
      </trkpt>
      <trkpt lat="46.16813" lon="4.5551">
        <ele>396.8</ele>
        <time>2025-09-06T13:42:41Z</time>
      </trkpt>
      <trkpt lat="46.16814" lon="4.55505">
        <ele>396.8</ele>
        <time>2025-09-06T13:42:42Z</time>
      </trkpt>
      <trkpt lat="46.16816" lon="4.55501">
        <ele>396.8</ele>
        <time>2025-09-06T13:42:43Z</time>
      </trkpt>
      <trkpt lat="46.16818" lon="4.55497">
        <ele>396.8</ele>
        <time>2025-09-06T13:42:44Z</time>
      </trkpt>
      <trkpt lat="46.16819" lon="4.55492">
        <ele>397.2</ele>
        <time>2025-09-06T13:42:45Z</time>
      </trkpt>
      <trkpt lat="46.1682" lon="4.55488">
        <ele>397.2</ele>
        <time>2025-09-06T13:42:46Z</time>
      </trkpt>
      <trkpt lat="46.16822" lon="4.55483">
        <ele>397.2</ele>
        <time>2025-09-06T13:42:47Z</time>
      </trkpt>
      <trkpt lat="46.16823" lon="4.55478">
        <ele>397.2</ele>
        <time>2025-09-06T13:42:48Z</time>
      </trkpt>
      <trkpt lat="46.16824" lon="4.55473">
        <ele>397.2</ele>
        <time>2025-09-06T13:42:49Z</time>
      </trkpt>
      <trkpt lat="46.16826" lon="4.55468">
        <ele>397.4</ele>
        <time>2025-09-06T13:42:50Z</time>
      </trkpt>
      <trkpt lat="46.16827" lon="4.55464">
        <ele>397.4</ele>
        <time>2025-09-06T13:42:51Z</time>
      </trkpt>
      <trkpt lat="46.16828" lon="4.55459">
        <ele>397.4</ele>
        <time>2025-09-06T13:42:52Z</time>
      </trkpt>
      <trkpt lat="46.1683" lon="4.55454">
        <ele>397.4</ele>
        <time>2025-09-06T13:42:53Z</time>
      </trkpt>
      <trkpt lat="46.16831" lon="4.5545">
        <ele>397.6</ele>
        <time>2025-09-06T13:42:54Z</time>
      </trkpt>
      <trkpt lat="46.16832" lon="4.55445">
        <ele>397.6</ele>
        <time>2025-09-06T13:42:55Z</time>
      </trkpt>
      <trkpt lat="46.16834" lon="4.55441">
        <ele>397.6</ele>
        <time>2025-09-06T13:42:56Z</time>
      </trkpt>
      <trkpt lat="46.16835" lon="4.55436">
        <ele>397.6</ele>
        <time>2025-09-06T13:42:57Z</time>
      </trkpt>
      <trkpt lat="46.16836" lon="4.55432">
        <ele>397.8</ele>
        <time>2025-09-06T13:42:58Z</time>
      </trkpt>
      <trkpt lat="46.16838" lon="4.55428">
        <ele>397.8</ele>
        <time>2025-09-06T13:42:59Z</time>
      </trkpt>
      <trkpt lat="46.16839" lon="4.55424">
        <ele>397.8</ele>
        <time>2025-09-06T13:43:00Z</time>
      </trkpt>
      <trkpt lat="46.16841" lon="4.5542">
        <ele>397.8</ele>
        <time>2025-09-06T13:43:01Z</time>
      </trkpt>
      <trkpt lat="46.16842" lon="4.55416">
        <ele>397.8</ele>
        <time>2025-09-06T13:43:02Z</time>
      </trkpt>
      <trkpt lat="46.16844" lon="4.55412">
        <ele>397.8</ele>
        <time>2025-09-06T13:43:03Z</time>
      </trkpt>
      <trkpt lat="46.16846" lon="4.55408">
        <ele>397.8</ele>
        <time>2025-09-06T13:43:04Z</time>
      </trkpt>
      <trkpt lat="46.16848" lon="4.55405">
        <ele>397.8</ele>
        <time>2025-09-06T13:43:05Z</time>
      </trkpt>
      <trkpt lat="46.16851" lon="4.55402">
        <ele>397.8</ele>
        <time>2025-09-06T13:43:06Z</time>
      </trkpt>
      <trkpt lat="46.16853" lon="4.554">
        <ele>397.8</ele>
        <time>2025-09-06T13:43:07Z</time>
      </trkpt>
      <trkpt lat="46.16856" lon="4.55399">
        <ele>398.2</ele>
        <time>2025-09-06T13:43:08Z</time>
      </trkpt>
      <trkpt lat="46.1686" lon="4.55399">
        <ele>398.2</ele>
        <time>2025-09-06T13:43:09Z</time>
      </trkpt>
      <trkpt lat="46.16864" lon="4.55401">
        <ele>398.2</ele>
        <time>2025-09-06T13:43:10Z</time>
      </trkpt>
      <trkpt lat="46.16868" lon="4.55404">
        <ele>398.2</ele>
        <time>2025-09-06T13:43:11Z</time>
      </trkpt>
      <trkpt lat="46.16871" lon="4.55406">
        <ele>398.2</ele>
        <time>2025-09-06T13:43:12Z</time>
      </trkpt>
      <trkpt lat="46.16871" lon="4.55406">
        <ele>398.6</ele>
        <time>2025-09-06T13:43:13Z</time>
      </trkpt>
      <trkpt lat="46.16875" lon="4.55408">
        <ele>398.2</ele>
        <time>2025-09-06T13:43:14Z</time>
      </trkpt>
      <trkpt lat="46.16878" lon="4.5541">
        <ele>398.4</ele>
        <time>2025-09-06T13:43:15Z</time>
      </trkpt>
      <trkpt lat="46.16882" lon="4.55411">
        <ele>398.6</ele>
        <time>2025-09-06T13:43:16Z</time>
      </trkpt>
      <trkpt lat="46.16885" lon="4.55412">
        <ele>398.6</ele>
        <time>2025-09-06T13:43:17Z</time>
      </trkpt>
      <trkpt lat="46.16888" lon="4.55415">
        <ele>398.6</ele>
        <time>2025-09-06T13:43:18Z</time>
      </trkpt>
      <trkpt lat="46.16891" lon="4.55417">
        <ele>399</ele>
        <time>2025-09-06T13:43:19Z</time>
      </trkpt>
      <trkpt lat="46.16895" lon="4.5542">
        <ele>399</ele>
        <time>2025-09-06T13:43:20Z</time>
      </trkpt>
      <trkpt lat="46.16898" lon="4.55421">
        <ele>399</ele>
        <time>2025-09-06T13:43:21Z</time>
      </trkpt>
      <trkpt lat="46.16901" lon="4.55423">
        <ele>398.2</ele>
        <time>2025-09-06T13:43:22Z</time>
      </trkpt>
      <trkpt lat="46.16905" lon="4.55425">
        <ele>398.8</ele>
        <time>2025-09-06T13:43:23Z</time>
      </trkpt>
      <trkpt lat="46.16908" lon="4.55427">
        <ele>399</ele>
        <time>2025-09-06T13:43:24Z</time>
      </trkpt>
      <trkpt lat="46.16912" lon="4.55428">
        <ele>399</ele>
        <time>2025-09-06T13:43:25Z</time>
      </trkpt>
      <trkpt lat="46.16915" lon="4.5543">
        <ele>399</ele>
        <time>2025-09-06T13:43:26Z</time>
      </trkpt>
      <trkpt lat="46.16918" lon="4.55432">
        <ele>399</ele>
        <time>2025-09-06T13:43:27Z</time>
      </trkpt>
      <trkpt lat="46.16922" lon="4.55434">
        <ele>399.2</ele>
        <time>2025-09-06T13:43:28Z</time>
      </trkpt>
      <trkpt lat="46.16925" lon="4.55436">
        <ele>399.2</ele>
        <time>2025-09-06T13:43:29Z</time>
      </trkpt>
      <trkpt lat="46.16929" lon="4.55438">
        <ele>399.2</ele>
        <time>2025-09-06T13:43:30Z</time>
      </trkpt>
      <trkpt lat="46.16933" lon="4.55439">
        <ele>399.2</ele>
        <time>2025-09-06T13:43:31Z</time>
      </trkpt>
      <trkpt lat="46.16937" lon="4.55441">
        <ele>399</ele>
        <time>2025-09-06T13:43:32Z</time>
      </trkpt>
      <trkpt lat="46.16942" lon="4.55438">
        <ele>399</ele>
        <time>2025-09-06T13:43:33Z</time>
      </trkpt>
      <trkpt lat="46.16946" lon="4.55436">
        <ele>399</ele>
        <time>2025-09-06T13:43:34Z</time>
      </trkpt>
      <trkpt lat="46.1695" lon="4.55433">
        <ele>399</ele>
        <time>2025-09-06T13:43:35Z</time>
      </trkpt>
      <trkpt lat="46.16953" lon="4.55429">
        <ele>399</ele>
        <time>2025-09-06T13:43:36Z</time>
      </trkpt>
      <trkpt lat="46.16956" lon="4.55426">
        <ele>398.8</ele>
        <time>2025-09-06T13:43:37Z</time>
      </trkpt>
      <trkpt lat="46.16959" lon="4.55422">
        <ele>398.8</ele>
        <time>2025-09-06T13:43:38Z</time>
      </trkpt>
      <trkpt lat="46.16963" lon="4.55418">
        <ele>398.8</ele>
        <time>2025-09-06T13:43:39Z</time>
      </trkpt>
      <trkpt lat="46.16966" lon="4.55414">
        <ele>398.8</ele>
        <time>2025-09-06T13:43:40Z</time>
      </trkpt>
      <trkpt lat="46.16968" lon="4.55411">
        <ele>399</ele>
        <time>2025-09-06T13:43:41Z</time>
      </trkpt>
      <trkpt lat="46.16971" lon="4.55406">
        <ele>399</ele>
        <time>2025-09-06T13:43:42Z</time>
      </trkpt>
      <trkpt lat="46.16974" lon="4.55404">
        <ele>399.2</ele>
        <time>2025-09-06T13:43:43Z</time>
      </trkpt>
      <trkpt lat="46.16977" lon="4.55399">
        <ele>399.2</ele>
        <time>2025-09-06T13:43:44Z</time>
      </trkpt>
      <trkpt lat="46.16979" lon="4.55396">
        <ele>399.2</ele>
        <time>2025-09-06T13:43:45Z</time>
      </trkpt>
      <trkpt lat="46.16985" lon="4.55388">
        <ele>399.6</ele>
        <time>2025-09-06T13:43:46Z</time>
      </trkpt>
      <trkpt lat="46.16987" lon="4.55385">
        <ele>399.6</ele>
        <time>2025-09-06T13:43:47Z</time>
      </trkpt>
      <trkpt lat="46.1699" lon="4.55381">
        <ele>399.6</ele>
        <time>2025-09-06T13:43:48Z</time>
      </trkpt>
      <trkpt lat="46.16992" lon="4.55378">
        <ele>399.8</ele>
        <time>2025-09-06T13:43:49Z</time>
      </trkpt>
      <trkpt lat="46.16995" lon="4.55375">
        <ele>400</ele>
        <time>2025-09-06T13:43:50Z</time>
      </trkpt>
      <trkpt lat="46.16998" lon="4.55372">
        <ele>400</ele>
        <time>2025-09-06T13:43:51Z</time>
      </trkpt>
      <trkpt lat="46.17" lon="4.55369">
        <ele>400.4</ele>
        <time>2025-09-06T13:43:52Z</time>
      </trkpt>
      <trkpt lat="46.17003" lon="4.55366">
        <ele>400.4</ele>
        <time>2025-09-06T13:43:53Z</time>
      </trkpt>
      <trkpt lat="46.17006" lon="4.55364">
        <ele>400.4</ele>
        <time>2025-09-06T13:43:54Z</time>
      </trkpt>
      <trkpt lat="46.17009" lon="4.55361">
        <ele>400.4</ele>
        <time>2025-09-06T13:43:55Z</time>
      </trkpt>
      <trkpt lat="46.17012" lon="4.55359">
        <ele>400.6</ele>
        <time>2025-09-06T13:43:56Z</time>
      </trkpt>
      <trkpt lat="46.17015" lon="4.55357">
        <ele>400.6</ele>
        <time>2025-09-06T13:43:57Z</time>
      </trkpt>
      <trkpt lat="46.17019" lon="4.55355">
        <ele>401.2</ele>
        <time>2025-09-06T13:43:58Z</time>
      </trkpt>
      <trkpt lat="46.17022" lon="4.55353">
        <ele>401.4</ele>
        <time>2025-09-06T13:43:59Z</time>
      </trkpt>
      <trkpt lat="46.17025" lon="4.55352">
        <ele>401.4</ele>
        <time>2025-09-06T13:44:00Z</time>
      </trkpt>
      <trkpt lat="46.17028" lon="4.55351">
        <ele>401.4</ele>
        <time>2025-09-06T13:44:01Z</time>
      </trkpt>
      <trkpt lat="46.17031" lon="4.5535">
        <ele>401.8</ele>
        <time>2025-09-06T13:44:02Z</time>
      </trkpt>
      <trkpt lat="46.17034" lon="4.5535">
        <ele>401.8</ele>
        <time>2025-09-06T13:44:03Z</time>
      </trkpt>
      <trkpt lat="46.17037" lon="4.55349">
        <ele>401.8</ele>
        <time>2025-09-06T13:44:04Z</time>
      </trkpt>
      <trkpt lat="46.17039" lon="4.55349">
        <ele>402.2</ele>
        <time>2025-09-06T13:44:05Z</time>
      </trkpt>
      <trkpt lat="46.17042" lon="4.55348">
        <ele>402.2</ele>
        <time>2025-09-06T13:44:06Z</time>
      </trkpt>
      <trkpt lat="46.17044" lon="4.55347">
        <ele>402.4</ele>
        <time>2025-09-06T13:44:07Z</time>
      </trkpt>
      <trkpt lat="46.17047" lon="4.55347">
        <ele>402.4</ele>
        <time>2025-09-06T13:44:08Z</time>
      </trkpt>
      <trkpt lat="46.17049" lon="4.55346">
        <ele>402.6</ele>
        <time>2025-09-06T13:44:09Z</time>
      </trkpt>
      <trkpt lat="46.17052" lon="4.55346">
        <ele>402.8</ele>
        <time>2025-09-06T13:44:10Z</time>
      </trkpt>
      <trkpt lat="46.17054" lon="4.55345">
        <ele>402.8</ele>
        <time>2025-09-06T13:44:11Z</time>
      </trkpt>
      <trkpt lat="46.17057" lon="4.55344">
        <ele>402.8</ele>
        <time>2025-09-06T13:44:12Z</time>
      </trkpt>
      <trkpt lat="46.17059" lon="4.55344">
        <ele>402.8</ele>
        <time>2025-09-06T13:44:13Z</time>
      </trkpt>
      <trkpt lat="46.17062" lon="4.55344">
        <ele>402.8</ele>
        <time>2025-09-06T13:44:14Z</time>
      </trkpt>
      <trkpt lat="46.17064" lon="4.55343">
        <ele>403.2</ele>
        <time>2025-09-06T13:44:15Z</time>
      </trkpt>
      <trkpt lat="46.17067" lon="4.55342">
        <ele>403.2</ele>
        <time>2025-09-06T13:44:16Z</time>
      </trkpt>
      <trkpt lat="46.17069" lon="4.55341">
        <ele>403.2</ele>
        <time>2025-09-06T13:44:17Z</time>
      </trkpt>
      <trkpt lat="46.17072" lon="4.55339">
        <ele>403.2</ele>
        <time>2025-09-06T13:44:18Z</time>
      </trkpt>
      <trkpt lat="46.17074" lon="4.55338">
        <ele>403.4</ele>
        <time>2025-09-06T13:44:19Z</time>
      </trkpt>
      <trkpt lat="46.17076" lon="4.55337">
        <ele>403.4</ele>
        <time>2025-09-06T13:44:20Z</time>
      </trkpt>
      <trkpt lat="46.17079" lon="4.55336">
        <ele>403.8</ele>
        <time>2025-09-06T13:44:21Z</time>
      </trkpt>
      <trkpt lat="46.17082" lon="4.55335">
        <ele>403.8</ele>
        <time>2025-09-06T13:44:22Z</time>
      </trkpt>
      <trkpt lat="46.17084" lon="4.55333">
        <ele>403.8</ele>
        <time>2025-09-06T13:44:23Z</time>
      </trkpt>
      <trkpt lat="46.17087" lon="4.55332">
        <ele>404.2</ele>
        <time>2025-09-06T13:44:24Z</time>
      </trkpt>
      <trkpt lat="46.17089" lon="4.5533">
        <ele>404.2</ele>
        <time>2025-09-06T13:44:25Z</time>
      </trkpt>
      <trkpt lat="46.17091" lon="4.55328">
        <ele>404.4</ele>
        <time>2025-09-06T13:44:26Z</time>
      </trkpt>
      <trkpt lat="46.17094" lon="4.55327">
        <ele>404.4</ele>
        <time>2025-09-06T13:44:27Z</time>
      </trkpt>
      <trkpt lat="46.17096" lon="4.55325">
        <ele>404.4</ele>
        <time>2025-09-06T13:44:28Z</time>
      </trkpt>
      <trkpt lat="46.17098" lon="4.55323">
        <ele>404.4</ele>
        <time>2025-09-06T13:44:29Z</time>
      </trkpt>
      <trkpt lat="46.17101" lon="4.55321">
        <ele>404.6</ele>
        <time>2025-09-06T13:44:30Z</time>
      </trkpt>
      <trkpt lat="46.17103" lon="4.55319">
        <ele>404.6</ele>
        <time>2025-09-06T13:44:31Z</time>
      </trkpt>
      <trkpt lat="46.17106" lon="4.55317">
        <ele>404.6</ele>
        <time>2025-09-06T13:44:32Z</time>
      </trkpt>
      <trkpt lat="46.17108" lon="4.55315">
        <ele>404.6</ele>
        <time>2025-09-06T13:44:33Z</time>
      </trkpt>
      <trkpt lat="46.1711" lon="4.55313">
        <ele>404.6</ele>
        <time>2025-09-06T13:44:34Z</time>
      </trkpt>
      <trkpt lat="46.17113" lon="4.55311">
        <ele>405</ele>
        <time>2025-09-06T13:44:35Z</time>
      </trkpt>
      <trkpt lat="46.17115" lon="4.55309">
        <ele>405</ele>
        <time>2025-09-06T13:44:36Z</time>
      </trkpt>
      <trkpt lat="46.17117" lon="4.55306">
        <ele>404.8</ele>
        <time>2025-09-06T13:44:37Z</time>
      </trkpt>
      <trkpt lat="46.17119" lon="4.55304">
        <ele>405.2</ele>
        <time>2025-09-06T13:44:38Z</time>
      </trkpt>
      <trkpt lat="46.17121" lon="4.55301">
        <ele>405.4</ele>
        <time>2025-09-06T13:44:39Z</time>
      </trkpt>
      <trkpt lat="46.17123" lon="4.55299">
        <ele>405.4</ele>
        <time>2025-09-06T13:44:40Z</time>
      </trkpt>
      <trkpt lat="46.17125" lon="4.55297">
        <ele>405.4</ele>
        <time>2025-09-06T13:44:41Z</time>
      </trkpt>
      <trkpt lat="46.17127" lon="4.55294">
        <ele>405.4</ele>
        <time>2025-09-06T13:44:42Z</time>
      </trkpt>
      <trkpt lat="46.17129" lon="4.55292">
        <ele>405.4</ele>
        <time>2025-09-06T13:44:43Z</time>
      </trkpt>
      <trkpt lat="46.17131" lon="4.5529">
        <ele>405.4</ele>
        <time>2025-09-06T13:44:44Z</time>
      </trkpt>
      <trkpt lat="46.17133" lon="4.55287">
        <ele>405.8</ele>
        <time>2025-09-06T13:44:45Z</time>
      </trkpt>
      <trkpt lat="46.17135" lon="4.55284">
        <ele>405.8</ele>
        <time>2025-09-06T13:44:46Z</time>
      </trkpt>
      <trkpt lat="46.17137" lon="4.55282">
        <ele>406</ele>
        <time>2025-09-06T13:44:47Z</time>
      </trkpt>
      <trkpt lat="46.17139" lon="4.55279">
        <ele>406</ele>
        <time>2025-09-06T13:44:48Z</time>
      </trkpt>
      <trkpt lat="46.17141" lon="4.55277">
        <ele>406.2</ele>
        <time>2025-09-06T13:44:49Z</time>
      </trkpt>
      <trkpt lat="46.17143" lon="4.55274">
        <ele>406.2</ele>
        <time>2025-09-06T13:44:50Z</time>
      </trkpt>
      <trkpt lat="46.17144" lon="4.55272">
        <ele>406.2</ele>
        <time>2025-09-06T13:44:51Z</time>
      </trkpt>
      <trkpt lat="46.17146" lon="4.5527">
        <ele>406.6</ele>
        <time>2025-09-06T13:44:52Z</time>
      </trkpt>
      <trkpt lat="46.17148" lon="4.55267">
        <ele>406.6</ele>
        <time>2025-09-06T13:44:53Z</time>
      </trkpt>
      <trkpt lat="46.17149" lon="4.55264">
        <ele>406.6</ele>
        <time>2025-09-06T13:44:54Z</time>
      </trkpt>
      <trkpt lat="46.17151" lon="4.55262">
        <ele>406.8</ele>
        <time>2025-09-06T13:44:55Z</time>
      </trkpt>
      <trkpt lat="46.17153" lon="4.55259">
        <ele>406.8</ele>
        <time>2025-09-06T13:44:56Z</time>
      </trkpt>
      <trkpt lat="46.17155" lon="4.55257">
        <ele>406.8</ele>
        <time>2025-09-06T13:44:57Z</time>
      </trkpt>
      <trkpt lat="46.17157" lon="4.55254">
        <ele>406.8</ele>
        <time>2025-09-06T13:44:58Z</time>
      </trkpt>
      <trkpt lat="46.17158" lon="4.55251">
        <ele>407.2</ele>
        <time>2025-09-06T13:44:59Z</time>
      </trkpt>
      <trkpt lat="46.1716" lon="4.55249">
        <ele>407.4</ele>
        <time>2025-09-06T13:45:00Z</time>
      </trkpt>
      <trkpt lat="46.17162" lon="4.55246">
        <ele>407.4</ele>
        <time>2025-09-06T13:45:01Z</time>
      </trkpt>
      <trkpt lat="46.17164" lon="4.55243">
        <ele>407.4</ele>
        <time>2025-09-06T13:45:02Z</time>
      </trkpt>
      <trkpt lat="46.17166" lon="4.55241">
        <ele>407.6</ele>
        <time>2025-09-06T13:45:03Z</time>
      </trkpt>
      <trkpt lat="46.17167" lon="4.55238">
        <ele>407.6</ele>
        <time>2025-09-06T13:45:04Z</time>
      </trkpt>
      <trkpt lat="46.17169" lon="4.55236">
        <ele>407.6</ele>
        <time>2025-09-06T13:45:05Z</time>
      </trkpt>
      <trkpt lat="46.17171" lon="4.55233">
        <ele>407.6</ele>
        <time>2025-09-06T13:45:06Z</time>
      </trkpt>
      <trkpt lat="46.17173" lon="4.5523">
        <ele>407.6</ele>
        <time>2025-09-06T13:45:07Z</time>
      </trkpt>
      <trkpt lat="46.17175" lon="4.55227">
        <ele>407.6</ele>
        <time>2025-09-06T13:45:08Z</time>
      </trkpt>
      <trkpt lat="46.17176" lon="4.55225">
        <ele>408</ele>
        <time>2025-09-06T13:45:09Z</time>
      </trkpt>
      <trkpt lat="46.17178" lon="4.55223">
        <ele>408.2</ele>
        <time>2025-09-06T13:45:10Z</time>
      </trkpt>
      <trkpt lat="46.1718" lon="4.55221">
        <ele>408.2</ele>
        <time>2025-09-06T13:45:11Z</time>
      </trkpt>
      <trkpt lat="46.17182" lon="4.55218">
        <ele>408.6</ele>
        <time>2025-09-06T13:45:12Z</time>
      </trkpt>
      <trkpt lat="46.17184" lon="4.55216">
        <ele>408.6</ele>
        <time>2025-09-06T13:45:13Z</time>
      </trkpt>
      <trkpt lat="46.17185" lon="4.55214">
        <ele>408.6</ele>
        <time>2025-09-06T13:45:14Z</time>
      </trkpt>
      <trkpt lat="46.17187" lon="4.55211">
        <ele>408.8</ele>
        <time>2025-09-06T13:45:15Z</time>
      </trkpt>
      <trkpt lat="46.17189" lon="4.55209">
        <ele>408.8</ele>
        <time>2025-09-06T13:45:16Z</time>
      </trkpt>
      <trkpt lat="46.17191" lon="4.55206">
        <ele>409</ele>
        <time>2025-09-06T13:45:17Z</time>
      </trkpt>
      <trkpt lat="46.17192" lon="4.55204">
        <ele>409</ele>
        <time>2025-09-06T13:45:18Z</time>
      </trkpt>
      <trkpt lat="46.17194" lon="4.55201">
        <ele>409.4</ele>
        <time>2025-09-06T13:45:19Z</time>
      </trkpt>
      <trkpt lat="46.17196" lon="4.55199">
        <ele>409.4</ele>
        <time>2025-09-06T13:45:20Z</time>
      </trkpt>
      <trkpt lat="46.17197" lon="4.55197">
        <ele>409.4</ele>
        <time>2025-09-06T13:45:21Z</time>
      </trkpt>
      <trkpt lat="46.17199" lon="4.55195">
        <ele>409.6</ele>
        <time>2025-09-06T13:45:22Z</time>
      </trkpt>
      <trkpt lat="46.17201" lon="4.55193">
        <ele>409.6</ele>
        <time>2025-09-06T13:45:23Z</time>
      </trkpt>
      <trkpt lat="46.17202" lon="4.55191">
        <ele>409.6</ele>
        <time>2025-09-06T13:45:24Z</time>
      </trkpt>
      <trkpt lat="46.17204" lon="4.55189">
        <ele>409.6</ele>
        <time>2025-09-06T13:45:25Z</time>
      </trkpt>
      <trkpt lat="46.17206" lon="4.55186">
        <ele>410</ele>
        <time>2025-09-06T13:45:26Z</time>
      </trkpt>
      <trkpt lat="46.17207" lon="4.55184">
        <ele>410</ele>
        <time>2025-09-06T13:45:27Z</time>
      </trkpt>
      <trkpt lat="46.17209" lon="4.55181">
        <ele>410</ele>
        <time>2025-09-06T13:45:28Z</time>
      </trkpt>
      <trkpt lat="46.1721" lon="4.55179">
        <ele>410</ele>
        <time>2025-09-06T13:45:29Z</time>
      </trkpt>
      <trkpt lat="46.17212" lon="4.55176">
        <ele>410</ele>
        <time>2025-09-06T13:45:30Z</time>
      </trkpt>
      <trkpt lat="46.17214" lon="4.55174">
        <ele>410</ele>
        <time>2025-09-06T13:45:31Z</time>
      </trkpt>
      <trkpt lat="46.17216" lon="4.55171">
        <ele>410.2</ele>
        <time>2025-09-06T13:45:32Z</time>
      </trkpt>
      <trkpt lat="46.17218" lon="4.55169">
        <ele>410.4</ele>
        <time>2025-09-06T13:45:33Z</time>
      </trkpt>
      <trkpt lat="46.17219" lon="4.55166">
        <ele>410.4</ele>
        <time>2025-09-06T13:45:34Z</time>
      </trkpt>
      <trkpt lat="46.17221" lon="4.55163">
        <ele>410.4</ele>
        <time>2025-09-06T13:45:35Z</time>
      </trkpt>
      <trkpt lat="46.17222" lon="4.55161">
        <ele>410.4</ele>
        <time>2025-09-06T13:45:36Z</time>
      </trkpt>
      <trkpt lat="46.17224" lon="4.55158">
        <ele>410.8</ele>
        <time>2025-09-06T13:45:37Z</time>
      </trkpt>
      <trkpt lat="46.17225" lon="4.55155">
        <ele>410.8</ele>
        <time>2025-09-06T13:45:38Z</time>
      </trkpt>
      <trkpt lat="46.17227" lon="4.55153">
        <ele>411</ele>
        <time>2025-09-06T13:45:39Z</time>
      </trkpt>
      <trkpt lat="46.17228" lon="4.5515">
        <ele>411</ele>
        <time>2025-09-06T13:45:40Z</time>
      </trkpt>
      <trkpt lat="46.1723" lon="4.55147">
        <ele>411.4</ele>
        <time>2025-09-06T13:45:41Z</time>
      </trkpt>
      <trkpt lat="46.17231" lon="4.55145">
        <ele>411.4</ele>
        <time>2025-09-06T13:45:42Z</time>
      </trkpt>
      <trkpt lat="46.17232" lon="4.55142">
        <ele>411.4</ele>
        <time>2025-09-06T13:45:43Z</time>
      </trkpt>
      <trkpt lat="46.17234" lon="4.55139">
        <ele>411.4</ele>
        <time>2025-09-06T13:45:44Z</time>
      </trkpt>
      <trkpt lat="46.17235" lon="4.55136">
        <ele>411.4</ele>
        <time>2025-09-06T13:45:45Z</time>
      </trkpt>
      <trkpt lat="46.17236" lon="4.55133">
        <ele>411.4</ele>
        <time>2025-09-06T13:45:46Z</time>
      </trkpt>
      <trkpt lat="46.17237" lon="4.55129">
        <ele>411.8</ele>
        <time>2025-09-06T13:45:47Z</time>
      </trkpt>
      <trkpt lat="46.17239" lon="4.55126">
        <ele>412</ele>
        <time>2025-09-06T13:45:48Z</time>
      </trkpt>
      <trkpt lat="46.1724" lon="4.55123">
        <ele>412</ele>
        <time>2025-09-06T13:45:49Z</time>
      </trkpt>
      <trkpt lat="46.17241" lon="4.55121">
        <ele>412</ele>
        <time>2025-09-06T13:45:50Z</time>
      </trkpt>
      <trkpt lat="46.17242" lon="4.55117">
        <ele>412.4</ele>
        <time>2025-09-06T13:45:51Z</time>
      </trkpt>
      <trkpt lat="46.17243" lon="4.55114">
        <ele>412.4</ele>
        <time>2025-09-06T13:45:52Z</time>
      </trkpt>
      <trkpt lat="46.17244" lon="4.55111">
        <ele>412.4</ele>
        <time>2025-09-06T13:45:53Z</time>
      </trkpt>
      <trkpt lat="46.17245" lon="4.55108">
        <ele>412.6</ele>
        <time>2025-09-06T13:45:54Z</time>
      </trkpt>
      <trkpt lat="46.17246" lon="4.55105">
        <ele>412.6</ele>
        <time>2025-09-06T13:45:55Z</time>
      </trkpt>
      <trkpt lat="46.17247" lon="4.55102">
        <ele>412.6</ele>
        <time>2025-09-06T13:45:56Z</time>
      </trkpt>
      <trkpt lat="46.17248" lon="4.55099">
        <ele>412.6</ele>
        <time>2025-09-06T13:45:57Z</time>
      </trkpt>
      <trkpt lat="46.1725" lon="4.55096">
        <ele>412.6</ele>
        <time>2025-09-06T13:45:58Z</time>
      </trkpt>
      <trkpt lat="46.17251" lon="4.55093">
        <ele>412.6</ele>
        <time>2025-09-06T13:45:59Z</time>
      </trkpt>
      <trkpt lat="46.17252" lon="4.5509">
        <ele>412.6</ele>
        <time>2025-09-06T13:46:00Z</time>
      </trkpt>
      <trkpt lat="46.17252" lon="4.55087">
        <ele>412.6</ele>
        <time>2025-09-06T13:46:01Z</time>
      </trkpt>
      <trkpt lat="46.17253" lon="4.55084">
        <ele>413</ele>
        <time>2025-09-06T13:46:02Z</time>
      </trkpt>
      <trkpt lat="46.17254" lon="4.55081">
        <ele>413</ele>
        <time>2025-09-06T13:46:03Z</time>
      </trkpt>
      <trkpt lat="46.17255" lon="4.55078">
        <ele>413.2</ele>
        <time>2025-09-06T13:46:04Z</time>
      </trkpt>
      <trkpt lat="46.17256" lon="4.55075">
        <ele>413.2</ele>
        <time>2025-09-06T13:46:05Z</time>
      </trkpt>
      <trkpt lat="46.17257" lon="4.55072">
        <ele>413.6</ele>
        <time>2025-09-06T13:46:06Z</time>
      </trkpt>
      <trkpt lat="46.17259" lon="4.55069">
        <ele>413.6</ele>
        <time>2025-09-06T13:46:07Z</time>
      </trkpt>
      <trkpt lat="46.1726" lon="4.55066">
        <ele>414</ele>
        <time>2025-09-06T13:46:08Z</time>
      </trkpt>
      <trkpt lat="46.17261" lon="4.55063">
        <ele>414</ele>
        <time>2025-09-06T13:46:09Z</time>
      </trkpt>
      <trkpt lat="46.17262" lon="4.55061">
        <ele>414.2</ele>
        <time>2025-09-06T13:46:10Z</time>
      </trkpt>
      <trkpt lat="46.17263" lon="4.55057">
        <ele>414.2</ele>
        <time>2025-09-06T13:46:11Z</time>
      </trkpt>
      <trkpt lat="46.17264" lon="4.55054">
        <ele>414.6</ele>
        <time>2025-09-06T13:46:12Z</time>
      </trkpt>
      <trkpt lat="46.17265" lon="4.55051">
        <ele>414.8</ele>
        <time>2025-09-06T13:46:13Z</time>
      </trkpt>
      <trkpt lat="46.17266" lon="4.55048">
        <ele>414.8</ele>
        <time>2025-09-06T13:46:14Z</time>
      </trkpt>
      <trkpt lat="46.17267" lon="4.55045">
        <ele>414.8</ele>
        <time>2025-09-06T13:46:15Z</time>
      </trkpt>
      <trkpt lat="46.17268" lon="4.55043">
        <ele>414.8</ele>
        <time>2025-09-06T13:46:16Z</time>
      </trkpt>
      <trkpt lat="46.17269" lon="4.5504">
        <ele>414.8</ele>
        <time>2025-09-06T13:46:17Z</time>
      </trkpt>
      <trkpt lat="46.1727" lon="4.55037">
        <ele>414.8</ele>
        <time>2025-09-06T13:46:18Z</time>
      </trkpt>
      <trkpt lat="46.17272" lon="4.55034">
        <ele>415</ele>
        <time>2025-09-06T13:46:19Z</time>
      </trkpt>
      <trkpt lat="46.17273" lon="4.55031">
        <ele>415</ele>
        <time>2025-09-06T13:46:20Z</time>
      </trkpt>
      <trkpt lat="46.17274" lon="4.55029">
        <ele>415</ele>
        <time>2025-09-06T13:46:21Z</time>
      </trkpt>
      <trkpt lat="46.17275" lon="4.55026">
        <ele>415.4</ele>
        <time>2025-09-06T13:46:22Z</time>
      </trkpt>
      <trkpt lat="46.17276" lon="4.55023">
        <ele>415.4</ele>
        <time>2025-09-06T13:46:23Z</time>
      </trkpt>
      <trkpt lat="46.17277" lon="4.5502">
        <ele>415.4</ele>
        <time>2025-09-06T13:46:24Z</time>
      </trkpt>
      <trkpt lat="46.17278" lon="4.55017">
        <ele>415.4</ele>
        <time>2025-09-06T13:46:25Z</time>
      </trkpt>
      <trkpt lat="46.17279" lon="4.55014">
        <ele>415.6</ele>
        <time>2025-09-06T13:46:26Z</time>
      </trkpt>
      <trkpt lat="46.1728" lon="4.55011">
        <ele>415.6</ele>
        <time>2025-09-06T13:46:27Z</time>
      </trkpt>
      <trkpt lat="46.17281" lon="4.55008">
        <ele>415.6</ele>
        <time>2025-09-06T13:46:28Z</time>
      </trkpt>
      <trkpt lat="46.17282" lon="4.55005">
        <ele>415.8</ele>
        <time>2025-09-06T13:46:29Z</time>
      </trkpt>
      <trkpt lat="46.17283" lon="4.55002">
        <ele>416</ele>
        <time>2025-09-06T13:46:30Z</time>
      </trkpt>
      <trkpt lat="46.17284" lon="4.54999">
        <ele>416</ele>
        <time>2025-09-06T13:46:31Z</time>
      </trkpt>
      <trkpt lat="46.17285" lon="4.54997">
        <ele>416</ele>
        <time>2025-09-06T13:46:32Z</time>
      </trkpt>
      <trkpt lat="46.17286" lon="4.54994">
        <ele>416.4</ele>
        <time>2025-09-06T13:46:33Z</time>
      </trkpt>
      <trkpt lat="46.17287" lon="4.54991">
        <ele>416.4</ele>
        <time>2025-09-06T13:46:34Z</time>
      </trkpt>
      <trkpt lat="46.17288" lon="4.54988">
        <ele>416.4</ele>
        <time>2025-09-06T13:46:35Z</time>
      </trkpt>
      <trkpt lat="46.17289" lon="4.54985">
        <ele>416.4</ele>
        <time>2025-09-06T13:46:36Z</time>
      </trkpt>
      <trkpt lat="46.1729" lon="4.54982">
        <ele>416.6</ele>
        <time>2025-09-06T13:46:37Z</time>
      </trkpt>
      <trkpt lat="46.1729" lon="4.54982">
        <ele>416.6</ele>
        <time>2025-09-06T13:46:38Z</time>
      </trkpt>
      <trkpt lat="46.17291" lon="4.54979">
        <ele>416.6</ele>
        <time>2025-09-06T13:46:39Z</time>
      </trkpt>
      <trkpt lat="46.17292" lon="4.54976">
        <ele>417</ele>
        <time>2025-09-06T13:46:40Z</time>
      </trkpt>
      <trkpt lat="46.17293" lon="4.54973">
        <ele>417</ele>
        <time>2025-09-06T13:46:41Z</time>
      </trkpt>
      <trkpt lat="46.17294" lon="4.5497">
        <ele>417</ele>
        <time>2025-09-06T13:46:42Z</time>
      </trkpt>
      <trkpt lat="46.17295" lon="4.54967">
        <ele>417</ele>
        <time>2025-09-06T13:46:43Z</time>
      </trkpt>
      <trkpt lat="46.17296" lon="4.54964">
        <ele>417.4</ele>
        <time>2025-09-06T13:46:44Z</time>
      </trkpt>
      <trkpt lat="46.17297" lon="4.54961">
        <ele>417.4</ele>
        <time>2025-09-06T13:46:45Z</time>
      </trkpt>
      <trkpt lat="46.17298" lon="4.54957">
        <ele>417.4</ele>
        <time>2025-09-06T13:46:46Z</time>
      </trkpt>
      <trkpt lat="46.17299" lon="4.54954">
        <ele>417.4</ele>
        <time>2025-09-06T13:46:47Z</time>
      </trkpt>
      <trkpt lat="46.173" lon="4.54951">
        <ele>417.4</ele>
        <time>2025-09-06T13:46:48Z</time>
      </trkpt>
      <trkpt lat="46.173" lon="4.54948">
        <ele>417.6</ele>
        <time>2025-09-06T13:46:49Z</time>
      </trkpt>
      <trkpt lat="46.17301" lon="4.54945">
        <ele>417.6</ele>
        <time>2025-09-06T13:46:50Z</time>
      </trkpt>
      <trkpt lat="46.17302" lon="4.54942">
        <ele>417.6</ele>
        <time>2025-09-06T13:46:51Z</time>
      </trkpt>
      <trkpt lat="46.17303" lon="4.54939">
        <ele>417.6</ele>
        <time>2025-09-06T13:46:52Z</time>
      </trkpt>
      <trkpt lat="46.17304" lon="4.54936">
        <ele>417.6</ele>
        <time>2025-09-06T13:46:53Z</time>
      </trkpt>
      <trkpt lat="46.17305" lon="4.54932">
        <ele>417.6</ele>
        <time>2025-09-06T13:46:54Z</time>
      </trkpt>
      <trkpt lat="46.17306" lon="4.54929">
        <ele>418</ele>
        <time>2025-09-06T13:46:55Z</time>
      </trkpt>
      <trkpt lat="46.17306" lon="4.54926">
        <ele>418</ele>
        <time>2025-09-06T13:46:56Z</time>
      </trkpt>
      <trkpt lat="46.17307" lon="4.54922">
        <ele>418</ele>
        <time>2025-09-06T13:46:57Z</time>
      </trkpt>
      <trkpt lat="46.17308" lon="4.54919">
        <ele>418.4</ele>
        <time>2025-09-06T13:46:58Z</time>
      </trkpt>
      <trkpt lat="46.17309" lon="4.54916">
        <ele>418.6</ele>
        <time>2025-09-06T13:46:59Z</time>
      </trkpt>
      <trkpt lat="46.17309" lon="4.54913">
        <ele>418.6</ele>
        <time>2025-09-06T13:47:00Z</time>
      </trkpt>
      <trkpt lat="46.1731" lon="4.5491">
        <ele>418.6</ele>
        <time>2025-09-06T13:47:01Z</time>
      </trkpt>
      <trkpt lat="46.17311" lon="4.54906">
        <ele>418.6</ele>
        <time>2025-09-06T13:47:02Z</time>
      </trkpt>
      <trkpt lat="46.17312" lon="4.54903">
        <ele>418.6</ele>
        <time>2025-09-06T13:47:03Z</time>
      </trkpt>
      <trkpt lat="46.17313" lon="4.549">
        <ele>418.8</ele>
        <time>2025-09-06T13:47:04Z</time>
      </trkpt>
      <trkpt lat="46.17314" lon="4.54896">
        <ele>419</ele>
        <time>2025-09-06T13:47:05Z</time>
      </trkpt>
      <trkpt lat="46.17314" lon="4.54893">
        <ele>419</ele>
        <time>2025-09-06T13:47:06Z</time>
      </trkpt>
      <trkpt lat="46.17315" lon="4.5489">
        <ele>419.6</ele>
        <time>2025-09-06T13:47:07Z</time>
      </trkpt>
      <trkpt lat="46.17315" lon="4.54886">
        <ele>419.6</ele>
        <time>2025-09-06T13:47:08Z</time>
      </trkpt>
      <trkpt lat="46.17318" lon="4.5488">
        <ele>419.6</ele>
        <time>2025-09-06T13:47:09Z</time>
      </trkpt>
      <trkpt lat="46.17319" lon="4.54877">
        <ele>419.6</ele>
        <time>2025-09-06T13:47:10Z</time>
      </trkpt>
      <trkpt lat="46.1732" lon="4.54874">
        <ele>419.6</ele>
        <time>2025-09-06T13:47:11Z</time>
      </trkpt>
      <trkpt lat="46.17321" lon="4.54871">
        <ele>419.6</ele>
        <time>2025-09-06T13:47:12Z</time>
      </trkpt>
      <trkpt lat="46.17323" lon="4.54868">
        <ele>419.8</ele>
        <time>2025-09-06T13:47:13Z</time>
      </trkpt>
      <trkpt lat="46.17324" lon="4.54866">
        <ele>419.8</ele>
        <time>2025-09-06T13:47:14Z</time>
      </trkpt>
      <trkpt lat="46.17325" lon="4.54863">
        <ele>420.2</ele>
        <time>2025-09-06T13:47:15Z</time>
      </trkpt>
      <trkpt lat="46.17327" lon="4.5486">
        <ele>420.2</ele>
        <time>2025-09-06T13:47:16Z</time>
      </trkpt>
      <trkpt lat="46.17328" lon="4.54857">
        <ele>420.6</ele>
        <time>2025-09-06T13:47:17Z</time>
      </trkpt>
      <trkpt lat="46.1733" lon="4.54855">
        <ele>420.6</ele>
        <time>2025-09-06T13:47:18Z</time>
      </trkpt>
      <trkpt lat="46.17331" lon="4.54852">
        <ele>420.6</ele>
        <time>2025-09-06T13:47:19Z</time>
      </trkpt>
      <trkpt lat="46.17333" lon="4.54848">
        <ele>420.8</ele>
        <time>2025-09-06T13:47:20Z</time>
      </trkpt>
      <trkpt lat="46.17334" lon="4.54846">
        <ele>420.8</ele>
        <time>2025-09-06T13:47:21Z</time>
      </trkpt>
      <trkpt lat="46.17336" lon="4.54843">
        <ele>420.8</ele>
        <time>2025-09-06T13:47:22Z</time>
      </trkpt>
      <trkpt lat="46.17337" lon="4.5484">
        <ele>420.8</ele>
        <time>2025-09-06T13:47:23Z</time>
      </trkpt>
      <trkpt lat="46.17339" lon="4.54837">
        <ele>420.8</ele>
        <time>2025-09-06T13:47:24Z</time>
      </trkpt>
      <trkpt lat="46.1734" lon="4.54834">
        <ele>420.8</ele>
        <time>2025-09-06T13:47:25Z</time>
      </trkpt>
      <trkpt lat="46.17342" lon="4.54831">
        <ele>421</ele>
        <time>2025-09-06T13:47:26Z</time>
      </trkpt>
      <trkpt lat="46.17344" lon="4.54828">
        <ele>421</ele>
        <time>2025-09-06T13:47:27Z</time>
      </trkpt>
      <trkpt lat="46.17346" lon="4.54825">
        <ele>421</ele>
        <time>2025-09-06T13:47:28Z</time>
      </trkpt>
      <trkpt lat="46.17348" lon="4.54823">
        <ele>421</ele>
        <time>2025-09-06T13:47:29Z</time>
      </trkpt>
      <trkpt lat="46.17349" lon="4.5482">
        <ele>421</ele>
        <time>2025-09-06T13:47:30Z</time>
      </trkpt>
      <trkpt lat="46.17351" lon="4.54818">
        <ele>421</ele>
        <time>2025-09-06T13:47:31Z</time>
      </trkpt>
      <trkpt lat="46.17352" lon="4.54815">
        <ele>421</ele>
        <time>2025-09-06T13:47:32Z</time>
      </trkpt>
      <trkpt lat="46.17353" lon="4.54812">
        <ele>421</ele>
        <time>2025-09-06T13:47:33Z</time>
      </trkpt>
      <trkpt lat="46.17355" lon="4.5481">
        <ele>421</ele>
        <time>2025-09-06T13:47:34Z</time>
      </trkpt>
      <trkpt lat="46.17356" lon="4.54807">
        <ele>421.2</ele>
        <time>2025-09-06T13:47:35Z</time>
      </trkpt>
      <trkpt lat="46.17358" lon="4.54804">
        <ele>421.2</ele>
        <time>2025-09-06T13:47:36Z</time>
      </trkpt>
      <trkpt lat="46.17359" lon="4.54802">
        <ele>421.6</ele>
        <time>2025-09-06T13:47:37Z</time>
      </trkpt>
      <trkpt lat="46.17361" lon="4.54799">
        <ele>421.8</ele>
        <time>2025-09-06T13:47:38Z</time>
      </trkpt>
      <trkpt lat="46.17362" lon="4.54796">
        <ele>421.8</ele>
        <time>2025-09-06T13:47:39Z</time>
      </trkpt>
      <trkpt lat="46.17364" lon="4.54794">
        <ele>421.8</ele>
        <time>2025-09-06T13:47:40Z</time>
      </trkpt>
      <trkpt lat="46.17366" lon="4.54791">
        <ele>422.4</ele>
        <time>2025-09-06T13:47:41Z</time>
      </trkpt>
      <trkpt lat="46.17367" lon="4.54788">
        <ele>422.6</ele>
        <time>2025-09-06T13:47:42Z</time>
      </trkpt>
      <trkpt lat="46.17368" lon="4.54785">
        <ele>422.6</ele>
        <time>2025-09-06T13:47:43Z</time>
      </trkpt>
      <trkpt lat="46.1737" lon="4.54782">
        <ele>422.6</ele>
        <time>2025-09-06T13:47:44Z</time>
      </trkpt>
      <trkpt lat="46.17372" lon="4.5478">
        <ele>422.6</ele>
        <time>2025-09-06T13:47:45Z</time>
      </trkpt>
      <trkpt lat="46.17373" lon="4.54777">
        <ele>423</ele>
        <time>2025-09-06T13:47:46Z</time>
      </trkpt>
      <trkpt lat="46.17375" lon="4.54774">
        <ele>423</ele>
        <time>2025-09-06T13:47:47Z</time>
      </trkpt>
      <trkpt lat="46.17377" lon="4.54772">
        <ele>423.2</ele>
        <time>2025-09-06T13:47:48Z</time>
      </trkpt>
      <trkpt lat="46.17378" lon="4.54769">
        <ele>423.2</ele>
        <time>2025-09-06T13:47:49Z</time>
      </trkpt>
      <trkpt lat="46.1738" lon="4.54766">
        <ele>423.4</ele>
        <time>2025-09-06T13:47:50Z</time>
      </trkpt>
      <trkpt lat="46.17381" lon="4.54764">
        <ele>423.4</ele>
        <time>2025-09-06T13:47:51Z</time>
      </trkpt>
      <trkpt lat="46.17383" lon="4.54761">
        <ele>423.4</ele>
        <time>2025-09-06T13:47:52Z</time>
      </trkpt>
      <trkpt lat="46.17385" lon="4.54758">
        <ele>423.8</ele>
        <time>2025-09-06T13:47:53Z</time>
      </trkpt>
      <trkpt lat="46.17386" lon="4.54755">
        <ele>423.8</ele>
        <time>2025-09-06T13:47:54Z</time>
      </trkpt>
      <trkpt lat="46.17387" lon="4.54753">
        <ele>423.8</ele>
        <time>2025-09-06T13:47:55Z</time>
      </trkpt>
      <trkpt lat="46.17389" lon="4.5475">
        <ele>423.8</ele>
        <time>2025-09-06T13:47:56Z</time>
      </trkpt>
      <trkpt lat="46.1739" lon="4.54747">
        <ele>423.8</ele>
        <time>2025-09-06T13:47:57Z</time>
      </trkpt>
      <trkpt lat="46.17392" lon="4.54744">
        <ele>423.8</ele>
        <time>2025-09-06T13:47:58Z</time>
      </trkpt>
      <trkpt lat="46.17393" lon="4.54742">
        <ele>423.8</ele>
        <time>2025-09-06T13:47:59Z</time>
      </trkpt>
      <trkpt lat="46.17395" lon="4.54739">
        <ele>423.8</ele>
        <time>2025-09-06T13:48:00Z</time>
      </trkpt>
      <trkpt lat="46.17397" lon="4.54737">
        <ele>423.8</ele>
        <time>2025-09-06T13:48:01Z</time>
      </trkpt>
      <trkpt lat="46.17398" lon="4.54734">
        <ele>424.2</ele>
        <time>2025-09-06T13:48:02Z</time>
      </trkpt>
      <trkpt lat="46.17399" lon="4.54732">
        <ele>424.2</ele>
        <time>2025-09-06T13:48:03Z</time>
      </trkpt>
      <trkpt lat="46.17401" lon="4.54729">
        <ele>424.2</ele>
        <time>2025-09-06T13:48:04Z</time>
      </trkpt>
      <trkpt lat="46.17402" lon="4.54727">
        <ele>424.4</ele>
        <time>2025-09-06T13:48:05Z</time>
      </trkpt>
      <trkpt lat="46.17403" lon="4.54724">
        <ele>424.4</ele>
        <time>2025-09-06T13:48:06Z</time>
      </trkpt>
      <trkpt lat="46.17405" lon="4.54722">
        <ele>424.4</ele>
        <time>2025-09-06T13:48:07Z</time>
      </trkpt>
      <trkpt lat="46.17406" lon="4.54719">
        <ele>424.4</ele>
        <time>2025-09-06T13:48:08Z</time>
      </trkpt>
      <trkpt lat="46.17408" lon="4.54716">
        <ele>424.8</ele>
        <time>2025-09-06T13:48:09Z</time>
      </trkpt>
      <trkpt lat="46.1741" lon="4.54713">
        <ele>424.8</ele>
        <time>2025-09-06T13:48:10Z</time>
      </trkpt>
      <trkpt lat="46.17411" lon="4.54711">
        <ele>424.8</ele>
        <time>2025-09-06T13:48:11Z</time>
      </trkpt>
      <trkpt lat="46.17413" lon="4.54708">
        <ele>425.2</ele>
        <time>2025-09-06T13:48:12Z</time>
      </trkpt>
      <trkpt lat="46.17414" lon="4.54705">
        <ele>425.2</ele>
        <time>2025-09-06T13:48:13Z</time>
      </trkpt>
      <trkpt lat="46.17415" lon="4.54702">
        <ele>425.2</ele>
        <time>2025-09-06T13:48:14Z</time>
      </trkpt>
      <trkpt lat="46.17417" lon="4.547">
        <ele>425.4</ele>
        <time>2025-09-06T13:48:15Z</time>
      </trkpt>
      <trkpt lat="46.17418" lon="4.54698">
        <ele>425.4</ele>
        <time>2025-09-06T13:48:16Z</time>
      </trkpt>
      <trkpt lat="46.1742" lon="4.54695">
        <ele>425.2</ele>
        <time>2025-09-06T13:48:17Z</time>
      </trkpt>
      <trkpt lat="46.17422" lon="4.54693">
        <ele>425.2</ele>
        <time>2025-09-06T13:48:18Z</time>
      </trkpt>
      <trkpt lat="46.17423" lon="4.54691">
        <ele>425.2</ele>
        <time>2025-09-06T13:48:19Z</time>
      </trkpt>
      <trkpt lat="46.17424" lon="4.54688">
        <ele>425.6</ele>
        <time>2025-09-06T13:48:20Z</time>
      </trkpt>
      <trkpt lat="46.17426" lon="4.54686">
        <ele>425.6</ele>
        <time>2025-09-06T13:48:21Z</time>
      </trkpt>
      <trkpt lat="46.17428" lon="4.54684">
        <ele>425.8</ele>
        <time>2025-09-06T13:48:22Z</time>
      </trkpt>
      <trkpt lat="46.17429" lon="4.54681">
        <ele>425.8</ele>
        <time>2025-09-06T13:48:23Z</time>
      </trkpt>
      <trkpt lat="46.17431" lon="4.54678">
        <ele>425.8</ele>
        <time>2025-09-06T13:48:24Z</time>
      </trkpt>
      <trkpt lat="46.17432" lon="4.54675">
        <ele>426.4</ele>
        <time>2025-09-06T13:48:25Z</time>
      </trkpt>
      <trkpt lat="46.17434" lon="4.54673">
        <ele>426.4</ele>
        <time>2025-09-06T13:48:26Z</time>
      </trkpt>
      <trkpt lat="46.17435" lon="4.54671">
        <ele>426.6</ele>
        <time>2025-09-06T13:48:27Z</time>
      </trkpt>
      <trkpt lat="46.17437" lon="4.54669">
        <ele>426.6</ele>
        <time>2025-09-06T13:48:28Z</time>
      </trkpt>
      <trkpt lat="46.17438" lon="4.54667">
        <ele>426.6</ele>
        <time>2025-09-06T13:48:29Z</time>
      </trkpt>
      <trkpt lat="46.17439" lon="4.54664">
        <ele>426.8</ele>
        <time>2025-09-06T13:48:30Z</time>
      </trkpt>
      <trkpt lat="46.17441" lon="4.54662">
        <ele>426.8</ele>
        <time>2025-09-06T13:48:31Z</time>
      </trkpt>
      <trkpt lat="46.17442" lon="4.54659">
        <ele>426.8</ele>
        <time>2025-09-06T13:48:32Z</time>
      </trkpt>
      <trkpt lat="46.17443" lon="4.54657">
        <ele>426.8</ele>
        <time>2025-09-06T13:48:33Z</time>
      </trkpt>
      <trkpt lat="46.17445" lon="4.54654">
        <ele>426.8</ele>
        <time>2025-09-06T13:48:34Z</time>
      </trkpt>
      <trkpt lat="46.17446" lon="4.54652">
        <ele>426.8</ele>
        <time>2025-09-06T13:48:35Z</time>
      </trkpt>
      <trkpt lat="46.17448" lon="4.5465">
        <ele>427.2</ele>
        <time>2025-09-06T13:48:36Z</time>
      </trkpt>
      <trkpt lat="46.1745" lon="4.54648">
        <ele>427.2</ele>
        <time>2025-09-06T13:48:37Z</time>
      </trkpt>
      <trkpt lat="46.17452" lon="4.54645">
        <ele>427.2</ele>
        <time>2025-09-06T13:48:38Z</time>
      </trkpt>
      <trkpt lat="46.17453" lon="4.54642">
        <ele>427.2</ele>
        <time>2025-09-06T13:48:39Z</time>
      </trkpt>
      <trkpt lat="46.17455" lon="4.5464">
        <ele>427.4</ele>
        <time>2025-09-06T13:48:40Z</time>
      </trkpt>
      <trkpt lat="46.17457" lon="4.54637">
        <ele>427.4</ele>
        <time>2025-09-06T13:48:41Z</time>
      </trkpt>
      <trkpt lat="46.17458" lon="4.54634">
        <ele>427.8</ele>
        <time>2025-09-06T13:48:42Z</time>
      </trkpt>
      <trkpt lat="46.17459" lon="4.54632">
        <ele>427.8</ele>
        <time>2025-09-06T13:48:43Z</time>
      </trkpt>
      <trkpt lat="46.17461" lon="4.5463">
        <ele>427.6</ele>
        <time>2025-09-06T13:48:44Z</time>
      </trkpt>
      <trkpt lat="46.17462" lon="4.54628">
        <ele>428</ele>
        <time>2025-09-06T13:48:45Z</time>
      </trkpt>
      <trkpt lat="46.17464" lon="4.54626">
        <ele>428</ele>
        <time>2025-09-06T13:48:46Z</time>
      </trkpt>
      <trkpt lat="46.17465" lon="4.54624">
        <ele>428</ele>
        <time>2025-09-06T13:48:47Z</time>
      </trkpt>
      <trkpt lat="46.17467" lon="4.54622">
        <ele>428</ele>
        <time>2025-09-06T13:48:48Z</time>
      </trkpt>
      <trkpt lat="46.17468" lon="4.5462">
        <ele>428.4</ele>
        <time>2025-09-06T13:48:49Z</time>
      </trkpt>
      <trkpt lat="46.1747" lon="4.54618">
        <ele>428.4</ele>
        <time>2025-09-06T13:48:50Z</time>
      </trkpt>
      <trkpt lat="46.17472" lon="4.54616">
        <ele>428.8</ele>
        <time>2025-09-06T13:48:51Z</time>
      </trkpt>
      <trkpt lat="46.17473" lon="4.54614">
        <ele>428.8</ele>
        <time>2025-09-06T13:48:52Z</time>
      </trkpt>
      <trkpt lat="46.17475" lon="4.54612">
        <ele>428.8</ele>
        <time>2025-09-06T13:48:53Z</time>
      </trkpt>
      <trkpt lat="46.17477" lon="4.5461">
        <ele>428.8</ele>
        <time>2025-09-06T13:48:54Z</time>
      </trkpt>
      <trkpt lat="46.17479" lon="4.54607">
        <ele>428.8</ele>
        <time>2025-09-06T13:48:55Z</time>
      </trkpt>
      <trkpt lat="46.17481" lon="4.54605">
        <ele>428.8</ele>
        <time>2025-09-06T13:48:56Z</time>
      </trkpt>
      <trkpt lat="46.17484" lon="4.54603">
        <ele>429</ele>
        <time>2025-09-06T13:48:57Z</time>
      </trkpt>
      <trkpt lat="46.17486" lon="4.54602">
        <ele>429.2</ele>
        <time>2025-09-06T13:48:58Z</time>
      </trkpt>
      <trkpt lat="46.17488" lon="4.546">
        <ele>429.2</ele>
        <time>2025-09-06T13:48:59Z</time>
      </trkpt>
      <trkpt lat="46.17491" lon="4.54598">
        <ele>429.2</ele>
        <time>2025-09-06T13:49:00Z</time>
      </trkpt>
      <trkpt lat="46.17493" lon="4.54597">
        <ele>429.2</ele>
        <time>2025-09-06T13:49:01Z</time>
      </trkpt>
      <trkpt lat="46.17495" lon="4.54596">
        <ele>429.6</ele>
        <time>2025-09-06T13:49:02Z</time>
      </trkpt>
      <trkpt lat="46.17498" lon="4.54595">
        <ele>429.6</ele>
        <time>2025-09-06T13:49:03Z</time>
      </trkpt>
      <trkpt lat="46.175" lon="4.54594">
        <ele>429.4</ele>
        <time>2025-09-06T13:49:04Z</time>
      </trkpt>
      <trkpt lat="46.17503" lon="4.54592">
        <ele>429.6</ele>
        <time>2025-09-06T13:49:05Z</time>
      </trkpt>
      <trkpt lat="46.17505" lon="4.54591">
        <ele>429.6</ele>
        <time>2025-09-06T13:49:06Z</time>
      </trkpt>
      <trkpt lat="46.17508" lon="4.54591">
        <ele>430</ele>
        <time>2025-09-06T13:49:07Z</time>
      </trkpt>
      <trkpt lat="46.1751" lon="4.5459">
        <ele>430</ele>
        <time>2025-09-06T13:49:08Z</time>
      </trkpt>
      <trkpt lat="46.17513" lon="4.5459">
        <ele>430</ele>
        <time>2025-09-06T13:49:09Z</time>
      </trkpt>
      <trkpt lat="46.17515" lon="4.5459">
        <ele>430</ele>
        <time>2025-09-06T13:49:10Z</time>
      </trkpt>
      <trkpt lat="46.17518" lon="4.5459">
        <ele>430</ele>
        <time>2025-09-06T13:49:11Z</time>
      </trkpt>
      <trkpt lat="46.17521" lon="4.5459">
        <ele>430.2</ele>
        <time>2025-09-06T13:49:12Z</time>
      </trkpt>
      <trkpt lat="46.17523" lon="4.5459">
        <ele>430.2</ele>
        <time>2025-09-06T13:49:13Z</time>
      </trkpt>
      <trkpt lat="46.17525" lon="4.54591">
        <ele>430.2</ele>
        <time>2025-09-06T13:49:14Z</time>
      </trkpt>
      <trkpt lat="46.17528" lon="4.54591">
        <ele>430.2</ele>
        <time>2025-09-06T13:49:15Z</time>
      </trkpt>
      <trkpt lat="46.1753" lon="4.54592">
        <ele>430.6</ele>
        <time>2025-09-06T13:49:16Z</time>
      </trkpt>
      <trkpt lat="46.17533" lon="4.54593">
        <ele>430.6</ele>
        <time>2025-09-06T13:49:17Z</time>
      </trkpt>
      <trkpt lat="46.17535" lon="4.54594">
        <ele>430.6</ele>
        <time>2025-09-06T13:49:18Z</time>
      </trkpt>
      <trkpt lat="46.17538" lon="4.54595">
        <ele>430.6</ele>
        <time>2025-09-06T13:49:19Z</time>
      </trkpt>
      <trkpt lat="46.1754" lon="4.54596">
        <ele>430.6</ele>
        <time>2025-09-06T13:49:20Z</time>
      </trkpt>
      <trkpt lat="46.17542" lon="4.54597">
        <ele>430.4</ele>
        <time>2025-09-06T13:49:21Z</time>
      </trkpt>
      <trkpt lat="46.17544" lon="4.54598">
        <ele>430.4</ele>
        <time>2025-09-06T13:49:22Z</time>
      </trkpt>
      <trkpt lat="46.17547" lon="4.54599">
        <ele>430.4</ele>
        <time>2025-09-06T13:49:23Z</time>
      </trkpt>
      <trkpt lat="46.17549" lon="4.54601">
        <ele>430.6</ele>
        <time>2025-09-06T13:49:24Z</time>
      </trkpt>
      <trkpt lat="46.17551" lon="4.54602">
        <ele>430.6</ele>
        <time>2025-09-06T13:49:25Z</time>
      </trkpt>
      <trkpt lat="46.17553" lon="4.54604">
        <ele>430.8</ele>
        <time>2025-09-06T13:49:26Z</time>
      </trkpt>
      <trkpt lat="46.17555" lon="4.54606">
        <ele>431.2</ele>
        <time>2025-09-06T13:49:27Z</time>
      </trkpt>
      <trkpt lat="46.17557" lon="4.54607">
        <ele>431.2</ele>
        <time>2025-09-06T13:49:28Z</time>
      </trkpt>
      <trkpt lat="46.17559" lon="4.54609">
        <ele>431.6</ele>
        <time>2025-09-06T13:49:29Z</time>
      </trkpt>
      <trkpt lat="46.17561" lon="4.54611">
        <ele>432</ele>
        <time>2025-09-06T13:49:30Z</time>
      </trkpt>
      <trkpt lat="46.17562" lon="4.54613">
        <ele>432</ele>
        <time>2025-09-06T13:49:31Z</time>
      </trkpt>
      <trkpt lat="46.17564" lon="4.54615">
        <ele>432</ele>
        <time>2025-09-06T13:49:32Z</time>
      </trkpt>
      <trkpt lat="46.17565" lon="4.54617">
        <ele>432</ele>
        <time>2025-09-06T13:49:33Z</time>
      </trkpt>
      <trkpt lat="46.17567" lon="4.54619">
        <ele>432.2</ele>
        <time>2025-09-06T13:49:34Z</time>
      </trkpt>
      <trkpt lat="46.17569" lon="4.54622">
        <ele>432.6</ele>
        <time>2025-09-06T13:49:35Z</time>
      </trkpt>
      <trkpt lat="46.17571" lon="4.54624">
        <ele>432.6</ele>
        <time>2025-09-06T13:49:36Z</time>
      </trkpt>
      <trkpt lat="46.17572" lon="4.54626">
        <ele>432.6</ele>
        <time>2025-09-06T13:49:37Z</time>
      </trkpt>
      <trkpt lat="46.17573" lon="4.54629">
        <ele>432.6</ele>
        <time>2025-09-06T13:49:38Z</time>
      </trkpt>
      <trkpt lat="46.17575" lon="4.54631">
        <ele>432.6</ele>
        <time>2025-09-06T13:49:39Z</time>
      </trkpt>
      <trkpt lat="46.17577" lon="4.54634">
        <ele>432.8</ele>
        <time>2025-09-06T13:49:40Z</time>
      </trkpt>
      <trkpt lat="46.17578" lon="4.54636">
        <ele>432.8</ele>
        <time>2025-09-06T13:49:41Z</time>
      </trkpt>
      <trkpt lat="46.17579" lon="4.54639">
        <ele>433</ele>
        <time>2025-09-06T13:49:42Z</time>
      </trkpt>
      <trkpt lat="46.17581" lon="4.54641">
        <ele>433.4</ele>
        <time>2025-09-06T13:49:43Z</time>
      </trkpt>
      <trkpt lat="46.17582" lon="4.54643">
        <ele>433.6</ele>
        <time>2025-09-06T13:49:44Z</time>
      </trkpt>
      <trkpt lat="46.17584" lon="4.54645">
        <ele>433.6</ele>
        <time>2025-09-06T13:49:45Z</time>
      </trkpt>
      <trkpt lat="46.17586" lon="4.54647">
        <ele>433.6</ele>
        <time>2025-09-06T13:49:46Z</time>
      </trkpt>
      <trkpt lat="46.17588" lon="4.5465">
        <ele>433.6</ele>
        <time>2025-09-06T13:49:47Z</time>
      </trkpt>
      <trkpt lat="46.1759" lon="4.54652">
        <ele>433.8</ele>
        <time>2025-09-06T13:49:48Z</time>
      </trkpt>
      <trkpt lat="46.17592" lon="4.54654">
        <ele>433.8</ele>
        <time>2025-09-06T13:49:49Z</time>
      </trkpt>
      <trkpt lat="46.17594" lon="4.54656">
        <ele>433.8</ele>
        <time>2025-09-06T13:49:50Z</time>
      </trkpt>
      <trkpt lat="46.17596" lon="4.54658">
        <ele>433.8</ele>
        <time>2025-09-06T13:49:51Z</time>
      </trkpt>
      <trkpt lat="46.17598" lon="4.54661">
        <ele>433.8</ele>
        <time>2025-09-06T13:49:52Z</time>
      </trkpt>
      <trkpt lat="46.176" lon="4.54663">
        <ele>433.8</ele>
        <time>2025-09-06T13:49:53Z</time>
      </trkpt>
      <trkpt lat="46.17602" lon="4.54665">
        <ele>433.8</ele>
        <time>2025-09-06T13:49:54Z</time>
      </trkpt>
      <trkpt lat="46.17604" lon="4.54667">
        <ele>433.8</ele>
        <time>2025-09-06T13:49:55Z</time>
      </trkpt>
      <trkpt lat="46.17607" lon="4.54669">
        <ele>434</ele>
        <time>2025-09-06T13:49:56Z</time>
      </trkpt>
      <trkpt lat="46.17609" lon="4.54671">
        <ele>434</ele>
        <time>2025-09-06T13:49:57Z</time>
      </trkpt>
      <trkpt lat="46.17611" lon="4.54672">
        <ele>434</ele>
        <time>2025-09-06T13:49:58Z</time>
      </trkpt>
      <trkpt lat="46.17613" lon="4.54673">
        <ele>434.4</ele>
        <time>2025-09-06T13:49:59Z</time>
      </trkpt>
      <trkpt lat="46.17615" lon="4.54674">
        <ele>434.4</ele>
        <time>2025-09-06T13:50:00Z</time>
      </trkpt>
      <trkpt lat="46.17617" lon="4.54675">
        <ele>434.4</ele>
        <time>2025-09-06T13:50:01Z</time>
      </trkpt>
      <trkpt lat="46.1762" lon="4.54676">
        <ele>434.4</ele>
        <time>2025-09-06T13:50:02Z</time>
      </trkpt>
      <trkpt lat="46.17622" lon="4.54677">
        <ele>434.6</ele>
        <time>2025-09-06T13:50:03Z</time>
      </trkpt>
      <trkpt lat="46.17624" lon="4.54677">
        <ele>434.6</ele>
        <time>2025-09-06T13:50:04Z</time>
      </trkpt>
      <trkpt lat="46.17626" lon="4.54678">
        <ele>434.8</ele>
        <time>2025-09-06T13:50:05Z</time>
      </trkpt>
      <trkpt lat="46.17629" lon="4.54679">
        <ele>434.8</ele>
        <time>2025-09-06T13:50:06Z</time>
      </trkpt>
      <trkpt lat="46.17631" lon="4.54679">
        <ele>434.8</ele>
        <time>2025-09-06T13:50:07Z</time>
      </trkpt>
      <trkpt lat="46.17633" lon="4.5468">
        <ele>435</ele>
        <time>2025-09-06T13:50:08Z</time>
      </trkpt>
      <trkpt lat="46.17635" lon="4.5468">
        <ele>435</ele>
        <time>2025-09-06T13:50:09Z</time>
      </trkpt>
      <trkpt lat="46.17638" lon="4.54681">
        <ele>435.2</ele>
        <time>2025-09-06T13:50:10Z</time>
      </trkpt>
      <trkpt lat="46.17641" lon="4.54681">
        <ele>435.2</ele>
        <time>2025-09-06T13:50:11Z</time>
      </trkpt>
      <trkpt lat="46.17643" lon="4.54681">
        <ele>435.2</ele>
        <time>2025-09-06T13:50:12Z</time>
      </trkpt>
      <trkpt lat="46.17646" lon="4.54681">
        <ele>435.2</ele>
        <time>2025-09-06T13:50:13Z</time>
      </trkpt>
      <trkpt lat="46.17646" lon="4.54681">
        <ele>435.2</ele>
        <time>2025-09-06T13:50:14Z</time>
      </trkpt>
      <trkpt lat="46.17648" lon="4.54681">
        <ele>435.6</ele>
        <time>2025-09-06T13:50:15Z</time>
      </trkpt>
      <trkpt lat="46.1765" lon="4.54681">
        <ele>435.6</ele>
        <time>2025-09-06T13:50:16Z</time>
      </trkpt>
      <trkpt lat="46.17653" lon="4.54681">
        <ele>435.8</ele>
        <time>2025-09-06T13:50:17Z</time>
      </trkpt>
      <trkpt lat="46.17655" lon="4.54681">
        <ele>435.8</ele>
        <time>2025-09-06T13:50:18Z</time>
      </trkpt>
      <trkpt lat="46.17657" lon="4.54681">
        <ele>435.8</ele>
        <time>2025-09-06T13:50:19Z</time>
      </trkpt>
      <trkpt lat="46.1766" lon="4.54682">
        <ele>436.2</ele>
        <time>2025-09-06T13:50:20Z</time>
      </trkpt>
      <trkpt lat="46.17662" lon="4.54682">
        <ele>436.2</ele>
        <time>2025-09-06T13:50:21Z</time>
      </trkpt>
      <trkpt lat="46.17664" lon="4.54682">
        <ele>436.2</ele>
        <time>2025-09-06T13:50:22Z</time>
      </trkpt>
      <trkpt lat="46.17667" lon="4.54682">
        <ele>436.2</ele>
        <time>2025-09-06T13:50:23Z</time>
      </trkpt>
      <trkpt lat="46.17669" lon="4.54682">
        <ele>436.4</ele>
        <time>2025-09-06T13:50:24Z</time>
      </trkpt>
      <trkpt lat="46.17672" lon="4.54682">
        <ele>436.4</ele>
        <time>2025-09-06T13:50:25Z</time>
      </trkpt>
      <trkpt lat="46.17674" lon="4.54683">
        <ele>436.4</ele>
        <time>2025-09-06T13:50:26Z</time>
      </trkpt>
      <trkpt lat="46.17676" lon="4.54683">
        <ele>436.4</ele>
        <time>2025-09-06T13:50:27Z</time>
      </trkpt>
      <trkpt lat="46.17679" lon="4.54682">
        <ele>436.4</ele>
        <time>2025-09-06T13:50:28Z</time>
      </trkpt>
      <trkpt lat="46.17681" lon="4.54682">
        <ele>436.4</ele>
        <time>2025-09-06T13:50:29Z</time>
      </trkpt>
      <trkpt lat="46.17684" lon="4.54682">
        <ele>436.6</ele>
        <time>2025-09-06T13:50:30Z</time>
      </trkpt>
      <trkpt lat="46.17686" lon="4.54681">
        <ele>436.6</ele>
        <time>2025-09-06T13:50:31Z</time>
      </trkpt>
      <trkpt lat="46.17688" lon="4.54681">
        <ele>436.6</ele>
        <time>2025-09-06T13:50:32Z</time>
      </trkpt>
      <trkpt lat="46.17691" lon="4.54681">
        <ele>436.6</ele>
        <time>2025-09-06T13:50:33Z</time>
      </trkpt>
      <trkpt lat="46.17693" lon="4.5468">
        <ele>436.6</ele>
        <time>2025-09-06T13:50:34Z</time>
      </trkpt>
      <trkpt lat="46.17696" lon="4.5468">
        <ele>436.6</ele>
        <time>2025-09-06T13:50:35Z</time>
      </trkpt>
      <trkpt lat="46.17698" lon="4.54679">
        <ele>437</ele>
        <time>2025-09-06T13:50:36Z</time>
      </trkpt>
      <trkpt lat="46.17701" lon="4.54678">
        <ele>437</ele>
        <time>2025-09-06T13:50:37Z</time>
      </trkpt>
      <trkpt lat="46.17703" lon="4.54677">
        <ele>437</ele>
        <time>2025-09-06T13:50:38Z</time>
      </trkpt>
      <trkpt lat="46.17705" lon="4.54676">
        <ele>437.2</ele>
        <time>2025-09-06T13:50:39Z</time>
      </trkpt>
      <trkpt lat="46.17708" lon="4.54675">
        <ele>437.2</ele>
        <time>2025-09-06T13:50:40Z</time>
      </trkpt>
      <trkpt lat="46.1771" lon="4.54674">
        <ele>437.4</ele>
        <time>2025-09-06T13:50:41Z</time>
      </trkpt>
      <trkpt lat="46.17712" lon="4.54673">
        <ele>437.4</ele>
        <time>2025-09-06T13:50:42Z</time>
      </trkpt>
      <trkpt lat="46.17715" lon="4.54672">
        <ele>437.4</ele>
        <time>2025-09-06T13:50:43Z</time>
      </trkpt>
      <trkpt lat="46.17717" lon="4.5467">
        <ele>437.6</ele>
        <time>2025-09-06T13:50:44Z</time>
      </trkpt>
      <trkpt lat="46.17719" lon="4.54668">
        <ele>437.6</ele>
        <time>2025-09-06T13:50:45Z</time>
      </trkpt>
      <trkpt lat="46.17723" lon="4.54664">
        <ele>437.6</ele>
        <time>2025-09-06T13:50:46Z</time>
      </trkpt>
      <trkpt lat="46.17726" lon="4.54663">
        <ele>437.6</ele>
        <time>2025-09-06T13:50:47Z</time>
      </trkpt>
      <trkpt lat="46.17728" lon="4.54661">
        <ele>438</ele>
        <time>2025-09-06T13:50:48Z</time>
      </trkpt>
      <trkpt lat="46.1773" lon="4.54659">
        <ele>438</ele>
        <time>2025-09-06T13:50:49Z</time>
      </trkpt>
      <trkpt lat="46.17732" lon="4.54658">
        <ele>438.2</ele>
        <time>2025-09-06T13:50:50Z</time>
      </trkpt>
      <trkpt lat="46.17734" lon="4.54656">
        <ele>438.4</ele>
        <time>2025-09-06T13:50:51Z</time>
      </trkpt>
      <trkpt lat="46.17736" lon="4.54654">
        <ele>438.4</ele>
        <time>2025-09-06T13:50:52Z</time>
      </trkpt>
      <trkpt lat="46.17738" lon="4.54652">
        <ele>438.4</ele>
        <time>2025-09-06T13:50:53Z</time>
      </trkpt>
      <trkpt lat="46.1774" lon="4.54651">
        <ele>438.8</ele>
        <time>2025-09-06T13:50:54Z</time>
      </trkpt>
      <trkpt lat="46.17742" lon="4.54649">
        <ele>438.8</ele>
        <time>2025-09-06T13:50:55Z</time>
      </trkpt>
      <trkpt lat="46.17744" lon="4.54647">
        <ele>438.8</ele>
        <time>2025-09-06T13:50:56Z</time>
      </trkpt>
      <trkpt lat="46.17746" lon="4.54645">
        <ele>439</ele>
        <time>2025-09-06T13:50:57Z</time>
      </trkpt>
      <trkpt lat="46.17748" lon="4.54644">
        <ele>439</ele>
        <time>2025-09-06T13:50:58Z</time>
      </trkpt>
      <trkpt lat="46.17749" lon="4.54642">
        <ele>439.2</ele>
        <time>2025-09-06T13:50:59Z</time>
      </trkpt>
      <trkpt lat="46.17751" lon="4.54641">
        <ele>439.2</ele>
        <time>2025-09-06T13:51:00Z</time>
      </trkpt>
      <trkpt lat="46.17753" lon="4.54639">
        <ele>439.2</ele>
        <time>2025-09-06T13:51:01Z</time>
      </trkpt>
      <trkpt lat="46.17755" lon="4.54638">
        <ele>439.4</ele>
        <time>2025-09-06T13:51:02Z</time>
      </trkpt>
      <trkpt lat="46.17756" lon="4.54636">
        <ele>439.6</ele>
        <time>2025-09-06T13:51:03Z</time>
      </trkpt>
      <trkpt lat="46.17758" lon="4.54635">
        <ele>439.6</ele>
        <time>2025-09-06T13:51:04Z</time>
      </trkpt>
      <trkpt lat="46.17759" lon="4.54633">
        <ele>439.6</ele>
        <time>2025-09-06T13:51:05Z</time>
      </trkpt>
      <trkpt lat="46.17761" lon="4.54631">
        <ele>439.6</ele>
        <time>2025-09-06T13:51:06Z</time>
      </trkpt>
      <trkpt lat="46.17762" lon="4.54629">
        <ele>439.6</ele>
        <time>2025-09-06T13:51:07Z</time>
      </trkpt>
      <trkpt lat="46.17764" lon="4.54627">
        <ele>439.6</ele>
        <time>2025-09-06T13:51:08Z</time>
      </trkpt>
      <trkpt lat="46.17766" lon="4.54625">
        <ele>440</ele>
        <time>2025-09-06T13:51:09Z</time>
      </trkpt>
      <trkpt lat="46.17768" lon="4.54623">
        <ele>440</ele>
        <time>2025-09-06T13:51:10Z</time>
      </trkpt>
      <trkpt lat="46.1777" lon="4.54621">
        <ele>440</ele>
        <time>2025-09-06T13:51:11Z</time>
      </trkpt>
      <trkpt lat="46.17772" lon="4.54618">
        <ele>440.2</ele>
        <time>2025-09-06T13:51:12Z</time>
      </trkpt>
      <trkpt lat="46.17773" lon="4.54616">
        <ele>440.4</ele>
        <time>2025-09-06T13:51:13Z</time>
      </trkpt>
      <trkpt lat="46.17775" lon="4.54613">
        <ele>440.4</ele>
        <time>2025-09-06T13:51:14Z</time>
      </trkpt>
      <trkpt lat="46.17776" lon="4.5461">
        <ele>440.4</ele>
        <time>2025-09-06T13:51:15Z</time>
      </trkpt>
      <trkpt lat="46.17777" lon="4.54608">
        <ele>440.4</ele>
        <time>2025-09-06T13:51:16Z</time>
      </trkpt>
      <trkpt lat="46.17779" lon="4.54605">
        <ele>440.4</ele>
        <time>2025-09-06T13:51:17Z</time>
      </trkpt>
      <trkpt lat="46.1778" lon="4.54602">
        <ele>440.4</ele>
        <time>2025-09-06T13:51:18Z</time>
      </trkpt>
      <trkpt lat="46.17782" lon="4.54599">
        <ele>440.4</ele>
        <time>2025-09-06T13:51:19Z</time>
      </trkpt>
      <trkpt lat="46.17783" lon="4.54597">
        <ele>440.8</ele>
        <time>2025-09-06T13:51:20Z</time>
      </trkpt>
      <trkpt lat="46.17784" lon="4.54594">
        <ele>440.8</ele>
        <time>2025-09-06T13:51:21Z</time>
      </trkpt>
      <trkpt lat="46.17785" lon="4.54591">
        <ele>441</ele>
        <time>2025-09-06T13:51:22Z</time>
      </trkpt>
      <trkpt lat="46.17787" lon="4.54588">
        <ele>441</ele>
        <time>2025-09-06T13:51:23Z</time>
      </trkpt>
      <trkpt lat="46.17788" lon="4.54585">
        <ele>441</ele>
        <time>2025-09-06T13:51:24Z</time>
      </trkpt>
      <trkpt lat="46.1779" lon="4.54582">
        <ele>441</ele>
        <time>2025-09-06T13:51:25Z</time>
      </trkpt>
      <trkpt lat="46.17791" lon="4.54579">
        <ele>441</ele>
        <time>2025-09-06T13:51:26Z</time>
      </trkpt>
      <trkpt lat="46.17791" lon="4.54575">
        <ele>441.2</ele>
        <time>2025-09-06T13:51:27Z</time>
      </trkpt>
      <trkpt lat="46.17792" lon="4.54572">
        <ele>441.2</ele>
        <time>2025-09-06T13:51:28Z</time>
      </trkpt>
      <trkpt lat="46.17793" lon="4.54569">
        <ele>441.2</ele>
        <time>2025-09-06T13:51:29Z</time>
      </trkpt>
      <trkpt lat="46.17794" lon="4.54566">
        <ele>441.2</ele>
        <time>2025-09-06T13:51:30Z</time>
      </trkpt>
      <trkpt lat="46.17795" lon="4.54563">
        <ele>441.2</ele>
        <time>2025-09-06T13:51:31Z</time>
      </trkpt>
      <trkpt lat="46.17795" lon="4.5456">
        <ele>441.2</ele>
        <time>2025-09-06T13:51:32Z</time>
      </trkpt>
      <trkpt lat="46.17796" lon="4.54557">
        <ele>441.2</ele>
        <time>2025-09-06T13:51:33Z</time>
      </trkpt>
      <trkpt lat="46.17797" lon="4.54554">
        <ele>441.2</ele>
        <time>2025-09-06T13:51:34Z</time>
      </trkpt>
      <trkpt lat="46.17797" lon="4.54551">
        <ele>441.2</ele>
        <time>2025-09-06T13:51:35Z</time>
      </trkpt>
      <trkpt lat="46.17798" lon="4.54548">
        <ele>441.2</ele>
        <time>2025-09-06T13:51:36Z</time>
      </trkpt>
      <trkpt lat="46.17798" lon="4.54544">
        <ele>441.2</ele>
        <time>2025-09-06T13:51:37Z</time>
      </trkpt>
      <trkpt lat="46.17799" lon="4.54541">
        <ele>441.2</ele>
        <time>2025-09-06T13:51:38Z</time>
      </trkpt>
      <trkpt lat="46.178" lon="4.54539">
        <ele>441.6</ele>
        <time>2025-09-06T13:51:39Z</time>
      </trkpt>
      <trkpt lat="46.178" lon="4.54536">
        <ele>441.6</ele>
        <time>2025-09-06T13:51:40Z</time>
      </trkpt>
      <trkpt lat="46.17801" lon="4.54532">
        <ele>442</ele>
        <time>2025-09-06T13:51:41Z</time>
      </trkpt>
      <trkpt lat="46.17801" lon="4.54529">
        <ele>442</ele>
        <time>2025-09-06T13:51:42Z</time>
      </trkpt>
      <trkpt lat="46.17801" lon="4.54526">
        <ele>442.2</ele>
        <time>2025-09-06T13:51:43Z</time>
      </trkpt>
      <trkpt lat="46.17802" lon="4.54523">
        <ele>442.2</ele>
        <time>2025-09-06T13:51:44Z</time>
      </trkpt>
      <trkpt lat="46.17802" lon="4.54519">
        <ele>442.6</ele>
        <time>2025-09-06T13:51:45Z</time>
      </trkpt>
      <trkpt lat="46.17803" lon="4.54516">
        <ele>442.6</ele>
        <time>2025-09-06T13:51:46Z</time>
      </trkpt>
      <trkpt lat="46.17803" lon="4.54513">
        <ele>442.6</ele>
        <time>2025-09-06T13:51:47Z</time>
      </trkpt>
      <trkpt lat="46.17804" lon="4.5451">
        <ele>442.8</ele>
        <time>2025-09-06T13:51:48Z</time>
      </trkpt>
      <trkpt lat="46.17805" lon="4.54507">
        <ele>442.8</ele>
        <time>2025-09-06T13:51:49Z</time>
      </trkpt>
      <trkpt lat="46.17805" lon="4.54504">
        <ele>442.8</ele>
        <time>2025-09-06T13:51:50Z</time>
      </trkpt>
      <trkpt lat="46.17806" lon="4.545">
        <ele>442.8</ele>
        <time>2025-09-06T13:51:51Z</time>
      </trkpt>
      <trkpt lat="46.17807" lon="4.54497">
        <ele>442.8</ele>
        <time>2025-09-06T13:51:52Z</time>
      </trkpt>
      <trkpt lat="46.17807" lon="4.54494">
        <ele>443</ele>
        <time>2025-09-06T13:51:53Z</time>
      </trkpt>
      <trkpt lat="46.17808" lon="4.5449">
        <ele>443.4</ele>
        <time>2025-09-06T13:51:54Z</time>
      </trkpt>
      <trkpt lat="46.17808" lon="4.54487">
        <ele>443.4</ele>
        <time>2025-09-06T13:51:55Z</time>
      </trkpt>
      <trkpt lat="46.17809" lon="4.54484">
        <ele>443.4</ele>
        <time>2025-09-06T13:51:56Z</time>
      </trkpt>
      <trkpt lat="46.17809" lon="4.54481">
        <ele>443.4</ele>
        <time>2025-09-06T13:51:57Z</time>
      </trkpt>
      <trkpt lat="46.1781" lon="4.54478">
        <ele>443.4</ele>
        <time>2025-09-06T13:51:58Z</time>
      </trkpt>
      <trkpt lat="46.1781" lon="4.54475">
        <ele>443.4</ele>
        <time>2025-09-06T13:51:59Z</time>
      </trkpt>
      <trkpt lat="46.17811" lon="4.54472">
        <ele>443.4</ele>
        <time>2025-09-06T13:52:00Z</time>
      </trkpt>
      <trkpt lat="46.17811" lon="4.54469">
        <ele>443.8</ele>
        <time>2025-09-06T13:52:01Z</time>
      </trkpt>
      <trkpt lat="46.17811" lon="4.54466">
        <ele>443.8</ele>
        <time>2025-09-06T13:52:02Z</time>
      </trkpt>
      <trkpt lat="46.17812" lon="4.54462">
        <ele>443.8</ele>
        <time>2025-09-06T13:52:03Z</time>
      </trkpt>
      <trkpt lat="46.17813" lon="4.54459">
        <ele>444</ele>
        <time>2025-09-06T13:52:04Z</time>
      </trkpt>
      <trkpt lat="46.17813" lon="4.54456">
        <ele>444</ele>
        <time>2025-09-06T13:52:05Z</time>
      </trkpt>
      <trkpt lat="46.17814" lon="4.54452">
        <ele>444</ele>
        <time>2025-09-06T13:52:06Z</time>
      </trkpt>
      <trkpt lat="46.17815" lon="4.54449">
        <ele>444</ele>
        <time>2025-09-06T13:52:07Z</time>
      </trkpt>
      <trkpt lat="46.17816" lon="4.54446">
        <ele>444.4</ele>
        <time>2025-09-06T13:52:08Z</time>
      </trkpt>
      <trkpt lat="46.17817" lon="4.54443">
        <ele>444.6</ele>
        <time>2025-09-06T13:52:09Z</time>
      </trkpt>
      <trkpt lat="46.17817" lon="4.54439">
        <ele>444.6</ele>
        <time>2025-09-06T13:52:10Z</time>
      </trkpt>
      <trkpt lat="46.17818" lon="4.54436">
        <ele>444.6</ele>
        <time>2025-09-06T13:52:11Z</time>
      </trkpt>
      <trkpt lat="46.17818" lon="4.54433">
        <ele>444.8</ele>
        <time>2025-09-06T13:52:12Z</time>
      </trkpt>
      <trkpt lat="46.17819" lon="4.5443">
        <ele>445</ele>
        <time>2025-09-06T13:52:13Z</time>
      </trkpt>
      <trkpt lat="46.17819" lon="4.54427">
        <ele>445</ele>
        <time>2025-09-06T13:52:14Z</time>
      </trkpt>
      <trkpt lat="46.1782" lon="4.54423">
        <ele>445.6</ele>
        <time>2025-09-06T13:52:15Z</time>
      </trkpt>
      <trkpt lat="46.17821" lon="4.5442">
        <ele>445.8</ele>
        <time>2025-09-06T13:52:16Z</time>
      </trkpt>
      <trkpt lat="46.17822" lon="4.54417">
        <ele>445.8</ele>
        <time>2025-09-06T13:52:17Z</time>
      </trkpt>
      <trkpt lat="46.17823" lon="4.54414">
        <ele>445.8</ele>
        <time>2025-09-06T13:52:18Z</time>
      </trkpt>
      <trkpt lat="46.17823" lon="4.54411">
        <ele>446</ele>
        <time>2025-09-06T13:52:19Z</time>
      </trkpt>
      <trkpt lat="46.17824" lon="4.54408">
        <ele>446</ele>
        <time>2025-09-06T13:52:20Z</time>
      </trkpt>
      <trkpt lat="46.17824" lon="4.54405">
        <ele>446</ele>
        <time>2025-09-06T13:52:21Z</time>
      </trkpt>
      <trkpt lat="46.17825" lon="4.54402">
        <ele>446</ele>
        <time>2025-09-06T13:52:22Z</time>
      </trkpt>
      <trkpt lat="46.17827" lon="4.544">
        <ele>446</ele>
        <time>2025-09-06T13:52:23Z</time>
      </trkpt>
      <trkpt lat="46.17828" lon="4.54397">
        <ele>446.2</ele>
        <time>2025-09-06T13:52:24Z</time>
      </trkpt>
      <trkpt lat="46.17828" lon="4.54394">
        <ele>446.2</ele>
        <time>2025-09-06T13:52:25Z</time>
      </trkpt>
      <trkpt lat="46.17829" lon="4.54391">
        <ele>446.2</ele>
        <time>2025-09-06T13:52:26Z</time>
      </trkpt>
      <trkpt lat="46.1783" lon="4.54388">
        <ele>446.2</ele>
        <time>2025-09-06T13:52:27Z</time>
      </trkpt>
      <trkpt lat="46.17831" lon="4.54385">
        <ele>446.6</ele>
        <time>2025-09-06T13:52:28Z</time>
      </trkpt>
      <trkpt lat="46.17832" lon="4.54383">
        <ele>446.6</ele>
        <time>2025-09-06T13:52:29Z</time>
      </trkpt>
      <trkpt lat="46.17834" lon="4.5438">
        <ele>446.6</ele>
        <time>2025-09-06T13:52:30Z</time>
      </trkpt>
      <trkpt lat="46.17835" lon="4.54377">
        <ele>446.6</ele>
        <time>2025-09-06T13:52:31Z</time>
      </trkpt>
      <trkpt lat="46.17836" lon="4.54374">
        <ele>446.6</ele>
        <time>2025-09-06T13:52:32Z</time>
      </trkpt>
      <trkpt lat="46.17837" lon="4.54372">
        <ele>446.6</ele>
        <time>2025-09-06T13:52:33Z</time>
      </trkpt>
      <trkpt lat="46.17839" lon="4.54369">
        <ele>446.6</ele>
        <time>2025-09-06T13:52:34Z</time>
      </trkpt>
      <trkpt lat="46.1784" lon="4.54366">
        <ele>446.6</ele>
        <time>2025-09-06T13:52:35Z</time>
      </trkpt>
      <trkpt lat="46.17841" lon="4.54364">
        <ele>446.6</ele>
        <time>2025-09-06T13:52:36Z</time>
      </trkpt>
      <trkpt lat="46.17843" lon="4.54361">
        <ele>446.8</ele>
        <time>2025-09-06T13:52:37Z</time>
      </trkpt>
      <trkpt lat="46.17844" lon="4.54359">
        <ele>446.8</ele>
        <time>2025-09-06T13:52:38Z</time>
      </trkpt>
      <trkpt lat="46.17845" lon="4.54356">
        <ele>446.8</ele>
        <time>2025-09-06T13:52:39Z</time>
      </trkpt>
      <trkpt lat="46.17847" lon="4.54353">
        <ele>446.8</ele>
        <time>2025-09-06T13:52:40Z</time>
      </trkpt>
      <trkpt lat="46.17848" lon="4.54351">
        <ele>446.8</ele>
        <time>2025-09-06T13:52:41Z</time>
      </trkpt>
      <trkpt lat="46.1785" lon="4.54348">
        <ele>447.2</ele>
        <time>2025-09-06T13:52:42Z</time>
      </trkpt>
      <trkpt lat="46.17852" lon="4.54346">
        <ele>447.4</ele>
        <time>2025-09-06T13:52:43Z</time>
      </trkpt>
      <trkpt lat="46.17853" lon="4.54344">
        <ele>447.6</ele>
        <time>2025-09-06T13:52:44Z</time>
      </trkpt>
      <trkpt lat="46.17855" lon="4.54342">
        <ele>447.6</ele>
        <time>2025-09-06T13:52:45Z</time>
      </trkpt>
      <trkpt lat="46.17857" lon="4.5434">
        <ele>447.6</ele>
        <time>2025-09-06T13:52:46Z</time>
      </trkpt>
      <trkpt lat="46.17859" lon="4.54338">
        <ele>447.8</ele>
        <time>2025-09-06T13:52:47Z</time>
      </trkpt>
      <trkpt lat="46.1786" lon="4.54336">
        <ele>447.8</ele>
        <time>2025-09-06T13:52:48Z</time>
      </trkpt>
      <trkpt lat="46.17862" lon="4.54334">
        <ele>448</ele>
        <time>2025-09-06T13:52:49Z</time>
      </trkpt>
      <trkpt lat="46.17865" lon="4.54332">
        <ele>448</ele>
        <time>2025-09-06T13:52:50Z</time>
      </trkpt>
      <trkpt lat="46.17867" lon="4.5433">
        <ele>448</ele>
        <time>2025-09-06T13:52:51Z</time>
      </trkpt>
      <trkpt lat="46.17869" lon="4.54328">
        <ele>448.4</ele>
        <time>2025-09-06T13:52:52Z</time>
      </trkpt>
      <trkpt lat="46.17871" lon="4.54326">
        <ele>448.4</ele>
        <time>2025-09-06T13:52:53Z</time>
      </trkpt>
      <trkpt lat="46.17873" lon="4.54324">
        <ele>448.4</ele>
        <time>2025-09-06T13:52:54Z</time>
      </trkpt>
      <trkpt lat="46.17875" lon="4.54322">
        <ele>448.6</ele>
        <time>2025-09-06T13:52:55Z</time>
      </trkpt>
      <trkpt lat="46.17877" lon="4.54321">
        <ele>448.6</ele>
        <time>2025-09-06T13:52:56Z</time>
      </trkpt>
      <trkpt lat="46.17878" lon="4.54319">
        <ele>448.6</ele>
        <time>2025-09-06T13:52:57Z</time>
      </trkpt>
      <trkpt lat="46.17881" lon="4.54318">
        <ele>448.6</ele>
        <time>2025-09-06T13:52:58Z</time>
      </trkpt>
      <trkpt lat="46.17883" lon="4.54317">
        <ele>448.6</ele>
        <time>2025-09-06T13:52:59Z</time>
      </trkpt>
      <trkpt lat="46.17885" lon="4.54315">
        <ele>448.6</ele>
        <time>2025-09-06T13:53:00Z</time>
      </trkpt>
      <trkpt lat="46.17887" lon="4.54314">
        <ele>448.6</ele>
        <time>2025-09-06T13:53:01Z</time>
      </trkpt>
      <trkpt lat="46.17889" lon="4.54314">
        <ele>448.6</ele>
        <time>2025-09-06T13:53:02Z</time>
      </trkpt>
      <trkpt lat="46.17892" lon="4.54313">
        <ele>449</ele>
        <time>2025-09-06T13:53:03Z</time>
      </trkpt>
      <trkpt lat="46.17894" lon="4.54312">
        <ele>449</ele>
        <time>2025-09-06T13:53:04Z</time>
      </trkpt>
      <trkpt lat="46.17897" lon="4.54311">
        <ele>449</ele>
        <time>2025-09-06T13:53:05Z</time>
      </trkpt>
      <trkpt lat="46.17899" lon="4.54311">
        <ele>449.4</ele>
        <time>2025-09-06T13:53:06Z</time>
      </trkpt>
      <trkpt lat="46.17901" lon="4.5431">
        <ele>449.4</ele>
        <time>2025-09-06T13:53:07Z</time>
      </trkpt>
      <trkpt lat="46.17904" lon="4.5431">
        <ele>449.4</ele>
        <time>2025-09-06T13:53:08Z</time>
      </trkpt>
      <trkpt lat="46.17906" lon="4.5431">
        <ele>449.4</ele>
        <time>2025-09-06T13:53:09Z</time>
      </trkpt>
      <trkpt lat="46.17908" lon="4.5431">
        <ele>449.6</ele>
        <time>2025-09-06T13:53:10Z</time>
      </trkpt>
      <trkpt lat="46.1791" lon="4.5431">
        <ele>449.6</ele>
        <time>2025-09-06T13:53:11Z</time>
      </trkpt>
      <trkpt lat="46.17912" lon="4.5431">
        <ele>449.6</ele>
        <time>2025-09-06T13:53:12Z</time>
      </trkpt>
      <trkpt lat="46.17914" lon="4.5431">
        <ele>450</ele>
        <time>2025-09-06T13:53:13Z</time>
      </trkpt>
      <trkpt lat="46.17916" lon="4.5431">
        <ele>450</ele>
        <time>2025-09-06T13:53:14Z</time>
      </trkpt>
      <trkpt lat="46.17918" lon="4.54309">
        <ele>450</ele>
        <time>2025-09-06T13:53:15Z</time>
      </trkpt>
      <trkpt lat="46.17921" lon="4.54309">
        <ele>450</ele>
        <time>2025-09-06T13:53:16Z</time>
      </trkpt>
      <trkpt lat="46.17923" lon="4.54309">
        <ele>450</ele>
        <time>2025-09-06T13:53:17Z</time>
      </trkpt>
      <trkpt lat="46.17925" lon="4.54309">
        <ele>450</ele>
        <time>2025-09-06T13:53:18Z</time>
      </trkpt>
      <trkpt lat="46.17927" lon="4.54309">
        <ele>450.2</ele>
        <time>2025-09-06T13:53:19Z</time>
      </trkpt>
      <trkpt lat="46.1793" lon="4.54309">
        <ele>450.2</ele>
        <time>2025-09-06T13:53:20Z</time>
      </trkpt>
      <trkpt lat="46.17932" lon="4.54309">
        <ele>450.6</ele>
        <time>2025-09-06T13:53:21Z</time>
      </trkpt>
      <trkpt lat="46.17934" lon="4.54309">
        <ele>450.6</ele>
        <time>2025-09-06T13:53:22Z</time>
      </trkpt>
      <trkpt lat="46.17936" lon="4.54309">
        <ele>450.8</ele>
        <time>2025-09-06T13:53:23Z</time>
      </trkpt>
      <trkpt lat="46.17938" lon="4.54308">
        <ele>450.8</ele>
        <time>2025-09-06T13:53:24Z</time>
      </trkpt>
      <trkpt lat="46.1794" lon="4.54308">
        <ele>450.8</ele>
        <time>2025-09-06T13:53:25Z</time>
      </trkpt>
      <trkpt lat="46.17942" lon="4.54307">
        <ele>450.8</ele>
        <time>2025-09-06T13:53:26Z</time>
      </trkpt>
      <trkpt lat="46.17944" lon="4.54306">
        <ele>451.4</ele>
        <time>2025-09-06T13:53:27Z</time>
      </trkpt>
      <trkpt lat="46.17946" lon="4.54306">
        <ele>451.4</ele>
        <time>2025-09-06T13:53:28Z</time>
      </trkpt>
      <trkpt lat="46.17949" lon="4.54306">
        <ele>451.4</ele>
        <time>2025-09-06T13:53:29Z</time>
      </trkpt>
      <trkpt lat="46.17951" lon="4.54305">
        <ele>451.4</ele>
        <time>2025-09-06T13:53:30Z</time>
      </trkpt>
      <trkpt lat="46.17953" lon="4.54304">
        <ele>451.4</ele>
        <time>2025-09-06T13:53:31Z</time>
      </trkpt>
      <trkpt lat="46.17955" lon="4.54303">
        <ele>451.4</ele>
        <time>2025-09-06T13:53:32Z</time>
      </trkpt>
      <trkpt lat="46.17958" lon="4.54302">
        <ele>451.4</ele>
        <time>2025-09-06T13:53:33Z</time>
      </trkpt>
      <trkpt lat="46.1796" lon="4.543">
        <ele>451.6</ele>
        <time>2025-09-06T13:53:34Z</time>
      </trkpt>
      <trkpt lat="46.17962" lon="4.54299">
        <ele>451.6</ele>
        <time>2025-09-06T13:53:35Z</time>
      </trkpt>
      <trkpt lat="46.17964" lon="4.54297">
        <ele>451.6</ele>
        <time>2025-09-06T13:53:36Z</time>
      </trkpt>
      <trkpt lat="46.17967" lon="4.54296">
        <ele>451.6</ele>
        <time>2025-09-06T13:53:37Z</time>
      </trkpt>
      <trkpt lat="46.17969" lon="4.54295">
        <ele>451.6</ele>
        <time>2025-09-06T13:53:38Z</time>
      </trkpt>
      <trkpt lat="46.17971" lon="4.54293">
        <ele>451.6</ele>
        <time>2025-09-06T13:53:39Z</time>
      </trkpt>
      <trkpt lat="46.17973" lon="4.54292">
        <ele>451.6</ele>
        <time>2025-09-06T13:53:40Z</time>
      </trkpt>
      <trkpt lat="46.17975" lon="4.5429">
        <ele>451.6</ele>
        <time>2025-09-06T13:53:41Z</time>
      </trkpt>
      <trkpt lat="46.17977" lon="4.54289">
        <ele>452</ele>
        <time>2025-09-06T13:53:42Z</time>
      </trkpt>
      <trkpt lat="46.17978" lon="4.54287">
        <ele>452</ele>
        <time>2025-09-06T13:53:43Z</time>
      </trkpt>
      <trkpt lat="46.17978" lon="4.54287">
        <ele>452</ele>
        <time>2025-09-06T13:53:44Z</time>
      </trkpt>
      <trkpt lat="46.1798" lon="4.54285">
        <ele>452</ele>
        <time>2025-09-06T13:53:45Z</time>
      </trkpt>
      <trkpt lat="46.17982" lon="4.54284">
        <ele>452.2</ele>
        <time>2025-09-06T13:53:46Z</time>
      </trkpt>
      <trkpt lat="46.17983" lon="4.54282">
        <ele>452.2</ele>
        <time>2025-09-06T13:53:47Z</time>
      </trkpt>
      <trkpt lat="46.17983" lon="4.54282">
        <ele>452.2</ele>
        <time>2025-09-06T13:53:48Z</time>
      </trkpt>
      <trkpt lat="46.17983" lon="4.54282">
        <ele>452.2</ele>
        <time>2025-09-06T13:53:49Z</time>
      </trkpt>
      <trkpt lat="46.17989" lon="4.54273">
        <ele>452.2</ele>
        <time>2025-09-06T13:53:51Z</time>
      </trkpt>
      <trkpt lat="46.1799" lon="4.54271">
        <ele>452.2</ele>
        <time>2025-09-06T13:53:52Z</time>
      </trkpt>
      <trkpt lat="46.17991" lon="4.54269">
        <ele>452.2</ele>
        <time>2025-09-06T13:53:53Z</time>
      </trkpt>
      <trkpt lat="46.17993" lon="4.54266">
        <ele>452.2</ele>
        <time>2025-09-06T13:53:54Z</time>
      </trkpt>
      <trkpt lat="46.17994" lon="4.54265">
        <ele>452.4</ele>
        <time>2025-09-06T13:53:55Z</time>
      </trkpt>
      <trkpt lat="46.17995" lon="4.54263">
        <ele>452.4</ele>
        <time>2025-09-06T13:53:56Z</time>
      </trkpt>
      <trkpt lat="46.17998" lon="4.54257">
        <ele>452.8</ele>
        <time>2025-09-06T13:53:57Z</time>
      </trkpt>
      <trkpt lat="46.17999" lon="4.54255">
        <ele>453</ele>
        <time>2025-09-06T13:53:58Z</time>
      </trkpt>
      <trkpt lat="46.18001" lon="4.54252">
        <ele>453</ele>
        <time>2025-09-06T13:53:59Z</time>
      </trkpt>
      <trkpt lat="46.18002" lon="4.5425">
        <ele>453</ele>
        <time>2025-09-06T13:54:00Z</time>
      </trkpt>
      <trkpt lat="46.18004" lon="4.54247">
        <ele>453</ele>
        <time>2025-09-06T13:54:01Z</time>
      </trkpt>
      <trkpt lat="46.18005" lon="4.54245">
        <ele>453</ele>
        <time>2025-09-06T13:54:02Z</time>
      </trkpt>
      <trkpt lat="46.18006" lon="4.54242">
        <ele>453.4</ele>
        <time>2025-09-06T13:54:03Z</time>
      </trkpt>
      <trkpt lat="46.18008" lon="4.54238">
        <ele>453.4</ele>
        <time>2025-09-06T13:54:04Z</time>
      </trkpt>
      <trkpt lat="46.1801" lon="4.54235">
        <ele>453.4</ele>
        <time>2025-09-06T13:54:05Z</time>
      </trkpt>
      <trkpt lat="46.18011" lon="4.54232">
        <ele>453.4</ele>
        <time>2025-09-06T13:54:06Z</time>
      </trkpt>
      <trkpt lat="46.18012" lon="4.54229">
        <ele>453.6</ele>
        <time>2025-09-06T13:54:07Z</time>
      </trkpt>
      <trkpt lat="46.18014" lon="4.54226">
        <ele>453.8</ele>
        <time>2025-09-06T13:54:08Z</time>
      </trkpt>
      <trkpt lat="46.18015" lon="4.54224">
        <ele>453.8</ele>
        <time>2025-09-06T13:54:09Z</time>
      </trkpt>
      <trkpt lat="46.18017" lon="4.54221">
        <ele>453.8</ele>
        <time>2025-09-06T13:54:10Z</time>
      </trkpt>
      <trkpt lat="46.18019" lon="4.54218">
        <ele>453.8</ele>
        <time>2025-09-06T13:54:11Z</time>
      </trkpt>
      <trkpt lat="46.18019" lon="4.54218">
        <ele>454.2</ele>
        <time>2025-09-06T13:54:12Z</time>
      </trkpt>
      <trkpt lat="46.18022" lon="4.54214">
        <ele>454.4</ele>
        <time>2025-09-06T13:54:13Z</time>
      </trkpt>
      <trkpt lat="46.18024" lon="4.54211">
        <ele>454.6</ele>
        <time>2025-09-06T13:54:14Z</time>
      </trkpt>
      <trkpt lat="46.18026" lon="4.54209">
        <ele>454.6</ele>
        <time>2025-09-06T13:54:15Z</time>
      </trkpt>
      <trkpt lat="46.18028" lon="4.54207">
        <ele>454.6</ele>
        <time>2025-09-06T13:54:16Z</time>
      </trkpt>
      <trkpt lat="46.18031" lon="4.54205">
        <ele>454.6</ele>
        <time>2025-09-06T13:54:17Z</time>
      </trkpt>
      <trkpt lat="46.18033" lon="4.54203">
        <ele>454.6</ele>
        <time>2025-09-06T13:54:18Z</time>
      </trkpt>
      <trkpt lat="46.18036" lon="4.54201">
        <ele>454.8</ele>
        <time>2025-09-06T13:54:19Z</time>
      </trkpt>
      <trkpt lat="46.18037" lon="4.542">
        <ele>454.8</ele>
        <time>2025-09-06T13:54:20Z</time>
      </trkpt>
      <trkpt lat="46.18039" lon="4.54198">
        <ele>454.8</ele>
        <time>2025-09-06T13:54:21Z</time>
      </trkpt>
      <trkpt lat="46.1804" lon="4.54197">
        <ele>455</ele>
        <time>2025-09-06T13:54:22Z</time>
      </trkpt>
      <trkpt lat="46.18042" lon="4.54196">
        <ele>455</ele>
        <time>2025-09-06T13:54:23Z</time>
      </trkpt>
      <trkpt lat="46.18044" lon="4.54195">
        <ele>455</ele>
        <time>2025-09-06T13:54:24Z</time>
      </trkpt>
      <trkpt lat="46.18046" lon="4.54194">
        <ele>455</ele>
        <time>2025-09-06T13:54:25Z</time>
      </trkpt>
      <trkpt lat="46.18048" lon="4.54193">
        <ele>454.8</ele>
        <time>2025-09-06T13:54:26Z</time>
      </trkpt>
      <trkpt lat="46.1805" lon="4.54193">
        <ele>454.8</ele>
        <time>2025-09-06T13:54:27Z</time>
      </trkpt>
      <trkpt lat="46.18053" lon="4.54192">
        <ele>454.8</ele>
        <time>2025-09-06T13:54:28Z</time>
      </trkpt>
      <trkpt lat="46.18055" lon="4.54192">
        <ele>455</ele>
        <time>2025-09-06T13:54:29Z</time>
      </trkpt>
      <trkpt lat="46.18056" lon="4.54192">
        <ele>455</ele>
        <time>2025-09-06T13:54:30Z</time>
      </trkpt>
      <trkpt lat="46.18058" lon="4.54192">
        <ele>455</ele>
        <time>2025-09-06T13:54:31Z</time>
      </trkpt>
      <trkpt lat="46.1806" lon="4.54193">
        <ele>455</ele>
        <time>2025-09-06T13:54:32Z</time>
      </trkpt>
      <trkpt lat="46.18063" lon="4.54193">
        <ele>455</ele>
        <time>2025-09-06T13:54:33Z</time>
      </trkpt>
      <trkpt lat="46.18065" lon="4.54193">
        <ele>455.4</ele>
        <time>2025-09-06T13:54:34Z</time>
      </trkpt>
      <trkpt lat="46.18068" lon="4.54193">
        <ele>455.4</ele>
        <time>2025-09-06T13:54:35Z</time>
      </trkpt>
      <trkpt lat="46.1807" lon="4.54193">
        <ele>455.4</ele>
        <time>2025-09-06T13:54:36Z</time>
      </trkpt>
      <trkpt lat="46.18072" lon="4.54193">
        <ele>455.8</ele>
        <time>2025-09-06T13:54:37Z</time>
      </trkpt>
      <trkpt lat="46.18075" lon="4.54194">
        <ele>455.8</ele>
        <time>2025-09-06T13:54:38Z</time>
      </trkpt>
      <trkpt lat="46.18077" lon="4.54194">
        <ele>455.8</ele>
        <time>2025-09-06T13:54:39Z</time>
      </trkpt>
      <trkpt lat="46.18079" lon="4.54194">
        <ele>456</ele>
        <time>2025-09-06T13:54:40Z</time>
      </trkpt>
      <trkpt lat="46.18081" lon="4.54194">
        <ele>456</ele>
        <time>2025-09-06T13:54:41Z</time>
      </trkpt>
      <trkpt lat="46.18083" lon="4.54194">
        <ele>456.4</ele>
        <time>2025-09-06T13:54:42Z</time>
      </trkpt>
      <trkpt lat="46.18085" lon="4.54194">
        <ele>456.4</ele>
        <time>2025-09-06T13:54:43Z</time>
      </trkpt>
      <trkpt lat="46.18087" lon="4.54194">
        <ele>456.4</ele>
        <time>2025-09-06T13:54:44Z</time>
      </trkpt>
      <trkpt lat="46.18089" lon="4.54194">
        <ele>456.6</ele>
        <time>2025-09-06T13:54:45Z</time>
      </trkpt>
      <trkpt lat="46.18091" lon="4.54194">
        <ele>456.6</ele>
        <time>2025-09-06T13:54:46Z</time>
      </trkpt>
      <trkpt lat="46.18093" lon="4.54193">
        <ele>456.6</ele>
        <time>2025-09-06T13:54:47Z</time>
      </trkpt>
      <trkpt lat="46.18094" lon="4.54194">
        <ele>456.6</ele>
        <time>2025-09-06T13:54:48Z</time>
      </trkpt>
      <trkpt lat="46.18095" lon="4.54194">
        <ele>456.6</ele>
        <time>2025-09-06T13:54:49Z</time>
      </trkpt>
      <trkpt lat="46.18096" lon="4.54195">
        <ele>456.6</ele>
        <time>2025-09-06T13:54:50Z</time>
      </trkpt>
      <trkpt lat="46.18097" lon="4.54197">
        <ele>456.6</ele>
        <time>2025-09-06T13:54:51Z</time>
      </trkpt>
      <trkpt lat="46.18097" lon="4.54199">
        <ele>457</ele>
        <time>2025-09-06T13:54:52Z</time>
      </trkpt>
      <trkpt lat="46.18096" lon="4.54202">
        <ele>457</ele>
        <time>2025-09-06T13:54:53Z</time>
      </trkpt>
      <trkpt lat="46.18096" lon="4.54204">
        <ele>457</ele>
        <time>2025-09-06T13:54:54Z</time>
      </trkpt>
      <trkpt lat="46.18096" lon="4.54207">
        <ele>457</ele>
        <time>2025-09-06T13:54:55Z</time>
      </trkpt>
      <trkpt lat="46.18096" lon="4.5421">
        <ele>457</ele>
        <time>2025-09-06T13:54:56Z</time>
      </trkpt>
      <trkpt lat="46.18097" lon="4.54213">
        <ele>457</ele>
        <time>2025-09-06T13:54:57Z</time>
      </trkpt>
      <trkpt lat="46.18098" lon="4.54215">
        <ele>457</ele>
        <time>2025-09-06T13:54:58Z</time>
      </trkpt>
      <trkpt lat="46.18098" lon="4.54218">
        <ele>457.2</ele>
        <time>2025-09-06T13:54:59Z</time>
      </trkpt>
      <trkpt lat="46.18099" lon="4.5422">
        <ele>457.2</ele>
        <time>2025-09-06T13:55:00Z</time>
      </trkpt>
      <trkpt lat="46.181" lon="4.54222">
        <ele>457.2</ele>
        <time>2025-09-06T13:55:01Z</time>
      </trkpt>
      <trkpt lat="46.18101" lon="4.54224">
        <ele>457.4</ele>
        <time>2025-09-06T13:55:02Z</time>
      </trkpt>
      <trkpt lat="46.18102" lon="4.54227">
        <ele>457.4</ele>
        <time>2025-09-06T13:55:03Z</time>
      </trkpt>
      <trkpt lat="46.18103" lon="4.5423">
        <ele>457.4</ele>
        <time>2025-09-06T13:55:04Z</time>
      </trkpt>
      <trkpt lat="46.18104" lon="4.54233">
        <ele>457.4</ele>
        <time>2025-09-06T13:55:05Z</time>
      </trkpt>
      <trkpt lat="46.18105" lon="4.54236">
        <ele>457.4</ele>
        <time>2025-09-06T13:55:06Z</time>
      </trkpt>
      <trkpt lat="46.18106" lon="4.54239">
        <ele>457.4</ele>
        <time>2025-09-06T13:55:07Z</time>
      </trkpt>
      <trkpt lat="46.18107" lon="4.54241">
        <ele>457.4</ele>
        <time>2025-09-06T13:55:08Z</time>
      </trkpt>
      <trkpt lat="46.18109" lon="4.54244">
        <ele>457.4</ele>
        <time>2025-09-06T13:55:09Z</time>
      </trkpt>
      <trkpt lat="46.18109" lon="4.54244">
        <ele>457.4</ele>
        <time>2025-09-06T13:55:10Z</time>
      </trkpt>
      <trkpt lat="46.1811" lon="4.54246">
        <ele>457.6</ele>
        <time>2025-09-06T13:55:11Z</time>
      </trkpt>
      <trkpt lat="46.18111" lon="4.54248">
        <ele>457.6</ele>
        <time>2025-09-06T13:55:12Z</time>
      </trkpt>
      <trkpt lat="46.18113" lon="4.54251">
        <ele>457.6</ele>
        <time>2025-09-06T13:55:13Z</time>
      </trkpt>
      <trkpt lat="46.18114" lon="4.54253">
        <ele>458</ele>
        <time>2025-09-06T13:55:14Z</time>
      </trkpt>
      <trkpt lat="46.18116" lon="4.54256">
        <ele>457.6</ele>
        <time>2025-09-06T13:55:15Z</time>
      </trkpt>
      <trkpt lat="46.18118" lon="4.54258">
        <ele>458.4</ele>
        <time>2025-09-06T13:55:16Z</time>
      </trkpt>
      <trkpt lat="46.18119" lon="4.54259">
        <ele>458.4</ele>
        <time>2025-09-06T13:55:17Z</time>
      </trkpt>
      <trkpt lat="46.18121" lon="4.54261">
        <ele>458.4</ele>
        <time>2025-09-06T13:55:18Z</time>
      </trkpt>
      <trkpt lat="46.18122" lon="4.54263">
        <ele>458.6</ele>
        <time>2025-09-06T13:55:19Z</time>
      </trkpt>
      <trkpt lat="46.18124" lon="4.54265">
        <ele>458.6</ele>
        <time>2025-09-06T13:55:20Z</time>
      </trkpt>
      <trkpt lat="46.18126" lon="4.54267">
        <ele>458.6</ele>
        <time>2025-09-06T13:55:21Z</time>
      </trkpt>
      <trkpt lat="46.18127" lon="4.54268">
        <ele>458.6</ele>
        <time>2025-09-06T13:55:22Z</time>
      </trkpt>
      <trkpt lat="46.18129" lon="4.5427">
        <ele>458.6</ele>
        <time>2025-09-06T13:55:23Z</time>
      </trkpt>
      <trkpt lat="46.18131" lon="4.54271">
        <ele>459</ele>
        <time>2025-09-06T13:55:24Z</time>
      </trkpt>
      <trkpt lat="46.18132" lon="4.54273">
        <ele>459.4</ele>
        <time>2025-09-06T13:55:25Z</time>
      </trkpt>
      <trkpt lat="46.18134" lon="4.54274">
        <ele>459.4</ele>
        <time>2025-09-06T13:55:26Z</time>
      </trkpt>
      <trkpt lat="46.18136" lon="4.54276">
        <ele>459.4</ele>
        <time>2025-09-06T13:55:27Z</time>
      </trkpt>
      <trkpt lat="46.18138" lon="4.54277">
        <ele>458.8</ele>
        <time>2025-09-06T13:55:28Z</time>
      </trkpt>
      <trkpt lat="46.1814" lon="4.54279">
        <ele>459.4</ele>
        <time>2025-09-06T13:55:29Z</time>
      </trkpt>
      <trkpt lat="46.18141" lon="4.54281">
        <ele>459.8</ele>
        <time>2025-09-06T13:55:30Z</time>
      </trkpt>
      <trkpt lat="46.18143" lon="4.54283">
        <ele>459.8</ele>
        <time>2025-09-06T13:55:31Z</time>
      </trkpt>
      <trkpt lat="46.18145" lon="4.54284">
        <ele>459.8</ele>
        <time>2025-09-06T13:55:32Z</time>
      </trkpt>
      <trkpt lat="46.18147" lon="4.54286">
        <ele>459.8</ele>
        <time>2025-09-06T13:55:33Z</time>
      </trkpt>
      <trkpt lat="46.18148" lon="4.54287">
        <ele>460</ele>
        <time>2025-09-06T13:55:34Z</time>
      </trkpt>
      <trkpt lat="46.18149" lon="4.54289">
        <ele>460</ele>
        <time>2025-09-06T13:55:35Z</time>
      </trkpt>
      <trkpt lat="46.18151" lon="4.54291">
        <ele>460</ele>
        <time>2025-09-06T13:55:36Z</time>
      </trkpt>
      <trkpt lat="46.18153" lon="4.54293">
        <ele>460.2</ele>
        <time>2025-09-06T13:55:37Z</time>
      </trkpt>
      <trkpt lat="46.18154" lon="4.54295">
        <ele>460.2</ele>
        <time>2025-09-06T13:55:38Z</time>
      </trkpt>
      <trkpt lat="46.18155" lon="4.54297">
        <ele>460.6</ele>
        <time>2025-09-06T13:55:39Z</time>
      </trkpt>
      <trkpt lat="46.18157" lon="4.54298">
        <ele>460.6</ele>
        <time>2025-09-06T13:55:40Z</time>
      </trkpt>
      <trkpt lat="46.18159" lon="4.543">
        <ele>461</ele>
        <time>2025-09-06T13:55:41Z</time>
      </trkpt>
      <trkpt lat="46.18163" lon="4.54304">
        <ele>461</ele>
        <time>2025-09-06T13:55:42Z</time>
      </trkpt>
      <trkpt lat="46.18165" lon="4.54305">
        <ele>461</ele>
        <time>2025-09-06T13:55:43Z</time>
      </trkpt>
      <trkpt lat="46.18167" lon="4.54307">
        <ele>461</ele>
        <time>2025-09-06T13:55:44Z</time>
      </trkpt>
      <trkpt lat="46.18169" lon="4.5431">
        <ele>461</ele>
        <time>2025-09-06T13:55:45Z</time>
      </trkpt>
      <trkpt lat="46.18171" lon="4.54311">
        <ele>461.2</ele>
        <time>2025-09-06T13:55:46Z</time>
      </trkpt>
      <trkpt lat="46.18173" lon="4.54313">
        <ele>461.2</ele>
        <time>2025-09-06T13:55:47Z</time>
      </trkpt>
      <trkpt lat="46.18175" lon="4.54314">
        <ele>461.2</ele>
        <time>2025-09-06T13:55:48Z</time>
      </trkpt>
      <trkpt lat="46.18177" lon="4.54316">
        <ele>461.4</ele>
        <time>2025-09-06T13:55:49Z</time>
      </trkpt>
      <trkpt lat="46.18178" lon="4.54318">
        <ele>461.4</ele>
        <time>2025-09-06T13:55:50Z</time>
      </trkpt>
      <trkpt lat="46.1818" lon="4.54319">
        <ele>461.4</ele>
        <time>2025-09-06T13:55:51Z</time>
      </trkpt>
      <trkpt lat="46.18182" lon="4.54321">
        <ele>461.4</ele>
        <time>2025-09-06T13:55:52Z</time>
      </trkpt>
      <trkpt lat="46.18184" lon="4.54322">
        <ele>461</ele>
        <time>2025-09-06T13:55:53Z</time>
      </trkpt>
      <trkpt lat="46.18186" lon="4.54322">
        <ele>461</ele>
        <time>2025-09-06T13:55:54Z</time>
      </trkpt>
      <trkpt lat="46.18188" lon="4.54323">
        <ele>461</ele>
        <time>2025-09-06T13:55:55Z</time>
      </trkpt>
      <trkpt lat="46.18189" lon="4.54324">
        <ele>461</ele>
        <time>2025-09-06T13:55:56Z</time>
      </trkpt>
      <trkpt lat="46.18191" lon="4.54325">
        <ele>461</ele>
        <time>2025-09-06T13:55:57Z</time>
      </trkpt>
      <trkpt lat="46.18193" lon="4.54325">
        <ele>461</ele>
        <time>2025-09-06T13:55:58Z</time>
      </trkpt>
      <trkpt lat="46.18194" lon="4.54323">
        <ele>461</ele>
        <time>2025-09-06T13:55:59Z</time>
      </trkpt>
      <trkpt lat="46.18195" lon="4.54322">
        <ele>461</ele>
        <time>2025-09-06T13:56:00Z</time>
      </trkpt>
      <trkpt lat="46.18195" lon="4.54321">
        <ele>461</ele>
        <time>2025-09-06T13:56:01Z</time>
      </trkpt>
      <trkpt lat="46.18195" lon="4.54321">
        <ele>461</ele>
        <time>2025-09-06T13:56:02Z</time>
      </trkpt>
      <trkpt lat="46.18194" lon="4.54321">
        <ele>461</ele>
        <time>2025-09-06T13:56:07Z</time>
      </trkpt>
      <trkpt lat="46.18194" lon="4.54321">
        <ele>461</ele>
        <time>2025-09-06T13:56:08Z</time>
      </trkpt>
      <trkpt lat="46.18194" lon="4.54323">
        <ele>461.6</ele>
        <time>2025-09-06T14:00:49Z</time>
      </trkpt>
      <trkpt lat="46.18193" lon="4.54324">
        <ele>462</ele>
        <time>2025-09-06T14:00:50Z</time>
      </trkpt>
      <trkpt lat="46.18193" lon="4.54325">
        <ele>462</ele>
        <time>2025-09-06T14:00:51Z</time>
      </trkpt>
      <trkpt lat="46.18192" lon="4.54325">
        <ele>461.8</ele>
        <time>2025-09-06T14:00:52Z</time>
      </trkpt>
      <trkpt lat="46.18192" lon="4.54325">
        <ele>461.8</ele>
        <time>2025-09-06T14:00:53Z</time>
      </trkpt>
      <trkpt lat="46.18193" lon="4.54325">
        <ele>461.8</ele>
        <time>2025-09-06T14:00:54Z</time>
      </trkpt>
      <trkpt lat="46.18193" lon="4.54326">
        <ele>461.8</ele>
        <time>2025-09-06T14:00:55Z</time>
      </trkpt>
      <trkpt lat="46.18194" lon="4.54325">
        <ele>461.8</ele>
        <time>2025-09-06T14:00:56Z</time>
      </trkpt>
      <trkpt lat="46.18198" lon="4.54329">
        <ele>462</ele>
        <time>2025-09-06T14:01:07Z</time>
      </trkpt>
      <trkpt lat="46.18199" lon="4.5433">
        <ele>462</ele>
        <time>2025-09-06T14:01:08Z</time>
      </trkpt>
      <trkpt lat="46.182" lon="4.54332">
        <ele>462</ele>
        <time>2025-09-06T14:01:09Z</time>
      </trkpt>
      <trkpt lat="46.18202" lon="4.54334">
        <ele>462</ele>
        <time>2025-09-06T14:01:10Z</time>
      </trkpt>
      <trkpt lat="46.18203" lon="4.54335">
        <ele>462</ele>
        <time>2025-09-06T14:01:11Z</time>
      </trkpt>
      <trkpt lat="46.18206" lon="4.54336">
        <ele>462</ele>
        <time>2025-09-06T14:01:12Z</time>
      </trkpt>
      <trkpt lat="46.18208" lon="4.54337">
        <ele>462</ele>
        <time>2025-09-06T14:01:13Z</time>
      </trkpt>
      <trkpt lat="46.1821" lon="4.54339">
        <ele>462</ele>
        <time>2025-09-06T14:01:14Z</time>
      </trkpt>
      <trkpt lat="46.18212" lon="4.5434">
        <ele>461.8</ele>
        <time>2025-09-06T14:01:15Z</time>
      </trkpt>
      <trkpt lat="46.18214" lon="4.54342">
        <ele>461.8</ele>
        <time>2025-09-06T14:01:16Z</time>
      </trkpt>
      <trkpt lat="46.18217" lon="4.54344">
        <ele>461.8</ele>
        <time>2025-09-06T14:01:17Z</time>
      </trkpt>
      <trkpt lat="46.1822" lon="4.54345">
        <ele>461.8</ele>
        <time>2025-09-06T14:01:18Z</time>
      </trkpt>
      <trkpt lat="46.18222" lon="4.54347">
        <ele>461.8</ele>
        <time>2025-09-06T14:01:19Z</time>
      </trkpt>
      <trkpt lat="46.18224" lon="4.54348">
        <ele>461.8</ele>
        <time>2025-09-06T14:01:20Z</time>
      </trkpt>
      <trkpt lat="46.18226" lon="4.54349">
        <ele>461.8</ele>
        <time>2025-09-06T14:01:21Z</time>
      </trkpt>
      <trkpt lat="46.18229" lon="4.5435">
        <ele>461.8</ele>
        <time>2025-09-06T14:01:22Z</time>
      </trkpt>
      <trkpt lat="46.18232" lon="4.54351">
        <ele>461.8</ele>
        <time>2025-09-06T14:01:23Z</time>
      </trkpt>
      <trkpt lat="46.18235" lon="4.54352">
        <ele>462</ele>
        <time>2025-09-06T14:01:24Z</time>
      </trkpt>
      <trkpt lat="46.18237" lon="4.54353">
        <ele>462</ele>
        <time>2025-09-06T14:01:25Z</time>
      </trkpt>
      <trkpt lat="46.1824" lon="4.54354">
        <ele>462</ele>
        <time>2025-09-06T14:01:26Z</time>
      </trkpt>
      <trkpt lat="46.18243" lon="4.54355">
        <ele>462</ele>
        <time>2025-09-06T14:01:27Z</time>
      </trkpt>
      <trkpt lat="46.18245" lon="4.54357">
        <ele>462</ele>
        <time>2025-09-06T14:01:28Z</time>
      </trkpt>
      <trkpt lat="46.18249" lon="4.54359">
        <ele>462</ele>
        <time>2025-09-06T14:01:29Z</time>
      </trkpt>
      <trkpt lat="46.18252" lon="4.5436">
        <ele>461.8</ele>
        <time>2025-09-06T14:01:30Z</time>
      </trkpt>
      <trkpt lat="46.18256" lon="4.54361">
        <ele>461.8</ele>
        <time>2025-09-06T14:01:31Z</time>
      </trkpt>
      <trkpt lat="46.18259" lon="4.54362">
        <ele>461.8</ele>
        <time>2025-09-06T14:01:32Z</time>
      </trkpt>
      <trkpt lat="46.18262" lon="4.54362">
        <ele>462.2</ele>
        <time>2025-09-06T14:01:33Z</time>
      </trkpt>
      <trkpt lat="46.18265" lon="4.54363">
        <ele>462</ele>
        <time>2025-09-06T14:01:34Z</time>
      </trkpt>
      <trkpt lat="46.18269" lon="4.54363">
        <ele>462</ele>
        <time>2025-09-06T14:01:35Z</time>
      </trkpt>
      <trkpt lat="46.18271" lon="4.54365">
        <ele>462</ele>
        <time>2025-09-06T14:01:36Z</time>
      </trkpt>
      <trkpt lat="46.18273" lon="4.54366">
        <ele>462</ele>
        <time>2025-09-06T14:01:37Z</time>
      </trkpt>
      <trkpt lat="46.18275" lon="4.54367">
        <ele>462.6</ele>
        <time>2025-09-06T14:01:38Z</time>
      </trkpt>
      <trkpt lat="46.18277" lon="4.54368">
        <ele>462.6</ele>
        <time>2025-09-06T14:01:39Z</time>
      </trkpt>
      <trkpt lat="46.18279" lon="4.5437">
        <ele>462.6</ele>
        <time>2025-09-06T14:01:40Z</time>
      </trkpt>
      <trkpt lat="46.1828" lon="4.54372">
        <ele>462.6</ele>
        <time>2025-09-06T14:01:41Z</time>
      </trkpt>
      <trkpt lat="46.18282" lon="4.54374">
        <ele>462.2</ele>
        <time>2025-09-06T14:01:42Z</time>
      </trkpt>
      <trkpt lat="46.18283" lon="4.54377">
        <ele>462.8</ele>
        <time>2025-09-06T14:01:43Z</time>
      </trkpt>
      <trkpt lat="46.18284" lon="4.54379">
        <ele>463</ele>
        <time>2025-09-06T14:01:44Z</time>
      </trkpt>
      <trkpt lat="46.18286" lon="4.54381">
        <ele>462.6</ele>
        <time>2025-09-06T14:01:45Z</time>
      </trkpt>
      <trkpt lat="46.18288" lon="4.54383">
        <ele>462.6</ele>
        <time>2025-09-06T14:01:46Z</time>
      </trkpt>
      <trkpt lat="46.18289" lon="4.54384">
        <ele>463</ele>
        <time>2025-09-06T14:01:47Z</time>
      </trkpt>
      <trkpt lat="46.18291" lon="4.54386">
        <ele>463.4</ele>
        <time>2025-09-06T14:01:48Z</time>
      </trkpt>
      <trkpt lat="46.18293" lon="4.54388">
        <ele>463</ele>
        <time>2025-09-06T14:01:49Z</time>
      </trkpt>
      <trkpt lat="46.18295" lon="4.5439">
        <ele>463</ele>
        <time>2025-09-06T14:01:50Z</time>
      </trkpt>
      <trkpt lat="46.18297" lon="4.54392">
        <ele>463</ele>
        <time>2025-09-06T14:01:51Z</time>
      </trkpt>
      <trkpt lat="46.18299" lon="4.54395">
        <ele>463</ele>
        <time>2025-09-06T14:01:52Z</time>
      </trkpt>
      <trkpt lat="46.18301" lon="4.54397">
        <ele>462.8</ele>
        <time>2025-09-06T14:01:53Z</time>
      </trkpt>
      <trkpt lat="46.18303" lon="4.544">
        <ele>462.8</ele>
        <time>2025-09-06T14:01:54Z</time>
      </trkpt>
      <trkpt lat="46.18305" lon="4.54402">
        <ele>462.8</ele>
        <time>2025-09-06T14:01:55Z</time>
      </trkpt>
      <trkpt lat="46.18306" lon="4.54404">
        <ele>462.8</ele>
        <time>2025-09-06T14:01:56Z</time>
      </trkpt>
      <trkpt lat="46.18307" lon="4.54407">
        <ele>462.8</ele>
        <time>2025-09-06T14:01:57Z</time>
      </trkpt>
      <trkpt lat="46.18309" lon="4.54409">
        <ele>463.4</ele>
        <time>2025-09-06T14:01:58Z</time>
      </trkpt>
      <trkpt lat="46.1831" lon="4.54412">
        <ele>463.4</ele>
        <time>2025-09-06T14:01:59Z</time>
      </trkpt>
      <trkpt lat="46.18312" lon="4.54414">
        <ele>464.2</ele>
        <time>2025-09-06T14:02:00Z</time>
      </trkpt>
      <trkpt lat="46.18313" lon="4.54416">
        <ele>464.2</ele>
        <time>2025-09-06T14:02:01Z</time>
      </trkpt>
      <trkpt lat="46.18315" lon="4.54418">
        <ele>464.2</ele>
        <time>2025-09-06T14:02:02Z</time>
      </trkpt>
      <trkpt lat="46.18317" lon="4.5442">
        <ele>464.6</ele>
        <time>2025-09-06T14:02:03Z</time>
      </trkpt>
      <trkpt lat="46.18318" lon="4.54422">
        <ele>464.4</ele>
        <time>2025-09-06T14:02:04Z</time>
      </trkpt>
      <trkpt lat="46.1832" lon="4.54424">
        <ele>464.4</ele>
        <time>2025-09-06T14:02:05Z</time>
      </trkpt>
      <trkpt lat="46.18322" lon="4.54426">
        <ele>464.4</ele>
        <time>2025-09-06T14:02:06Z</time>
      </trkpt>
      <trkpt lat="46.18323" lon="4.54428">
        <ele>464.6</ele>
        <time>2025-09-06T14:02:07Z</time>
      </trkpt>
      <trkpt lat="46.18326" lon="4.5443">
        <ele>465.2</ele>
        <time>2025-09-06T14:02:08Z</time>
      </trkpt>
      <trkpt lat="46.18328" lon="4.54431">
        <ele>464.8</ele>
        <time>2025-09-06T14:02:09Z</time>
      </trkpt>
      <trkpt lat="46.1833" lon="4.54433">
        <ele>464.8</ele>
        <time>2025-09-06T14:02:10Z</time>
      </trkpt>
      <trkpt lat="46.1833" lon="4.54433">
        <ele>464.8</ele>
        <time>2025-09-06T14:02:11Z</time>
      </trkpt>
      <trkpt lat="46.18332" lon="4.54434">
        <ele>464.8</ele>
        <time>2025-09-06T14:02:12Z</time>
      </trkpt>
      <trkpt lat="46.18334" lon="4.54436">
        <ele>465.4</ele>
        <time>2025-09-06T14:02:13Z</time>
      </trkpt>
      <trkpt lat="46.18335" lon="4.54438">
        <ele>465.6</ele>
        <time>2025-09-06T14:02:14Z</time>
      </trkpt>
      <trkpt lat="46.18336" lon="4.54439">
        <ele>465.6</ele>
        <time>2025-09-06T14:02:15Z</time>
      </trkpt>
      <trkpt lat="46.18337" lon="4.5444">
        <ele>465.2</ele>
        <time>2025-09-06T14:02:16Z</time>
      </trkpt>
      <trkpt lat="46.18338" lon="4.54441">
        <ele>465.2</ele>
        <time>2025-09-06T14:02:17Z</time>
      </trkpt>
      <trkpt lat="46.1834" lon="4.54442">
        <ele>465.4</ele>
        <time>2025-09-06T14:02:18Z</time>
      </trkpt>
      <trkpt lat="46.18342" lon="4.54443">
        <ele>465.4</ele>
        <time>2025-09-06T14:02:19Z</time>
      </trkpt>
      <trkpt lat="46.18344" lon="4.54444">
        <ele>465.8</ele>
        <time>2025-09-06T14:02:20Z</time>
      </trkpt>
      <trkpt lat="46.18347" lon="4.54446">
        <ele>465.8</ele>
        <time>2025-09-06T14:02:21Z</time>
      </trkpt>
      <trkpt lat="46.18348" lon="4.54447">
        <ele>465.8</ele>
        <time>2025-09-06T14:02:22Z</time>
      </trkpt>
      <trkpt lat="46.1835" lon="4.54448">
        <ele>465.8</ele>
        <time>2025-09-06T14:02:23Z</time>
      </trkpt>
      <trkpt lat="46.18352" lon="4.5445">
        <ele>466</ele>
        <time>2025-09-06T14:02:24Z</time>
      </trkpt>
      <trkpt lat="46.18353" lon="4.54451">
        <ele>466</ele>
        <time>2025-09-06T14:02:25Z</time>
      </trkpt>
      <trkpt lat="46.18355" lon="4.54451">
        <ele>466.2</ele>
        <time>2025-09-06T14:02:26Z</time>
      </trkpt>
      <trkpt lat="46.18357" lon="4.54452">
        <ele>466.2</ele>
        <time>2025-09-06T14:02:27Z</time>
      </trkpt>
      <trkpt lat="46.18358" lon="4.54452">
        <ele>466.6</ele>
        <time>2025-09-06T14:02:28Z</time>
      </trkpt>
      <trkpt lat="46.1836" lon="4.54453">
        <ele>466.6</ele>
        <time>2025-09-06T14:02:29Z</time>
      </trkpt>
      <trkpt lat="46.18362" lon="4.54453">
        <ele>466.6</ele>
        <time>2025-09-06T14:02:30Z</time>
      </trkpt>
      <trkpt lat="46.18363" lon="4.54453">
        <ele>466.6</ele>
        <time>2025-09-06T14:02:31Z</time>
      </trkpt>
      <trkpt lat="46.18365" lon="4.54454">
        <ele>466.6</ele>
        <time>2025-09-06T14:02:32Z</time>
      </trkpt>
      <trkpt lat="46.18367" lon="4.54454">
        <ele>466.6</ele>
        <time>2025-09-06T14:02:33Z</time>
      </trkpt>
      <trkpt lat="46.1837" lon="4.54455">
        <ele>466.8</ele>
        <time>2025-09-06T14:02:34Z</time>
      </trkpt>
      <trkpt lat="46.18372" lon="4.54456">
        <ele>467.2</ele>
        <time>2025-09-06T14:02:35Z</time>
      </trkpt>
      <trkpt lat="46.18374" lon="4.54457">
        <ele>467.2</ele>
        <time>2025-09-06T14:02:36Z</time>
      </trkpt>
      <trkpt lat="46.18377" lon="4.54457">
        <ele>467.2</ele>
        <time>2025-09-06T14:02:37Z</time>
      </trkpt>
      <trkpt lat="46.18379" lon="4.54458">
        <ele>466.8</ele>
        <time>2025-09-06T14:02:38Z</time>
      </trkpt>
      <trkpt lat="46.18381" lon="4.54459">
        <ele>467.2</ele>
        <time>2025-09-06T14:02:39Z</time>
      </trkpt>
      <trkpt lat="46.18384" lon="4.54459">
        <ele>467.2</ele>
        <time>2025-09-06T14:02:40Z</time>
      </trkpt>
      <trkpt lat="46.18386" lon="4.54459">
        <ele>467.4</ele>
        <time>2025-09-06T14:02:41Z</time>
      </trkpt>
      <trkpt lat="46.18389" lon="4.5446">
        <ele>467.4</ele>
        <time>2025-09-06T14:02:42Z</time>
      </trkpt>
      <trkpt lat="46.18391" lon="4.5446">
        <ele>467.2</ele>
        <time>2025-09-06T14:02:43Z</time>
      </trkpt>
      <trkpt lat="46.18393" lon="4.54461">
        <ele>467.2</ele>
        <time>2025-09-06T14:02:44Z</time>
      </trkpt>
      <trkpt lat="46.18396" lon="4.54461">
        <ele>467.4</ele>
        <time>2025-09-06T14:02:45Z</time>
      </trkpt>
      <trkpt lat="46.18398" lon="4.54461">
        <ele>467.4</ele>
        <time>2025-09-06T14:02:46Z</time>
      </trkpt>
      <trkpt lat="46.184" lon="4.54462">
        <ele>467.4</ele>
        <time>2025-09-06T14:02:47Z</time>
      </trkpt>
      <trkpt lat="46.18402" lon="4.54461">
        <ele>467.8</ele>
        <time>2025-09-06T14:02:48Z</time>
      </trkpt>
      <trkpt lat="46.18404" lon="4.54461">
        <ele>467.8</ele>
        <time>2025-09-06T14:02:49Z</time>
      </trkpt>
      <trkpt lat="46.18406" lon="4.54461">
        <ele>467.4</ele>
        <time>2025-09-06T14:02:50Z</time>
      </trkpt>
      <trkpt lat="46.18408" lon="4.54461">
        <ele>467.2</ele>
        <time>2025-09-06T14:02:51Z</time>
      </trkpt>
      <trkpt lat="46.1841" lon="4.5446">
        <ele>467.6</ele>
        <time>2025-09-06T14:02:52Z</time>
      </trkpt>
      <trkpt lat="46.18413" lon="4.5446">
        <ele>467.8</ele>
        <time>2025-09-06T14:02:53Z</time>
      </trkpt>
      <trkpt lat="46.18415" lon="4.5446">
        <ele>467.8</ele>
        <time>2025-09-06T14:02:54Z</time>
      </trkpt>
      <trkpt lat="46.18417" lon="4.5446">
        <ele>467.8</ele>
        <time>2025-09-06T14:02:55Z</time>
      </trkpt>
      <trkpt lat="46.18419" lon="4.54459">
        <ele>468.2</ele>
        <time>2025-09-06T14:02:56Z</time>
      </trkpt>
      <trkpt lat="46.18421" lon="4.54459">
        <ele>468.2</ele>
        <time>2025-09-06T14:02:57Z</time>
      </trkpt>
      <trkpt lat="46.18423" lon="4.54457">
        <ele>468.2</ele>
        <time>2025-09-06T14:02:58Z</time>
      </trkpt>
      <trkpt lat="46.18425" lon="4.54456">
        <ele>468.6</ele>
        <time>2025-09-06T14:02:59Z</time>
      </trkpt>
      <trkpt lat="46.18427" lon="4.54455">
        <ele>468.6</ele>
        <time>2025-09-06T14:03:00Z</time>
      </trkpt>
      <trkpt lat="46.18429" lon="4.54453">
        <ele>468.4</ele>
        <time>2025-09-06T14:03:01Z</time>
      </trkpt>
      <trkpt lat="46.18431" lon="4.54452">
        <ele>468.4</ele>
        <time>2025-09-06T14:03:02Z</time>
      </trkpt>
      <trkpt lat="46.18432" lon="4.5445">
        <ele>468.4</ele>
        <time>2025-09-06T14:03:03Z</time>
      </trkpt>
      <trkpt lat="46.18434" lon="4.54449">
        <ele>468.6</ele>
        <time>2025-09-06T14:03:04Z</time>
      </trkpt>
      <trkpt lat="46.18436" lon="4.54447">
        <ele>468.6</ele>
        <time>2025-09-06T14:03:05Z</time>
      </trkpt>
      <trkpt lat="46.18438" lon="4.54445">
        <ele>468.8</ele>
        <time>2025-09-06T14:03:06Z</time>
      </trkpt>
      <trkpt lat="46.1844" lon="4.54443">
        <ele>468.8</ele>
        <time>2025-09-06T14:03:07Z</time>
      </trkpt>
      <trkpt lat="46.18441" lon="4.54441">
        <ele>468.8</ele>
        <time>2025-09-06T14:03:08Z</time>
      </trkpt>
      <trkpt lat="46.18443" lon="4.54439">
        <ele>469.4</ele>
        <time>2025-09-06T14:03:09Z</time>
      </trkpt>
      <trkpt lat="46.18444" lon="4.54437">
        <ele>469.4</ele>
        <time>2025-09-06T14:03:10Z</time>
      </trkpt>
      <trkpt lat="46.18445" lon="4.54435">
        <ele>469</ele>
        <time>2025-09-06T14:03:11Z</time>
      </trkpt>
      <trkpt lat="46.18447" lon="4.54434">
        <ele>469</ele>
        <time>2025-09-06T14:03:12Z</time>
      </trkpt>
      <trkpt lat="46.18448" lon="4.54432">
        <ele>469</ele>
        <time>2025-09-06T14:03:13Z</time>
      </trkpt>
      <trkpt lat="46.1845" lon="4.5443">
        <ele>469</ele>
        <time>2025-09-06T14:03:14Z</time>
      </trkpt>
      <trkpt lat="46.1845" lon="4.54429">
        <ele>469</ele>
        <time>2025-09-06T14:03:15Z</time>
      </trkpt>
      <trkpt lat="46.18451" lon="4.54427">
        <ele>469</ele>
        <time>2025-09-06T14:03:16Z</time>
      </trkpt>
      <trkpt lat="46.18453" lon="4.54425">
        <ele>469</ele>
        <time>2025-09-06T14:03:17Z</time>
      </trkpt>
      <trkpt lat="46.18454" lon="4.54423">
        <ele>469</ele>
        <time>2025-09-06T14:03:18Z</time>
      </trkpt>
      <trkpt lat="46.18456" lon="4.54421">
        <ele>469.2</ele>
        <time>2025-09-06T14:03:19Z</time>
      </trkpt>
      <trkpt lat="46.18457" lon="4.5442">
        <ele>469.2</ele>
        <time>2025-09-06T14:03:20Z</time>
      </trkpt>
      <trkpt lat="46.18458" lon="4.54419">
        <ele>469.2</ele>
        <time>2025-09-06T14:03:21Z</time>
      </trkpt>
      <trkpt lat="46.1846" lon="4.54416">
        <ele>469.2</ele>
        <time>2025-09-06T14:03:22Z</time>
      </trkpt>
      <trkpt lat="46.18461" lon="4.54413">
        <ele>469.6</ele>
        <time>2025-09-06T14:03:23Z</time>
      </trkpt>
      <trkpt lat="46.18462" lon="4.5441">
        <ele>469.6</ele>
        <time>2025-09-06T14:03:24Z</time>
      </trkpt>
      <trkpt lat="46.18464" lon="4.54408">
        <ele>469.6</ele>
        <time>2025-09-06T14:03:25Z</time>
      </trkpt>
      <trkpt lat="46.18465" lon="4.54406">
        <ele>469.6</ele>
        <time>2025-09-06T14:03:26Z</time>
      </trkpt>
      <trkpt lat="46.18466" lon="4.54405">
        <ele>469.8</ele>
        <time>2025-09-06T14:03:27Z</time>
      </trkpt>
      <trkpt lat="46.18467" lon="4.54403">
        <ele>469.8</ele>
        <time>2025-09-06T14:03:28Z</time>
      </trkpt>
      <trkpt lat="46.18469" lon="4.544">
        <ele>469.8</ele>
        <time>2025-09-06T14:03:29Z</time>
      </trkpt>
      <trkpt lat="46.1847" lon="4.54398">
        <ele>469.8</ele>
        <time>2025-09-06T14:03:30Z</time>
      </trkpt>
      <trkpt lat="46.18471" lon="4.54395">
        <ele>469.8</ele>
        <time>2025-09-06T14:03:31Z</time>
      </trkpt>
      <trkpt lat="46.18472" lon="4.54393">
        <ele>469.8</ele>
        <time>2025-09-06T14:03:32Z</time>
      </trkpt>
      <trkpt lat="46.18474" lon="4.5439">
        <ele>469.8</ele>
        <time>2025-09-06T14:03:33Z</time>
      </trkpt>
      <trkpt lat="46.18475" lon="4.54388">
        <ele>470.2</ele>
        <time>2025-09-06T14:03:34Z</time>
      </trkpt>
      <trkpt lat="46.18476" lon="4.54386">
        <ele>470.4</ele>
        <time>2025-09-06T14:03:35Z</time>
      </trkpt>
      <trkpt lat="46.18478" lon="4.54383">
        <ele>470.4</ele>
        <time>2025-09-06T14:03:36Z</time>
      </trkpt>
      <trkpt lat="46.18479" lon="4.54382">
        <ele>470.6</ele>
        <time>2025-09-06T14:03:37Z</time>
      </trkpt>
      <trkpt lat="46.1848" lon="4.54382">
        <ele>470.6</ele>
        <time>2025-09-06T14:03:38Z</time>
      </trkpt>
      <trkpt lat="46.18482" lon="4.5438">
        <ele>470.6</ele>
        <time>2025-09-06T14:03:39Z</time>
      </trkpt>
      <trkpt lat="46.18483" lon="4.54378">
        <ele>470.8</ele>
        <time>2025-09-06T14:03:40Z</time>
      </trkpt>
      <trkpt lat="46.18485" lon="4.54376">
        <ele>470.8</ele>
        <time>2025-09-06T14:03:41Z</time>
      </trkpt>
      <trkpt lat="46.18486" lon="4.54374">
        <ele>470.8</ele>
        <time>2025-09-06T14:03:42Z</time>
      </trkpt>
      <trkpt lat="46.18487" lon="4.54372">
        <ele>470.8</ele>
        <time>2025-09-06T14:03:43Z</time>
      </trkpt>
      <trkpt lat="46.18488" lon="4.5437">
        <ele>470.8</ele>
        <time>2025-09-06T14:03:44Z</time>
      </trkpt>
      <trkpt lat="46.18489" lon="4.54368">
        <ele>471.2</ele>
        <time>2025-09-06T14:03:45Z</time>
      </trkpt>
      <trkpt lat="46.18491" lon="4.54366">
        <ele>471.4</ele>
        <time>2025-09-06T14:03:46Z</time>
      </trkpt>
      <trkpt lat="46.18492" lon="4.54365">
        <ele>471.4</ele>
        <time>2025-09-06T14:03:47Z</time>
      </trkpt>
      <trkpt lat="46.18493" lon="4.54363">
        <ele>471.4</ele>
        <time>2025-09-06T14:03:48Z</time>
      </trkpt>
      <trkpt lat="46.18494" lon="4.54361">
        <ele>471.4</ele>
        <time>2025-09-06T14:03:49Z</time>
      </trkpt>
      <trkpt lat="46.18495" lon="4.54358">
        <ele>471.4</ele>
        <time>2025-09-06T14:03:50Z</time>
      </trkpt>
      <trkpt lat="46.18496" lon="4.54356">
        <ele>471.4</ele>
        <time>2025-09-06T14:03:51Z</time>
      </trkpt>
      <trkpt lat="46.18498" lon="4.54354">
        <ele>471.4</ele>
        <time>2025-09-06T14:03:52Z</time>
      </trkpt>
      <trkpt lat="46.18499" lon="4.54351">
        <ele>471.6</ele>
        <time>2025-09-06T14:03:53Z</time>
      </trkpt>
      <trkpt lat="46.185" lon="4.54349">
        <ele>471.6</ele>
        <time>2025-09-06T14:03:54Z</time>
      </trkpt>
      <trkpt lat="46.18502" lon="4.54347">
        <ele>472.2</ele>
        <time>2025-09-06T14:03:55Z</time>
      </trkpt>
      <trkpt lat="46.18504" lon="4.54345">
        <ele>472.2</ele>
        <time>2025-09-06T14:03:56Z</time>
      </trkpt>
      <trkpt lat="46.18505" lon="4.54343">
        <ele>472.2</ele>
        <time>2025-09-06T14:03:57Z</time>
      </trkpt>
      <trkpt lat="46.18506" lon="4.54341">
        <ele>472.2</ele>
        <time>2025-09-06T14:03:58Z</time>
      </trkpt>
      <trkpt lat="46.18508" lon="4.54338">
        <ele>471.8</ele>
        <time>2025-09-06T14:03:59Z</time>
      </trkpt>
      <trkpt lat="46.18509" lon="4.54336">
        <ele>471.8</ele>
        <time>2025-09-06T14:04:00Z</time>
      </trkpt>
      <trkpt lat="46.1851" lon="4.54334">
        <ele>471.8</ele>
        <time>2025-09-06T14:04:01Z</time>
      </trkpt>
      <trkpt lat="46.18511" lon="4.54332">
        <ele>471.8</ele>
        <time>2025-09-06T14:04:02Z</time>
      </trkpt>
      <trkpt lat="46.18513" lon="4.5433">
        <ele>472.4</ele>
        <time>2025-09-06T14:04:03Z</time>
      </trkpt>
      <trkpt lat="46.18514" lon="4.54328">
        <ele>472.4</ele>
        <time>2025-09-06T14:04:04Z</time>
      </trkpt>
      <trkpt lat="46.18515" lon="4.54326">
        <ele>472.4</ele>
        <time>2025-09-06T14:04:05Z</time>
      </trkpt>
      <trkpt lat="46.18517" lon="4.54325">
        <ele>472.4</ele>
        <time>2025-09-06T14:04:06Z</time>
      </trkpt>
      <trkpt lat="46.18518" lon="4.54322">
        <ele>472.4</ele>
        <time>2025-09-06T14:04:07Z</time>
      </trkpt>
      <trkpt lat="46.1852" lon="4.5432">
        <ele>472.4</ele>
        <time>2025-09-06T14:04:08Z</time>
      </trkpt>
      <trkpt lat="46.18521" lon="4.54318">
        <ele>472.4</ele>
        <time>2025-09-06T14:04:09Z</time>
      </trkpt>
      <trkpt lat="46.18522" lon="4.54316">
        <ele>472.8</ele>
        <time>2025-09-06T14:04:10Z</time>
      </trkpt>
      <trkpt lat="46.18524" lon="4.54314">
        <ele>472.8</ele>
        <time>2025-09-06T14:04:11Z</time>
      </trkpt>
      <trkpt lat="46.18526" lon="4.54312">
        <ele>472.8</ele>
        <time>2025-09-06T14:04:12Z</time>
      </trkpt>
      <trkpt lat="46.18527" lon="4.54311">
        <ele>472.8</ele>
        <time>2025-09-06T14:04:13Z</time>
      </trkpt>
      <trkpt lat="46.18529" lon="4.54309">
        <ele>472.8</ele>
        <time>2025-09-06T14:04:14Z</time>
      </trkpt>
      <trkpt lat="46.1853" lon="4.54307">
        <ele>472.8</ele>
        <time>2025-09-06T14:04:15Z</time>
      </trkpt>
      <trkpt lat="46.18531" lon="4.54305">
        <ele>472.8</ele>
        <time>2025-09-06T14:04:16Z</time>
      </trkpt>
      <trkpt lat="46.18532" lon="4.54303">
        <ele>472.8</ele>
        <time>2025-09-06T14:04:17Z</time>
      </trkpt>
      <trkpt lat="46.18534" lon="4.54301">
        <ele>473</ele>
        <time>2025-09-06T14:04:18Z</time>
      </trkpt>
      <trkpt lat="46.18535" lon="4.54299">
        <ele>473</ele>
        <time>2025-09-06T14:04:19Z</time>
      </trkpt>
      <trkpt lat="46.18536" lon="4.54297">
        <ele>473.4</ele>
        <time>2025-09-06T14:04:20Z</time>
      </trkpt>
      <trkpt lat="46.18537" lon="4.54294">
        <ele>473.8</ele>
        <time>2025-09-06T14:04:21Z</time>
      </trkpt>
      <trkpt lat="46.18538" lon="4.54291">
        <ele>473.8</ele>
        <time>2025-09-06T14:04:22Z</time>
      </trkpt>
      <trkpt lat="46.18539" lon="4.54289">
        <ele>473.8</ele>
        <time>2025-09-06T14:04:23Z</time>
      </trkpt>
      <trkpt lat="46.1854" lon="4.54286">
        <ele>473.8</ele>
        <time>2025-09-06T14:04:24Z</time>
      </trkpt>
      <trkpt lat="46.18541" lon="4.54284">
        <ele>474</ele>
        <time>2025-09-06T14:04:25Z</time>
      </trkpt>
      <trkpt lat="46.18542" lon="4.54282">
        <ele>474</ele>
        <time>2025-09-06T14:04:26Z</time>
      </trkpt>
      <trkpt lat="46.18543" lon="4.54279">
        <ele>474.6</ele>
        <time>2025-09-06T14:04:27Z</time>
      </trkpt>
      <trkpt lat="46.18544" lon="4.54276">
        <ele>474.6</ele>
        <time>2025-09-06T14:04:28Z</time>
      </trkpt>
      <trkpt lat="46.18545" lon="4.54273">
        <ele>474.6</ele>
        <time>2025-09-06T14:04:29Z</time>
      </trkpt>
      <trkpt lat="46.18546" lon="4.54271">
        <ele>474.6</ele>
        <time>2025-09-06T14:04:30Z</time>
      </trkpt>
      <trkpt lat="46.18547" lon="4.54268">
        <ele>474.6</ele>
        <time>2025-09-06T14:04:31Z</time>
      </trkpt>
      <trkpt lat="46.18547" lon="4.54265">
        <ele>474.6</ele>
        <time>2025-09-06T14:04:32Z</time>
      </trkpt>
      <trkpt lat="46.18548" lon="4.54263">
        <ele>474.4</ele>
        <time>2025-09-06T14:04:33Z</time>
      </trkpt>
      <trkpt lat="46.18549" lon="4.5426">
        <ele>474.4</ele>
        <time>2025-09-06T14:04:34Z</time>
      </trkpt>
      <trkpt lat="46.18549" lon="4.54258">
        <ele>474.4</ele>
        <time>2025-09-06T14:04:35Z</time>
      </trkpt>
      <trkpt lat="46.1855" lon="4.54256">
        <ele>474.4</ele>
        <time>2025-09-06T14:04:36Z</time>
      </trkpt>
      <trkpt lat="46.18551" lon="4.54253">
        <ele>474.4</ele>
        <time>2025-09-06T14:04:37Z</time>
      </trkpt>
      <trkpt lat="46.18552" lon="4.54251">
        <ele>474.4</ele>
        <time>2025-09-06T14:04:38Z</time>
      </trkpt>
      <trkpt lat="46.18553" lon="4.54248">
        <ele>474.6</ele>
        <time>2025-09-06T14:04:39Z</time>
      </trkpt>
      <trkpt lat="46.18554" lon="4.54246">
        <ele>474.6</ele>
        <time>2025-09-06T14:04:40Z</time>
      </trkpt>
      <trkpt lat="46.18555" lon="4.54244">
        <ele>474.6</ele>
        <time>2025-09-06T14:04:41Z</time>
      </trkpt>
      <trkpt lat="46.18555" lon="4.54242">
        <ele>475</ele>
        <time>2025-09-06T14:04:42Z</time>
      </trkpt>
      <trkpt lat="46.18556" lon="4.54239">
        <ele>475</ele>
        <time>2025-09-06T14:04:43Z</time>
      </trkpt>
      <trkpt lat="46.18557" lon="4.54237">
        <ele>475</ele>
        <time>2025-09-06T14:04:44Z</time>
      </trkpt>
      <trkpt lat="46.18558" lon="4.54234">
        <ele>474.8</ele>
        <time>2025-09-06T14:04:45Z</time>
      </trkpt>
      <trkpt lat="46.18558" lon="4.54232">
        <ele>474.8</ele>
        <time>2025-09-06T14:04:46Z</time>
      </trkpt>
      <trkpt lat="46.18559" lon="4.54229">
        <ele>475.2</ele>
        <time>2025-09-06T14:04:47Z</time>
      </trkpt>
      <trkpt lat="46.1856" lon="4.54227">
        <ele>475.2</ele>
        <time>2025-09-06T14:04:48Z</time>
      </trkpt>
      <trkpt lat="46.18561" lon="4.54224">
        <ele>475.2</ele>
        <time>2025-09-06T14:04:49Z</time>
      </trkpt>
      <trkpt lat="46.18561" lon="4.54222">
        <ele>475.8</ele>
        <time>2025-09-06T14:04:50Z</time>
      </trkpt>
      <trkpt lat="46.18562" lon="4.54219">
        <ele>476.2</ele>
        <time>2025-09-06T14:04:51Z</time>
      </trkpt>
      <trkpt lat="46.18562" lon="4.54217">
        <ele>476.4</ele>
        <time>2025-09-06T14:04:52Z</time>
      </trkpt>
      <trkpt lat="46.18563" lon="4.54215">
        <ele>476.6</ele>
        <time>2025-09-06T14:04:53Z</time>
      </trkpt>
      <trkpt lat="46.18563" lon="4.54212">
        <ele>476.4</ele>
        <time>2025-09-06T14:04:54Z</time>
      </trkpt>
      <trkpt lat="46.18564" lon="4.54209">
        <ele>476.4</ele>
        <time>2025-09-06T14:04:55Z</time>
      </trkpt>
      <trkpt lat="46.18564" lon="4.54206">
        <ele>476.4</ele>
        <time>2025-09-06T14:04:56Z</time>
      </trkpt>
      <trkpt lat="46.18565" lon="4.54204">
        <ele>476</ele>
        <time>2025-09-06T14:04:57Z</time>
      </trkpt>
      <trkpt lat="46.18566" lon="4.54203">
        <ele>476</ele>
        <time>2025-09-06T14:04:58Z</time>
      </trkpt>
      <trkpt lat="46.18567" lon="4.542">
        <ele>476.4</ele>
        <time>2025-09-06T14:04:59Z</time>
      </trkpt>
      <trkpt lat="46.18568" lon="4.54198">
        <ele>476.6</ele>
        <time>2025-09-06T14:05:00Z</time>
      </trkpt>
      <trkpt lat="46.18569" lon="4.54195">
        <ele>477</ele>
        <time>2025-09-06T14:05:01Z</time>
      </trkpt>
      <trkpt lat="46.1857" lon="4.54193">
        <ele>477</ele>
        <time>2025-09-06T14:05:02Z</time>
      </trkpt>
      <trkpt lat="46.18571" lon="4.54191">
        <ele>477</ele>
        <time>2025-09-06T14:05:03Z</time>
      </trkpt>
      <trkpt lat="46.18572" lon="4.54188">
        <ele>477.2</ele>
        <time>2025-09-06T14:05:04Z</time>
      </trkpt>
      <trkpt lat="46.18573" lon="4.54186">
        <ele>477.2</ele>
        <time>2025-09-06T14:05:05Z</time>
      </trkpt>
      <trkpt lat="46.18574" lon="4.54183">
        <ele>477.4</ele>
        <time>2025-09-06T14:05:06Z</time>
      </trkpt>
      <trkpt lat="46.18575" lon="4.54181">
        <ele>477.4</ele>
        <time>2025-09-06T14:05:07Z</time>
      </trkpt>
      <trkpt lat="46.18576" lon="4.54178">
        <ele>477</ele>
        <time>2025-09-06T14:05:08Z</time>
      </trkpt>
      <trkpt lat="46.18576" lon="4.54175">
        <ele>477</ele>
        <time>2025-09-06T14:05:09Z</time>
      </trkpt>
      <trkpt lat="46.18577" lon="4.54173">
        <ele>477</ele>
        <time>2025-09-06T14:05:10Z</time>
      </trkpt>
      <trkpt lat="46.18577" lon="4.54173">
        <ele>477</ele>
        <time>2025-09-06T14:05:11Z</time>
      </trkpt>
      <trkpt lat="46.18578" lon="4.5417">
        <ele>477.4</ele>
        <time>2025-09-06T14:05:12Z</time>
      </trkpt>
      <trkpt lat="46.18579" lon="4.54168">
        <ele>477.4</ele>
        <time>2025-09-06T14:05:13Z</time>
      </trkpt>
      <trkpt lat="46.1858" lon="4.54165">
        <ele>477.4</ele>
        <time>2025-09-06T14:05:14Z</time>
      </trkpt>
      <trkpt lat="46.18581" lon="4.54163">
        <ele>477.4</ele>
        <time>2025-09-06T14:05:15Z</time>
      </trkpt>
      <trkpt lat="46.18582" lon="4.5416">
        <ele>477.4</ele>
        <time>2025-09-06T14:05:16Z</time>
      </trkpt>
      <trkpt lat="46.18583" lon="4.54158">
        <ele>477.6</ele>
        <time>2025-09-06T14:05:17Z</time>
      </trkpt>
      <trkpt lat="46.18584" lon="4.54156">
        <ele>477.6</ele>
        <time>2025-09-06T14:05:18Z</time>
      </trkpt>
      <trkpt lat="46.18585" lon="4.54154">
        <ele>477.6</ele>
        <time>2025-09-06T14:05:19Z</time>
      </trkpt>
      <trkpt lat="46.18586" lon="4.54152">
        <ele>478</ele>
        <time>2025-09-06T14:05:20Z</time>
      </trkpt>
      <trkpt lat="46.18587" lon="4.54149">
        <ele>478</ele>
        <time>2025-09-06T14:05:21Z</time>
      </trkpt>
      <trkpt lat="46.18588" lon="4.54147">
        <ele>478</ele>
        <time>2025-09-06T14:05:22Z</time>
      </trkpt>
      <trkpt lat="46.18589" lon="4.54145">
        <ele>478</ele>
        <time>2025-09-06T14:05:23Z</time>
      </trkpt>
      <trkpt lat="46.18591" lon="4.54142">
        <ele>478.4</ele>
        <time>2025-09-06T14:05:24Z</time>
      </trkpt>
      <trkpt lat="46.18592" lon="4.5414">
        <ele>478.6</ele>
        <time>2025-09-06T14:05:25Z</time>
      </trkpt>
      <trkpt lat="46.18593" lon="4.54138">
        <ele>478.6</ele>
        <time>2025-09-06T14:05:26Z</time>
      </trkpt>
      <trkpt lat="46.18595" lon="4.54136">
        <ele>478.6</ele>
        <time>2025-09-06T14:05:27Z</time>
      </trkpt>
      <trkpt lat="46.18597" lon="4.54134">
        <ele>478.6</ele>
        <time>2025-09-06T14:05:28Z</time>
      </trkpt>
      <trkpt lat="46.18598" lon="4.54133">
        <ele>478.6</ele>
        <time>2025-09-06T14:05:29Z</time>
      </trkpt>
      <trkpt lat="46.18599" lon="4.54131">
        <ele>478.6</ele>
        <time>2025-09-06T14:05:30Z</time>
      </trkpt>
      <trkpt lat="46.186" lon="4.54129">
        <ele>479</ele>
        <time>2025-09-06T14:05:31Z</time>
      </trkpt>
      <trkpt lat="46.18602" lon="4.54126">
        <ele>479</ele>
        <time>2025-09-06T14:05:32Z</time>
      </trkpt>
      <trkpt lat="46.18602" lon="4.54124">
        <ele>479.2</ele>
        <time>2025-09-06T14:05:33Z</time>
      </trkpt>
      <trkpt lat="46.18604" lon="4.54122">
        <ele>479.2</ele>
        <time>2025-09-06T14:05:34Z</time>
      </trkpt>
      <trkpt lat="46.18605" lon="4.5412">
        <ele>479.2</ele>
        <time>2025-09-06T14:05:35Z</time>
      </trkpt>
      <trkpt lat="46.18606" lon="4.54119">
        <ele>479.2</ele>
        <time>2025-09-06T14:05:36Z</time>
      </trkpt>
      <trkpt lat="46.18607" lon="4.54117">
        <ele>479.2</ele>
        <time>2025-09-06T14:05:37Z</time>
      </trkpt>
      <trkpt lat="46.18608" lon="4.54114">
        <ele>479.2</ele>
        <time>2025-09-06T14:05:38Z</time>
      </trkpt>
      <trkpt lat="46.18611" lon="4.5411">
        <ele>479.4</ele>
        <time>2025-09-06T14:05:39Z</time>
      </trkpt>
      <trkpt lat="46.18612" lon="4.54108">
        <ele>479.4</ele>
        <time>2025-09-06T14:05:40Z</time>
      </trkpt>
      <trkpt lat="46.18614" lon="4.54107">
        <ele>479.6</ele>
        <time>2025-09-06T14:05:41Z</time>
      </trkpt>
      <trkpt lat="46.18615" lon="4.54104">
        <ele>479.6</ele>
        <time>2025-09-06T14:05:42Z</time>
      </trkpt>
      <trkpt lat="46.18617" lon="4.54102">
        <ele>479.8</ele>
        <time>2025-09-06T14:05:43Z</time>
      </trkpt>
      <trkpt lat="46.18618" lon="4.541">
        <ele>479.8</ele>
        <time>2025-09-06T14:05:44Z</time>
      </trkpt>
      <trkpt lat="46.18619" lon="4.54099">
        <ele>479.8</ele>
        <time>2025-09-06T14:05:45Z</time>
      </trkpt>
      <trkpt lat="46.1862" lon="4.54097">
        <ele>479.8</ele>
        <time>2025-09-06T14:05:46Z</time>
      </trkpt>
      <trkpt lat="46.18621" lon="4.54095">
        <ele>479.8</ele>
        <time>2025-09-06T14:05:47Z</time>
      </trkpt>
      <trkpt lat="46.18622" lon="4.54093">
        <ele>479.8</ele>
        <time>2025-09-06T14:05:48Z</time>
      </trkpt>
      <trkpt lat="46.18623" lon="4.54092">
        <ele>480</ele>
        <time>2025-09-06T14:05:49Z</time>
      </trkpt>
      <trkpt lat="46.18624" lon="4.5409">
        <ele>480</ele>
        <time>2025-09-06T14:05:50Z</time>
      </trkpt>
      <trkpt lat="46.18626" lon="4.54089">
        <ele>480.4</ele>
        <time>2025-09-06T14:05:51Z</time>
      </trkpt>
      <trkpt lat="46.18627" lon="4.54087">
        <ele>480.4</ele>
        <time>2025-09-06T14:05:52Z</time>
      </trkpt>
      <trkpt lat="46.18628" lon="4.54085">
        <ele>480.4</ele>
        <time>2025-09-06T14:05:53Z</time>
      </trkpt>
      <trkpt lat="46.1863" lon="4.54083">
        <ele>480.4</ele>
        <time>2025-09-06T14:05:54Z</time>
      </trkpt>
      <trkpt lat="46.18632" lon="4.54081">
        <ele>480.4</ele>
        <time>2025-09-06T14:05:55Z</time>
      </trkpt>
      <trkpt lat="46.18634" lon="4.5408">
        <ele>480.4</ele>
        <time>2025-09-06T14:05:56Z</time>
      </trkpt>
      <trkpt lat="46.18635" lon="4.54079">
        <ele>480.4</ele>
        <time>2025-09-06T14:05:57Z</time>
      </trkpt>
      <trkpt lat="46.18637" lon="4.54077">
        <ele>480.4</ele>
        <time>2025-09-06T14:05:58Z</time>
      </trkpt>
      <trkpt lat="46.18638" lon="4.54076">
        <ele>480.4</ele>
        <time>2025-09-06T14:05:59Z</time>
      </trkpt>
      <trkpt lat="46.1864" lon="4.54074">
        <ele>480.4</ele>
        <time>2025-09-06T14:06:00Z</time>
      </trkpt>
      <trkpt lat="46.18641" lon="4.54072">
        <ele>480.6</ele>
        <time>2025-09-06T14:06:01Z</time>
      </trkpt>
      <trkpt lat="46.18642" lon="4.5407">
        <ele>480.6</ele>
        <time>2025-09-06T14:06:02Z</time>
      </trkpt>
      <trkpt lat="46.18643" lon="4.54069">
        <ele>481</ele>
        <time>2025-09-06T14:06:03Z</time>
      </trkpt>
      <trkpt lat="46.18644" lon="4.54067">
        <ele>481</ele>
        <time>2025-09-06T14:06:04Z</time>
      </trkpt>
      <trkpt lat="46.18645" lon="4.54065">
        <ele>481.2</ele>
        <time>2025-09-06T14:06:05Z</time>
      </trkpt>
      <trkpt lat="46.18646" lon="4.54063">
        <ele>481.2</ele>
        <time>2025-09-06T14:06:06Z</time>
      </trkpt>
      <trkpt lat="46.18648" lon="4.54061">
        <ele>481.2</ele>
        <time>2025-09-06T14:06:07Z</time>
      </trkpt>
      <trkpt lat="46.18649" lon="4.54059">
        <ele>481.2</ele>
        <time>2025-09-06T14:06:08Z</time>
      </trkpt>
      <trkpt lat="46.18651" lon="4.54058">
        <ele>481.2</ele>
        <time>2025-09-06T14:06:09Z</time>
      </trkpt>
      <trkpt lat="46.18652" lon="4.54056">
        <ele>481.2</ele>
        <time>2025-09-06T14:06:10Z</time>
      </trkpt>
      <trkpt lat="46.18654" lon="4.54055">
        <ele>481.6</ele>
        <time>2025-09-06T14:06:11Z</time>
      </trkpt>
      <trkpt lat="46.18656" lon="4.54054">
        <ele>481.6</ele>
        <time>2025-09-06T14:06:12Z</time>
      </trkpt>
      <trkpt lat="46.18657" lon="4.54052">
        <ele>481.6</ele>
        <time>2025-09-06T14:06:13Z</time>
      </trkpt>
      <trkpt lat="46.18659" lon="4.54051">
        <ele>481.6</ele>
        <time>2025-09-06T14:06:14Z</time>
      </trkpt>
      <trkpt lat="46.1866" lon="4.54048">
        <ele>481.6</ele>
        <time>2025-09-06T14:06:15Z</time>
      </trkpt>
      <trkpt lat="46.18661" lon="4.54047">
        <ele>481.6</ele>
        <time>2025-09-06T14:06:16Z</time>
      </trkpt>
      <trkpt lat="46.18663" lon="4.54045">
        <ele>482</ele>
        <time>2025-09-06T14:06:17Z</time>
      </trkpt>
      <trkpt lat="46.18664" lon="4.54044">
        <ele>482</ele>
        <time>2025-09-06T14:06:18Z</time>
      </trkpt>
      <trkpt lat="46.18665" lon="4.54042">
        <ele>482</ele>
        <time>2025-09-06T14:06:19Z</time>
      </trkpt>
      <trkpt lat="46.18666" lon="4.5404">
        <ele>482</ele>
        <time>2025-09-06T14:06:20Z</time>
      </trkpt>
      <trkpt lat="46.18667" lon="4.54039">
        <ele>482.6</ele>
        <time>2025-09-06T14:06:21Z</time>
      </trkpt>
      <trkpt lat="46.18669" lon="4.54037">
        <ele>482.6</ele>
        <time>2025-09-06T14:06:22Z</time>
      </trkpt>
      <trkpt lat="46.18671" lon="4.54034">
        <ele>482.4</ele>
        <time>2025-09-06T14:06:23Z</time>
      </trkpt>
      <trkpt lat="46.18672" lon="4.54031">
        <ele>482</ele>
        <time>2025-09-06T14:06:24Z</time>
      </trkpt>
      <trkpt lat="46.18673" lon="4.54028">
        <ele>482</ele>
        <time>2025-09-06T14:06:25Z</time>
      </trkpt>
      <trkpt lat="46.18674" lon="4.54026">
        <ele>482</ele>
        <time>2025-09-06T14:06:26Z</time>
      </trkpt>
      <trkpt lat="46.18675" lon="4.54025">
        <ele>482.4</ele>
        <time>2025-09-06T14:06:27Z</time>
      </trkpt>
      <trkpt lat="46.18676" lon="4.54022">
        <ele>482.4</ele>
        <time>2025-09-06T14:06:28Z</time>
      </trkpt>
      <trkpt lat="46.18677" lon="4.5402">
        <ele>482.4</ele>
        <time>2025-09-06T14:06:29Z</time>
      </trkpt>
      <trkpt lat="46.18678" lon="4.54018">
        <ele>482.6</ele>
        <time>2025-09-06T14:06:30Z</time>
      </trkpt>
      <trkpt lat="46.18679" lon="4.54016">
        <ele>483</ele>
        <time>2025-09-06T14:06:31Z</time>
      </trkpt>
      <trkpt lat="46.1868" lon="4.54013">
        <ele>483</ele>
        <time>2025-09-06T14:06:32Z</time>
      </trkpt>
      <trkpt lat="46.18682" lon="4.54011">
        <ele>483</ele>
        <time>2025-09-06T14:06:33Z</time>
      </trkpt>
      <trkpt lat="46.18683" lon="4.54009">
        <ele>483</ele>
        <time>2025-09-06T14:06:34Z</time>
      </trkpt>
      <trkpt lat="46.18684" lon="4.54007">
        <ele>483</ele>
        <time>2025-09-06T14:06:35Z</time>
      </trkpt>
      <trkpt lat="46.18685" lon="4.54005">
        <ele>483.4</ele>
        <time>2025-09-06T14:06:36Z</time>
      </trkpt>
      <trkpt lat="46.18685" lon="4.54002">
        <ele>483.6</ele>
        <time>2025-09-06T14:06:37Z</time>
      </trkpt>
      <trkpt lat="46.18686" lon="4.54">
        <ele>483.4</ele>
        <time>2025-09-06T14:06:38Z</time>
      </trkpt>
      <trkpt lat="46.18686" lon="4.53998">
        <ele>483.4</ele>
        <time>2025-09-06T14:06:39Z</time>
      </trkpt>
      <trkpt lat="46.18687" lon="4.53995">
        <ele>483.4</ele>
        <time>2025-09-06T14:06:40Z</time>
      </trkpt>
      <trkpt lat="46.18688" lon="4.53993">
        <ele>483.4</ele>
        <time>2025-09-06T14:06:41Z</time>
      </trkpt>
      <trkpt lat="46.18689" lon="4.5399">
        <ele>483.4</ele>
        <time>2025-09-06T14:06:42Z</time>
      </trkpt>
      <trkpt lat="46.1869" lon="4.53988">
        <ele>483.4</ele>
        <time>2025-09-06T14:06:43Z</time>
      </trkpt>
      <trkpt lat="46.18691" lon="4.53986">
        <ele>483.8</ele>
        <time>2025-09-06T14:06:44Z</time>
      </trkpt>
      <trkpt lat="46.18692" lon="4.53983">
        <ele>483.8</ele>
        <time>2025-09-06T14:06:45Z</time>
      </trkpt>
      <trkpt lat="46.18692" lon="4.53981">
        <ele>483.8</ele>
        <time>2025-09-06T14:06:46Z</time>
      </trkpt>
      <trkpt lat="46.18692" lon="4.53979">
        <ele>483.8</ele>
        <time>2025-09-06T14:06:47Z</time>
      </trkpt>
      <trkpt lat="46.18693" lon="4.53976">
        <ele>484</ele>
        <time>2025-09-06T14:06:48Z</time>
      </trkpt>
      <trkpt lat="46.18694" lon="4.53974">
        <ele>484.4</ele>
        <time>2025-09-06T14:06:49Z</time>
      </trkpt>
      <trkpt lat="46.18695" lon="4.53971">
        <ele>484.4</ele>
        <time>2025-09-06T14:06:50Z</time>
      </trkpt>
      <trkpt lat="46.18696" lon="4.53969">
        <ele>484.4</ele>
        <time>2025-09-06T14:06:51Z</time>
      </trkpt>
      <trkpt lat="46.18697" lon="4.53966">
        <ele>484.4</ele>
        <time>2025-09-06T14:06:52Z</time>
      </trkpt>
      <trkpt lat="46.18698" lon="4.53965">
        <ele>484.4</ele>
        <time>2025-09-06T14:06:53Z</time>
      </trkpt>
      <trkpt lat="46.18698" lon="4.53963">
        <ele>484.4</ele>
        <time>2025-09-06T14:06:54Z</time>
      </trkpt>
      <trkpt lat="46.18699" lon="4.5396">
        <ele>484.4</ele>
        <time>2025-09-06T14:06:55Z</time>
      </trkpt>
      <trkpt lat="46.187" lon="4.53958">
        <ele>484.6</ele>
        <time>2025-09-06T14:06:56Z</time>
      </trkpt>
      <trkpt lat="46.18701" lon="4.53955">
        <ele>484.2</ele>
        <time>2025-09-06T14:06:57Z</time>
      </trkpt>
      <trkpt lat="46.18702" lon="4.53953">
        <ele>484.2</ele>
        <time>2025-09-06T14:06:58Z</time>
      </trkpt>
      <trkpt lat="46.18702" lon="4.53951">
        <ele>484.4</ele>
        <time>2025-09-06T14:06:59Z</time>
      </trkpt>
      <trkpt lat="46.18702" lon="4.53948">
        <ele>484.4</ele>
        <time>2025-09-06T14:07:00Z</time>
      </trkpt>
      <trkpt lat="46.18703" lon="4.53946">
        <ele>484.8</ele>
        <time>2025-09-06T14:07:01Z</time>
      </trkpt>
      <trkpt lat="46.18703" lon="4.53944">
        <ele>485.2</ele>
        <time>2025-09-06T14:07:02Z</time>
      </trkpt>
      <trkpt lat="46.18703" lon="4.53942">
        <ele>485.4</ele>
        <time>2025-09-06T14:07:03Z</time>
      </trkpt>
      <trkpt lat="46.18704" lon="4.53939">
        <ele>485</ele>
        <time>2025-09-06T14:07:04Z</time>
      </trkpt>
      <trkpt lat="46.18704" lon="4.53936">
        <ele>485</ele>
        <time>2025-09-06T14:07:05Z</time>
      </trkpt>
      <trkpt lat="46.18705" lon="4.53933">
        <ele>485.4</ele>
        <time>2025-09-06T14:07:06Z</time>
      </trkpt>
      <trkpt lat="46.18706" lon="4.53931">
        <ele>485.4</ele>
        <time>2025-09-06T14:07:07Z</time>
      </trkpt>
      <trkpt lat="46.18706" lon="4.53928">
        <ele>485.4</ele>
        <time>2025-09-06T14:07:08Z</time>
      </trkpt>
      <trkpt lat="46.18706" lon="4.53926">
        <ele>485.4</ele>
        <time>2025-09-06T14:07:09Z</time>
      </trkpt>
      <trkpt lat="46.18707" lon="4.53923">
        <ele>485.4</ele>
        <time>2025-09-06T14:07:10Z</time>
      </trkpt>
      <trkpt lat="46.18707" lon="4.53921">
        <ele>485.6</ele>
        <time>2025-09-06T14:07:11Z</time>
      </trkpt>
      <trkpt lat="46.18708" lon="4.53918">
        <ele>485.6</ele>
        <time>2025-09-06T14:07:12Z</time>
      </trkpt>
      <trkpt lat="46.18708" lon="4.53916">
        <ele>485.6</ele>
        <time>2025-09-06T14:07:13Z</time>
      </trkpt>
      <trkpt lat="46.18709" lon="4.53913">
        <ele>485.6</ele>
        <time>2025-09-06T14:07:14Z</time>
      </trkpt>
      <trkpt lat="46.18709" lon="4.5391">
        <ele>485.6</ele>
        <time>2025-09-06T14:07:15Z</time>
      </trkpt>
      <trkpt lat="46.1871" lon="4.53907">
        <ele>485.8</ele>
        <time>2025-09-06T14:07:16Z</time>
      </trkpt>
      <trkpt lat="46.18711" lon="4.53904">
        <ele>486.2</ele>
        <time>2025-09-06T14:07:17Z</time>
      </trkpt>
      <trkpt lat="46.18711" lon="4.53901">
        <ele>486.4</ele>
        <time>2025-09-06T14:07:18Z</time>
      </trkpt>
      <trkpt lat="46.18712" lon="4.53898">
        <ele>486.4</ele>
        <time>2025-09-06T14:07:19Z</time>
      </trkpt>
      <trkpt lat="46.18712" lon="4.53896">
        <ele>486.2</ele>
        <time>2025-09-06T14:07:20Z</time>
      </trkpt>
      <trkpt lat="46.18712" lon="4.53894">
        <ele>486</ele>
        <time>2025-09-06T14:07:21Z</time>
      </trkpt>
      <trkpt lat="46.18712" lon="4.53891">
        <ele>486</ele>
        <time>2025-09-06T14:07:22Z</time>
      </trkpt>
      <trkpt lat="46.18713" lon="4.53887">
        <ele>486</ele>
        <time>2025-09-06T14:07:23Z</time>
      </trkpt>
      <trkpt lat="46.18713" lon="4.53883">
        <ele>486</ele>
        <time>2025-09-06T14:07:24Z</time>
      </trkpt>
      <trkpt lat="46.18713" lon="4.5388">
        <ele>486.4</ele>
        <time>2025-09-06T14:07:25Z</time>
      </trkpt>
      <trkpt lat="46.18713" lon="4.53877">
        <ele>486.4</ele>
        <time>2025-09-06T14:07:26Z</time>
      </trkpt>
      <trkpt lat="46.18714" lon="4.53875">
        <ele>486.4</ele>
        <time>2025-09-06T14:07:27Z</time>
      </trkpt>
      <trkpt lat="46.18715" lon="4.53872">
        <ele>486.2</ele>
        <time>2025-09-06T14:07:28Z</time>
      </trkpt>
      <trkpt lat="46.18716" lon="4.5387">
        <ele>486.2</ele>
        <time>2025-09-06T14:07:29Z</time>
      </trkpt>
      <trkpt lat="46.18716" lon="4.53868">
        <ele>486.2</ele>
        <time>2025-09-06T14:07:30Z</time>
      </trkpt>
      <trkpt lat="46.18716" lon="4.53866">
        <ele>486.6</ele>
        <time>2025-09-06T14:07:31Z</time>
      </trkpt>
      <trkpt lat="46.18716" lon="4.53864">
        <ele>486.6</ele>
        <time>2025-09-06T14:07:32Z</time>
      </trkpt>
      <trkpt lat="46.18716" lon="4.53861">
        <ele>486.6</ele>
        <time>2025-09-06T14:07:33Z</time>
      </trkpt>
      <trkpt lat="46.18716" lon="4.53858">
        <ele>486.8</ele>
        <time>2025-09-06T14:07:34Z</time>
      </trkpt>
      <trkpt lat="46.18716" lon="4.53856">
        <ele>487.2</ele>
        <time>2025-09-06T14:07:35Z</time>
      </trkpt>
      <trkpt lat="46.18716" lon="4.53853">
        <ele>487.2</ele>
        <time>2025-09-06T14:07:36Z</time>
      </trkpt>
      <trkpt lat="46.18716" lon="4.5385">
        <ele>487.2</ele>
        <time>2025-09-06T14:07:37Z</time>
      </trkpt>
      <trkpt lat="46.18716" lon="4.53847">
        <ele>487.6</ele>
        <time>2025-09-06T14:07:38Z</time>
      </trkpt>
      <trkpt lat="46.18716" lon="4.53845">
        <ele>487.6</ele>
        <time>2025-09-06T14:07:39Z</time>
      </trkpt>
      <trkpt lat="46.18716" lon="4.53843">
        <ele>487.6</ele>
        <time>2025-09-06T14:07:40Z</time>
      </trkpt>
      <trkpt lat="46.18716" lon="4.5384">
        <ele>487.6</ele>
        <time>2025-09-06T14:07:41Z</time>
      </trkpt>
      <trkpt lat="46.18716" lon="4.53838">
        <ele>487.8</ele>
        <time>2025-09-06T14:07:42Z</time>
      </trkpt>
      <trkpt lat="46.18715" lon="4.53836">
        <ele>487.8</ele>
        <time>2025-09-06T14:07:43Z</time>
      </trkpt>
      <trkpt lat="46.18715" lon="4.53834">
        <ele>487.8</ele>
        <time>2025-09-06T14:07:44Z</time>
      </trkpt>
      <trkpt lat="46.18715" lon="4.53832">
        <ele>487.8</ele>
        <time>2025-09-06T14:07:45Z</time>
      </trkpt>
      <trkpt lat="46.18715" lon="4.5383">
        <ele>487.8</ele>
        <time>2025-09-06T14:07:46Z</time>
      </trkpt>
      <trkpt lat="46.18715" lon="4.53827">
        <ele>487.8</ele>
        <time>2025-09-06T14:07:47Z</time>
      </trkpt>
      <trkpt lat="46.18715" lon="4.53824">
        <ele>487.8</ele>
        <time>2025-09-06T14:07:48Z</time>
      </trkpt>
      <trkpt lat="46.18714" lon="4.53821">
        <ele>487.8</ele>
        <time>2025-09-06T14:07:49Z</time>
      </trkpt>
      <trkpt lat="46.18713" lon="4.53818">
        <ele>487.8</ele>
        <time>2025-09-06T14:07:50Z</time>
      </trkpt>
      <trkpt lat="46.18712" lon="4.53816">
        <ele>487.8</ele>
        <time>2025-09-06T14:07:51Z</time>
      </trkpt>
      <trkpt lat="46.18712" lon="4.53813">
        <ele>488.2</ele>
        <time>2025-09-06T14:07:52Z</time>
      </trkpt>
      <trkpt lat="46.18711" lon="4.5381">
        <ele>488.2</ele>
        <time>2025-09-06T14:07:53Z</time>
      </trkpt>
      <trkpt lat="46.18711" lon="4.53808">
        <ele>488.2</ele>
        <time>2025-09-06T14:07:54Z</time>
      </trkpt>
      <trkpt lat="46.1871" lon="4.53806">
        <ele>488.2</ele>
        <time>2025-09-06T14:07:55Z</time>
      </trkpt>
      <trkpt lat="46.1871" lon="4.53803">
        <ele>488.6</ele>
        <time>2025-09-06T14:07:56Z</time>
      </trkpt>
      <trkpt lat="46.1871" lon="4.538">
        <ele>488.2</ele>
        <time>2025-09-06T14:07:57Z</time>
      </trkpt>
      <trkpt lat="46.18709" lon="4.53797">
        <ele>488.8</ele>
        <time>2025-09-06T14:07:58Z</time>
      </trkpt>
      <trkpt lat="46.18709" lon="4.53794">
        <ele>488.8</ele>
        <time>2025-09-06T14:07:59Z</time>
      </trkpt>
      <trkpt lat="46.18708" lon="4.53792">
        <ele>488.6</ele>
        <time>2025-09-06T14:08:00Z</time>
      </trkpt>
      <trkpt lat="46.18707" lon="4.53789">
        <ele>488.8</ele>
        <time>2025-09-06T14:08:01Z</time>
      </trkpt>
      <trkpt lat="46.18707" lon="4.53786">
        <ele>488.8</ele>
        <time>2025-09-06T14:08:02Z</time>
      </trkpt>
      <trkpt lat="46.18706" lon="4.53784">
        <ele>488.8</ele>
        <time>2025-09-06T14:08:03Z</time>
      </trkpt>
      <trkpt lat="46.18705" lon="4.53782">
        <ele>488.8</ele>
        <time>2025-09-06T14:08:04Z</time>
      </trkpt>
      <trkpt lat="46.18704" lon="4.53779">
        <ele>488.8</ele>
        <time>2025-09-06T14:08:05Z</time>
      </trkpt>
      <trkpt lat="46.18703" lon="4.53777">
        <ele>488.8</ele>
        <time>2025-09-06T14:08:06Z</time>
      </trkpt>
      <trkpt lat="46.18702" lon="4.53776">
        <ele>489</ele>
        <time>2025-09-06T14:08:07Z</time>
      </trkpt>
      <trkpt lat="46.18701" lon="4.53774">
        <ele>489</ele>
        <time>2025-09-06T14:08:08Z</time>
      </trkpt>
      <trkpt lat="46.18699" lon="4.53771">
        <ele>489</ele>
        <time>2025-09-06T14:08:09Z</time>
      </trkpt>
      <trkpt lat="46.18699" lon="4.53768">
        <ele>489</ele>
        <time>2025-09-06T14:08:10Z</time>
      </trkpt>
      <trkpt lat="46.18698" lon="4.53765">
        <ele>489</ele>
        <time>2025-09-06T14:08:11Z</time>
      </trkpt>
      <trkpt lat="46.18697" lon="4.53763">
        <ele>489</ele>
        <time>2025-09-06T14:08:12Z</time>
      </trkpt>
      <trkpt lat="46.18696" lon="4.53761">
        <ele>489.4</ele>
        <time>2025-09-06T14:08:13Z</time>
      </trkpt>
      <trkpt lat="46.18695" lon="4.53759">
        <ele>489.6</ele>
        <time>2025-09-06T14:08:14Z</time>
      </trkpt>
      <trkpt lat="46.18694" lon="4.53757">
        <ele>489.6</ele>
        <time>2025-09-06T14:08:15Z</time>
      </trkpt>
      <trkpt lat="46.18694" lon="4.53756">
        <ele>489.6</ele>
        <time>2025-09-06T14:08:16Z</time>
      </trkpt>
      <trkpt lat="46.18693" lon="4.53754">
        <ele>489.6</ele>
        <time>2025-09-06T14:08:17Z</time>
      </trkpt>
      <trkpt lat="46.18692" lon="4.53752">
        <ele>489.6</ele>
        <time>2025-09-06T14:08:18Z</time>
      </trkpt>
      <trkpt lat="46.1869" lon="4.53749">
        <ele>490</ele>
        <time>2025-09-06T14:08:19Z</time>
      </trkpt>
      <trkpt lat="46.18689" lon="4.53747">
        <ele>490</ele>
        <time>2025-09-06T14:08:20Z</time>
      </trkpt>
      <trkpt lat="46.18688" lon="4.53745">
        <ele>490</ele>
        <time>2025-09-06T14:08:21Z</time>
      </trkpt>
      <trkpt lat="46.18686" lon="4.53743">
        <ele>490.2</ele>
        <time>2025-09-06T14:08:22Z</time>
      </trkpt>
      <trkpt lat="46.18685" lon="4.53741">
        <ele>490.2</ele>
        <time>2025-09-06T14:08:23Z</time>
      </trkpt>
      <trkpt lat="46.18683" lon="4.53739">
        <ele>490</ele>
        <time>2025-09-06T14:08:24Z</time>
      </trkpt>
      <trkpt lat="46.18682" lon="4.53738">
        <ele>490</ele>
        <time>2025-09-06T14:08:25Z</time>
      </trkpt>
      <trkpt lat="46.18681" lon="4.53736">
        <ele>489.8</ele>
        <time>2025-09-06T14:08:26Z</time>
      </trkpt>
      <trkpt lat="46.1868" lon="4.53734">
        <ele>489.8</ele>
        <time>2025-09-06T14:08:27Z</time>
      </trkpt>
      <trkpt lat="46.18679" lon="4.53731">
        <ele>489.8</ele>
        <time>2025-09-06T14:08:28Z</time>
      </trkpt>
      <trkpt lat="46.18678" lon="4.53729">
        <ele>489.8</ele>
        <time>2025-09-06T14:08:29Z</time>
      </trkpt>
      <trkpt lat="46.18677" lon="4.53726">
        <ele>489.8</ele>
        <time>2025-09-06T14:08:30Z</time>
      </trkpt>
      <trkpt lat="46.18677" lon="4.53726">
        <ele>490</ele>
        <time>2025-09-06T14:08:31Z</time>
      </trkpt>
      <trkpt lat="46.18676" lon="4.53724">
        <ele>490</ele>
        <time>2025-09-06T14:08:32Z</time>
      </trkpt>
      <trkpt lat="46.18675" lon="4.53722">
        <ele>490.6</ele>
        <time>2025-09-06T14:08:33Z</time>
      </trkpt>
      <trkpt lat="46.18675" lon="4.5372">
        <ele>490.6</ele>
        <time>2025-09-06T14:08:34Z</time>
      </trkpt>
      <trkpt lat="46.18675" lon="4.53718">
        <ele>490.8</ele>
        <time>2025-09-06T14:08:35Z</time>
      </trkpt>
      <trkpt lat="46.18674" lon="4.53715">
        <ele>490.8</ele>
        <time>2025-09-06T14:08:36Z</time>
      </trkpt>
      <trkpt lat="46.18673" lon="4.53712">
        <ele>490.8</ele>
        <time>2025-09-06T14:08:37Z</time>
      </trkpt>
      <trkpt lat="46.18672" lon="4.53709">
        <ele>490.8</ele>
        <time>2025-09-06T14:08:38Z</time>
      </trkpt>
      <trkpt lat="46.18671" lon="4.53707">
        <ele>490.8</ele>
        <time>2025-09-06T14:08:39Z</time>
      </trkpt>
      <trkpt lat="46.1867" lon="4.53704">
        <ele>490.8</ele>
        <time>2025-09-06T14:08:40Z</time>
      </trkpt>
      <trkpt lat="46.18669" lon="4.53703">
        <ele>490.8</ele>
        <time>2025-09-06T14:08:41Z</time>
      </trkpt>
      <trkpt lat="46.18669" lon="4.53702">
        <ele>491.2</ele>
        <time>2025-09-06T14:08:42Z</time>
      </trkpt>
      <trkpt lat="46.18669" lon="4.53701">
        <ele>491.2</ele>
        <time>2025-09-06T14:08:43Z</time>
      </trkpt>
      <trkpt lat="46.18665" lon="4.53692">
        <ele>492.4</ele>
        <time>2025-09-06T14:13:19Z</time>
      </trkpt>
      <trkpt lat="46.18665" lon="4.53691">
        <ele>492</ele>
        <time>2025-09-06T14:13:20Z</time>
      </trkpt>
      <trkpt lat="46.18664" lon="4.53689">
        <ele>492</ele>
        <time>2025-09-06T14:13:21Z</time>
      </trkpt>
      <trkpt lat="46.18663" lon="4.53687">
        <ele>491.8</ele>
        <time>2025-09-06T14:13:22Z</time>
      </trkpt>
      <trkpt lat="46.18661" lon="4.53685">
        <ele>491.8</ele>
        <time>2025-09-06T14:13:23Z</time>
      </trkpt>
      <trkpt lat="46.1866" lon="4.53683">
        <ele>491.8</ele>
        <time>2025-09-06T14:13:24Z</time>
      </trkpt>
      <trkpt lat="46.18659" lon="4.5368">
        <ele>491.8</ele>
        <time>2025-09-06T14:13:25Z</time>
      </trkpt>
      <trkpt lat="46.18658" lon="4.53677">
        <ele>492.2</ele>
        <time>2025-09-06T14:13:26Z</time>
      </trkpt>
      <trkpt lat="46.18657" lon="4.53675">
        <ele>492.4</ele>
        <time>2025-09-06T14:13:27Z</time>
      </trkpt>
      <trkpt lat="46.18657" lon="4.53673">
        <ele>492.4</ele>
        <time>2025-09-06T14:13:28Z</time>
      </trkpt>
      <trkpt lat="46.18655" lon="4.53671">
        <ele>492.8</ele>
        <time>2025-09-06T14:13:29Z</time>
      </trkpt>
      <trkpt lat="46.18654" lon="4.53668">
        <ele>492.8</ele>
        <time>2025-09-06T14:13:30Z</time>
      </trkpt>
      <trkpt lat="46.18654" lon="4.53667">
        <ele>493</ele>
        <time>2025-09-06T14:13:31Z</time>
      </trkpt>
      <trkpt lat="46.18654" lon="4.53666">
        <ele>493</ele>
        <time>2025-09-06T14:13:32Z</time>
      </trkpt>
      <trkpt lat="46.18654" lon="4.53664">
        <ele>493.4</ele>
        <time>2025-09-06T14:13:33Z</time>
      </trkpt>
      <trkpt lat="46.18654" lon="4.53661">
        <ele>493.4</ele>
        <time>2025-09-06T14:13:34Z</time>
      </trkpt>
      <trkpt lat="46.18653" lon="4.53659">
        <ele>493.4</ele>
        <time>2025-09-06T14:13:35Z</time>
      </trkpt>
      <trkpt lat="46.18653" lon="4.53657">
        <ele>493.4</ele>
        <time>2025-09-06T14:13:36Z</time>
      </trkpt>
      <trkpt lat="46.18653" lon="4.53654">
        <ele>493.4</ele>
        <time>2025-09-06T14:13:37Z</time>
      </trkpt>
      <trkpt lat="46.18653" lon="4.5365">
        <ele>493.4</ele>
        <time>2025-09-06T14:13:38Z</time>
      </trkpt>
      <trkpt lat="46.18653" lon="4.53648">
        <ele>493.4</ele>
        <time>2025-09-06T14:13:39Z</time>
      </trkpt>
      <trkpt lat="46.18652" lon="4.53645">
        <ele>493.4</ele>
        <time>2025-09-06T14:13:40Z</time>
      </trkpt>
      <trkpt lat="46.18652" lon="4.53643">
        <ele>493.4</ele>
        <time>2025-09-06T14:13:41Z</time>
      </trkpt>
      <trkpt lat="46.18652" lon="4.5364">
        <ele>493.6</ele>
        <time>2025-09-06T14:13:42Z</time>
      </trkpt>
      <trkpt lat="46.18652" lon="4.53637">
        <ele>493.6</ele>
        <time>2025-09-06T14:13:43Z</time>
      </trkpt>
      <trkpt lat="46.18652" lon="4.53634">
        <ele>493.6</ele>
        <time>2025-09-06T14:13:44Z</time>
      </trkpt>
      <trkpt lat="46.18651" lon="4.53632">
        <ele>493.6</ele>
        <time>2025-09-06T14:13:45Z</time>
      </trkpt>
      <trkpt lat="46.18649" lon="4.53631">
        <ele>493.4</ele>
        <time>2025-09-06T14:13:46Z</time>
      </trkpt>
      <trkpt lat="46.18648" lon="4.53628">
        <ele>493.8</ele>
        <time>2025-09-06T14:13:47Z</time>
      </trkpt>
      <trkpt lat="46.18648" lon="4.53626">
        <ele>493.6</ele>
        <time>2025-09-06T14:13:48Z</time>
      </trkpt>
      <trkpt lat="46.18648" lon="4.53624">
        <ele>493.6</ele>
        <time>2025-09-06T14:13:49Z</time>
      </trkpt>
      <trkpt lat="46.18648" lon="4.53621">
        <ele>493.6</ele>
        <time>2025-09-06T14:13:50Z</time>
      </trkpt>
      <trkpt lat="46.18649" lon="4.53619">
        <ele>494</ele>
        <time>2025-09-06T14:13:51Z</time>
      </trkpt>
      <trkpt lat="46.1865" lon="4.53616">
        <ele>494</ele>
        <time>2025-09-06T14:13:52Z</time>
      </trkpt>
      <trkpt lat="46.1865" lon="4.53613">
        <ele>494</ele>
        <time>2025-09-06T14:13:53Z</time>
      </trkpt>
      <trkpt lat="46.1865" lon="4.5361">
        <ele>493.8</ele>
        <time>2025-09-06T14:13:54Z</time>
      </trkpt>
      <trkpt lat="46.1865" lon="4.53607">
        <ele>493.8</ele>
        <time>2025-09-06T14:13:55Z</time>
      </trkpt>
      <trkpt lat="46.1865" lon="4.53604">
        <ele>494.2</ele>
        <time>2025-09-06T14:13:56Z</time>
      </trkpt>
      <trkpt lat="46.1865" lon="4.536">
        <ele>494.2</ele>
        <time>2025-09-06T14:13:57Z</time>
      </trkpt>
      <trkpt lat="46.1865" lon="4.53597">
        <ele>494.2</ele>
        <time>2025-09-06T14:13:58Z</time>
      </trkpt>
      <trkpt lat="46.1865" lon="4.53593">
        <ele>494.2</ele>
        <time>2025-09-06T14:13:59Z</time>
      </trkpt>
      <trkpt lat="46.1865" lon="4.5359">
        <ele>494.2</ele>
        <time>2025-09-06T14:14:00Z</time>
      </trkpt>
      <trkpt lat="46.18651" lon="4.53586">
        <ele>494.4</ele>
        <time>2025-09-06T14:14:01Z</time>
      </trkpt>
      <trkpt lat="46.18651" lon="4.53583">
        <ele>494.4</ele>
        <time>2025-09-06T14:14:02Z</time>
      </trkpt>
      <trkpt lat="46.18651" lon="4.5358">
        <ele>494.4</ele>
        <time>2025-09-06T14:14:03Z</time>
      </trkpt>
      <trkpt lat="46.18651" lon="4.53577">
        <ele>494.4</ele>
        <time>2025-09-06T14:14:04Z</time>
      </trkpt>
      <trkpt lat="46.18652" lon="4.53574">
        <ele>494.8</ele>
        <time>2025-09-06T14:14:05Z</time>
      </trkpt>
      <trkpt lat="46.18653" lon="4.53571">
        <ele>494.8</ele>
        <time>2025-09-06T14:14:06Z</time>
      </trkpt>
      <trkpt lat="46.18653" lon="4.53568">
        <ele>494.8</ele>
        <time>2025-09-06T14:14:07Z</time>
      </trkpt>
      <trkpt lat="46.18654" lon="4.53565">
        <ele>494.8</ele>
        <time>2025-09-06T14:14:08Z</time>
      </trkpt>
      <trkpt lat="46.18654" lon="4.53562">
        <ele>494.8</ele>
        <time>2025-09-06T14:14:09Z</time>
      </trkpt>
      <trkpt lat="46.18654" lon="4.5356">
        <ele>495</ele>
        <time>2025-09-06T14:14:10Z</time>
      </trkpt>
      <trkpt lat="46.18655" lon="4.53557">
        <ele>495.2</ele>
        <time>2025-09-06T14:14:11Z</time>
      </trkpt>
      <trkpt lat="46.18655" lon="4.53555">
        <ele>495.2</ele>
        <time>2025-09-06T14:14:12Z</time>
      </trkpt>
      <trkpt lat="46.18655" lon="4.53553">
        <ele>495.6</ele>
        <time>2025-09-06T14:14:13Z</time>
      </trkpt>
      <trkpt lat="46.18655" lon="4.53551">
        <ele>495.6</ele>
        <time>2025-09-06T14:14:14Z</time>
      </trkpt>
      <trkpt lat="46.18654" lon="4.53548">
        <ele>495.8</ele>
        <time>2025-09-06T14:14:15Z</time>
      </trkpt>
      <trkpt lat="46.18654" lon="4.53546">
        <ele>495.8</ele>
        <time>2025-09-06T14:14:16Z</time>
      </trkpt>
      <trkpt lat="46.18654" lon="4.53544">
        <ele>495.8</ele>
        <time>2025-09-06T14:14:17Z</time>
      </trkpt>
      <trkpt lat="46.18654" lon="4.53542">
        <ele>495.8</ele>
        <time>2025-09-06T14:14:18Z</time>
      </trkpt>
      <trkpt lat="46.18654" lon="4.53539">
        <ele>495.8</ele>
        <time>2025-09-06T14:14:19Z</time>
      </trkpt>
      <trkpt lat="46.18654" lon="4.53537">
        <ele>495.8</ele>
        <time>2025-09-06T14:14:20Z</time>
      </trkpt>
      <trkpt lat="46.18654" lon="4.53534">
        <ele>495.4</ele>
        <time>2025-09-06T14:14:21Z</time>
      </trkpt>
      <trkpt lat="46.18654" lon="4.53532">
        <ele>495.4</ele>
        <time>2025-09-06T14:14:22Z</time>
      </trkpt>
      <trkpt lat="46.18654" lon="4.53529">
        <ele>495.4</ele>
        <time>2025-09-06T14:14:23Z</time>
      </trkpt>
      <trkpt lat="46.18654" lon="4.53527">
        <ele>495.8</ele>
        <time>2025-09-06T14:14:24Z</time>
      </trkpt>
      <trkpt lat="46.18654" lon="4.53525">
        <ele>496.4</ele>
        <time>2025-09-06T14:14:25Z</time>
      </trkpt>
      <trkpt lat="46.18653" lon="4.53522">
        <ele>496</ele>
        <time>2025-09-06T14:14:26Z</time>
      </trkpt>
      <trkpt lat="46.18653" lon="4.53519">
        <ele>496.4</ele>
        <time>2025-09-06T14:14:27Z</time>
      </trkpt>
      <trkpt lat="46.18652" lon="4.53517">
        <ele>496.2</ele>
        <time>2025-09-06T14:14:28Z</time>
      </trkpt>
      <trkpt lat="46.18652" lon="4.53514">
        <ele>496.2</ele>
        <time>2025-09-06T14:14:29Z</time>
      </trkpt>
      <trkpt lat="46.18651" lon="4.53511">
        <ele>496.2</ele>
        <time>2025-09-06T14:14:30Z</time>
      </trkpt>
      <trkpt lat="46.18651" lon="4.53509">
        <ele>496.2</ele>
        <time>2025-09-06T14:14:31Z</time>
      </trkpt>
      <trkpt lat="46.1865" lon="4.53506">
        <ele>496.2</ele>
        <time>2025-09-06T14:14:32Z</time>
      </trkpt>
      <trkpt lat="46.1865" lon="4.53503">
        <ele>496.2</ele>
        <time>2025-09-06T14:14:33Z</time>
      </trkpt>
      <trkpt lat="46.18649" lon="4.535">
        <ele>496.2</ele>
        <time>2025-09-06T14:14:34Z</time>
      </trkpt>
      <trkpt lat="46.18648" lon="4.53497">
        <ele>496</ele>
        <time>2025-09-06T14:14:35Z</time>
      </trkpt>
      <trkpt lat="46.18648" lon="4.53495">
        <ele>496.2</ele>
        <time>2025-09-06T14:14:36Z</time>
      </trkpt>
      <trkpt lat="46.18647" lon="4.53492">
        <ele>496.2</ele>
        <time>2025-09-06T14:14:37Z</time>
      </trkpt>
      <trkpt lat="46.18645" lon="4.53489">
        <ele>496.6</ele>
        <time>2025-09-06T14:14:38Z</time>
      </trkpt>
      <trkpt lat="46.18644" lon="4.53486">
        <ele>496.8</ele>
        <time>2025-09-06T14:14:39Z</time>
      </trkpt>
      <trkpt lat="46.18643" lon="4.53484">
        <ele>496.8</ele>
        <time>2025-09-06T14:14:40Z</time>
      </trkpt>
      <trkpt lat="46.18642" lon="4.53481">
        <ele>496.4</ele>
        <time>2025-09-06T14:14:41Z</time>
      </trkpt>
      <trkpt lat="46.18641" lon="4.53479">
        <ele>496.4</ele>
        <time>2025-09-06T14:14:42Z</time>
      </trkpt>
      <trkpt lat="46.1864" lon="4.53477">
        <ele>496.4</ele>
        <time>2025-09-06T14:14:43Z</time>
      </trkpt>
      <trkpt lat="46.18639" lon="4.53474">
        <ele>496.4</ele>
        <time>2025-09-06T14:14:44Z</time>
      </trkpt>
      <trkpt lat="46.18637" lon="4.53472">
        <ele>496.8</ele>
        <time>2025-09-06T14:14:45Z</time>
      </trkpt>
      <trkpt lat="46.18636" lon="4.5347">
        <ele>496.8</ele>
        <time>2025-09-06T14:14:46Z</time>
      </trkpt>
      <trkpt lat="46.18635" lon="4.53469">
        <ele>496.8</ele>
        <time>2025-09-06T14:14:47Z</time>
      </trkpt>
      <trkpt lat="46.18633" lon="4.53467">
        <ele>496.8</ele>
        <time>2025-09-06T14:14:48Z</time>
      </trkpt>
      <trkpt lat="46.18631" lon="4.53465">
        <ele>496.6</ele>
        <time>2025-09-06T14:14:49Z</time>
      </trkpt>
      <trkpt lat="46.1863" lon="4.53463">
        <ele>496.6</ele>
        <time>2025-09-06T14:14:50Z</time>
      </trkpt>
      <trkpt lat="46.18629" lon="4.53462">
        <ele>496.8</ele>
        <time>2025-09-06T14:14:51Z</time>
      </trkpt>
      <trkpt lat="46.18628" lon="4.5346">
        <ele>497.2</ele>
        <time>2025-09-06T14:14:52Z</time>
      </trkpt>
      <trkpt lat="46.18628" lon="4.5346">
        <ele>497.2</ele>
        <time>2025-09-06T14:14:53Z</time>
      </trkpt>
      <trkpt lat="46.18627" lon="4.53459">
        <ele>497.4</ele>
        <time>2025-09-06T14:14:54Z</time>
      </trkpt>
      <trkpt lat="46.18626" lon="4.53457">
        <ele>497.4</ele>
        <time>2025-09-06T14:14:55Z</time>
      </trkpt>
      <trkpt lat="46.18625" lon="4.53456">
        <ele>497.6</ele>
        <time>2025-09-06T14:14:56Z</time>
      </trkpt>
      <trkpt lat="46.18624" lon="4.53455">
        <ele>497.6</ele>
        <time>2025-09-06T14:14:57Z</time>
      </trkpt>
      <trkpt lat="46.18623" lon="4.53454">
        <ele>497.6</ele>
        <time>2025-09-06T14:14:58Z</time>
      </trkpt>
      <trkpt lat="46.18621" lon="4.53452">
        <ele>497.6</ele>
        <time>2025-09-06T14:14:59Z</time>
      </trkpt>
      <trkpt lat="46.1862" lon="4.53451">
        <ele>497.8</ele>
        <time>2025-09-06T14:15:00Z</time>
      </trkpt>
      <trkpt lat="46.18619" lon="4.53449">
        <ele>497.8</ele>
        <time>2025-09-06T14:15:01Z</time>
      </trkpt>
      <trkpt lat="46.18618" lon="4.53447">
        <ele>498.4</ele>
        <time>2025-09-06T14:15:02Z</time>
      </trkpt>
      <trkpt lat="46.18617" lon="4.53445">
        <ele>498.4</ele>
        <time>2025-09-06T14:15:03Z</time>
      </trkpt>
      <trkpt lat="46.18615" lon="4.53444">
        <ele>498.4</ele>
        <time>2025-09-06T14:15:04Z</time>
      </trkpt>
      <trkpt lat="46.18614" lon="4.53443">
        <ele>498.4</ele>
        <time>2025-09-06T14:15:05Z</time>
      </trkpt>
      <trkpt lat="46.18613" lon="4.53443">
        <ele>498.4</ele>
        <time>2025-09-06T14:15:06Z</time>
      </trkpt>
      <trkpt lat="46.18613" lon="4.53443">
        <ele>498.4</ele>
        <time>2025-09-06T14:15:07Z</time>
      </trkpt>
      <trkpt lat="46.18615" lon="4.53444">
        <ele>498.8</ele>
        <time>2025-09-06T14:15:12Z</time>
      </trkpt>
      <trkpt lat="46.18615" lon="4.53444">
        <ele>498.4</ele>
        <time>2025-09-06T14:15:13Z</time>
      </trkpt>
      <trkpt lat="46.18615" lon="4.53444">
        <ele>498.4</ele>
        <time>2025-09-06T14:15:14Z</time>
      </trkpt>
      <trkpt lat="46.1861" lon="4.5344">
        <ele>498.8</ele>
        <time>2025-09-06T14:20:03Z</time>
      </trkpt>
      <trkpt lat="46.1861" lon="4.5344">
        <ele>498.6</ele>
        <time>2025-09-06T14:20:04Z</time>
      </trkpt>
      <trkpt lat="46.1861" lon="4.5344">
        <ele>498.6</ele>
        <time>2025-09-06T14:20:05Z</time>
      </trkpt>
      <trkpt lat="46.18605" lon="4.53432">
        <ele>499</ele>
        <time>2025-09-06T14:20:08Z</time>
      </trkpt>
      <trkpt lat="46.18603" lon="4.5343">
        <ele>499</ele>
        <time>2025-09-06T14:20:09Z</time>
      </trkpt>
      <trkpt lat="46.18601" lon="4.53427">
        <ele>499.6</ele>
        <time>2025-09-06T14:20:10Z</time>
      </trkpt>
      <trkpt lat="46.186" lon="4.53425">
        <ele>499.6</ele>
        <time>2025-09-06T14:20:11Z</time>
      </trkpt>
      <trkpt lat="46.18599" lon="4.53423">
        <ele>499.6</ele>
        <time>2025-09-06T14:20:12Z</time>
      </trkpt>
      <trkpt lat="46.18598" lon="4.5342">
        <ele>499.8</ele>
        <time>2025-09-06T14:20:13Z</time>
      </trkpt>
      <trkpt lat="46.18595" lon="4.53416">
        <ele>499.8</ele>
        <time>2025-09-06T14:20:14Z</time>
      </trkpt>
      <trkpt lat="46.18594" lon="4.53414">
        <ele>499.2</ele>
        <time>2025-09-06T14:20:15Z</time>
      </trkpt>
      <trkpt lat="46.18593" lon="4.53412">
        <ele>499.2</ele>
        <time>2025-09-06T14:20:16Z</time>
      </trkpt>
      <trkpt lat="46.18592" lon="4.5341">
        <ele>498.6</ele>
        <time>2025-09-06T14:20:17Z</time>
      </trkpt>
      <trkpt lat="46.1859" lon="4.53408">
        <ele>499.4</ele>
        <time>2025-09-06T14:20:18Z</time>
      </trkpt>
      <trkpt lat="46.18588" lon="4.53405">
        <ele>499.6</ele>
        <time>2025-09-06T14:20:19Z</time>
      </trkpt>
      <trkpt lat="46.18587" lon="4.53404">
        <ele>499.8</ele>
        <time>2025-09-06T14:20:20Z</time>
      </trkpt>
      <trkpt lat="46.18586" lon="4.53402">
        <ele>499.8</ele>
        <time>2025-09-06T14:20:21Z</time>
      </trkpt>
      <trkpt lat="46.18586" lon="4.534">
        <ele>499.8</ele>
        <time>2025-09-06T14:20:22Z</time>
      </trkpt>
      <trkpt lat="46.18586" lon="4.53399">
        <ele>499.8</ele>
        <time>2025-09-06T14:20:23Z</time>
      </trkpt>
      <trkpt lat="46.18585" lon="4.53397">
        <ele>499.8</ele>
        <time>2025-09-06T14:20:24Z</time>
      </trkpt>
      <trkpt lat="46.18584" lon="4.53395">
        <ele>499.8</ele>
        <time>2025-09-06T14:20:25Z</time>
      </trkpt>
      <trkpt lat="46.18583" lon="4.53393">
        <ele>500</ele>
        <time>2025-09-06T14:20:26Z</time>
      </trkpt>
      <trkpt lat="46.18581" lon="4.53392">
        <ele>500</ele>
        <time>2025-09-06T14:20:27Z</time>
      </trkpt>
      <trkpt lat="46.1858" lon="4.5339">
        <ele>500.4</ele>
        <time>2025-09-06T14:20:28Z</time>
      </trkpt>
      <trkpt lat="46.18579" lon="4.53389">
        <ele>500.4</ele>
        <time>2025-09-06T14:20:29Z</time>
      </trkpt>
      <trkpt lat="46.18578" lon="4.53388">
        <ele>500.4</ele>
        <time>2025-09-06T14:20:30Z</time>
      </trkpt>
      <trkpt lat="46.18577" lon="4.53387">
        <ele>500.6</ele>
        <time>2025-09-06T14:20:31Z</time>
      </trkpt>
      <trkpt lat="46.18574" lon="4.53385">
        <ele>500.4</ele>
        <time>2025-09-06T14:20:32Z</time>
      </trkpt>
      <trkpt lat="46.18571" lon="4.53383">
        <ele>500.4</ele>
        <time>2025-09-06T14:20:33Z</time>
      </trkpt>
      <trkpt lat="46.18569" lon="4.53381">
        <ele>500.4</ele>
        <time>2025-09-06T14:20:34Z</time>
      </trkpt>
      <trkpt lat="46.18567" lon="4.5338">
        <ele>500.6</ele>
        <time>2025-09-06T14:20:35Z</time>
      </trkpt>
      <trkpt lat="46.18566" lon="4.53379">
        <ele>500.8</ele>
        <time>2025-09-06T14:20:36Z</time>
      </trkpt>
      <trkpt lat="46.18564" lon="4.53377">
        <ele>501.2</ele>
        <time>2025-09-06T14:20:37Z</time>
      </trkpt>
      <trkpt lat="46.18563" lon="4.53376">
        <ele>501.2</ele>
        <time>2025-09-06T14:20:38Z</time>
      </trkpt>
      <trkpt lat="46.18562" lon="4.53374">
        <ele>501</ele>
        <time>2025-09-06T14:20:39Z</time>
      </trkpt>
      <trkpt lat="46.1856" lon="4.53371">
        <ele>501</ele>
        <time>2025-09-06T14:20:40Z</time>
      </trkpt>
      <trkpt lat="46.18559" lon="4.5337">
        <ele>501</ele>
        <time>2025-09-06T14:20:41Z</time>
      </trkpt>
      <trkpt lat="46.18558" lon="4.53368">
        <ele>502</ele>
        <time>2025-09-06T14:20:42Z</time>
      </trkpt>
      <trkpt lat="46.18556" lon="4.53367">
        <ele>502</ele>
        <time>2025-09-06T14:20:43Z</time>
      </trkpt>
      <trkpt lat="46.18555" lon="4.53366">
        <ele>502</ele>
        <time>2025-09-06T14:20:44Z</time>
      </trkpt>
      <trkpt lat="46.18553" lon="4.53366">
        <ele>502</ele>
        <time>2025-09-06T14:20:45Z</time>
      </trkpt>
      <trkpt lat="46.18551" lon="4.53365">
        <ele>502</ele>
        <time>2025-09-06T14:20:46Z</time>
      </trkpt>
      <trkpt lat="46.1855" lon="4.53364">
        <ele>502</ele>
        <time>2025-09-06T14:20:47Z</time>
      </trkpt>
      <trkpt lat="46.18549" lon="4.53363">
        <ele>502.4</ele>
        <time>2025-09-06T14:20:48Z</time>
      </trkpt>
      <trkpt lat="46.18547" lon="4.53362">
        <ele>502.4</ele>
        <time>2025-09-06T14:20:49Z</time>
      </trkpt>
      <trkpt lat="46.18545" lon="4.5336">
        <ele>502.4</ele>
        <time>2025-09-06T14:20:50Z</time>
      </trkpt>
      <trkpt lat="46.18543" lon="4.53358">
        <ele>502.4</ele>
        <time>2025-09-06T14:20:51Z</time>
      </trkpt>
      <trkpt lat="46.18541" lon="4.53356">
        <ele>502.4</ele>
        <time>2025-09-06T14:20:52Z</time>
      </trkpt>
      <trkpt lat="46.18539" lon="4.53355">
        <ele>502.4</ele>
        <time>2025-09-06T14:20:53Z</time>
      </trkpt>
      <trkpt lat="46.18537" lon="4.53354">
        <ele>502.8</ele>
        <time>2025-09-06T14:20:54Z</time>
      </trkpt>
      <trkpt lat="46.18536" lon="4.53354">
        <ele>502.8</ele>
        <time>2025-09-06T14:20:55Z</time>
      </trkpt>
      <trkpt lat="46.18534" lon="4.53353">
        <ele>502.8</ele>
        <time>2025-09-06T14:20:56Z</time>
      </trkpt>
      <trkpt lat="46.18532" lon="4.53352">
        <ele>503</ele>
        <time>2025-09-06T14:20:57Z</time>
      </trkpt>
      <trkpt lat="46.18531" lon="4.53351">
        <ele>503</ele>
        <time>2025-09-06T14:20:58Z</time>
      </trkpt>
      <trkpt lat="46.18529" lon="4.53351">
        <ele>503</ele>
        <time>2025-09-06T14:20:59Z</time>
      </trkpt>
      <trkpt lat="46.18529" lon="4.53351">
        <ele>503.4</ele>
        <time>2025-09-06T14:21:00Z</time>
      </trkpt>
      <trkpt lat="46.18525" lon="4.53348">
        <ele>503</ele>
        <time>2025-09-06T14:21:01Z</time>
      </trkpt>
      <trkpt lat="46.18523" lon="4.53346">
        <ele>503</ele>
        <time>2025-09-06T14:21:02Z</time>
      </trkpt>
      <trkpt lat="46.18522" lon="4.53345">
        <ele>503.4</ele>
        <time>2025-09-06T14:21:03Z</time>
      </trkpt>
      <trkpt lat="46.18519" lon="4.53343">
        <ele>503.4</ele>
        <time>2025-09-06T14:21:04Z</time>
      </trkpt>
      <trkpt lat="46.18517" lon="4.53342">
        <ele>503.6</ele>
        <time>2025-09-06T14:21:05Z</time>
      </trkpt>
      <trkpt lat="46.18514" lon="4.53341">
        <ele>503.6</ele>
        <time>2025-09-06T14:21:06Z</time>
      </trkpt>
      <trkpt lat="46.18512" lon="4.5334">
        <ele>503.6</ele>
        <time>2025-09-06T14:21:07Z</time>
      </trkpt>
      <trkpt lat="46.1851" lon="4.5334">
        <ele>503.6</ele>
        <time>2025-09-06T14:21:08Z</time>
      </trkpt>
      <trkpt lat="46.18508" lon="4.53339">
        <ele>503.6</ele>
        <time>2025-09-06T14:21:09Z</time>
      </trkpt>
      <trkpt lat="46.18506" lon="4.53338">
        <ele>503.6</ele>
        <time>2025-09-06T14:21:10Z</time>
      </trkpt>
      <trkpt lat="46.18504" lon="4.53337">
        <ele>504</ele>
        <time>2025-09-06T14:21:11Z</time>
      </trkpt>
      <trkpt lat="46.18501" lon="4.53336">
        <ele>504</ele>
        <time>2025-09-06T14:21:12Z</time>
      </trkpt>
      <trkpt lat="46.18499" lon="4.53335">
        <ele>504.2</ele>
        <time>2025-09-06T14:21:13Z</time>
      </trkpt>
      <trkpt lat="46.18497" lon="4.53334">
        <ele>504.2</ele>
        <time>2025-09-06T14:21:14Z</time>
      </trkpt>
      <trkpt lat="46.18495" lon="4.53333">
        <ele>504.2</ele>
        <time>2025-09-06T14:21:15Z</time>
      </trkpt>
      <trkpt lat="46.18493" lon="4.53332">
        <ele>503.6</ele>
        <time>2025-09-06T14:21:16Z</time>
      </trkpt>
      <trkpt lat="46.18491" lon="4.53332">
        <ele>503.8</ele>
        <time>2025-09-06T14:21:17Z</time>
      </trkpt>
      <trkpt lat="46.18488" lon="4.53332">
        <ele>503.8</ele>
        <time>2025-09-06T14:21:18Z</time>
      </trkpt>
      <trkpt lat="46.18486" lon="4.53333">
        <ele>504</ele>
        <time>2025-09-06T14:21:19Z</time>
      </trkpt>
      <trkpt lat="46.18484" lon="4.53333">
        <ele>504</ele>
        <time>2025-09-06T14:21:20Z</time>
      </trkpt>
      <trkpt lat="46.18482" lon="4.53333">
        <ele>504</ele>
        <time>2025-09-06T14:21:21Z</time>
      </trkpt>
      <trkpt lat="46.1848" lon="4.53333">
        <ele>504</ele>
        <time>2025-09-06T14:21:22Z</time>
      </trkpt>
      <trkpt lat="46.18478" lon="4.53333">
        <ele>504.4</ele>
        <time>2025-09-06T14:21:23Z</time>
      </trkpt>
      <trkpt lat="46.18476" lon="4.53332">
        <ele>504.4</ele>
        <time>2025-09-06T14:21:24Z</time>
      </trkpt>
      <trkpt lat="46.18474" lon="4.53332">
        <ele>504.2</ele>
        <time>2025-09-06T14:21:25Z</time>
      </trkpt>
      <trkpt lat="46.18472" lon="4.53333">
        <ele>504.2</ele>
        <time>2025-09-06T14:21:26Z</time>
      </trkpt>
      <trkpt lat="46.1847" lon="4.53334">
        <ele>504.2</ele>
        <time>2025-09-06T14:21:27Z</time>
      </trkpt>
      <trkpt lat="46.18468" lon="4.53334">
        <ele>504.4</ele>
        <time>2025-09-06T14:21:28Z</time>
      </trkpt>
      <trkpt lat="46.18468" lon="4.53334">
        <ele>504.4</ele>
        <time>2025-09-06T14:21:29Z</time>
      </trkpt>
      <trkpt lat="46.18465" lon="4.53334">
        <ele>504.4</ele>
        <time>2025-09-06T14:21:30Z</time>
      </trkpt>
      <trkpt lat="46.18463" lon="4.53333">
        <ele>504.4</ele>
        <time>2025-09-06T14:21:31Z</time>
      </trkpt>
      <trkpt lat="46.18462" lon="4.53333">
        <ele>504.4</ele>
        <time>2025-09-06T14:21:32Z</time>
      </trkpt>
      <trkpt lat="46.1846" lon="4.53333">
        <ele>504.4</ele>
        <time>2025-09-06T14:21:33Z</time>
      </trkpt>
      <trkpt lat="46.18458" lon="4.53333">
        <ele>504.4</ele>
        <time>2025-09-06T14:21:34Z</time>
      </trkpt>
      <trkpt lat="46.18455" lon="4.53334">
        <ele>504.4</ele>
        <time>2025-09-06T14:21:35Z</time>
      </trkpt>
      <trkpt lat="46.18452" lon="4.53335">
        <ele>504.8</ele>
        <time>2025-09-06T14:21:36Z</time>
      </trkpt>
      <trkpt lat="46.18451" lon="4.53336">
        <ele>504.8</ele>
        <time>2025-09-06T14:21:37Z</time>
      </trkpt>
      <trkpt lat="46.18449" lon="4.53335">
        <ele>505.2</ele>
        <time>2025-09-06T14:21:38Z</time>
      </trkpt>
      <trkpt lat="46.18447" lon="4.53335">
        <ele>504.8</ele>
        <time>2025-09-06T14:21:39Z</time>
      </trkpt>
      <trkpt lat="46.18445" lon="4.53334">
        <ele>504.8</ele>
        <time>2025-09-06T14:21:40Z</time>
      </trkpt>
      <trkpt lat="46.18444" lon="4.53334">
        <ele>505</ele>
        <time>2025-09-06T14:21:41Z</time>
      </trkpt>
      <trkpt lat="46.18443" lon="4.53333">
        <ele>505</ele>
        <time>2025-09-06T14:21:42Z</time>
      </trkpt>
      <trkpt lat="46.18441" lon="4.53334">
        <ele>505.2</ele>
        <time>2025-09-06T14:21:43Z</time>
      </trkpt>
      <trkpt lat="46.1844" lon="4.53334">
        <ele>505.2</ele>
        <time>2025-09-06T14:21:44Z</time>
      </trkpt>
      <trkpt lat="46.18438" lon="4.53336">
        <ele>505.6</ele>
        <time>2025-09-06T14:21:45Z</time>
      </trkpt>
      <trkpt lat="46.18436" lon="4.53337">
        <ele>505.8</ele>
        <time>2025-09-06T14:21:46Z</time>
      </trkpt>
      <trkpt lat="46.18434" lon="4.53337">
        <ele>505.8</ele>
        <time>2025-09-06T14:21:47Z</time>
      </trkpt>
      <trkpt lat="46.18433" lon="4.53338">
        <ele>505.8</ele>
        <time>2025-09-06T14:21:48Z</time>
      </trkpt>
      <trkpt lat="46.18432" lon="4.53338">
        <ele>506.2</ele>
        <time>2025-09-06T14:21:49Z</time>
      </trkpt>
      <trkpt lat="46.1843" lon="4.53338">
        <ele>506.2</ele>
        <time>2025-09-06T14:21:50Z</time>
      </trkpt>
      <trkpt lat="46.18428" lon="4.53338">
        <ele>506.2</ele>
        <time>2025-09-06T14:21:51Z</time>
      </trkpt>
      <trkpt lat="46.18427" lon="4.53338">
        <ele>506.2</ele>
        <time>2025-09-06T14:21:52Z</time>
      </trkpt>
      <trkpt lat="46.18425" lon="4.53337">
        <ele>506.2</ele>
        <time>2025-09-06T14:21:53Z</time>
      </trkpt>
      <trkpt lat="46.18422" lon="4.53337">
        <ele>506.2</ele>
        <time>2025-09-06T14:21:54Z</time>
      </trkpt>
      <trkpt lat="46.18421" lon="4.53337">
        <ele>506.2</ele>
        <time>2025-09-06T14:21:55Z</time>
      </trkpt>
      <trkpt lat="46.18421" lon="4.53337">
        <ele>506.2</ele>
        <time>2025-09-06T14:21:56Z</time>
      </trkpt>
      <trkpt lat="46.18424" lon="4.53338">
        <ele>505.6</ele>
        <time>2025-09-06T14:22:05Z</time>
      </trkpt>
      <trkpt lat="46.18425" lon="4.53338">
        <ele>505.6</ele>
        <time>2025-09-06T14:22:06Z</time>
      </trkpt>
      <trkpt lat="46.18425" lon="4.53337">
        <ele>505.4</ele>
        <time>2025-09-06T14:22:07Z</time>
      </trkpt>
      <trkpt lat="46.18425" lon="4.53336">
        <ele>505.4</ele>
        <time>2025-09-06T14:22:08Z</time>
      </trkpt>
      <trkpt lat="46.18425" lon="4.53335">
        <ele>505.4</ele>
        <time>2025-09-06T14:22:09Z</time>
      </trkpt>
      <trkpt lat="46.18426" lon="4.53334">
        <ele>505.4</ele>
        <time>2025-09-06T14:22:10Z</time>
      </trkpt>
      <trkpt lat="46.18426" lon="4.53333">
        <ele>505.4</ele>
        <time>2025-09-06T14:22:11Z</time>
      </trkpt>
      <trkpt lat="46.18427" lon="4.53332">
        <ele>505</ele>
        <time>2025-09-06T14:22:12Z</time>
      </trkpt>
      <trkpt lat="46.18428" lon="4.53331">
        <ele>505</ele>
        <time>2025-09-06T14:22:13Z</time>
      </trkpt>
      <trkpt lat="46.18428" lon="4.53331">
        <ele>505</ele>
        <time>2025-09-06T14:22:14Z</time>
      </trkpt>
      <trkpt lat="46.18429" lon="4.5333">
        <ele>504.4</ele>
        <time>2025-09-06T14:22:15Z</time>
      </trkpt>
      <trkpt lat="46.18429" lon="4.53329">
        <ele>504.4</ele>
        <time>2025-09-06T14:22:16Z</time>
      </trkpt>
      <trkpt lat="46.1843" lon="4.53328">
        <ele>503.8</ele>
        <time>2025-09-06T14:22:17Z</time>
      </trkpt>
      <trkpt lat="46.1843" lon="4.53328">
        <ele>503.8</ele>
        <time>2025-09-06T14:22:18Z</time>
      </trkpt>
      <trkpt lat="46.1843" lon="4.53327">
        <ele>504</ele>
        <time>2025-09-06T14:22:19Z</time>
      </trkpt>
      <trkpt lat="46.18431" lon="4.53326">
        <ele>504</ele>
        <time>2025-09-06T14:22:20Z</time>
      </trkpt>
      <trkpt lat="46.18431" lon="4.53326">
        <ele>504</ele>
        <time>2025-09-06T14:22:21Z</time>
      </trkpt>
      <trkpt lat="46.18432" lon="4.53326">
        <ele>504</ele>
        <time>2025-09-06T14:22:22Z</time>
      </trkpt>
      <trkpt lat="46.18432" lon="4.53327">
        <ele>504</ele>
        <time>2025-09-06T14:22:23Z</time>
      </trkpt>
      <trkpt lat="46.18432" lon="4.53327">
        <ele>504</ele>
        <time>2025-09-06T14:22:24Z</time>
      </trkpt>
      <trkpt lat="46.18432" lon="4.53327">
        <ele>504</ele>
        <time>2025-09-06T14:22:25Z</time>
      </trkpt>
      <trkpt lat="46.18433" lon="4.53327">
        <ele>504</ele>
        <time>2025-09-06T14:22:26Z</time>
      </trkpt>
      <trkpt lat="46.18434" lon="4.53326">
        <ele>504</ele>
        <time>2025-09-06T14:22:27Z</time>
      </trkpt>
      <trkpt lat="46.18434" lon="4.53325">
        <ele>504</ele>
        <time>2025-09-06T14:22:28Z</time>
      </trkpt>
      <trkpt lat="46.18436" lon="4.53325">
        <ele>503.2</ele>
        <time>2025-09-06T14:22:29Z</time>
      </trkpt>
      <trkpt lat="46.18437" lon="4.53324">
        <ele>503.2</ele>
        <time>2025-09-06T14:22:30Z</time>
      </trkpt>
      <trkpt lat="46.18439" lon="4.53324">
        <ele>503.4</ele>
        <time>2025-09-06T14:22:31Z</time>
      </trkpt>
      <trkpt lat="46.1844" lon="4.53324">
        <ele>503.4</ele>
        <time>2025-09-06T14:22:32Z</time>
      </trkpt>
      <trkpt lat="46.18441" lon="4.53324">
        <ele>503.4</ele>
        <time>2025-09-06T14:22:33Z</time>
      </trkpt>
      <trkpt lat="46.18441" lon="4.53324">
        <ele>503.2</ele>
        <time>2025-09-06T14:22:34Z</time>
      </trkpt>
      <trkpt lat="46.18442" lon="4.53324">
        <ele>503.2</ele>
        <time>2025-09-06T14:22:35Z</time>
      </trkpt>
      <trkpt lat="46.18443" lon="4.53323">
        <ele>503.4</ele>
        <time>2025-09-06T14:22:36Z</time>
      </trkpt>
      <trkpt lat="46.18444" lon="4.53322">
        <ele>503.4</ele>
        <time>2025-09-06T14:22:37Z</time>
      </trkpt>
      <trkpt lat="46.18445" lon="4.5332">
        <ele>503</ele>
        <time>2025-09-06T14:22:38Z</time>
      </trkpt>
      <trkpt lat="46.18446" lon="4.5332">
        <ele>503</ele>
        <time>2025-09-06T14:22:39Z</time>
      </trkpt>
      <trkpt lat="46.18446" lon="4.53319">
        <ele>503</ele>
        <time>2025-09-06T14:22:40Z</time>
      </trkpt>
      <trkpt lat="46.18447" lon="4.53319">
        <ele>502.6</ele>
        <time>2025-09-06T14:22:41Z</time>
      </trkpt>
      <trkpt lat="46.18447" lon="4.53317">
        <ele>502.6</ele>
        <time>2025-09-06T14:22:42Z</time>
      </trkpt>
      <trkpt lat="46.18448" lon="4.53316">
        <ele>502.6</ele>
        <time>2025-09-06T14:22:43Z</time>
      </trkpt>
      <trkpt lat="46.18449" lon="4.53315">
        <ele>501.8</ele>
        <time>2025-09-06T14:22:44Z</time>
      </trkpt>
      <trkpt lat="46.18449" lon="4.53313">
        <ele>501.4</ele>
        <time>2025-09-06T14:22:45Z</time>
      </trkpt>
      <trkpt lat="46.1845" lon="4.53312">
        <ele>501.4</ele>
        <time>2025-09-06T14:22:46Z</time>
      </trkpt>
      <trkpt lat="46.18451" lon="4.53312">
        <ele>501.4</ele>
        <time>2025-09-06T14:22:47Z</time>
      </trkpt>
      <trkpt lat="46.18451" lon="4.53311">
        <ele>501.4</ele>
        <time>2025-09-06T14:22:48Z</time>
      </trkpt>
      <trkpt lat="46.18451" lon="4.5331">
        <ele>501.4</ele>
        <time>2025-09-06T14:22:49Z</time>
      </trkpt>
      <trkpt lat="46.18452" lon="4.53309">
        <ele>501.2</ele>
        <time>2025-09-06T14:22:50Z</time>
      </trkpt>
      <trkpt lat="46.18452" lon="4.53309">
        <ele>501.2</ele>
        <time>2025-09-06T14:22:51Z</time>
      </trkpt>
      <trkpt lat="46.18452" lon="4.53308">
        <ele>501.2</ele>
        <time>2025-09-06T14:22:52Z</time>
      </trkpt>
      <trkpt lat="46.18452" lon="4.53308">
        <ele>501.2</ele>
        <time>2025-09-06T14:22:53Z</time>
      </trkpt>
      <trkpt lat="46.18453" lon="4.53308">
        <ele>501.2</ele>
        <time>2025-09-06T14:22:54Z</time>
      </trkpt>
      <trkpt lat="46.18455" lon="4.53306">
        <ele>501</ele>
        <time>2025-09-06T14:22:58Z</time>
      </trkpt>
      <trkpt lat="46.18455" lon="4.53306">
        <ele>501</ele>
        <time>2025-09-06T14:22:59Z</time>
      </trkpt>
      <trkpt lat="46.18455" lon="4.53306">
        <ele>501</ele>
        <time>2025-09-06T14:23:00Z</time>
      </trkpt>
      <trkpt lat="46.18455" lon="4.53306">
        <ele>501.4</ele>
        <time>2025-09-06T14:23:08Z</time>
      </trkpt>
      <trkpt lat="46.18456" lon="4.53306">
        <ele>501</ele>
        <time>2025-09-06T14:23:09Z</time>
      </trkpt>
      <trkpt lat="46.18457" lon="4.53306">
        <ele>501</ele>
        <time>2025-09-06T14:23:10Z</time>
      </trkpt>
      <trkpt lat="46.18459" lon="4.53306">
        <ele>501</ele>
        <time>2025-09-06T14:23:11Z</time>
      </trkpt>
      <trkpt lat="46.18459" lon="4.53306">
        <ele>501</ele>
        <time>2025-09-06T14:23:12Z</time>
      </trkpt>
      <trkpt lat="46.18459" lon="4.53305">
        <ele>500.8</ele>
        <time>2025-09-06T14:23:13Z</time>
      </trkpt>
      <trkpt lat="46.1846" lon="4.53305">
        <ele>500.8</ele>
        <time>2025-09-06T14:23:14Z</time>
      </trkpt>
      <trkpt lat="46.1846" lon="4.53303">
        <ele>500.6</ele>
        <time>2025-09-06T14:23:15Z</time>
      </trkpt>
      <trkpt lat="46.18461" lon="4.53302">
        <ele>500</ele>
        <time>2025-09-06T14:23:16Z</time>
      </trkpt>
      <trkpt lat="46.18462" lon="4.53301">
        <ele>500</ele>
        <time>2025-09-06T14:23:17Z</time>
      </trkpt>
      <trkpt lat="46.18462" lon="4.533">
        <ele>499.6</ele>
        <time>2025-09-06T14:23:18Z</time>
      </trkpt>
      <trkpt lat="46.18463" lon="4.533">
        <ele>499.4</ele>
        <time>2025-09-06T14:23:19Z</time>
      </trkpt>
      <trkpt lat="46.18463" lon="4.53299">
        <ele>499.2</ele>
        <time>2025-09-06T14:23:20Z</time>
      </trkpt>
      <trkpt lat="46.18464" lon="4.53298">
        <ele>499.2</ele>
        <time>2025-09-06T14:23:21Z</time>
      </trkpt>
      <trkpt lat="46.18464" lon="4.53298">
        <ele>498.8</ele>
        <time>2025-09-06T14:23:22Z</time>
      </trkpt>
      <trkpt lat="46.18464" lon="4.53298">
        <ele>498.4</ele>
        <time>2025-09-06T14:23:23Z</time>
      </trkpt>
      <trkpt lat="46.18464" lon="4.53298">
        <ele>498.4</ele>
        <time>2025-09-06T14:23:24Z</time>
      </trkpt>
      <trkpt lat="46.18464" lon="4.53297">
        <ele>498.4</ele>
        <time>2025-09-06T14:23:25Z</time>
      </trkpt>
      <trkpt lat="46.18465" lon="4.53297">
        <ele>498.2</ele>
        <time>2025-09-06T14:23:26Z</time>
      </trkpt>
      <trkpt lat="46.18465" lon="4.53296">
        <ele>498</ele>
        <time>2025-09-06T14:23:27Z</time>
      </trkpt>
      <trkpt lat="46.18466" lon="4.53295">
        <ele>498</ele>
        <time>2025-09-06T14:23:28Z</time>
      </trkpt>
      <trkpt lat="46.18467" lon="4.53294">
        <ele>497.8</ele>
        <time>2025-09-06T14:23:29Z</time>
      </trkpt>
      <trkpt lat="46.18468" lon="4.53293">
        <ele>497.6</ele>
        <time>2025-09-06T14:23:30Z</time>
      </trkpt>
      <trkpt lat="46.18469" lon="4.53292">
        <ele>497.6</ele>
        <time>2025-09-06T14:23:31Z</time>
      </trkpt>
      <trkpt lat="46.1847" lon="4.53291">
        <ele>497.4</ele>
        <time>2025-09-06T14:23:32Z</time>
      </trkpt>
      <trkpt lat="46.1847" lon="4.5329">
        <ele>497.4</ele>
        <time>2025-09-06T14:23:33Z</time>
      </trkpt>
      <trkpt lat="46.18471" lon="4.53289">
        <ele>497</ele>
        <time>2025-09-06T14:23:34Z</time>
      </trkpt>
      <trkpt lat="46.18471" lon="4.53288">
        <ele>497</ele>
        <time>2025-09-06T14:23:35Z</time>
      </trkpt>
      <trkpt lat="46.18472" lon="4.53287">
        <ele>497</ele>
        <time>2025-09-06T14:23:36Z</time>
      </trkpt>
      <trkpt lat="46.18473" lon="4.53285">
        <ele>497</ele>
        <time>2025-09-06T14:23:37Z</time>
      </trkpt>
      <trkpt lat="46.18473" lon="4.53284">
        <ele>496.6</ele>
        <time>2025-09-06T14:23:38Z</time>
      </trkpt>
      <trkpt lat="46.18474" lon="4.53284">
        <ele>496.4</ele>
        <time>2025-09-06T14:23:39Z</time>
      </trkpt>
      <trkpt lat="46.18475" lon="4.53283">
        <ele>495.6</ele>
        <time>2025-09-06T14:23:40Z</time>
      </trkpt>
      <trkpt lat="46.18477" lon="4.53283">
        <ele>495.4</ele>
        <time>2025-09-06T14:23:41Z</time>
      </trkpt>
      <trkpt lat="46.18478" lon="4.53284">
        <ele>495.4</ele>
        <time>2025-09-06T14:23:42Z</time>
      </trkpt>
      <trkpt lat="46.18479" lon="4.53284">
        <ele>495.4</ele>
        <time>2025-09-06T14:23:43Z</time>
      </trkpt>
      <trkpt lat="46.1848" lon="4.53284">
        <ele>495.4</ele>
        <time>2025-09-06T14:23:44Z</time>
      </trkpt>
      <trkpt lat="46.18481" lon="4.53284">
        <ele>494.8</ele>
        <time>2025-09-06T14:23:45Z</time>
      </trkpt>
      <trkpt lat="46.18483" lon="4.53283">
        <ele>494.8</ele>
        <time>2025-09-06T14:23:46Z</time>
      </trkpt>
      <trkpt lat="46.18484" lon="4.53282">
        <ele>494.8</ele>
        <time>2025-09-06T14:23:47Z</time>
      </trkpt>
      <trkpt lat="46.18485" lon="4.53282">
        <ele>494.6</ele>
        <time>2025-09-06T14:23:48Z</time>
      </trkpt>
      <trkpt lat="46.18486" lon="4.53281">
        <ele>495</ele>
        <time>2025-09-06T14:23:49Z</time>
      </trkpt>
      <trkpt lat="46.18487" lon="4.5328">
        <ele>495</ele>
        <time>2025-09-06T14:23:50Z</time>
      </trkpt>
      <trkpt lat="46.18488" lon="4.53278">
        <ele>494.2</ele>
        <time>2025-09-06T14:23:51Z</time>
      </trkpt>
      <trkpt lat="46.1849" lon="4.53277">
        <ele>493.8</ele>
        <time>2025-09-06T14:23:52Z</time>
      </trkpt>
      <trkpt lat="46.18491" lon="4.53277">
        <ele>493.6</ele>
        <time>2025-09-06T14:23:53Z</time>
      </trkpt>
      <trkpt lat="46.18492" lon="4.53276">
        <ele>493.8</ele>
        <time>2025-09-06T14:23:54Z</time>
      </trkpt>
      <trkpt lat="46.18493" lon="4.53276">
        <ele>493.4</ele>
        <time>2025-09-06T14:23:55Z</time>
      </trkpt>
      <trkpt lat="46.18494" lon="4.53276">
        <ele>493.4</ele>
        <time>2025-09-06T14:23:56Z</time>
      </trkpt>
      <trkpt lat="46.18495" lon="4.53276">
        <ele>493</ele>
        <time>2025-09-06T14:23:57Z</time>
      </trkpt>
      <trkpt lat="46.18496" lon="4.53275">
        <ele>493</ele>
        <time>2025-09-06T14:23:58Z</time>
      </trkpt>
      <trkpt lat="46.18497" lon="4.53275">
        <ele>492.6</ele>
        <time>2025-09-06T14:23:59Z</time>
      </trkpt>
      <trkpt lat="46.18498" lon="4.53274">
        <ele>492.6</ele>
        <time>2025-09-06T14:24:00Z</time>
      </trkpt>
      <trkpt lat="46.18499" lon="4.53273">
        <ele>492.4</ele>
        <time>2025-09-06T14:24:01Z</time>
      </trkpt>
      <trkpt lat="46.185" lon="4.53272">
        <ele>492.4</ele>
        <time>2025-09-06T14:24:02Z</time>
      </trkpt>
      <trkpt lat="46.18501" lon="4.53272">
        <ele>492.4</ele>
        <time>2025-09-06T14:24:03Z</time>
      </trkpt>
      <trkpt lat="46.18502" lon="4.53272">
        <ele>492</ele>
        <time>2025-09-06T14:24:04Z</time>
      </trkpt>
      <trkpt lat="46.18503" lon="4.53272">
        <ele>492</ele>
        <time>2025-09-06T14:24:05Z</time>
      </trkpt>
      <trkpt lat="46.18504" lon="4.53273">
        <ele>491.8</ele>
        <time>2025-09-06T14:24:06Z</time>
      </trkpt>
      <trkpt lat="46.18505" lon="4.53272">
        <ele>491.6</ele>
        <time>2025-09-06T14:24:07Z</time>
      </trkpt>
      <trkpt lat="46.18506" lon="4.53272">
        <ele>491.6</ele>
        <time>2025-09-06T14:24:08Z</time>
      </trkpt>
      <trkpt lat="46.18506" lon="4.53271">
        <ele>491.6</ele>
        <time>2025-09-06T14:24:09Z</time>
      </trkpt>
      <trkpt lat="46.18506" lon="4.5327">
        <ele>491.2</ele>
        <time>2025-09-06T14:24:10Z</time>
      </trkpt>
      <trkpt lat="46.18507" lon="4.53269">
        <ele>491.2</ele>
        <time>2025-09-06T14:24:11Z</time>
      </trkpt>
      <trkpt lat="46.18508" lon="4.53269">
        <ele>491.2</ele>
        <time>2025-09-06T14:24:12Z</time>
      </trkpt>
      <trkpt lat="46.18508" lon="4.53268">
        <ele>491</ele>
        <time>2025-09-06T14:24:13Z</time>
      </trkpt>
      <trkpt lat="46.18509" lon="4.53267">
        <ele>491</ele>
        <time>2025-09-06T14:24:14Z</time>
      </trkpt>
      <trkpt lat="46.1851" lon="4.53266">
        <ele>491</ele>
        <time>2025-09-06T14:24:15Z</time>
      </trkpt>
      <trkpt lat="46.18511" lon="4.53265">
        <ele>491</ele>
        <time>2025-09-06T14:24:16Z</time>
      </trkpt>
      <trkpt lat="46.18512" lon="4.53265">
        <ele>490.8</ele>
        <time>2025-09-06T14:24:17Z</time>
      </trkpt>
      <trkpt lat="46.18513" lon="4.53264">
        <ele>490.8</ele>
        <time>2025-09-06T14:24:18Z</time>
      </trkpt>
      <trkpt lat="46.18514" lon="4.53263">
        <ele>490.8</ele>
        <time>2025-09-06T14:24:19Z</time>
      </trkpt>
      <trkpt lat="46.18516" lon="4.53262">
        <ele>490.4</ele>
        <time>2025-09-06T14:24:20Z</time>
      </trkpt>
      <trkpt lat="46.18517" lon="4.53262">
        <ele>490.4</ele>
        <time>2025-09-06T14:24:21Z</time>
      </trkpt>
      <trkpt lat="46.18518" lon="4.53261">
        <ele>490.4</ele>
        <time>2025-09-06T14:24:22Z</time>
      </trkpt>
      <trkpt lat="46.18519" lon="4.5326">
        <ele>490.4</ele>
        <time>2025-09-06T14:24:23Z</time>
      </trkpt>
      <trkpt lat="46.1852" lon="4.53259">
        <ele>490</ele>
        <time>2025-09-06T14:24:24Z</time>
      </trkpt>
      <trkpt lat="46.18521" lon="4.53258">
        <ele>489.8</ele>
        <time>2025-09-06T14:24:25Z</time>
      </trkpt>
      <trkpt lat="46.18522" lon="4.53257">
        <ele>489.4</ele>
        <time>2025-09-06T14:24:26Z</time>
      </trkpt>
      <trkpt lat="46.18523" lon="4.53256">
        <ele>489.2</ele>
        <time>2025-09-06T14:24:27Z</time>
      </trkpt>
      <trkpt lat="46.18523" lon="4.53255">
        <ele>489.2</ele>
        <time>2025-09-06T14:24:28Z</time>
      </trkpt>
      <trkpt lat="46.18524" lon="4.53254">
        <ele>489.2</ele>
        <time>2025-09-06T14:24:29Z</time>
      </trkpt>
      <trkpt lat="46.18525" lon="4.53253">
        <ele>489.2</ele>
        <time>2025-09-06T14:24:30Z</time>
      </trkpt>
      <trkpt lat="46.18526" lon="4.53253">
        <ele>489.2</ele>
        <time>2025-09-06T14:24:31Z</time>
      </trkpt>
      <trkpt lat="46.18528" lon="4.53253">
        <ele>489.2</ele>
        <time>2025-09-06T14:24:32Z</time>
      </trkpt>
      <trkpt lat="46.18529" lon="4.53253">
        <ele>489.2</ele>
        <time>2025-09-06T14:24:33Z</time>
      </trkpt>
      <trkpt lat="46.1853" lon="4.53252">
        <ele>488.6</ele>
        <time>2025-09-06T14:24:34Z</time>
      </trkpt>
      <trkpt lat="46.1853" lon="4.53251">
        <ele>488.6</ele>
        <time>2025-09-06T14:24:35Z</time>
      </trkpt>
      <trkpt lat="46.18532" lon="4.53251">
        <ele>488.6</ele>
        <time>2025-09-06T14:24:36Z</time>
      </trkpt>
      <trkpt lat="46.18533" lon="4.5325">
        <ele>488.6</ele>
        <time>2025-09-06T14:24:37Z</time>
      </trkpt>
      <trkpt lat="46.18533" lon="4.5325">
        <ele>488.6</ele>
        <time>2025-09-06T14:24:38Z</time>
      </trkpt>
      <trkpt lat="46.18534" lon="4.53248">
        <ele>488.4</ele>
        <time>2025-09-06T14:24:39Z</time>
      </trkpt>
      <trkpt lat="46.18534" lon="4.53248">
        <ele>488.4</ele>
        <time>2025-09-06T14:24:40Z</time>
      </trkpt>
      <trkpt lat="46.18534" lon="4.53247">
        <ele>488</ele>
        <time>2025-09-06T14:24:41Z</time>
      </trkpt>
      <trkpt lat="46.18535" lon="4.53246">
        <ele>487.8</ele>
        <time>2025-09-06T14:24:42Z</time>
      </trkpt>
      <trkpt lat="46.18535" lon="4.53245">
        <ele>487.8</ele>
        <time>2025-09-06T14:24:43Z</time>
      </trkpt>
      <trkpt lat="46.18536" lon="4.53244">
        <ele>487.8</ele>
        <time>2025-09-06T14:24:44Z</time>
      </trkpt>
      <trkpt lat="46.18536" lon="4.53243">
        <ele>487.8</ele>
        <time>2025-09-06T14:24:45Z</time>
      </trkpt>
      <trkpt lat="46.18537" lon="4.53243">
        <ele>487.8</ele>
        <time>2025-09-06T14:24:46Z</time>
      </trkpt>
      <trkpt lat="46.18538" lon="4.53242">
        <ele>487.2</ele>
        <time>2025-09-06T14:24:47Z</time>
      </trkpt>
      <trkpt lat="46.18539" lon="4.5324">
        <ele>487</ele>
        <time>2025-09-06T14:24:48Z</time>
      </trkpt>
      <trkpt lat="46.1854" lon="4.53239">
        <ele>487.2</ele>
        <time>2025-09-06T14:24:49Z</time>
      </trkpt>
      <trkpt lat="46.18541" lon="4.53239">
        <ele>487.2</ele>
        <time>2025-09-06T14:24:50Z</time>
      </trkpt>
      <trkpt lat="46.18543" lon="4.53238">
        <ele>486.8</ele>
        <time>2025-09-06T14:24:51Z</time>
      </trkpt>
      <trkpt lat="46.18543" lon="4.53237">
        <ele>486.6</ele>
        <time>2025-09-06T14:24:52Z</time>
      </trkpt>
      <trkpt lat="46.18544" lon="4.53236">
        <ele>486.2</ele>
        <time>2025-09-06T14:24:53Z</time>
      </trkpt>
      <trkpt lat="46.18545" lon="4.53235">
        <ele>486.2</ele>
        <time>2025-09-06T14:24:54Z</time>
      </trkpt>
      <trkpt lat="46.18546" lon="4.53234">
        <ele>486.2</ele>
        <time>2025-09-06T14:24:55Z</time>
      </trkpt>
      <trkpt lat="46.18547" lon="4.53234">
        <ele>486.2</ele>
        <time>2025-09-06T14:24:56Z</time>
      </trkpt>
      <trkpt lat="46.18549" lon="4.53233">
        <ele>486.2</ele>
        <time>2025-09-06T14:24:57Z</time>
      </trkpt>
      <trkpt lat="46.1855" lon="4.53233">
        <ele>486.2</ele>
        <time>2025-09-06T14:24:58Z</time>
      </trkpt>
      <trkpt lat="46.1855" lon="4.53232">
        <ele>486</ele>
        <time>2025-09-06T14:24:59Z</time>
      </trkpt>
      <trkpt lat="46.18551" lon="4.53232">
        <ele>485.8</ele>
        <time>2025-09-06T14:25:00Z</time>
      </trkpt>
      <trkpt lat="46.18552" lon="4.53232">
        <ele>485.8</ele>
        <time>2025-09-06T14:25:01Z</time>
      </trkpt>
      <trkpt lat="46.18553" lon="4.53233">
        <ele>485.4</ele>
        <time>2025-09-06T14:25:02Z</time>
      </trkpt>
      <trkpt lat="46.18553" lon="4.53234">
        <ele>485.4</ele>
        <time>2025-09-06T14:25:03Z</time>
      </trkpt>
      <trkpt lat="46.18553" lon="4.53234">
        <ele>485.4</ele>
        <time>2025-09-06T14:25:04Z</time>
      </trkpt>
      <trkpt lat="46.18554" lon="4.53233">
        <ele>485.4</ele>
        <time>2025-09-06T14:25:05Z</time>
      </trkpt>
      <trkpt lat="46.18555" lon="4.53232">
        <ele>485.4</ele>
        <time>2025-09-06T14:25:06Z</time>
      </trkpt>
      <trkpt lat="46.18556" lon="4.53231">
        <ele>485.4</ele>
        <time>2025-09-06T14:25:07Z</time>
      </trkpt>
      <trkpt lat="46.18557" lon="4.5323">
        <ele>485.4</ele>
        <time>2025-09-06T14:25:08Z</time>
      </trkpt>
      <trkpt lat="46.18557" lon="4.5323">
        <ele>485.4</ele>
        <time>2025-09-06T14:25:09Z</time>
      </trkpt>
      <trkpt lat="46.18558" lon="4.53229">
        <ele>485.4</ele>
        <time>2025-09-06T14:25:10Z</time>
      </trkpt>
      <trkpt lat="46.18558" lon="4.53228">
        <ele>485</ele>
        <time>2025-09-06T14:25:11Z</time>
      </trkpt>
      <trkpt lat="46.18559" lon="4.53227">
        <ele>484.6</ele>
        <time>2025-09-06T14:25:12Z</time>
      </trkpt>
      <trkpt lat="46.1856" lon="4.53226">
        <ele>484.4</ele>
        <time>2025-09-06T14:25:13Z</time>
      </trkpt>
      <trkpt lat="46.18561" lon="4.53226">
        <ele>484.4</ele>
        <time>2025-09-06T14:25:14Z</time>
      </trkpt>
      <trkpt lat="46.18562" lon="4.53226">
        <ele>484.4</ele>
        <time>2025-09-06T14:25:15Z</time>
      </trkpt>
      <trkpt lat="46.18563" lon="4.53225">
        <ele>484.4</ele>
        <time>2025-09-06T14:25:16Z</time>
      </trkpt>
      <trkpt lat="46.18564" lon="4.53224">
        <ele>484.6</ele>
        <time>2025-09-06T14:25:17Z</time>
      </trkpt>
      <trkpt lat="46.18565" lon="4.53223">
        <ele>484.6</ele>
        <time>2025-09-06T14:25:18Z</time>
      </trkpt>
      <trkpt lat="46.18566" lon="4.53222">
        <ele>484.4</ele>
        <time>2025-09-06T14:25:19Z</time>
      </trkpt>
      <trkpt lat="46.18567" lon="4.53222">
        <ele>484.4</ele>
        <time>2025-09-06T14:25:20Z</time>
      </trkpt>
      <trkpt lat="46.18569" lon="4.53221">
        <ele>484.4</ele>
        <time>2025-09-06T14:25:21Z</time>
      </trkpt>
      <trkpt lat="46.1857" lon="4.5322">
        <ele>484.2</ele>
        <time>2025-09-06T14:25:22Z</time>
      </trkpt>
      <trkpt lat="46.18571" lon="4.5322">
        <ele>484.2</ele>
        <time>2025-09-06T14:25:23Z</time>
      </trkpt>
      <trkpt lat="46.18572" lon="4.5322">
        <ele>484.2</ele>
        <time>2025-09-06T14:25:24Z</time>
      </trkpt>
      <trkpt lat="46.18573" lon="4.5322">
        <ele>484.2</ele>
        <time>2025-09-06T14:25:25Z</time>
      </trkpt>
      <trkpt lat="46.18575" lon="4.5322">
        <ele>484.2</ele>
        <time>2025-09-06T14:25:26Z</time>
      </trkpt>
      <trkpt lat="46.18577" lon="4.5322">
        <ele>484</ele>
        <time>2025-09-06T14:25:27Z</time>
      </trkpt>
      <trkpt lat="46.18578" lon="4.5322">
        <ele>484</ele>
        <time>2025-09-06T14:25:28Z</time>
      </trkpt>
      <trkpt lat="46.1858" lon="4.53219">
        <ele>484</ele>
        <time>2025-09-06T14:25:29Z</time>
      </trkpt>
      <trkpt lat="46.18581" lon="4.53218">
        <ele>484</ele>
        <time>2025-09-06T14:25:30Z</time>
      </trkpt>
      <trkpt lat="46.18583" lon="4.53219">
        <ele>484</ele>
        <time>2025-09-06T14:25:31Z</time>
      </trkpt>
      <trkpt lat="46.18585" lon="4.53219">
        <ele>484</ele>
        <time>2025-09-06T14:25:32Z</time>
      </trkpt>
      <trkpt lat="46.18587" lon="4.53219">
        <ele>484</ele>
        <time>2025-09-06T14:25:33Z</time>
      </trkpt>
      <trkpt lat="46.18588" lon="4.53219">
        <ele>483.6</ele>
        <time>2025-09-06T14:25:34Z</time>
      </trkpt>
      <trkpt lat="46.1859" lon="4.53218">
        <ele>483.6</ele>
        <time>2025-09-06T14:25:35Z</time>
      </trkpt>
      <trkpt lat="46.1859" lon="4.53218">
        <ele>483.4</ele>
        <time>2025-09-06T14:25:36Z</time>
      </trkpt>
      <trkpt lat="46.18591" lon="4.53218">
        <ele>483.4</ele>
        <time>2025-09-06T14:25:37Z</time>
      </trkpt>
      <trkpt lat="46.18592" lon="4.53218">
        <ele>483.4</ele>
        <time>2025-09-06T14:25:38Z</time>
      </trkpt>
      <trkpt lat="46.18594" lon="4.53217">
        <ele>483.4</ele>
        <time>2025-09-06T14:25:39Z</time>
      </trkpt>
      <trkpt lat="46.18595" lon="4.53217">
        <ele>483</ele>
        <time>2025-09-06T14:25:40Z</time>
      </trkpt>
      <trkpt lat="46.18597" lon="4.53216">
        <ele>483</ele>
        <time>2025-09-06T14:25:41Z</time>
      </trkpt>
      <trkpt lat="46.18598" lon="4.53216">
        <ele>483</ele>
        <time>2025-09-06T14:25:42Z</time>
      </trkpt>
      <trkpt lat="46.18599" lon="4.53215">
        <ele>482.6</ele>
        <time>2025-09-06T14:25:43Z</time>
      </trkpt>
      <trkpt lat="46.18601" lon="4.53215">
        <ele>482.6</ele>
        <time>2025-09-06T14:25:44Z</time>
      </trkpt>
      <trkpt lat="46.18602" lon="4.53215">
        <ele>482.6</ele>
        <time>2025-09-06T14:25:45Z</time>
      </trkpt>
      <trkpt lat="46.18603" lon="4.53214">
        <ele>482.6</ele>
        <time>2025-09-06T14:25:46Z</time>
      </trkpt>
      <trkpt lat="46.18604" lon="4.53214">
        <ele>482.6</ele>
        <time>2025-09-06T14:25:47Z</time>
      </trkpt>
      <trkpt lat="46.18604" lon="4.53213">
        <ele>482.4</ele>
        <time>2025-09-06T14:25:48Z</time>
      </trkpt>
      <trkpt lat="46.18605" lon="4.53212">
        <ele>481.8</ele>
        <time>2025-09-06T14:25:49Z</time>
      </trkpt>
      <trkpt lat="46.18606" lon="4.53212">
        <ele>481.8</ele>
        <time>2025-09-06T14:25:50Z</time>
      </trkpt>
      <trkpt lat="46.18607" lon="4.53212">
        <ele>481.8</ele>
        <time>2025-09-06T14:25:51Z</time>
      </trkpt>
      <trkpt lat="46.18609" lon="4.53212">
        <ele>482</ele>
        <time>2025-09-06T14:25:52Z</time>
      </trkpt>
      <trkpt lat="46.18609" lon="4.53212">
        <ele>482</ele>
        <time>2025-09-06T14:25:53Z</time>
      </trkpt>
      <trkpt lat="46.18609" lon="4.53212">
        <ele>482.2</ele>
        <time>2025-09-06T14:25:54Z</time>
      </trkpt>
      <trkpt lat="46.18608" lon="4.53211">
        <ele>482.2</ele>
        <time>2025-09-06T14:25:55Z</time>
      </trkpt>
      <trkpt lat="46.1861" lon="4.53208">
        <ele>481.8</ele>
        <time>2025-09-06T14:26:00Z</time>
      </trkpt>
      <trkpt lat="46.18612" lon="4.53206">
        <ele>481.8</ele>
        <time>2025-09-06T14:26:01Z</time>
      </trkpt>
      <trkpt lat="46.18613" lon="4.53205">
        <ele>482</ele>
        <time>2025-09-06T14:26:02Z</time>
      </trkpt>
      <trkpt lat="46.18615" lon="4.53204">
        <ele>481.8</ele>
        <time>2025-09-06T14:26:03Z</time>
      </trkpt>
      <trkpt lat="46.18617" lon="4.53203">
        <ele>481.8</ele>
        <time>2025-09-06T14:26:04Z</time>
      </trkpt>
      <trkpt lat="46.1862" lon="4.53202">
        <ele>481.8</ele>
        <time>2025-09-06T14:26:05Z</time>
      </trkpt>
      <trkpt lat="46.18622" lon="4.532">
        <ele>481.8</ele>
        <time>2025-09-06T14:26:06Z</time>
      </trkpt>
      <trkpt lat="46.18624" lon="4.53199">
        <ele>481.4</ele>
        <time>2025-09-06T14:26:07Z</time>
      </trkpt>
      <trkpt lat="46.18626" lon="4.53197">
        <ele>481.4</ele>
        <time>2025-09-06T14:26:08Z</time>
      </trkpt>
      <trkpt lat="46.18628" lon="4.53196">
        <ele>481.2</ele>
        <time>2025-09-06T14:26:09Z</time>
      </trkpt>
      <trkpt lat="46.1863" lon="4.53194">
        <ele>481.2</ele>
        <time>2025-09-06T14:26:10Z</time>
      </trkpt>
      <trkpt lat="46.18631" lon="4.53193">
        <ele>481.2</ele>
        <time>2025-09-06T14:26:11Z</time>
      </trkpt>
      <trkpt lat="46.18634" lon="4.53191">
        <ele>480.8</ele>
        <time>2025-09-06T14:26:12Z</time>
      </trkpt>
      <trkpt lat="46.18636" lon="4.5319">
        <ele>480.4</ele>
        <time>2025-09-06T14:26:13Z</time>
      </trkpt>
      <trkpt lat="46.18637" lon="4.53189">
        <ele>480.4</ele>
        <time>2025-09-06T14:26:14Z</time>
      </trkpt>
      <trkpt lat="46.18639" lon="4.53188">
        <ele>480.4</ele>
        <time>2025-09-06T14:26:15Z</time>
      </trkpt>
      <trkpt lat="46.18641" lon="4.53188">
        <ele>480.4</ele>
        <time>2025-09-06T14:26:16Z</time>
      </trkpt>
      <trkpt lat="46.18643" lon="4.53188">
        <ele>480.4</ele>
        <time>2025-09-06T14:26:17Z</time>
      </trkpt>
      <trkpt lat="46.18645" lon="4.53187">
        <ele>480.4</ele>
        <time>2025-09-06T14:26:18Z</time>
      </trkpt>
      <trkpt lat="46.18647" lon="4.53186">
        <ele>480.4</ele>
        <time>2025-09-06T14:26:19Z</time>
      </trkpt>
      <trkpt lat="46.18649" lon="4.53185">
        <ele>480.2</ele>
        <time>2025-09-06T14:26:20Z</time>
      </trkpt>
      <trkpt lat="46.18652" lon="4.53185">
        <ele>480.2</ele>
        <time>2025-09-06T14:26:21Z</time>
      </trkpt>
      <trkpt lat="46.18655" lon="4.53185">
        <ele>480.2</ele>
        <time>2025-09-06T14:26:22Z</time>
      </trkpt>
      <trkpt lat="46.18657" lon="4.53185">
        <ele>480.2</ele>
        <time>2025-09-06T14:26:23Z</time>
      </trkpt>
      <trkpt lat="46.1866" lon="4.53184">
        <ele>480.2</ele>
        <time>2025-09-06T14:26:24Z</time>
      </trkpt>
      <trkpt lat="46.18662" lon="4.53183">
        <ele>480.2</ele>
        <time>2025-09-06T14:26:25Z</time>
      </trkpt>
      <trkpt lat="46.18663" lon="4.53181">
        <ele>480.2</ele>
        <time>2025-09-06T14:26:26Z</time>
      </trkpt>
      <trkpt lat="46.18665" lon="4.5318">
        <ele>480.6</ele>
        <time>2025-09-06T14:26:27Z</time>
      </trkpt>
      <trkpt lat="46.18667" lon="4.53178">
        <ele>480.6</ele>
        <time>2025-09-06T14:26:28Z</time>
      </trkpt>
      <trkpt lat="46.18668" lon="4.53177">
        <ele>480.8</ele>
        <time>2025-09-06T14:26:29Z</time>
      </trkpt>
      <trkpt lat="46.1867" lon="4.53176">
        <ele>480.8</ele>
        <time>2025-09-06T14:26:30Z</time>
      </trkpt>
      <trkpt lat="46.18672" lon="4.53174">
        <ele>481.2</ele>
        <time>2025-09-06T14:26:31Z</time>
      </trkpt>
      <trkpt lat="46.18672" lon="4.53171">
        <ele>481.2</ele>
        <time>2025-09-06T14:26:32Z</time>
      </trkpt>
      <trkpt lat="46.18673" lon="4.53168">
        <ele>481.2</ele>
        <time>2025-09-06T14:26:33Z</time>
      </trkpt>
      <trkpt lat="46.18674" lon="4.53166">
        <ele>481.2</ele>
        <time>2025-09-06T14:26:34Z</time>
      </trkpt>
      <trkpt lat="46.18675" lon="4.53164">
        <ele>481.2</ele>
        <time>2025-09-06T14:26:35Z</time>
      </trkpt>
      <trkpt lat="46.18676" lon="4.53162">
        <ele>481.2</ele>
        <time>2025-09-06T14:26:36Z</time>
      </trkpt>
      <trkpt lat="46.18678" lon="4.5316">
        <ele>481.2</ele>
        <time>2025-09-06T14:26:37Z</time>
      </trkpt>
      <trkpt lat="46.18679" lon="4.53158">
        <ele>481.2</ele>
        <time>2025-09-06T14:26:38Z</time>
      </trkpt>
      <trkpt lat="46.18681" lon="4.53156">
        <ele>481.2</ele>
        <time>2025-09-06T14:26:39Z</time>
      </trkpt>
      <trkpt lat="46.18681" lon="4.53154">
        <ele>481.6</ele>
        <time>2025-09-06T14:26:40Z</time>
      </trkpt>
      <trkpt lat="46.18682" lon="4.53152">
        <ele>481.6</ele>
        <time>2025-09-06T14:26:41Z</time>
      </trkpt>
      <trkpt lat="46.18683" lon="4.5315">
        <ele>481.8</ele>
        <time>2025-09-06T14:26:42Z</time>
      </trkpt>
      <trkpt lat="46.18684" lon="4.53148">
        <ele>481.8</ele>
        <time>2025-09-06T14:26:43Z</time>
      </trkpt>
      <trkpt lat="46.18685" lon="4.53147">
        <ele>481.8</ele>
        <time>2025-09-06T14:26:44Z</time>
      </trkpt>
      <trkpt lat="46.18686" lon="4.53145">
        <ele>481.8</ele>
        <time>2025-09-06T14:26:45Z</time>
      </trkpt>
      <trkpt lat="46.18687" lon="4.53143">
        <ele>482.2</ele>
        <time>2025-09-06T14:26:46Z</time>
      </trkpt>
      <trkpt lat="46.18688" lon="4.5314">
        <ele>482</ele>
        <time>2025-09-06T14:26:47Z</time>
      </trkpt>
      <trkpt lat="46.18689" lon="4.53138">
        <ele>482.2</ele>
        <time>2025-09-06T14:26:48Z</time>
      </trkpt>
      <trkpt lat="46.1869" lon="4.53136">
        <ele>482.6</ele>
        <time>2025-09-06T14:26:49Z</time>
      </trkpt>
      <trkpt lat="46.1869" lon="4.53133">
        <ele>482.8</ele>
        <time>2025-09-06T14:26:50Z</time>
      </trkpt>
      <trkpt lat="46.18691" lon="4.53131">
        <ele>482.8</ele>
        <time>2025-09-06T14:26:51Z</time>
      </trkpt>
      <trkpt lat="46.18693" lon="4.5313">
        <ele>482.8</ele>
        <time>2025-09-06T14:26:52Z</time>
      </trkpt>
      <trkpt lat="46.18694" lon="4.53129">
        <ele>482.8</ele>
        <time>2025-09-06T14:26:53Z</time>
      </trkpt>
      <trkpt lat="46.18696" lon="4.53129">
        <ele>483</ele>
        <time>2025-09-06T14:26:54Z</time>
      </trkpt>
      <trkpt lat="46.18698" lon="4.53129">
        <ele>483</ele>
        <time>2025-09-06T14:26:55Z</time>
      </trkpt>
      <trkpt lat="46.18699" lon="4.53128">
        <ele>483.2</ele>
        <time>2025-09-06T14:26:56Z</time>
      </trkpt>
      <trkpt lat="46.18701" lon="4.53127">
        <ele>483.6</ele>
        <time>2025-09-06T14:26:57Z</time>
      </trkpt>
      <trkpt lat="46.18703" lon="4.53126">
        <ele>483.6</ele>
        <time>2025-09-06T14:26:58Z</time>
      </trkpt>
      <trkpt lat="46.18704" lon="4.53126">
        <ele>483.6</ele>
        <time>2025-09-06T14:26:59Z</time>
      </trkpt>
      <trkpt lat="46.18706" lon="4.53126">
        <ele>483.8</ele>
        <time>2025-09-06T14:27:00Z</time>
      </trkpt>
      <trkpt lat="46.18707" lon="4.53125">
        <ele>483.8</ele>
        <time>2025-09-06T14:27:01Z</time>
      </trkpt>
      <trkpt lat="46.18709" lon="4.53124">
        <ele>484.2</ele>
        <time>2025-09-06T14:27:02Z</time>
      </trkpt>
      <trkpt lat="46.1871" lon="4.53122">
        <ele>484.4</ele>
        <time>2025-09-06T14:27:03Z</time>
      </trkpt>
      <trkpt lat="46.18712" lon="4.53121">
        <ele>484.8</ele>
        <time>2025-09-06T14:27:04Z</time>
      </trkpt>
      <trkpt lat="46.18713" lon="4.5312">
        <ele>484.8</ele>
        <time>2025-09-06T14:27:05Z</time>
      </trkpt>
      <trkpt lat="46.18715" lon="4.53119">
        <ele>484.8</ele>
        <time>2025-09-06T14:27:06Z</time>
      </trkpt>
      <trkpt lat="46.18716" lon="4.53117">
        <ele>485</ele>
        <time>2025-09-06T14:27:07Z</time>
      </trkpt>
      <trkpt lat="46.18716" lon="4.53115">
        <ele>485</ele>
        <time>2025-09-06T14:27:08Z</time>
      </trkpt>
      <trkpt lat="46.18717" lon="4.53113">
        <ele>485</ele>
        <time>2025-09-06T14:27:09Z</time>
      </trkpt>
      <trkpt lat="46.18718" lon="4.53111">
        <ele>485</ele>
        <time>2025-09-06T14:27:10Z</time>
      </trkpt>
      <trkpt lat="46.18719" lon="4.53109">
        <ele>485</ele>
        <time>2025-09-06T14:27:11Z</time>
      </trkpt>
      <trkpt lat="46.18721" lon="4.53108">
        <ele>485</ele>
        <time>2025-09-06T14:27:12Z</time>
      </trkpt>
      <trkpt lat="46.18722" lon="4.53107">
        <ele>485</ele>
        <time>2025-09-06T14:27:13Z</time>
      </trkpt>
      <trkpt lat="46.18723" lon="4.53106">
        <ele>485</ele>
        <time>2025-09-06T14:27:14Z</time>
      </trkpt>
      <trkpt lat="46.18725" lon="4.53104">
        <ele>485.4</ele>
        <time>2025-09-06T14:27:15Z</time>
      </trkpt>
      <trkpt lat="46.18726" lon="4.53103">
        <ele>485.4</ele>
        <time>2025-09-06T14:27:16Z</time>
      </trkpt>
      <trkpt lat="46.18727" lon="4.53102">
        <ele>485.4</ele>
        <time>2025-09-06T14:27:17Z</time>
      </trkpt>
      <trkpt lat="46.18729" lon="4.53101">
        <ele>485.4</ele>
        <time>2025-09-06T14:27:18Z</time>
      </trkpt>
      <trkpt lat="46.1873" lon="4.531">
        <ele>485.4</ele>
        <time>2025-09-06T14:27:19Z</time>
      </trkpt>
      <trkpt lat="46.18732" lon="4.53098">
        <ele>485.8</ele>
        <time>2025-09-06T14:27:20Z</time>
      </trkpt>
      <trkpt lat="46.18733" lon="4.53097">
        <ele>485.8</ele>
        <time>2025-09-06T14:27:21Z</time>
      </trkpt>
      <trkpt lat="46.18735" lon="4.53096">
        <ele>485.8</ele>
        <time>2025-09-06T14:27:22Z</time>
      </trkpt>
      <trkpt lat="46.18736" lon="4.53095">
        <ele>486.2</ele>
        <time>2025-09-06T14:27:23Z</time>
      </trkpt>
      <trkpt lat="46.18738" lon="4.53094">
        <ele>486.2</ele>
        <time>2025-09-06T14:27:24Z</time>
      </trkpt>
      <trkpt lat="46.18739" lon="4.53093">
        <ele>486.4</ele>
        <time>2025-09-06T14:27:25Z</time>
      </trkpt>
      <trkpt lat="46.1874" lon="4.53092">
        <ele>487.2</ele>
        <time>2025-09-06T14:27:26Z</time>
      </trkpt>
      <trkpt lat="46.18742" lon="4.53091">
        <ele>487.2</ele>
        <time>2025-09-06T14:27:27Z</time>
      </trkpt>
      <trkpt lat="46.18743" lon="4.53091">
        <ele>487.2</ele>
        <time>2025-09-06T14:27:28Z</time>
      </trkpt>
      <trkpt lat="46.18745" lon="4.53091">
        <ele>487.2</ele>
        <time>2025-09-06T14:27:29Z</time>
      </trkpt>
      <trkpt lat="46.18747" lon="4.5309">
        <ele>487.2</ele>
        <time>2025-09-06T14:27:30Z</time>
      </trkpt>
      <trkpt lat="46.18748" lon="4.5309">
        <ele>487.2</ele>
        <time>2025-09-06T14:27:31Z</time>
      </trkpt>
      <trkpt lat="46.18749" lon="4.53089">
        <ele>487.2</ele>
        <time>2025-09-06T14:27:32Z</time>
      </trkpt>
      <trkpt lat="46.18751" lon="4.5309">
        <ele>487.4</ele>
        <time>2025-09-06T14:27:33Z</time>
      </trkpt>
      <trkpt lat="46.18752" lon="4.5309">
        <ele>487.4</ele>
        <time>2025-09-06T14:27:34Z</time>
      </trkpt>
      <trkpt lat="46.18753" lon="4.5309">
        <ele>487.8</ele>
        <time>2025-09-06T14:27:35Z</time>
      </trkpt>
      <trkpt lat="46.18754" lon="4.53088">
        <ele>488.4</ele>
        <time>2025-09-06T14:27:36Z</time>
      </trkpt>
      <trkpt lat="46.18755" lon="4.53086">
        <ele>488.6</ele>
        <time>2025-09-06T14:27:37Z</time>
      </trkpt>
      <trkpt lat="46.18756" lon="4.53086">
        <ele>488.8</ele>
        <time>2025-09-06T14:27:38Z</time>
      </trkpt>
      <trkpt lat="46.18757" lon="4.53085">
        <ele>488.8</ele>
        <time>2025-09-06T14:27:39Z</time>
      </trkpt>
      <trkpt lat="46.18758" lon="4.53084">
        <ele>489.2</ele>
        <time>2025-09-06T14:27:40Z</time>
      </trkpt>
      <trkpt lat="46.1876" lon="4.53084">
        <ele>489.2</ele>
        <time>2025-09-06T14:27:41Z</time>
      </trkpt>
      <trkpt lat="46.18761" lon="4.53083">
        <ele>489.2</ele>
        <time>2025-09-06T14:27:42Z</time>
      </trkpt>
      <trkpt lat="46.18763" lon="4.53082">
        <ele>489.6</ele>
        <time>2025-09-06T14:27:43Z</time>
      </trkpt>
      <trkpt lat="46.18764" lon="4.53082">
        <ele>489.6</ele>
        <time>2025-09-06T14:27:44Z</time>
      </trkpt>
      <trkpt lat="46.18765" lon="4.53081">
        <ele>489.6</ele>
        <time>2025-09-06T14:27:45Z</time>
      </trkpt>
      <trkpt lat="46.18766" lon="4.5308">
        <ele>489.6</ele>
        <time>2025-09-06T14:27:46Z</time>
      </trkpt>
      <trkpt lat="46.18767" lon="4.53079">
        <ele>489.8</ele>
        <time>2025-09-06T14:27:47Z</time>
      </trkpt>
      <trkpt lat="46.18769" lon="4.53078">
        <ele>489.8</ele>
        <time>2025-09-06T14:27:48Z</time>
      </trkpt>
      <trkpt lat="46.1877" lon="4.53076">
        <ele>489.8</ele>
        <time>2025-09-06T14:27:49Z</time>
      </trkpt>
    </trkseg>
  </trk>
</gpx>